<?xml version="1.0" encoding="utf-8"?>
<gpx xmlns:xsi="http://www.w3.org/2001/XMLSchema-instance" xmlns:xsd="http://www.w3.org/2001/XMLSchema" version="1.1" creator="Shapelink.com" xmlns="http://www.topografix.com/GPX/1/1" xmlns:gpxtpx="http://www.garmin.com/xmlschemas/TrackPointExtension/v1">
  <metadata>
    <name>Sykling 129.67 km, 2014-07-08</name>
    <desc></desc>
    <author><name>Mikael Blom</name></author> 
    <time>2014-07-08T09:47:06Z</time>
  </metadata>
  <trk>
    <name>Sykling 129.67 km, 2014-07-08</name>
    <trkseg>
      <trkpt lat="59.7406986" lon="17.8126618">
        <ele>32.8223</ele>
        <time>2014-07-08T09:47:06Z</time>
      </trkpt>
      <trkpt lat="59.7407033" lon="17.8125433">
        <ele>33.3029</ele>
        <time>2014-07-08T09:47:07Z</time>
      </trkpt>
      <trkpt lat="59.7407079" lon="17.8124253">
        <ele>33.3029</ele>
        <time>2014-07-08T09:47:08Z</time>
      </trkpt>
      <trkpt lat="59.7407122" lon="17.8123072">
        <ele>33.7834</ele>
        <time>2014-07-08T09:47:09Z</time>
      </trkpt>
      <trkpt lat="59.7407166" lon="17.8121886">
        <ele>33.7834</ele>
        <time>2014-07-08T09:47:10Z</time>
      </trkpt>
      <trkpt lat="59.7407213" lon="17.8120714">
        <ele>33.7834</ele>
        <time>2014-07-08T09:47:11Z</time>
      </trkpt>
      <trkpt lat="59.7407262" lon="17.8119548">
        <ele>34.2642</ele>
        <time>2014-07-08T09:47:12Z</time>
      </trkpt>
      <trkpt lat="59.7407305" lon="17.8118382">
        <ele>34.2642</ele>
        <time>2014-07-08T09:47:13Z</time>
      </trkpt>
      <trkpt lat="59.7407343" lon="17.8117225">
        <ele>34.7449</ele>
        <time>2014-07-08T09:47:14Z</time>
      </trkpt>
      <trkpt lat="59.7407375" lon="17.8116082">
        <ele>34.7449</ele>
        <time>2014-07-08T09:47:15Z</time>
      </trkpt>
      <trkpt lat="59.7407401" lon="17.8114966">
        <ele>35.2255</ele>
        <time>2014-07-08T09:47:16Z</time>
      </trkpt>
      <trkpt lat="59.7407442" lon="17.8113888">
        <ele>35.7061</ele>
        <time>2014-07-08T09:47:17Z</time>
      </trkpt>
      <trkpt lat="59.7407468" lon="17.8112909">
        <ele>36.1868</ele>
        <time>2014-07-08T09:47:18Z</time>
      </trkpt>
      <trkpt lat="59.7407529" lon="17.8111971">
        <ele>36.6675</ele>
        <time>2014-07-08T09:47:19Z</time>
      </trkpt>
      <trkpt lat="59.7407598" lon="17.8111033">
        <ele>37.1481</ele>
        <time>2014-07-08T09:47:20Z</time>
      </trkpt>
      <trkpt lat="59.7407654" lon="17.8110184">
        <ele>37.6287</ele>
        <time>2014-07-08T09:47:21Z</time>
      </trkpt>
      <trkpt lat="59.7407689" lon="17.8109377">
        <ele>38.1094</ele>
        <time>2014-07-08T09:47:22Z</time>
      </trkpt>
      <trkpt lat="59.7407674" lon="17.8108557">
        <ele>37.1481</ele>
        <time>2014-07-08T09:47:23Z</time>
      </trkpt>
      <trkpt lat="59.7407675" lon="17.8107908">
        <ele>36.6675</ele>
        <time>2014-07-08T09:47:24Z</time>
      </trkpt>
      <trkpt lat="59.740766" lon="17.8107547">
        <ele>36.6675</ele>
        <time>2014-07-08T09:47:25Z</time>
      </trkpt>
      <trkpt lat="59.740766" lon="17.8107408">
        <ele>36.6675</ele>
        <time>2014-07-08T09:47:26Z</time>
      </trkpt>
      <trkpt lat="59.7407669" lon="17.8107387">
        <ele>36.6675</ele>
        <time>2014-07-08T09:47:27Z</time>
      </trkpt>
      <trkpt lat="59.740767" lon="17.8107411">
        <ele>36.6675</ele>
        <time>2014-07-08T09:47:28Z</time>
      </trkpt>
      <trkpt lat="59.7407376" lon="17.8106335">
        <ele>36.1868</ele>
        <time>2014-07-08T09:49:02Z</time>
      </trkpt>
      <trkpt lat="59.7407401" lon="17.8106029">
        <ele>36.1868</ele>
        <time>2014-07-08T09:49:03Z</time>
      </trkpt>
      <trkpt lat="59.7407452" lon="17.8105624">
        <ele>36.6675</ele>
        <time>2014-07-08T09:49:04Z</time>
      </trkpt>
      <trkpt lat="59.7407468" lon="17.8105038">
        <ele>36.1868</ele>
        <time>2014-07-08T09:49:05Z</time>
      </trkpt>
      <trkpt lat="59.7407461" lon="17.8104347">
        <ele>36.1868</ele>
        <time>2014-07-08T09:49:06Z</time>
      </trkpt>
      <trkpt lat="59.7407442" lon="17.8103617">
        <ele>36.1868</ele>
        <time>2014-07-08T09:49:07Z</time>
      </trkpt>
      <trkpt lat="59.7407437" lon="17.8102845">
        <ele>36.6675</ele>
        <time>2014-07-08T09:49:08Z</time>
      </trkpt>
      <trkpt lat="59.7407432" lon="17.8102037">
        <ele>36.6675</ele>
        <time>2014-07-08T09:49:09Z</time>
      </trkpt>
      <trkpt lat="59.7407416" lon="17.8101187">
        <ele>37.1481</ele>
        <time>2014-07-08T09:49:10Z</time>
      </trkpt>
      <trkpt lat="59.7407391" lon="17.8100299">
        <ele>37.1481</ele>
        <time>2014-07-08T09:49:11Z</time>
      </trkpt>
      <trkpt lat="59.7407345" lon="17.8099342">
        <ele>37.1481</ele>
        <time>2014-07-08T09:49:12Z</time>
      </trkpt>
      <trkpt lat="59.7407314" lon="17.8098356">
        <ele>37.1481</ele>
        <time>2014-07-08T09:49:13Z</time>
      </trkpt>
      <trkpt lat="59.740729" lon="17.8097352">
        <ele>37.1481</ele>
        <time>2014-07-08T09:49:14Z</time>
      </trkpt>
      <trkpt lat="59.7407256" lon="17.8096339">
        <ele>37.1481</ele>
        <time>2014-07-08T09:49:15Z</time>
      </trkpt>
      <trkpt lat="59.7407219" lon="17.8095316">
        <ele>37.6287</ele>
        <time>2014-07-08T09:49:16Z</time>
      </trkpt>
      <trkpt lat="59.7407188" lon="17.8094284">
        <ele>37.6287</ele>
        <time>2014-07-08T09:49:17Z</time>
      </trkpt>
      <trkpt lat="59.7407147" lon="17.8093276">
        <ele>37.6287</ele>
        <time>2014-07-08T09:49:18Z</time>
      </trkpt>
      <trkpt lat="59.7407095" lon="17.8092311">
        <ele>38.1094</ele>
        <time>2014-07-08T09:49:19Z</time>
      </trkpt>
      <trkpt lat="59.7407053" lon="17.809136">
        <ele>38.1094</ele>
        <time>2014-07-08T09:49:20Z</time>
      </trkpt>
      <trkpt lat="59.7407012" lon="17.8090408">
        <ele>38.1094</ele>
        <time>2014-07-08T09:49:21Z</time>
      </trkpt>
      <trkpt lat="59.7406964" lon="17.8089438">
        <ele>38.5901</ele>
        <time>2014-07-08T09:49:22Z</time>
      </trkpt>
      <trkpt lat="59.7406903" lon="17.8088457">
        <ele>38.5901</ele>
        <time>2014-07-08T09:49:23Z</time>
      </trkpt>
      <trkpt lat="59.7406831" lon="17.8087473">
        <ele>39.0707</ele>
        <time>2014-07-08T09:49:24Z</time>
      </trkpt>
      <trkpt lat="59.7406741" lon="17.8086475">
        <ele>39.0707</ele>
        <time>2014-07-08T09:49:25Z</time>
      </trkpt>
      <trkpt lat="59.740663" lon="17.8085465">
        <ele>39.5513</ele>
        <time>2014-07-08T09:49:26Z</time>
      </trkpt>
      <trkpt lat="59.7406515" lon="17.8084452">
        <ele>39.5513</ele>
        <time>2014-07-08T09:49:27Z</time>
      </trkpt>
      <trkpt lat="59.7406397" lon="17.8083422">
        <ele>39.5513</ele>
        <time>2014-07-08T09:49:28Z</time>
      </trkpt>
      <trkpt lat="59.7406275" lon="17.8082378">
        <ele>40.0321</ele>
        <time>2014-07-08T09:49:29Z</time>
      </trkpt>
      <trkpt lat="59.7406133" lon="17.808133">
        <ele>40.5128</ele>
        <time>2014-07-08T09:49:30Z</time>
      </trkpt>
      <trkpt lat="59.7405827" lon="17.8079182">
        <ele>40.5128</ele>
        <time>2014-07-08T09:49:31Z</time>
      </trkpt>
      <trkpt lat="59.7405658" lon="17.8078092">
        <ele>40.9934</ele>
        <time>2014-07-08T09:49:32Z</time>
      </trkpt>
      <trkpt lat="59.7405474" lon="17.8077011">
        <ele>40.9934</ele>
        <time>2014-07-08T09:49:33Z</time>
      </trkpt>
      <trkpt lat="59.740529" lon="17.8075938">
        <ele>41.474</ele>
        <time>2014-07-08T09:49:34Z</time>
      </trkpt>
      <trkpt lat="59.7405099" lon="17.8074851">
        <ele>41.474</ele>
        <time>2014-07-08T09:49:35Z</time>
      </trkpt>
      <trkpt lat="59.7404894" lon="17.8073748">
        <ele>41.474</ele>
        <time>2014-07-08T09:49:36Z</time>
      </trkpt>
      <trkpt lat="59.7404681" lon="17.8072644">
        <ele>41.9547</ele>
        <time>2014-07-08T09:49:37Z</time>
      </trkpt>
      <trkpt lat="59.7404451" lon="17.8071547">
        <ele>41.9547</ele>
        <time>2014-07-08T09:49:38Z</time>
      </trkpt>
      <trkpt lat="59.7404202" lon="17.8070454">
        <ele>41.9547</ele>
        <time>2014-07-08T09:49:39Z</time>
      </trkpt>
      <trkpt lat="59.7403947" lon="17.8069359">
        <ele>42.4354</ele>
        <time>2014-07-08T09:49:40Z</time>
      </trkpt>
      <trkpt lat="59.7403688" lon="17.8068262">
        <ele>42.4354</ele>
        <time>2014-07-08T09:49:41Z</time>
      </trkpt>
      <trkpt lat="59.7403422" lon="17.8067174">
        <ele>42.4354</ele>
        <time>2014-07-08T09:49:42Z</time>
      </trkpt>
      <trkpt lat="59.7403144" lon="17.8066101">
        <ele>42.916</ele>
        <time>2014-07-08T09:49:43Z</time>
      </trkpt>
      <trkpt lat="59.7402856" lon="17.806506">
        <ele>42.916</ele>
        <time>2014-07-08T09:49:44Z</time>
      </trkpt>
      <trkpt lat="59.740256" lon="17.806404">
        <ele>42.916</ele>
        <time>2014-07-08T09:49:45Z</time>
      </trkpt>
      <trkpt lat="59.7402267" lon="17.8063034">
        <ele>43.3966</ele>
        <time>2014-07-08T09:49:46Z</time>
      </trkpt>
      <trkpt lat="59.7401975" lon="17.806203">
        <ele>43.3966</ele>
        <time>2014-07-08T09:49:47Z</time>
      </trkpt>
      <trkpt lat="59.7401686" lon="17.8061024">
        <ele>43.8773</ele>
        <time>2014-07-08T09:49:48Z</time>
      </trkpt>
      <trkpt lat="59.7401387" lon="17.8060023">
        <ele>43.8773</ele>
        <time>2014-07-08T09:49:49Z</time>
      </trkpt>
      <trkpt lat="59.7401082" lon="17.8059021">
        <ele>44.358</ele>
        <time>2014-07-08T09:49:50Z</time>
      </trkpt>
      <trkpt lat="59.7400773" lon="17.8058025">
        <ele>44.358</ele>
        <time>2014-07-08T09:49:51Z</time>
      </trkpt>
      <trkpt lat="59.7400452" lon="17.8057047">
        <ele>44.358</ele>
        <time>2014-07-08T09:49:52Z</time>
      </trkpt>
      <trkpt lat="59.7400123" lon="17.8056089">
        <ele>44.8386</ele>
        <time>2014-07-08T09:49:53Z</time>
      </trkpt>
      <trkpt lat="59.7399794" lon="17.8055161">
        <ele>44.8386</ele>
        <time>2014-07-08T09:49:54Z</time>
      </trkpt>
      <trkpt lat="59.7399488" lon="17.8054232">
        <ele>45.3192</ele>
        <time>2014-07-08T09:49:55Z</time>
      </trkpt>
      <trkpt lat="59.7399226" lon="17.8053255">
        <ele>45.3192</ele>
        <time>2014-07-08T09:49:56Z</time>
      </trkpt>
      <trkpt lat="59.7399043" lon="17.8052219">
        <ele>45.3192</ele>
        <time>2014-07-08T09:49:57Z</time>
      </trkpt>
      <trkpt lat="59.7398913" lon="17.8051175">
        <ele>45.7999</ele>
        <time>2014-07-08T09:49:58Z</time>
      </trkpt>
      <trkpt lat="59.7398739" lon="17.8050182">
        <ele>45.7999</ele>
        <time>2014-07-08T09:49:59Z</time>
      </trkpt>
      <trkpt lat="59.7398486" lon="17.804935">
        <ele>45.7999</ele>
        <time>2014-07-08T09:50:00Z</time>
      </trkpt>
      <trkpt lat="59.7398246" lon="17.804877">
        <ele>46.2806</ele>
        <time>2014-07-08T09:50:01Z</time>
      </trkpt>
      <trkpt lat="59.7398116" lon="17.8048323">
        <ele>46.2806</ele>
        <time>2014-07-08T09:50:02Z</time>
      </trkpt>
      <trkpt lat="59.7398127" lon="17.8047865">
        <ele>46.2806</ele>
        <time>2014-07-08T09:50:03Z</time>
      </trkpt>
      <trkpt lat="59.7398259" lon="17.8047438">
        <ele>46.2806</ele>
        <time>2014-07-08T09:50:04Z</time>
      </trkpt>
      <trkpt lat="59.7398365" lon="17.8047009">
        <ele>46.2806</ele>
        <time>2014-07-08T09:50:05Z</time>
      </trkpt>
      <trkpt lat="59.7398285" lon="17.8046604">
        <ele>45.7999</ele>
        <time>2014-07-08T09:50:06Z</time>
      </trkpt>
      <trkpt lat="59.7397971" lon="17.8046338">
        <ele>45.7999</ele>
        <time>2014-07-08T09:50:07Z</time>
      </trkpt>
      <trkpt lat="59.7397525" lon="17.8046163">
        <ele>45.3192</ele>
        <time>2014-07-08T09:50:08Z</time>
      </trkpt>
      <trkpt lat="59.739701" lon="17.8045892">
        <ele>44.8386</ele>
        <time>2014-07-08T09:50:09Z</time>
      </trkpt>
      <trkpt lat="59.739645" lon="17.8045474">
        <ele>44.8386</ele>
        <time>2014-07-08T09:50:10Z</time>
      </trkpt>
      <trkpt lat="59.7395853" lon="17.8044936">
        <ele>44.358</ele>
        <time>2014-07-08T09:50:11Z</time>
      </trkpt>
      <trkpt lat="59.7395226" lon="17.8044247">
        <ele>44.358</ele>
        <time>2014-07-08T09:50:12Z</time>
      </trkpt>
      <trkpt lat="59.7394611" lon="17.8043405">
        <ele>44.358</ele>
        <time>2014-07-08T09:50:13Z</time>
      </trkpt>
      <trkpt lat="59.7394052" lon="17.8042494">
        <ele>44.358</ele>
        <time>2014-07-08T09:50:14Z</time>
      </trkpt>
      <trkpt lat="59.7393507" lon="17.8041537">
        <ele>44.358</ele>
        <time>2014-07-08T09:50:15Z</time>
      </trkpt>
      <trkpt lat="59.7392969" lon="17.8040523">
        <ele>43.8773</ele>
        <time>2014-07-08T09:50:16Z</time>
      </trkpt>
      <trkpt lat="59.7392436" lon="17.80395">
        <ele>43.8773</ele>
        <time>2014-07-08T09:50:17Z</time>
      </trkpt>
      <trkpt lat="59.7391903" lon="17.8038489">
        <ele>43.8773</ele>
        <time>2014-07-08T09:50:18Z</time>
      </trkpt>
      <trkpt lat="59.7391369" lon="17.8037512">
        <ele>43.8773</ele>
        <time>2014-07-08T09:50:19Z</time>
      </trkpt>
      <trkpt lat="59.7390833" lon="17.8036544">
        <ele>43.8773</ele>
        <time>2014-07-08T09:50:20Z</time>
      </trkpt>
      <trkpt lat="59.7390296" lon="17.8035601">
        <ele>44.358</ele>
        <time>2014-07-08T09:50:21Z</time>
      </trkpt>
      <trkpt lat="59.7389762" lon="17.8034657">
        <ele>44.358</ele>
        <time>2014-07-08T09:50:22Z</time>
      </trkpt>
      <trkpt lat="59.7389227" lon="17.8033716">
        <ele>43.8773</ele>
        <time>2014-07-08T09:50:23Z</time>
      </trkpt>
      <trkpt lat="59.7388695" lon="17.803276">
        <ele>43.8773</ele>
        <time>2014-07-08T09:50:24Z</time>
      </trkpt>
      <trkpt lat="59.7388172" lon="17.8031788">
        <ele>44.358</ele>
        <time>2014-07-08T09:50:25Z</time>
      </trkpt>
      <trkpt lat="59.7387654" lon="17.803083">
        <ele>44.358</ele>
        <time>2014-07-08T09:50:26Z</time>
      </trkpt>
      <trkpt lat="59.7387142" lon="17.8029865">
        <ele>44.358</ele>
        <time>2014-07-08T09:50:27Z</time>
      </trkpt>
      <trkpt lat="59.7386637" lon="17.8028919">
        <ele>44.8386</ele>
        <time>2014-07-08T09:50:28Z</time>
      </trkpt>
      <trkpt lat="59.7386136" lon="17.802797">
        <ele>44.8386</ele>
        <time>2014-07-08T09:50:29Z</time>
      </trkpt>
      <trkpt lat="59.7385644" lon="17.8027063">
        <ele>45.3192</ele>
        <time>2014-07-08T09:50:30Z</time>
      </trkpt>
      <trkpt lat="59.7385181" lon="17.8026128">
        <ele>45.7999</ele>
        <time>2014-07-08T09:50:31Z</time>
      </trkpt>
      <trkpt lat="59.7384746" lon="17.8025147">
        <ele>45.3192</ele>
        <time>2014-07-08T09:50:32Z</time>
      </trkpt>
      <trkpt lat="59.7384313" lon="17.802421">
        <ele>45.3192</ele>
        <time>2014-07-08T09:50:33Z</time>
      </trkpt>
      <trkpt lat="59.738386" lon="17.8023345">
        <ele>46.2806</ele>
        <time>2014-07-08T09:50:34Z</time>
      </trkpt>
      <trkpt lat="59.73834" lon="17.8022504">
        <ele>46.7612</ele>
        <time>2014-07-08T09:50:35Z</time>
      </trkpt>
      <trkpt lat="59.7382951" lon="17.8021676">
        <ele>47.2418</ele>
        <time>2014-07-08T09:50:36Z</time>
      </trkpt>
      <trkpt lat="59.7382514" lon="17.8020858">
        <ele>47.7225</ele>
        <time>2014-07-08T09:50:37Z</time>
      </trkpt>
      <trkpt lat="59.738208" lon="17.8020062">
        <ele>47.7225</ele>
        <time>2014-07-08T09:50:38Z</time>
      </trkpt>
      <trkpt lat="59.7381654" lon="17.8019293">
        <ele>48.2034</ele>
        <time>2014-07-08T09:50:39Z</time>
      </trkpt>
      <trkpt lat="59.7381239" lon="17.8018525">
        <ele>48.684</ele>
        <time>2014-07-08T09:50:40Z</time>
      </trkpt>
      <trkpt lat="59.73808" lon="17.8017828">
        <ele>49.1646</ele>
        <time>2014-07-08T09:50:41Z</time>
      </trkpt>
      <trkpt lat="59.7380339" lon="17.8017122">
        <ele>49.1646</ele>
        <time>2014-07-08T09:50:42Z</time>
      </trkpt>
      <trkpt lat="59.7379875" lon="17.8016374">
        <ele>49.6453</ele>
        <time>2014-07-08T09:50:43Z</time>
      </trkpt>
      <trkpt lat="59.7379412" lon="17.801558">
        <ele>49.1646</ele>
        <time>2014-07-08T09:50:44Z</time>
      </trkpt>
      <trkpt lat="59.7378936" lon="17.8014756">
        <ele>49.1646</ele>
        <time>2014-07-08T09:50:45Z</time>
      </trkpt>
      <trkpt lat="59.7378445" lon="17.8013937">
        <ele>48.684</ele>
        <time>2014-07-08T09:50:46Z</time>
      </trkpt>
      <trkpt lat="59.737792" lon="17.8013105">
        <ele>48.684</ele>
        <time>2014-07-08T09:50:47Z</time>
      </trkpt>
      <trkpt lat="59.7377361" lon="17.8012278">
        <ele>48.684</ele>
        <time>2014-07-08T09:50:48Z</time>
      </trkpt>
      <trkpt lat="59.7376785" lon="17.8011394">
        <ele>48.684</ele>
        <time>2014-07-08T09:50:49Z</time>
      </trkpt>
      <trkpt lat="59.7376199" lon="17.8010479">
        <ele>48.2034</ele>
        <time>2014-07-08T09:50:50Z</time>
      </trkpt>
      <trkpt lat="59.7375619" lon="17.8009546">
        <ele>48.2034</ele>
        <time>2014-07-08T09:50:51Z</time>
      </trkpt>
      <trkpt lat="59.737504" lon="17.8008649">
        <ele>48.684</ele>
        <time>2014-07-08T09:50:52Z</time>
      </trkpt>
      <trkpt lat="59.7374471" lon="17.8007736">
        <ele>48.684</ele>
        <time>2014-07-08T09:50:53Z</time>
      </trkpt>
      <trkpt lat="59.7373918" lon="17.8006775">
        <ele>48.2034</ele>
        <time>2014-07-08T09:50:54Z</time>
      </trkpt>
      <trkpt lat="59.7373373" lon="17.8005831">
        <ele>47.7225</ele>
        <time>2014-07-08T09:50:55Z</time>
      </trkpt>
      <trkpt lat="59.7372845" lon="17.8004868">
        <ele>47.2418</ele>
        <time>2014-07-08T09:50:56Z</time>
      </trkpt>
      <trkpt lat="59.7372332" lon="17.8003919">
        <ele>46.7612</ele>
        <time>2014-07-08T09:50:57Z</time>
      </trkpt>
      <trkpt lat="59.7371827" lon="17.8002972">
        <ele>46.7612</ele>
        <time>2014-07-08T09:50:58Z</time>
      </trkpt>
      <trkpt lat="59.7371327" lon="17.8002033">
        <ele>46.2806</ele>
        <time>2014-07-08T09:50:59Z</time>
      </trkpt>
      <trkpt lat="59.7370843" lon="17.8001096">
        <ele>45.7999</ele>
        <time>2014-07-08T09:51:00Z</time>
      </trkpt>
      <trkpt lat="59.7370367" lon="17.8000153">
        <ele>45.3192</ele>
        <time>2014-07-08T09:51:01Z</time>
      </trkpt>
      <trkpt lat="59.7369901" lon="17.7999165">
        <ele>44.8386</ele>
        <time>2014-07-08T09:51:02Z</time>
      </trkpt>
      <trkpt lat="59.7369421" lon="17.7998168">
        <ele>44.8386</ele>
        <time>2014-07-08T09:51:03Z</time>
      </trkpt>
      <trkpt lat="59.7368903" lon="17.799719">
        <ele>44.358</ele>
        <time>2014-07-08T09:51:04Z</time>
      </trkpt>
      <trkpt lat="59.7368373" lon="17.7996196">
        <ele>43.8773</ele>
        <time>2014-07-08T09:51:05Z</time>
      </trkpt>
      <trkpt lat="59.7367851" lon="17.7995176">
        <ele>43.3966</ele>
        <time>2014-07-08T09:51:06Z</time>
      </trkpt>
      <trkpt lat="59.7367326" lon="17.7994148">
        <ele>42.916</ele>
        <time>2014-07-08T09:51:07Z</time>
      </trkpt>
      <trkpt lat="59.7366778" lon="17.7993139">
        <ele>42.4354</ele>
        <time>2014-07-08T09:51:08Z</time>
      </trkpt>
      <trkpt lat="59.7366225" lon="17.7992128">
        <ele>42.4354</ele>
        <time>2014-07-08T09:51:09Z</time>
      </trkpt>
      <trkpt lat="59.7365678" lon="17.7991114">
        <ele>41.9547</ele>
        <time>2014-07-08T09:51:10Z</time>
      </trkpt>
      <trkpt lat="59.7365131" lon="17.7990093">
        <ele>41.9547</ele>
        <time>2014-07-08T09:51:11Z</time>
      </trkpt>
      <trkpt lat="59.7364582" lon="17.7989059">
        <ele>41.474</ele>
        <time>2014-07-08T09:51:12Z</time>
      </trkpt>
      <trkpt lat="59.7364031" lon="17.7988033">
        <ele>41.474</ele>
        <time>2014-07-08T09:51:13Z</time>
      </trkpt>
      <trkpt lat="59.7363474" lon="17.7987022">
        <ele>41.474</ele>
        <time>2014-07-08T09:51:14Z</time>
      </trkpt>
      <trkpt lat="59.7362922" lon="17.7986007">
        <ele>41.474</ele>
        <time>2014-07-08T09:51:15Z</time>
      </trkpt>
      <trkpt lat="59.736237" lon="17.7985002">
        <ele>41.474</ele>
        <time>2014-07-08T09:51:16Z</time>
      </trkpt>
      <trkpt lat="59.7361815" lon="17.7984019">
        <ele>41.474</ele>
        <time>2014-07-08T09:51:17Z</time>
      </trkpt>
      <trkpt lat="59.7361251" lon="17.7983068">
        <ele>40.9934</ele>
        <time>2014-07-08T09:51:18Z</time>
      </trkpt>
      <trkpt lat="59.7360681" lon="17.7982128">
        <ele>40.9934</ele>
        <time>2014-07-08T09:51:19Z</time>
      </trkpt>
      <trkpt lat="59.7360115" lon="17.798117">
        <ele>40.9934</ele>
        <time>2014-07-08T09:51:20Z</time>
      </trkpt>
      <trkpt lat="59.7359558" lon="17.7980175">
        <ele>40.5128</ele>
        <time>2014-07-08T09:51:21Z</time>
      </trkpt>
      <trkpt lat="59.7358997" lon="17.7979189">
        <ele>40.5128</ele>
        <time>2014-07-08T09:51:22Z</time>
      </trkpt>
      <trkpt lat="59.7358428" lon="17.7978222">
        <ele>40.5128</ele>
        <time>2014-07-08T09:51:23Z</time>
      </trkpt>
      <trkpt lat="59.7357853" lon="17.7977279">
        <ele>40.0321</ele>
        <time>2014-07-08T09:51:24Z</time>
      </trkpt>
      <trkpt lat="59.7357276" lon="17.7976331">
        <ele>40.0321</ele>
        <time>2014-07-08T09:51:25Z</time>
      </trkpt>
      <trkpt lat="59.7356698" lon="17.7975372">
        <ele>40.0321</ele>
        <time>2014-07-08T09:51:26Z</time>
      </trkpt>
      <trkpt lat="59.7356113" lon="17.7974408">
        <ele>40.0321</ele>
        <time>2014-07-08T09:51:27Z</time>
      </trkpt>
      <trkpt lat="59.7355527" lon="17.7973456">
        <ele>39.5513</ele>
        <time>2014-07-08T09:51:28Z</time>
      </trkpt>
      <trkpt lat="59.7354936" lon="17.797258">
        <ele>39.5513</ele>
        <time>2014-07-08T09:51:29Z</time>
      </trkpt>
      <trkpt lat="59.735436" lon="17.7971705">
        <ele>39.0707</ele>
        <time>2014-07-08T09:51:30Z</time>
      </trkpt>
      <trkpt lat="59.7353761" lon="17.7970906">
        <ele>39.0707</ele>
        <time>2014-07-08T09:51:31Z</time>
      </trkpt>
      <trkpt lat="59.7353143" lon="17.7970161">
        <ele>39.0707</ele>
        <time>2014-07-08T09:51:32Z</time>
      </trkpt>
      <trkpt lat="59.7352507" lon="17.7969452">
        <ele>38.5901</ele>
        <time>2014-07-08T09:51:33Z</time>
      </trkpt>
      <trkpt lat="59.7351855" lon="17.7968787">
        <ele>38.5901</ele>
        <time>2014-07-08T09:51:34Z</time>
      </trkpt>
      <trkpt lat="59.7351207" lon="17.7968129">
        <ele>38.1094</ele>
        <time>2014-07-08T09:51:35Z</time>
      </trkpt>
      <trkpt lat="59.7350559" lon="17.7967514">
        <ele>38.1094</ele>
        <time>2014-07-08T09:51:36Z</time>
      </trkpt>
      <trkpt lat="59.7349907" lon="17.7966985">
        <ele>37.6287</ele>
        <time>2014-07-08T09:51:37Z</time>
      </trkpt>
      <trkpt lat="59.7349273" lon="17.7966478">
        <ele>37.6287</ele>
        <time>2014-07-08T09:51:38Z</time>
      </trkpt>
      <trkpt lat="59.734868" lon="17.7965945">
        <ele>37.6287</ele>
        <time>2014-07-08T09:51:39Z</time>
      </trkpt>
      <trkpt lat="59.7348139" lon="17.7965414">
        <ele>37.6287</ele>
        <time>2014-07-08T09:51:40Z</time>
      </trkpt>
      <trkpt lat="59.7347659" lon="17.7964763">
        <ele>37.6287</ele>
        <time>2014-07-08T09:51:41Z</time>
      </trkpt>
      <trkpt lat="59.7347284" lon="17.7963888">
        <ele>37.6287</ele>
        <time>2014-07-08T09:51:42Z</time>
      </trkpt>
      <trkpt lat="59.7346999" lon="17.7962865">
        <ele>37.1481</ele>
        <time>2014-07-08T09:51:43Z</time>
      </trkpt>
      <trkpt lat="59.7346669" lon="17.796191">
        <ele>37.1481</ele>
        <time>2014-07-08T09:51:44Z</time>
      </trkpt>
      <trkpt lat="59.7346229" lon="17.7961158">
        <ele>37.6287</ele>
        <time>2014-07-08T09:51:45Z</time>
      </trkpt>
      <trkpt lat="59.7345726" lon="17.7960567">
        <ele>37.6287</ele>
        <time>2014-07-08T09:51:46Z</time>
      </trkpt>
      <trkpt lat="59.7345197" lon="17.7960008">
        <ele>37.1481</ele>
        <time>2014-07-08T09:51:47Z</time>
      </trkpt>
      <trkpt lat="59.7344628" lon="17.7959457">
        <ele>37.1481</ele>
        <time>2014-07-08T09:51:48Z</time>
      </trkpt>
      <trkpt lat="59.7344026" lon="17.7959087">
        <ele>37.1481</ele>
        <time>2014-07-08T09:51:49Z</time>
      </trkpt>
      <trkpt lat="59.7343447" lon="17.7959147">
        <ele>37.1481</ele>
        <time>2014-07-08T09:51:50Z</time>
      </trkpt>
      <trkpt lat="59.7342914" lon="17.795949">
        <ele>37.6287</ele>
        <time>2014-07-08T09:51:51Z</time>
      </trkpt>
      <trkpt lat="59.7342354" lon="17.7959676">
        <ele>37.6287</ele>
        <time>2014-07-08T09:51:52Z</time>
      </trkpt>
      <trkpt lat="59.7341774" lon="17.7959562">
        <ele>37.6287</ele>
        <time>2014-07-08T09:51:53Z</time>
      </trkpt>
      <trkpt lat="59.7341204" lon="17.7959301">
        <ele>37.6287</ele>
        <time>2014-07-08T09:51:54Z</time>
      </trkpt>
      <trkpt lat="59.7340634" lon="17.7959027">
        <ele>37.6287</ele>
        <time>2014-07-08T09:51:55Z</time>
      </trkpt>
      <trkpt lat="59.7340059" lon="17.7958759">
        <ele>38.1094</ele>
        <time>2014-07-08T09:51:56Z</time>
      </trkpt>
      <trkpt lat="59.7339484" lon="17.795845">
        <ele>38.1094</ele>
        <time>2014-07-08T09:51:57Z</time>
      </trkpt>
      <trkpt lat="59.7338905" lon="17.7958184">
        <ele>38.1094</ele>
        <time>2014-07-08T09:51:58Z</time>
      </trkpt>
      <trkpt lat="59.7338319" lon="17.7958038">
        <ele>38.1094</ele>
        <time>2014-07-08T09:51:59Z</time>
      </trkpt>
      <trkpt lat="59.7337723" lon="17.795792">
        <ele>38.1094</ele>
        <time>2014-07-08T09:52:00Z</time>
      </trkpt>
      <trkpt lat="59.7337127" lon="17.795773">
        <ele>38.1094</ele>
        <time>2014-07-08T09:52:01Z</time>
      </trkpt>
      <trkpt lat="59.7336525" lon="17.7957516">
        <ele>38.5901</ele>
        <time>2014-07-08T09:52:02Z</time>
      </trkpt>
      <trkpt lat="59.733592" lon="17.7957276">
        <ele>38.5901</ele>
        <time>2014-07-08T09:52:03Z</time>
      </trkpt>
      <trkpt lat="59.7335319" lon="17.7956999">
        <ele>38.5901</ele>
        <time>2014-07-08T09:52:04Z</time>
      </trkpt>
      <trkpt lat="59.7334707" lon="17.795676">
        <ele>38.5901</ele>
        <time>2014-07-08T09:52:05Z</time>
      </trkpt>
      <trkpt lat="59.7334096" lon="17.7956537">
        <ele>38.1094</ele>
        <time>2014-07-08T09:52:06Z</time>
      </trkpt>
      <trkpt lat="59.7333485" lon="17.7956334">
        <ele>38.1094</ele>
        <time>2014-07-08T09:52:07Z</time>
      </trkpt>
      <trkpt lat="59.7332874" lon="17.7956178">
        <ele>37.6287</ele>
        <time>2014-07-08T09:52:08Z</time>
      </trkpt>
      <trkpt lat="59.7332267" lon="17.795602">
        <ele>37.1481</ele>
        <time>2014-07-08T09:52:09Z</time>
      </trkpt>
      <trkpt lat="59.7331658" lon="17.7955853">
        <ele>36.6675</ele>
        <time>2014-07-08T09:52:10Z</time>
      </trkpt>
      <trkpt lat="59.7331087" lon="17.7955729">
        <ele>36.1868</ele>
        <time>2014-07-08T09:52:11Z</time>
      </trkpt>
      <trkpt lat="59.7330517" lon="17.7955642">
        <ele>36.1868</ele>
        <time>2014-07-08T09:52:12Z</time>
      </trkpt>
      <trkpt lat="59.7329928" lon="17.7955537">
        <ele>35.2255</ele>
        <time>2014-07-08T09:52:13Z</time>
      </trkpt>
      <trkpt lat="59.7329351" lon="17.7955468">
        <ele>35.2255</ele>
        <time>2014-07-08T09:52:14Z</time>
      </trkpt>
      <trkpt lat="59.7328778" lon="17.7955315">
        <ele>35.2255</ele>
        <time>2014-07-08T09:52:15Z</time>
      </trkpt>
      <trkpt lat="59.7328208" lon="17.7955202">
        <ele>35.2255</ele>
        <time>2014-07-08T09:52:16Z</time>
      </trkpt>
      <trkpt lat="59.7327636" lon="17.7955117">
        <ele>35.2255</ele>
        <time>2014-07-08T09:52:17Z</time>
      </trkpt>
      <trkpt lat="59.7327051" lon="17.7955004">
        <ele>35.2255</ele>
        <time>2014-07-08T09:52:18Z</time>
      </trkpt>
      <trkpt lat="59.7326451" lon="17.7954879">
        <ele>35.2255</ele>
        <time>2014-07-08T09:52:19Z</time>
      </trkpt>
      <trkpt lat="59.7325824" lon="17.7954846">
        <ele>35.7061</ele>
        <time>2014-07-08T09:52:20Z</time>
      </trkpt>
      <trkpt lat="59.7325196" lon="17.7954852">
        <ele>35.7061</ele>
        <time>2014-07-08T09:52:21Z</time>
      </trkpt>
      <trkpt lat="59.7324597" lon="17.7954881">
        <ele>35.2255</ele>
        <time>2014-07-08T09:52:22Z</time>
      </trkpt>
      <trkpt lat="59.7324022" lon="17.7954961">
        <ele>35.2255</ele>
        <time>2014-07-08T09:52:23Z</time>
      </trkpt>
      <trkpt lat="59.7323469" lon="17.7954931">
        <ele>34.7449</ele>
        <time>2014-07-08T09:52:24Z</time>
      </trkpt>
      <trkpt lat="59.7322924" lon="17.7954766">
        <ele>34.7449</ele>
        <time>2014-07-08T09:52:25Z</time>
      </trkpt>
      <trkpt lat="59.7322374" lon="17.7954526">
        <ele>34.7449</ele>
        <time>2014-07-08T09:52:26Z</time>
      </trkpt>
      <trkpt lat="59.7321828" lon="17.7954209">
        <ele>34.2642</ele>
        <time>2014-07-08T09:52:27Z</time>
      </trkpt>
      <trkpt lat="59.7321274" lon="17.795386">
        <ele>34.2642</ele>
        <time>2014-07-08T09:52:28Z</time>
      </trkpt>
      <trkpt lat="59.7320706" lon="17.7953489">
        <ele>34.2642</ele>
        <time>2014-07-08T09:52:29Z</time>
      </trkpt>
      <trkpt lat="59.7320129" lon="17.7953077">
        <ele>33.7834</ele>
        <time>2014-07-08T09:52:30Z</time>
      </trkpt>
      <trkpt lat="59.7319551" lon="17.7952584">
        <ele>33.3029</ele>
        <time>2014-07-08T09:52:31Z</time>
      </trkpt>
      <trkpt lat="59.7318967" lon="17.7952044">
        <ele>33.3029</ele>
        <time>2014-07-08T09:52:32Z</time>
      </trkpt>
      <trkpt lat="59.7318391" lon="17.7951484">
        <ele>32.8223</ele>
        <time>2014-07-08T09:52:33Z</time>
      </trkpt>
      <trkpt lat="59.7317831" lon="17.7950902">
        <ele>32.8223</ele>
        <time>2014-07-08T09:52:34Z</time>
      </trkpt>
      <trkpt lat="59.7317282" lon="17.7950299">
        <ele>32.8223</ele>
        <time>2014-07-08T09:52:35Z</time>
      </trkpt>
      <trkpt lat="59.7316763" lon="17.7949637">
        <ele>32.3416</ele>
        <time>2014-07-08T09:52:36Z</time>
      </trkpt>
      <trkpt lat="59.7316256" lon="17.7948993">
        <ele>32.8223</ele>
        <time>2014-07-08T09:52:37Z</time>
      </trkpt>
      <trkpt lat="59.7315753" lon="17.7948351">
        <ele>32.8223</ele>
        <time>2014-07-08T09:52:38Z</time>
      </trkpt>
      <trkpt lat="59.731526" lon="17.7947674">
        <ele>32.8223</ele>
        <time>2014-07-08T09:52:39Z</time>
      </trkpt>
      <trkpt lat="59.7314759" lon="17.7947015">
        <ele>32.8223</ele>
        <time>2014-07-08T09:52:40Z</time>
      </trkpt>
      <trkpt lat="59.7314268" lon="17.7946315">
        <ele>32.8223</ele>
        <time>2014-07-08T09:52:41Z</time>
      </trkpt>
      <trkpt lat="59.7313787" lon="17.79456">
        <ele>32.3416</ele>
        <time>2014-07-08T09:52:42Z</time>
      </trkpt>
      <trkpt lat="59.7313314" lon="17.7944878">
        <ele>32.3416</ele>
        <time>2014-07-08T09:52:43Z</time>
      </trkpt>
      <trkpt lat="59.7312833" lon="17.7944149">
        <ele>32.3416</ele>
        <time>2014-07-08T09:52:44Z</time>
      </trkpt>
      <trkpt lat="59.7312335" lon="17.7943411">
        <ele>32.3416</ele>
        <time>2014-07-08T09:52:45Z</time>
      </trkpt>
      <trkpt lat="59.7311838" lon="17.7942676">
        <ele>32.8223</ele>
        <time>2014-07-08T09:52:46Z</time>
      </trkpt>
      <trkpt lat="59.7311351" lon="17.7941961">
        <ele>32.8223</ele>
        <time>2014-07-08T09:52:47Z</time>
      </trkpt>
      <trkpt lat="59.7310862" lon="17.7941274">
        <ele>32.8223</ele>
        <time>2014-07-08T09:52:48Z</time>
      </trkpt>
      <trkpt lat="59.7310367" lon="17.7940592">
        <ele>32.8223</ele>
        <time>2014-07-08T09:52:49Z</time>
      </trkpt>
      <trkpt lat="59.7309881" lon="17.7939857">
        <ele>32.8223</ele>
        <time>2014-07-08T09:52:50Z</time>
      </trkpt>
      <trkpt lat="59.7309396" lon="17.7939127">
        <ele>32.8223</ele>
        <time>2014-07-08T09:52:51Z</time>
      </trkpt>
      <trkpt lat="59.7308916" lon="17.7938449">
        <ele>32.3416</ele>
        <time>2014-07-08T09:52:52Z</time>
      </trkpt>
      <trkpt lat="59.7308466" lon="17.7937799">
        <ele>31.8607</ele>
        <time>2014-07-08T09:52:53Z</time>
      </trkpt>
      <trkpt lat="59.7308046" lon="17.7937167">
        <ele>32.3416</ele>
        <time>2014-07-08T09:52:54Z</time>
      </trkpt>
      <trkpt lat="59.7307657" lon="17.7936533">
        <ele>32.8223</ele>
        <time>2014-07-08T09:52:55Z</time>
      </trkpt>
      <trkpt lat="59.730729" lon="17.7935883">
        <ele>32.8223</ele>
        <time>2014-07-08T09:52:56Z</time>
      </trkpt>
      <trkpt lat="59.7306953" lon="17.793517">
        <ele>32.8223</ele>
        <time>2014-07-08T09:52:57Z</time>
      </trkpt>
      <trkpt lat="59.730663" lon="17.7934429">
        <ele>32.8223</ele>
        <time>2014-07-08T09:52:58Z</time>
      </trkpt>
      <trkpt lat="59.73063" lon="17.7933625">
        <ele>33.3029</ele>
        <time>2014-07-08T09:52:59Z</time>
      </trkpt>
      <trkpt lat="59.7305953" lon="17.7932743">
        <ele>33.3029</ele>
        <time>2014-07-08T09:53:00Z</time>
      </trkpt>
      <trkpt lat="59.7305596" lon="17.7931781">
        <ele>33.3029</ele>
        <time>2014-07-08T09:53:01Z</time>
      </trkpt>
      <trkpt lat="59.7305229" lon="17.7930756">
        <ele>32.8223</ele>
        <time>2014-07-08T09:53:02Z</time>
      </trkpt>
      <trkpt lat="59.7304835" lon="17.7929746">
        <ele>32.8223</ele>
        <time>2014-07-08T09:53:03Z</time>
      </trkpt>
      <trkpt lat="59.7304451" lon="17.7928677">
        <ele>32.3416</ele>
        <time>2014-07-08T09:53:04Z</time>
      </trkpt>
      <trkpt lat="59.7304162" lon="17.792744">
        <ele>31.8607</ele>
        <time>2014-07-08T09:53:05Z</time>
      </trkpt>
      <trkpt lat="59.7304004" lon="17.7926169">
        <ele>31.3801</ele>
        <time>2014-07-08T09:53:06Z</time>
      </trkpt>
      <trkpt lat="59.7303906" lon="17.7925016">
        <ele>30.8995</ele>
        <time>2014-07-08T09:53:07Z</time>
      </trkpt>
      <trkpt lat="59.7303808" lon="17.7923933">
        <ele>30.8995</ele>
        <time>2014-07-08T09:53:08Z</time>
      </trkpt>
      <trkpt lat="59.7303695" lon="17.792288">
        <ele>30.8995</ele>
        <time>2014-07-08T09:53:09Z</time>
      </trkpt>
      <trkpt lat="59.7303551" lon="17.7921842">
        <ele>30.8995</ele>
        <time>2014-07-08T09:53:10Z</time>
      </trkpt>
      <trkpt lat="59.7303392" lon="17.7920845">
        <ele>30.4188</ele>
        <time>2014-07-08T09:53:11Z</time>
      </trkpt>
      <trkpt lat="59.7303234" lon="17.791993">
        <ele>30.4188</ele>
        <time>2014-07-08T09:53:12Z</time>
      </trkpt>
      <trkpt lat="59.7303079" lon="17.7919044">
        <ele>30.4188</ele>
        <time>2014-07-08T09:53:13Z</time>
      </trkpt>
      <trkpt lat="59.7302934" lon="17.7918146">
        <ele>29.9381</ele>
        <time>2014-07-08T09:53:14Z</time>
      </trkpt>
      <trkpt lat="59.7302783" lon="17.7917313">
        <ele>29.4575</ele>
        <time>2014-07-08T09:53:15Z</time>
      </trkpt>
      <trkpt lat="59.7302618" lon="17.7916546">
        <ele>28.9769</ele>
        <time>2014-07-08T09:53:16Z</time>
      </trkpt>
      <trkpt lat="59.7302463" lon="17.7915765">
        <ele>28.4962</ele>
        <time>2014-07-08T09:53:17Z</time>
      </trkpt>
      <trkpt lat="59.7302306" lon="17.7914936">
        <ele>28.0155</ele>
        <time>2014-07-08T09:53:18Z</time>
      </trkpt>
      <trkpt lat="59.730214" lon="17.7914018">
        <ele>27.0543</ele>
        <time>2014-07-08T09:53:19Z</time>
      </trkpt>
      <trkpt lat="59.7301964" lon="17.7913009">
        <ele>26.5736</ele>
        <time>2014-07-08T09:53:20Z</time>
      </trkpt>
      <trkpt lat="59.7301782" lon="17.7911921">
        <ele>26.0929</ele>
        <time>2014-07-08T09:53:21Z</time>
      </trkpt>
      <trkpt lat="59.7301623" lon="17.7910748">
        <ele>26.0929</ele>
        <time>2014-07-08T09:53:22Z</time>
      </trkpt>
      <trkpt lat="59.7301519" lon="17.7909497">
        <ele>25.6123</ele>
        <time>2014-07-08T09:53:23Z</time>
      </trkpt>
      <trkpt lat="59.7301467" lon="17.7908322">
        <ele>25.6123</ele>
        <time>2014-07-08T09:53:24Z</time>
      </trkpt>
      <trkpt lat="59.7301426" lon="17.7907079">
        <ele>25.1317</ele>
        <time>2014-07-08T09:53:25Z</time>
      </trkpt>
      <trkpt lat="59.7301391" lon="17.7905684">
        <ele>25.1317</ele>
        <time>2014-07-08T09:53:26Z</time>
      </trkpt>
      <trkpt lat="59.7301355" lon="17.79043">
        <ele>25.1317</ele>
        <time>2014-07-08T09:53:27Z</time>
      </trkpt>
      <trkpt lat="59.7301286" lon="17.7902906">
        <ele>24.651</ele>
        <time>2014-07-08T09:53:28Z</time>
      </trkpt>
      <trkpt lat="59.7301172" lon="17.7901587">
        <ele>24.651</ele>
        <time>2014-07-08T09:53:29Z</time>
      </trkpt>
      <trkpt lat="59.7301031" lon="17.7900348">
        <ele>24.651</ele>
        <time>2014-07-08T09:53:30Z</time>
      </trkpt>
      <trkpt lat="59.7300914" lon="17.7899178">
        <ele>24.1703</ele>
        <time>2014-07-08T09:53:31Z</time>
      </trkpt>
      <trkpt lat="59.7300863" lon="17.7898037">
        <ele>24.1703</ele>
        <time>2014-07-08T09:53:32Z</time>
      </trkpt>
      <trkpt lat="59.7300876" lon="17.7896867">
        <ele>23.6896</ele>
        <time>2014-07-08T09:53:33Z</time>
      </trkpt>
      <trkpt lat="59.7300923" lon="17.7895748">
        <ele>23.209</ele>
        <time>2014-07-08T09:53:34Z</time>
      </trkpt>
      <trkpt lat="59.7300965" lon="17.7894676">
        <ele>23.209</ele>
        <time>2014-07-08T09:53:35Z</time>
      </trkpt>
      <trkpt lat="59.7301021" lon="17.7893635">
        <ele>23.209</ele>
        <time>2014-07-08T09:53:36Z</time>
      </trkpt>
      <trkpt lat="59.7301052" lon="17.7892639">
        <ele>22.7283</ele>
        <time>2014-07-08T09:53:37Z</time>
      </trkpt>
      <trkpt lat="59.7301043" lon="17.7891687">
        <ele>22.7283</ele>
        <time>2014-07-08T09:53:38Z</time>
      </trkpt>
      <trkpt lat="59.7300987" lon="17.7890848">
        <ele>22.7283</ele>
        <time>2014-07-08T09:53:39Z</time>
      </trkpt>
      <trkpt lat="59.730085" lon="17.7890133">
        <ele>23.209</ele>
        <time>2014-07-08T09:53:40Z</time>
      </trkpt>
      <trkpt lat="59.7300642" lon="17.7889553">
        <ele>23.6896</ele>
        <time>2014-07-08T09:53:41Z</time>
      </trkpt>
      <trkpt lat="59.7300332" lon="17.7888999">
        <ele>23.6896</ele>
        <time>2014-07-08T09:53:42Z</time>
      </trkpt>
      <trkpt lat="59.7300007" lon="17.7888344">
        <ele>24.1703</ele>
        <time>2014-07-08T09:53:43Z</time>
      </trkpt>
      <trkpt lat="59.7299756" lon="17.7887508">
        <ele>24.1703</ele>
        <time>2014-07-08T09:53:44Z</time>
      </trkpt>
      <trkpt lat="59.7299616" lon="17.7886539">
        <ele>24.1703</ele>
        <time>2014-07-08T09:53:45Z</time>
      </trkpt>
      <trkpt lat="59.7299561" lon="17.7885518">
        <ele>24.1703</ele>
        <time>2014-07-08T09:53:46Z</time>
      </trkpt>
      <trkpt lat="59.7299562" lon="17.7884482">
        <ele>24.1703</ele>
        <time>2014-07-08T09:53:47Z</time>
      </trkpt>
      <trkpt lat="59.7299561" lon="17.7883426">
        <ele>24.1703</ele>
        <time>2014-07-08T09:53:48Z</time>
      </trkpt>
      <trkpt lat="59.7299536" lon="17.7882321">
        <ele>24.1703</ele>
        <time>2014-07-08T09:53:49Z</time>
      </trkpt>
      <trkpt lat="59.7299515" lon="17.7881167">
        <ele>24.1703</ele>
        <time>2014-07-08T09:53:50Z</time>
      </trkpt>
      <trkpt lat="59.7299484" lon="17.7879982">
        <ele>24.1703</ele>
        <time>2014-07-08T09:53:51Z</time>
      </trkpt>
      <trkpt lat="59.7299448" lon="17.7878769">
        <ele>24.651</ele>
        <time>2014-07-08T09:53:52Z</time>
      </trkpt>
      <trkpt lat="59.7299401" lon="17.787758">
        <ele>24.651</ele>
        <time>2014-07-08T09:53:53Z</time>
      </trkpt>
      <trkpt lat="59.7299333" lon="17.7876427">
        <ele>24.1703</ele>
        <time>2014-07-08T09:53:54Z</time>
      </trkpt>
      <trkpt lat="59.729925" lon="17.7875303">
        <ele>24.1703</ele>
        <time>2014-07-08T09:53:55Z</time>
      </trkpt>
      <trkpt lat="59.7299151" lon="17.7874208">
        <ele>24.1703</ele>
        <time>2014-07-08T09:53:56Z</time>
      </trkpt>
      <trkpt lat="59.7299086" lon="17.7873038">
        <ele>23.6896</ele>
        <time>2014-07-08T09:53:57Z</time>
      </trkpt>
      <trkpt lat="59.7299062" lon="17.7871849">
        <ele>24.1703</ele>
        <time>2014-07-08T09:53:58Z</time>
      </trkpt>
      <trkpt lat="59.7299043" lon="17.7870708">
        <ele>24.1703</ele>
        <time>2014-07-08T09:53:59Z</time>
      </trkpt>
      <trkpt lat="59.7299027" lon="17.7869544">
        <ele>24.1703</ele>
        <time>2014-07-08T09:54:00Z</time>
      </trkpt>
      <trkpt lat="59.7299015" lon="17.7868356">
        <ele>24.1703</ele>
        <time>2014-07-08T09:54:01Z</time>
      </trkpt>
      <trkpt lat="59.7299008" lon="17.7867153">
        <ele>24.1703</ele>
        <time>2014-07-08T09:54:02Z</time>
      </trkpt>
      <trkpt lat="59.7298997" lon="17.7865941">
        <ele>24.651</ele>
        <time>2014-07-08T09:54:03Z</time>
      </trkpt>
      <trkpt lat="59.729898" lon="17.7864713">
        <ele>24.651</ele>
        <time>2014-07-08T09:54:04Z</time>
      </trkpt>
      <trkpt lat="59.729895" lon="17.7863472">
        <ele>24.651</ele>
        <time>2014-07-08T09:54:05Z</time>
      </trkpt>
      <trkpt lat="59.7298903" lon="17.7862223">
        <ele>24.651</ele>
        <time>2014-07-08T09:54:06Z</time>
      </trkpt>
      <trkpt lat="59.729885" lon="17.7860968">
        <ele>24.651</ele>
        <time>2014-07-08T09:54:07Z</time>
      </trkpt>
      <trkpt lat="59.7298789" lon="17.7859729">
        <ele>25.1317</ele>
        <time>2014-07-08T09:54:08Z</time>
      </trkpt>
      <trkpt lat="59.7298722" lon="17.7858509">
        <ele>25.1317</ele>
        <time>2014-07-08T09:54:09Z</time>
      </trkpt>
      <trkpt lat="59.7298648" lon="17.7857281">
        <ele>25.1317</ele>
        <time>2014-07-08T09:54:10Z</time>
      </trkpt>
      <trkpt lat="59.7298556" lon="17.7856044">
        <ele>25.1317</ele>
        <time>2014-07-08T09:54:11Z</time>
      </trkpt>
      <trkpt lat="59.7298453" lon="17.7854803">
        <ele>25.6123</ele>
        <time>2014-07-08T09:54:12Z</time>
      </trkpt>
      <trkpt lat="59.7298344" lon="17.7853552">
        <ele>25.6123</ele>
        <time>2014-07-08T09:54:13Z</time>
      </trkpt>
      <trkpt lat="59.729822" lon="17.7852303">
        <ele>25.6123</ele>
        <time>2014-07-08T09:54:14Z</time>
      </trkpt>
      <trkpt lat="59.7298075" lon="17.7851073">
        <ele>25.6123</ele>
        <time>2014-07-08T09:54:15Z</time>
      </trkpt>
      <trkpt lat="59.7297913" lon="17.7849853">
        <ele>25.6123</ele>
        <time>2014-07-08T09:54:16Z</time>
      </trkpt>
      <trkpt lat="59.7297748" lon="17.7848652">
        <ele>25.6123</ele>
        <time>2014-07-08T09:54:17Z</time>
      </trkpt>
      <trkpt lat="59.7297582" lon="17.7847471">
        <ele>25.1317</ele>
        <time>2014-07-08T09:54:18Z</time>
      </trkpt>
      <trkpt lat="59.7297413" lon="17.7846303">
        <ele>25.1317</ele>
        <time>2014-07-08T09:54:19Z</time>
      </trkpt>
      <trkpt lat="59.7297235" lon="17.7845118">
        <ele>24.651</ele>
        <time>2014-07-08T09:54:20Z</time>
      </trkpt>
      <trkpt lat="59.7297048" lon="17.7843937">
        <ele>24.651</ele>
        <time>2014-07-08T09:54:21Z</time>
      </trkpt>
      <trkpt lat="59.7296827" lon="17.7842853">
        <ele>25.1317</ele>
        <time>2014-07-08T09:54:22Z</time>
      </trkpt>
      <trkpt lat="59.7296568" lon="17.7841789">
        <ele>24.651</ele>
        <time>2014-07-08T09:54:23Z</time>
      </trkpt>
      <trkpt lat="59.7296329" lon="17.7840726">
        <ele>24.651</ele>
        <time>2014-07-08T09:54:24Z</time>
      </trkpt>
      <trkpt lat="59.7296111" lon="17.7839618">
        <ele>25.1317</ele>
        <time>2014-07-08T09:54:25Z</time>
      </trkpt>
      <trkpt lat="59.7295899" lon="17.7838483">
        <ele>25.1317</ele>
        <time>2014-07-08T09:54:26Z</time>
      </trkpt>
      <trkpt lat="59.7295681" lon="17.7837379">
        <ele>25.1317</ele>
        <time>2014-07-08T09:54:27Z</time>
      </trkpt>
      <trkpt lat="59.7295453" lon="17.783628">
        <ele>25.1317</ele>
        <time>2014-07-08T09:54:28Z</time>
      </trkpt>
      <trkpt lat="59.72952" lon="17.7835183">
        <ele>25.1317</ele>
        <time>2014-07-08T09:54:29Z</time>
      </trkpt>
      <trkpt lat="59.7294933" lon="17.7834077">
        <ele>25.1317</ele>
        <time>2014-07-08T09:54:30Z</time>
      </trkpt>
      <trkpt lat="59.7294661" lon="17.7832961">
        <ele>25.1317</ele>
        <time>2014-07-08T09:54:31Z</time>
      </trkpt>
      <trkpt lat="59.7294372" lon="17.7831855">
        <ele>25.6123</ele>
        <time>2014-07-08T09:54:32Z</time>
      </trkpt>
      <trkpt lat="59.7294063" lon="17.7830771">
        <ele>25.6123</ele>
        <time>2014-07-08T09:54:33Z</time>
      </trkpt>
      <trkpt lat="59.729375" lon="17.7829702">
        <ele>25.6123</ele>
        <time>2014-07-08T09:54:34Z</time>
      </trkpt>
      <trkpt lat="59.7293453" lon="17.7828624">
        <ele>25.6123</ele>
        <time>2014-07-08T09:54:35Z</time>
      </trkpt>
      <trkpt lat="59.7293157" lon="17.7827546">
        <ele>26.0929</ele>
        <time>2014-07-08T09:54:36Z</time>
      </trkpt>
      <trkpt lat="59.7292848" lon="17.7826475">
        <ele>26.0929</ele>
        <time>2014-07-08T09:54:37Z</time>
      </trkpt>
      <trkpt lat="59.7292519" lon="17.7825416">
        <ele>26.5736</ele>
        <time>2014-07-08T09:54:38Z</time>
      </trkpt>
      <trkpt lat="59.7292174" lon="17.7824372">
        <ele>26.5736</ele>
        <time>2014-07-08T09:54:39Z</time>
      </trkpt>
      <trkpt lat="59.7291828" lon="17.7823334">
        <ele>27.0543</ele>
        <time>2014-07-08T09:54:40Z</time>
      </trkpt>
      <trkpt lat="59.7291489" lon="17.7822315">
        <ele>27.0543</ele>
        <time>2014-07-08T09:54:41Z</time>
      </trkpt>
      <trkpt lat="59.7291159" lon="17.78213">
        <ele>27.5349</ele>
        <time>2014-07-08T09:54:42Z</time>
      </trkpt>
      <trkpt lat="59.7290839" lon="17.7820295">
        <ele>27.5349</ele>
        <time>2014-07-08T09:54:43Z</time>
      </trkpt>
      <trkpt lat="59.7290516" lon="17.7819302">
        <ele>27.5349</ele>
        <time>2014-07-08T09:54:44Z</time>
      </trkpt>
      <trkpt lat="59.729019" lon="17.7818322">
        <ele>28.0155</ele>
        <time>2014-07-08T09:54:45Z</time>
      </trkpt>
      <trkpt lat="59.7289862" lon="17.7817369">
        <ele>28.0155</ele>
        <time>2014-07-08T09:54:46Z</time>
      </trkpt>
      <trkpt lat="59.7289529" lon="17.7816446">
        <ele>28.0155</ele>
        <time>2014-07-08T09:54:47Z</time>
      </trkpt>
      <trkpt lat="59.7289194" lon="17.7815561">
        <ele>28.4962</ele>
        <time>2014-07-08T09:54:48Z</time>
      </trkpt>
      <trkpt lat="59.7288842" lon="17.7814719">
        <ele>28.4962</ele>
        <time>2014-07-08T09:54:49Z</time>
      </trkpt>
      <trkpt lat="59.7288474" lon="17.7813873">
        <ele>28.4962</ele>
        <time>2014-07-08T09:54:50Z</time>
      </trkpt>
      <trkpt lat="59.7288101" lon="17.7813">
        <ele>28.4962</ele>
        <time>2014-07-08T09:54:51Z</time>
      </trkpt>
      <trkpt lat="59.7287733" lon="17.7812083">
        <ele>28.4962</ele>
        <time>2014-07-08T09:54:52Z</time>
      </trkpt>
      <trkpt lat="59.7287396" lon="17.78111">
        <ele>28.9769</ele>
        <time>2014-07-08T09:54:53Z</time>
      </trkpt>
      <trkpt lat="59.7287114" lon="17.7810053">
        <ele>28.9769</ele>
        <time>2014-07-08T09:54:54Z</time>
      </trkpt>
      <trkpt lat="59.7286895" lon="17.7808999">
        <ele>29.4575</ele>
        <time>2014-07-08T09:54:55Z</time>
      </trkpt>
      <trkpt lat="59.7286715" lon="17.7807988">
        <ele>29.9381</ele>
        <time>2014-07-08T09:54:56Z</time>
      </trkpt>
      <trkpt lat="59.7286559" lon="17.7807037">
        <ele>30.4188</ele>
        <time>2014-07-08T09:54:57Z</time>
      </trkpt>
      <trkpt lat="59.7286417" lon="17.7806103">
        <ele>30.4188</ele>
        <time>2014-07-08T09:54:58Z</time>
      </trkpt>
      <trkpt lat="59.7286285" lon="17.780519">
        <ele>30.4188</ele>
        <time>2014-07-08T09:54:59Z</time>
      </trkpt>
      <trkpt lat="59.7286123" lon="17.7804274">
        <ele>30.4188</ele>
        <time>2014-07-08T09:55:00Z</time>
      </trkpt>
      <trkpt lat="59.7285921" lon="17.7803367">
        <ele>30.4188</ele>
        <time>2014-07-08T09:55:01Z</time>
      </trkpt>
      <trkpt lat="59.7285654" lon="17.7802496">
        <ele>30.4188</ele>
        <time>2014-07-08T09:55:02Z</time>
      </trkpt>
      <trkpt lat="59.7285316" lon="17.7801661">
        <ele>30.4188</ele>
        <time>2014-07-08T09:55:03Z</time>
      </trkpt>
      <trkpt lat="59.7284927" lon="17.7800849">
        <ele>30.4188</ele>
        <time>2014-07-08T09:55:04Z</time>
      </trkpt>
      <trkpt lat="59.728449" lon="17.7800047">
        <ele>30.4188</ele>
        <time>2014-07-08T09:55:05Z</time>
      </trkpt>
      <trkpt lat="59.7284015" lon="17.7799239">
        <ele>30.4188</ele>
        <time>2014-07-08T09:55:06Z</time>
      </trkpt>
      <trkpt lat="59.7283517" lon="17.7798399">
        <ele>30.4188</ele>
        <time>2014-07-08T09:55:07Z</time>
      </trkpt>
      <trkpt lat="59.7282986" lon="17.7797539">
        <ele>30.4188</ele>
        <time>2014-07-08T09:55:08Z</time>
      </trkpt>
      <trkpt lat="59.728241" lon="17.7796805">
        <ele>29.9381</ele>
        <time>2014-07-08T09:55:09Z</time>
      </trkpt>
      <trkpt lat="59.7281763" lon="17.7796369">
        <ele>29.9381</ele>
        <time>2014-07-08T09:55:10Z</time>
      </trkpt>
      <trkpt lat="59.7281084" lon="17.7796032">
        <ele>29.4575</ele>
        <time>2014-07-08T09:55:11Z</time>
      </trkpt>
      <trkpt lat="59.7280431" lon="17.779553">
        <ele>28.9769</ele>
        <time>2014-07-08T09:55:12Z</time>
      </trkpt>
      <trkpt lat="59.727982" lon="17.7794778">
        <ele>28.4962</ele>
        <time>2014-07-08T09:55:13Z</time>
      </trkpt>
      <trkpt lat="59.7279255" lon="17.7793864">
        <ele>28.0155</ele>
        <time>2014-07-08T09:55:14Z</time>
      </trkpt>
      <trkpt lat="59.7278758" lon="17.7792846">
        <ele>27.5349</ele>
        <time>2014-07-08T09:55:15Z</time>
      </trkpt>
      <trkpt lat="59.7278333" lon="17.7791784">
        <ele>27.5349</ele>
        <time>2014-07-08T09:55:16Z</time>
      </trkpt>
      <trkpt lat="59.7277945" lon="17.7790741">
        <ele>27.5349</ele>
        <time>2014-07-08T09:55:17Z</time>
      </trkpt>
      <trkpt lat="59.7277556" lon="17.7789764">
        <ele>27.5349</ele>
        <time>2014-07-08T09:55:18Z</time>
      </trkpt>
      <trkpt lat="59.7277151" lon="17.7788879">
        <ele>27.5349</ele>
        <time>2014-07-08T09:55:19Z</time>
      </trkpt>
      <trkpt lat="59.7276712" lon="17.7788105">
        <ele>27.5349</ele>
        <time>2014-07-08T09:55:20Z</time>
      </trkpt>
      <trkpt lat="59.7276241" lon="17.7787431">
        <ele>27.5349</ele>
        <time>2014-07-08T09:55:21Z</time>
      </trkpt>
      <trkpt lat="59.7275742" lon="17.7786832">
        <ele>27.5349</ele>
        <time>2014-07-08T09:55:22Z</time>
      </trkpt>
      <trkpt lat="59.7275205" lon="17.778635">
        <ele>27.5349</ele>
        <time>2014-07-08T09:55:23Z</time>
      </trkpt>
      <trkpt lat="59.7274624" lon="17.7786024">
        <ele>27.5349</ele>
        <time>2014-07-08T09:55:24Z</time>
      </trkpt>
      <trkpt lat="59.7274003" lon="17.7785866">
        <ele>27.0543</ele>
        <time>2014-07-08T09:55:25Z</time>
      </trkpt>
      <trkpt lat="59.7273346" lon="17.7785871">
        <ele>27.0543</ele>
        <time>2014-07-08T09:55:26Z</time>
      </trkpt>
      <trkpt lat="59.7272671" lon="17.7785976">
        <ele>26.5736</ele>
        <time>2014-07-08T09:55:27Z</time>
      </trkpt>
      <trkpt lat="59.7272007" lon="17.7786157">
        <ele>26.5736</ele>
        <time>2014-07-08T09:55:28Z</time>
      </trkpt>
      <trkpt lat="59.7271366" lon="17.7786454">
        <ele>26.0929</ele>
        <time>2014-07-08T09:55:29Z</time>
      </trkpt>
      <trkpt lat="59.727073" lon="17.7786811">
        <ele>26.0929</ele>
        <time>2014-07-08T09:55:30Z</time>
      </trkpt>
      <trkpt lat="59.727008" lon="17.7787148">
        <ele>26.0929</ele>
        <time>2014-07-08T09:55:31Z</time>
      </trkpt>
      <trkpt lat="59.7269421" lon="17.7787451">
        <ele>25.6123</ele>
        <time>2014-07-08T09:55:32Z</time>
      </trkpt>
      <trkpt lat="59.7268753" lon="17.7787681">
        <ele>25.6123</ele>
        <time>2014-07-08T09:55:33Z</time>
      </trkpt>
      <trkpt lat="59.7268107" lon="17.7787852">
        <ele>25.6123</ele>
        <time>2014-07-08T09:55:34Z</time>
      </trkpt>
      <trkpt lat="59.7267465" lon="17.7787938">
        <ele>25.1317</ele>
        <time>2014-07-08T09:55:35Z</time>
      </trkpt>
      <trkpt lat="59.7266777" lon="17.7787851">
        <ele>25.1317</ele>
        <time>2014-07-08T09:55:36Z</time>
      </trkpt>
      <trkpt lat="59.7266092" lon="17.7787619">
        <ele>25.1317</ele>
        <time>2014-07-08T09:55:37Z</time>
      </trkpt>
      <trkpt lat="59.7265424" lon="17.7787327">
        <ele>24.651</ele>
        <time>2014-07-08T09:55:38Z</time>
      </trkpt>
      <trkpt lat="59.7264759" lon="17.7786952">
        <ele>24.651</ele>
        <time>2014-07-08T09:55:39Z</time>
      </trkpt>
      <trkpt lat="59.7264114" lon="17.7786423">
        <ele>24.651</ele>
        <time>2014-07-08T09:55:40Z</time>
      </trkpt>
      <trkpt lat="59.7263498" lon="17.7785744">
        <ele>24.1703</ele>
        <time>2014-07-08T09:55:41Z</time>
      </trkpt>
      <trkpt lat="59.7262913" lon="17.7784962">
        <ele>24.1703</ele>
        <time>2014-07-08T09:55:42Z</time>
      </trkpt>
      <trkpt lat="59.7262335" lon="17.7784154">
        <ele>23.6896</ele>
        <time>2014-07-08T09:55:43Z</time>
      </trkpt>
      <trkpt lat="59.7261731" lon="17.7783408">
        <ele>23.6896</ele>
        <time>2014-07-08T09:55:44Z</time>
      </trkpt>
      <trkpt lat="59.7261108" lon="17.7782698">
        <ele>23.209</ele>
        <time>2014-07-08T09:55:45Z</time>
      </trkpt>
      <trkpt lat="59.7260461" lon="17.7782045">
        <ele>22.7283</ele>
        <time>2014-07-08T09:55:46Z</time>
      </trkpt>
      <trkpt lat="59.7259778" lon="17.7781505">
        <ele>22.7283</ele>
        <time>2014-07-08T09:55:47Z</time>
      </trkpt>
      <trkpt lat="59.725907" lon="17.7781092">
        <ele>22.2476</ele>
        <time>2014-07-08T09:55:48Z</time>
      </trkpt>
      <trkpt lat="59.7258358" lon="17.7780798">
        <ele>22.2476</ele>
        <time>2014-07-08T09:55:49Z</time>
      </trkpt>
      <trkpt lat="59.7257648" lon="17.778059">
        <ele>21.767</ele>
        <time>2014-07-08T09:55:50Z</time>
      </trkpt>
      <trkpt lat="59.7256949" lon="17.7780419">
        <ele>22.2476</ele>
        <time>2014-07-08T09:55:51Z</time>
      </trkpt>
      <trkpt lat="59.7256267" lon="17.7780246">
        <ele>22.2476</ele>
        <time>2014-07-08T09:55:52Z</time>
      </trkpt>
      <trkpt lat="59.7255629" lon="17.7780067">
        <ele>22.2476</ele>
        <time>2014-07-08T09:55:53Z</time>
      </trkpt>
      <trkpt lat="59.7255014" lon="17.7779904">
        <ele>21.767</ele>
        <time>2014-07-08T09:55:54Z</time>
      </trkpt>
      <trkpt lat="59.7254407" lon="17.777976">
        <ele>22.2476</ele>
        <time>2014-07-08T09:55:55Z</time>
      </trkpt>
      <trkpt lat="59.7253811" lon="17.7779612">
        <ele>22.2476</ele>
        <time>2014-07-08T09:55:56Z</time>
      </trkpt>
      <trkpt lat="59.7253221" lon="17.7779439">
        <ele>22.2476</ele>
        <time>2014-07-08T09:55:57Z</time>
      </trkpt>
      <trkpt lat="59.725264" lon="17.7779196">
        <ele>22.2476</ele>
        <time>2014-07-08T09:55:58Z</time>
      </trkpt>
      <trkpt lat="59.7252097" lon="17.777879">
        <ele>22.2476</ele>
        <time>2014-07-08T09:55:59Z</time>
      </trkpt>
      <trkpt lat="59.7251609" lon="17.7778196">
        <ele>21.767</ele>
        <time>2014-07-08T09:56:00Z</time>
      </trkpt>
      <trkpt lat="59.7251163" lon="17.7777446">
        <ele>21.767</ele>
        <time>2014-07-08T09:56:01Z</time>
      </trkpt>
      <trkpt lat="59.7250721" lon="17.7776669">
        <ele>21.2864</ele>
        <time>2014-07-08T09:56:02Z</time>
      </trkpt>
      <trkpt lat="59.7250272" lon="17.7775858">
        <ele>21.2864</ele>
        <time>2014-07-08T09:56:03Z</time>
      </trkpt>
      <trkpt lat="59.7249805" lon="17.7775052">
        <ele>21.2864</ele>
        <time>2014-07-08T09:56:04Z</time>
      </trkpt>
      <trkpt lat="59.7249329" lon="17.7774223">
        <ele>21.2864</ele>
        <time>2014-07-08T09:56:05Z</time>
      </trkpt>
      <trkpt lat="59.7248858" lon="17.7773343">
        <ele>21.767</ele>
        <time>2014-07-08T09:56:06Z</time>
      </trkpt>
      <trkpt lat="59.7248388" lon="17.7772442">
        <ele>21.767</ele>
        <time>2014-07-08T09:56:07Z</time>
      </trkpt>
      <trkpt lat="59.7247901" lon="17.7771549">
        <ele>21.767</ele>
        <time>2014-07-08T09:56:08Z</time>
      </trkpt>
      <trkpt lat="59.7247408" lon="17.7770658">
        <ele>21.767</ele>
        <time>2014-07-08T09:56:09Z</time>
      </trkpt>
      <trkpt lat="59.7246926" lon="17.7769763">
        <ele>21.767</ele>
        <time>2014-07-08T09:56:10Z</time>
      </trkpt>
      <trkpt lat="59.7246464" lon="17.7768856">
        <ele>21.767</ele>
        <time>2014-07-08T09:56:11Z</time>
      </trkpt>
      <trkpt lat="59.7246028" lon="17.7767938">
        <ele>22.2476</ele>
        <time>2014-07-08T09:56:12Z</time>
      </trkpt>
      <trkpt lat="59.7245599" lon="17.7767013">
        <ele>22.2476</ele>
        <time>2014-07-08T09:56:13Z</time>
      </trkpt>
      <trkpt lat="59.7245173" lon="17.7766106">
        <ele>22.2476</ele>
        <time>2014-07-08T09:56:14Z</time>
      </trkpt>
      <trkpt lat="59.7244744" lon="17.7765225">
        <ele>22.7283</ele>
        <time>2014-07-08T09:56:15Z</time>
      </trkpt>
      <trkpt lat="59.7244288" lon="17.7764386">
        <ele>22.7283</ele>
        <time>2014-07-08T09:56:16Z</time>
      </trkpt>
      <trkpt lat="59.7243797" lon="17.7763578">
        <ele>22.7283</ele>
        <time>2014-07-08T09:56:17Z</time>
      </trkpt>
      <trkpt lat="59.7243316" lon="17.7762805">
        <ele>22.7283</ele>
        <time>2014-07-08T09:56:18Z</time>
      </trkpt>
      <trkpt lat="59.7242778" lon="17.7761946">
        <ele>22.2476</ele>
        <time>2014-07-08T09:56:19Z</time>
      </trkpt>
      <trkpt lat="59.7242257" lon="17.7761122">
        <ele>22.2476</ele>
        <time>2014-07-08T09:56:20Z</time>
      </trkpt>
      <trkpt lat="59.7241727" lon="17.776035">
        <ele>21.767</ele>
        <time>2014-07-08T09:56:21Z</time>
      </trkpt>
      <trkpt lat="59.7241197" lon="17.7759657">
        <ele>21.767</ele>
        <time>2014-07-08T09:56:22Z</time>
      </trkpt>
      <trkpt lat="59.7240669" lon="17.7758972">
        <ele>21.767</ele>
        <time>2014-07-08T09:56:23Z</time>
      </trkpt>
      <trkpt lat="59.7240138" lon="17.7758322">
        <ele>21.767</ele>
        <time>2014-07-08T09:56:24Z</time>
      </trkpt>
      <trkpt lat="59.7239606" lon="17.7757699">
        <ele>21.767</ele>
        <time>2014-07-08T09:56:25Z</time>
      </trkpt>
      <trkpt lat="59.7239072" lon="17.7757101">
        <ele>21.2864</ele>
        <time>2014-07-08T09:56:26Z</time>
      </trkpt>
      <trkpt lat="59.7238534" lon="17.7756506">
        <ele>21.2864</ele>
        <time>2014-07-08T09:56:27Z</time>
      </trkpt>
      <trkpt lat="59.7237978" lon="17.7755954">
        <ele>21.2864</ele>
        <time>2014-07-08T09:56:28Z</time>
      </trkpt>
      <trkpt lat="59.7237396" lon="17.7755472">
        <ele>21.2864</ele>
        <time>2014-07-08T09:56:29Z</time>
      </trkpt>
      <trkpt lat="59.72368" lon="17.7755047">
        <ele>20.8057</ele>
        <time>2014-07-08T09:56:30Z</time>
      </trkpt>
      <trkpt lat="59.7236199" lon="17.7754692">
        <ele>20.8057</ele>
        <time>2014-07-08T09:56:31Z</time>
      </trkpt>
      <trkpt lat="59.7235595" lon="17.7754368">
        <ele>20.325</ele>
        <time>2014-07-08T09:56:32Z</time>
      </trkpt>
      <trkpt lat="59.7234979" lon="17.7754026">
        <ele>20.325</ele>
        <time>2014-07-08T09:56:33Z</time>
      </trkpt>
      <trkpt lat="59.7234339" lon="17.7753694">
        <ele>20.325</ele>
        <time>2014-07-08T09:56:34Z</time>
      </trkpt>
      <trkpt lat="59.7233682" lon="17.7753408">
        <ele>19.8444</ele>
        <time>2014-07-08T09:56:35Z</time>
      </trkpt>
      <trkpt lat="59.7233012" lon="17.7753169">
        <ele>19.8444</ele>
        <time>2014-07-08T09:56:36Z</time>
      </trkpt>
      <trkpt lat="59.7232329" lon="17.775296">
        <ele>19.3638</ele>
        <time>2014-07-08T09:56:37Z</time>
      </trkpt>
      <trkpt lat="59.7231635" lon="17.7752771">
        <ele>19.3638</ele>
        <time>2014-07-08T09:56:38Z</time>
      </trkpt>
      <trkpt lat="59.7230929" lon="17.7752616">
        <ele>18.8831</ele>
        <time>2014-07-08T09:56:39Z</time>
      </trkpt>
      <trkpt lat="59.7230219" lon="17.7752486">
        <ele>18.8831</ele>
        <time>2014-07-08T09:56:40Z</time>
      </trkpt>
      <trkpt lat="59.7229502" lon="17.7752343">
        <ele>18.4023</ele>
        <time>2014-07-08T09:56:41Z</time>
      </trkpt>
      <trkpt lat="59.7228766" lon="17.7752224">
        <ele>17.9218</ele>
        <time>2014-07-08T09:56:42Z</time>
      </trkpt>
      <trkpt lat="59.7228012" lon="17.7752146">
        <ele>17.4412</ele>
        <time>2014-07-08T09:56:43Z</time>
      </trkpt>
      <trkpt lat="59.7227243" lon="17.7752089">
        <ele>17.4412</ele>
        <time>2014-07-08T09:56:44Z</time>
      </trkpt>
      <trkpt lat="59.7226461" lon="17.7752057">
        <ele>16.9604</ele>
        <time>2014-07-08T09:56:45Z</time>
      </trkpt>
      <trkpt lat="59.7225668" lon="17.775208">
        <ele>16.9604</ele>
        <time>2014-07-08T09:56:46Z</time>
      </trkpt>
      <trkpt lat="59.7224869" lon="17.7752154">
        <ele>16.4797</ele>
        <time>2014-07-08T09:56:47Z</time>
      </trkpt>
      <trkpt lat="59.7224072" lon="17.7752265">
        <ele>16.4797</ele>
        <time>2014-07-08T09:56:48Z</time>
      </trkpt>
      <trkpt lat="59.7223294" lon="17.7752379">
        <ele>15.999</ele>
        <time>2014-07-08T09:56:49Z</time>
      </trkpt>
      <trkpt lat="59.7222544" lon="17.7752482">
        <ele>15.999</ele>
        <time>2014-07-08T09:56:50Z</time>
      </trkpt>
      <trkpt lat="59.7221837" lon="17.7752586">
        <ele>15.999</ele>
        <time>2014-07-08T09:56:51Z</time>
      </trkpt>
      <trkpt lat="59.7221186" lon="17.7752685">
        <ele>15.999</ele>
        <time>2014-07-08T09:56:52Z</time>
      </trkpt>
      <trkpt lat="59.7220585" lon="17.7752808">
        <ele>15.999</ele>
        <time>2014-07-08T09:56:53Z</time>
      </trkpt>
      <trkpt lat="59.7220003" lon="17.7752901">
        <ele>15.999</ele>
        <time>2014-07-08T09:56:54Z</time>
      </trkpt>
      <trkpt lat="59.7219426" lon="17.775299">
        <ele>15.5184</ele>
        <time>2014-07-08T09:56:55Z</time>
      </trkpt>
      <trkpt lat="59.7218843" lon="17.7753134">
        <ele>15.5184</ele>
        <time>2014-07-08T09:56:56Z</time>
      </trkpt>
      <trkpt lat="59.7218254" lon="17.775328">
        <ele>15.5184</ele>
        <time>2014-07-08T09:56:57Z</time>
      </trkpt>
      <trkpt lat="59.7217669" lon="17.7753357">
        <ele>15.0377</ele>
        <time>2014-07-08T09:56:58Z</time>
      </trkpt>
      <trkpt lat="59.721708" lon="17.7753425">
        <ele>14.557</ele>
        <time>2014-07-08T09:56:59Z</time>
      </trkpt>
      <trkpt lat="59.7216498" lon="17.7753482">
        <ele>14.0764</ele>
        <time>2014-07-08T09:57:00Z</time>
      </trkpt>
      <trkpt lat="59.7215935" lon="17.7753488">
        <ele>13.1151</ele>
        <time>2014-07-08T09:57:01Z</time>
      </trkpt>
      <trkpt lat="59.7215391" lon="17.775347">
        <ele>13.1151</ele>
        <time>2014-07-08T09:57:02Z</time>
      </trkpt>
      <trkpt lat="59.7214887" lon="17.7753482">
        <ele>12.6344</ele>
        <time>2014-07-08T09:57:03Z</time>
      </trkpt>
      <trkpt lat="59.7214437" lon="17.7753467">
        <ele>12.6344</ele>
        <time>2014-07-08T09:57:04Z</time>
      </trkpt>
      <trkpt lat="59.7214037" lon="17.7753393">
        <ele>12.1538</ele>
        <time>2014-07-08T09:57:05Z</time>
      </trkpt>
      <trkpt lat="59.7213684" lon="17.7753343">
        <ele>11.6732</ele>
        <time>2014-07-08T09:57:06Z</time>
      </trkpt>
      <trkpt lat="59.7213336" lon="17.7753322">
        <ele>11.6732</ele>
        <time>2014-07-08T09:57:07Z</time>
      </trkpt>
      <trkpt lat="59.7212956" lon="17.7753226">
        <ele>11.1925</ele>
        <time>2014-07-08T09:57:08Z</time>
      </trkpt>
      <trkpt lat="59.7212546" lon="17.7753048">
        <ele>11.1925</ele>
        <time>2014-07-08T09:57:09Z</time>
      </trkpt>
      <trkpt lat="59.7212068" lon="17.7752944">
        <ele>11.1925</ele>
        <time>2014-07-08T09:57:10Z</time>
      </trkpt>
      <trkpt lat="59.7211527" lon="17.7752911">
        <ele>10.7118</ele>
        <time>2014-07-08T09:57:11Z</time>
      </trkpt>
      <trkpt lat="59.7210965" lon="17.775283">
        <ele>10.7118</ele>
        <time>2014-07-08T09:57:12Z</time>
      </trkpt>
      <trkpt lat="59.7210382" lon="17.7752585">
        <ele>10.2312</ele>
        <time>2014-07-08T09:57:13Z</time>
      </trkpt>
      <trkpt lat="59.7209824" lon="17.7752269">
        <ele>10.7118</ele>
        <time>2014-07-08T09:57:14Z</time>
      </trkpt>
      <trkpt lat="59.7209317" lon="17.7752082">
        <ele>11.1925</ele>
        <time>2014-07-08T09:57:15Z</time>
      </trkpt>
      <trkpt lat="59.7208893" lon="17.7752104">
        <ele>10.7118</ele>
        <time>2014-07-08T09:57:16Z</time>
      </trkpt>
      <trkpt lat="59.720855" lon="17.7752432">
        <ele>10.2312</ele>
        <time>2014-07-08T09:57:17Z</time>
      </trkpt>
      <trkpt lat="59.7208262" lon="17.7752932">
        <ele>9.75061</ele>
        <time>2014-07-08T09:57:18Z</time>
      </trkpt>
      <trkpt lat="59.7207967" lon="17.7753461">
        <ele>8.78918</ele>
        <time>2014-07-08T09:57:19Z</time>
      </trkpt>
      <trkpt lat="59.720761" lon="17.7753993">
        <ele>8.78918</ele>
        <time>2014-07-08T09:57:20Z</time>
      </trkpt>
      <trkpt lat="59.7207199" lon="17.7754513">
        <ele>8.30859</ele>
        <time>2014-07-08T09:57:21Z</time>
      </trkpt>
      <trkpt lat="59.7206737" lon="17.7754855">
        <ele>8.30859</ele>
        <time>2014-07-08T09:57:22Z</time>
      </trkpt>
      <trkpt lat="59.720624" lon="17.7754906">
        <ele>8.78918</ele>
        <time>2014-07-08T09:57:23Z</time>
      </trkpt>
      <trkpt lat="59.7205734" lon="17.7754726">
        <ele>8.78918</ele>
        <time>2014-07-08T09:57:24Z</time>
      </trkpt>
      <trkpt lat="59.720522" lon="17.7754455">
        <ele>9.2699</ele>
        <time>2014-07-08T09:57:25Z</time>
      </trkpt>
      <trkpt lat="59.7204689" lon="17.7754187">
        <ele>9.2699</ele>
        <time>2014-07-08T09:57:26Z</time>
      </trkpt>
      <trkpt lat="59.7204149" lon="17.7753949">
        <ele>9.2699</ele>
        <time>2014-07-08T09:57:27Z</time>
      </trkpt>
      <trkpt lat="59.7203606" lon="17.7753708">
        <ele>9.75061</ele>
        <time>2014-07-08T09:57:28Z</time>
      </trkpt>
      <trkpt lat="59.7203066" lon="17.7753487">
        <ele>9.75061</ele>
        <time>2014-07-08T09:57:29Z</time>
      </trkpt>
      <trkpt lat="59.7202532" lon="17.7753312">
        <ele>9.75061</ele>
        <time>2014-07-08T09:57:30Z</time>
      </trkpt>
      <trkpt lat="59.7202006" lon="17.7753197">
        <ele>9.75061</ele>
        <time>2014-07-08T09:57:31Z</time>
      </trkpt>
      <trkpt lat="59.7201497" lon="17.7753093">
        <ele>10.2312</ele>
        <time>2014-07-08T09:57:32Z</time>
      </trkpt>
      <trkpt lat="59.7200993" lon="17.7752934">
        <ele>10.2312</ele>
        <time>2014-07-08T09:57:33Z</time>
      </trkpt>
      <trkpt lat="59.7200479" lon="17.7752664">
        <ele>10.2312</ele>
        <time>2014-07-08T09:57:34Z</time>
      </trkpt>
      <trkpt lat="59.7199943" lon="17.7752312">
        <ele>10.2312</ele>
        <time>2014-07-08T09:57:35Z</time>
      </trkpt>
      <trkpt lat="59.719939" lon="17.7751907">
        <ele>10.2312</ele>
        <time>2014-07-08T09:57:36Z</time>
      </trkpt>
      <trkpt lat="59.719883" lon="17.7751427">
        <ele>10.7118</ele>
        <time>2014-07-08T09:57:37Z</time>
      </trkpt>
      <trkpt lat="59.7198264" lon="17.7750902">
        <ele>10.7118</ele>
        <time>2014-07-08T09:57:38Z</time>
      </trkpt>
      <trkpt lat="59.7197687" lon="17.7750333">
        <ele>10.7118</ele>
        <time>2014-07-08T09:57:39Z</time>
      </trkpt>
      <trkpt lat="59.7197105" lon="17.7749759">
        <ele>10.7118</ele>
        <time>2014-07-08T09:57:40Z</time>
      </trkpt>
      <trkpt lat="59.7196532" lon="17.7749188">
        <ele>11.1925</ele>
        <time>2014-07-08T09:57:41Z</time>
      </trkpt>
      <trkpt lat="59.7195966" lon="17.774857">
        <ele>11.1925</ele>
        <time>2014-07-08T09:57:42Z</time>
      </trkpt>
      <trkpt lat="59.7195405" lon="17.7747903">
        <ele>11.1925</ele>
        <time>2014-07-08T09:57:43Z</time>
      </trkpt>
      <trkpt lat="59.7194835" lon="17.7747204">
        <ele>11.6732</ele>
        <time>2014-07-08T09:57:44Z</time>
      </trkpt>
      <trkpt lat="59.7194255" lon="17.7746483">
        <ele>11.6732</ele>
        <time>2014-07-08T09:57:45Z</time>
      </trkpt>
      <trkpt lat="59.7193675" lon="17.7745707">
        <ele>11.6732</ele>
        <time>2014-07-08T09:57:46Z</time>
      </trkpt>
      <trkpt lat="59.7193091" lon="17.7744864">
        <ele>11.6732</ele>
        <time>2014-07-08T09:57:47Z</time>
      </trkpt>
      <trkpt lat="59.7192497" lon="17.774399">
        <ele>11.6732</ele>
        <time>2014-07-08T09:57:48Z</time>
      </trkpt>
      <trkpt lat="59.7191893" lon="17.7743085">
        <ele>11.6732</ele>
        <time>2014-07-08T09:57:49Z</time>
      </trkpt>
      <trkpt lat="59.7191287" lon="17.7742149">
        <ele>12.1538</ele>
        <time>2014-07-08T09:57:50Z</time>
      </trkpt>
      <trkpt lat="59.719067" lon="17.7741215">
        <ele>12.1538</ele>
        <time>2014-07-08T09:57:51Z</time>
      </trkpt>
      <trkpt lat="59.7190054" lon="17.7740294">
        <ele>12.1538</ele>
        <time>2014-07-08T09:57:52Z</time>
      </trkpt>
      <trkpt lat="59.7189446" lon="17.7739368">
        <ele>12.1538</ele>
        <time>2014-07-08T09:57:53Z</time>
      </trkpt>
      <trkpt lat="59.7188847" lon="17.773844">
        <ele>12.1538</ele>
        <time>2014-07-08T09:57:54Z</time>
      </trkpt>
      <trkpt lat="59.718827" lon="17.7737533">
        <ele>12.1538</ele>
        <time>2014-07-08T09:57:55Z</time>
      </trkpt>
      <trkpt lat="59.7187698" lon="17.7736673">
        <ele>12.6344</ele>
        <time>2014-07-08T09:57:56Z</time>
      </trkpt>
      <trkpt lat="59.7187128" lon="17.773584">
        <ele>12.6344</ele>
        <time>2014-07-08T09:57:57Z</time>
      </trkpt>
      <trkpt lat="59.7186568" lon="17.7735003">
        <ele>12.6344</ele>
        <time>2014-07-08T09:57:58Z</time>
      </trkpt>
      <trkpt lat="59.7186017" lon="17.7734162">
        <ele>12.6344</ele>
        <time>2014-07-08T09:57:59Z</time>
      </trkpt>
      <trkpt lat="59.7185473" lon="17.7733315">
        <ele>13.1151</ele>
        <time>2014-07-08T09:58:00Z</time>
      </trkpt>
      <trkpt lat="59.7184931" lon="17.773247">
        <ele>13.1151</ele>
        <time>2014-07-08T09:58:01Z</time>
      </trkpt>
      <trkpt lat="59.7184387" lon="17.7731629">
        <ele>13.1151</ele>
        <time>2014-07-08T09:58:02Z</time>
      </trkpt>
      <trkpt lat="59.7183842" lon="17.7730786">
        <ele>13.1151</ele>
        <time>2014-07-08T09:58:03Z</time>
      </trkpt>
      <trkpt lat="59.7183294" lon="17.772994">
        <ele>13.1151</ele>
        <time>2014-07-08T09:58:04Z</time>
      </trkpt>
      <trkpt lat="59.7182736" lon="17.7729083">
        <ele>13.1151</ele>
        <time>2014-07-08T09:58:05Z</time>
      </trkpt>
      <trkpt lat="59.7182165" lon="17.7728199">
        <ele>13.1151</ele>
        <time>2014-07-08T09:58:06Z</time>
      </trkpt>
      <trkpt lat="59.7181584" lon="17.7727295">
        <ele>13.1151</ele>
        <time>2014-07-08T09:58:07Z</time>
      </trkpt>
      <trkpt lat="59.7180993" lon="17.7726374">
        <ele>13.1151</ele>
        <time>2014-07-08T09:58:08Z</time>
      </trkpt>
      <trkpt lat="59.7180386" lon="17.7725432">
        <ele>13.1151</ele>
        <time>2014-07-08T09:58:09Z</time>
      </trkpt>
      <trkpt lat="59.7179769" lon="17.7724465">
        <ele>13.1151</ele>
        <time>2014-07-08T09:58:10Z</time>
      </trkpt>
      <trkpt lat="59.7179145" lon="17.7723484">
        <ele>13.1151</ele>
        <time>2014-07-08T09:58:11Z</time>
      </trkpt>
      <trkpt lat="59.7178516" lon="17.7722505">
        <ele>13.1151</ele>
        <time>2014-07-08T09:58:12Z</time>
      </trkpt>
      <trkpt lat="59.7177884" lon="17.7721526">
        <ele>13.1151</ele>
        <time>2014-07-08T09:58:13Z</time>
      </trkpt>
      <trkpt lat="59.7177254" lon="17.7720537">
        <ele>13.1151</ele>
        <time>2014-07-08T09:58:14Z</time>
      </trkpt>
      <trkpt lat="59.7176586" lon="17.7719454">
        <ele>12.6344</ele>
        <time>2014-07-08T09:58:15Z</time>
      </trkpt>
      <trkpt lat="59.7175922" lon="17.7718387">
        <ele>12.6344</ele>
        <time>2014-07-08T09:58:16Z</time>
      </trkpt>
      <trkpt lat="59.7175271" lon="17.7717396">
        <ele>12.6344</ele>
        <time>2014-07-08T09:58:17Z</time>
      </trkpt>
      <trkpt lat="59.7174617" lon="17.7716392">
        <ele>12.6344</ele>
        <time>2014-07-08T09:58:18Z</time>
      </trkpt>
      <trkpt lat="59.7173965" lon="17.7715363">
        <ele>12.6344</ele>
        <time>2014-07-08T09:58:19Z</time>
      </trkpt>
      <trkpt lat="59.7173307" lon="17.771433">
        <ele>12.6344</ele>
        <time>2014-07-08T09:58:20Z</time>
      </trkpt>
      <trkpt lat="59.7172647" lon="17.7713288">
        <ele>12.6344</ele>
        <time>2014-07-08T09:58:21Z</time>
      </trkpt>
      <trkpt lat="59.7171986" lon="17.7712236">
        <ele>12.6344</ele>
        <time>2014-07-08T09:58:22Z</time>
      </trkpt>
      <trkpt lat="59.7171316" lon="17.7711177">
        <ele>12.6344</ele>
        <time>2014-07-08T09:58:23Z</time>
      </trkpt>
      <trkpt lat="59.7170632" lon="17.7710105">
        <ele>12.6344</ele>
        <time>2014-07-08T09:58:24Z</time>
      </trkpt>
      <trkpt lat="59.7169935" lon="17.7709022">
        <ele>12.6344</ele>
        <time>2014-07-08T09:58:25Z</time>
      </trkpt>
      <trkpt lat="59.7169228" lon="17.7707912">
        <ele>12.6344</ele>
        <time>2014-07-08T09:58:26Z</time>
      </trkpt>
      <trkpt lat="59.7168514" lon="17.7706753">
        <ele>12.1538</ele>
        <time>2014-07-08T09:58:27Z</time>
      </trkpt>
      <trkpt lat="59.7167795" lon="17.7705546">
        <ele>12.1538</ele>
        <time>2014-07-08T09:58:28Z</time>
      </trkpt>
      <trkpt lat="59.7167071" lon="17.7704261">
        <ele>11.6732</ele>
        <time>2014-07-08T09:58:29Z</time>
      </trkpt>
      <trkpt lat="59.7166345" lon="17.7702879">
        <ele>11.1925</ele>
        <time>2014-07-08T09:58:30Z</time>
      </trkpt>
      <trkpt lat="59.7165617" lon="17.7701386">
        <ele>10.7118</ele>
        <time>2014-07-08T09:58:31Z</time>
      </trkpt>
      <trkpt lat="59.7164898" lon="17.7699769">
        <ele>10.2312</ele>
        <time>2014-07-08T09:58:32Z</time>
      </trkpt>
      <trkpt lat="59.7164195" lon="17.7698033">
        <ele>10.2312</ele>
        <time>2014-07-08T09:58:33Z</time>
      </trkpt>
      <trkpt lat="59.7163506" lon="17.769619">
        <ele>9.75061</ele>
        <time>2014-07-08T09:58:34Z</time>
      </trkpt>
      <trkpt lat="59.7162823" lon="17.7694277">
        <ele>9.2699</ele>
        <time>2014-07-08T09:58:35Z</time>
      </trkpt>
      <trkpt lat="59.7162133" lon="17.7692327">
        <ele>8.78918</ele>
        <time>2014-07-08T09:58:36Z</time>
      </trkpt>
      <trkpt lat="59.7161447" lon="17.7690352">
        <ele>8.78918</ele>
        <time>2014-07-08T09:58:37Z</time>
      </trkpt>
      <trkpt lat="59.7160766" lon="17.7688389">
        <ele>8.78918</ele>
        <time>2014-07-08T09:58:38Z</time>
      </trkpt>
      <trkpt lat="59.7160091" lon="17.7686465">
        <ele>8.30859</ele>
        <time>2014-07-08T09:58:39Z</time>
      </trkpt>
      <trkpt lat="59.715942" lon="17.7684578">
        <ele>8.30859</ele>
        <time>2014-07-08T09:58:40Z</time>
      </trkpt>
      <trkpt lat="59.7158755" lon="17.7682725">
        <ele>8.30859</ele>
        <time>2014-07-08T09:58:41Z</time>
      </trkpt>
      <trkpt lat="59.7158089" lon="17.7680913">
        <ele>8.30859</ele>
        <time>2014-07-08T09:58:42Z</time>
      </trkpt>
      <trkpt lat="59.715744" lon="17.7679135">
        <ele>8.30859</ele>
        <time>2014-07-08T09:58:43Z</time>
      </trkpt>
      <trkpt lat="59.7156812" lon="17.7677375">
        <ele>8.30859</ele>
        <time>2014-07-08T09:58:44Z</time>
      </trkpt>
      <trkpt lat="59.7156203" lon="17.7675641">
        <ele>8.30859</ele>
        <time>2014-07-08T09:58:45Z</time>
      </trkpt>
      <trkpt lat="59.7155617" lon="17.7673935">
        <ele>8.30859</ele>
        <time>2014-07-08T09:58:46Z</time>
      </trkpt>
      <trkpt lat="59.7155045" lon="17.7672259">
        <ele>8.30859</ele>
        <time>2014-07-08T09:58:47Z</time>
      </trkpt>
      <trkpt lat="59.7154477" lon="17.7670628">
        <ele>8.30859</ele>
        <time>2014-07-08T09:58:48Z</time>
      </trkpt>
      <trkpt lat="59.7153921" lon="17.7669026">
        <ele>8.30859</ele>
        <time>2014-07-08T09:58:49Z</time>
      </trkpt>
      <trkpt lat="59.715338" lon="17.7667458">
        <ele>8.30859</ele>
        <time>2014-07-08T09:58:50Z</time>
      </trkpt>
      <trkpt lat="59.715285" lon="17.7665931">
        <ele>8.30859</ele>
        <time>2014-07-08T09:58:51Z</time>
      </trkpt>
      <trkpt lat="59.7152341" lon="17.7664419">
        <ele>8.30859</ele>
        <time>2014-07-08T09:58:52Z</time>
      </trkpt>
      <trkpt lat="59.7151847" lon="17.7662934">
        <ele>8.30859</ele>
        <time>2014-07-08T09:58:53Z</time>
      </trkpt>
      <trkpt lat="59.7151353" lon="17.7661479">
        <ele>8.78918</ele>
        <time>2014-07-08T09:58:54Z</time>
      </trkpt>
      <trkpt lat="59.7150865" lon="17.766004">
        <ele>8.78918</ele>
        <time>2014-07-08T09:58:55Z</time>
      </trkpt>
      <trkpt lat="59.7150385" lon="17.7658591">
        <ele>8.78918</ele>
        <time>2014-07-08T09:58:56Z</time>
      </trkpt>
      <trkpt lat="59.7149906" lon="17.7657137">
        <ele>8.78918</ele>
        <time>2014-07-08T09:58:57Z</time>
      </trkpt>
      <trkpt lat="59.7149417" lon="17.7655692">
        <ele>8.78918</ele>
        <time>2014-07-08T09:58:58Z</time>
      </trkpt>
      <trkpt lat="59.7148927" lon="17.7654247">
        <ele>8.78918</ele>
        <time>2014-07-08T09:58:59Z</time>
      </trkpt>
      <trkpt lat="59.7148436" lon="17.7652797">
        <ele>8.78918</ele>
        <time>2014-07-08T09:59:00Z</time>
      </trkpt>
      <trkpt lat="59.7147945" lon="17.7651356">
        <ele>8.78918</ele>
        <time>2014-07-08T09:59:01Z</time>
      </trkpt>
      <trkpt lat="59.7147464" lon="17.764992">
        <ele>9.2699</ele>
        <time>2014-07-08T09:59:02Z</time>
      </trkpt>
      <trkpt lat="59.7146997" lon="17.7648476">
        <ele>9.2699</ele>
        <time>2014-07-08T09:59:03Z</time>
      </trkpt>
      <trkpt lat="59.7146539" lon="17.7647019">
        <ele>9.2699</ele>
        <time>2014-07-08T09:59:04Z</time>
      </trkpt>
      <trkpt lat="59.7146088" lon="17.7645568">
        <ele>9.2699</ele>
        <time>2014-07-08T09:59:05Z</time>
      </trkpt>
      <trkpt lat="59.7145666" lon="17.7644119">
        <ele>9.2699</ele>
        <time>2014-07-08T09:59:06Z</time>
      </trkpt>
      <trkpt lat="59.7145293" lon="17.764265">
        <ele>9.2699</ele>
        <time>2014-07-08T09:59:07Z</time>
      </trkpt>
      <trkpt lat="59.7144972" lon="17.7641152">
        <ele>9.75061</ele>
        <time>2014-07-08T09:59:08Z</time>
      </trkpt>
      <trkpt lat="59.7144701" lon="17.7639615">
        <ele>9.75061</ele>
        <time>2014-07-08T09:59:09Z</time>
      </trkpt>
      <trkpt lat="59.7144467" lon="17.763806">
        <ele>9.75061</ele>
        <time>2014-07-08T09:59:10Z</time>
      </trkpt>
      <trkpt lat="59.7144278" lon="17.7636484">
        <ele>9.75061</ele>
        <time>2014-07-08T09:59:11Z</time>
      </trkpt>
      <trkpt lat="59.7144143" lon="17.7634878">
        <ele>10.2312</ele>
        <time>2014-07-08T09:59:12Z</time>
      </trkpt>
      <trkpt lat="59.7144068" lon="17.7633263">
        <ele>10.2312</ele>
        <time>2014-07-08T09:59:13Z</time>
      </trkpt>
      <trkpt lat="59.7144034" lon="17.7631657">
        <ele>10.7118</ele>
        <time>2014-07-08T09:59:14Z</time>
      </trkpt>
      <trkpt lat="59.714402" lon="17.7630057">
        <ele>10.7118</ele>
        <time>2014-07-08T09:59:15Z</time>
      </trkpt>
      <trkpt lat="59.7144053" lon="17.7628502">
        <ele>11.1925</ele>
        <time>2014-07-08T09:59:16Z</time>
      </trkpt>
      <trkpt lat="59.7144096" lon="17.7626964">
        <ele>11.1925</ele>
        <time>2014-07-08T09:59:17Z</time>
      </trkpt>
      <trkpt lat="59.7144151" lon="17.7625446">
        <ele>10.7118</ele>
        <time>2014-07-08T09:59:18Z</time>
      </trkpt>
      <trkpt lat="59.7144227" lon="17.7623923">
        <ele>10.7118</ele>
        <time>2014-07-08T09:59:19Z</time>
      </trkpt>
      <trkpt lat="59.7144314" lon="17.7622404">
        <ele>10.7118</ele>
        <time>2014-07-08T09:59:20Z</time>
      </trkpt>
      <trkpt lat="59.7144407" lon="17.7620909">
        <ele>11.1925</ele>
        <time>2014-07-08T09:59:21Z</time>
      </trkpt>
      <trkpt lat="59.7144468" lon="17.7619402">
        <ele>10.7118</ele>
        <time>2014-07-08T09:59:22Z</time>
      </trkpt>
      <trkpt lat="59.7144546" lon="17.7617924">
        <ele>10.7118</ele>
        <time>2014-07-08T09:59:23Z</time>
      </trkpt>
      <trkpt lat="59.7144656" lon="17.7616472">
        <ele>10.7118</ele>
        <time>2014-07-08T09:59:24Z</time>
      </trkpt>
      <trkpt lat="59.7144779" lon="17.7615025">
        <ele>11.1925</ele>
        <time>2014-07-08T09:59:25Z</time>
      </trkpt>
      <trkpt lat="59.7144909" lon="17.7613577">
        <ele>11.1925</ele>
        <time>2014-07-08T09:59:26Z</time>
      </trkpt>
      <trkpt lat="59.7145022" lon="17.7612084">
        <ele>11.1925</ele>
        <time>2014-07-08T09:59:27Z</time>
      </trkpt>
      <trkpt lat="59.7145132" lon="17.7610569">
        <ele>11.1925</ele>
        <time>2014-07-08T09:59:28Z</time>
      </trkpt>
      <trkpt lat="59.7145262" lon="17.760905">
        <ele>11.6732</ele>
        <time>2014-07-08T09:59:29Z</time>
      </trkpt>
      <trkpt lat="59.7145422" lon="17.7607543">
        <ele>12.1538</ele>
        <time>2014-07-08T09:59:30Z</time>
      </trkpt>
      <trkpt lat="59.7145562" lon="17.760601">
        <ele>12.1538</ele>
        <time>2014-07-08T09:59:31Z</time>
      </trkpt>
      <trkpt lat="59.7145664" lon="17.7604409">
        <ele>11.6732</ele>
        <time>2014-07-08T09:59:32Z</time>
      </trkpt>
      <trkpt lat="59.7145816" lon="17.760284">
        <ele>11.6732</ele>
        <time>2014-07-08T09:59:33Z</time>
      </trkpt>
      <trkpt lat="59.7145959" lon="17.7601265">
        <ele>11.1925</ele>
        <time>2014-07-08T09:59:34Z</time>
      </trkpt>
      <trkpt lat="59.7146123" lon="17.7599714">
        <ele>10.7118</ele>
        <time>2014-07-08T09:59:35Z</time>
      </trkpt>
      <trkpt lat="59.7146343" lon="17.7598202">
        <ele>10.7118</ele>
        <time>2014-07-08T09:59:36Z</time>
      </trkpt>
      <trkpt lat="59.7146582" lon="17.7596648">
        <ele>10.2312</ele>
        <time>2014-07-08T09:59:37Z</time>
      </trkpt>
      <trkpt lat="59.7146804" lon="17.7595016">
        <ele>10.2312</ele>
        <time>2014-07-08T09:59:38Z</time>
      </trkpt>
      <trkpt lat="59.7147019" lon="17.7593345">
        <ele>9.75061</ele>
        <time>2014-07-08T09:59:39Z</time>
      </trkpt>
      <trkpt lat="59.7147245" lon="17.7591665">
        <ele>9.75061</ele>
        <time>2014-07-08T09:59:40Z</time>
      </trkpt>
      <trkpt lat="59.7147479" lon="17.7590014">
        <ele>10.2312</ele>
        <time>2014-07-08T09:59:41Z</time>
      </trkpt>
      <trkpt lat="59.7147713" lon="17.7588386">
        <ele>10.2312</ele>
        <time>2014-07-08T09:59:42Z</time>
      </trkpt>
      <trkpt lat="59.7147944" lon="17.7586777">
        <ele>10.2312</ele>
        <time>2014-07-08T09:59:43Z</time>
      </trkpt>
      <trkpt lat="59.7148152" lon="17.7585195">
        <ele>9.75061</ele>
        <time>2014-07-08T09:59:44Z</time>
      </trkpt>
      <trkpt lat="59.7148355" lon="17.7583614">
        <ele>10.2312</ele>
        <time>2014-07-08T09:59:45Z</time>
      </trkpt>
      <trkpt lat="59.7148516" lon="17.7582009">
        <ele>9.75061</ele>
        <time>2014-07-08T09:59:46Z</time>
      </trkpt>
      <trkpt lat="59.7148707" lon="17.7580437">
        <ele>9.2699</ele>
        <time>2014-07-08T09:59:47Z</time>
      </trkpt>
      <trkpt lat="59.7148922" lon="17.7578886">
        <ele>9.2699</ele>
        <time>2014-07-08T09:59:48Z</time>
      </trkpt>
      <trkpt lat="59.7149147" lon="17.7577354">
        <ele>9.2699</ele>
        <time>2014-07-08T09:59:49Z</time>
      </trkpt>
      <trkpt lat="59.7149386" lon="17.7575836">
        <ele>9.2699</ele>
        <time>2014-07-08T09:59:50Z</time>
      </trkpt>
      <trkpt lat="59.7149626" lon="17.757433">
        <ele>9.2699</ele>
        <time>2014-07-08T09:59:51Z</time>
      </trkpt>
      <trkpt lat="59.7149839" lon="17.7572833">
        <ele>9.2699</ele>
        <time>2014-07-08T09:59:52Z</time>
      </trkpt>
      <trkpt lat="59.7150034" lon="17.7571349">
        <ele>9.75061</ele>
        <time>2014-07-08T09:59:53Z</time>
      </trkpt>
      <trkpt lat="59.7150218" lon="17.7569887">
        <ele>9.75061</ele>
        <time>2014-07-08T09:59:54Z</time>
      </trkpt>
      <trkpt lat="59.7150398" lon="17.7568445">
        <ele>9.75061</ele>
        <time>2014-07-08T09:59:55Z</time>
      </trkpt>
      <trkpt lat="59.7150576" lon="17.7567021">
        <ele>9.75061</ele>
        <time>2014-07-08T09:59:56Z</time>
      </trkpt>
      <trkpt lat="59.7150752" lon="17.7565616">
        <ele>9.75061</ele>
        <time>2014-07-08T09:59:57Z</time>
      </trkpt>
      <trkpt lat="59.7150924" lon="17.7564216">
        <ele>9.75061</ele>
        <time>2014-07-08T09:59:58Z</time>
      </trkpt>
      <trkpt lat="59.7151088" lon="17.7562808">
        <ele>9.75061</ele>
        <time>2014-07-08T09:59:59Z</time>
      </trkpt>
      <trkpt lat="59.715123" lon="17.7561383">
        <ele>9.75061</ele>
        <time>2014-07-08T10:00:00Z</time>
      </trkpt>
      <trkpt lat="59.7151352" lon="17.7559929">
        <ele>9.75061</ele>
        <time>2014-07-08T10:00:01Z</time>
      </trkpt>
      <trkpt lat="59.7151452" lon="17.7558448">
        <ele>9.75061</ele>
        <time>2014-07-08T10:00:02Z</time>
      </trkpt>
      <trkpt lat="59.7151541" lon="17.7556953">
        <ele>9.75061</ele>
        <time>2014-07-08T10:00:03Z</time>
      </trkpt>
      <trkpt lat="59.7151605" lon="17.755545">
        <ele>9.75061</ele>
        <time>2014-07-08T10:00:04Z</time>
      </trkpt>
      <trkpt lat="59.7151631" lon="17.7553927">
        <ele>9.75061</ele>
        <time>2014-07-08T10:00:05Z</time>
      </trkpt>
      <trkpt lat="59.7151622" lon="17.7552386">
        <ele>10.2312</ele>
        <time>2014-07-08T10:00:06Z</time>
      </trkpt>
      <trkpt lat="59.715159" lon="17.7550852">
        <ele>10.2312</ele>
        <time>2014-07-08T10:00:07Z</time>
      </trkpt>
      <trkpt lat="59.7151505" lon="17.7549315">
        <ele>9.75061</ele>
        <time>2014-07-08T10:00:08Z</time>
      </trkpt>
      <trkpt lat="59.7151379" lon="17.754777">
        <ele>9.2699</ele>
        <time>2014-07-08T10:00:09Z</time>
      </trkpt>
      <trkpt lat="59.7151223" lon="17.7546205">
        <ele>8.78918</ele>
        <time>2014-07-08T10:00:10Z</time>
      </trkpt>
      <trkpt lat="59.7151059" lon="17.7544631">
        <ele>8.78918</ele>
        <time>2014-07-08T10:00:11Z</time>
      </trkpt>
      <trkpt lat="59.7150887" lon="17.7543056">
        <ele>8.78918</ele>
        <time>2014-07-08T10:00:12Z</time>
      </trkpt>
      <trkpt lat="59.7150696" lon="17.7541455">
        <ele>8.30859</ele>
        <time>2014-07-08T10:00:13Z</time>
      </trkpt>
      <trkpt lat="59.7150494" lon="17.7539838">
        <ele>7.82788</ele>
        <time>2014-07-08T10:00:14Z</time>
      </trkpt>
      <trkpt lat="59.7150293" lon="17.7538207">
        <ele>7.82788</ele>
        <time>2014-07-08T10:00:15Z</time>
      </trkpt>
      <trkpt lat="59.7150103" lon="17.7536561">
        <ele>7.82788</ele>
        <time>2014-07-08T10:00:16Z</time>
      </trkpt>
      <trkpt lat="59.7149912" lon="17.7534898">
        <ele>7.82788</ele>
        <time>2014-07-08T10:00:17Z</time>
      </trkpt>
      <trkpt lat="59.7149706" lon="17.7533224">
        <ele>7.82788</ele>
        <time>2014-07-08T10:00:18Z</time>
      </trkpt>
      <trkpt lat="59.7149489" lon="17.7531539">
        <ele>7.82788</ele>
        <time>2014-07-08T10:00:19Z</time>
      </trkpt>
      <trkpt lat="59.7149275" lon="17.7529847">
        <ele>7.82788</ele>
        <time>2014-07-08T10:00:20Z</time>
      </trkpt>
      <trkpt lat="59.7149064" lon="17.7528154">
        <ele>7.82788</ele>
        <time>2014-07-08T10:00:21Z</time>
      </trkpt>
      <trkpt lat="59.7148858" lon="17.7526464">
        <ele>7.82788</ele>
        <time>2014-07-08T10:00:22Z</time>
      </trkpt>
      <trkpt lat="59.7148664" lon="17.7524784">
        <ele>7.82788</ele>
        <time>2014-07-08T10:00:23Z</time>
      </trkpt>
      <trkpt lat="59.7148476" lon="17.7523126">
        <ele>7.82788</ele>
        <time>2014-07-08T10:00:24Z</time>
      </trkpt>
      <trkpt lat="59.7148298" lon="17.75215">
        <ele>7.82788</ele>
        <time>2014-07-08T10:00:25Z</time>
      </trkpt>
      <trkpt lat="59.7148153" lon="17.7519899">
        <ele>8.30859</ele>
        <time>2014-07-08T10:00:26Z</time>
      </trkpt>
      <trkpt lat="59.714801" lon="17.7518322">
        <ele>7.82788</ele>
        <time>2014-07-08T10:00:27Z</time>
      </trkpt>
      <trkpt lat="59.7147878" lon="17.7516791">
        <ele>8.30859</ele>
        <time>2014-07-08T10:00:28Z</time>
      </trkpt>
      <trkpt lat="59.7147767" lon="17.7515251">
        <ele>8.30859</ele>
        <time>2014-07-08T10:00:29Z</time>
      </trkpt>
      <trkpt lat="59.7147723" lon="17.7513706">
        <ele>7.82788</ele>
        <time>2014-07-08T10:00:30Z</time>
      </trkpt>
      <trkpt lat="59.7147727" lon="17.7512124">
        <ele>8.30859</ele>
        <time>2014-07-08T10:00:31Z</time>
      </trkpt>
      <trkpt lat="59.7147753" lon="17.7510515">
        <ele>8.30859</ele>
        <time>2014-07-08T10:00:32Z</time>
      </trkpt>
      <trkpt lat="59.7147816" lon="17.7508895">
        <ele>8.30859</ele>
        <time>2014-07-08T10:00:33Z</time>
      </trkpt>
      <trkpt lat="59.7147914" lon="17.7507262">
        <ele>8.30859</ele>
        <time>2014-07-08T10:00:34Z</time>
      </trkpt>
      <trkpt lat="59.7148028" lon="17.75056">
        <ele>8.30859</ele>
        <time>2014-07-08T10:00:35Z</time>
      </trkpt>
      <trkpt lat="59.7148169" lon="17.7503936">
        <ele>8.30859</ele>
        <time>2014-07-08T10:00:36Z</time>
      </trkpt>
      <trkpt lat="59.7148345" lon="17.7502275">
        <ele>8.30859</ele>
        <time>2014-07-08T10:00:37Z</time>
      </trkpt>
      <trkpt lat="59.7148545" lon="17.7500619">
        <ele>7.82788</ele>
        <time>2014-07-08T10:00:38Z</time>
      </trkpt>
      <trkpt lat="59.7148747" lon="17.7498966">
        <ele>7.82788</ele>
        <time>2014-07-08T10:00:39Z</time>
      </trkpt>
      <trkpt lat="59.714896" lon="17.7497324">
        <ele>7.82788</ele>
        <time>2014-07-08T10:00:40Z</time>
      </trkpt>
      <trkpt lat="59.7149184" lon="17.7495682">
        <ele>7.82788</ele>
        <time>2014-07-08T10:00:41Z</time>
      </trkpt>
      <trkpt lat="59.7149411" lon="17.749404">
        <ele>8.30859</ele>
        <time>2014-07-08T10:00:42Z</time>
      </trkpt>
      <trkpt lat="59.7149628" lon="17.7492409">
        <ele>8.30859</ele>
        <time>2014-07-08T10:00:43Z</time>
      </trkpt>
      <trkpt lat="59.7149845" lon="17.7490801">
        <ele>8.30859</ele>
        <time>2014-07-08T10:00:44Z</time>
      </trkpt>
      <trkpt lat="59.7150064" lon="17.7489225">
        <ele>8.78918</ele>
        <time>2014-07-08T10:00:45Z</time>
      </trkpt>
      <trkpt lat="59.7150276" lon="17.7487677">
        <ele>8.78918</ele>
        <time>2014-07-08T10:00:46Z</time>
      </trkpt>
      <trkpt lat="59.7150481" lon="17.7486159">
        <ele>8.78918</ele>
        <time>2014-07-08T10:00:47Z</time>
      </trkpt>
      <trkpt lat="59.7150676" lon="17.7484669">
        <ele>9.2699</ele>
        <time>2014-07-08T10:00:48Z</time>
      </trkpt>
      <trkpt lat="59.7150867" lon="17.7483185">
        <ele>9.2699</ele>
        <time>2014-07-08T10:00:49Z</time>
      </trkpt>
      <trkpt lat="59.7151066" lon="17.7481703">
        <ele>9.2699</ele>
        <time>2014-07-08T10:00:50Z</time>
      </trkpt>
      <trkpt lat="59.7151264" lon="17.7480216">
        <ele>9.2699</ele>
        <time>2014-07-08T10:00:51Z</time>
      </trkpt>
      <trkpt lat="59.7151467" lon="17.7478738">
        <ele>9.2699</ele>
        <time>2014-07-08T10:00:52Z</time>
      </trkpt>
      <trkpt lat="59.7151674" lon="17.7477284">
        <ele>9.2699</ele>
        <time>2014-07-08T10:00:53Z</time>
      </trkpt>
      <trkpt lat="59.7151877" lon="17.7475839">
        <ele>9.75061</ele>
        <time>2014-07-08T10:00:54Z</time>
      </trkpt>
      <trkpt lat="59.715208" lon="17.7474393">
        <ele>9.75061</ele>
        <time>2014-07-08T10:00:55Z</time>
      </trkpt>
      <trkpt lat="59.7152275" lon="17.7472949">
        <ele>9.75061</ele>
        <time>2014-07-08T10:00:56Z</time>
      </trkpt>
      <trkpt lat="59.7152467" lon="17.7471514">
        <ele>9.75061</ele>
        <time>2014-07-08T10:00:57Z</time>
      </trkpt>
      <trkpt lat="59.7152665" lon="17.7470095">
        <ele>10.2312</ele>
        <time>2014-07-08T10:00:58Z</time>
      </trkpt>
      <trkpt lat="59.7152867" lon="17.7468689">
        <ele>10.2312</ele>
        <time>2014-07-08T10:00:59Z</time>
      </trkpt>
      <trkpt lat="59.7153067" lon="17.7467293">
        <ele>10.2312</ele>
        <time>2014-07-08T10:01:00Z</time>
      </trkpt>
      <trkpt lat="59.715326" lon="17.7465909">
        <ele>10.7118</ele>
        <time>2014-07-08T10:01:01Z</time>
      </trkpt>
      <trkpt lat="59.7153446" lon="17.7464531">
        <ele>10.7118</ele>
        <time>2014-07-08T10:01:02Z</time>
      </trkpt>
      <trkpt lat="59.7153633" lon="17.7463158">
        <ele>11.1925</ele>
        <time>2014-07-08T10:01:03Z</time>
      </trkpt>
      <trkpt lat="59.7153824" lon="17.746179">
        <ele>11.1925</ele>
        <time>2014-07-08T10:01:04Z</time>
      </trkpt>
      <trkpt lat="59.7154019" lon="17.7460417">
        <ele>11.1925</ele>
        <time>2014-07-08T10:01:05Z</time>
      </trkpt>
      <trkpt lat="59.7154209" lon="17.7459035">
        <ele>11.6732</ele>
        <time>2014-07-08T10:01:06Z</time>
      </trkpt>
      <trkpt lat="59.7154394" lon="17.7457647">
        <ele>11.6732</ele>
        <time>2014-07-08T10:01:07Z</time>
      </trkpt>
      <trkpt lat="59.7154579" lon="17.7456248">
        <ele>11.6732</ele>
        <time>2014-07-08T10:01:08Z</time>
      </trkpt>
      <trkpt lat="59.7154771" lon="17.7454834">
        <ele>12.1538</ele>
        <time>2014-07-08T10:01:09Z</time>
      </trkpt>
      <trkpt lat="59.7154962" lon="17.745341">
        <ele>12.1538</ele>
        <time>2014-07-08T10:01:10Z</time>
      </trkpt>
      <trkpt lat="59.7155149" lon="17.745199">
        <ele>12.1538</ele>
        <time>2014-07-08T10:01:11Z</time>
      </trkpt>
      <trkpt lat="59.7155328" lon="17.7450589">
        <ele>12.1538</ele>
        <time>2014-07-08T10:01:12Z</time>
      </trkpt>
      <trkpt lat="59.7155511" lon="17.7449217">
        <ele>12.1538</ele>
        <time>2014-07-08T10:01:13Z</time>
      </trkpt>
      <trkpt lat="59.715571" lon="17.7447867">
        <ele>12.6344</ele>
        <time>2014-07-08T10:01:14Z</time>
      </trkpt>
      <trkpt lat="59.7155916" lon="17.7446525">
        <ele>12.6344</ele>
        <time>2014-07-08T10:01:15Z</time>
      </trkpt>
      <trkpt lat="59.7156107" lon="17.7445183">
        <ele>12.6344</ele>
        <time>2014-07-08T10:01:16Z</time>
      </trkpt>
      <trkpt lat="59.7156291" lon="17.7443832">
        <ele>12.6344</ele>
        <time>2014-07-08T10:01:17Z</time>
      </trkpt>
      <trkpt lat="59.7156477" lon="17.7442473">
        <ele>12.6344</ele>
        <time>2014-07-08T10:01:18Z</time>
      </trkpt>
      <trkpt lat="59.7156663" lon="17.7441095">
        <ele>12.6344</ele>
        <time>2014-07-08T10:01:19Z</time>
      </trkpt>
      <trkpt lat="59.7156855" lon="17.7439713">
        <ele>12.6344</ele>
        <time>2014-07-08T10:01:20Z</time>
      </trkpt>
      <trkpt lat="59.7157046" lon="17.7438331">
        <ele>12.1538</ele>
        <time>2014-07-08T10:01:21Z</time>
      </trkpt>
      <trkpt lat="59.7157233" lon="17.7436961">
        <ele>12.1538</ele>
        <time>2014-07-08T10:01:22Z</time>
      </trkpt>
      <trkpt lat="59.7157425" lon="17.7435601">
        <ele>12.1538</ele>
        <time>2014-07-08T10:01:23Z</time>
      </trkpt>
      <trkpt lat="59.7157612" lon="17.7434232">
        <ele>12.1538</ele>
        <time>2014-07-08T10:01:24Z</time>
      </trkpt>
      <trkpt lat="59.7157792" lon="17.7432844">
        <ele>12.1538</ele>
        <time>2014-07-08T10:01:25Z</time>
      </trkpt>
      <trkpt lat="59.7157984" lon="17.7431446">
        <ele>12.1538</ele>
        <time>2014-07-08T10:01:26Z</time>
      </trkpt>
      <trkpt lat="59.7158181" lon="17.7430037">
        <ele>12.1538</ele>
        <time>2014-07-08T10:01:27Z</time>
      </trkpt>
      <trkpt lat="59.7158371" lon="17.7428611">
        <ele>12.1538</ele>
        <time>2014-07-08T10:01:28Z</time>
      </trkpt>
      <trkpt lat="59.7158564" lon="17.7427177">
        <ele>12.1538</ele>
        <time>2014-07-08T10:01:29Z</time>
      </trkpt>
      <trkpt lat="59.7158761" lon="17.7425737">
        <ele>12.1538</ele>
        <time>2014-07-08T10:01:30Z</time>
      </trkpt>
      <trkpt lat="59.7158961" lon="17.7424292">
        <ele>12.1538</ele>
        <time>2014-07-08T10:01:31Z</time>
      </trkpt>
      <trkpt lat="59.7159158" lon="17.7422843">
        <ele>12.1538</ele>
        <time>2014-07-08T10:01:32Z</time>
      </trkpt>
      <trkpt lat="59.7159358" lon="17.7421394">
        <ele>12.1538</ele>
        <time>2014-07-08T10:01:33Z</time>
      </trkpt>
      <trkpt lat="59.7159558" lon="17.7419942">
        <ele>12.1538</ele>
        <time>2014-07-08T10:01:34Z</time>
      </trkpt>
      <trkpt lat="59.7159745" lon="17.7418496">
        <ele>12.1538</ele>
        <time>2014-07-08T10:01:35Z</time>
      </trkpt>
      <trkpt lat="59.7159926" lon="17.741705">
        <ele>12.1538</ele>
        <time>2014-07-08T10:01:36Z</time>
      </trkpt>
      <trkpt lat="59.7160104" lon="17.741561">
        <ele>12.1538</ele>
        <time>2014-07-08T10:01:37Z</time>
      </trkpt>
      <trkpt lat="59.7160274" lon="17.7414164">
        <ele>12.1538</ele>
        <time>2014-07-08T10:01:38Z</time>
      </trkpt>
      <trkpt lat="59.7160423" lon="17.7412704">
        <ele>12.1538</ele>
        <time>2014-07-08T10:01:39Z</time>
      </trkpt>
      <trkpt lat="59.7160564" lon="17.7411223">
        <ele>12.1538</ele>
        <time>2014-07-08T10:01:40Z</time>
      </trkpt>
      <trkpt lat="59.7160683" lon="17.7409734">
        <ele>12.1538</ele>
        <time>2014-07-08T10:01:41Z</time>
      </trkpt>
      <trkpt lat="59.7160779" lon="17.740823">
        <ele>12.1538</ele>
        <time>2014-07-08T10:01:42Z</time>
      </trkpt>
      <trkpt lat="59.7160857" lon="17.7406709">
        <ele>12.6344</ele>
        <time>2014-07-08T10:01:43Z</time>
      </trkpt>
      <trkpt lat="59.716092" lon="17.7405173">
        <ele>12.6344</ele>
        <time>2014-07-08T10:01:44Z</time>
      </trkpt>
      <trkpt lat="59.7160951" lon="17.7403624">
        <ele>12.6344</ele>
        <time>2014-07-08T10:01:45Z</time>
      </trkpt>
      <trkpt lat="59.7160957" lon="17.7402067">
        <ele>12.6344</ele>
        <time>2014-07-08T10:01:46Z</time>
      </trkpt>
      <trkpt lat="59.7160942" lon="17.7400506">
        <ele>12.6344</ele>
        <time>2014-07-08T10:01:47Z</time>
      </trkpt>
      <trkpt lat="59.7160896" lon="17.7398963">
        <ele>12.6344</ele>
        <time>2014-07-08T10:01:48Z</time>
      </trkpt>
      <trkpt lat="59.7160837" lon="17.7397429">
        <ele>12.6344</ele>
        <time>2014-07-08T10:01:49Z</time>
      </trkpt>
      <trkpt lat="59.7160759" lon="17.73959">
        <ele>12.6344</ele>
        <time>2014-07-08T10:01:50Z</time>
      </trkpt>
      <trkpt lat="59.7160657" lon="17.7394367">
        <ele>12.6344</ele>
        <time>2014-07-08T10:01:51Z</time>
      </trkpt>
      <trkpt lat="59.7160525" lon="17.7392849">
        <ele>13.1151</ele>
        <time>2014-07-08T10:01:52Z</time>
      </trkpt>
      <trkpt lat="59.7160377" lon="17.7391361">
        <ele>13.1151</ele>
        <time>2014-07-08T10:01:53Z</time>
      </trkpt>
      <trkpt lat="59.7160217" lon="17.7389902">
        <ele>13.1151</ele>
        <time>2014-07-08T10:01:54Z</time>
      </trkpt>
      <trkpt lat="59.716003" lon="17.7388463">
        <ele>13.1151</ele>
        <time>2014-07-08T10:01:55Z</time>
      </trkpt>
      <trkpt lat="59.7159822" lon="17.7387036">
        <ele>13.5958</ele>
        <time>2014-07-08T10:01:56Z</time>
      </trkpt>
      <trkpt lat="59.7159588" lon="17.7385617">
        <ele>13.5958</ele>
        <time>2014-07-08T10:01:57Z</time>
      </trkpt>
      <trkpt lat="59.7159335" lon="17.7384214">
        <ele>14.0764</ele>
        <time>2014-07-08T10:01:58Z</time>
      </trkpt>
      <trkpt lat="59.7159061" lon="17.7382818">
        <ele>14.0764</ele>
        <time>2014-07-08T10:01:59Z</time>
      </trkpt>
      <trkpt lat="59.7158766" lon="17.7381426">
        <ele>14.557</ele>
        <time>2014-07-08T10:02:00Z</time>
      </trkpt>
      <trkpt lat="59.715845" lon="17.7380044">
        <ele>14.557</ele>
        <time>2014-07-08T10:02:01Z</time>
      </trkpt>
      <trkpt lat="59.7158111" lon="17.7378679">
        <ele>14.557</ele>
        <time>2014-07-08T10:02:02Z</time>
      </trkpt>
      <trkpt lat="59.7157752" lon="17.7377335">
        <ele>15.0377</ele>
        <time>2014-07-08T10:02:03Z</time>
      </trkpt>
      <trkpt lat="59.7157379" lon="17.7376018">
        <ele>15.0377</ele>
        <time>2014-07-08T10:02:04Z</time>
      </trkpt>
      <trkpt lat="59.7156996" lon="17.7374728">
        <ele>15.5184</ele>
        <time>2014-07-08T10:02:05Z</time>
      </trkpt>
      <trkpt lat="59.7156606" lon="17.7373473">
        <ele>15.5184</ele>
        <time>2014-07-08T10:02:06Z</time>
      </trkpt>
      <trkpt lat="59.7156211" lon="17.7372246">
        <ele>15.999</ele>
        <time>2014-07-08T10:02:07Z</time>
      </trkpt>
      <trkpt lat="59.7155799" lon="17.7371041">
        <ele>15.999</ele>
        <time>2014-07-08T10:02:08Z</time>
      </trkpt>
      <trkpt lat="59.7155363" lon="17.7369859">
        <ele>16.4797</ele>
        <time>2014-07-08T10:02:09Z</time>
      </trkpt>
      <trkpt lat="59.7154906" lon="17.7368697">
        <ele>16.4797</ele>
        <time>2014-07-08T10:02:10Z</time>
      </trkpt>
      <trkpt lat="59.715443" lon="17.7367542">
        <ele>16.4797</ele>
        <time>2014-07-08T10:02:11Z</time>
      </trkpt>
      <trkpt lat="59.7153938" lon="17.7366374">
        <ele>16.4797</ele>
        <time>2014-07-08T10:02:12Z</time>
      </trkpt>
      <trkpt lat="59.7153439" lon="17.7365192">
        <ele>16.4797</ele>
        <time>2014-07-08T10:02:13Z</time>
      </trkpt>
      <trkpt lat="59.7152931" lon="17.7364021">
        <ele>16.4797</ele>
        <time>2014-07-08T10:02:14Z</time>
      </trkpt>
      <trkpt lat="59.7152426" lon="17.7362857">
        <ele>16.4797</ele>
        <time>2014-07-08T10:02:15Z</time>
      </trkpt>
      <trkpt lat="59.7151926" lon="17.7361686">
        <ele>16.4797</ele>
        <time>2014-07-08T10:02:16Z</time>
      </trkpt>
      <trkpt lat="59.7151421" lon="17.736051">
        <ele>16.4797</ele>
        <time>2014-07-08T10:02:17Z</time>
      </trkpt>
      <trkpt lat="59.7150913" lon="17.735933">
        <ele>16.4797</ele>
        <time>2014-07-08T10:02:18Z</time>
      </trkpt>
      <trkpt lat="59.71504" lon="17.7358153">
        <ele>16.4797</ele>
        <time>2014-07-08T10:02:19Z</time>
      </trkpt>
      <trkpt lat="59.7149883" lon="17.7356977">
        <ele>16.4797</ele>
        <time>2014-07-08T10:02:20Z</time>
      </trkpt>
      <trkpt lat="59.7149375" lon="17.735579">
        <ele>16.4797</ele>
        <time>2014-07-08T10:02:21Z</time>
      </trkpt>
      <trkpt lat="59.7148884" lon="17.73546">
        <ele>16.4797</ele>
        <time>2014-07-08T10:02:22Z</time>
      </trkpt>
      <trkpt lat="59.7148402" lon="17.7353428">
        <ele>16.4797</ele>
        <time>2014-07-08T10:02:23Z</time>
      </trkpt>
      <trkpt lat="59.7147949" lon="17.7352274">
        <ele>16.9604</ele>
        <time>2014-07-08T10:02:24Z</time>
      </trkpt>
      <trkpt lat="59.714751" lon="17.7351092">
        <ele>16.9604</ele>
        <time>2014-07-08T10:02:25Z</time>
      </trkpt>
      <trkpt lat="59.7147085" lon="17.734988">
        <ele>16.9604</ele>
        <time>2014-07-08T10:02:26Z</time>
      </trkpt>
      <trkpt lat="59.7146661" lon="17.7348657">
        <ele>16.9604</ele>
        <time>2014-07-08T10:02:27Z</time>
      </trkpt>
      <trkpt lat="59.7146254" lon="17.7347408">
        <ele>16.9604</ele>
        <time>2014-07-08T10:02:28Z</time>
      </trkpt>
      <trkpt lat="59.7145886" lon="17.7346115">
        <ele>16.9604</ele>
        <time>2014-07-08T10:02:29Z</time>
      </trkpt>
      <trkpt lat="59.7145547" lon="17.7344798">
        <ele>16.9604</ele>
        <time>2014-07-08T10:02:30Z</time>
      </trkpt>
      <trkpt lat="59.7145246" lon="17.7343471">
        <ele>16.9604</ele>
        <time>2014-07-08T10:02:31Z</time>
      </trkpt>
      <trkpt lat="59.7144987" lon="17.7342141">
        <ele>17.4412</ele>
        <time>2014-07-08T10:02:32Z</time>
      </trkpt>
      <trkpt lat="59.7144763" lon="17.7340821">
        <ele>17.4412</ele>
        <time>2014-07-08T10:02:33Z</time>
      </trkpt>
      <trkpt lat="59.7144578" lon="17.7339507">
        <ele>17.9218</ele>
        <time>2014-07-08T10:02:34Z</time>
      </trkpt>
      <trkpt lat="59.7144421" lon="17.7338209">
        <ele>17.9218</ele>
        <time>2014-07-08T10:02:35Z</time>
      </trkpt>
      <trkpt lat="59.7144278" lon="17.733694">
        <ele>18.4023</ele>
        <time>2014-07-08T10:02:36Z</time>
      </trkpt>
      <trkpt lat="59.7144156" lon="17.7335691">
        <ele>18.4023</ele>
        <time>2014-07-08T10:02:37Z</time>
      </trkpt>
      <trkpt lat="59.714405" lon="17.733446">
        <ele>18.8831</ele>
        <time>2014-07-08T10:02:38Z</time>
      </trkpt>
      <trkpt lat="59.7143952" lon="17.7333247">
        <ele>18.8831</ele>
        <time>2014-07-08T10:02:39Z</time>
      </trkpt>
      <trkpt lat="59.7143861" lon="17.733205">
        <ele>19.3638</ele>
        <time>2014-07-08T10:02:40Z</time>
      </trkpt>
      <trkpt lat="59.7143779" lon="17.7330848">
        <ele>19.3638</ele>
        <time>2014-07-08T10:02:41Z</time>
      </trkpt>
      <trkpt lat="59.71437" lon="17.7329647">
        <ele>19.8444</ele>
        <time>2014-07-08T10:02:42Z</time>
      </trkpt>
      <trkpt lat="59.7143615" lon="17.732845">
        <ele>19.8444</ele>
        <time>2014-07-08T10:02:43Z</time>
      </trkpt>
      <trkpt lat="59.7143532" lon="17.7327253">
        <ele>19.8444</ele>
        <time>2014-07-08T10:02:44Z</time>
      </trkpt>
      <trkpt lat="59.7143453" lon="17.7326062">
        <ele>20.325</ele>
        <time>2014-07-08T10:02:45Z</time>
      </trkpt>
      <trkpt lat="59.7143377" lon="17.7324877">
        <ele>20.325</ele>
        <time>2014-07-08T10:02:46Z</time>
      </trkpt>
      <trkpt lat="59.7143301" lon="17.7323705">
        <ele>20.8057</ele>
        <time>2014-07-08T10:02:47Z</time>
      </trkpt>
      <trkpt lat="59.7143219" lon="17.7322544">
        <ele>20.8057</ele>
        <time>2014-07-08T10:02:48Z</time>
      </trkpt>
      <trkpt lat="59.7143148" lon="17.7321388">
        <ele>21.2864</ele>
        <time>2014-07-08T10:02:49Z</time>
      </trkpt>
      <trkpt lat="59.7143086" lon="17.7320258">
        <ele>21.2864</ele>
        <time>2014-07-08T10:02:50Z</time>
      </trkpt>
      <trkpt lat="59.7143022" lon="17.7319147">
        <ele>21.767</ele>
        <time>2014-07-08T10:02:51Z</time>
      </trkpt>
      <trkpt lat="59.7142962" lon="17.7318054">
        <ele>21.767</ele>
        <time>2014-07-08T10:02:52Z</time>
      </trkpt>
      <trkpt lat="59.7142894" lon="17.7316985">
        <ele>22.2476</ele>
        <time>2014-07-08T10:02:53Z</time>
      </trkpt>
      <trkpt lat="59.7142817" lon="17.7315925">
        <ele>22.2476</ele>
        <time>2014-07-08T10:02:54Z</time>
      </trkpt>
      <trkpt lat="59.7142744" lon="17.7314883">
        <ele>22.7283</ele>
        <time>2014-07-08T10:02:55Z</time>
      </trkpt>
      <trkpt lat="59.7142682" lon="17.7313856">
        <ele>22.7283</ele>
        <time>2014-07-08T10:02:56Z</time>
      </trkpt>
      <trkpt lat="59.7142628" lon="17.7312842">
        <ele>22.7283</ele>
        <time>2014-07-08T10:02:57Z</time>
      </trkpt>
      <trkpt lat="59.7142574" lon="17.7311833">
        <ele>22.7283</ele>
        <time>2014-07-08T10:02:58Z</time>
      </trkpt>
      <trkpt lat="59.714253" lon="17.7310844">
        <ele>23.209</ele>
        <time>2014-07-08T10:02:59Z</time>
      </trkpt>
      <trkpt lat="59.7142486" lon="17.7309884">
        <ele>23.209</ele>
        <time>2014-07-08T10:03:00Z</time>
      </trkpt>
      <trkpt lat="59.7142443" lon="17.7308943">
        <ele>23.6896</ele>
        <time>2014-07-08T10:03:01Z</time>
      </trkpt>
      <trkpt lat="59.7142376" lon="17.7308009">
        <ele>23.6896</ele>
        <time>2014-07-08T10:03:02Z</time>
      </trkpt>
      <trkpt lat="59.7142293" lon="17.7307072">
        <ele>23.6896</ele>
        <time>2014-07-08T10:03:03Z</time>
      </trkpt>
      <trkpt lat="59.7142216" lon="17.7306116">
        <ele>24.1703</ele>
        <time>2014-07-08T10:03:04Z</time>
      </trkpt>
      <trkpt lat="59.7142143" lon="17.7305138">
        <ele>24.1703</ele>
        <time>2014-07-08T10:03:05Z</time>
      </trkpt>
      <trkpt lat="59.714206" lon="17.7304149">
        <ele>24.1703</ele>
        <time>2014-07-08T10:03:06Z</time>
      </trkpt>
      <trkpt lat="59.7141971" lon="17.7303151">
        <ele>24.651</ele>
        <time>2014-07-08T10:03:07Z</time>
      </trkpt>
      <trkpt lat="59.7141875" lon="17.7302165">
        <ele>24.651</ele>
        <time>2014-07-08T10:03:08Z</time>
      </trkpt>
      <trkpt lat="59.714178" lon="17.7301192">
        <ele>24.651</ele>
        <time>2014-07-08T10:03:09Z</time>
      </trkpt>
      <trkpt lat="59.7141685" lon="17.7300202">
        <ele>25.1317</ele>
        <time>2014-07-08T10:03:10Z</time>
      </trkpt>
      <trkpt lat="59.7141603" lon="17.7299168">
        <ele>25.1317</ele>
        <time>2014-07-08T10:03:11Z</time>
      </trkpt>
      <trkpt lat="59.7141557" lon="17.7298129">
        <ele>25.6123</ele>
        <time>2014-07-08T10:03:12Z</time>
      </trkpt>
      <trkpt lat="59.71415" lon="17.7297028">
        <ele>25.6123</ele>
        <time>2014-07-08T10:03:13Z</time>
      </trkpt>
      <trkpt lat="59.7141443" lon="17.7295898">
        <ele>26.0929</ele>
        <time>2014-07-08T10:03:14Z</time>
      </trkpt>
      <trkpt lat="59.7141375" lon="17.7294753">
        <ele>26.0929</ele>
        <time>2014-07-08T10:03:15Z</time>
      </trkpt>
      <trkpt lat="59.7141303" lon="17.7293598">
        <ele>26.0929</ele>
        <time>2014-07-08T10:03:16Z</time>
      </trkpt>
      <trkpt lat="59.7141242" lon="17.7292429">
        <ele>26.0929</ele>
        <time>2014-07-08T10:03:17Z</time>
      </trkpt>
      <trkpt lat="59.7141191" lon="17.7291251">
        <ele>26.0929</ele>
        <time>2014-07-08T10:03:18Z</time>
      </trkpt>
      <trkpt lat="59.7141144" lon="17.7290069">
        <ele>26.5736</ele>
        <time>2014-07-08T10:03:19Z</time>
      </trkpt>
      <trkpt lat="59.7141096" lon="17.7288911">
        <ele>26.5736</ele>
        <time>2014-07-08T10:03:20Z</time>
      </trkpt>
      <trkpt lat="59.7140987" lon="17.7287568">
        <ele>27.0543</ele>
        <time>2014-07-08T10:03:21Z</time>
      </trkpt>
      <trkpt lat="59.7140922" lon="17.7286408">
        <ele>27.0543</ele>
        <time>2014-07-08T10:03:22Z</time>
      </trkpt>
      <trkpt lat="59.7140838" lon="17.7285264">
        <ele>27.0543</ele>
        <time>2014-07-08T10:03:23Z</time>
      </trkpt>
      <trkpt lat="59.7140699" lon="17.7284228">
        <ele>27.0543</ele>
        <time>2014-07-08T10:03:24Z</time>
      </trkpt>
      <trkpt lat="59.7140625" lon="17.7283264">
        <ele>27.0543</ele>
        <time>2014-07-08T10:03:25Z</time>
      </trkpt>
      <trkpt lat="59.714048" lon="17.7282205">
        <ele>27.0543</ele>
        <time>2014-07-08T10:03:26Z</time>
      </trkpt>
      <trkpt lat="59.7140382" lon="17.7281242">
        <ele>27.0543</ele>
        <time>2014-07-08T10:03:27Z</time>
      </trkpt>
      <trkpt lat="59.7140351" lon="17.7280305">
        <ele>27.0543</ele>
        <time>2014-07-08T10:03:28Z</time>
      </trkpt>
      <trkpt lat="59.7140298" lon="17.7279372">
        <ele>26.5736</ele>
        <time>2014-07-08T10:03:29Z</time>
      </trkpt>
      <trkpt lat="59.7140245" lon="17.7278497">
        <ele>26.5736</ele>
        <time>2014-07-08T10:03:30Z</time>
      </trkpt>
      <trkpt lat="59.7140174" lon="17.7277638">
        <ele>26.5736</ele>
        <time>2014-07-08T10:03:31Z</time>
      </trkpt>
      <trkpt lat="59.7140111" lon="17.7276868">
        <ele>26.0929</ele>
        <time>2014-07-08T10:03:32Z</time>
      </trkpt>
      <trkpt lat="59.7140056" lon="17.7276127">
        <ele>26.0929</ele>
        <time>2014-07-08T10:03:33Z</time>
      </trkpt>
      <trkpt lat="59.7140046" lon="17.7275437">
        <ele>25.6123</ele>
        <time>2014-07-08T10:03:34Z</time>
      </trkpt>
      <trkpt lat="59.7140085" lon="17.7274804">
        <ele>25.6123</ele>
        <time>2014-07-08T10:03:35Z</time>
      </trkpt>
      <trkpt lat="59.7140062" lon="17.7274245">
        <ele>25.6123</ele>
        <time>2014-07-08T10:03:36Z</time>
      </trkpt>
      <trkpt lat="59.7139995" lon="17.7273699">
        <ele>25.6123</ele>
        <time>2014-07-08T10:03:37Z</time>
      </trkpt>
      <trkpt lat="59.7139911" lon="17.7273142">
        <ele>25.6123</ele>
        <time>2014-07-08T10:03:38Z</time>
      </trkpt>
      <trkpt lat="59.7139769" lon="17.7272576">
        <ele>25.1317</ele>
        <time>2014-07-08T10:03:39Z</time>
      </trkpt>
      <trkpt lat="59.7139523" lon="17.7272052">
        <ele>25.1317</ele>
        <time>2014-07-08T10:03:40Z</time>
      </trkpt>
      <trkpt lat="59.7139175" lon="17.7271625">
        <ele>25.1317</ele>
        <time>2014-07-08T10:03:41Z</time>
      </trkpt>
      <trkpt lat="59.7138757" lon="17.7271271">
        <ele>25.1317</ele>
        <time>2014-07-08T10:03:42Z</time>
      </trkpt>
      <trkpt lat="59.7138299" lon="17.7270931">
        <ele>24.651</ele>
        <time>2014-07-08T10:03:43Z</time>
      </trkpt>
      <trkpt lat="59.7137812" lon="17.7270582">
        <ele>24.651</ele>
        <time>2014-07-08T10:03:44Z</time>
      </trkpt>
      <trkpt lat="59.7137304" lon="17.7270203">
        <ele>24.651</ele>
        <time>2014-07-08T10:03:45Z</time>
      </trkpt>
      <trkpt lat="59.7136777" lon="17.7269821">
        <ele>24.651</ele>
        <time>2014-07-08T10:03:46Z</time>
      </trkpt>
      <trkpt lat="59.7136238" lon="17.7269423">
        <ele>24.651</ele>
        <time>2014-07-08T10:03:47Z</time>
      </trkpt>
      <trkpt lat="59.7135683" lon="17.7269003">
        <ele>24.651</ele>
        <time>2014-07-08T10:03:48Z</time>
      </trkpt>
      <trkpt lat="59.7135114" lon="17.7268552">
        <ele>24.651</ele>
        <time>2014-07-08T10:03:49Z</time>
      </trkpt>
      <trkpt lat="59.7134527" lon="17.7268081">
        <ele>24.1703</ele>
        <time>2014-07-08T10:03:50Z</time>
      </trkpt>
      <trkpt lat="59.713392" lon="17.7267614">
        <ele>24.1703</ele>
        <time>2014-07-08T10:03:51Z</time>
      </trkpt>
      <trkpt lat="59.7133296" lon="17.7267137">
        <ele>24.1703</ele>
        <time>2014-07-08T10:03:52Z</time>
      </trkpt>
      <trkpt lat="59.7132662" lon="17.7266647">
        <ele>24.1703</ele>
        <time>2014-07-08T10:03:53Z</time>
      </trkpt>
      <trkpt lat="59.713202" lon="17.7266132">
        <ele>23.6896</ele>
        <time>2014-07-08T10:03:54Z</time>
      </trkpt>
      <trkpt lat="59.7131364" lon="17.7265646">
        <ele>23.6896</ele>
        <time>2014-07-08T10:03:55Z</time>
      </trkpt>
      <trkpt lat="59.7130657" lon="17.7265222">
        <ele>23.6896</ele>
        <time>2014-07-08T10:03:56Z</time>
      </trkpt>
      <trkpt lat="59.7129968" lon="17.726475">
        <ele>23.6896</ele>
        <time>2014-07-08T10:03:57Z</time>
      </trkpt>
      <trkpt lat="59.7129313" lon="17.726423">
        <ele>23.209</ele>
        <time>2014-07-08T10:03:58Z</time>
      </trkpt>
      <trkpt lat="59.7128666" lon="17.7263723">
        <ele>23.209</ele>
        <time>2014-07-08T10:03:59Z</time>
      </trkpt>
      <trkpt lat="59.7128026" lon="17.7263194">
        <ele>22.7283</ele>
        <time>2014-07-08T10:04:00Z</time>
      </trkpt>
      <trkpt lat="59.7127386" lon="17.7262653">
        <ele>22.7283</ele>
        <time>2014-07-08T10:04:01Z</time>
      </trkpt>
      <trkpt lat="59.7126743" lon="17.726213">
        <ele>22.2476</ele>
        <time>2014-07-08T10:04:02Z</time>
      </trkpt>
      <trkpt lat="59.7126095" lon="17.7261616">
        <ele>22.2476</ele>
        <time>2014-07-08T10:04:03Z</time>
      </trkpt>
      <trkpt lat="59.7125431" lon="17.7261099">
        <ele>22.2476</ele>
        <time>2014-07-08T10:04:04Z</time>
      </trkpt>
      <trkpt lat="59.7124747" lon="17.7260565">
        <ele>21.767</ele>
        <time>2014-07-08T10:04:05Z</time>
      </trkpt>
      <trkpt lat="59.7124043" lon="17.7260026">
        <ele>21.767</ele>
        <time>2014-07-08T10:04:06Z</time>
      </trkpt>
      <trkpt lat="59.7123329" lon="17.725948">
        <ele>21.767</ele>
        <time>2014-07-08T10:04:07Z</time>
      </trkpt>
      <trkpt lat="59.7122612" lon="17.7258937">
        <ele>21.767</ele>
        <time>2014-07-08T10:04:08Z</time>
      </trkpt>
      <trkpt lat="59.7121895" lon="17.7258389">
        <ele>21.767</ele>
        <time>2014-07-08T10:04:09Z</time>
      </trkpt>
      <trkpt lat="59.7121179" lon="17.725784">
        <ele>21.767</ele>
        <time>2014-07-08T10:04:10Z</time>
      </trkpt>
      <trkpt lat="59.7120463" lon="17.7257295">
        <ele>21.767</ele>
        <time>2014-07-08T10:04:11Z</time>
      </trkpt>
      <trkpt lat="59.711975" lon="17.7256747">
        <ele>21.767</ele>
        <time>2014-07-08T10:04:12Z</time>
      </trkpt>
      <trkpt lat="59.7119043" lon="17.7256192">
        <ele>21.767</ele>
        <time>2014-07-08T10:04:13Z</time>
      </trkpt>
      <trkpt lat="59.7118337" lon="17.7255637">
        <ele>21.767</ele>
        <time>2014-07-08T10:04:14Z</time>
      </trkpt>
      <trkpt lat="59.7117635" lon="17.7255082">
        <ele>21.767</ele>
        <time>2014-07-08T10:04:15Z</time>
      </trkpt>
      <trkpt lat="59.7116927" lon="17.7254531">
        <ele>21.767</ele>
        <time>2014-07-08T10:04:16Z</time>
      </trkpt>
      <trkpt lat="59.7116215" lon="17.7253987">
        <ele>21.767</ele>
        <time>2014-07-08T10:04:17Z</time>
      </trkpt>
      <trkpt lat="59.7115496" lon="17.7253433">
        <ele>22.2476</ele>
        <time>2014-07-08T10:04:18Z</time>
      </trkpt>
      <trkpt lat="59.7114771" lon="17.7252872">
        <ele>22.2476</ele>
        <time>2014-07-08T10:04:19Z</time>
      </trkpt>
      <trkpt lat="59.711404" lon="17.7252303">
        <ele>22.2476</ele>
        <time>2014-07-08T10:04:20Z</time>
      </trkpt>
      <trkpt lat="59.71133" lon="17.7251728">
        <ele>22.2476</ele>
        <time>2014-07-08T10:04:21Z</time>
      </trkpt>
      <trkpt lat="59.7112554" lon="17.7251162">
        <ele>22.2476</ele>
        <time>2014-07-08T10:04:22Z</time>
      </trkpt>
      <trkpt lat="59.7111809" lon="17.7250598">
        <ele>22.2476</ele>
        <time>2014-07-08T10:04:23Z</time>
      </trkpt>
      <trkpt lat="59.7111066" lon="17.7250024">
        <ele>22.2476</ele>
        <time>2014-07-08T10:04:24Z</time>
      </trkpt>
      <trkpt lat="59.7110327" lon="17.7249459">
        <ele>22.2476</ele>
        <time>2014-07-08T10:04:25Z</time>
      </trkpt>
      <trkpt lat="59.7109592" lon="17.7248903">
        <ele>22.2476</ele>
        <time>2014-07-08T10:04:26Z</time>
      </trkpt>
      <trkpt lat="59.7108855" lon="17.7248355">
        <ele>22.2476</ele>
        <time>2014-07-08T10:04:27Z</time>
      </trkpt>
      <trkpt lat="59.7108105" lon="17.7247811">
        <ele>21.767</ele>
        <time>2014-07-08T10:04:28Z</time>
      </trkpt>
      <trkpt lat="59.7107348" lon="17.7247243">
        <ele>21.767</ele>
        <time>2014-07-08T10:04:29Z</time>
      </trkpt>
      <trkpt lat="59.7106577" lon="17.7246647">
        <ele>21.2864</ele>
        <time>2014-07-08T10:04:30Z</time>
      </trkpt>
      <trkpt lat="59.7105778" lon="17.7246033">
        <ele>21.2864</ele>
        <time>2014-07-08T10:04:31Z</time>
      </trkpt>
      <trkpt lat="59.7104948" lon="17.7245408">
        <ele>20.8057</ele>
        <time>2014-07-08T10:04:32Z</time>
      </trkpt>
      <trkpt lat="59.7104094" lon="17.7244765">
        <ele>20.325</ele>
        <time>2014-07-08T10:04:33Z</time>
      </trkpt>
      <trkpt lat="59.7103221" lon="17.7244108">
        <ele>20.325</ele>
        <time>2014-07-08T10:04:34Z</time>
      </trkpt>
      <trkpt lat="59.7102328" lon="17.7243435">
        <ele>19.8444</ele>
        <time>2014-07-08T10:04:35Z</time>
      </trkpt>
      <trkpt lat="59.7101416" lon="17.7242741">
        <ele>19.3638</ele>
        <time>2014-07-08T10:04:36Z</time>
      </trkpt>
      <trkpt lat="59.7100488" lon="17.7242042">
        <ele>19.3638</ele>
        <time>2014-07-08T10:04:37Z</time>
      </trkpt>
      <trkpt lat="59.709955" lon="17.7241345">
        <ele>18.8831</ele>
        <time>2014-07-08T10:04:38Z</time>
      </trkpt>
      <trkpt lat="59.7098608" lon="17.7240648">
        <ele>18.8831</ele>
        <time>2014-07-08T10:04:39Z</time>
      </trkpt>
      <trkpt lat="59.7097665" lon="17.7239952">
        <ele>18.4023</ele>
        <time>2014-07-08T10:04:40Z</time>
      </trkpt>
      <trkpt lat="59.7096719" lon="17.7239255">
        <ele>18.4023</ele>
        <time>2014-07-08T10:04:41Z</time>
      </trkpt>
      <trkpt lat="59.7095772" lon="17.7238571">
        <ele>17.9218</ele>
        <time>2014-07-08T10:04:42Z</time>
      </trkpt>
      <trkpt lat="59.7094833" lon="17.7237892">
        <ele>17.9218</ele>
        <time>2014-07-08T10:04:43Z</time>
      </trkpt>
      <trkpt lat="59.7093904" lon="17.7237202">
        <ele>17.9218</ele>
        <time>2014-07-08T10:04:44Z</time>
      </trkpt>
      <trkpt lat="59.7092984" lon="17.7236508">
        <ele>17.4412</ele>
        <time>2014-07-08T10:04:45Z</time>
      </trkpt>
      <trkpt lat="59.7092061" lon="17.7235813">
        <ele>17.4412</ele>
        <time>2014-07-08T10:04:46Z</time>
      </trkpt>
      <trkpt lat="59.7091128" lon="17.7235115">
        <ele>16.9604</ele>
        <time>2014-07-08T10:04:47Z</time>
      </trkpt>
      <trkpt lat="59.7090187" lon="17.7234427">
        <ele>16.9604</ele>
        <time>2014-07-08T10:04:48Z</time>
      </trkpt>
      <trkpt lat="59.7089253" lon="17.7233746">
        <ele>16.9604</ele>
        <time>2014-07-08T10:04:49Z</time>
      </trkpt>
      <trkpt lat="59.7088323" lon="17.723306">
        <ele>16.4797</ele>
        <time>2014-07-08T10:04:50Z</time>
      </trkpt>
      <trkpt lat="59.70874" lon="17.7232381">
        <ele>16.4797</ele>
        <time>2014-07-08T10:04:51Z</time>
      </trkpt>
      <trkpt lat="59.7086479" lon="17.7231694">
        <ele>15.999</ele>
        <time>2014-07-08T10:04:52Z</time>
      </trkpt>
      <trkpt lat="59.7085556" lon="17.7231002">
        <ele>15.999</ele>
        <time>2014-07-08T10:04:53Z</time>
      </trkpt>
      <trkpt lat="59.7084634" lon="17.7230327">
        <ele>15.999</ele>
        <time>2014-07-08T10:04:54Z</time>
      </trkpt>
      <trkpt lat="59.7083722" lon="17.7229665">
        <ele>15.5184</ele>
        <time>2014-07-08T10:04:55Z</time>
      </trkpt>
      <trkpt lat="59.7082817" lon="17.7229">
        <ele>15.5184</ele>
        <time>2014-07-08T10:04:56Z</time>
      </trkpt>
      <trkpt lat="59.7081915" lon="17.7228323">
        <ele>15.0377</ele>
        <time>2014-07-08T10:04:57Z</time>
      </trkpt>
      <trkpt lat="59.7081008" lon="17.7227645">
        <ele>15.0377</ele>
        <time>2014-07-08T10:04:58Z</time>
      </trkpt>
      <trkpt lat="59.7080091" lon="17.7226961">
        <ele>15.0377</ele>
        <time>2014-07-08T10:04:59Z</time>
      </trkpt>
      <trkpt lat="59.7079164" lon="17.7226272">
        <ele>14.557</ele>
        <time>2014-07-08T10:05:00Z</time>
      </trkpt>
      <trkpt lat="59.7078224" lon="17.7225573">
        <ele>14.557</ele>
        <time>2014-07-08T10:05:01Z</time>
      </trkpt>
      <trkpt lat="59.7077272" lon="17.7224873">
        <ele>14.0764</ele>
        <time>2014-07-08T10:05:02Z</time>
      </trkpt>
      <trkpt lat="59.707631" lon="17.7224175">
        <ele>14.0764</ele>
        <time>2014-07-08T10:05:03Z</time>
      </trkpt>
      <trkpt lat="59.7075347" lon="17.7223475">
        <ele>13.5958</ele>
        <time>2014-07-08T10:05:04Z</time>
      </trkpt>
      <trkpt lat="59.7074391" lon="17.7222766">
        <ele>13.1151</ele>
        <time>2014-07-08T10:05:05Z</time>
      </trkpt>
      <trkpt lat="59.7073437" lon="17.7222052">
        <ele>13.1151</ele>
        <time>2014-07-08T10:05:06Z</time>
      </trkpt>
      <trkpt lat="59.7072486" lon="17.7221336">
        <ele>12.6344</ele>
        <time>2014-07-08T10:05:07Z</time>
      </trkpt>
      <trkpt lat="59.7071542" lon="17.7220629">
        <ele>12.6344</ele>
        <time>2014-07-08T10:05:08Z</time>
      </trkpt>
      <trkpt lat="59.7070606" lon="17.7219942">
        <ele>12.1538</ele>
        <time>2014-07-08T10:05:09Z</time>
      </trkpt>
      <trkpt lat="59.7069683" lon="17.7219258">
        <ele>12.1538</ele>
        <time>2014-07-08T10:05:10Z</time>
      </trkpt>
      <trkpt lat="59.7068767" lon="17.7218574">
        <ele>12.1538</ele>
        <time>2014-07-08T10:05:11Z</time>
      </trkpt>
      <trkpt lat="59.7067854" lon="17.7217902">
        <ele>11.6732</ele>
        <time>2014-07-08T10:05:12Z</time>
      </trkpt>
      <trkpt lat="59.7066949" lon="17.7217234">
        <ele>11.6732</ele>
        <time>2014-07-08T10:05:13Z</time>
      </trkpt>
      <trkpt lat="59.7066056" lon="17.7216575">
        <ele>11.6732</ele>
        <time>2014-07-08T10:05:14Z</time>
      </trkpt>
      <trkpt lat="59.7065172" lon="17.7215924">
        <ele>11.1925</ele>
        <time>2014-07-08T10:05:15Z</time>
      </trkpt>
      <trkpt lat="59.7064297" lon="17.7215284">
        <ele>11.1925</ele>
        <time>2014-07-08T10:05:16Z</time>
      </trkpt>
      <trkpt lat="59.7063432" lon="17.7214642">
        <ele>11.1925</ele>
        <time>2014-07-08T10:05:17Z</time>
      </trkpt>
      <trkpt lat="59.7062568" lon="17.7213996">
        <ele>11.1925</ele>
        <time>2014-07-08T10:05:18Z</time>
      </trkpt>
      <trkpt lat="59.7061699" lon="17.7213354">
        <ele>11.1925</ele>
        <time>2014-07-08T10:05:19Z</time>
      </trkpt>
      <trkpt lat="59.7060826" lon="17.7212714">
        <ele>10.7118</ele>
        <time>2014-07-08T10:05:20Z</time>
      </trkpt>
      <trkpt lat="59.7059964" lon="17.7212046">
        <ele>10.7118</ele>
        <time>2014-07-08T10:05:21Z</time>
      </trkpt>
      <trkpt lat="59.7059114" lon="17.7211359">
        <ele>10.7118</ele>
        <time>2014-07-08T10:05:22Z</time>
      </trkpt>
      <trkpt lat="59.7058272" lon="17.7210701">
        <ele>10.7118</ele>
        <time>2014-07-08T10:05:23Z</time>
      </trkpt>
      <trkpt lat="59.7057441" lon="17.7210065">
        <ele>10.7118</ele>
        <time>2014-07-08T10:05:24Z</time>
      </trkpt>
      <trkpt lat="59.7056615" lon="17.7209436">
        <ele>10.7118</ele>
        <time>2014-07-08T10:05:25Z</time>
      </trkpt>
      <trkpt lat="59.7055787" lon="17.720886">
        <ele>11.1925</ele>
        <time>2014-07-08T10:05:26Z</time>
      </trkpt>
      <trkpt lat="59.7054967" lon="17.7208325">
        <ele>11.1925</ele>
        <time>2014-07-08T10:05:27Z</time>
      </trkpt>
      <trkpt lat="59.7054165" lon="17.7207783">
        <ele>11.1925</ele>
        <time>2014-07-08T10:05:28Z</time>
      </trkpt>
      <trkpt lat="59.7053388" lon="17.720723">
        <ele>11.1925</ele>
        <time>2014-07-08T10:05:29Z</time>
      </trkpt>
      <trkpt lat="59.7052636" lon="17.7206664">
        <ele>11.6732</ele>
        <time>2014-07-08T10:05:30Z</time>
      </trkpt>
      <trkpt lat="59.7051902" lon="17.7206101">
        <ele>11.6732</ele>
        <time>2014-07-08T10:05:31Z</time>
      </trkpt>
      <trkpt lat="59.7051181" lon="17.7205555">
        <ele>12.1538</ele>
        <time>2014-07-08T10:05:32Z</time>
      </trkpt>
      <trkpt lat="59.7050475" lon="17.7205028">
        <ele>12.1538</ele>
        <time>2014-07-08T10:05:33Z</time>
      </trkpt>
      <trkpt lat="59.7049772" lon="17.7204528">
        <ele>12.6344</ele>
        <time>2014-07-08T10:05:34Z</time>
      </trkpt>
      <trkpt lat="59.7049071" lon="17.7204053">
        <ele>12.6344</ele>
        <time>2014-07-08T10:05:35Z</time>
      </trkpt>
      <trkpt lat="59.7048368" lon="17.7203583">
        <ele>12.6344</ele>
        <time>2014-07-08T10:05:36Z</time>
      </trkpt>
      <trkpt lat="59.7047661" lon="17.7203113">
        <ele>13.1151</ele>
        <time>2014-07-08T10:05:37Z</time>
      </trkpt>
      <trkpt lat="59.7046948" lon="17.720267">
        <ele>13.1151</ele>
        <time>2014-07-08T10:05:38Z</time>
      </trkpt>
      <trkpt lat="59.7046226" lon="17.7202258">
        <ele>13.1151</ele>
        <time>2014-07-08T10:05:39Z</time>
      </trkpt>
      <trkpt lat="59.7045497" lon="17.7201858">
        <ele>13.1151</ele>
        <time>2014-07-08T10:05:40Z</time>
      </trkpt>
      <trkpt lat="59.7044762" lon="17.7201489">
        <ele>13.5958</ele>
        <time>2014-07-08T10:05:41Z</time>
      </trkpt>
      <trkpt lat="59.7044016" lon="17.7201168">
        <ele>13.1151</ele>
        <time>2014-07-08T10:05:42Z</time>
      </trkpt>
      <trkpt lat="59.7043255" lon="17.7200858">
        <ele>13.1151</ele>
        <time>2014-07-08T10:05:43Z</time>
      </trkpt>
      <trkpt lat="59.7042488" lon="17.7200565">
        <ele>13.1151</ele>
        <time>2014-07-08T10:05:44Z</time>
      </trkpt>
      <trkpt lat="59.7041712" lon="17.7200305">
        <ele>13.1151</ele>
        <time>2014-07-08T10:05:45Z</time>
      </trkpt>
      <trkpt lat="59.7040922" lon="17.7200067">
        <ele>13.1151</ele>
        <time>2014-07-08T10:05:46Z</time>
      </trkpt>
      <trkpt lat="59.7040125" lon="17.7199854">
        <ele>12.6344</ele>
        <time>2014-07-08T10:05:47Z</time>
      </trkpt>
      <trkpt lat="59.7039323" lon="17.7199669">
        <ele>12.6344</ele>
        <time>2014-07-08T10:05:48Z</time>
      </trkpt>
      <trkpt lat="59.703851" lon="17.7199512">
        <ele>12.1538</ele>
        <time>2014-07-08T10:05:49Z</time>
      </trkpt>
      <trkpt lat="59.7037693" lon="17.7199382">
        <ele>12.1538</ele>
        <time>2014-07-08T10:05:50Z</time>
      </trkpt>
      <trkpt lat="59.7036871" lon="17.7199264">
        <ele>11.6732</ele>
        <time>2014-07-08T10:05:51Z</time>
      </trkpt>
      <trkpt lat="59.7036046" lon="17.719916">
        <ele>11.6732</ele>
        <time>2014-07-08T10:05:52Z</time>
      </trkpt>
      <trkpt lat="59.703527" lon="17.7199137">
        <ele>11.6732</ele>
        <time>2014-07-08T10:05:53Z</time>
      </trkpt>
      <trkpt lat="59.703447" lon="17.7199112">
        <ele>11.1925</ele>
        <time>2014-07-08T10:05:54Z</time>
      </trkpt>
      <trkpt lat="59.7033645" lon="17.7199046">
        <ele>11.1925</ele>
        <time>2014-07-08T10:05:55Z</time>
      </trkpt>
      <trkpt lat="59.7032853" lon="17.7198977">
        <ele>11.1925</ele>
        <time>2014-07-08T10:05:56Z</time>
      </trkpt>
      <trkpt lat="59.7032064" lon="17.7198916">
        <ele>11.1925</ele>
        <time>2014-07-08T10:05:57Z</time>
      </trkpt>
      <trkpt lat="59.7031271" lon="17.7198865">
        <ele>10.7118</ele>
        <time>2014-07-08T10:05:58Z</time>
      </trkpt>
      <trkpt lat="59.7030471" lon="17.7198831">
        <ele>10.7118</ele>
        <time>2014-07-08T10:05:59Z</time>
      </trkpt>
      <trkpt lat="59.7029668" lon="17.7198795">
        <ele>10.7118</ele>
        <time>2014-07-08T10:06:00Z</time>
      </trkpt>
      <trkpt lat="59.7028868" lon="17.7198744">
        <ele>10.7118</ele>
        <time>2014-07-08T10:06:01Z</time>
      </trkpt>
      <trkpt lat="59.7028067" lon="17.7198687">
        <ele>10.7118</ele>
        <time>2014-07-08T10:06:02Z</time>
      </trkpt>
      <trkpt lat="59.7027263" lon="17.7198635">
        <ele>10.7118</ele>
        <time>2014-07-08T10:06:03Z</time>
      </trkpt>
      <trkpt lat="59.7026461" lon="17.7198585">
        <ele>10.7118</ele>
        <time>2014-07-08T10:06:04Z</time>
      </trkpt>
      <trkpt lat="59.7025662" lon="17.7198528">
        <ele>10.7118</ele>
        <time>2014-07-08T10:06:05Z</time>
      </trkpt>
      <trkpt lat="59.7024861" lon="17.7198481">
        <ele>10.7118</ele>
        <time>2014-07-08T10:06:06Z</time>
      </trkpt>
      <trkpt lat="59.7024054" lon="17.719844">
        <ele>10.7118</ele>
        <time>2014-07-08T10:06:07Z</time>
      </trkpt>
      <trkpt lat="59.7023244" lon="17.7198394">
        <ele>10.7118</ele>
        <time>2014-07-08T10:06:08Z</time>
      </trkpt>
      <trkpt lat="59.7022431" lon="17.7198341">
        <ele>10.7118</ele>
        <time>2014-07-08T10:06:09Z</time>
      </trkpt>
      <trkpt lat="59.7021616" lon="17.7198304">
        <ele>10.7118</ele>
        <time>2014-07-08T10:06:10Z</time>
      </trkpt>
      <trkpt lat="59.7020793" lon="17.7198274">
        <ele>10.7118</ele>
        <time>2014-07-08T10:06:11Z</time>
      </trkpt>
      <trkpt lat="59.7019956" lon="17.7198225">
        <ele>10.7118</ele>
        <time>2014-07-08T10:06:12Z</time>
      </trkpt>
      <trkpt lat="59.7019114" lon="17.7198176">
        <ele>10.7118</ele>
        <time>2014-07-08T10:06:13Z</time>
      </trkpt>
      <trkpt lat="59.7018265" lon="17.7198132">
        <ele>10.7118</ele>
        <time>2014-07-08T10:06:14Z</time>
      </trkpt>
      <trkpt lat="59.7017416" lon="17.7198056">
        <ele>10.2312</ele>
        <time>2014-07-08T10:06:15Z</time>
      </trkpt>
      <trkpt lat="59.7016568" lon="17.7197947">
        <ele>10.2312</ele>
        <time>2014-07-08T10:06:16Z</time>
      </trkpt>
      <trkpt lat="59.7015723" lon="17.7197809">
        <ele>10.2312</ele>
        <time>2014-07-08T10:06:17Z</time>
      </trkpt>
      <trkpt lat="59.7014879" lon="17.7197668">
        <ele>10.2312</ele>
        <time>2014-07-08T10:06:18Z</time>
      </trkpt>
      <trkpt lat="59.7014034" lon="17.7197536">
        <ele>10.2312</ele>
        <time>2014-07-08T10:06:19Z</time>
      </trkpt>
      <trkpt lat="59.7013188" lon="17.7197398">
        <ele>10.2312</ele>
        <time>2014-07-08T10:06:20Z</time>
      </trkpt>
      <trkpt lat="59.7012335" lon="17.7197254">
        <ele>10.2312</ele>
        <time>2014-07-08T10:06:21Z</time>
      </trkpt>
      <trkpt lat="59.7011478" lon="17.7197103">
        <ele>9.75061</ele>
        <time>2014-07-08T10:06:22Z</time>
      </trkpt>
      <trkpt lat="59.7010615" lon="17.7196932">
        <ele>9.75061</ele>
        <time>2014-07-08T10:06:23Z</time>
      </trkpt>
      <trkpt lat="59.7009748" lon="17.7196749">
        <ele>9.75061</ele>
        <time>2014-07-08T10:06:24Z</time>
      </trkpt>
      <trkpt lat="59.7008879" lon="17.7196559">
        <ele>9.75061</ele>
        <time>2014-07-08T10:06:25Z</time>
      </trkpt>
      <trkpt lat="59.700801" lon="17.7196364">
        <ele>9.75061</ele>
        <time>2014-07-08T10:06:26Z</time>
      </trkpt>
      <trkpt lat="59.7007148" lon="17.7196172">
        <ele>9.75061</ele>
        <time>2014-07-08T10:06:27Z</time>
      </trkpt>
      <trkpt lat="59.7006289" lon="17.719598">
        <ele>9.2699</ele>
        <time>2014-07-08T10:06:28Z</time>
      </trkpt>
      <trkpt lat="59.7005431" lon="17.7195776">
        <ele>9.2699</ele>
        <time>2014-07-08T10:06:29Z</time>
      </trkpt>
      <trkpt lat="59.7004578" lon="17.7195563">
        <ele>9.2699</ele>
        <time>2014-07-08T10:06:30Z</time>
      </trkpt>
      <trkpt lat="59.7003722" lon="17.7195358">
        <ele>9.2699</ele>
        <time>2014-07-08T10:06:31Z</time>
      </trkpt>
      <trkpt lat="59.7002864" lon="17.719516">
        <ele>9.2699</ele>
        <time>2014-07-08T10:06:32Z</time>
      </trkpt>
      <trkpt lat="59.7002009" lon="17.7194962">
        <ele>9.2699</ele>
        <time>2014-07-08T10:06:33Z</time>
      </trkpt>
      <trkpt lat="59.7001162" lon="17.7194775">
        <ele>9.2699</ele>
        <time>2014-07-08T10:06:34Z</time>
      </trkpt>
      <trkpt lat="59.7000321" lon="17.7194586">
        <ele>9.2699</ele>
        <time>2014-07-08T10:06:35Z</time>
      </trkpt>
      <trkpt lat="59.6999486" lon="17.7194385">
        <ele>9.2699</ele>
        <time>2014-07-08T10:06:36Z</time>
      </trkpt>
      <trkpt lat="59.6998654" lon="17.7194181">
        <ele>9.2699</ele>
        <time>2014-07-08T10:06:37Z</time>
      </trkpt>
      <trkpt lat="59.6997825" lon="17.7193975">
        <ele>8.78918</ele>
        <time>2014-07-08T10:06:38Z</time>
      </trkpt>
      <trkpt lat="59.6996997" lon="17.7193767">
        <ele>9.2699</ele>
        <time>2014-07-08T10:06:39Z</time>
      </trkpt>
      <trkpt lat="59.6996168" lon="17.7193565">
        <ele>9.2699</ele>
        <time>2014-07-08T10:06:40Z</time>
      </trkpt>
      <trkpt lat="59.699534" lon="17.7193379">
        <ele>9.2699</ele>
        <time>2014-07-08T10:06:41Z</time>
      </trkpt>
      <trkpt lat="59.699452" lon="17.7193192">
        <ele>9.2699</ele>
        <time>2014-07-08T10:06:42Z</time>
      </trkpt>
      <trkpt lat="59.6993702" lon="17.7192996">
        <ele>8.78918</ele>
        <time>2014-07-08T10:06:43Z</time>
      </trkpt>
      <trkpt lat="59.6992882" lon="17.71928">
        <ele>8.78918</ele>
        <time>2014-07-08T10:06:44Z</time>
      </trkpt>
      <trkpt lat="59.699205" lon="17.7192607">
        <ele>8.78918</ele>
        <time>2014-07-08T10:06:45Z</time>
      </trkpt>
      <trkpt lat="59.6991206" lon="17.7192406">
        <ele>8.78918</ele>
        <time>2014-07-08T10:06:46Z</time>
      </trkpt>
      <trkpt lat="59.6990346" lon="17.7192207">
        <ele>8.78918</ele>
        <time>2014-07-08T10:06:47Z</time>
      </trkpt>
      <trkpt lat="59.698947" lon="17.7192011">
        <ele>8.78918</ele>
        <time>2014-07-08T10:06:48Z</time>
      </trkpt>
      <trkpt lat="59.6988584" lon="17.719182">
        <ele>8.30859</ele>
        <time>2014-07-08T10:06:49Z</time>
      </trkpt>
      <trkpt lat="59.6987688" lon="17.7191628">
        <ele>8.30859</ele>
        <time>2014-07-08T10:06:50Z</time>
      </trkpt>
      <trkpt lat="59.6986787" lon="17.7191421">
        <ele>8.30859</ele>
        <time>2014-07-08T10:06:51Z</time>
      </trkpt>
      <trkpt lat="59.698588" lon="17.7191214">
        <ele>8.30859</ele>
        <time>2014-07-08T10:06:52Z</time>
      </trkpt>
      <trkpt lat="59.6984978" lon="17.7191017">
        <ele>8.30859</ele>
        <time>2014-07-08T10:06:53Z</time>
      </trkpt>
      <trkpt lat="59.6984083" lon="17.7190829">
        <ele>7.82788</ele>
        <time>2014-07-08T10:06:54Z</time>
      </trkpt>
      <trkpt lat="59.6983197" lon="17.7190635">
        <ele>7.82788</ele>
        <time>2014-07-08T10:06:55Z</time>
      </trkpt>
      <trkpt lat="59.6982317" lon="17.7190425">
        <ele>7.82788</ele>
        <time>2014-07-08T10:06:56Z</time>
      </trkpt>
      <trkpt lat="59.6981441" lon="17.7190209">
        <ele>7.82788</ele>
        <time>2014-07-08T10:06:57Z</time>
      </trkpt>
      <trkpt lat="59.6980561" lon="17.719">
        <ele>7.82788</ele>
        <time>2014-07-08T10:06:58Z</time>
      </trkpt>
      <trkpt lat="59.697968" lon="17.718979">
        <ele>7.82788</ele>
        <time>2014-07-08T10:06:59Z</time>
      </trkpt>
      <trkpt lat="59.6978802" lon="17.7189592">
        <ele>7.82788</ele>
        <time>2014-07-08T10:07:00Z</time>
      </trkpt>
      <trkpt lat="59.6977927" lon="17.7189385">
        <ele>7.82788</ele>
        <time>2014-07-08T10:07:01Z</time>
      </trkpt>
      <trkpt lat="59.6977059" lon="17.7189168">
        <ele>7.82788</ele>
        <time>2014-07-08T10:07:02Z</time>
      </trkpt>
      <trkpt lat="59.6976208" lon="17.7188979">
        <ele>8.30859</ele>
        <time>2014-07-08T10:07:03Z</time>
      </trkpt>
      <trkpt lat="59.6975373" lon="17.7188798">
        <ele>8.30859</ele>
        <time>2014-07-08T10:07:04Z</time>
      </trkpt>
      <trkpt lat="59.6974553" lon="17.7188621">
        <ele>8.30859</ele>
        <time>2014-07-08T10:07:05Z</time>
      </trkpt>
      <trkpt lat="59.6973746" lon="17.7188442">
        <ele>8.30859</ele>
        <time>2014-07-08T10:07:06Z</time>
      </trkpt>
      <trkpt lat="59.6972946" lon="17.718825">
        <ele>8.78918</ele>
        <time>2014-07-08T10:07:07Z</time>
      </trkpt>
      <trkpt lat="59.6972153" lon="17.7188044">
        <ele>8.78918</ele>
        <time>2014-07-08T10:07:08Z</time>
      </trkpt>
      <trkpt lat="59.6971367" lon="17.7187858">
        <ele>8.78918</ele>
        <time>2014-07-08T10:07:09Z</time>
      </trkpt>
      <trkpt lat="59.6970592" lon="17.7187694">
        <ele>8.78918</ele>
        <time>2014-07-08T10:07:10Z</time>
      </trkpt>
      <trkpt lat="59.6969827" lon="17.7187515">
        <ele>9.2699</ele>
        <time>2014-07-08T10:07:11Z</time>
      </trkpt>
      <trkpt lat="59.6969071" lon="17.7187314">
        <ele>9.2699</ele>
        <time>2014-07-08T10:07:12Z</time>
      </trkpt>
      <trkpt lat="59.6968328" lon="17.7187121">
        <ele>9.2699</ele>
        <time>2014-07-08T10:07:13Z</time>
      </trkpt>
      <trkpt lat="59.6967584" lon="17.7186935">
        <ele>9.2699</ele>
        <time>2014-07-08T10:07:14Z</time>
      </trkpt>
      <trkpt lat="59.6966843" lon="17.7186736">
        <ele>9.2699</ele>
        <time>2014-07-08T10:07:15Z</time>
      </trkpt>
      <trkpt lat="59.6966103" lon="17.718651">
        <ele>9.2699</ele>
        <time>2014-07-08T10:07:16Z</time>
      </trkpt>
      <trkpt lat="59.6965363" lon="17.7186251">
        <ele>9.2699</ele>
        <time>2014-07-08T10:07:17Z</time>
      </trkpt>
      <trkpt lat="59.6964621" lon="17.7185956">
        <ele>9.2699</ele>
        <time>2014-07-08T10:07:18Z</time>
      </trkpt>
      <trkpt lat="59.696387" lon="17.718565">
        <ele>9.2699</ele>
        <time>2014-07-08T10:07:19Z</time>
      </trkpt>
      <trkpt lat="59.6963109" lon="17.7185325">
        <ele>9.2699</ele>
        <time>2014-07-08T10:07:20Z</time>
      </trkpt>
      <trkpt lat="59.6962342" lon="17.7184962">
        <ele>8.78918</ele>
        <time>2014-07-08T10:07:21Z</time>
      </trkpt>
      <trkpt lat="59.6961571" lon="17.7184569">
        <ele>8.78918</ele>
        <time>2014-07-08T10:07:22Z</time>
      </trkpt>
      <trkpt lat="59.6960803" lon="17.7184144">
        <ele>8.78918</ele>
        <time>2014-07-08T10:07:23Z</time>
      </trkpt>
      <trkpt lat="59.6960042" lon="17.718369">
        <ele>8.78918</ele>
        <time>2014-07-08T10:07:24Z</time>
      </trkpt>
      <trkpt lat="59.6959291" lon="17.7183205">
        <ele>8.78918</ele>
        <time>2014-07-08T10:07:25Z</time>
      </trkpt>
      <trkpt lat="59.695856" lon="17.7182685">
        <ele>8.78918</ele>
        <time>2014-07-08T10:07:26Z</time>
      </trkpt>
      <trkpt lat="59.695784" lon="17.7182148">
        <ele>8.30859</ele>
        <time>2014-07-08T10:07:27Z</time>
      </trkpt>
      <trkpt lat="59.6957119" lon="17.7181615">
        <ele>8.30859</ele>
        <time>2014-07-08T10:07:28Z</time>
      </trkpt>
      <trkpt lat="59.6956395" lon="17.7181049">
        <ele>8.30859</ele>
        <time>2014-07-08T10:07:29Z</time>
      </trkpt>
      <trkpt lat="59.6955679" lon="17.718044">
        <ele>8.30859</ele>
        <time>2014-07-08T10:07:30Z</time>
      </trkpt>
      <trkpt lat="59.6954967" lon="17.7179812">
        <ele>8.30859</ele>
        <time>2014-07-08T10:07:31Z</time>
      </trkpt>
      <trkpt lat="59.6954271" lon="17.717916">
        <ele>8.30859</ele>
        <time>2014-07-08T10:07:32Z</time>
      </trkpt>
      <trkpt lat="59.6953589" lon="17.7178487">
        <ele>8.30859</ele>
        <time>2014-07-08T10:07:33Z</time>
      </trkpt>
      <trkpt lat="59.6952918" lon="17.717778">
        <ele>8.30859</ele>
        <time>2014-07-08T10:07:34Z</time>
      </trkpt>
      <trkpt lat="59.6952246" lon="17.7177051">
        <ele>8.30859</ele>
        <time>2014-07-08T10:07:35Z</time>
      </trkpt>
      <trkpt lat="59.6951578" lon="17.7176316">
        <ele>8.30859</ele>
        <time>2014-07-08T10:07:36Z</time>
      </trkpt>
      <trkpt lat="59.695092" lon="17.7175559">
        <ele>8.30859</ele>
        <time>2014-07-08T10:07:37Z</time>
      </trkpt>
      <trkpt lat="59.6950271" lon="17.7174788">
        <ele>8.30859</ele>
        <time>2014-07-08T10:07:38Z</time>
      </trkpt>
      <trkpt lat="59.6949634" lon="17.7174017">
        <ele>8.78918</ele>
        <time>2014-07-08T10:07:39Z</time>
      </trkpt>
      <trkpt lat="59.6949004" lon="17.7173245">
        <ele>8.78918</ele>
        <time>2014-07-08T10:07:40Z</time>
      </trkpt>
      <trkpt lat="59.6948382" lon="17.7172478">
        <ele>8.78918</ele>
        <time>2014-07-08T10:07:41Z</time>
      </trkpt>
      <trkpt lat="59.6947776" lon="17.717171">
        <ele>8.78918</ele>
        <time>2014-07-08T10:07:42Z</time>
      </trkpt>
      <trkpt lat="59.6947184" lon="17.7170933">
        <ele>8.78918</ele>
        <time>2014-07-08T10:07:43Z</time>
      </trkpt>
      <trkpt lat="59.6946593" lon="17.7170166">
        <ele>9.2699</ele>
        <time>2014-07-08T10:07:44Z</time>
      </trkpt>
      <trkpt lat="59.6946004" lon="17.7169416">
        <ele>9.2699</ele>
        <time>2014-07-08T10:07:45Z</time>
      </trkpt>
      <trkpt lat="59.6945423" lon="17.7168683">
        <ele>9.2699</ele>
        <time>2014-07-08T10:07:46Z</time>
      </trkpt>
      <trkpt lat="59.6944844" lon="17.7167953">
        <ele>9.2699</ele>
        <time>2014-07-08T10:07:47Z</time>
      </trkpt>
      <trkpt lat="59.6944269" lon="17.716721">
        <ele>9.2699</ele>
        <time>2014-07-08T10:07:48Z</time>
      </trkpt>
      <trkpt lat="59.6943688" lon="17.7166464">
        <ele>9.75061</ele>
        <time>2014-07-08T10:07:49Z</time>
      </trkpt>
      <trkpt lat="59.6943106" lon="17.7165712">
        <ele>9.75061</ele>
        <time>2014-07-08T10:07:50Z</time>
      </trkpt>
      <trkpt lat="59.6942524" lon="17.7164957">
        <ele>9.75061</ele>
        <time>2014-07-08T10:07:51Z</time>
      </trkpt>
      <trkpt lat="59.6941946" lon="17.7164224">
        <ele>9.75061</ele>
        <time>2014-07-08T10:07:52Z</time>
      </trkpt>
      <trkpt lat="59.6941371" lon="17.7163501">
        <ele>10.2312</ele>
        <time>2014-07-08T10:07:53Z</time>
      </trkpt>
      <trkpt lat="59.6940807" lon="17.716278">
        <ele>10.2312</ele>
        <time>2014-07-08T10:07:54Z</time>
      </trkpt>
      <trkpt lat="59.6940252" lon="17.716206">
        <ele>10.7118</ele>
        <time>2014-07-08T10:07:55Z</time>
      </trkpt>
      <trkpt lat="59.69397" lon="17.716134">
        <ele>11.1925</ele>
        <time>2014-07-08T10:07:56Z</time>
      </trkpt>
      <trkpt lat="59.6939145" lon="17.7160634">
        <ele>11.1925</ele>
        <time>2014-07-08T10:07:57Z</time>
      </trkpt>
      <trkpt lat="59.693859" lon="17.7159936">
        <ele>11.6732</ele>
        <time>2014-07-08T10:07:58Z</time>
      </trkpt>
      <trkpt lat="59.6938037" lon="17.7159226">
        <ele>11.6732</ele>
        <time>2014-07-08T10:07:59Z</time>
      </trkpt>
      <trkpt lat="59.6937486" lon="17.7158515">
        <ele>12.1538</ele>
        <time>2014-07-08T10:08:00Z</time>
      </trkpt>
      <trkpt lat="59.6936934" lon="17.7157807">
        <ele>12.6344</ele>
        <time>2014-07-08T10:08:01Z</time>
      </trkpt>
      <trkpt lat="59.6936374" lon="17.7157104">
        <ele>12.6344</ele>
        <time>2014-07-08T10:08:02Z</time>
      </trkpt>
      <trkpt lat="59.6935809" lon="17.7156391">
        <ele>13.1151</ele>
        <time>2014-07-08T10:08:03Z</time>
      </trkpt>
      <trkpt lat="59.6935245" lon="17.7155666">
        <ele>13.1151</ele>
        <time>2014-07-08T10:08:04Z</time>
      </trkpt>
      <trkpt lat="59.6934683" lon="17.7154958">
        <ele>13.5958</ele>
        <time>2014-07-08T10:08:05Z</time>
      </trkpt>
      <trkpt lat="59.6934121" lon="17.715426">
        <ele>14.0764</ele>
        <time>2014-07-08T10:08:06Z</time>
      </trkpt>
      <trkpt lat="59.6933566" lon="17.7153549">
        <ele>14.0764</ele>
        <time>2014-07-08T10:08:07Z</time>
      </trkpt>
      <trkpt lat="59.6933013" lon="17.7152834">
        <ele>14.557</ele>
        <time>2014-07-08T10:08:08Z</time>
      </trkpt>
      <trkpt lat="59.6932459" lon="17.7152118">
        <ele>14.557</ele>
        <time>2014-07-08T10:08:09Z</time>
      </trkpt>
      <trkpt lat="59.6931899" lon="17.7151405">
        <ele>15.0377</ele>
        <time>2014-07-08T10:08:10Z</time>
      </trkpt>
      <trkpt lat="59.6931334" lon="17.7150699">
        <ele>15.0377</ele>
        <time>2014-07-08T10:08:11Z</time>
      </trkpt>
      <trkpt lat="59.6930769" lon="17.7149999">
        <ele>15.5184</ele>
        <time>2014-07-08T10:08:12Z</time>
      </trkpt>
      <trkpt lat="59.69302" lon="17.7149303">
        <ele>15.999</ele>
        <time>2014-07-08T10:08:13Z</time>
      </trkpt>
      <trkpt lat="59.692963" lon="17.7148602">
        <ele>15.999</ele>
        <time>2014-07-08T10:08:14Z</time>
      </trkpt>
      <trkpt lat="59.6929058" lon="17.7147914">
        <ele>16.4797</ele>
        <time>2014-07-08T10:08:15Z</time>
      </trkpt>
      <trkpt lat="59.6928483" lon="17.7147241">
        <ele>16.4797</ele>
        <time>2014-07-08T10:08:16Z</time>
      </trkpt>
      <trkpt lat="59.6927904" lon="17.7146585">
        <ele>16.4797</ele>
        <time>2014-07-08T10:08:17Z</time>
      </trkpt>
      <trkpt lat="59.692732" lon="17.714594">
        <ele>16.9604</ele>
        <time>2014-07-08T10:08:18Z</time>
      </trkpt>
      <trkpt lat="59.6926743" lon="17.7145313">
        <ele>16.9604</ele>
        <time>2014-07-08T10:08:19Z</time>
      </trkpt>
      <trkpt lat="59.6926167" lon="17.7144715">
        <ele>16.9604</ele>
        <time>2014-07-08T10:08:20Z</time>
      </trkpt>
      <trkpt lat="59.692559" lon="17.7144132">
        <ele>17.4412</ele>
        <time>2014-07-08T10:08:21Z</time>
      </trkpt>
      <trkpt lat="59.6925013" lon="17.7143558">
        <ele>17.4412</ele>
        <time>2014-07-08T10:08:22Z</time>
      </trkpt>
      <trkpt lat="59.692443" lon="17.7142997">
        <ele>17.9218</ele>
        <time>2014-07-08T10:08:23Z</time>
      </trkpt>
      <trkpt lat="59.6923845" lon="17.7142443">
        <ele>17.9218</ele>
        <time>2014-07-08T10:08:24Z</time>
      </trkpt>
      <trkpt lat="59.6923261" lon="17.714191">
        <ele>17.9218</ele>
        <time>2014-07-08T10:08:25Z</time>
      </trkpt>
      <trkpt lat="59.6922673" lon="17.7141408">
        <ele>18.4023</ele>
        <time>2014-07-08T10:08:26Z</time>
      </trkpt>
      <trkpt lat="59.692208" lon="17.7140911">
        <ele>18.4023</ele>
        <time>2014-07-08T10:08:27Z</time>
      </trkpt>
      <trkpt lat="59.6921484" lon="17.7140407">
        <ele>18.4023</ele>
        <time>2014-07-08T10:08:28Z</time>
      </trkpt>
      <trkpt lat="59.6920886" lon="17.7139905">
        <ele>18.8831</ele>
        <time>2014-07-08T10:08:29Z</time>
      </trkpt>
      <trkpt lat="59.6920286" lon="17.7139414">
        <ele>18.8831</ele>
        <time>2014-07-08T10:08:30Z</time>
      </trkpt>
      <trkpt lat="59.6919678" lon="17.7138935">
        <ele>18.8831</ele>
        <time>2014-07-08T10:08:31Z</time>
      </trkpt>
      <trkpt lat="59.6919061" lon="17.7138459">
        <ele>18.8831</ele>
        <time>2014-07-08T10:08:32Z</time>
      </trkpt>
      <trkpt lat="59.691844" lon="17.7137994">
        <ele>19.3638</ele>
        <time>2014-07-08T10:08:33Z</time>
      </trkpt>
      <trkpt lat="59.6917819" lon="17.7137532">
        <ele>19.3638</ele>
        <time>2014-07-08T10:08:34Z</time>
      </trkpt>
      <trkpt lat="59.6917197" lon="17.7137044">
        <ele>19.3638</ele>
        <time>2014-07-08T10:08:35Z</time>
      </trkpt>
      <trkpt lat="59.691657" lon="17.7136542">
        <ele>19.3638</ele>
        <time>2014-07-08T10:08:36Z</time>
      </trkpt>
      <trkpt lat="59.6915928" lon="17.713605">
        <ele>19.3638</ele>
        <time>2014-07-08T10:08:37Z</time>
      </trkpt>
      <trkpt lat="59.6915274" lon="17.7135563">
        <ele>19.3638</ele>
        <time>2014-07-08T10:08:38Z</time>
      </trkpt>
      <trkpt lat="59.6914616" lon="17.7135055">
        <ele>19.3638</ele>
        <time>2014-07-08T10:08:39Z</time>
      </trkpt>
      <trkpt lat="59.6913955" lon="17.7134538">
        <ele>19.3638</ele>
        <time>2014-07-08T10:08:40Z</time>
      </trkpt>
      <trkpt lat="59.6913285" lon="17.7134018">
        <ele>19.3638</ele>
        <time>2014-07-08T10:08:41Z</time>
      </trkpt>
      <trkpt lat="59.6912604" lon="17.7133503">
        <ele>19.3638</ele>
        <time>2014-07-08T10:08:42Z</time>
      </trkpt>
      <trkpt lat="59.6911919" lon="17.7132994">
        <ele>19.3638</ele>
        <time>2014-07-08T10:08:43Z</time>
      </trkpt>
      <trkpt lat="59.6911233" lon="17.7132472">
        <ele>19.3638</ele>
        <time>2014-07-08T10:08:44Z</time>
      </trkpt>
      <trkpt lat="59.6910549" lon="17.7131947">
        <ele>19.3638</ele>
        <time>2014-07-08T10:08:45Z</time>
      </trkpt>
      <trkpt lat="59.6909868" lon="17.7131438">
        <ele>19.3638</ele>
        <time>2014-07-08T10:08:46Z</time>
      </trkpt>
      <trkpt lat="59.6909192" lon="17.7130943">
        <ele>19.3638</ele>
        <time>2014-07-08T10:08:47Z</time>
      </trkpt>
      <trkpt lat="59.6908522" lon="17.7130444">
        <ele>19.8444</ele>
        <time>2014-07-08T10:08:48Z</time>
      </trkpt>
      <trkpt lat="59.6907863" lon="17.7129947">
        <ele>19.8444</ele>
        <time>2014-07-08T10:08:49Z</time>
      </trkpt>
      <trkpt lat="59.6907215" lon="17.7129457">
        <ele>19.8444</ele>
        <time>2014-07-08T10:08:50Z</time>
      </trkpt>
      <trkpt lat="59.6906573" lon="17.7128975">
        <ele>20.325</ele>
        <time>2014-07-08T10:08:51Z</time>
      </trkpt>
      <trkpt lat="59.6905931" lon="17.7128499">
        <ele>20.325</ele>
        <time>2014-07-08T10:08:52Z</time>
      </trkpt>
      <trkpt lat="59.6905298" lon="17.7128032">
        <ele>20.325</ele>
        <time>2014-07-08T10:08:53Z</time>
      </trkpt>
      <trkpt lat="59.6904675" lon="17.7127569">
        <ele>20.325</ele>
        <time>2014-07-08T10:08:54Z</time>
      </trkpt>
      <trkpt lat="59.6904064" lon="17.7127101">
        <ele>20.8057</ele>
        <time>2014-07-08T10:08:55Z</time>
      </trkpt>
      <trkpt lat="59.6903458" lon="17.7126642">
        <ele>20.8057</ele>
        <time>2014-07-08T10:08:56Z</time>
      </trkpt>
      <trkpt lat="59.6902854" lon="17.7126183">
        <ele>20.8057</ele>
        <time>2014-07-08T10:08:57Z</time>
      </trkpt>
      <trkpt lat="59.6902248" lon="17.7125732">
        <ele>20.8057</ele>
        <time>2014-07-08T10:08:58Z</time>
      </trkpt>
      <trkpt lat="59.6901642" lon="17.7125281">
        <ele>21.2864</ele>
        <time>2014-07-08T10:08:59Z</time>
      </trkpt>
      <trkpt lat="59.6901037" lon="17.7124821">
        <ele>21.2864</ele>
        <time>2014-07-08T10:09:00Z</time>
      </trkpt>
      <trkpt lat="59.6900428" lon="17.7124358">
        <ele>21.2864</ele>
        <time>2014-07-08T10:09:01Z</time>
      </trkpt>
      <trkpt lat="59.6899813" lon="17.7123879">
        <ele>21.2864</ele>
        <time>2014-07-08T10:09:02Z</time>
      </trkpt>
      <trkpt lat="59.6899195" lon="17.7123397">
        <ele>21.2864</ele>
        <time>2014-07-08T10:09:03Z</time>
      </trkpt>
      <trkpt lat="59.6898566" lon="17.7122913">
        <ele>21.2864</ele>
        <time>2014-07-08T10:09:04Z</time>
      </trkpt>
      <trkpt lat="59.6897926" lon="17.7122435">
        <ele>21.2864</ele>
        <time>2014-07-08T10:09:05Z</time>
      </trkpt>
      <trkpt lat="59.689727" lon="17.712193">
        <ele>21.2864</ele>
        <time>2014-07-08T10:09:06Z</time>
      </trkpt>
      <trkpt lat="59.68966" lon="17.712141">
        <ele>21.2864</ele>
        <time>2014-07-08T10:09:07Z</time>
      </trkpt>
      <trkpt lat="59.6895922" lon="17.7120889">
        <ele>21.2864</ele>
        <time>2014-07-08T10:09:08Z</time>
      </trkpt>
      <trkpt lat="59.6895235" lon="17.7120365">
        <ele>21.2864</ele>
        <time>2014-07-08T10:09:09Z</time>
      </trkpt>
      <trkpt lat="59.6894545" lon="17.7119826">
        <ele>21.2864</ele>
        <time>2014-07-08T10:09:10Z</time>
      </trkpt>
      <trkpt lat="59.6893856" lon="17.7119273">
        <ele>21.2864</ele>
        <time>2014-07-08T10:09:11Z</time>
      </trkpt>
      <trkpt lat="59.6893172" lon="17.7118728">
        <ele>20.8057</ele>
        <time>2014-07-08T10:09:12Z</time>
      </trkpt>
      <trkpt lat="59.6892486" lon="17.7118195">
        <ele>20.8057</ele>
        <time>2014-07-08T10:09:13Z</time>
      </trkpt>
      <trkpt lat="59.6891799" lon="17.7117661">
        <ele>20.8057</ele>
        <time>2014-07-08T10:09:14Z</time>
      </trkpt>
      <trkpt lat="59.6891111" lon="17.7117141">
        <ele>20.8057</ele>
        <time>2014-07-08T10:09:15Z</time>
      </trkpt>
      <trkpt lat="59.6890421" lon="17.7116618">
        <ele>20.8057</ele>
        <time>2014-07-08T10:09:16Z</time>
      </trkpt>
      <trkpt lat="59.6889733" lon="17.7116064">
        <ele>20.8057</ele>
        <time>2014-07-08T10:09:17Z</time>
      </trkpt>
      <trkpt lat="59.6889044" lon="17.7115505">
        <ele>20.8057</ele>
        <time>2014-07-08T10:09:18Z</time>
      </trkpt>
      <trkpt lat="59.6888347" lon="17.7114937">
        <ele>20.8057</ele>
        <time>2014-07-08T10:09:19Z</time>
      </trkpt>
      <trkpt lat="59.6887644" lon="17.7114372">
        <ele>20.8057</ele>
        <time>2014-07-08T10:09:20Z</time>
      </trkpt>
      <trkpt lat="59.6886933" lon="17.7113801">
        <ele>20.325</ele>
        <time>2014-07-08T10:09:21Z</time>
      </trkpt>
      <trkpt lat="59.6886224" lon="17.7113211">
        <ele>20.325</ele>
        <time>2014-07-08T10:09:22Z</time>
      </trkpt>
      <trkpt lat="59.6885527" lon="17.7112606">
        <ele>20.8057</ele>
        <time>2014-07-08T10:09:23Z</time>
      </trkpt>
      <trkpt lat="59.6884858" lon="17.7112062">
        <ele>20.325</ele>
        <time>2014-07-08T10:09:24Z</time>
      </trkpt>
      <trkpt lat="59.6884184" lon="17.7111578">
        <ele>20.325</ele>
        <time>2014-07-08T10:09:25Z</time>
      </trkpt>
      <trkpt lat="59.6883476" lon="17.7111">
        <ele>20.325</ele>
        <time>2014-07-08T10:09:26Z</time>
      </trkpt>
      <trkpt lat="59.6882796" lon="17.7110338">
        <ele>20.325</ele>
        <time>2014-07-08T10:09:27Z</time>
      </trkpt>
      <trkpt lat="59.6882149" lon="17.7109705">
        <ele>20.8057</ele>
        <time>2014-07-08T10:09:28Z</time>
      </trkpt>
      <trkpt lat="59.6881516" lon="17.7109083">
        <ele>20.8057</ele>
        <time>2014-07-08T10:09:29Z</time>
      </trkpt>
      <trkpt lat="59.6880885" lon="17.7108477">
        <ele>20.325</ele>
        <time>2014-07-08T10:09:30Z</time>
      </trkpt>
      <trkpt lat="59.6880254" lon="17.710787">
        <ele>19.8444</ele>
        <time>2014-07-08T10:09:31Z</time>
      </trkpt>
      <trkpt lat="59.6879624" lon="17.7107237">
        <ele>19.8444</ele>
        <time>2014-07-08T10:09:32Z</time>
      </trkpt>
      <trkpt lat="59.687899" lon="17.7106566">
        <ele>19.8444</ele>
        <time>2014-07-08T10:09:33Z</time>
      </trkpt>
      <trkpt lat="59.6878347" lon="17.710589">
        <ele>19.8444</ele>
        <time>2014-07-08T10:09:34Z</time>
      </trkpt>
      <trkpt lat="59.68777" lon="17.7105161">
        <ele>19.3638</ele>
        <time>2014-07-08T10:09:35Z</time>
      </trkpt>
      <trkpt lat="59.6877057" lon="17.7104372">
        <ele>18.8831</ele>
        <time>2014-07-08T10:09:36Z</time>
      </trkpt>
      <trkpt lat="59.6876404" lon="17.7103575">
        <ele>18.8831</ele>
        <time>2014-07-08T10:09:37Z</time>
      </trkpt>
      <trkpt lat="59.6875734" lon="17.7102787">
        <ele>18.4023</ele>
        <time>2014-07-08T10:09:38Z</time>
      </trkpt>
      <trkpt lat="59.6875046" lon="17.7102012">
        <ele>18.4023</ele>
        <time>2014-07-08T10:09:39Z</time>
      </trkpt>
      <trkpt lat="59.6874348" lon="17.7101249">
        <ele>17.9218</ele>
        <time>2014-07-08T10:09:40Z</time>
      </trkpt>
      <trkpt lat="59.6873642" lon="17.7100474">
        <ele>17.9218</ele>
        <time>2014-07-08T10:09:41Z</time>
      </trkpt>
      <trkpt lat="59.6872922" lon="17.7099669">
        <ele>17.4412</ele>
        <time>2014-07-08T10:09:42Z</time>
      </trkpt>
      <trkpt lat="59.6872171" lon="17.7098856">
        <ele>16.9604</ele>
        <time>2014-07-08T10:09:43Z</time>
      </trkpt>
      <trkpt lat="59.6871403" lon="17.7098044">
        <ele>16.9604</ele>
        <time>2014-07-08T10:09:44Z</time>
      </trkpt>
      <trkpt lat="59.6870639" lon="17.7097221">
        <ele>16.9604</ele>
        <time>2014-07-08T10:09:45Z</time>
      </trkpt>
      <trkpt lat="59.6869885" lon="17.7096381">
        <ele>16.9604</ele>
        <time>2014-07-08T10:09:46Z</time>
      </trkpt>
      <trkpt lat="59.6869127" lon="17.7095553">
        <ele>16.9604</ele>
        <time>2014-07-08T10:09:47Z</time>
      </trkpt>
      <trkpt lat="59.6868364" lon="17.7094744">
        <ele>16.4797</ele>
        <time>2014-07-08T10:09:48Z</time>
      </trkpt>
      <trkpt lat="59.6867598" lon="17.7093936">
        <ele>16.4797</ele>
        <time>2014-07-08T10:09:49Z</time>
      </trkpt>
      <trkpt lat="59.6866834" lon="17.7093118">
        <ele>15.999</ele>
        <time>2014-07-08T10:09:50Z</time>
      </trkpt>
      <trkpt lat="59.6866066" lon="17.7092305">
        <ele>15.999</ele>
        <time>2014-07-08T10:09:51Z</time>
      </trkpt>
      <trkpt lat="59.6865299" lon="17.7091486">
        <ele>15.999</ele>
        <time>2014-07-08T10:09:52Z</time>
      </trkpt>
      <trkpt lat="59.686454" lon="17.7090647">
        <ele>15.5184</ele>
        <time>2014-07-08T10:09:53Z</time>
      </trkpt>
      <trkpt lat="59.6863783" lon="17.7089813">
        <ele>15.5184</ele>
        <time>2014-07-08T10:09:54Z</time>
      </trkpt>
      <trkpt lat="59.6863027" lon="17.7088996">
        <ele>15.5184</ele>
        <time>2014-07-08T10:09:55Z</time>
      </trkpt>
      <trkpt lat="59.6862274" lon="17.7088171">
        <ele>15.5184</ele>
        <time>2014-07-08T10:09:56Z</time>
      </trkpt>
      <trkpt lat="59.6861541" lon="17.7087312">
        <ele>15.5184</ele>
        <time>2014-07-08T10:09:57Z</time>
      </trkpt>
      <trkpt lat="59.6860823" lon="17.7086416">
        <ele>15.5184</ele>
        <time>2014-07-08T10:09:58Z</time>
      </trkpt>
      <trkpt lat="59.6860111" lon="17.7085514">
        <ele>15.5184</ele>
        <time>2014-07-08T10:09:59Z</time>
      </trkpt>
      <trkpt lat="59.6859397" lon="17.7084601">
        <ele>15.5184</ele>
        <time>2014-07-08T10:10:00Z</time>
      </trkpt>
      <trkpt lat="59.6858688" lon="17.708365">
        <ele>15.5184</ele>
        <time>2014-07-08T10:10:01Z</time>
      </trkpt>
      <trkpt lat="59.6857989" lon="17.7082659">
        <ele>15.5184</ele>
        <time>2014-07-08T10:10:02Z</time>
      </trkpt>
      <trkpt lat="59.6857296" lon="17.7081643">
        <ele>15.5184</ele>
        <time>2014-07-08T10:10:03Z</time>
      </trkpt>
      <trkpt lat="59.6856609" lon="17.7080604">
        <ele>15.5184</ele>
        <time>2014-07-08T10:10:04Z</time>
      </trkpt>
      <trkpt lat="59.6855923" lon="17.7079532">
        <ele>15.5184</ele>
        <time>2014-07-08T10:10:05Z</time>
      </trkpt>
      <trkpt lat="59.6855244" lon="17.7078421">
        <ele>15.0377</ele>
        <time>2014-07-08T10:10:06Z</time>
      </trkpt>
      <trkpt lat="59.6854571" lon="17.7077282">
        <ele>15.0377</ele>
        <time>2014-07-08T10:10:07Z</time>
      </trkpt>
      <trkpt lat="59.6853907" lon="17.7076128">
        <ele>15.0377</ele>
        <time>2014-07-08T10:10:08Z</time>
      </trkpt>
      <trkpt lat="59.685326" lon="17.7074945">
        <ele>15.0377</ele>
        <time>2014-07-08T10:10:09Z</time>
      </trkpt>
      <trkpt lat="59.6852648" lon="17.7073727">
        <ele>15.5184</ele>
        <time>2014-07-08T10:10:10Z</time>
      </trkpt>
      <trkpt lat="59.6852051" lon="17.7072506">
        <ele>15.0377</ele>
        <time>2014-07-08T10:10:11Z</time>
      </trkpt>
      <trkpt lat="59.6851476" lon="17.7071292">
        <ele>15.0377</ele>
        <time>2014-07-08T10:10:12Z</time>
      </trkpt>
      <trkpt lat="59.6850921" lon="17.707007">
        <ele>15.0377</ele>
        <time>2014-07-08T10:10:13Z</time>
      </trkpt>
      <trkpt lat="59.6850375" lon="17.7068822">
        <ele>15.0377</ele>
        <time>2014-07-08T10:10:14Z</time>
      </trkpt>
      <trkpt lat="59.6849835" lon="17.7067542">
        <ele>15.0377</ele>
        <time>2014-07-08T10:10:15Z</time>
      </trkpt>
      <trkpt lat="59.6849297" lon="17.706625">
        <ele>15.0377</ele>
        <time>2014-07-08T10:10:16Z</time>
      </trkpt>
      <trkpt lat="59.6848763" lon="17.7064963">
        <ele>15.0377</ele>
        <time>2014-07-08T10:10:17Z</time>
      </trkpt>
      <trkpt lat="59.6848235" lon="17.7063664">
        <ele>15.0377</ele>
        <time>2014-07-08T10:10:18Z</time>
      </trkpt>
      <trkpt lat="59.6847717" lon="17.7062341">
        <ele>15.0377</ele>
        <time>2014-07-08T10:10:19Z</time>
      </trkpt>
      <trkpt lat="59.6847199" lon="17.7061011">
        <ele>15.0377</ele>
        <time>2014-07-08T10:10:20Z</time>
      </trkpt>
      <trkpt lat="59.6846671" lon="17.7059694">
        <ele>15.0377</ele>
        <time>2014-07-08T10:10:21Z</time>
      </trkpt>
      <trkpt lat="59.6846142" lon="17.7058384">
        <ele>15.0377</ele>
        <time>2014-07-08T10:10:22Z</time>
      </trkpt>
      <trkpt lat="59.6845623" lon="17.7057074">
        <ele>15.0377</ele>
        <time>2014-07-08T10:10:23Z</time>
      </trkpt>
      <trkpt lat="59.684511" lon="17.705577">
        <ele>15.0377</ele>
        <time>2014-07-08T10:10:24Z</time>
      </trkpt>
      <trkpt lat="59.6844597" lon="17.7054464">
        <ele>15.0377</ele>
        <time>2014-07-08T10:10:25Z</time>
      </trkpt>
      <trkpt lat="59.6844085" lon="17.7053159">
        <ele>15.0377</ele>
        <time>2014-07-08T10:10:26Z</time>
      </trkpt>
      <trkpt lat="59.6843573" lon="17.7051868">
        <ele>15.0377</ele>
        <time>2014-07-08T10:10:27Z</time>
      </trkpt>
      <trkpt lat="59.6843064" lon="17.7050588">
        <ele>15.5184</ele>
        <time>2014-07-08T10:10:28Z</time>
      </trkpt>
      <trkpt lat="59.6842562" lon="17.7049305">
        <ele>15.5184</ele>
        <time>2014-07-08T10:10:29Z</time>
      </trkpt>
      <trkpt lat="59.6842065" lon="17.7048025">
        <ele>15.999</ele>
        <time>2014-07-08T10:10:30Z</time>
      </trkpt>
      <trkpt lat="59.6841559" lon="17.7046783">
        <ele>15.999</ele>
        <time>2014-07-08T10:10:31Z</time>
      </trkpt>
      <trkpt lat="59.684106" lon="17.7045565">
        <ele>15.999</ele>
        <time>2014-07-08T10:10:32Z</time>
      </trkpt>
      <trkpt lat="59.6840624" lon="17.704444">
        <ele>16.9604</ele>
        <time>2014-07-08T10:10:33Z</time>
      </trkpt>
      <trkpt lat="59.6840181" lon="17.7043311">
        <ele>17.4412</ele>
        <time>2014-07-08T10:10:34Z</time>
      </trkpt>
      <trkpt lat="59.6839693" lon="17.7042102">
        <ele>17.9218</ele>
        <time>2014-07-08T10:10:35Z</time>
      </trkpt>
      <trkpt lat="59.6839204" lon="17.7040891">
        <ele>17.9218</ele>
        <time>2014-07-08T10:10:36Z</time>
      </trkpt>
      <trkpt lat="59.6838722" lon="17.703968">
        <ele>18.4023</ele>
        <time>2014-07-08T10:10:37Z</time>
      </trkpt>
      <trkpt lat="59.6838245" lon="17.7038469">
        <ele>18.8831</ele>
        <time>2014-07-08T10:10:38Z</time>
      </trkpt>
      <trkpt lat="59.6837766" lon="17.7037266">
        <ele>19.3638</ele>
        <time>2014-07-08T10:10:39Z</time>
      </trkpt>
      <trkpt lat="59.6837284" lon="17.7036066">
        <ele>19.3638</ele>
        <time>2014-07-08T10:10:40Z</time>
      </trkpt>
      <trkpt lat="59.6836802" lon="17.7034866">
        <ele>19.8444</ele>
        <time>2014-07-08T10:10:41Z</time>
      </trkpt>
      <trkpt lat="59.6836325" lon="17.7033666">
        <ele>20.325</ele>
        <time>2014-07-08T10:10:42Z</time>
      </trkpt>
      <trkpt lat="59.6835853" lon="17.7032478">
        <ele>20.8057</ele>
        <time>2014-07-08T10:10:43Z</time>
      </trkpt>
      <trkpt lat="59.6835389" lon="17.70313">
        <ele>21.2864</ele>
        <time>2014-07-08T10:10:44Z</time>
      </trkpt>
      <trkpt lat="59.6834927" lon="17.7030139">
        <ele>21.767</ele>
        <time>2014-07-08T10:10:45Z</time>
      </trkpt>
      <trkpt lat="59.6834466" lon="17.7029009">
        <ele>22.2476</ele>
        <time>2014-07-08T10:10:46Z</time>
      </trkpt>
      <trkpt lat="59.6834005" lon="17.7027911">
        <ele>22.7283</ele>
        <time>2014-07-08T10:10:47Z</time>
      </trkpt>
      <trkpt lat="59.6833548" lon="17.7026829">
        <ele>23.209</ele>
        <time>2014-07-08T10:10:48Z</time>
      </trkpt>
      <trkpt lat="59.6833096" lon="17.7025757">
        <ele>23.209</ele>
        <time>2014-07-08T10:10:49Z</time>
      </trkpt>
      <trkpt lat="59.6832647" lon="17.7024699">
        <ele>23.6896</ele>
        <time>2014-07-08T10:10:50Z</time>
      </trkpt>
      <trkpt lat="59.6832196" lon="17.7023656">
        <ele>24.1703</ele>
        <time>2014-07-08T10:10:51Z</time>
      </trkpt>
      <trkpt lat="59.6831739" lon="17.7022613">
        <ele>24.651</ele>
        <time>2014-07-08T10:10:52Z</time>
      </trkpt>
      <trkpt lat="59.6831271" lon="17.7021576">
        <ele>25.1317</ele>
        <time>2014-07-08T10:10:53Z</time>
      </trkpt>
      <trkpt lat="59.6830799" lon="17.702054">
        <ele>25.6123</ele>
        <time>2014-07-08T10:10:54Z</time>
      </trkpt>
      <trkpt lat="59.6830317" lon="17.7019513">
        <ele>26.0929</ele>
        <time>2014-07-08T10:10:55Z</time>
      </trkpt>
      <trkpt lat="59.6829819" lon="17.7018498">
        <ele>26.5736</ele>
        <time>2014-07-08T10:10:56Z</time>
      </trkpt>
      <trkpt lat="59.6829317" lon="17.7017499">
        <ele>26.5736</ele>
        <time>2014-07-08T10:10:57Z</time>
      </trkpt>
      <trkpt lat="59.6828819" lon="17.7016524">
        <ele>27.0543</ele>
        <time>2014-07-08T10:10:58Z</time>
      </trkpt>
      <trkpt lat="59.682831" lon="17.7015571">
        <ele>27.0543</ele>
        <time>2014-07-08T10:10:59Z</time>
      </trkpt>
      <trkpt lat="59.6827789" lon="17.7014632">
        <ele>27.5349</ele>
        <time>2014-07-08T10:11:00Z</time>
      </trkpt>
      <trkpt lat="59.6827262" lon="17.7013684">
        <ele>27.5349</ele>
        <time>2014-07-08T10:11:01Z</time>
      </trkpt>
      <trkpt lat="59.682672" lon="17.701274">
        <ele>27.5349</ele>
        <time>2014-07-08T10:11:02Z</time>
      </trkpt>
      <trkpt lat="59.6826155" lon="17.7011801">
        <ele>27.5349</ele>
        <time>2014-07-08T10:11:03Z</time>
      </trkpt>
      <trkpt lat="59.682556" lon="17.7010848">
        <ele>27.5349</ele>
        <time>2014-07-08T10:11:04Z</time>
      </trkpt>
      <trkpt lat="59.6824959" lon="17.7009887">
        <ele>27.0543</ele>
        <time>2014-07-08T10:11:05Z</time>
      </trkpt>
      <trkpt lat="59.6824349" lon="17.7008931">
        <ele>27.5349</ele>
        <time>2014-07-08T10:11:06Z</time>
      </trkpt>
      <trkpt lat="59.6823734" lon="17.7007988">
        <ele>27.0543</ele>
        <time>2014-07-08T10:11:07Z</time>
      </trkpt>
      <trkpt lat="59.6823117" lon="17.7007036">
        <ele>27.0543</ele>
        <time>2014-07-08T10:11:08Z</time>
      </trkpt>
      <trkpt lat="59.6822493" lon="17.7006075">
        <ele>27.0543</ele>
        <time>2014-07-08T10:11:09Z</time>
      </trkpt>
      <trkpt lat="59.6821866" lon="17.7005107">
        <ele>27.0543</ele>
        <time>2014-07-08T10:11:10Z</time>
      </trkpt>
      <trkpt lat="59.6821245" lon="17.700412">
        <ele>27.0543</ele>
        <time>2014-07-08T10:11:11Z</time>
      </trkpt>
      <trkpt lat="59.6820615" lon="17.7003144">
        <ele>26.5736</ele>
        <time>2014-07-08T10:11:12Z</time>
      </trkpt>
      <trkpt lat="59.6819978" lon="17.7002172">
        <ele>26.5736</ele>
        <time>2014-07-08T10:11:13Z</time>
      </trkpt>
      <trkpt lat="59.681934" lon="17.7001201">
        <ele>26.5736</ele>
        <time>2014-07-08T10:11:14Z</time>
      </trkpt>
      <trkpt lat="59.6818707" lon="17.7000228">
        <ele>26.5736</ele>
        <time>2014-07-08T10:11:15Z</time>
      </trkpt>
      <trkpt lat="59.6818081" lon="17.699925">
        <ele>26.5736</ele>
        <time>2014-07-08T10:11:16Z</time>
      </trkpt>
      <trkpt lat="59.6817458" lon="17.699828">
        <ele>26.5736</ele>
        <time>2014-07-08T10:11:17Z</time>
      </trkpt>
      <trkpt lat="59.6816848" lon="17.6997322">
        <ele>26.5736</ele>
        <time>2014-07-08T10:11:18Z</time>
      </trkpt>
      <trkpt lat="59.6816249" lon="17.69964">
        <ele>26.5736</ele>
        <time>2014-07-08T10:11:19Z</time>
      </trkpt>
      <trkpt lat="59.6815663" lon="17.6995526">
        <ele>27.0543</ele>
        <time>2014-07-08T10:11:20Z</time>
      </trkpt>
      <trkpt lat="59.6815097" lon="17.6994682">
        <ele>27.0543</ele>
        <time>2014-07-08T10:11:21Z</time>
      </trkpt>
      <trkpt lat="59.6814557" lon="17.6993848">
        <ele>27.5349</ele>
        <time>2014-07-08T10:11:22Z</time>
      </trkpt>
      <trkpt lat="59.6814032" lon="17.6993039">
        <ele>28.0155</ele>
        <time>2014-07-08T10:11:23Z</time>
      </trkpt>
      <trkpt lat="59.6813518" lon="17.6992275">
        <ele>28.0155</ele>
        <time>2014-07-08T10:11:24Z</time>
      </trkpt>
      <trkpt lat="59.6813016" lon="17.6991548">
        <ele>28.0155</ele>
        <time>2014-07-08T10:11:25Z</time>
      </trkpt>
      <trkpt lat="59.6812522" lon="17.6990841">
        <ele>28.0155</ele>
        <time>2014-07-08T10:11:26Z</time>
      </trkpt>
      <trkpt lat="59.6812029" lon="17.6990162">
        <ele>28.4962</ele>
        <time>2014-07-08T10:11:27Z</time>
      </trkpt>
      <trkpt lat="59.6811534" lon="17.6989516">
        <ele>28.4962</ele>
        <time>2014-07-08T10:11:28Z</time>
      </trkpt>
      <trkpt lat="59.6811038" lon="17.698889">
        <ele>28.4962</ele>
        <time>2014-07-08T10:11:29Z</time>
      </trkpt>
      <trkpt lat="59.6810538" lon="17.6988288">
        <ele>28.9769</ele>
        <time>2014-07-08T10:11:30Z</time>
      </trkpt>
      <trkpt lat="59.6810024" lon="17.6987696">
        <ele>28.9769</ele>
        <time>2014-07-08T10:11:31Z</time>
      </trkpt>
      <trkpt lat="59.6809502" lon="17.6987107">
        <ele>28.9769</ele>
        <time>2014-07-08T10:11:32Z</time>
      </trkpt>
      <trkpt lat="59.6808971" lon="17.6986526">
        <ele>29.4575</ele>
        <time>2014-07-08T10:11:33Z</time>
      </trkpt>
      <trkpt lat="59.6808429" lon="17.6985961">
        <ele>29.4575</ele>
        <time>2014-07-08T10:11:34Z</time>
      </trkpt>
      <trkpt lat="59.6807871" lon="17.6985414">
        <ele>29.4575</ele>
        <time>2014-07-08T10:11:35Z</time>
      </trkpt>
      <trkpt lat="59.6807297" lon="17.6984889">
        <ele>29.4575</ele>
        <time>2014-07-08T10:11:36Z</time>
      </trkpt>
      <trkpt lat="59.6806716" lon="17.6984357">
        <ele>28.9769</ele>
        <time>2014-07-08T10:11:37Z</time>
      </trkpt>
      <trkpt lat="59.6806121" lon="17.6983849">
        <ele>28.9769</ele>
        <time>2014-07-08T10:11:38Z</time>
      </trkpt>
      <trkpt lat="59.6805513" lon="17.6983355">
        <ele>28.9769</ele>
        <time>2014-07-08T10:11:39Z</time>
      </trkpt>
      <trkpt lat="59.6804896" lon="17.698286">
        <ele>28.4962</ele>
        <time>2014-07-08T10:11:40Z</time>
      </trkpt>
      <trkpt lat="59.6804265" lon="17.6982383">
        <ele>28.4962</ele>
        <time>2014-07-08T10:11:41Z</time>
      </trkpt>
      <trkpt lat="59.6803623" lon="17.6981932">
        <ele>28.0155</ele>
        <time>2014-07-08T10:11:42Z</time>
      </trkpt>
      <trkpt lat="59.6802974" lon="17.6981503">
        <ele>28.0155</ele>
        <time>2014-07-08T10:11:43Z</time>
      </trkpt>
      <trkpt lat="59.6802318" lon="17.6981098">
        <ele>27.5349</ele>
        <time>2014-07-08T10:11:44Z</time>
      </trkpt>
      <trkpt lat="59.6801659" lon="17.6980699">
        <ele>27.5349</ele>
        <time>2014-07-08T10:11:45Z</time>
      </trkpt>
      <trkpt lat="59.6800987" lon="17.6980332">
        <ele>27.5349</ele>
        <time>2014-07-08T10:11:46Z</time>
      </trkpt>
      <trkpt lat="59.6800306" lon="17.6980001">
        <ele>27.5349</ele>
        <time>2014-07-08T10:11:47Z</time>
      </trkpt>
      <trkpt lat="59.6799615" lon="17.6979688">
        <ele>27.5349</ele>
        <time>2014-07-08T10:11:48Z</time>
      </trkpt>
      <trkpt lat="59.6798915" lon="17.69794">
        <ele>27.0543</ele>
        <time>2014-07-08T10:11:49Z</time>
      </trkpt>
      <trkpt lat="59.6798205" lon="17.6979141">
        <ele>27.0543</ele>
        <time>2014-07-08T10:11:50Z</time>
      </trkpt>
      <trkpt lat="59.679748" lon="17.6978932">
        <ele>27.0543</ele>
        <time>2014-07-08T10:11:51Z</time>
      </trkpt>
      <trkpt lat="59.6796754" lon="17.6978751">
        <ele>27.0543</ele>
        <time>2014-07-08T10:11:52Z</time>
      </trkpt>
      <trkpt lat="59.6796031" lon="17.6978571">
        <ele>26.5736</ele>
        <time>2014-07-08T10:11:53Z</time>
      </trkpt>
      <trkpt lat="59.6795306" lon="17.6978404">
        <ele>26.0929</ele>
        <time>2014-07-08T10:11:54Z</time>
      </trkpt>
      <trkpt lat="59.6794578" lon="17.6978255">
        <ele>26.0929</ele>
        <time>2014-07-08T10:11:55Z</time>
      </trkpt>
      <trkpt lat="59.6793844" lon="17.697814">
        <ele>26.0929</ele>
        <time>2014-07-08T10:11:56Z</time>
      </trkpt>
      <trkpt lat="59.6793113" lon="17.697803">
        <ele>25.6123</ele>
        <time>2014-07-08T10:11:57Z</time>
      </trkpt>
      <trkpt lat="59.6792381" lon="17.6977919">
        <ele>25.1317</ele>
        <time>2014-07-08T10:11:58Z</time>
      </trkpt>
      <trkpt lat="59.6791657" lon="17.6977888">
        <ele>24.651</ele>
        <time>2014-07-08T10:11:59Z</time>
      </trkpt>
      <trkpt lat="59.6790913" lon="17.6977845">
        <ele>24.1703</ele>
        <time>2014-07-08T10:12:00Z</time>
      </trkpt>
      <trkpt lat="59.6790145" lon="17.6977746">
        <ele>24.1703</ele>
        <time>2014-07-08T10:12:01Z</time>
      </trkpt>
      <trkpt lat="59.6789384" lon="17.6977655">
        <ele>23.6896</ele>
        <time>2014-07-08T10:12:02Z</time>
      </trkpt>
      <trkpt lat="59.6788612" lon="17.697758">
        <ele>23.6896</ele>
        <time>2014-07-08T10:12:03Z</time>
      </trkpt>
      <trkpt lat="59.678783" lon="17.6977509">
        <ele>23.6896</ele>
        <time>2014-07-08T10:12:04Z</time>
      </trkpt>
      <trkpt lat="59.6787032" lon="17.6977429">
        <ele>23.209</ele>
        <time>2014-07-08T10:12:05Z</time>
      </trkpt>
      <trkpt lat="59.6786212" lon="17.6977328">
        <ele>23.209</ele>
        <time>2014-07-08T10:12:06Z</time>
      </trkpt>
      <trkpt lat="59.6785368" lon="17.6977229">
        <ele>22.7283</ele>
        <time>2014-07-08T10:12:07Z</time>
      </trkpt>
      <trkpt lat="59.6784497" lon="17.6977151">
        <ele>22.2476</ele>
        <time>2014-07-08T10:12:08Z</time>
      </trkpt>
      <trkpt lat="59.6783601" lon="17.6977056">
        <ele>21.767</ele>
        <time>2014-07-08T10:12:09Z</time>
      </trkpt>
      <trkpt lat="59.6782681" lon="17.6976949">
        <ele>21.767</ele>
        <time>2014-07-08T10:12:10Z</time>
      </trkpt>
      <trkpt lat="59.6781747" lon="17.6976844">
        <ele>21.2864</ele>
        <time>2014-07-08T10:12:11Z</time>
      </trkpt>
      <trkpt lat="59.6780798" lon="17.6976737">
        <ele>20.8057</ele>
        <time>2014-07-08T10:12:12Z</time>
      </trkpt>
      <trkpt lat="59.6779833" lon="17.697661">
        <ele>20.325</ele>
        <time>2014-07-08T10:12:13Z</time>
      </trkpt>
      <trkpt lat="59.6778854" lon="17.6976477">
        <ele>19.8444</ele>
        <time>2014-07-08T10:12:14Z</time>
      </trkpt>
      <trkpt lat="59.6777861" lon="17.6976359">
        <ele>19.3638</ele>
        <time>2014-07-08T10:12:15Z</time>
      </trkpt>
      <trkpt lat="59.6776851" lon="17.6976241">
        <ele>18.8831</ele>
        <time>2014-07-08T10:12:16Z</time>
      </trkpt>
      <trkpt lat="59.6775821" lon="17.6976111">
        <ele>18.4023</ele>
        <time>2014-07-08T10:12:17Z</time>
      </trkpt>
      <trkpt lat="59.6774776" lon="17.6975991">
        <ele>17.9218</ele>
        <time>2014-07-08T10:12:18Z</time>
      </trkpt>
      <trkpt lat="59.6773729" lon="17.6975872">
        <ele>17.9218</ele>
        <time>2014-07-08T10:12:19Z</time>
      </trkpt>
      <trkpt lat="59.6772682" lon="17.6975745">
        <ele>17.4412</ele>
        <time>2014-07-08T10:12:20Z</time>
      </trkpt>
      <trkpt lat="59.6771638" lon="17.6975618">
        <ele>16.9604</ele>
        <time>2014-07-08T10:12:21Z</time>
      </trkpt>
      <trkpt lat="59.6770604" lon="17.6975504">
        <ele>16.9604</ele>
        <time>2014-07-08T10:12:22Z</time>
      </trkpt>
      <trkpt lat="59.6769573" lon="17.697538">
        <ele>16.4797</ele>
        <time>2014-07-08T10:12:23Z</time>
      </trkpt>
      <trkpt lat="59.6768549" lon="17.6975253">
        <ele>15.999</ele>
        <time>2014-07-08T10:12:24Z</time>
      </trkpt>
      <trkpt lat="59.6767529" lon="17.6975139">
        <ele>15.999</ele>
        <time>2014-07-08T10:12:25Z</time>
      </trkpt>
      <trkpt lat="59.6766503" lon="17.6975016">
        <ele>15.5184</ele>
        <time>2014-07-08T10:12:26Z</time>
      </trkpt>
      <trkpt lat="59.6765477" lon="17.6974886">
        <ele>15.0377</ele>
        <time>2014-07-08T10:12:27Z</time>
      </trkpt>
      <trkpt lat="59.6764451" lon="17.6974763">
        <ele>15.0377</ele>
        <time>2014-07-08T10:12:28Z</time>
      </trkpt>
      <trkpt lat="59.6763426" lon="17.6974643">
        <ele>14.557</ele>
        <time>2014-07-08T10:12:29Z</time>
      </trkpt>
      <trkpt lat="59.6762405" lon="17.6974524">
        <ele>14.0764</ele>
        <time>2014-07-08T10:12:30Z</time>
      </trkpt>
      <trkpt lat="59.6761384" lon="17.6974404">
        <ele>13.5958</ele>
        <time>2014-07-08T10:12:31Z</time>
      </trkpt>
      <trkpt lat="59.676036" lon="17.6974276">
        <ele>13.5958</ele>
        <time>2014-07-08T10:12:32Z</time>
      </trkpt>
      <trkpt lat="59.6759334" lon="17.6974145">
        <ele>13.1151</ele>
        <time>2014-07-08T10:12:33Z</time>
      </trkpt>
      <trkpt lat="59.6758308" lon="17.6974017">
        <ele>12.6344</ele>
        <time>2014-07-08T10:12:34Z</time>
      </trkpt>
      <trkpt lat="59.6757283" lon="17.6973898">
        <ele>12.6344</ele>
        <time>2014-07-08T10:12:35Z</time>
      </trkpt>
      <trkpt lat="59.6756257" lon="17.6973785">
        <ele>12.1538</ele>
        <time>2014-07-08T10:12:36Z</time>
      </trkpt>
      <trkpt lat="59.675523" lon="17.6973664">
        <ele>12.1538</ele>
        <time>2014-07-08T10:12:37Z</time>
      </trkpt>
      <trkpt lat="59.6754201" lon="17.6973541">
        <ele>11.6732</ele>
        <time>2014-07-08T10:12:38Z</time>
      </trkpt>
      <trkpt lat="59.6753174" lon="17.6973416">
        <ele>11.6732</ele>
        <time>2014-07-08T10:12:39Z</time>
      </trkpt>
      <trkpt lat="59.6752144" lon="17.6973297">
        <ele>11.6732</ele>
        <time>2014-07-08T10:12:40Z</time>
      </trkpt>
      <trkpt lat="59.6751111" lon="17.6973189">
        <ele>11.1925</ele>
        <time>2014-07-08T10:12:41Z</time>
      </trkpt>
      <trkpt lat="59.6750077" lon="17.6973074">
        <ele>11.1925</ele>
        <time>2014-07-08T10:12:42Z</time>
      </trkpt>
      <trkpt lat="59.6749045" lon="17.6972938">
        <ele>11.1925</ele>
        <time>2014-07-08T10:12:43Z</time>
      </trkpt>
      <trkpt lat="59.6748011" lon="17.6972793">
        <ele>11.1925</ele>
        <time>2014-07-08T10:12:44Z</time>
      </trkpt>
      <trkpt lat="59.6746982" lon="17.6972665">
        <ele>11.1925</ele>
        <time>2014-07-08T10:12:45Z</time>
      </trkpt>
      <trkpt lat="59.6745953" lon="17.6972551">
        <ele>10.7118</ele>
        <time>2014-07-08T10:12:46Z</time>
      </trkpt>
      <trkpt lat="59.6744928" lon="17.6972427">
        <ele>10.7118</ele>
        <time>2014-07-08T10:12:47Z</time>
      </trkpt>
      <trkpt lat="59.6743905" lon="17.6972295">
        <ele>10.7118</ele>
        <time>2014-07-08T10:12:48Z</time>
      </trkpt>
      <trkpt lat="59.6742887" lon="17.6972164">
        <ele>10.7118</ele>
        <time>2014-07-08T10:12:49Z</time>
      </trkpt>
      <trkpt lat="59.6741876" lon="17.6972034">
        <ele>10.7118</ele>
        <time>2014-07-08T10:12:50Z</time>
      </trkpt>
      <trkpt lat="59.6740877" lon="17.6971892">
        <ele>10.7118</ele>
        <time>2014-07-08T10:12:51Z</time>
      </trkpt>
      <trkpt lat="59.6739892" lon="17.6971736">
        <ele>10.7118</ele>
        <time>2014-07-08T10:12:52Z</time>
      </trkpt>
      <trkpt lat="59.6738915" lon="17.6971566">
        <ele>10.2312</ele>
        <time>2014-07-08T10:12:53Z</time>
      </trkpt>
      <trkpt lat="59.6737949" lon="17.6971378">
        <ele>10.2312</ele>
        <time>2014-07-08T10:12:54Z</time>
      </trkpt>
      <trkpt lat="59.6736997" lon="17.6971163">
        <ele>10.2312</ele>
        <time>2014-07-08T10:12:55Z</time>
      </trkpt>
      <trkpt lat="59.6736059" lon="17.6970914">
        <ele>10.2312</ele>
        <time>2014-07-08T10:12:56Z</time>
      </trkpt>
      <trkpt lat="59.673513" lon="17.6970636">
        <ele>10.2312</ele>
        <time>2014-07-08T10:12:57Z</time>
      </trkpt>
      <trkpt lat="59.673421" lon="17.6970324">
        <ele>10.2312</ele>
        <time>2014-07-08T10:12:58Z</time>
      </trkpt>
      <trkpt lat="59.6733299" lon="17.6969956">
        <ele>10.2312</ele>
        <time>2014-07-08T10:12:59Z</time>
      </trkpt>
      <trkpt lat="59.6732393" lon="17.6969536">
        <ele>9.75061</ele>
        <time>2014-07-08T10:13:00Z</time>
      </trkpt>
      <trkpt lat="59.6731489" lon="17.6969091">
        <ele>9.75061</ele>
        <time>2014-07-08T10:13:01Z</time>
      </trkpt>
      <trkpt lat="59.6730588" lon="17.6968615">
        <ele>9.75061</ele>
        <time>2014-07-08T10:13:02Z</time>
      </trkpt>
      <trkpt lat="59.6729692" lon="17.6968112">
        <ele>9.75061</ele>
        <time>2014-07-08T10:13:03Z</time>
      </trkpt>
      <trkpt lat="59.6728806" lon="17.6967589">
        <ele>9.75061</ele>
        <time>2014-07-08T10:13:04Z</time>
      </trkpt>
      <trkpt lat="59.6727932" lon="17.6967035">
        <ele>9.75061</ele>
        <time>2014-07-08T10:13:05Z</time>
      </trkpt>
      <trkpt lat="59.6727067" lon="17.6966464">
        <ele>9.75061</ele>
        <time>2014-07-08T10:13:06Z</time>
      </trkpt>
      <trkpt lat="59.6726207" lon="17.696589">
        <ele>9.75061</ele>
        <time>2014-07-08T10:13:07Z</time>
      </trkpt>
      <trkpt lat="59.6725352" lon="17.6965318">
        <ele>9.75061</ele>
        <time>2014-07-08T10:13:08Z</time>
      </trkpt>
      <trkpt lat="59.6724501" lon="17.6964744">
        <ele>9.75061</ele>
        <time>2014-07-08T10:13:09Z</time>
      </trkpt>
      <trkpt lat="59.6723648" lon="17.6964145">
        <ele>9.75061</ele>
        <time>2014-07-08T10:13:10Z</time>
      </trkpt>
      <trkpt lat="59.6722792" lon="17.6963538">
        <ele>9.2699</ele>
        <time>2014-07-08T10:13:11Z</time>
      </trkpt>
      <trkpt lat="59.6721926" lon="17.696295">
        <ele>9.2699</ele>
        <time>2014-07-08T10:13:12Z</time>
      </trkpt>
      <trkpt lat="59.6721052" lon="17.6962363">
        <ele>9.75061</ele>
        <time>2014-07-08T10:13:13Z</time>
      </trkpt>
      <trkpt lat="59.6720177" lon="17.6961771">
        <ele>9.75061</ele>
        <time>2014-07-08T10:13:14Z</time>
      </trkpt>
      <trkpt lat="59.6719302" lon="17.6961181">
        <ele>9.75061</ele>
        <time>2014-07-08T10:13:15Z</time>
      </trkpt>
      <trkpt lat="59.6718428" lon="17.6960597">
        <ele>9.75061</ele>
        <time>2014-07-08T10:13:16Z</time>
      </trkpt>
      <trkpt lat="59.6717556" lon="17.6960018">
        <ele>9.2699</ele>
        <time>2014-07-08T10:13:17Z</time>
      </trkpt>
      <trkpt lat="59.6716694" lon="17.695945">
        <ele>9.2699</ele>
        <time>2014-07-08T10:13:18Z</time>
      </trkpt>
      <trkpt lat="59.6715855" lon="17.6958884">
        <ele>9.2699</ele>
        <time>2014-07-08T10:13:19Z</time>
      </trkpt>
      <trkpt lat="59.6715039" lon="17.6958306">
        <ele>9.2699</ele>
        <time>2014-07-08T10:13:20Z</time>
      </trkpt>
      <trkpt lat="59.6714227" lon="17.6957741">
        <ele>9.2699</ele>
        <time>2014-07-08T10:13:21Z</time>
      </trkpt>
      <trkpt lat="59.6713408" lon="17.6957203">
        <ele>9.2699</ele>
        <time>2014-07-08T10:13:22Z</time>
      </trkpt>
      <trkpt lat="59.6712589" lon="17.6956665">
        <ele>9.2699</ele>
        <time>2014-07-08T10:13:23Z</time>
      </trkpt>
      <trkpt lat="59.671177" lon="17.6956118">
        <ele>9.2699</ele>
        <time>2014-07-08T10:13:24Z</time>
      </trkpt>
      <trkpt lat="59.671095" lon="17.6955561">
        <ele>8.78918</ele>
        <time>2014-07-08T10:13:25Z</time>
      </trkpt>
      <trkpt lat="59.6710127" lon="17.6955001">
        <ele>8.78918</ele>
        <time>2014-07-08T10:13:26Z</time>
      </trkpt>
      <trkpt lat="59.6709298" lon="17.6954436">
        <ele>8.78918</ele>
        <time>2014-07-08T10:13:27Z</time>
      </trkpt>
      <trkpt lat="59.670846" lon="17.6953866">
        <ele>8.78918</ele>
        <time>2014-07-08T10:13:28Z</time>
      </trkpt>
      <trkpt lat="59.6707621" lon="17.6953293">
        <ele>8.78918</ele>
        <time>2014-07-08T10:13:29Z</time>
      </trkpt>
      <trkpt lat="59.6706782" lon="17.6952722">
        <ele>8.78918</ele>
        <time>2014-07-08T10:13:30Z</time>
      </trkpt>
      <trkpt lat="59.6705941" lon="17.6952173">
        <ele>8.78918</ele>
        <time>2014-07-08T10:13:31Z</time>
      </trkpt>
      <trkpt lat="59.6705119" lon="17.6951686">
        <ele>8.30859</ele>
        <time>2014-07-08T10:13:32Z</time>
      </trkpt>
      <trkpt lat="59.6704314" lon="17.6951207">
        <ele>8.30859</ele>
        <time>2014-07-08T10:13:33Z</time>
      </trkpt>
      <trkpt lat="59.6703493" lon="17.6950706">
        <ele>8.30859</ele>
        <time>2014-07-08T10:13:34Z</time>
      </trkpt>
      <trkpt lat="59.6702674" lon="17.6950148">
        <ele>8.30859</ele>
        <time>2014-07-08T10:13:35Z</time>
      </trkpt>
      <trkpt lat="59.6701871" lon="17.6949576">
        <ele>8.30859</ele>
        <time>2014-07-08T10:13:36Z</time>
      </trkpt>
      <trkpt lat="59.6701073" lon="17.6949029">
        <ele>8.30859</ele>
        <time>2014-07-08T10:13:37Z</time>
      </trkpt>
      <trkpt lat="59.6700273" lon="17.6948478">
        <ele>8.30859</ele>
        <time>2014-07-08T10:13:38Z</time>
      </trkpt>
      <trkpt lat="59.6699473" lon="17.6947919">
        <ele>8.30859</ele>
        <time>2014-07-08T10:13:39Z</time>
      </trkpt>
      <trkpt lat="59.669867" lon="17.6947375">
        <ele>8.30859</ele>
        <time>2014-07-08T10:13:40Z</time>
      </trkpt>
      <trkpt lat="59.6697862" lon="17.6946853">
        <ele>8.78918</ele>
        <time>2014-07-08T10:13:41Z</time>
      </trkpt>
      <trkpt lat="59.6697054" lon="17.6946336">
        <ele>8.78918</ele>
        <time>2014-07-08T10:13:42Z</time>
      </trkpt>
      <trkpt lat="59.669625" lon="17.6945789">
        <ele>8.78918</ele>
        <time>2014-07-08T10:13:43Z</time>
      </trkpt>
      <trkpt lat="59.6695442" lon="17.6945219">
        <ele>8.78918</ele>
        <time>2014-07-08T10:13:44Z</time>
      </trkpt>
      <trkpt lat="59.6694629" lon="17.6944667">
        <ele>9.2699</ele>
        <time>2014-07-08T10:13:45Z</time>
      </trkpt>
      <trkpt lat="59.6693817" lon="17.6944142">
        <ele>9.2699</ele>
        <time>2014-07-08T10:13:46Z</time>
      </trkpt>
      <trkpt lat="59.6693013" lon="17.6943615">
        <ele>9.75061</ele>
        <time>2014-07-08T10:13:47Z</time>
      </trkpt>
      <trkpt lat="59.6692215" lon="17.6943088">
        <ele>9.75061</ele>
        <time>2014-07-08T10:13:48Z</time>
      </trkpt>
      <trkpt lat="59.6691428" lon="17.6942553">
        <ele>9.75061</ele>
        <time>2014-07-08T10:13:49Z</time>
      </trkpt>
      <trkpt lat="59.669065" lon="17.6942002">
        <ele>10.2312</ele>
        <time>2014-07-08T10:13:50Z</time>
      </trkpt>
      <trkpt lat="59.6689874" lon="17.6941465">
        <ele>10.2312</ele>
        <time>2014-07-08T10:13:51Z</time>
      </trkpt>
      <trkpt lat="59.6689102" lon="17.6940931">
        <ele>10.2312</ele>
        <time>2014-07-08T10:13:52Z</time>
      </trkpt>
      <trkpt lat="59.6688335" lon="17.6940392">
        <ele>10.2312</ele>
        <time>2014-07-08T10:13:53Z</time>
      </trkpt>
      <trkpt lat="59.6687564" lon="17.6939866">
        <ele>10.2312</ele>
        <time>2014-07-08T10:13:54Z</time>
      </trkpt>
      <trkpt lat="59.6686797" lon="17.6939357">
        <ele>10.7118</ele>
        <time>2014-07-08T10:13:55Z</time>
      </trkpt>
      <trkpt lat="59.6686041" lon="17.693886">
        <ele>10.7118</ele>
        <time>2014-07-08T10:13:56Z</time>
      </trkpt>
      <trkpt lat="59.6685303" lon="17.6938363">
        <ele>10.7118</ele>
        <time>2014-07-08T10:13:57Z</time>
      </trkpt>
      <trkpt lat="59.6684579" lon="17.693786">
        <ele>10.7118</ele>
        <time>2014-07-08T10:13:58Z</time>
      </trkpt>
      <trkpt lat="59.6683865" lon="17.6937382">
        <ele>10.7118</ele>
        <time>2014-07-08T10:13:59Z</time>
      </trkpt>
      <trkpt lat="59.6683153" lon="17.6936917">
        <ele>10.7118</ele>
        <time>2014-07-08T10:14:00Z</time>
      </trkpt>
      <trkpt lat="59.6682446" lon="17.6936436">
        <ele>11.1925</ele>
        <time>2014-07-08T10:14:01Z</time>
      </trkpt>
      <trkpt lat="59.6681741" lon="17.6935958">
        <ele>11.1925</ele>
        <time>2014-07-08T10:14:02Z</time>
      </trkpt>
      <trkpt lat="59.6681033" lon="17.6935477">
        <ele>11.1925</ele>
        <time>2014-07-08T10:14:03Z</time>
      </trkpt>
      <trkpt lat="59.6680322" lon="17.6934979">
        <ele>11.1925</ele>
        <time>2014-07-08T10:14:04Z</time>
      </trkpt>
      <trkpt lat="59.6679602" lon="17.6934478">
        <ele>11.6732</ele>
        <time>2014-07-08T10:14:05Z</time>
      </trkpt>
      <trkpt lat="59.667887" lon="17.6933988">
        <ele>11.6732</ele>
        <time>2014-07-08T10:14:06Z</time>
      </trkpt>
      <trkpt lat="59.6678129" lon="17.6933504">
        <ele>11.6732</ele>
        <time>2014-07-08T10:14:07Z</time>
      </trkpt>
      <trkpt lat="59.6677385" lon="17.6933016">
        <ele>11.6732</ele>
        <time>2014-07-08T10:14:08Z</time>
      </trkpt>
      <trkpt lat="59.6676644" lon="17.6932512">
        <ele>11.6732</ele>
        <time>2014-07-08T10:14:09Z</time>
      </trkpt>
      <trkpt lat="59.6675907" lon="17.6932008">
        <ele>11.6732</ele>
        <time>2014-07-08T10:14:10Z</time>
      </trkpt>
      <trkpt lat="59.6675173" lon="17.6931515">
        <ele>12.1538</ele>
        <time>2014-07-08T10:14:11Z</time>
      </trkpt>
      <trkpt lat="59.667444" lon="17.6931021">
        <ele>12.1538</ele>
        <time>2014-07-08T10:14:12Z</time>
      </trkpt>
      <trkpt lat="59.6673706" lon="17.6930515">
        <ele>12.1538</ele>
        <time>2014-07-08T10:14:13Z</time>
      </trkpt>
      <trkpt lat="59.6672966" lon="17.6930008">
        <ele>12.1538</ele>
        <time>2014-07-08T10:14:14Z</time>
      </trkpt>
      <trkpt lat="59.6672223" lon="17.69295">
        <ele>12.1538</ele>
        <time>2014-07-08T10:14:15Z</time>
      </trkpt>
      <trkpt lat="59.6671472" lon="17.6928985">
        <ele>12.1538</ele>
        <time>2014-07-08T10:14:16Z</time>
      </trkpt>
      <trkpt lat="59.6670712" lon="17.6928479">
        <ele>12.1538</ele>
        <time>2014-07-08T10:14:17Z</time>
      </trkpt>
      <trkpt lat="59.6669944" lon="17.6927977">
        <ele>12.1538</ele>
        <time>2014-07-08T10:14:18Z</time>
      </trkpt>
      <trkpt lat="59.6669169" lon="17.6927465">
        <ele>11.6732</ele>
        <time>2014-07-08T10:14:19Z</time>
      </trkpt>
      <trkpt lat="59.6668387" lon="17.6926946">
        <ele>11.6732</ele>
        <time>2014-07-08T10:14:20Z</time>
      </trkpt>
      <trkpt lat="59.6667594" lon="17.6926417">
        <ele>11.1925</ele>
        <time>2014-07-08T10:14:21Z</time>
      </trkpt>
      <trkpt lat="59.6666791" lon="17.6925878">
        <ele>11.1925</ele>
        <time>2014-07-08T10:14:22Z</time>
      </trkpt>
      <trkpt lat="59.6665984" lon="17.692532">
        <ele>10.7118</ele>
        <time>2014-07-08T10:14:23Z</time>
      </trkpt>
      <trkpt lat="59.6665173" lon="17.692475">
        <ele>10.7118</ele>
        <time>2014-07-08T10:14:24Z</time>
      </trkpt>
      <trkpt lat="59.6664352" lon="17.692419">
        <ele>10.2312</ele>
        <time>2014-07-08T10:14:25Z</time>
      </trkpt>
      <trkpt lat="59.6663517" lon="17.692363">
        <ele>9.75061</ele>
        <time>2014-07-08T10:14:26Z</time>
      </trkpt>
      <trkpt lat="59.6662661" lon="17.6923056">
        <ele>9.75061</ele>
        <time>2014-07-08T10:14:27Z</time>
      </trkpt>
      <trkpt lat="59.666179" lon="17.6922469">
        <ele>9.75061</ele>
        <time>2014-07-08T10:14:28Z</time>
      </trkpt>
      <trkpt lat="59.6660917" lon="17.6921874">
        <ele>9.75061</ele>
        <time>2014-07-08T10:14:29Z</time>
      </trkpt>
      <trkpt lat="59.6660047" lon="17.6921279">
        <ele>9.75061</ele>
        <time>2014-07-08T10:14:30Z</time>
      </trkpt>
      <trkpt lat="59.6659178" lon="17.69207">
        <ele>9.75061</ele>
        <time>2014-07-08T10:14:31Z</time>
      </trkpt>
      <trkpt lat="59.6658311" lon="17.6920127">
        <ele>9.75061</ele>
        <time>2014-07-08T10:14:32Z</time>
      </trkpt>
      <trkpt lat="59.6657446" lon="17.6919541">
        <ele>9.75061</ele>
        <time>2014-07-08T10:14:33Z</time>
      </trkpt>
      <trkpt lat="59.6656581" lon="17.6918957">
        <ele>9.75061</ele>
        <time>2014-07-08T10:14:34Z</time>
      </trkpt>
      <trkpt lat="59.6655715" lon="17.6918374">
        <ele>9.75061</ele>
        <time>2014-07-08T10:14:35Z</time>
      </trkpt>
      <trkpt lat="59.6654859" lon="17.6917791">
        <ele>9.75061</ele>
        <time>2014-07-08T10:14:36Z</time>
      </trkpt>
      <trkpt lat="59.6654018" lon="17.6917208">
        <ele>10.2312</ele>
        <time>2014-07-08T10:14:37Z</time>
      </trkpt>
      <trkpt lat="59.6653184" lon="17.6916632">
        <ele>10.2312</ele>
        <time>2014-07-08T10:14:38Z</time>
      </trkpt>
      <trkpt lat="59.6652349" lon="17.6916053">
        <ele>10.2312</ele>
        <time>2014-07-08T10:14:39Z</time>
      </trkpt>
      <trkpt lat="59.66515" lon="17.6915473">
        <ele>10.2312</ele>
        <time>2014-07-08T10:14:40Z</time>
      </trkpt>
      <trkpt lat="59.665064" lon="17.6914897">
        <ele>10.2312</ele>
        <time>2014-07-08T10:14:41Z</time>
      </trkpt>
      <trkpt lat="59.6649768" lon="17.6914312">
        <ele>10.2312</ele>
        <time>2014-07-08T10:14:42Z</time>
      </trkpt>
      <trkpt lat="59.6648888" lon="17.6913726">
        <ele>9.75061</ele>
        <time>2014-07-08T10:14:43Z</time>
      </trkpt>
      <trkpt lat="59.6648004" lon="17.6913136">
        <ele>9.75061</ele>
        <time>2014-07-08T10:14:44Z</time>
      </trkpt>
      <trkpt lat="59.6647122" lon="17.6912528">
        <ele>9.75061</ele>
        <time>2014-07-08T10:14:45Z</time>
      </trkpt>
      <trkpt lat="59.6646233" lon="17.6911913">
        <ele>9.75061</ele>
        <time>2014-07-08T10:14:46Z</time>
      </trkpt>
      <trkpt lat="59.6645336" lon="17.6911311">
        <ele>9.2699</ele>
        <time>2014-07-08T10:14:47Z</time>
      </trkpt>
      <trkpt lat="59.6644434" lon="17.6910711">
        <ele>9.2699</ele>
        <time>2014-07-08T10:14:48Z</time>
      </trkpt>
      <trkpt lat="59.6643531" lon="17.6910103">
        <ele>8.78918</ele>
        <time>2014-07-08T10:14:49Z</time>
      </trkpt>
      <trkpt lat="59.6642625" lon="17.6909487">
        <ele>8.78918</ele>
        <time>2014-07-08T10:14:50Z</time>
      </trkpt>
      <trkpt lat="59.6641715" lon="17.6908877">
        <ele>8.30859</ele>
        <time>2014-07-08T10:14:51Z</time>
      </trkpt>
      <trkpt lat="59.6640808" lon="17.690827">
        <ele>8.30859</ele>
        <time>2014-07-08T10:14:52Z</time>
      </trkpt>
      <trkpt lat="59.6639907" lon="17.6907645">
        <ele>8.30859</ele>
        <time>2014-07-08T10:14:53Z</time>
      </trkpt>
      <trkpt lat="59.6639009" lon="17.6907016">
        <ele>7.82788</ele>
        <time>2014-07-08T10:14:54Z</time>
      </trkpt>
      <trkpt lat="59.6638114" lon="17.69064">
        <ele>7.82788</ele>
        <time>2014-07-08T10:14:55Z</time>
      </trkpt>
      <trkpt lat="59.6637222" lon="17.690579">
        <ele>7.82788</ele>
        <time>2014-07-08T10:14:56Z</time>
      </trkpt>
      <trkpt lat="59.6636326" lon="17.6905174">
        <ele>7.34717</ele>
        <time>2014-07-08T10:14:57Z</time>
      </trkpt>
      <trkpt lat="59.6635427" lon="17.690455">
        <ele>7.34717</ele>
        <time>2014-07-08T10:14:58Z</time>
      </trkpt>
      <trkpt lat="59.6634531" lon="17.690392">
        <ele>7.34717</ele>
        <time>2014-07-08T10:14:59Z</time>
      </trkpt>
      <trkpt lat="59.6633635" lon="17.6903304">
        <ele>7.34717</ele>
        <time>2014-07-08T10:15:00Z</time>
      </trkpt>
      <trkpt lat="59.663274" lon="17.6902692">
        <ele>7.34717</ele>
        <time>2014-07-08T10:15:01Z</time>
      </trkpt>
      <trkpt lat="59.6631845" lon="17.6902081">
        <ele>7.34717</ele>
        <time>2014-07-08T10:15:02Z</time>
      </trkpt>
      <trkpt lat="59.663095" lon="17.6901475">
        <ele>7.34717</ele>
        <time>2014-07-08T10:15:03Z</time>
      </trkpt>
      <trkpt lat="59.6630052" lon="17.690089">
        <ele>6.86646</ele>
        <time>2014-07-08T10:15:04Z</time>
      </trkpt>
      <trkpt lat="59.6629151" lon="17.6900341">
        <ele>6.86646</ele>
        <time>2014-07-08T10:15:05Z</time>
      </trkpt>
      <trkpt lat="59.6628246" lon="17.6899812">
        <ele>6.86646</ele>
        <time>2014-07-08T10:15:06Z</time>
      </trkpt>
      <trkpt lat="59.6627339" lon="17.6899294">
        <ele>6.86646</ele>
        <time>2014-07-08T10:15:07Z</time>
      </trkpt>
      <trkpt lat="59.6626426" lon="17.6898813">
        <ele>6.86646</ele>
        <time>2014-07-08T10:15:08Z</time>
      </trkpt>
      <trkpt lat="59.6625507" lon="17.6898372">
        <ele>7.34717</ele>
        <time>2014-07-08T10:15:09Z</time>
      </trkpt>
      <trkpt lat="59.6624587" lon="17.6897972">
        <ele>7.34717</ele>
        <time>2014-07-08T10:15:10Z</time>
      </trkpt>
      <trkpt lat="59.6623662" lon="17.6897609">
        <ele>7.34717</ele>
        <time>2014-07-08T10:15:11Z</time>
      </trkpt>
      <trkpt lat="59.6622736" lon="17.689728">
        <ele>7.34717</ele>
        <time>2014-07-08T10:15:12Z</time>
      </trkpt>
      <trkpt lat="59.6621813" lon="17.6896982">
        <ele>7.34717</ele>
        <time>2014-07-08T10:15:13Z</time>
      </trkpt>
      <trkpt lat="59.6620901" lon="17.6896718">
        <ele>7.34717</ele>
        <time>2014-07-08T10:15:14Z</time>
      </trkpt>
      <trkpt lat="59.6620008" lon="17.6896492">
        <ele>7.82788</ele>
        <time>2014-07-08T10:15:15Z</time>
      </trkpt>
      <trkpt lat="59.6619136" lon="17.689629">
        <ele>7.82788</ele>
        <time>2014-07-08T10:15:16Z</time>
      </trkpt>
      <trkpt lat="59.661828" lon="17.6896124">
        <ele>7.82788</ele>
        <time>2014-07-08T10:15:17Z</time>
      </trkpt>
      <trkpt lat="59.6617433" lon="17.6896006">
        <ele>7.82788</ele>
        <time>2014-07-08T10:15:18Z</time>
      </trkpt>
      <trkpt lat="59.661661" lon="17.689592">
        <ele>8.30859</ele>
        <time>2014-07-08T10:15:19Z</time>
      </trkpt>
      <trkpt lat="59.6615815" lon="17.6895848">
        <ele>8.78918</ele>
        <time>2014-07-08T10:15:20Z</time>
      </trkpt>
      <trkpt lat="59.6615048" lon="17.6895785">
        <ele>8.78918</ele>
        <time>2014-07-08T10:15:21Z</time>
      </trkpt>
      <trkpt lat="59.6614301" lon="17.6895745">
        <ele>9.2699</ele>
        <time>2014-07-08T10:15:22Z</time>
      </trkpt>
      <trkpt lat="59.6613569" lon="17.6895736">
        <ele>9.2699</ele>
        <time>2014-07-08T10:15:23Z</time>
      </trkpt>
      <trkpt lat="59.6612842" lon="17.689573">
        <ele>9.75061</ele>
        <time>2014-07-08T10:15:24Z</time>
      </trkpt>
      <trkpt lat="59.6612115" lon="17.6895728">
        <ele>9.75061</ele>
        <time>2014-07-08T10:15:25Z</time>
      </trkpt>
      <trkpt lat="59.6611385" lon="17.6895761">
        <ele>9.75061</ele>
        <time>2014-07-08T10:15:26Z</time>
      </trkpt>
      <trkpt lat="59.6610649" lon="17.689582">
        <ele>10.2312</ele>
        <time>2014-07-08T10:15:27Z</time>
      </trkpt>
      <trkpt lat="59.6609905" lon="17.6895891">
        <ele>10.2312</ele>
        <time>2014-07-08T10:15:28Z</time>
      </trkpt>
      <trkpt lat="59.6609158" lon="17.6895992">
        <ele>10.2312</ele>
        <time>2014-07-08T10:15:29Z</time>
      </trkpt>
      <trkpt lat="59.6608408" lon="17.6896114">
        <ele>10.2312</ele>
        <time>2014-07-08T10:15:30Z</time>
      </trkpt>
      <trkpt lat="59.6607656" lon="17.6896241">
        <ele>10.2312</ele>
        <time>2014-07-08T10:15:31Z</time>
      </trkpt>
      <trkpt lat="59.6606899" lon="17.6896396">
        <ele>10.2312</ele>
        <time>2014-07-08T10:15:32Z</time>
      </trkpt>
      <trkpt lat="59.6606135" lon="17.689657">
        <ele>10.7118</ele>
        <time>2014-07-08T10:15:33Z</time>
      </trkpt>
      <trkpt lat="59.6605364" lon="17.6896756">
        <ele>10.2312</ele>
        <time>2014-07-08T10:15:34Z</time>
      </trkpt>
      <trkpt lat="59.660459" lon="17.6896968">
        <ele>10.7118</ele>
        <time>2014-07-08T10:15:35Z</time>
      </trkpt>
      <trkpt lat="59.6603816" lon="17.6897208">
        <ele>10.2312</ele>
        <time>2014-07-08T10:15:36Z</time>
      </trkpt>
      <trkpt lat="59.6603038" lon="17.6897479">
        <ele>10.2312</ele>
        <time>2014-07-08T10:15:37Z</time>
      </trkpt>
      <trkpt lat="59.6602266" lon="17.6897778">
        <ele>10.2312</ele>
        <time>2014-07-08T10:15:38Z</time>
      </trkpt>
      <trkpt lat="59.6601504" lon="17.6898113">
        <ele>10.2312</ele>
        <time>2014-07-08T10:15:39Z</time>
      </trkpt>
      <trkpt lat="59.6600754" lon="17.689845">
        <ele>10.2312</ele>
        <time>2014-07-08T10:15:40Z</time>
      </trkpt>
      <trkpt lat="59.6600016" lon="17.6898782">
        <ele>10.7118</ele>
        <time>2014-07-08T10:15:41Z</time>
      </trkpt>
      <trkpt lat="59.6599288" lon="17.6899127">
        <ele>10.7118</ele>
        <time>2014-07-08T10:15:42Z</time>
      </trkpt>
      <trkpt lat="59.6598562" lon="17.6899487">
        <ele>10.7118</ele>
        <time>2014-07-08T10:15:43Z</time>
      </trkpt>
      <trkpt lat="59.6597835" lon="17.689989">
        <ele>10.7118</ele>
        <time>2014-07-08T10:15:44Z</time>
      </trkpt>
      <trkpt lat="59.6597109" lon="17.6900341">
        <ele>10.7118</ele>
        <time>2014-07-08T10:15:45Z</time>
      </trkpt>
      <trkpt lat="59.6596389" lon="17.6900813">
        <ele>10.7118</ele>
        <time>2014-07-08T10:15:46Z</time>
      </trkpt>
      <trkpt lat="59.6595674" lon="17.6901295">
        <ele>10.7118</ele>
        <time>2014-07-08T10:15:47Z</time>
      </trkpt>
      <trkpt lat="59.659497" lon="17.69018">
        <ele>10.7118</ele>
        <time>2014-07-08T10:15:48Z</time>
      </trkpt>
      <trkpt lat="59.6594279" lon="17.6902319">
        <ele>10.7118</ele>
        <time>2014-07-08T10:15:49Z</time>
      </trkpt>
      <trkpt lat="59.6593595" lon="17.6902837">
        <ele>10.7118</ele>
        <time>2014-07-08T10:15:50Z</time>
      </trkpt>
      <trkpt lat="59.6592922" lon="17.6903359">
        <ele>10.7118</ele>
        <time>2014-07-08T10:15:51Z</time>
      </trkpt>
      <trkpt lat="59.6592263" lon="17.6903879">
        <ele>10.7118</ele>
        <time>2014-07-08T10:15:52Z</time>
      </trkpt>
      <trkpt lat="59.6591605" lon="17.6904395">
        <ele>10.7118</ele>
        <time>2014-07-08T10:15:53Z</time>
      </trkpt>
      <trkpt lat="59.6590947" lon="17.6904913">
        <ele>11.1925</ele>
        <time>2014-07-08T10:15:54Z</time>
      </trkpt>
      <trkpt lat="59.6590287" lon="17.6905416">
        <ele>11.1925</ele>
        <time>2014-07-08T10:15:55Z</time>
      </trkpt>
      <trkpt lat="59.6589628" lon="17.6905886">
        <ele>11.1925</ele>
        <time>2014-07-08T10:15:56Z</time>
      </trkpt>
      <trkpt lat="59.6588969" lon="17.6906355">
        <ele>11.6732</ele>
        <time>2014-07-08T10:15:57Z</time>
      </trkpt>
      <trkpt lat="59.6588308" lon="17.6906852">
        <ele>11.6732</ele>
        <time>2014-07-08T10:15:58Z</time>
      </trkpt>
      <trkpt lat="59.6587648" lon="17.6907366">
        <ele>11.6732</ele>
        <time>2014-07-08T10:15:59Z</time>
      </trkpt>
      <trkpt lat="59.6586987" lon="17.6907888">
        <ele>12.1538</ele>
        <time>2014-07-08T10:16:00Z</time>
      </trkpt>
      <trkpt lat="59.6586333" lon="17.6908397">
        <ele>12.1538</ele>
        <time>2014-07-08T10:16:01Z</time>
      </trkpt>
      <trkpt lat="59.6585682" lon="17.6908891">
        <ele>12.1538</ele>
        <time>2014-07-08T10:16:02Z</time>
      </trkpt>
      <trkpt lat="59.6585042" lon="17.6909411">
        <ele>12.1538</ele>
        <time>2014-07-08T10:16:03Z</time>
      </trkpt>
      <trkpt lat="59.6584411" lon="17.6909933">
        <ele>12.6344</ele>
        <time>2014-07-08T10:16:04Z</time>
      </trkpt>
      <trkpt lat="59.6583785" lon="17.6910417">
        <ele>12.6344</ele>
        <time>2014-07-08T10:16:05Z</time>
      </trkpt>
      <trkpt lat="59.6583173" lon="17.6910892">
        <ele>12.6344</ele>
        <time>2014-07-08T10:16:06Z</time>
      </trkpt>
      <trkpt lat="59.6582578" lon="17.6911354">
        <ele>13.1151</ele>
        <time>2014-07-08T10:16:07Z</time>
      </trkpt>
      <trkpt lat="59.6582009" lon="17.6911794">
        <ele>13.1151</ele>
        <time>2014-07-08T10:16:08Z</time>
      </trkpt>
      <trkpt lat="59.6581447" lon="17.6912242">
        <ele>13.1151</ele>
        <time>2014-07-08T10:16:09Z</time>
      </trkpt>
      <trkpt lat="59.6580879" lon="17.6912691">
        <ele>13.5958</ele>
        <time>2014-07-08T10:16:10Z</time>
      </trkpt>
      <trkpt lat="59.6580309" lon="17.691313">
        <ele>13.5958</ele>
        <time>2014-07-08T10:16:11Z</time>
      </trkpt>
      <trkpt lat="59.6579738" lon="17.6913571">
        <ele>14.0764</ele>
        <time>2014-07-08T10:16:12Z</time>
      </trkpt>
      <trkpt lat="59.657917" lon="17.691402">
        <ele>14.0764</ele>
        <time>2014-07-08T10:16:13Z</time>
      </trkpt>
      <trkpt lat="59.657861" lon="17.6914441">
        <ele>14.557</ele>
        <time>2014-07-08T10:16:14Z</time>
      </trkpt>
      <trkpt lat="59.6578077" lon="17.6914843">
        <ele>14.557</ele>
        <time>2014-07-08T10:16:15Z</time>
      </trkpt>
      <trkpt lat="59.6577574" lon="17.6915233">
        <ele>15.0377</ele>
        <time>2014-07-08T10:16:16Z</time>
      </trkpt>
      <trkpt lat="59.6577098" lon="17.6915589">
        <ele>15.0377</ele>
        <time>2014-07-08T10:16:17Z</time>
      </trkpt>
      <trkpt lat="59.657664" lon="17.6915929">
        <ele>15.0377</ele>
        <time>2014-07-08T10:16:18Z</time>
      </trkpt>
      <trkpt lat="59.6576196" lon="17.6916253">
        <ele>15.5184</ele>
        <time>2014-07-08T10:16:19Z</time>
      </trkpt>
      <trkpt lat="59.6575765" lon="17.6916571">
        <ele>15.999</ele>
        <time>2014-07-08T10:16:20Z</time>
      </trkpt>
      <trkpt lat="59.6575342" lon="17.6916933">
        <ele>15.999</ele>
        <time>2014-07-08T10:16:21Z</time>
      </trkpt>
      <trkpt lat="59.6574928" lon="17.6917272">
        <ele>16.4797</ele>
        <time>2014-07-08T10:16:22Z</time>
      </trkpt>
      <trkpt lat="59.6574511" lon="17.6917601">
        <ele>16.4797</ele>
        <time>2014-07-08T10:16:23Z</time>
      </trkpt>
      <trkpt lat="59.6574084" lon="17.6917928">
        <ele>15.999</ele>
        <time>2014-07-08T10:16:24Z</time>
      </trkpt>
      <trkpt lat="59.6573652" lon="17.6918264">
        <ele>15.999</ele>
        <time>2014-07-08T10:16:25Z</time>
      </trkpt>
      <trkpt lat="59.6573208" lon="17.6918629">
        <ele>15.999</ele>
        <time>2014-07-08T10:16:26Z</time>
      </trkpt>
      <trkpt lat="59.6572753" lon="17.6919004">
        <ele>16.4797</ele>
        <time>2014-07-08T10:16:27Z</time>
      </trkpt>
      <trkpt lat="59.6572297" lon="17.6919375">
        <ele>16.4797</ele>
        <time>2014-07-08T10:16:28Z</time>
      </trkpt>
      <trkpt lat="59.6571838" lon="17.691975">
        <ele>15.999</ele>
        <time>2014-07-08T10:16:29Z</time>
      </trkpt>
      <trkpt lat="59.6571377" lon="17.6920109">
        <ele>16.4797</ele>
        <time>2014-07-08T10:16:30Z</time>
      </trkpt>
      <trkpt lat="59.6570913" lon="17.6920471">
        <ele>16.4797</ele>
        <time>2014-07-08T10:16:31Z</time>
      </trkpt>
      <trkpt lat="59.6570462" lon="17.6920797">
        <ele>15.999</ele>
        <time>2014-07-08T10:16:32Z</time>
      </trkpt>
      <trkpt lat="59.6570027" lon="17.6921131">
        <ele>16.4797</ele>
        <time>2014-07-08T10:16:33Z</time>
      </trkpt>
      <trkpt lat="59.6569602" lon="17.6921475">
        <ele>16.4797</ele>
        <time>2014-07-08T10:16:34Z</time>
      </trkpt>
      <trkpt lat="59.6569175" lon="17.6921822">
        <ele>16.9604</ele>
        <time>2014-07-08T10:16:35Z</time>
      </trkpt>
      <trkpt lat="59.6568743" lon="17.692218">
        <ele>16.9604</ele>
        <time>2014-07-08T10:16:36Z</time>
      </trkpt>
      <trkpt lat="59.6568312" lon="17.6922543">
        <ele>16.9604</ele>
        <time>2014-07-08T10:16:37Z</time>
      </trkpt>
      <trkpt lat="59.6567881" lon="17.6922915">
        <ele>16.9604</ele>
        <time>2014-07-08T10:16:38Z</time>
      </trkpt>
      <trkpt lat="59.6567437" lon="17.6923286">
        <ele>16.9604</ele>
        <time>2014-07-08T10:16:39Z</time>
      </trkpt>
      <trkpt lat="59.656698" lon="17.6923661">
        <ele>17.4412</ele>
        <time>2014-07-08T10:16:40Z</time>
      </trkpt>
      <trkpt lat="59.656651" lon="17.6924053">
        <ele>17.4412</ele>
        <time>2014-07-08T10:16:41Z</time>
      </trkpt>
      <trkpt lat="59.6566028" lon="17.6924462">
        <ele>17.9218</ele>
        <time>2014-07-08T10:16:42Z</time>
      </trkpt>
      <trkpt lat="59.6565535" lon="17.6924877">
        <ele>17.9218</ele>
        <time>2014-07-08T10:16:43Z</time>
      </trkpt>
      <trkpt lat="59.6565031" lon="17.6925298">
        <ele>18.4023</ele>
        <time>2014-07-08T10:16:44Z</time>
      </trkpt>
      <trkpt lat="59.6564514" lon="17.6925719">
        <ele>18.4023</ele>
        <time>2014-07-08T10:16:45Z</time>
      </trkpt>
      <trkpt lat="59.6563992" lon="17.6926137">
        <ele>18.8831</ele>
        <time>2014-07-08T10:16:46Z</time>
      </trkpt>
      <trkpt lat="59.6563474" lon="17.6926567">
        <ele>18.8831</ele>
        <time>2014-07-08T10:16:47Z</time>
      </trkpt>
      <trkpt lat="59.6562955" lon="17.6927003">
        <ele>18.8831</ele>
        <time>2014-07-08T10:16:48Z</time>
      </trkpt>
      <trkpt lat="59.6562433" lon="17.6927437">
        <ele>19.3638</ele>
        <time>2014-07-08T10:16:49Z</time>
      </trkpt>
      <trkpt lat="59.6561915" lon="17.6927877">
        <ele>19.3638</ele>
        <time>2014-07-08T10:16:50Z</time>
      </trkpt>
      <trkpt lat="59.6561391" lon="17.6928334">
        <ele>19.3638</ele>
        <time>2014-07-08T10:16:51Z</time>
      </trkpt>
      <trkpt lat="59.6560863" lon="17.692881">
        <ele>19.3638</ele>
        <time>2014-07-08T10:16:52Z</time>
      </trkpt>
      <trkpt lat="59.6560335" lon="17.6929313">
        <ele>19.3638</ele>
        <time>2014-07-08T10:16:53Z</time>
      </trkpt>
      <trkpt lat="59.655981" lon="17.6929841">
        <ele>19.3638</ele>
        <time>2014-07-08T10:16:54Z</time>
      </trkpt>
      <trkpt lat="59.6559289" lon="17.6930394">
        <ele>19.3638</ele>
        <time>2014-07-08T10:16:55Z</time>
      </trkpt>
      <trkpt lat="59.6558769" lon="17.6930971">
        <ele>19.8444</ele>
        <time>2014-07-08T10:16:56Z</time>
      </trkpt>
      <trkpt lat="59.6558246" lon="17.6931573">
        <ele>19.8444</ele>
        <time>2014-07-08T10:16:57Z</time>
      </trkpt>
      <trkpt lat="59.6557719" lon="17.6932202">
        <ele>19.8444</ele>
        <time>2014-07-08T10:16:58Z</time>
      </trkpt>
      <trkpt lat="59.6557201" lon="17.6932852">
        <ele>20.325</ele>
        <time>2014-07-08T10:16:59Z</time>
      </trkpt>
      <trkpt lat="59.6556705" lon="17.6933525">
        <ele>20.325</ele>
        <time>2014-07-08T10:17:00Z</time>
      </trkpt>
      <trkpt lat="59.6556233" lon="17.6934232">
        <ele>20.325</ele>
        <time>2014-07-08T10:17:01Z</time>
      </trkpt>
      <trkpt lat="59.6555777" lon="17.6934954">
        <ele>20.8057</ele>
        <time>2014-07-08T10:17:02Z</time>
      </trkpt>
      <trkpt lat="59.6555329" lon="17.6935668">
        <ele>20.8057</ele>
        <time>2014-07-08T10:17:03Z</time>
      </trkpt>
      <trkpt lat="59.655489" lon="17.6936383">
        <ele>21.2864</ele>
        <time>2014-07-08T10:17:04Z</time>
      </trkpt>
      <trkpt lat="59.6554467" lon="17.6937102">
        <ele>21.2864</ele>
        <time>2014-07-08T10:17:05Z</time>
      </trkpt>
      <trkpt lat="59.655407" lon="17.6937828">
        <ele>21.767</ele>
        <time>2014-07-08T10:17:06Z</time>
      </trkpt>
      <trkpt lat="59.6553693" lon="17.6938555">
        <ele>22.2476</ele>
        <time>2014-07-08T10:17:07Z</time>
      </trkpt>
      <trkpt lat="59.6553322" lon="17.6939284">
        <ele>22.7283</ele>
        <time>2014-07-08T10:17:08Z</time>
      </trkpt>
      <trkpt lat="59.6552954" lon="17.6940003">
        <ele>22.7283</ele>
        <time>2014-07-08T10:17:09Z</time>
      </trkpt>
      <trkpt lat="59.6552591" lon="17.6940715">
        <ele>23.209</ele>
        <time>2014-07-08T10:17:10Z</time>
      </trkpt>
      <trkpt lat="59.6552228" lon="17.6941417">
        <ele>23.209</ele>
        <time>2014-07-08T10:17:11Z</time>
      </trkpt>
      <trkpt lat="59.6551866" lon="17.6942118">
        <ele>23.6896</ele>
        <time>2014-07-08T10:17:12Z</time>
      </trkpt>
      <trkpt lat="59.6551499" lon="17.6942833">
        <ele>23.6896</ele>
        <time>2014-07-08T10:17:13Z</time>
      </trkpt>
      <trkpt lat="59.6551139" lon="17.6943579">
        <ele>24.1703</ele>
        <time>2014-07-08T10:17:14Z</time>
      </trkpt>
      <trkpt lat="59.6550778" lon="17.6944344">
        <ele>24.1703</ele>
        <time>2014-07-08T10:17:15Z</time>
      </trkpt>
      <trkpt lat="59.655041" lon="17.6945112">
        <ele>24.651</ele>
        <time>2014-07-08T10:17:16Z</time>
      </trkpt>
      <trkpt lat="59.6550033" lon="17.6945883">
        <ele>25.1317</ele>
        <time>2014-07-08T10:17:17Z</time>
      </trkpt>
      <trkpt lat="59.6549654" lon="17.6946655">
        <ele>25.1317</ele>
        <time>2014-07-08T10:17:18Z</time>
      </trkpt>
      <trkpt lat="59.654927" lon="17.6947426">
        <ele>25.6123</ele>
        <time>2014-07-08T10:17:19Z</time>
      </trkpt>
      <trkpt lat="59.6548885" lon="17.694822">
        <ele>25.6123</ele>
        <time>2014-07-08T10:17:20Z</time>
      </trkpt>
      <trkpt lat="59.6548499" lon="17.6949045">
        <ele>25.6123</ele>
        <time>2014-07-08T10:17:21Z</time>
      </trkpt>
      <trkpt lat="59.6548113" lon="17.6949897">
        <ele>25.6123</ele>
        <time>2014-07-08T10:17:22Z</time>
      </trkpt>
      <trkpt lat="59.6547728" lon="17.6950738">
        <ele>26.0929</ele>
        <time>2014-07-08T10:17:23Z</time>
      </trkpt>
      <trkpt lat="59.6547323" lon="17.6951578">
        <ele>26.5736</ele>
        <time>2014-07-08T10:17:24Z</time>
      </trkpt>
      <trkpt lat="59.6546898" lon="17.6952453">
        <ele>26.5736</ele>
        <time>2014-07-08T10:17:25Z</time>
      </trkpt>
      <trkpt lat="59.6546484" lon="17.6953363">
        <ele>27.0543</ele>
        <time>2014-07-08T10:17:26Z</time>
      </trkpt>
      <trkpt lat="59.6546065" lon="17.6954285">
        <ele>27.0543</ele>
        <time>2014-07-08T10:17:27Z</time>
      </trkpt>
      <trkpt lat="59.6545639" lon="17.6955218">
        <ele>27.5349</ele>
        <time>2014-07-08T10:17:28Z</time>
      </trkpt>
      <trkpt lat="59.6545204" lon="17.6956182">
        <ele>27.5349</ele>
        <time>2014-07-08T10:17:29Z</time>
      </trkpt>
      <trkpt lat="59.6544753" lon="17.6957187">
        <ele>27.5349</ele>
        <time>2014-07-08T10:17:30Z</time>
      </trkpt>
      <trkpt lat="59.6544268" lon="17.6958208">
        <ele>27.5349</ele>
        <time>2014-07-08T10:17:31Z</time>
      </trkpt>
      <trkpt lat="59.6543753" lon="17.6959239">
        <ele>27.5349</ele>
        <time>2014-07-08T10:17:32Z</time>
      </trkpt>
      <trkpt lat="59.6543223" lon="17.6960316">
        <ele>27.5349</ele>
        <time>2014-07-08T10:17:33Z</time>
      </trkpt>
      <trkpt lat="59.6542655" lon="17.6961428">
        <ele>27.5349</ele>
        <time>2014-07-08T10:17:34Z</time>
      </trkpt>
      <trkpt lat="59.6542052" lon="17.69626">
        <ele>27.5349</ele>
        <time>2014-07-08T10:17:35Z</time>
      </trkpt>
      <trkpt lat="59.6541431" lon="17.6963819">
        <ele>27.0543</ele>
        <time>2014-07-08T10:17:36Z</time>
      </trkpt>
      <trkpt lat="59.654078" lon="17.6965066">
        <ele>27.0543</ele>
        <time>2014-07-08T10:17:37Z</time>
      </trkpt>
      <trkpt lat="59.6540094" lon="17.696633">
        <ele>26.5736</ele>
        <time>2014-07-08T10:17:38Z</time>
      </trkpt>
      <trkpt lat="59.6539383" lon="17.6967609">
        <ele>26.5736</ele>
        <time>2014-07-08T10:17:39Z</time>
      </trkpt>
      <trkpt lat="59.6538649" lon="17.6968903">
        <ele>25.6123</ele>
        <time>2014-07-08T10:17:40Z</time>
      </trkpt>
      <trkpt lat="59.6537874" lon="17.6970203">
        <ele>25.1317</ele>
        <time>2014-07-08T10:17:41Z</time>
      </trkpt>
      <trkpt lat="59.6537061" lon="17.697151">
        <ele>24.1703</ele>
        <time>2014-07-08T10:17:42Z</time>
      </trkpt>
      <trkpt lat="59.6536216" lon="17.6972841">
        <ele>23.209</ele>
        <time>2014-07-08T10:17:43Z</time>
      </trkpt>
      <trkpt lat="59.6535337" lon="17.6974204">
        <ele>22.7283</ele>
        <time>2014-07-08T10:17:44Z</time>
      </trkpt>
      <trkpt lat="59.6534429" lon="17.6975597">
        <ele>21.767</ele>
        <time>2014-07-08T10:17:45Z</time>
      </trkpt>
      <trkpt lat="59.6533507" lon="17.6976992">
        <ele>21.2864</ele>
        <time>2014-07-08T10:17:46Z</time>
      </trkpt>
      <trkpt lat="59.6532575" lon="17.6978368">
        <ele>20.8057</ele>
        <time>2014-07-08T10:17:47Z</time>
      </trkpt>
      <trkpt lat="59.6531632" lon="17.6979709">
        <ele>20.8057</ele>
        <time>2014-07-08T10:17:48Z</time>
      </trkpt>
      <trkpt lat="59.6530683" lon="17.6981021">
        <ele>20.325</ele>
        <time>2014-07-08T10:17:49Z</time>
      </trkpt>
      <trkpt lat="59.6529739" lon="17.6982312">
        <ele>20.325</ele>
        <time>2014-07-08T10:17:50Z</time>
      </trkpt>
      <trkpt lat="59.6528802" lon="17.6983564">
        <ele>19.8444</ele>
        <time>2014-07-08T10:17:51Z</time>
      </trkpt>
      <trkpt lat="59.6527873" lon="17.6984762">
        <ele>19.8444</ele>
        <time>2014-07-08T10:17:52Z</time>
      </trkpt>
      <trkpt lat="59.6526949" lon="17.6985915">
        <ele>19.8444</ele>
        <time>2014-07-08T10:17:53Z</time>
      </trkpt>
      <trkpt lat="59.6526034" lon="17.6987019">
        <ele>19.8444</ele>
        <time>2014-07-08T10:17:54Z</time>
      </trkpt>
      <trkpt lat="59.6525134" lon="17.6988081">
        <ele>19.8444</ele>
        <time>2014-07-08T10:17:55Z</time>
      </trkpt>
      <trkpt lat="59.6524243" lon="17.6989101">
        <ele>19.8444</ele>
        <time>2014-07-08T10:17:56Z</time>
      </trkpt>
      <trkpt lat="59.6523357" lon="17.6990085">
        <ele>19.8444</ele>
        <time>2014-07-08T10:17:57Z</time>
      </trkpt>
      <trkpt lat="59.6522479" lon="17.699104">
        <ele>19.8444</ele>
        <time>2014-07-08T10:17:58Z</time>
      </trkpt>
      <trkpt lat="59.6521614" lon="17.6991972">
        <ele>19.8444</ele>
        <time>2014-07-08T10:17:59Z</time>
      </trkpt>
      <trkpt lat="59.6520752" lon="17.6992873">
        <ele>19.8444</ele>
        <time>2014-07-08T10:18:00Z</time>
      </trkpt>
      <trkpt lat="59.6519887" lon="17.6993736">
        <ele>20.325</ele>
        <time>2014-07-08T10:18:01Z</time>
      </trkpt>
      <trkpt lat="59.6519028" lon="17.6994575">
        <ele>20.325</ele>
        <time>2014-07-08T10:18:02Z</time>
      </trkpt>
      <trkpt lat="59.651818" lon="17.6995384">
        <ele>19.8444</ele>
        <time>2014-07-08T10:18:03Z</time>
      </trkpt>
      <trkpt lat="59.6517351" lon="17.6996162">
        <ele>19.8444</ele>
        <time>2014-07-08T10:18:04Z</time>
      </trkpt>
      <trkpt lat="59.6516538" lon="17.6996908">
        <ele>20.325</ele>
        <time>2014-07-08T10:18:05Z</time>
      </trkpt>
      <trkpt lat="59.6515745" lon="17.6997616">
        <ele>20.325</ele>
        <time>2014-07-08T10:18:06Z</time>
      </trkpt>
      <trkpt lat="59.6514971" lon="17.6998296">
        <ele>20.325</ele>
        <time>2014-07-08T10:18:07Z</time>
      </trkpt>
      <trkpt lat="59.6514216" lon="17.699896">
        <ele>20.325</ele>
        <time>2014-07-08T10:18:08Z</time>
      </trkpt>
      <trkpt lat="59.6513472" lon="17.6999598">
        <ele>20.325</ele>
        <time>2014-07-08T10:18:09Z</time>
      </trkpt>
      <trkpt lat="59.6512744" lon="17.7000211">
        <ele>20.325</ele>
        <time>2014-07-08T10:18:10Z</time>
      </trkpt>
      <trkpt lat="59.6512027" lon="17.7000809">
        <ele>20.325</ele>
        <time>2014-07-08T10:18:11Z</time>
      </trkpt>
      <trkpt lat="59.6511319" lon="17.700142">
        <ele>20.325</ele>
        <time>2014-07-08T10:18:12Z</time>
      </trkpt>
      <trkpt lat="59.651061" lon="17.7002026">
        <ele>20.325</ele>
        <time>2014-07-08T10:18:13Z</time>
      </trkpt>
      <trkpt lat="59.6509896" lon="17.7002625">
        <ele>20.325</ele>
        <time>2014-07-08T10:18:14Z</time>
      </trkpt>
      <trkpt lat="59.6509171" lon="17.7003236">
        <ele>20.325</ele>
        <time>2014-07-08T10:18:15Z</time>
      </trkpt>
      <trkpt lat="59.650844" lon="17.7003873">
        <ele>20.325</ele>
        <time>2014-07-08T10:18:16Z</time>
      </trkpt>
      <trkpt lat="59.6507703" lon="17.7004513">
        <ele>20.325</ele>
        <time>2014-07-08T10:18:17Z</time>
      </trkpt>
      <trkpt lat="59.6506965" lon="17.7005129">
        <ele>20.325</ele>
        <time>2014-07-08T10:18:18Z</time>
      </trkpt>
      <trkpt lat="59.6506235" lon="17.7005726">
        <ele>20.325</ele>
        <time>2014-07-08T10:18:19Z</time>
      </trkpt>
      <trkpt lat="59.6505513" lon="17.700634">
        <ele>20.325</ele>
        <time>2014-07-08T10:18:20Z</time>
      </trkpt>
      <trkpt lat="59.6504784" lon="17.7006946">
        <ele>20.325</ele>
        <time>2014-07-08T10:18:21Z</time>
      </trkpt>
      <trkpt lat="59.6504051" lon="17.7007544">
        <ele>20.325</ele>
        <time>2014-07-08T10:18:22Z</time>
      </trkpt>
      <trkpt lat="59.6503318" lon="17.7008152">
        <ele>20.325</ele>
        <time>2014-07-08T10:18:23Z</time>
      </trkpt>
      <trkpt lat="59.6502578" lon="17.7008771">
        <ele>20.325</ele>
        <time>2014-07-08T10:18:24Z</time>
      </trkpt>
      <trkpt lat="59.6501832" lon="17.7009397">
        <ele>20.325</ele>
        <time>2014-07-08T10:18:25Z</time>
      </trkpt>
      <trkpt lat="59.6501084" lon="17.7010024">
        <ele>19.8444</ele>
        <time>2014-07-08T10:18:26Z</time>
      </trkpt>
      <trkpt lat="59.6500314" lon="17.701065">
        <ele>19.8444</ele>
        <time>2014-07-08T10:18:27Z</time>
      </trkpt>
      <trkpt lat="59.6499527" lon="17.7011255">
        <ele>19.8444</ele>
        <time>2014-07-08T10:18:28Z</time>
      </trkpt>
      <trkpt lat="59.6498748" lon="17.7011879">
        <ele>19.8444</ele>
        <time>2014-07-08T10:18:29Z</time>
      </trkpt>
      <trkpt lat="59.649796" lon="17.7012543">
        <ele>19.3638</ele>
        <time>2014-07-08T10:18:30Z</time>
      </trkpt>
      <trkpt lat="59.6497169" lon="17.7013225">
        <ele>19.3638</ele>
        <time>2014-07-08T10:18:31Z</time>
      </trkpt>
      <trkpt lat="59.6496371" lon="17.7013917">
        <ele>19.3638</ele>
        <time>2014-07-08T10:18:32Z</time>
      </trkpt>
      <trkpt lat="59.6495574" lon="17.7014608">
        <ele>19.3638</ele>
        <time>2014-07-08T10:18:33Z</time>
      </trkpt>
      <trkpt lat="59.6494771" lon="17.7015299">
        <ele>18.8831</ele>
        <time>2014-07-08T10:18:34Z</time>
      </trkpt>
      <trkpt lat="59.6493968" lon="17.7015979">
        <ele>18.8831</ele>
        <time>2014-07-08T10:18:35Z</time>
      </trkpt>
      <trkpt lat="59.649317" lon="17.7016656">
        <ele>18.4023</ele>
        <time>2014-07-08T10:18:36Z</time>
      </trkpt>
      <trkpt lat="59.6492378" lon="17.7017329">
        <ele>18.4023</ele>
        <time>2014-07-08T10:18:37Z</time>
      </trkpt>
      <trkpt lat="59.6491584" lon="17.7017982">
        <ele>17.9218</ele>
        <time>2014-07-08T10:18:38Z</time>
      </trkpt>
      <trkpt lat="59.6490788" lon="17.7018627">
        <ele>17.9218</ele>
        <time>2014-07-08T10:18:39Z</time>
      </trkpt>
      <trkpt lat="59.649" lon="17.7019263">
        <ele>17.9218</ele>
        <time>2014-07-08T10:18:40Z</time>
      </trkpt>
      <trkpt lat="59.6489223" lon="17.7019866">
        <ele>17.4412</ele>
        <time>2014-07-08T10:18:41Z</time>
      </trkpt>
      <trkpt lat="59.6488464" lon="17.7020437">
        <ele>17.4412</ele>
        <time>2014-07-08T10:18:42Z</time>
      </trkpt>
      <trkpt lat="59.6487722" lon="17.7021002">
        <ele>17.4412</ele>
        <time>2014-07-08T10:18:43Z</time>
      </trkpt>
      <trkpt lat="59.6486991" lon="17.7021553">
        <ele>16.9604</ele>
        <time>2014-07-08T10:18:44Z</time>
      </trkpt>
      <trkpt lat="59.6486255" lon="17.7022067">
        <ele>16.9604</ele>
        <time>2014-07-08T10:18:45Z</time>
      </trkpt>
      <trkpt lat="59.6485517" lon="17.702255">
        <ele>16.9604</ele>
        <time>2014-07-08T10:18:46Z</time>
      </trkpt>
      <trkpt lat="59.6484774" lon="17.7023021">
        <ele>16.9604</ele>
        <time>2014-07-08T10:18:47Z</time>
      </trkpt>
      <trkpt lat="59.6484033" lon="17.702346">
        <ele>16.9604</ele>
        <time>2014-07-08T10:18:48Z</time>
      </trkpt>
      <trkpt lat="59.6483291" lon="17.7023865">
        <ele>16.4797</ele>
        <time>2014-07-08T10:18:49Z</time>
      </trkpt>
      <trkpt lat="59.6482555" lon="17.7024223">
        <ele>16.4797</ele>
        <time>2014-07-08T10:18:50Z</time>
      </trkpt>
      <trkpt lat="59.6481805" lon="17.7024576">
        <ele>15.999</ele>
        <time>2014-07-08T10:18:51Z</time>
      </trkpt>
      <trkpt lat="59.6481054" lon="17.7024906">
        <ele>15.999</ele>
        <time>2014-07-08T10:18:52Z</time>
      </trkpt>
      <trkpt lat="59.6480301" lon="17.7025191">
        <ele>15.999</ele>
        <time>2014-07-08T10:18:53Z</time>
      </trkpt>
      <trkpt lat="59.6479552" lon="17.702545">
        <ele>15.999</ele>
        <time>2014-07-08T10:18:54Z</time>
      </trkpt>
      <trkpt lat="59.6478815" lon="17.70257">
        <ele>15.999</ele>
        <time>2014-07-08T10:18:55Z</time>
      </trkpt>
      <trkpt lat="59.6478081" lon="17.7025933">
        <ele>15.999</ele>
        <time>2014-07-08T10:18:56Z</time>
      </trkpt>
      <trkpt lat="59.6477358" lon="17.7026134">
        <ele>15.999</ele>
        <time>2014-07-08T10:18:57Z</time>
      </trkpt>
      <trkpt lat="59.6476643" lon="17.70263">
        <ele>15.999</ele>
        <time>2014-07-08T10:18:58Z</time>
      </trkpt>
      <trkpt lat="59.6475935" lon="17.7026451">
        <ele>15.999</ele>
        <time>2014-07-08T10:18:59Z</time>
      </trkpt>
      <trkpt lat="59.6475234" lon="17.7026609">
        <ele>16.4797</ele>
        <time>2014-07-08T10:19:00Z</time>
      </trkpt>
      <trkpt lat="59.6474547" lon="17.7026775">
        <ele>16.4797</ele>
        <time>2014-07-08T10:19:01Z</time>
      </trkpt>
      <trkpt lat="59.6473874" lon="17.7026911">
        <ele>16.4797</ele>
        <time>2014-07-08T10:19:02Z</time>
      </trkpt>
      <trkpt lat="59.6473207" lon="17.7027011">
        <ele>16.4797</ele>
        <time>2014-07-08T10:19:03Z</time>
      </trkpt>
      <trkpt lat="59.6472551" lon="17.7027111">
        <ele>16.4797</ele>
        <time>2014-07-08T10:19:04Z</time>
      </trkpt>
      <trkpt lat="59.6471904" lon="17.7027218">
        <ele>16.4797</ele>
        <time>2014-07-08T10:19:05Z</time>
      </trkpt>
      <trkpt lat="59.6471268" lon="17.7027326">
        <ele>16.9604</ele>
        <time>2014-07-08T10:19:06Z</time>
      </trkpt>
      <trkpt lat="59.6470652" lon="17.702743">
        <ele>16.9604</ele>
        <time>2014-07-08T10:19:07Z</time>
      </trkpt>
      <trkpt lat="59.6470062" lon="17.7027526">
        <ele>17.4412</ele>
        <time>2014-07-08T10:19:08Z</time>
      </trkpt>
      <trkpt lat="59.6469491" lon="17.702762">
        <ele>17.4412</ele>
        <time>2014-07-08T10:19:09Z</time>
      </trkpt>
      <trkpt lat="59.6468927" lon="17.7027714">
        <ele>17.9218</ele>
        <time>2014-07-08T10:19:10Z</time>
      </trkpt>
      <trkpt lat="59.6468367" lon="17.7027813">
        <ele>17.9218</ele>
        <time>2014-07-08T10:19:11Z</time>
      </trkpt>
      <trkpt lat="59.6467808" lon="17.7027912">
        <ele>18.4023</ele>
        <time>2014-07-08T10:19:12Z</time>
      </trkpt>
      <trkpt lat="59.6467255" lon="17.7027999">
        <ele>18.4023</ele>
        <time>2014-07-08T10:19:13Z</time>
      </trkpt>
      <trkpt lat="59.6466709" lon="17.7028092">
        <ele>18.8831</ele>
        <time>2014-07-08T10:19:14Z</time>
      </trkpt>
      <trkpt lat="59.646617" lon="17.7028196">
        <ele>18.8831</ele>
        <time>2014-07-08T10:19:15Z</time>
      </trkpt>
      <trkpt lat="59.6465642" lon="17.7028298">
        <ele>19.3638</ele>
        <time>2014-07-08T10:19:16Z</time>
      </trkpt>
      <trkpt lat="59.6465124" lon="17.7028397">
        <ele>19.8444</ele>
        <time>2014-07-08T10:19:17Z</time>
      </trkpt>
      <trkpt lat="59.6464617" lon="17.7028491">
        <ele>19.8444</ele>
        <time>2014-07-08T10:19:18Z</time>
      </trkpt>
      <trkpt lat="59.6464119" lon="17.7028582">
        <ele>20.325</ele>
        <time>2014-07-08T10:19:19Z</time>
      </trkpt>
      <trkpt lat="59.6463621" lon="17.7028667">
        <ele>20.325</ele>
        <time>2014-07-08T10:19:20Z</time>
      </trkpt>
      <trkpt lat="59.6463125" lon="17.7028755">
        <ele>20.8057</ele>
        <time>2014-07-08T10:19:21Z</time>
      </trkpt>
      <trkpt lat="59.6462636" lon="17.7028828">
        <ele>20.8057</ele>
        <time>2014-07-08T10:19:22Z</time>
      </trkpt>
      <trkpt lat="59.6462157" lon="17.7028884">
        <ele>20.8057</ele>
        <time>2014-07-08T10:19:23Z</time>
      </trkpt>
      <trkpt lat="59.6461699" lon="17.7028976">
        <ele>20.8057</ele>
        <time>2014-07-08T10:19:24Z</time>
      </trkpt>
      <trkpt lat="59.6461246" lon="17.7029085">
        <ele>20.8057</ele>
        <time>2014-07-08T10:19:25Z</time>
      </trkpt>
      <trkpt lat="59.6460798" lon="17.702918">
        <ele>21.2864</ele>
        <time>2014-07-08T10:19:26Z</time>
      </trkpt>
      <trkpt lat="59.646037" lon="17.7029314">
        <ele>21.767</ele>
        <time>2014-07-08T10:19:27Z</time>
      </trkpt>
      <trkpt lat="59.6459912" lon="17.7029429">
        <ele>21.767</ele>
        <time>2014-07-08T10:19:28Z</time>
      </trkpt>
      <trkpt lat="59.6459431" lon="17.7029448">
        <ele>22.7283</ele>
        <time>2014-07-08T10:19:29Z</time>
      </trkpt>
      <trkpt lat="59.6458961" lon="17.7029424">
        <ele>23.209</ele>
        <time>2014-07-08T10:19:30Z</time>
      </trkpt>
      <trkpt lat="59.6458523" lon="17.7029407">
        <ele>22.2476</ele>
        <time>2014-07-08T10:19:31Z</time>
      </trkpt>
      <trkpt lat="59.6458094" lon="17.7029456">
        <ele>22.7283</ele>
        <time>2014-07-08T10:19:32Z</time>
      </trkpt>
      <trkpt lat="59.6457666" lon="17.7029527">
        <ele>23.209</ele>
        <time>2014-07-08T10:19:33Z</time>
      </trkpt>
      <trkpt lat="59.6457236" lon="17.7029596">
        <ele>23.209</ele>
        <time>2014-07-08T10:19:34Z</time>
      </trkpt>
      <trkpt lat="59.6456806" lon="17.7029665">
        <ele>23.6896</ele>
        <time>2014-07-08T10:19:35Z</time>
      </trkpt>
      <trkpt lat="59.6456376" lon="17.702972">
        <ele>24.1703</ele>
        <time>2014-07-08T10:19:36Z</time>
      </trkpt>
      <trkpt lat="59.6455946" lon="17.7029801">
        <ele>24.651</ele>
        <time>2014-07-08T10:19:37Z</time>
      </trkpt>
      <trkpt lat="59.6455516" lon="17.702989">
        <ele>24.651</ele>
        <time>2014-07-08T10:19:38Z</time>
      </trkpt>
      <trkpt lat="59.6455094" lon="17.7029976">
        <ele>25.1317</ele>
        <time>2014-07-08T10:19:39Z</time>
      </trkpt>
      <trkpt lat="59.6454675" lon="17.703003">
        <ele>25.1317</ele>
        <time>2014-07-08T10:19:40Z</time>
      </trkpt>
      <trkpt lat="59.6454251" lon="17.7030074">
        <ele>25.6123</ele>
        <time>2014-07-08T10:19:41Z</time>
      </trkpt>
      <trkpt lat="59.6453822" lon="17.7030148">
        <ele>25.6123</ele>
        <time>2014-07-08T10:19:42Z</time>
      </trkpt>
      <trkpt lat="59.6453402" lon="17.7030206">
        <ele>26.0929</ele>
        <time>2014-07-08T10:19:43Z</time>
      </trkpt>
      <trkpt lat="59.6452987" lon="17.7030263">
        <ele>26.5736</ele>
        <time>2014-07-08T10:19:44Z</time>
      </trkpt>
      <trkpt lat="59.6452579" lon="17.7030335">
        <ele>26.5736</ele>
        <time>2014-07-08T10:19:45Z</time>
      </trkpt>
      <trkpt lat="59.6452171" lon="17.7030403">
        <ele>26.5736</ele>
        <time>2014-07-08T10:19:46Z</time>
      </trkpt>
      <trkpt lat="59.6451766" lon="17.7030471">
        <ele>27.0543</ele>
        <time>2014-07-08T10:19:47Z</time>
      </trkpt>
      <trkpt lat="59.6451366" lon="17.703054">
        <ele>27.0543</ele>
        <time>2014-07-08T10:19:48Z</time>
      </trkpt>
      <trkpt lat="59.6450971" lon="17.7030618">
        <ele>27.5349</ele>
        <time>2014-07-08T10:19:49Z</time>
      </trkpt>
      <trkpt lat="59.6450585" lon="17.7030673">
        <ele>27.5349</ele>
        <time>2014-07-08T10:19:50Z</time>
      </trkpt>
      <trkpt lat="59.6450207" lon="17.7030749">
        <ele>27.5349</ele>
        <time>2014-07-08T10:19:51Z</time>
      </trkpt>
      <trkpt lat="59.6449829" lon="17.7030833">
        <ele>28.0155</ele>
        <time>2014-07-08T10:19:52Z</time>
      </trkpt>
      <trkpt lat="59.644945" lon="17.7030905">
        <ele>28.0155</ele>
        <time>2014-07-08T10:19:53Z</time>
      </trkpt>
      <trkpt lat="59.6449073" lon="17.7030978">
        <ele>28.0155</ele>
        <time>2014-07-08T10:19:54Z</time>
      </trkpt>
      <trkpt lat="59.6448699" lon="17.7031038">
        <ele>28.4962</ele>
        <time>2014-07-08T10:19:55Z</time>
      </trkpt>
      <trkpt lat="59.6448322" lon="17.7031117">
        <ele>28.4962</ele>
        <time>2014-07-08T10:19:56Z</time>
      </trkpt>
      <trkpt lat="59.6447948" lon="17.7031206">
        <ele>28.4962</ele>
        <time>2014-07-08T10:19:57Z</time>
      </trkpt>
      <trkpt lat="59.6447576" lon="17.7031283">
        <ele>28.4962</ele>
        <time>2014-07-08T10:19:58Z</time>
      </trkpt>
      <trkpt lat="59.6447197" lon="17.7031345">
        <ele>28.9769</ele>
        <time>2014-07-08T10:19:59Z</time>
      </trkpt>
      <trkpt lat="59.6446824" lon="17.7031377">
        <ele>28.4962</ele>
        <time>2014-07-08T10:20:00Z</time>
      </trkpt>
      <trkpt lat="59.6446425" lon="17.7031495">
        <ele>28.0155</ele>
        <time>2014-07-08T10:20:01Z</time>
      </trkpt>
      <trkpt lat="59.6446051" lon="17.7031511">
        <ele>27.5349</ele>
        <time>2014-07-08T10:20:02Z</time>
      </trkpt>
      <trkpt lat="59.644567" lon="17.7031564">
        <ele>26.5736</ele>
        <time>2014-07-08T10:20:03Z</time>
      </trkpt>
      <trkpt lat="59.6445294" lon="17.7031656">
        <ele>25.6123</ele>
        <time>2014-07-08T10:20:04Z</time>
      </trkpt>
      <trkpt lat="59.6444911" lon="17.7031773">
        <ele>24.1703</ele>
        <time>2014-07-08T10:20:05Z</time>
      </trkpt>
      <trkpt lat="59.6444518" lon="17.7031908">
        <ele>22.7283</ele>
        <time>2014-07-08T10:20:06Z</time>
      </trkpt>
      <trkpt lat="59.6444139" lon="17.7032022">
        <ele>21.2864</ele>
        <time>2014-07-08T10:20:07Z</time>
      </trkpt>
      <trkpt lat="59.6443757" lon="17.7032116">
        <ele>19.8444</ele>
        <time>2014-07-08T10:20:08Z</time>
      </trkpt>
      <trkpt lat="59.6443382" lon="17.7032169">
        <ele>18.8831</ele>
        <time>2014-07-08T10:20:09Z</time>
      </trkpt>
      <trkpt lat="59.6443015" lon="17.7032236">
        <ele>17.4412</ele>
        <time>2014-07-08T10:20:10Z</time>
      </trkpt>
      <trkpt lat="59.6442664" lon="17.7032262">
        <ele>15.999</ele>
        <time>2014-07-08T10:20:11Z</time>
      </trkpt>
      <trkpt lat="59.6442304" lon="17.7032326">
        <ele>15.0377</ele>
        <time>2014-07-08T10:20:12Z</time>
      </trkpt>
      <trkpt lat="59.6441937" lon="17.7032406">
        <ele>13.5958</ele>
        <time>2014-07-08T10:20:13Z</time>
      </trkpt>
      <trkpt lat="59.6441555" lon="17.7032485">
        <ele>12.6344</ele>
        <time>2014-07-08T10:20:14Z</time>
      </trkpt>
      <trkpt lat="59.6441177" lon="17.7032547">
        <ele>11.6732</ele>
        <time>2014-07-08T10:20:15Z</time>
      </trkpt>
      <trkpt lat="59.644079" lon="17.7032654">
        <ele>10.7118</ele>
        <time>2014-07-08T10:20:16Z</time>
      </trkpt>
      <trkpt lat="59.64404" lon="17.7032765">
        <ele>9.75061</ele>
        <time>2014-07-08T10:20:17Z</time>
      </trkpt>
      <trkpt lat="59.6439986" lon="17.7032848">
        <ele>9.2699</ele>
        <time>2014-07-08T10:20:18Z</time>
      </trkpt>
      <trkpt lat="59.6439582" lon="17.7032868">
        <ele>8.78918</ele>
        <time>2014-07-08T10:20:19Z</time>
      </trkpt>
      <trkpt lat="59.6439177" lon="17.7032972">
        <ele>9.75061</ele>
        <time>2014-07-08T10:20:20Z</time>
      </trkpt>
      <trkpt lat="59.6438769" lon="17.7032994">
        <ele>9.2699</ele>
        <time>2014-07-08T10:20:21Z</time>
      </trkpt>
      <trkpt lat="59.6438319" lon="17.7033101">
        <ele>9.2699</ele>
        <time>2014-07-08T10:20:22Z</time>
      </trkpt>
      <trkpt lat="59.6437899" lon="17.7033136">
        <ele>8.78918</ele>
        <time>2014-07-08T10:20:23Z</time>
      </trkpt>
      <trkpt lat="59.6437453" lon="17.7033225">
        <ele>8.78918</ele>
        <time>2014-07-08T10:20:24Z</time>
      </trkpt>
      <trkpt lat="59.6437006" lon="17.7033301">
        <ele>8.78918</ele>
        <time>2014-07-08T10:20:25Z</time>
      </trkpt>
      <trkpt lat="59.6436536" lon="17.703337">
        <ele>8.78918</ele>
        <time>2014-07-08T10:20:26Z</time>
      </trkpt>
      <trkpt lat="59.6436057" lon="17.7033424">
        <ele>8.78918</ele>
        <time>2014-07-08T10:20:27Z</time>
      </trkpt>
      <trkpt lat="59.6435525" lon="17.7033592">
        <ele>9.75061</ele>
        <time>2014-07-08T10:20:28Z</time>
      </trkpt>
      <trkpt lat="59.6434956" lon="17.7033744">
        <ele>10.2312</ele>
        <time>2014-07-08T10:20:29Z</time>
      </trkpt>
      <trkpt lat="59.6434406" lon="17.7033853">
        <ele>10.7118</ele>
        <time>2014-07-08T10:20:30Z</time>
      </trkpt>
      <trkpt lat="59.6433853" lon="17.7033966">
        <ele>11.1925</ele>
        <time>2014-07-08T10:20:31Z</time>
      </trkpt>
      <trkpt lat="59.6433304" lon="17.7034034">
        <ele>11.6732</ele>
        <time>2014-07-08T10:20:32Z</time>
      </trkpt>
      <trkpt lat="59.6432742" lon="17.7034132">
        <ele>12.1538</ele>
        <time>2014-07-08T10:20:33Z</time>
      </trkpt>
      <trkpt lat="59.6432177" lon="17.7034213">
        <ele>12.1538</ele>
        <time>2014-07-08T10:20:34Z</time>
      </trkpt>
      <trkpt lat="59.6431616" lon="17.7034282">
        <ele>12.1538</ele>
        <time>2014-07-08T10:20:35Z</time>
      </trkpt>
      <trkpt lat="59.6431022" lon="17.7034428">
        <ele>13.1151</ele>
        <time>2014-07-08T10:20:36Z</time>
      </trkpt>
      <trkpt lat="59.6430434" lon="17.7034546">
        <ele>14.0764</ele>
        <time>2014-07-08T10:20:37Z</time>
      </trkpt>
      <trkpt lat="59.6429821" lon="17.7034666">
        <ele>14.557</ele>
        <time>2014-07-08T10:20:38Z</time>
      </trkpt>
      <trkpt lat="59.6429175" lon="17.7034829">
        <ele>15.999</ele>
        <time>2014-07-08T10:20:39Z</time>
      </trkpt>
      <trkpt lat="59.6428557" lon="17.7034936">
        <ele>16.4797</ele>
        <time>2014-07-08T10:20:40Z</time>
      </trkpt>
      <trkpt lat="59.6427914" lon="17.703508">
        <ele>17.4412</ele>
        <time>2014-07-08T10:20:41Z</time>
      </trkpt>
      <trkpt lat="59.6427279" lon="17.7035214">
        <ele>18.4023</ele>
        <time>2014-07-08T10:20:42Z</time>
      </trkpt>
      <trkpt lat="59.6426642" lon="17.7035371">
        <ele>18.8831</ele>
        <time>2014-07-08T10:20:43Z</time>
      </trkpt>
      <trkpt lat="59.6426011" lon="17.7035537">
        <ele>19.8444</ele>
        <time>2014-07-08T10:20:44Z</time>
      </trkpt>
      <trkpt lat="59.6425387" lon="17.7035681">
        <ele>19.8444</ele>
        <time>2014-07-08T10:20:45Z</time>
      </trkpt>
      <trkpt lat="59.642475" lon="17.7035837">
        <ele>20.325</ele>
        <time>2014-07-08T10:20:46Z</time>
      </trkpt>
      <trkpt lat="59.6424124" lon="17.7036022">
        <ele>19.8444</ele>
        <time>2014-07-08T10:20:47Z</time>
      </trkpt>
      <trkpt lat="59.6423503" lon="17.7036204">
        <ele>19.8444</ele>
        <time>2014-07-08T10:20:48Z</time>
      </trkpt>
      <trkpt lat="59.6422855" lon="17.7036474">
        <ele>20.325</ele>
        <time>2014-07-08T10:20:49Z</time>
      </trkpt>
      <trkpt lat="59.6422208" lon="17.7036729">
        <ele>20.8057</ele>
        <time>2014-07-08T10:20:50Z</time>
      </trkpt>
      <trkpt lat="59.6421561" lon="17.7036996">
        <ele>20.8057</ele>
        <time>2014-07-08T10:20:51Z</time>
      </trkpt>
      <trkpt lat="59.6420926" lon="17.7037262">
        <ele>21.2864</ele>
        <time>2014-07-08T10:20:52Z</time>
      </trkpt>
      <trkpt lat="59.6420289" lon="17.7037577">
        <ele>21.2864</ele>
        <time>2014-07-08T10:20:53Z</time>
      </trkpt>
      <trkpt lat="59.641967" lon="17.7037873">
        <ele>21.2864</ele>
        <time>2014-07-08T10:20:54Z</time>
      </trkpt>
      <trkpt lat="59.6419048" lon="17.7038194">
        <ele>21.2864</ele>
        <time>2014-07-08T10:20:55Z</time>
      </trkpt>
      <trkpt lat="59.6418416" lon="17.7038524">
        <ele>20.8057</ele>
        <time>2014-07-08T10:20:56Z</time>
      </trkpt>
      <trkpt lat="59.6417754" lon="17.7038909">
        <ele>21.2864</ele>
        <time>2014-07-08T10:20:57Z</time>
      </trkpt>
      <trkpt lat="59.6417105" lon="17.7039264">
        <ele>21.767</ele>
        <time>2014-07-08T10:20:58Z</time>
      </trkpt>
      <trkpt lat="59.6416449" lon="17.7039616">
        <ele>21.767</ele>
        <time>2014-07-08T10:20:59Z</time>
      </trkpt>
      <trkpt lat="59.6415769" lon="17.7040023">
        <ele>22.2476</ele>
        <time>2014-07-08T10:21:00Z</time>
      </trkpt>
      <trkpt lat="59.6415075" lon="17.7040421">
        <ele>22.7283</ele>
        <time>2014-07-08T10:21:01Z</time>
      </trkpt>
      <trkpt lat="59.6414377" lon="17.7040798">
        <ele>23.209</ele>
        <time>2014-07-08T10:21:02Z</time>
      </trkpt>
      <trkpt lat="59.6413681" lon="17.7041213">
        <ele>23.6896</ele>
        <time>2014-07-08T10:21:03Z</time>
      </trkpt>
      <trkpt lat="59.6413012" lon="17.7041569">
        <ele>23.6896</ele>
        <time>2014-07-08T10:21:04Z</time>
      </trkpt>
      <trkpt lat="59.6412324" lon="17.704194">
        <ele>23.6896</ele>
        <time>2014-07-08T10:21:05Z</time>
      </trkpt>
      <trkpt lat="59.6411602" lon="17.7042356">
        <ele>24.1703</ele>
        <time>2014-07-08T10:21:06Z</time>
      </trkpt>
      <trkpt lat="59.641092" lon="17.704274">
        <ele>24.1703</ele>
        <time>2014-07-08T10:21:07Z</time>
      </trkpt>
      <trkpt lat="59.6410255" lon="17.7043082">
        <ele>24.1703</ele>
        <time>2014-07-08T10:21:08Z</time>
      </trkpt>
      <trkpt lat="59.6409573" lon="17.7043451">
        <ele>24.651</ele>
        <time>2014-07-08T10:21:09Z</time>
      </trkpt>
      <trkpt lat="59.6408886" lon="17.7043804">
        <ele>25.1317</ele>
        <time>2014-07-08T10:21:10Z</time>
      </trkpt>
      <trkpt lat="59.6408166" lon="17.7044238">
        <ele>25.1317</ele>
        <time>2014-07-08T10:21:11Z</time>
      </trkpt>
      <trkpt lat="59.6407444" lon="17.7044669">
        <ele>25.6123</ele>
        <time>2014-07-08T10:21:12Z</time>
      </trkpt>
      <trkpt lat="59.6406726" lon="17.704511">
        <ele>25.6123</ele>
        <time>2014-07-08T10:21:13Z</time>
      </trkpt>
      <trkpt lat="59.6406008" lon="17.7045549">
        <ele>25.6123</ele>
        <time>2014-07-08T10:21:14Z</time>
      </trkpt>
      <trkpt lat="59.6405305" lon="17.7045964">
        <ele>25.6123</ele>
        <time>2014-07-08T10:21:15Z</time>
      </trkpt>
      <trkpt lat="59.6404621" lon="17.7046383">
        <ele>25.6123</ele>
        <time>2014-07-08T10:21:16Z</time>
      </trkpt>
      <trkpt lat="59.6403916" lon="17.7046817">
        <ele>25.6123</ele>
        <time>2014-07-08T10:21:17Z</time>
      </trkpt>
      <trkpt lat="59.640314" lon="17.7047315">
        <ele>25.6123</ele>
        <time>2014-07-08T10:21:18Z</time>
      </trkpt>
      <trkpt lat="59.6402342" lon="17.7047979">
        <ele>25.6123</ele>
        <time>2014-07-08T10:21:19Z</time>
      </trkpt>
      <trkpt lat="59.6401607" lon="17.7048419">
        <ele>25.1317</ele>
        <time>2014-07-08T10:21:20Z</time>
      </trkpt>
      <trkpt lat="59.640089" lon="17.7048849">
        <ele>24.651</ele>
        <time>2014-07-08T10:21:21Z</time>
      </trkpt>
      <trkpt lat="59.6400126" lon="17.7049347">
        <ele>24.651</ele>
        <time>2014-07-08T10:21:22Z</time>
      </trkpt>
      <trkpt lat="59.6399361" lon="17.7049766">
        <ele>24.651</ele>
        <time>2014-07-08T10:21:23Z</time>
      </trkpt>
      <trkpt lat="59.6398633" lon="17.7050158">
        <ele>24.651</ele>
        <time>2014-07-08T10:21:24Z</time>
      </trkpt>
      <trkpt lat="59.6397865" lon="17.7050495">
        <ele>25.1317</ele>
        <time>2014-07-08T10:21:25Z</time>
      </trkpt>
      <trkpt lat="59.6397115" lon="17.7050904">
        <ele>25.6123</ele>
        <time>2014-07-08T10:21:26Z</time>
      </trkpt>
      <trkpt lat="59.6396379" lon="17.7051344">
        <ele>25.6123</ele>
        <time>2014-07-08T10:21:27Z</time>
      </trkpt>
      <trkpt lat="59.6395644" lon="17.7051801">
        <ele>26.0929</ele>
        <time>2014-07-08T10:21:28Z</time>
      </trkpt>
      <trkpt lat="59.6394922" lon="17.70522">
        <ele>26.0929</ele>
        <time>2014-07-08T10:21:29Z</time>
      </trkpt>
      <trkpt lat="59.6394148" lon="17.7052728">
        <ele>26.5736</ele>
        <time>2014-07-08T10:21:30Z</time>
      </trkpt>
      <trkpt lat="59.6393418" lon="17.7053102">
        <ele>27.0543</ele>
        <time>2014-07-08T10:21:31Z</time>
      </trkpt>
      <trkpt lat="59.6392655" lon="17.7053574">
        <ele>27.0543</ele>
        <time>2014-07-08T10:21:32Z</time>
      </trkpt>
      <trkpt lat="59.6391878" lon="17.7054095">
        <ele>27.5349</ele>
        <time>2014-07-08T10:21:33Z</time>
      </trkpt>
      <trkpt lat="59.6391105" lon="17.7054598">
        <ele>28.0155</ele>
        <time>2014-07-08T10:21:34Z</time>
      </trkpt>
      <trkpt lat="59.6390334" lon="17.7055066">
        <ele>28.0155</ele>
        <time>2014-07-08T10:21:35Z</time>
      </trkpt>
      <trkpt lat="59.6389532" lon="17.7055526">
        <ele>28.4962</ele>
        <time>2014-07-08T10:21:36Z</time>
      </trkpt>
      <trkpt lat="59.6388779" lon="17.7055936">
        <ele>28.4962</ele>
        <time>2014-07-08T10:21:37Z</time>
      </trkpt>
      <trkpt lat="59.6388044" lon="17.7056375">
        <ele>28.0155</ele>
        <time>2014-07-08T10:21:38Z</time>
      </trkpt>
      <trkpt lat="59.6387309" lon="17.7056784">
        <ele>28.0155</ele>
        <time>2014-07-08T10:21:39Z</time>
      </trkpt>
      <trkpt lat="59.6386589" lon="17.7057162">
        <ele>27.5349</ele>
        <time>2014-07-08T10:21:40Z</time>
      </trkpt>
      <trkpt lat="59.6385881" lon="17.705752">
        <ele>27.0543</ele>
        <time>2014-07-08T10:21:41Z</time>
      </trkpt>
      <trkpt lat="59.6385159" lon="17.7057893">
        <ele>27.0543</ele>
        <time>2014-07-08T10:21:42Z</time>
      </trkpt>
      <trkpt lat="59.6384481" lon="17.7058293">
        <ele>26.0929</ele>
        <time>2014-07-08T10:21:43Z</time>
      </trkpt>
      <trkpt lat="59.6383796" lon="17.7058695">
        <ele>26.0929</ele>
        <time>2014-07-08T10:21:44Z</time>
      </trkpt>
      <trkpt lat="59.6383137" lon="17.7059052">
        <ele>25.1317</ele>
        <time>2014-07-08T10:21:45Z</time>
      </trkpt>
      <trkpt lat="59.6382467" lon="17.7059422">
        <ele>25.1317</ele>
        <time>2014-07-08T10:21:46Z</time>
      </trkpt>
      <trkpt lat="59.6381777" lon="17.7059841">
        <ele>25.1317</ele>
        <time>2014-07-08T10:21:47Z</time>
      </trkpt>
      <trkpt lat="59.6381108" lon="17.7060245">
        <ele>25.1317</ele>
        <time>2014-07-08T10:21:48Z</time>
      </trkpt>
      <trkpt lat="59.6380285" lon="17.7061037">
        <ele>24.651</ele>
        <time>2014-07-08T10:21:49Z</time>
      </trkpt>
      <trkpt lat="59.6379482" lon="17.7061758">
        <ele>24.651</ele>
        <time>2014-07-08T10:21:50Z</time>
      </trkpt>
      <trkpt lat="59.6378773" lon="17.7062244">
        <ele>25.1317</ele>
        <time>2014-07-08T10:21:51Z</time>
      </trkpt>
      <trkpt lat="59.6378131" lon="17.7062804">
        <ele>24.651</ele>
        <time>2014-07-08T10:21:52Z</time>
      </trkpt>
      <trkpt lat="59.637744" lon="17.7063486">
        <ele>24.1703</ele>
        <time>2014-07-08T10:21:53Z</time>
      </trkpt>
      <trkpt lat="59.6376731" lon="17.7064273">
        <ele>23.6896</ele>
        <time>2014-07-08T10:21:54Z</time>
      </trkpt>
      <trkpt lat="59.637607" lon="17.7065104">
        <ele>23.209</ele>
        <time>2014-07-08T10:21:55Z</time>
      </trkpt>
      <trkpt lat="59.6375384" lon="17.7065998">
        <ele>22.7283</ele>
        <time>2014-07-08T10:21:56Z</time>
      </trkpt>
      <trkpt lat="59.6374712" lon="17.7066936">
        <ele>22.7283</ele>
        <time>2014-07-08T10:21:57Z</time>
      </trkpt>
      <trkpt lat="59.6374041" lon="17.706802">
        <ele>22.2476</ele>
        <time>2014-07-08T10:21:58Z</time>
      </trkpt>
      <trkpt lat="59.6373371" lon="17.7069274">
        <ele>22.7283</ele>
        <time>2014-07-08T10:21:59Z</time>
      </trkpt>
      <trkpt lat="59.6372727" lon="17.7070614">
        <ele>22.2476</ele>
        <time>2014-07-08T10:22:00Z</time>
      </trkpt>
      <trkpt lat="59.6372085" lon="17.7072004">
        <ele>22.2476</ele>
        <time>2014-07-08T10:22:01Z</time>
      </trkpt>
      <trkpt lat="59.6371474" lon="17.7073486">
        <ele>21.767</ele>
        <time>2014-07-08T10:22:02Z</time>
      </trkpt>
      <trkpt lat="59.6370881" lon="17.707506">
        <ele>21.767</ele>
        <time>2014-07-08T10:22:03Z</time>
      </trkpt>
      <trkpt lat="59.6370298" lon="17.7076708">
        <ele>21.767</ele>
        <time>2014-07-08T10:22:04Z</time>
      </trkpt>
      <trkpt lat="59.6369723" lon="17.7078417">
        <ele>21.767</ele>
        <time>2014-07-08T10:22:05Z</time>
      </trkpt>
      <trkpt lat="59.6369138" lon="17.7080137">
        <ele>21.767</ele>
        <time>2014-07-08T10:22:06Z</time>
      </trkpt>
      <trkpt lat="59.6368557" lon="17.7081834">
        <ele>21.767</ele>
        <time>2014-07-08T10:22:07Z</time>
      </trkpt>
      <trkpt lat="59.6368001" lon="17.7083488">
        <ele>21.767</ele>
        <time>2014-07-08T10:22:08Z</time>
      </trkpt>
      <trkpt lat="59.6367459" lon="17.7085106">
        <ele>21.2864</ele>
        <time>2014-07-08T10:22:09Z</time>
      </trkpt>
      <trkpt lat="59.6366915" lon="17.7086705">
        <ele>21.2864</ele>
        <time>2014-07-08T10:22:10Z</time>
      </trkpt>
      <trkpt lat="59.6366371" lon="17.7088295">
        <ele>20.8057</ele>
        <time>2014-07-08T10:22:11Z</time>
      </trkpt>
      <trkpt lat="59.6365826" lon="17.7089874">
        <ele>20.8057</ele>
        <time>2014-07-08T10:22:12Z</time>
      </trkpt>
      <trkpt lat="59.6365289" lon="17.7091454">
        <ele>20.325</ele>
        <time>2014-07-08T10:22:13Z</time>
      </trkpt>
      <trkpt lat="59.636476" lon="17.7093025">
        <ele>20.325</ele>
        <time>2014-07-08T10:22:14Z</time>
      </trkpt>
      <trkpt lat="59.6364235" lon="17.7094579">
        <ele>20.325</ele>
        <time>2014-07-08T10:22:15Z</time>
      </trkpt>
      <trkpt lat="59.6363709" lon="17.709612">
        <ele>20.8057</ele>
        <time>2014-07-08T10:22:16Z</time>
      </trkpt>
      <trkpt lat="59.6363191" lon="17.7097645">
        <ele>20.8057</ele>
        <time>2014-07-08T10:22:17Z</time>
      </trkpt>
      <trkpt lat="59.6362686" lon="17.7099153">
        <ele>20.8057</ele>
        <time>2014-07-08T10:22:18Z</time>
      </trkpt>
      <trkpt lat="59.6362186" lon="17.7100625">
        <ele>20.8057</ele>
        <time>2014-07-08T10:22:19Z</time>
      </trkpt>
      <trkpt lat="59.6361692" lon="17.7102052">
        <ele>20.8057</ele>
        <time>2014-07-08T10:22:20Z</time>
      </trkpt>
      <trkpt lat="59.6361207" lon="17.7103458">
        <ele>20.8057</ele>
        <time>2014-07-08T10:22:21Z</time>
      </trkpt>
      <trkpt lat="59.6360728" lon="17.7104849">
        <ele>20.8057</ele>
        <time>2014-07-08T10:22:22Z</time>
      </trkpt>
      <trkpt lat="59.6360253" lon="17.7106219">
        <ele>21.2864</ele>
        <time>2014-07-08T10:22:23Z</time>
      </trkpt>
      <trkpt lat="59.6359788" lon="17.7107574">
        <ele>21.2864</ele>
        <time>2014-07-08T10:22:24Z</time>
      </trkpt>
      <trkpt lat="59.6359341" lon="17.7108891">
        <ele>21.2864</ele>
        <time>2014-07-08T10:22:25Z</time>
      </trkpt>
      <trkpt lat="59.6358901" lon="17.7110192">
        <ele>21.767</ele>
        <time>2014-07-08T10:22:26Z</time>
      </trkpt>
      <trkpt lat="59.6358473" lon="17.7111455">
        <ele>21.767</ele>
        <time>2014-07-08T10:22:27Z</time>
      </trkpt>
      <trkpt lat="59.635805" lon="17.7112677">
        <ele>22.2476</ele>
        <time>2014-07-08T10:22:28Z</time>
      </trkpt>
      <trkpt lat="59.6357632" lon="17.7113869">
        <ele>22.2476</ele>
        <time>2014-07-08T10:22:29Z</time>
      </trkpt>
      <trkpt lat="59.6357222" lon="17.7115059">
        <ele>22.7283</ele>
        <time>2014-07-08T10:22:30Z</time>
      </trkpt>
      <trkpt lat="59.635682" lon="17.7116257">
        <ele>22.7283</ele>
        <time>2014-07-08T10:22:31Z</time>
      </trkpt>
      <trkpt lat="59.6356422" lon="17.7117439">
        <ele>22.7283</ele>
        <time>2014-07-08T10:22:32Z</time>
      </trkpt>
      <trkpt lat="59.6356022" lon="17.7118594">
        <ele>22.7283</ele>
        <time>2014-07-08T10:22:33Z</time>
      </trkpt>
      <trkpt lat="59.6355623" lon="17.7119734">
        <ele>22.7283</ele>
        <time>2014-07-08T10:22:34Z</time>
      </trkpt>
      <trkpt lat="59.6355238" lon="17.7120824">
        <ele>23.209</ele>
        <time>2014-07-08T10:22:35Z</time>
      </trkpt>
      <trkpt lat="59.6354859" lon="17.7121903">
        <ele>23.6896</ele>
        <time>2014-07-08T10:22:36Z</time>
      </trkpt>
      <trkpt lat="59.6354488" lon="17.7122971">
        <ele>23.6896</ele>
        <time>2014-07-08T10:22:37Z</time>
      </trkpt>
      <trkpt lat="59.6354139" lon="17.7124055">
        <ele>23.6896</ele>
        <time>2014-07-08T10:22:38Z</time>
      </trkpt>
      <trkpt lat="59.6353771" lon="17.712515">
        <ele>23.6896</ele>
        <time>2014-07-08T10:22:39Z</time>
      </trkpt>
      <trkpt lat="59.6353395" lon="17.7126224">
        <ele>23.6896</ele>
        <time>2014-07-08T10:22:40Z</time>
      </trkpt>
      <trkpt lat="59.6353025" lon="17.7127294">
        <ele>23.6896</ele>
        <time>2014-07-08T10:22:41Z</time>
      </trkpt>
      <trkpt lat="59.6352659" lon="17.7128312">
        <ele>23.6896</ele>
        <time>2014-07-08T10:22:42Z</time>
      </trkpt>
      <trkpt lat="59.6352297" lon="17.7129296">
        <ele>24.1703</ele>
        <time>2014-07-08T10:22:43Z</time>
      </trkpt>
      <trkpt lat="59.635196" lon="17.7130262">
        <ele>25.1317</ele>
        <time>2014-07-08T10:22:44Z</time>
      </trkpt>
      <trkpt lat="59.6351608" lon="17.7131207">
        <ele>25.1317</ele>
        <time>2014-07-08T10:22:45Z</time>
      </trkpt>
      <trkpt lat="59.6351275" lon="17.7132127">
        <ele>26.0929</ele>
        <time>2014-07-08T10:22:46Z</time>
      </trkpt>
      <trkpt lat="59.6350933" lon="17.7133024">
        <ele>27.0543</ele>
        <time>2014-07-08T10:22:47Z</time>
      </trkpt>
      <trkpt lat="59.6350592" lon="17.7133902">
        <ele>28.0155</ele>
        <time>2014-07-08T10:22:48Z</time>
      </trkpt>
      <trkpt lat="59.6350234" lon="17.7134725">
        <ele>28.9769</ele>
        <time>2014-07-08T10:22:49Z</time>
      </trkpt>
      <trkpt lat="59.6349874" lon="17.7135512">
        <ele>30.4188</ele>
        <time>2014-07-08T10:22:50Z</time>
      </trkpt>
      <trkpt lat="59.6349516" lon="17.7136277">
        <ele>31.3801</ele>
        <time>2014-07-08T10:22:51Z</time>
      </trkpt>
      <trkpt lat="59.6349137" lon="17.7136937">
        <ele>31.8607</ele>
        <time>2014-07-08T10:22:52Z</time>
      </trkpt>
      <trkpt lat="59.6348752" lon="17.7137533">
        <ele>31.8607</ele>
        <time>2014-07-08T10:22:53Z</time>
      </trkpt>
      <trkpt lat="59.634835" lon="17.7138107">
        <ele>32.3416</ele>
        <time>2014-07-08T10:22:54Z</time>
      </trkpt>
      <trkpt lat="59.6347956" lon="17.7138631">
        <ele>32.3416</ele>
        <time>2014-07-08T10:22:55Z</time>
      </trkpt>
      <trkpt lat="59.6347569" lon="17.7139126">
        <ele>32.3416</ele>
        <time>2014-07-08T10:22:56Z</time>
      </trkpt>
      <trkpt lat="59.6347165" lon="17.7139598">
        <ele>32.3416</ele>
        <time>2014-07-08T10:22:57Z</time>
      </trkpt>
      <trkpt lat="59.6346734" lon="17.7140065">
        <ele>31.8607</ele>
        <time>2014-07-08T10:22:58Z</time>
      </trkpt>
      <trkpt lat="59.6346302" lon="17.714054">
        <ele>31.3801</ele>
        <time>2014-07-08T10:22:59Z</time>
      </trkpt>
      <trkpt lat="59.6345879" lon="17.7141035">
        <ele>30.8995</ele>
        <time>2014-07-08T10:23:00Z</time>
      </trkpt>
      <trkpt lat="59.634546" lon="17.7141532">
        <ele>30.4188</ele>
        <time>2014-07-08T10:23:01Z</time>
      </trkpt>
      <trkpt lat="59.6345045" lon="17.7141991">
        <ele>30.4188</ele>
        <time>2014-07-08T10:23:02Z</time>
      </trkpt>
      <trkpt lat="59.6344696" lon="17.7142416">
        <ele>30.4188</ele>
        <time>2014-07-08T10:23:03Z</time>
      </trkpt>
      <trkpt lat="59.6344325" lon="17.7142921">
        <ele>29.9381</ele>
        <time>2014-07-08T10:23:04Z</time>
      </trkpt>
      <trkpt lat="59.6343916" lon="17.7143442">
        <ele>29.4575</ele>
        <time>2014-07-08T10:23:05Z</time>
      </trkpt>
      <trkpt lat="59.6343492" lon="17.7143924">
        <ele>28.9769</ele>
        <time>2014-07-08T10:23:06Z</time>
      </trkpt>
      <trkpt lat="59.6343066" lon="17.7144411">
        <ele>28.9769</ele>
        <time>2014-07-08T10:23:07Z</time>
      </trkpt>
      <trkpt lat="59.6342647" lon="17.714485">
        <ele>30.4188</ele>
        <time>2014-07-08T10:23:08Z</time>
      </trkpt>
      <trkpt lat="59.6342216" lon="17.7145292">
        <ele>30.4188</ele>
        <time>2014-07-08T10:23:09Z</time>
      </trkpt>
      <trkpt lat="59.634179" lon="17.7145722">
        <ele>30.4188</ele>
        <time>2014-07-08T10:23:10Z</time>
      </trkpt>
      <trkpt lat="59.6341372" lon="17.714623">
        <ele>30.4188</ele>
        <time>2014-07-08T10:23:11Z</time>
      </trkpt>
      <trkpt lat="59.634089" lon="17.7146862">
        <ele>29.9381</ele>
        <time>2014-07-08T10:23:12Z</time>
      </trkpt>
      <trkpt lat="59.634036" lon="17.7147445">
        <ele>28.9769</ele>
        <time>2014-07-08T10:23:13Z</time>
      </trkpt>
      <trkpt lat="59.6339849" lon="17.7147929">
        <ele>28.4962</ele>
        <time>2014-07-08T10:23:14Z</time>
      </trkpt>
      <trkpt lat="59.6339362" lon="17.7148383">
        <ele>28.0155</ele>
        <time>2014-07-08T10:23:15Z</time>
      </trkpt>
      <trkpt lat="59.6338896" lon="17.7148877">
        <ele>28.4962</ele>
        <time>2014-07-08T10:23:16Z</time>
      </trkpt>
      <trkpt lat="59.6338426" lon="17.7149377">
        <ele>28.9769</ele>
        <time>2014-07-08T10:23:17Z</time>
      </trkpt>
      <trkpt lat="59.6337951" lon="17.7149865">
        <ele>28.9769</ele>
        <time>2014-07-08T10:23:18Z</time>
      </trkpt>
      <trkpt lat="59.6337475" lon="17.7150374">
        <ele>28.9769</ele>
        <time>2014-07-08T10:23:19Z</time>
      </trkpt>
      <trkpt lat="59.6337004" lon="17.7150908">
        <ele>29.4575</ele>
        <time>2014-07-08T10:23:20Z</time>
      </trkpt>
      <trkpt lat="59.633653" lon="17.7151456">
        <ele>29.9381</ele>
        <time>2014-07-08T10:23:21Z</time>
      </trkpt>
      <trkpt lat="59.6336037" lon="17.7152015">
        <ele>29.9381</ele>
        <time>2014-07-08T10:23:22Z</time>
      </trkpt>
      <trkpt lat="59.633554" lon="17.7152532">
        <ele>29.9381</ele>
        <time>2014-07-08T10:23:23Z</time>
      </trkpt>
      <trkpt lat="59.6335046" lon="17.7153047">
        <ele>30.4188</ele>
        <time>2014-07-08T10:23:24Z</time>
      </trkpt>
      <trkpt lat="59.633454" lon="17.715359">
        <ele>30.4188</ele>
        <time>2014-07-08T10:23:25Z</time>
      </trkpt>
      <trkpt lat="59.6334026" lon="17.7154159">
        <ele>30.4188</ele>
        <time>2014-07-08T10:23:26Z</time>
      </trkpt>
      <trkpt lat="59.6333499" lon="17.715474">
        <ele>30.4188</ele>
        <time>2014-07-08T10:23:27Z</time>
      </trkpt>
      <trkpt lat="59.6332965" lon="17.7155306">
        <ele>30.4188</ele>
        <time>2014-07-08T10:23:28Z</time>
      </trkpt>
      <trkpt lat="59.6332426" lon="17.7155865">
        <ele>30.4188</ele>
        <time>2014-07-08T10:23:29Z</time>
      </trkpt>
      <trkpt lat="59.6331877" lon="17.7156464">
        <ele>30.4188</ele>
        <time>2014-07-08T10:23:30Z</time>
      </trkpt>
      <trkpt lat="59.6331316" lon="17.7157057">
        <ele>30.4188</ele>
        <time>2014-07-08T10:23:31Z</time>
      </trkpt>
      <trkpt lat="59.6330753" lon="17.7157672">
        <ele>30.8995</ele>
        <time>2014-07-08T10:23:32Z</time>
      </trkpt>
      <trkpt lat="59.6330184" lon="17.7158311">
        <ele>30.4188</ele>
        <time>2014-07-08T10:23:33Z</time>
      </trkpt>
      <trkpt lat="59.6329615" lon="17.7158945">
        <ele>30.4188</ele>
        <time>2014-07-08T10:23:34Z</time>
      </trkpt>
      <trkpt lat="59.6329043" lon="17.7159584">
        <ele>30.4188</ele>
        <time>2014-07-08T10:23:35Z</time>
      </trkpt>
      <trkpt lat="59.6328489" lon="17.7160206">
        <ele>29.9381</ele>
        <time>2014-07-08T10:23:36Z</time>
      </trkpt>
      <trkpt lat="59.6327925" lon="17.7160843">
        <ele>29.4575</ele>
        <time>2014-07-08T10:23:37Z</time>
      </trkpt>
      <trkpt lat="59.6327355" lon="17.7161475">
        <ele>29.4575</ele>
        <time>2014-07-08T10:23:38Z</time>
      </trkpt>
      <trkpt lat="59.6326783" lon="17.7162148">
        <ele>29.4575</ele>
        <time>2014-07-08T10:23:39Z</time>
      </trkpt>
      <trkpt lat="59.6326215" lon="17.7162796">
        <ele>28.9769</ele>
        <time>2014-07-08T10:23:40Z</time>
      </trkpt>
      <trkpt lat="59.6325649" lon="17.7163467">
        <ele>29.4575</ele>
        <time>2014-07-08T10:23:41Z</time>
      </trkpt>
      <trkpt lat="59.6325076" lon="17.7164153">
        <ele>29.4575</ele>
        <time>2014-07-08T10:23:42Z</time>
      </trkpt>
      <trkpt lat="59.6324497" lon="17.7164838">
        <ele>29.4575</ele>
        <time>2014-07-08T10:23:43Z</time>
      </trkpt>
      <trkpt lat="59.632392" lon="17.7165515">
        <ele>29.9381</ele>
        <time>2014-07-08T10:23:44Z</time>
      </trkpt>
      <trkpt lat="59.6323361" lon="17.716624">
        <ele>30.4188</ele>
        <time>2014-07-08T10:23:45Z</time>
      </trkpt>
      <trkpt lat="59.6322777" lon="17.7166943">
        <ele>31.3801</ele>
        <time>2014-07-08T10:23:46Z</time>
      </trkpt>
      <trkpt lat="59.6322195" lon="17.7167608">
        <ele>31.3801</ele>
        <time>2014-07-08T10:23:47Z</time>
      </trkpt>
      <trkpt lat="59.6321614" lon="17.7168282">
        <ele>31.3801</ele>
        <time>2014-07-08T10:23:48Z</time>
      </trkpt>
      <trkpt lat="59.6321008" lon="17.7168968">
        <ele>31.3801</ele>
        <time>2014-07-08T10:23:49Z</time>
      </trkpt>
      <trkpt lat="59.6320398" lon="17.7169644">
        <ele>30.8995</ele>
        <time>2014-07-08T10:23:50Z</time>
      </trkpt>
      <trkpt lat="59.6319781" lon="17.7170336">
        <ele>30.8995</ele>
        <time>2014-07-08T10:23:51Z</time>
      </trkpt>
      <trkpt lat="59.631915" lon="17.7171037">
        <ele>30.8995</ele>
        <time>2014-07-08T10:23:52Z</time>
      </trkpt>
      <trkpt lat="59.6318502" lon="17.717175">
        <ele>30.8995</ele>
        <time>2014-07-08T10:23:53Z</time>
      </trkpt>
      <trkpt lat="59.6317849" lon="17.7172472">
        <ele>30.8995</ele>
        <time>2014-07-08T10:23:54Z</time>
      </trkpt>
      <trkpt lat="59.6317192" lon="17.7173191">
        <ele>30.4188</ele>
        <time>2014-07-08T10:23:55Z</time>
      </trkpt>
      <trkpt lat="59.6316528" lon="17.7173907">
        <ele>30.4188</ele>
        <time>2014-07-08T10:23:56Z</time>
      </trkpt>
      <trkpt lat="59.6315855" lon="17.7174637">
        <ele>30.4188</ele>
        <time>2014-07-08T10:23:57Z</time>
      </trkpt>
      <trkpt lat="59.6315182" lon="17.7175382">
        <ele>30.4188</ele>
        <time>2014-07-08T10:23:58Z</time>
      </trkpt>
      <trkpt lat="59.6314511" lon="17.7176135">
        <ele>30.4188</ele>
        <time>2014-07-08T10:23:59Z</time>
      </trkpt>
      <trkpt lat="59.6313838" lon="17.7176881">
        <ele>30.4188</ele>
        <time>2014-07-08T10:24:00Z</time>
      </trkpt>
      <trkpt lat="59.6313162" lon="17.7177624">
        <ele>30.4188</ele>
        <time>2014-07-08T10:24:01Z</time>
      </trkpt>
      <trkpt lat="59.6312479" lon="17.7178367">
        <ele>29.9381</ele>
        <time>2014-07-08T10:24:02Z</time>
      </trkpt>
      <trkpt lat="59.6311789" lon="17.7179133">
        <ele>29.9381</ele>
        <time>2014-07-08T10:24:03Z</time>
      </trkpt>
      <trkpt lat="59.631109" lon="17.7179916">
        <ele>29.9381</ele>
        <time>2014-07-08T10:24:04Z</time>
      </trkpt>
      <trkpt lat="59.6310378" lon="17.7180699">
        <ele>29.9381</ele>
        <time>2014-07-08T10:24:05Z</time>
      </trkpt>
      <trkpt lat="59.6309655" lon="17.7181489">
        <ele>29.9381</ele>
        <time>2014-07-08T10:24:06Z</time>
      </trkpt>
      <trkpt lat="59.6308932" lon="17.7182295">
        <ele>29.9381</ele>
        <time>2014-07-08T10:24:07Z</time>
      </trkpt>
      <trkpt lat="59.6308209" lon="17.7183103">
        <ele>29.9381</ele>
        <time>2014-07-08T10:24:08Z</time>
      </trkpt>
      <trkpt lat="59.6307485" lon="17.718389">
        <ele>29.9381</ele>
        <time>2014-07-08T10:24:09Z</time>
      </trkpt>
      <trkpt lat="59.6306772" lon="17.718468">
        <ele>29.9381</ele>
        <time>2014-07-08T10:24:10Z</time>
      </trkpt>
      <trkpt lat="59.630607" lon="17.7185474">
        <ele>29.9381</ele>
        <time>2014-07-08T10:24:11Z</time>
      </trkpt>
      <trkpt lat="59.6305374" lon="17.7186239">
        <ele>29.9381</ele>
        <time>2014-07-08T10:24:12Z</time>
      </trkpt>
      <trkpt lat="59.6304678" lon="17.7186988">
        <ele>29.9381</ele>
        <time>2014-07-08T10:24:13Z</time>
      </trkpt>
      <trkpt lat="59.6303989" lon="17.7187744">
        <ele>29.9381</ele>
        <time>2014-07-08T10:24:14Z</time>
      </trkpt>
      <trkpt lat="59.6303303" lon="17.7188506">
        <ele>29.4575</ele>
        <time>2014-07-08T10:24:15Z</time>
      </trkpt>
      <trkpt lat="59.6302619" lon="17.718927">
        <ele>29.4575</ele>
        <time>2014-07-08T10:24:16Z</time>
      </trkpt>
      <trkpt lat="59.6301934" lon="17.7190032">
        <ele>29.4575</ele>
        <time>2014-07-08T10:24:17Z</time>
      </trkpt>
      <trkpt lat="59.6301242" lon="17.7190794">
        <ele>29.4575</ele>
        <time>2014-07-08T10:24:18Z</time>
      </trkpt>
      <trkpt lat="59.6300543" lon="17.7191566">
        <ele>29.4575</ele>
        <time>2014-07-08T10:24:19Z</time>
      </trkpt>
      <trkpt lat="59.6299847" lon="17.7192358">
        <ele>29.4575</ele>
        <time>2014-07-08T10:24:20Z</time>
      </trkpt>
      <trkpt lat="59.629915" lon="17.7193151">
        <ele>29.9381</ele>
        <time>2014-07-08T10:24:21Z</time>
      </trkpt>
      <trkpt lat="59.6298453" lon="17.7193938">
        <ele>29.9381</ele>
        <time>2014-07-08T10:24:22Z</time>
      </trkpt>
      <trkpt lat="59.6297752" lon="17.7194726">
        <ele>29.9381</ele>
        <time>2014-07-08T10:24:23Z</time>
      </trkpt>
      <trkpt lat="59.6297047" lon="17.7195513">
        <ele>29.9381</ele>
        <time>2014-07-08T10:24:24Z</time>
      </trkpt>
      <trkpt lat="59.629634" lon="17.7196307">
        <ele>29.9381</ele>
        <time>2014-07-08T10:24:25Z</time>
      </trkpt>
      <trkpt lat="59.6295633" lon="17.7197102">
        <ele>29.9381</ele>
        <time>2014-07-08T10:24:26Z</time>
      </trkpt>
      <trkpt lat="59.6294927" lon="17.7197899">
        <ele>29.9381</ele>
        <time>2014-07-08T10:24:27Z</time>
      </trkpt>
      <trkpt lat="59.6294169" lon="17.7198735">
        <ele>29.9381</ele>
        <time>2014-07-08T10:24:28Z</time>
      </trkpt>
      <trkpt lat="59.6293414" lon="17.7199542">
        <ele>29.9381</ele>
        <time>2014-07-08T10:24:29Z</time>
      </trkpt>
      <trkpt lat="59.629271" lon="17.7200304">
        <ele>30.4188</ele>
        <time>2014-07-08T10:24:30Z</time>
      </trkpt>
      <trkpt lat="59.6292021" lon="17.7201052">
        <ele>30.4188</ele>
        <time>2014-07-08T10:24:31Z</time>
      </trkpt>
      <trkpt lat="59.6291353" lon="17.7201795">
        <ele>30.4188</ele>
        <time>2014-07-08T10:24:32Z</time>
      </trkpt>
      <trkpt lat="59.6290699" lon="17.7202522">
        <ele>30.4188</ele>
        <time>2014-07-08T10:24:33Z</time>
      </trkpt>
      <trkpt lat="59.6290058" lon="17.7203229">
        <ele>30.4188</ele>
        <time>2014-07-08T10:24:34Z</time>
      </trkpt>
      <trkpt lat="59.6289422" lon="17.7203909">
        <ele>30.4188</ele>
        <time>2014-07-08T10:24:35Z</time>
      </trkpt>
      <trkpt lat="59.6288792" lon="17.7204573">
        <ele>30.4188</ele>
        <time>2014-07-08T10:24:36Z</time>
      </trkpt>
      <trkpt lat="59.6288165" lon="17.720523">
        <ele>30.4188</ele>
        <time>2014-07-08T10:24:37Z</time>
      </trkpt>
      <trkpt lat="59.6287544" lon="17.7205878">
        <ele>30.4188</ele>
        <time>2014-07-08T10:24:38Z</time>
      </trkpt>
      <trkpt lat="59.6286877" lon="17.7206458">
        <ele>30.8995</ele>
        <time>2014-07-08T10:24:39Z</time>
      </trkpt>
      <trkpt lat="59.6286234" lon="17.7207023">
        <ele>30.8995</ele>
        <time>2014-07-08T10:24:40Z</time>
      </trkpt>
      <trkpt lat="59.6285609" lon="17.7207581">
        <ele>31.3801</ele>
        <time>2014-07-08T10:24:41Z</time>
      </trkpt>
      <trkpt lat="59.6284991" lon="17.7208096">
        <ele>31.8607</ele>
        <time>2014-07-08T10:24:42Z</time>
      </trkpt>
      <trkpt lat="59.6284376" lon="17.7208586">
        <ele>32.3416</ele>
        <time>2014-07-08T10:24:43Z</time>
      </trkpt>
      <trkpt lat="59.6283763" lon="17.7209059">
        <ele>32.8223</ele>
        <time>2014-07-08T10:24:44Z</time>
      </trkpt>
      <trkpt lat="59.6283147" lon="17.720953">
        <ele>32.8223</ele>
        <time>2014-07-08T10:24:45Z</time>
      </trkpt>
      <trkpt lat="59.6282542" lon="17.7210023">
        <ele>33.3029</ele>
        <time>2014-07-08T10:24:46Z</time>
      </trkpt>
      <trkpt lat="59.6281946" lon="17.7210528">
        <ele>33.7834</ele>
        <time>2014-07-08T10:24:47Z</time>
      </trkpt>
      <trkpt lat="59.628135" lon="17.7211031">
        <ele>33.7834</ele>
        <time>2014-07-08T10:24:48Z</time>
      </trkpt>
      <trkpt lat="59.6280768" lon="17.7211539">
        <ele>34.2642</ele>
        <time>2014-07-08T10:24:49Z</time>
      </trkpt>
      <trkpt lat="59.6280264" lon="17.7212157">
        <ele>34.7449</ele>
        <time>2014-07-08T10:24:50Z</time>
      </trkpt>
      <trkpt lat="59.6279786" lon="17.7212807">
        <ele>35.2255</ele>
        <time>2014-07-08T10:24:51Z</time>
      </trkpt>
      <trkpt lat="59.6279233" lon="17.7213403">
        <ele>35.2255</ele>
        <time>2014-07-08T10:24:52Z</time>
      </trkpt>
      <trkpt lat="59.6278682" lon="17.7213923">
        <ele>35.2255</ele>
        <time>2014-07-08T10:24:53Z</time>
      </trkpt>
      <trkpt lat="59.6278159" lon="17.7214426">
        <ele>35.2255</ele>
        <time>2014-07-08T10:24:54Z</time>
      </trkpt>
      <trkpt lat="59.627761" lon="17.7214891">
        <ele>35.2255</ele>
        <time>2014-07-08T10:24:55Z</time>
      </trkpt>
      <trkpt lat="59.6277025" lon="17.7215212">
        <ele>35.2255</ele>
        <time>2014-07-08T10:24:56Z</time>
      </trkpt>
      <trkpt lat="59.6276417" lon="17.7215299">
        <ele>35.2255</ele>
        <time>2014-07-08T10:24:57Z</time>
      </trkpt>
      <trkpt lat="59.6275823" lon="17.7215107">
        <ele>35.2255</ele>
        <time>2014-07-08T10:24:58Z</time>
      </trkpt>
      <trkpt lat="59.6275272" lon="17.7214711">
        <ele>35.2255</ele>
        <time>2014-07-08T10:24:59Z</time>
      </trkpt>
      <trkpt lat="59.6274744" lon="17.7214312">
        <ele>34.7449</ele>
        <time>2014-07-08T10:25:00Z</time>
      </trkpt>
      <trkpt lat="59.6274197" lon="17.7214134">
        <ele>34.7449</ele>
        <time>2014-07-08T10:25:01Z</time>
      </trkpt>
      <trkpt lat="59.6273651" lon="17.7214233">
        <ele>34.7449</ele>
        <time>2014-07-08T10:25:02Z</time>
      </trkpt>
      <trkpt lat="59.6273114" lon="17.7214545">
        <ele>34.7449</ele>
        <time>2014-07-08T10:25:03Z</time>
      </trkpt>
      <trkpt lat="59.6272586" lon="17.7214979">
        <ele>34.7449</ele>
        <time>2014-07-08T10:25:04Z</time>
      </trkpt>
      <trkpt lat="59.6272063" lon="17.7215477">
        <ele>34.7449</ele>
        <time>2014-07-08T10:25:05Z</time>
      </trkpt>
      <trkpt lat="59.6271546" lon="17.7215963">
        <ele>34.2642</ele>
        <time>2014-07-08T10:25:06Z</time>
      </trkpt>
      <trkpt lat="59.6271021" lon="17.7216415">
        <ele>34.2642</ele>
        <time>2014-07-08T10:25:07Z</time>
      </trkpt>
      <trkpt lat="59.6270492" lon="17.7216833">
        <ele>34.2642</ele>
        <time>2014-07-08T10:25:08Z</time>
      </trkpt>
      <trkpt lat="59.626996" lon="17.7217162">
        <ele>33.7834</ele>
        <time>2014-07-08T10:25:09Z</time>
      </trkpt>
      <trkpt lat="59.6269432" lon="17.721742">
        <ele>33.7834</ele>
        <time>2014-07-08T10:25:10Z</time>
      </trkpt>
      <trkpt lat="59.6268916" lon="17.7217654">
        <ele>33.7834</ele>
        <time>2014-07-08T10:25:11Z</time>
      </trkpt>
      <trkpt lat="59.6268395" lon="17.7217861">
        <ele>33.7834</ele>
        <time>2014-07-08T10:25:12Z</time>
      </trkpt>
      <trkpt lat="59.6267877" lon="17.7218011">
        <ele>33.3029</ele>
        <time>2014-07-08T10:25:13Z</time>
      </trkpt>
      <trkpt lat="59.6267357" lon="17.7218143">
        <ele>33.3029</ele>
        <time>2014-07-08T10:25:14Z</time>
      </trkpt>
      <trkpt lat="59.6266826" lon="17.7218262">
        <ele>33.3029</ele>
        <time>2014-07-08T10:25:15Z</time>
      </trkpt>
      <trkpt lat="59.6266296" lon="17.7218368">
        <ele>33.3029</ele>
        <time>2014-07-08T10:25:16Z</time>
      </trkpt>
      <trkpt lat="59.6265778" lon="17.7218445">
        <ele>33.3029</ele>
        <time>2014-07-08T10:25:17Z</time>
      </trkpt>
      <trkpt lat="59.6265266" lon="17.7218448">
        <ele>33.3029</ele>
        <time>2014-07-08T10:25:18Z</time>
      </trkpt>
      <trkpt lat="59.6264755" lon="17.7218429">
        <ele>32.8223</ele>
        <time>2014-07-08T10:25:19Z</time>
      </trkpt>
      <trkpt lat="59.6264252" lon="17.7218445">
        <ele>32.8223</ele>
        <time>2014-07-08T10:25:20Z</time>
      </trkpt>
      <trkpt lat="59.6263759" lon="17.7218465">
        <ele>32.8223</ele>
        <time>2014-07-08T10:25:21Z</time>
      </trkpt>
      <trkpt lat="59.6263273" lon="17.7218483">
        <ele>32.8223</ele>
        <time>2014-07-08T10:25:22Z</time>
      </trkpt>
      <trkpt lat="59.626281" lon="17.7218482">
        <ele>32.8223</ele>
        <time>2014-07-08T10:25:23Z</time>
      </trkpt>
      <trkpt lat="59.6262354" lon="17.7218482">
        <ele>32.8223</ele>
        <time>2014-07-08T10:25:24Z</time>
      </trkpt>
      <trkpt lat="59.6261904" lon="17.7218425">
        <ele>32.8223</ele>
        <time>2014-07-08T10:25:25Z</time>
      </trkpt>
      <trkpt lat="59.6261465" lon="17.7218264">
        <ele>32.8223</ele>
        <time>2014-07-08T10:25:26Z</time>
      </trkpt>
      <trkpt lat="59.6261048" lon="17.7217969">
        <ele>32.8223</ele>
        <time>2014-07-08T10:25:27Z</time>
      </trkpt>
      <trkpt lat="59.6260636" lon="17.7217625">
        <ele>32.8223</ele>
        <time>2014-07-08T10:25:28Z</time>
      </trkpt>
      <trkpt lat="59.626021" lon="17.7217438">
        <ele>32.8223</ele>
        <time>2014-07-08T10:25:29Z</time>
      </trkpt>
      <trkpt lat="59.625977" lon="17.7217498">
        <ele>32.8223</ele>
        <time>2014-07-08T10:25:30Z</time>
      </trkpt>
      <trkpt lat="59.6259312" lon="17.7217695">
        <ele>32.3416</ele>
        <time>2014-07-08T10:25:31Z</time>
      </trkpt>
      <trkpt lat="59.6258822" lon="17.7217886">
        <ele>32.3416</ele>
        <time>2014-07-08T10:25:32Z</time>
      </trkpt>
      <trkpt lat="59.6258307" lon="17.7217969">
        <ele>32.3416</ele>
        <time>2014-07-08T10:25:33Z</time>
      </trkpt>
      <trkpt lat="59.625778" lon="17.7217942">
        <ele>32.8223</ele>
        <time>2014-07-08T10:25:34Z</time>
      </trkpt>
      <trkpt lat="59.6257238" lon="17.7217855">
        <ele>32.3416</ele>
        <time>2014-07-08T10:25:35Z</time>
      </trkpt>
      <trkpt lat="59.6256696" lon="17.7217715">
        <ele>32.3416</ele>
        <time>2014-07-08T10:25:36Z</time>
      </trkpt>
      <trkpt lat="59.625616" lon="17.721753">
        <ele>32.3416</ele>
        <time>2014-07-08T10:25:37Z</time>
      </trkpt>
      <trkpt lat="59.6255616" lon="17.7217393">
        <ele>32.8223</ele>
        <time>2014-07-08T10:25:38Z</time>
      </trkpt>
      <trkpt lat="59.6255062" lon="17.7217258">
        <ele>32.3416</ele>
        <time>2014-07-08T10:25:39Z</time>
      </trkpt>
      <trkpt lat="59.6254497" lon="17.7217088">
        <ele>32.3416</ele>
        <time>2014-07-08T10:25:40Z</time>
      </trkpt>
      <trkpt lat="59.6253923" lon="17.7216954">
        <ele>32.3416</ele>
        <time>2014-07-08T10:25:41Z</time>
      </trkpt>
      <trkpt lat="59.6253321" lon="17.7216843">
        <ele>32.3416</ele>
        <time>2014-07-08T10:25:42Z</time>
      </trkpt>
      <trkpt lat="59.6252684" lon="17.7216616">
        <ele>31.8607</ele>
        <time>2014-07-08T10:25:43Z</time>
      </trkpt>
      <trkpt lat="59.6252042" lon="17.7216384">
        <ele>31.8607</ele>
        <time>2014-07-08T10:25:44Z</time>
      </trkpt>
      <trkpt lat="59.6251399" lon="17.7216249">
        <ele>31.8607</ele>
        <time>2014-07-08T10:25:45Z</time>
      </trkpt>
      <trkpt lat="59.6250736" lon="17.7216152">
        <ele>31.8607</ele>
        <time>2014-07-08T10:25:46Z</time>
      </trkpt>
      <trkpt lat="59.6250055" lon="17.7216041">
        <ele>31.3801</ele>
        <time>2014-07-08T10:25:47Z</time>
      </trkpt>
      <trkpt lat="59.6249363" lon="17.7215938">
        <ele>31.3801</ele>
        <time>2014-07-08T10:25:48Z</time>
      </trkpt>
      <trkpt lat="59.6248669" lon="17.7215861">
        <ele>30.8995</ele>
        <time>2014-07-08T10:25:49Z</time>
      </trkpt>
      <trkpt lat="59.6247965" lon="17.7215771">
        <ele>30.8995</ele>
        <time>2014-07-08T10:25:50Z</time>
      </trkpt>
      <trkpt lat="59.6247255" lon="17.7215659">
        <ele>30.4188</ele>
        <time>2014-07-08T10:25:51Z</time>
      </trkpt>
      <trkpt lat="59.6246536" lon="17.7215535">
        <ele>30.4188</ele>
        <time>2014-07-08T10:25:52Z</time>
      </trkpt>
      <trkpt lat="59.6245815" lon="17.721541">
        <ele>30.4188</ele>
        <time>2014-07-08T10:25:53Z</time>
      </trkpt>
      <trkpt lat="59.6245086" lon="17.7215291">
        <ele>29.9381</ele>
        <time>2014-07-08T10:25:54Z</time>
      </trkpt>
      <trkpt lat="59.6244344" lon="17.7215212">
        <ele>29.4575</ele>
        <time>2014-07-08T10:25:55Z</time>
      </trkpt>
      <trkpt lat="59.6243593" lon="17.7215156">
        <ele>29.4575</ele>
        <time>2014-07-08T10:25:56Z</time>
      </trkpt>
      <trkpt lat="59.624283" lon="17.7215114">
        <ele>28.9769</ele>
        <time>2014-07-08T10:25:57Z</time>
      </trkpt>
      <trkpt lat="59.6242052" lon="17.7215063">
        <ele>28.4962</ele>
        <time>2014-07-08T10:25:58Z</time>
      </trkpt>
      <trkpt lat="59.6241257" lon="17.7215011">
        <ele>28.4962</ele>
        <time>2014-07-08T10:25:59Z</time>
      </trkpt>
      <trkpt lat="59.6240448" lon="17.7214973">
        <ele>28.0155</ele>
        <time>2014-07-08T10:26:00Z</time>
      </trkpt>
      <trkpt lat="59.6239623" lon="17.7214967">
        <ele>27.5349</ele>
        <time>2014-07-08T10:26:01Z</time>
      </trkpt>
      <trkpt lat="59.623878" lon="17.7215021">
        <ele>27.0543</ele>
        <time>2014-07-08T10:26:02Z</time>
      </trkpt>
      <trkpt lat="59.6237926" lon="17.72151">
        <ele>26.5736</ele>
        <time>2014-07-08T10:26:03Z</time>
      </trkpt>
      <trkpt lat="59.623706" lon="17.7215145">
        <ele>26.5736</ele>
        <time>2014-07-08T10:26:04Z</time>
      </trkpt>
      <trkpt lat="59.6236189" lon="17.7215156">
        <ele>26.0929</ele>
        <time>2014-07-08T10:26:05Z</time>
      </trkpt>
      <trkpt lat="59.6235315" lon="17.7215166">
        <ele>25.6123</ele>
        <time>2014-07-08T10:26:06Z</time>
      </trkpt>
      <trkpt lat="59.6234439" lon="17.7215193">
        <ele>25.6123</ele>
        <time>2014-07-08T10:26:07Z</time>
      </trkpt>
      <trkpt lat="59.6233562" lon="17.7215258">
        <ele>25.1317</ele>
        <time>2014-07-08T10:26:08Z</time>
      </trkpt>
      <trkpt lat="59.6232681" lon="17.7215352">
        <ele>24.651</ele>
        <time>2014-07-08T10:26:09Z</time>
      </trkpt>
      <trkpt lat="59.6231793" lon="17.7215517">
        <ele>24.651</ele>
        <time>2014-07-08T10:26:10Z</time>
      </trkpt>
      <trkpt lat="59.6230907" lon="17.7215732">
        <ele>24.651</ele>
        <time>2014-07-08T10:26:11Z</time>
      </trkpt>
      <trkpt lat="59.6230022" lon="17.7215945">
        <ele>24.1703</ele>
        <time>2014-07-08T10:26:12Z</time>
      </trkpt>
      <trkpt lat="59.6229147" lon="17.7216164">
        <ele>24.1703</ele>
        <time>2014-07-08T10:26:13Z</time>
      </trkpt>
      <trkpt lat="59.622829" lon="17.7216404">
        <ele>24.1703</ele>
        <time>2014-07-08T10:26:14Z</time>
      </trkpt>
      <trkpt lat="59.6227431" lon="17.7216673">
        <ele>23.6896</ele>
        <time>2014-07-08T10:26:15Z</time>
      </trkpt>
      <trkpt lat="59.6226569" lon="17.721696">
        <ele>23.6896</ele>
        <time>2014-07-08T10:26:16Z</time>
      </trkpt>
      <trkpt lat="59.62257" lon="17.7217248">
        <ele>23.6896</ele>
        <time>2014-07-08T10:26:17Z</time>
      </trkpt>
      <trkpt lat="59.622483" lon="17.7217464">
        <ele>23.209</ele>
        <time>2014-07-08T10:26:18Z</time>
      </trkpt>
      <trkpt lat="59.6223964" lon="17.7217601">
        <ele>23.209</ele>
        <time>2014-07-08T10:26:19Z</time>
      </trkpt>
      <trkpt lat="59.62231" lon="17.7217788">
        <ele>23.209</ele>
        <time>2014-07-08T10:26:20Z</time>
      </trkpt>
      <trkpt lat="59.6222247" lon="17.7218045">
        <ele>22.7283</ele>
        <time>2014-07-08T10:26:21Z</time>
      </trkpt>
      <trkpt lat="59.6221395" lon="17.7218336">
        <ele>22.7283</ele>
        <time>2014-07-08T10:26:22Z</time>
      </trkpt>
      <trkpt lat="59.6220562" lon="17.7218596">
        <ele>22.2476</ele>
        <time>2014-07-08T10:26:23Z</time>
      </trkpt>
      <trkpt lat="59.6219749" lon="17.7218849">
        <ele>22.2476</ele>
        <time>2014-07-08T10:26:24Z</time>
      </trkpt>
      <trkpt lat="59.6218959" lon="17.7219096">
        <ele>21.767</ele>
        <time>2014-07-08T10:26:25Z</time>
      </trkpt>
      <trkpt lat="59.6218179" lon="17.7219358">
        <ele>21.2864</ele>
        <time>2014-07-08T10:26:26Z</time>
      </trkpt>
      <trkpt lat="59.6217402" lon="17.7219628">
        <ele>21.2864</ele>
        <time>2014-07-08T10:26:27Z</time>
      </trkpt>
      <trkpt lat="59.6216637" lon="17.7219869">
        <ele>20.8057</ele>
        <time>2014-07-08T10:26:28Z</time>
      </trkpt>
      <trkpt lat="59.6215873" lon="17.7220124">
        <ele>20.8057</ele>
        <time>2014-07-08T10:26:29Z</time>
      </trkpt>
      <trkpt lat="59.6215107" lon="17.7220392">
        <ele>20.8057</ele>
        <time>2014-07-08T10:26:30Z</time>
      </trkpt>
      <trkpt lat="59.621433" lon="17.7220676">
        <ele>20.325</ele>
        <time>2014-07-08T10:26:31Z</time>
      </trkpt>
      <trkpt lat="59.6213552" lon="17.7220942">
        <ele>20.325</ele>
        <time>2014-07-08T10:26:32Z</time>
      </trkpt>
      <trkpt lat="59.6212771" lon="17.7221211">
        <ele>20.325</ele>
        <time>2014-07-08T10:26:33Z</time>
      </trkpt>
      <trkpt lat="59.6211987" lon="17.7221474">
        <ele>19.8444</ele>
        <time>2014-07-08T10:26:34Z</time>
      </trkpt>
      <trkpt lat="59.6211194" lon="17.722175">
        <ele>19.8444</ele>
        <time>2014-07-08T10:26:35Z</time>
      </trkpt>
      <trkpt lat="59.6210395" lon="17.7222039">
        <ele>19.8444</ele>
        <time>2014-07-08T10:26:36Z</time>
      </trkpt>
      <trkpt lat="59.6209592" lon="17.7222324">
        <ele>19.3638</ele>
        <time>2014-07-08T10:26:37Z</time>
      </trkpt>
      <trkpt lat="59.6208783" lon="17.7222579">
        <ele>19.3638</ele>
        <time>2014-07-08T10:26:38Z</time>
      </trkpt>
      <trkpt lat="59.6207977" lon="17.7222775">
        <ele>19.3638</ele>
        <time>2014-07-08T10:26:39Z</time>
      </trkpt>
      <trkpt lat="59.6207181" lon="17.7222974">
        <ele>19.3638</ele>
        <time>2014-07-08T10:26:40Z</time>
      </trkpt>
      <trkpt lat="59.6206399" lon="17.7223299">
        <ele>18.8831</ele>
        <time>2014-07-08T10:26:41Z</time>
      </trkpt>
      <trkpt lat="59.6205621" lon="17.7223693">
        <ele>18.8831</ele>
        <time>2014-07-08T10:26:42Z</time>
      </trkpt>
      <trkpt lat="59.6204836" lon="17.722405">
        <ele>18.8831</ele>
        <time>2014-07-08T10:26:43Z</time>
      </trkpt>
      <trkpt lat="59.6204043" lon="17.7224377">
        <ele>18.4023</ele>
        <time>2014-07-08T10:26:44Z</time>
      </trkpt>
      <trkpt lat="59.6203245" lon="17.7224718">
        <ele>18.4023</ele>
        <time>2014-07-08T10:26:45Z</time>
      </trkpt>
      <trkpt lat="59.6202443" lon="17.7225124">
        <ele>17.9218</ele>
        <time>2014-07-08T10:26:46Z</time>
      </trkpt>
      <trkpt lat="59.6201656" lon="17.7225613">
        <ele>17.9218</ele>
        <time>2014-07-08T10:26:47Z</time>
      </trkpt>
      <trkpt lat="59.6200878" lon="17.7226157">
        <ele>17.4412</ele>
        <time>2014-07-08T10:26:48Z</time>
      </trkpt>
      <trkpt lat="59.620009" lon="17.7226688">
        <ele>17.4412</ele>
        <time>2014-07-08T10:26:49Z</time>
      </trkpt>
      <trkpt lat="59.6199306" lon="17.7227209">
        <ele>16.9604</ele>
        <time>2014-07-08T10:26:50Z</time>
      </trkpt>
      <trkpt lat="59.6198525" lon="17.7227785">
        <ele>16.9604</ele>
        <time>2014-07-08T10:26:51Z</time>
      </trkpt>
      <trkpt lat="59.6197742" lon="17.7228415">
        <ele>16.4797</ele>
        <time>2014-07-08T10:26:52Z</time>
      </trkpt>
      <trkpt lat="59.6196961" lon="17.7229058">
        <ele>15.999</ele>
        <time>2014-07-08T10:26:53Z</time>
      </trkpt>
      <trkpt lat="59.6196188" lon="17.7229692">
        <ele>15.5184</ele>
        <time>2014-07-08T10:26:54Z</time>
      </trkpt>
      <trkpt lat="59.6195395" lon="17.7230337">
        <ele>15.5184</ele>
        <time>2014-07-08T10:26:55Z</time>
      </trkpt>
      <trkpt lat="59.6194578" lon="17.7231022">
        <ele>15.0377</ele>
        <time>2014-07-08T10:26:56Z</time>
      </trkpt>
      <trkpt lat="59.6193784" lon="17.7231705">
        <ele>15.0377</ele>
        <time>2014-07-08T10:26:57Z</time>
      </trkpt>
      <trkpt lat="59.6192992" lon="17.723241">
        <ele>14.557</ele>
        <time>2014-07-08T10:26:58Z</time>
      </trkpt>
      <trkpt lat="59.6192153" lon="17.7233348">
        <ele>14.0764</ele>
        <time>2014-07-08T10:26:59Z</time>
      </trkpt>
      <trkpt lat="59.6191326" lon="17.7234095">
        <ele>13.5958</ele>
        <time>2014-07-08T10:27:00Z</time>
      </trkpt>
      <trkpt lat="59.6190562" lon="17.723487">
        <ele>13.1151</ele>
        <time>2014-07-08T10:27:01Z</time>
      </trkpt>
      <trkpt lat="59.6189766" lon="17.7235524">
        <ele>12.1538</ele>
        <time>2014-07-08T10:27:02Z</time>
      </trkpt>
      <trkpt lat="59.6188943" lon="17.7236053">
        <ele>11.1925</ele>
        <time>2014-07-08T10:27:03Z</time>
      </trkpt>
      <trkpt lat="59.6188114" lon="17.7236589">
        <ele>11.6732</ele>
        <time>2014-07-08T10:27:04Z</time>
      </trkpt>
      <trkpt lat="59.6187296" lon="17.7237027">
        <ele>11.6732</ele>
        <time>2014-07-08T10:27:05Z</time>
      </trkpt>
      <trkpt lat="59.6186476" lon="17.7237397">
        <ele>11.6732</ele>
        <time>2014-07-08T10:27:06Z</time>
      </trkpt>
      <trkpt lat="59.6185669" lon="17.7237726">
        <ele>11.1925</ele>
        <time>2014-07-08T10:27:07Z</time>
      </trkpt>
      <trkpt lat="59.6184855" lon="17.7238105">
        <ele>11.1925</ele>
        <time>2014-07-08T10:27:08Z</time>
      </trkpt>
      <trkpt lat="59.6184032" lon="17.7238464">
        <ele>11.1925</ele>
        <time>2014-07-08T10:27:09Z</time>
      </trkpt>
      <trkpt lat="59.6183217" lon="17.7238788">
        <ele>11.1925</ele>
        <time>2014-07-08T10:27:10Z</time>
      </trkpt>
      <trkpt lat="59.6182401" lon="17.7239118">
        <ele>10.7118</ele>
        <time>2014-07-08T10:27:11Z</time>
      </trkpt>
      <trkpt lat="59.6181616" lon="17.723939">
        <ele>10.2312</ele>
        <time>2014-07-08T10:27:12Z</time>
      </trkpt>
      <trkpt lat="59.618084" lon="17.7239645">
        <ele>10.2312</ele>
        <time>2014-07-08T10:27:13Z</time>
      </trkpt>
      <trkpt lat="59.6180091" lon="17.7239833">
        <ele>10.2312</ele>
        <time>2014-07-08T10:27:14Z</time>
      </trkpt>
      <trkpt lat="59.6179385" lon="17.7239977">
        <ele>9.75061</ele>
        <time>2014-07-08T10:27:15Z</time>
      </trkpt>
      <trkpt lat="59.6178713" lon="17.7240134">
        <ele>9.75061</ele>
        <time>2014-07-08T10:27:16Z</time>
      </trkpt>
      <trkpt lat="59.6178086" lon="17.7240217">
        <ele>9.2699</ele>
        <time>2014-07-08T10:27:17Z</time>
      </trkpt>
      <trkpt lat="59.6177464" lon="17.7240317">
        <ele>9.2699</ele>
        <time>2014-07-08T10:27:18Z</time>
      </trkpt>
      <trkpt lat="59.6176832" lon="17.7240483">
        <ele>8.78918</ele>
        <time>2014-07-08T10:27:19Z</time>
      </trkpt>
      <trkpt lat="59.6176245" lon="17.7240668">
        <ele>9.2699</ele>
        <time>2014-07-08T10:27:20Z</time>
      </trkpt>
      <trkpt lat="59.6175652" lon="17.7240962">
        <ele>9.2699</ele>
        <time>2014-07-08T10:27:21Z</time>
      </trkpt>
      <trkpt lat="59.6174993" lon="17.7241199">
        <ele>9.2699</ele>
        <time>2014-07-08T10:27:22Z</time>
      </trkpt>
      <trkpt lat="59.6174289" lon="17.7241469">
        <ele>8.78918</ele>
        <time>2014-07-08T10:27:23Z</time>
      </trkpt>
      <trkpt lat="59.6173584" lon="17.7241837">
        <ele>8.78918</ele>
        <time>2014-07-08T10:27:24Z</time>
      </trkpt>
      <trkpt lat="59.6172895" lon="17.7242184">
        <ele>8.30859</ele>
        <time>2014-07-08T10:27:25Z</time>
      </trkpt>
      <trkpt lat="59.6172262" lon="17.7242518">
        <ele>8.30859</ele>
        <time>2014-07-08T10:27:26Z</time>
      </trkpt>
      <trkpt lat="59.6171697" lon="17.7242636">
        <ele>8.30859</ele>
        <time>2014-07-08T10:27:27Z</time>
      </trkpt>
      <trkpt lat="59.6171181" lon="17.7242413">
        <ele>8.30859</ele>
        <time>2014-07-08T10:27:28Z</time>
      </trkpt>
      <trkpt lat="59.617074" lon="17.7241824">
        <ele>7.82788</ele>
        <time>2014-07-08T10:27:29Z</time>
      </trkpt>
      <trkpt lat="59.6170408" lon="17.7240972">
        <ele>7.82788</ele>
        <time>2014-07-08T10:27:30Z</time>
      </trkpt>
      <trkpt lat="59.6170191" lon="17.7240021">
        <ele>7.34717</ele>
        <time>2014-07-08T10:27:31Z</time>
      </trkpt>
      <trkpt lat="59.6170059" lon="17.7239052">
        <ele>7.34717</ele>
        <time>2014-07-08T10:27:32Z</time>
      </trkpt>
      <trkpt lat="59.6169994" lon="17.7238164">
        <ele>7.82788</ele>
        <time>2014-07-08T10:27:33Z</time>
      </trkpt>
      <trkpt lat="59.6169953" lon="17.7237385">
        <ele>7.34717</ele>
        <time>2014-07-08T10:27:34Z</time>
      </trkpt>
      <trkpt lat="59.6169916" lon="17.7236758">
        <ele>7.82788</ele>
        <time>2014-07-08T10:27:35Z</time>
      </trkpt>
      <trkpt lat="59.6169901" lon="17.7236311">
        <ele>7.82788</ele>
        <time>2014-07-08T10:27:36Z</time>
      </trkpt>
      <trkpt lat="59.6169889" lon="17.7236071">
        <ele>7.34717</ele>
        <time>2014-07-08T10:27:37Z</time>
      </trkpt>
      <trkpt lat="59.6169875" lon="17.7236005">
        <ele>7.34717</ele>
        <time>2014-07-08T10:27:38Z</time>
      </trkpt>
      <trkpt lat="59.6169885" lon="17.7235973">
        <ele>7.34717</ele>
        <time>2014-07-08T10:27:39Z</time>
      </trkpt>
      <trkpt lat="59.6156891" lon="17.7222922">
        <ele>5.90527</ele>
        <time>2014-07-08T11:00:03Z</time>
      </trkpt>
      <trkpt lat="59.6156665" lon="17.722258">
        <ele>5.90527</ele>
        <time>2014-07-08T11:00:04Z</time>
      </trkpt>
      <trkpt lat="59.6156461" lon="17.722218">
        <ele>5.42456</ele>
        <time>2014-07-08T11:00:05Z</time>
      </trkpt>
      <trkpt lat="59.615626" lon="17.7221669">
        <ele>5.42456</ele>
        <time>2014-07-08T11:00:06Z</time>
      </trkpt>
      <trkpt lat="59.6156047" lon="17.7221018">
        <ele>5.90527</ele>
        <time>2014-07-08T11:00:07Z</time>
      </trkpt>
      <trkpt lat="59.6155831" lon="17.7220253">
        <ele>5.42456</ele>
        <time>2014-07-08T11:00:08Z</time>
      </trkpt>
      <trkpt lat="59.6155593" lon="17.7219408">
        <ele>5.42456</ele>
        <time>2014-07-08T11:00:09Z</time>
      </trkpt>
      <trkpt lat="59.6155312" lon="17.7218576">
        <ele>5.42456</ele>
        <time>2014-07-08T11:00:10Z</time>
      </trkpt>
      <trkpt lat="59.6154992" lon="17.7217838">
        <ele>5.42456</ele>
        <time>2014-07-08T11:00:11Z</time>
      </trkpt>
      <trkpt lat="59.6154671" lon="17.7217115">
        <ele>5.90527</ele>
        <time>2014-07-08T11:00:12Z</time>
      </trkpt>
      <trkpt lat="59.6154395" lon="17.7216368">
        <ele>5.90527</ele>
        <time>2014-07-08T11:00:13Z</time>
      </trkpt>
      <trkpt lat="59.6154127" lon="17.7215641">
        <ele>5.90527</ele>
        <time>2014-07-08T11:00:14Z</time>
      </trkpt>
      <trkpt lat="59.6153853" lon="17.7214954">
        <ele>5.90527</ele>
        <time>2014-07-08T11:00:15Z</time>
      </trkpt>
      <trkpt lat="59.6153557" lon="17.7214332">
        <ele>5.90527</ele>
        <time>2014-07-08T11:00:16Z</time>
      </trkpt>
      <trkpt lat="59.6153255" lon="17.7213742">
        <ele>5.90527</ele>
        <time>2014-07-08T11:00:17Z</time>
      </trkpt>
      <trkpt lat="59.6152958" lon="17.7213177">
        <ele>5.90527</ele>
        <time>2014-07-08T11:00:18Z</time>
      </trkpt>
      <trkpt lat="59.6152668" lon="17.7212633">
        <ele>6.38586</ele>
        <time>2014-07-08T11:00:19Z</time>
      </trkpt>
      <trkpt lat="59.6152381" lon="17.7212109">
        <ele>6.38586</ele>
        <time>2014-07-08T11:00:20Z</time>
      </trkpt>
      <trkpt lat="59.6152084" lon="17.7211622">
        <ele>6.38586</ele>
        <time>2014-07-08T11:00:21Z</time>
      </trkpt>
      <trkpt lat="59.6151792" lon="17.7211136">
        <ele>6.38586</ele>
        <time>2014-07-08T11:00:22Z</time>
      </trkpt>
      <trkpt lat="59.6151516" lon="17.7210653">
        <ele>6.38586</ele>
        <time>2014-07-08T11:00:23Z</time>
      </trkpt>
      <trkpt lat="59.6151235" lon="17.7210222">
        <ele>6.38586</ele>
        <time>2014-07-08T11:00:24Z</time>
      </trkpt>
      <trkpt lat="59.6150943" lon="17.7209842">
        <ele>6.38586</ele>
        <time>2014-07-08T11:00:25Z</time>
      </trkpt>
      <trkpt lat="59.6150641" lon="17.7209515">
        <ele>6.38586</ele>
        <time>2014-07-08T11:00:26Z</time>
      </trkpt>
      <trkpt lat="59.615032" lon="17.7209233">
        <ele>6.86646</ele>
        <time>2014-07-08T11:00:27Z</time>
      </trkpt>
      <trkpt lat="59.6149974" lon="17.7208929">
        <ele>6.86646</ele>
        <time>2014-07-08T11:00:28Z</time>
      </trkpt>
      <trkpt lat="59.6149619" lon="17.7208591">
        <ele>6.86646</ele>
        <time>2014-07-08T11:00:29Z</time>
      </trkpt>
      <trkpt lat="59.6149273" lon="17.7208249">
        <ele>6.86646</ele>
        <time>2014-07-08T11:00:30Z</time>
      </trkpt>
      <trkpt lat="59.6148937" lon="17.7207888">
        <ele>6.86646</ele>
        <time>2014-07-08T11:00:31Z</time>
      </trkpt>
      <trkpt lat="59.614861" lon="17.7207522">
        <ele>6.86646</ele>
        <time>2014-07-08T11:00:32Z</time>
      </trkpt>
      <trkpt lat="59.6148294" lon="17.7207192">
        <ele>6.86646</ele>
        <time>2014-07-08T11:00:33Z</time>
      </trkpt>
      <trkpt lat="59.6147973" lon="17.7206895">
        <ele>6.86646</ele>
        <time>2014-07-08T11:00:34Z</time>
      </trkpt>
      <trkpt lat="59.6147626" lon="17.7206628">
        <ele>6.86646</ele>
        <time>2014-07-08T11:00:35Z</time>
      </trkpt>
      <trkpt lat="59.6147268" lon="17.7206375">
        <ele>6.86646</ele>
        <time>2014-07-08T11:00:36Z</time>
      </trkpt>
      <trkpt lat="59.6146927" lon="17.7206089">
        <ele>6.38586</ele>
        <time>2014-07-08T11:00:37Z</time>
      </trkpt>
      <trkpt lat="59.6146586" lon="17.7205764">
        <ele>6.38586</ele>
        <time>2014-07-08T11:00:38Z</time>
      </trkpt>
      <trkpt lat="59.6146217" lon="17.7205402">
        <ele>6.38586</ele>
        <time>2014-07-08T11:00:39Z</time>
      </trkpt>
      <trkpt lat="59.6145824" lon="17.7205077">
        <ele>6.38586</ele>
        <time>2014-07-08T11:00:40Z</time>
      </trkpt>
      <trkpt lat="59.6145418" lon="17.7204854">
        <ele>6.38586</ele>
        <time>2014-07-08T11:00:41Z</time>
      </trkpt>
      <trkpt lat="59.6145014" lon="17.7204667">
        <ele>6.86646</ele>
        <time>2014-07-08T11:00:42Z</time>
      </trkpt>
      <trkpt lat="59.6144625" lon="17.7204475">
        <ele>6.86646</ele>
        <time>2014-07-08T11:00:43Z</time>
      </trkpt>
      <trkpt lat="59.6144244" lon="17.7204283">
        <ele>6.86646</ele>
        <time>2014-07-08T11:00:44Z</time>
      </trkpt>
      <trkpt lat="59.6143891" lon="17.720401">
        <ele>6.86646</ele>
        <time>2014-07-08T11:00:45Z</time>
      </trkpt>
      <trkpt lat="59.6143578" lon="17.7203619">
        <ele>6.86646</ele>
        <time>2014-07-08T11:00:46Z</time>
      </trkpt>
      <trkpt lat="59.6143309" lon="17.7203158">
        <ele>6.86646</ele>
        <time>2014-07-08T11:00:47Z</time>
      </trkpt>
      <trkpt lat="59.6143051" lon="17.7202697">
        <ele>6.86646</ele>
        <time>2014-07-08T11:00:48Z</time>
      </trkpt>
      <trkpt lat="59.6142792" lon="17.7202274">
        <ele>6.86646</ele>
        <time>2014-07-08T11:00:49Z</time>
      </trkpt>
      <trkpt lat="59.6142542" lon="17.7201859">
        <ele>6.86646</ele>
        <time>2014-07-08T11:00:50Z</time>
      </trkpt>
      <trkpt lat="59.6142326" lon="17.7201411">
        <ele>6.86646</ele>
        <time>2014-07-08T11:00:51Z</time>
      </trkpt>
      <trkpt lat="59.6142112" lon="17.7200982">
        <ele>6.86646</ele>
        <time>2014-07-08T11:00:52Z</time>
      </trkpt>
      <trkpt lat="59.6141857" lon="17.720063">
        <ele>6.86646</ele>
        <time>2014-07-08T11:00:53Z</time>
      </trkpt>
      <trkpt lat="59.6141591" lon="17.7200287">
        <ele>7.34717</ele>
        <time>2014-07-08T11:00:54Z</time>
      </trkpt>
      <trkpt lat="59.6141338" lon="17.719987">
        <ele>7.34717</ele>
        <time>2014-07-08T11:00:55Z</time>
      </trkpt>
      <trkpt lat="59.6141105" lon="17.7199412">
        <ele>7.34717</ele>
        <time>2014-07-08T11:00:56Z</time>
      </trkpt>
      <trkpt lat="59.6140876" lon="17.7198946">
        <ele>7.34717</ele>
        <time>2014-07-08T11:00:57Z</time>
      </trkpt>
      <trkpt lat="59.6140645" lon="17.7198474">
        <ele>7.34717</ele>
        <time>2014-07-08T11:00:58Z</time>
      </trkpt>
      <trkpt lat="59.6140411" lon="17.7198005">
        <ele>7.82788</ele>
        <time>2014-07-08T11:00:59Z</time>
      </trkpt>
      <trkpt lat="59.6140189" lon="17.7197509">
        <ele>7.82788</ele>
        <time>2014-07-08T11:01:00Z</time>
      </trkpt>
      <trkpt lat="59.6139986" lon="17.7196974">
        <ele>7.82788</ele>
        <time>2014-07-08T11:01:01Z</time>
      </trkpt>
      <trkpt lat="59.6139785" lon="17.7196379">
        <ele>7.82788</ele>
        <time>2014-07-08T11:01:02Z</time>
      </trkpt>
      <trkpt lat="59.6139552" lon="17.7195715">
        <ele>8.30859</ele>
        <time>2014-07-08T11:01:03Z</time>
      </trkpt>
      <trkpt lat="59.6139293" lon="17.7195035">
        <ele>8.30859</ele>
        <time>2014-07-08T11:01:04Z</time>
      </trkpt>
      <trkpt lat="59.6139052" lon="17.7194337">
        <ele>8.30859</ele>
        <time>2014-07-08T11:01:05Z</time>
      </trkpt>
      <trkpt lat="59.6138846" lon="17.7193596">
        <ele>8.30859</ele>
        <time>2014-07-08T11:01:06Z</time>
      </trkpt>
      <trkpt lat="59.6138674" lon="17.719282">
        <ele>8.30859</ele>
        <time>2014-07-08T11:01:07Z</time>
      </trkpt>
      <trkpt lat="59.6138517" lon="17.7192035">
        <ele>8.30859</ele>
        <time>2014-07-08T11:01:08Z</time>
      </trkpt>
      <trkpt lat="59.6138365" lon="17.7191259">
        <ele>8.30859</ele>
        <time>2014-07-08T11:01:09Z</time>
      </trkpt>
      <trkpt lat="59.6138217" lon="17.7190515">
        <ele>8.30859</ele>
        <time>2014-07-08T11:01:10Z</time>
      </trkpt>
      <trkpt lat="59.6138068" lon="17.7189795">
        <ele>7.82788</ele>
        <time>2014-07-08T11:01:11Z</time>
      </trkpt>
      <trkpt lat="59.6137908" lon="17.718908">
        <ele>7.82788</ele>
        <time>2014-07-08T11:01:12Z</time>
      </trkpt>
      <trkpt lat="59.6137756" lon="17.7188344">
        <ele>7.34717</ele>
        <time>2014-07-08T11:01:13Z</time>
      </trkpt>
      <trkpt lat="59.6137628" lon="17.7187577">
        <ele>7.34717</ele>
        <time>2014-07-08T11:01:14Z</time>
      </trkpt>
      <trkpt lat="59.6137497" lon="17.7186826">
        <ele>7.34717</ele>
        <time>2014-07-08T11:01:15Z</time>
      </trkpt>
      <trkpt lat="59.6137338" lon="17.7186112">
        <ele>7.34717</ele>
        <time>2014-07-08T11:01:16Z</time>
      </trkpt>
      <trkpt lat="59.6137167" lon="17.7185391">
        <ele>7.34717</ele>
        <time>2014-07-08T11:01:17Z</time>
      </trkpt>
      <trkpt lat="59.6136993" lon="17.7184687">
        <ele>7.34717</ele>
        <time>2014-07-08T11:01:18Z</time>
      </trkpt>
      <trkpt lat="59.6136806" lon="17.718404">
        <ele>6.86646</ele>
        <time>2014-07-08T11:01:19Z</time>
      </trkpt>
      <trkpt lat="59.6136616" lon="17.7183443">
        <ele>6.86646</ele>
        <time>2014-07-08T11:01:20Z</time>
      </trkpt>
      <trkpt lat="59.6136432" lon="17.718287">
        <ele>6.86646</ele>
        <time>2014-07-08T11:01:21Z</time>
      </trkpt>
      <trkpt lat="59.6136277" lon="17.7182302">
        <ele>6.38586</ele>
        <time>2014-07-08T11:01:22Z</time>
      </trkpt>
      <trkpt lat="59.6136119" lon="17.718173">
        <ele>6.86646</ele>
        <time>2014-07-08T11:01:23Z</time>
      </trkpt>
      <trkpt lat="59.6135961" lon="17.7181199">
        <ele>6.86646</ele>
        <time>2014-07-08T11:01:24Z</time>
      </trkpt>
      <trkpt lat="59.6135786" lon="17.7180662">
        <ele>6.86646</ele>
        <time>2014-07-08T11:01:25Z</time>
      </trkpt>
      <trkpt lat="59.6135603" lon="17.7180121">
        <ele>6.86646</ele>
        <time>2014-07-08T11:01:26Z</time>
      </trkpt>
      <trkpt lat="59.6135417" lon="17.717957">
        <ele>6.86646</ele>
        <time>2014-07-08T11:01:27Z</time>
      </trkpt>
      <trkpt lat="59.6135221" lon="17.7179026">
        <ele>6.86646</ele>
        <time>2014-07-08T11:01:28Z</time>
      </trkpt>
      <trkpt lat="59.6135018" lon="17.7178503">
        <ele>7.34717</ele>
        <time>2014-07-08T11:01:29Z</time>
      </trkpt>
      <trkpt lat="59.6134826" lon="17.7177992">
        <ele>7.34717</ele>
        <time>2014-07-08T11:01:30Z</time>
      </trkpt>
      <trkpt lat="59.6134607" lon="17.7177517">
        <ele>7.34717</ele>
        <time>2014-07-08T11:01:31Z</time>
      </trkpt>
      <trkpt lat="59.6134363" lon="17.7177085">
        <ele>7.34717</ele>
        <time>2014-07-08T11:01:32Z</time>
      </trkpt>
      <trkpt lat="59.6134133" lon="17.717664">
        <ele>7.34717</ele>
        <time>2014-07-08T11:01:33Z</time>
      </trkpt>
      <trkpt lat="59.6133944" lon="17.717614">
        <ele>7.34717</ele>
        <time>2014-07-08T11:01:34Z</time>
      </trkpt>
      <trkpt lat="59.6133805" lon="17.7175615">
        <ele>7.34717</ele>
        <time>2014-07-08T11:01:35Z</time>
      </trkpt>
      <trkpt lat="59.6133733" lon="17.7175091">
        <ele>7.34717</ele>
        <time>2014-07-08T11:01:36Z</time>
      </trkpt>
      <trkpt lat="59.6133729" lon="17.7174548">
        <ele>6.86646</ele>
        <time>2014-07-08T11:01:37Z</time>
      </trkpt>
      <trkpt lat="59.6133788" lon="17.7174001">
        <ele>6.86646</ele>
        <time>2014-07-08T11:01:38Z</time>
      </trkpt>
      <trkpt lat="59.6133895" lon="17.7173487">
        <ele>6.86646</ele>
        <time>2014-07-08T11:01:39Z</time>
      </trkpt>
      <trkpt lat="59.6134043" lon="17.7173064">
        <ele>6.86646</ele>
        <time>2014-07-08T11:01:40Z</time>
      </trkpt>
      <trkpt lat="59.6134194" lon="17.7172741">
        <ele>6.86646</ele>
        <time>2014-07-08T11:01:41Z</time>
      </trkpt>
      <trkpt lat="59.613435" lon="17.7172534">
        <ele>6.86646</ele>
        <time>2014-07-08T11:01:42Z</time>
      </trkpt>
      <trkpt lat="59.6134513" lon="17.7172468">
        <ele>6.38586</ele>
        <time>2014-07-08T11:01:43Z</time>
      </trkpt>
      <trkpt lat="59.613463" lon="17.7172387">
        <ele>6.38586</ele>
        <time>2014-07-08T11:01:44Z</time>
      </trkpt>
      <trkpt lat="59.6134676" lon="17.7172208">
        <ele>5.90527</ele>
        <time>2014-07-08T11:01:45Z</time>
      </trkpt>
      <trkpt lat="59.613461" lon="17.7172021">
        <ele>5.90527</ele>
        <time>2014-07-08T11:01:46Z</time>
      </trkpt>
      <trkpt lat="59.6134489" lon="17.7171995">
        <ele>5.90527</ele>
        <time>2014-07-08T11:01:47Z</time>
      </trkpt>
      <trkpt lat="59.6134373" lon="17.7172134">
        <ele>5.42456</ele>
        <time>2014-07-08T11:01:48Z</time>
      </trkpt>
      <trkpt lat="59.6134256" lon="17.7172393">
        <ele>5.42456</ele>
        <time>2014-07-08T11:01:49Z</time>
      </trkpt>
      <trkpt lat="59.6134135" lon="17.7172777">
        <ele>5.42456</ele>
        <time>2014-07-08T11:01:50Z</time>
      </trkpt>
      <trkpt lat="59.6133991" lon="17.7173195">
        <ele>5.42456</ele>
        <time>2014-07-08T11:01:51Z</time>
      </trkpt>
      <trkpt lat="59.6133781" lon="17.7173492">
        <ele>5.42456</ele>
        <time>2014-07-08T11:01:52Z</time>
      </trkpt>
      <trkpt lat="59.6133534" lon="17.7173579">
        <ele>5.42456</ele>
        <time>2014-07-08T11:01:53Z</time>
      </trkpt>
      <trkpt lat="59.6133286" lon="17.7173521">
        <ele>5.42456</ele>
        <time>2014-07-08T11:01:54Z</time>
      </trkpt>
      <trkpt lat="59.6133021" lon="17.7173397">
        <ele>5.42456</ele>
        <time>2014-07-08T11:01:55Z</time>
      </trkpt>
      <trkpt lat="59.6132735" lon="17.7173226">
        <ele>5.42456</ele>
        <time>2014-07-08T11:01:56Z</time>
      </trkpt>
      <trkpt lat="59.6132412" lon="17.7173031">
        <ele>5.42456</ele>
        <time>2014-07-08T11:01:57Z</time>
      </trkpt>
      <trkpt lat="59.6132061" lon="17.7172781">
        <ele>5.42456</ele>
        <time>2014-07-08T11:01:58Z</time>
      </trkpt>
      <trkpt lat="59.6131727" lon="17.7172439">
        <ele>5.42456</ele>
        <time>2014-07-08T11:01:59Z</time>
      </trkpt>
      <trkpt lat="59.6131402" lon="17.7172135">
        <ele>5.42456</ele>
        <time>2014-07-08T11:02:00Z</time>
      </trkpt>
      <trkpt lat="59.6131061" lon="17.7172002">
        <ele>5.42456</ele>
        <time>2014-07-08T11:02:01Z</time>
      </trkpt>
      <trkpt lat="59.6130718" lon="17.7172031">
        <ele>5.42456</ele>
        <time>2014-07-08T11:02:02Z</time>
      </trkpt>
      <trkpt lat="59.6130386" lon="17.7172109">
        <ele>5.42456</ele>
        <time>2014-07-08T11:02:03Z</time>
      </trkpt>
      <trkpt lat="59.6130062" lon="17.7172138">
        <ele>5.42456</ele>
        <time>2014-07-08T11:02:04Z</time>
      </trkpt>
      <trkpt lat="59.6129755" lon="17.7172087">
        <ele>5.42456</ele>
        <time>2014-07-08T11:02:05Z</time>
      </trkpt>
      <trkpt lat="59.612947" lon="17.717198">
        <ele>5.90527</ele>
        <time>2014-07-08T11:02:06Z</time>
      </trkpt>
      <trkpt lat="59.6129198" lon="17.7171866">
        <ele>5.90527</ele>
        <time>2014-07-08T11:02:07Z</time>
      </trkpt>
      <trkpt lat="59.6128936" lon="17.7171769">
        <ele>5.90527</ele>
        <time>2014-07-08T11:02:08Z</time>
      </trkpt>
      <trkpt lat="59.6128702" lon="17.717169">
        <ele>5.90527</ele>
        <time>2014-07-08T11:02:09Z</time>
      </trkpt>
      <trkpt lat="59.6128522" lon="17.7171621">
        <ele>5.90527</ele>
        <time>2014-07-08T11:02:10Z</time>
      </trkpt>
      <trkpt lat="59.6128396" lon="17.7171483">
        <ele>5.90527</ele>
        <time>2014-07-08T11:02:11Z</time>
      </trkpt>
      <trkpt lat="59.6128333" lon="17.7171317">
        <ele>5.90527</ele>
        <time>2014-07-08T11:02:12Z</time>
      </trkpt>
      <trkpt lat="59.6128334" lon="17.7171151">
        <ele>5.42456</ele>
        <time>2014-07-08T11:02:13Z</time>
      </trkpt>
      <trkpt lat="59.6128378" lon="17.7170983">
        <ele>5.42456</ele>
        <time>2014-07-08T11:02:14Z</time>
      </trkpt>
      <trkpt lat="59.6128461" lon="17.7170866">
        <ele>5.42456</ele>
        <time>2014-07-08T11:02:15Z</time>
      </trkpt>
      <trkpt lat="59.6128574" lon="17.7170835">
        <ele>5.42456</ele>
        <time>2014-07-08T11:02:16Z</time>
      </trkpt>
      <trkpt lat="59.6128678" lon="17.7170883">
        <ele>5.42456</ele>
        <time>2014-07-08T11:02:17Z</time>
      </trkpt>
      <trkpt lat="59.6128786" lon="17.7170947">
        <ele>5.42456</ele>
        <time>2014-07-08T11:02:18Z</time>
      </trkpt>
      <trkpt lat="59.6128895" lon="17.7171027">
        <ele>5.42456</ele>
        <time>2014-07-08T11:02:19Z</time>
      </trkpt>
      <trkpt lat="59.6128982" lon="17.7171116">
        <ele>4.94385</ele>
        <time>2014-07-08T11:02:20Z</time>
      </trkpt>
      <trkpt lat="59.6129071" lon="17.7171193">
        <ele>4.94385</ele>
        <time>2014-07-08T11:02:21Z</time>
      </trkpt>
      <trkpt lat="59.6129196" lon="17.7171291">
        <ele>4.46326</ele>
        <time>2014-07-08T11:02:22Z</time>
      </trkpt>
      <trkpt lat="59.6129357" lon="17.7171399">
        <ele>4.46326</ele>
        <time>2014-07-08T11:02:23Z</time>
      </trkpt>
      <trkpt lat="59.6129548" lon="17.7171496">
        <ele>4.46326</ele>
        <time>2014-07-08T11:02:24Z</time>
      </trkpt>
      <trkpt lat="59.612975" lon="17.7171596">
        <ele>4.46326</ele>
        <time>2014-07-08T11:02:25Z</time>
      </trkpt>
      <trkpt lat="59.6129942" lon="17.7171698">
        <ele>4.46326</ele>
        <time>2014-07-08T11:02:26Z</time>
      </trkpt>
      <trkpt lat="59.6130128" lon="17.7171767">
        <ele>4.46326</ele>
        <time>2014-07-08T11:02:27Z</time>
      </trkpt>
      <trkpt lat="59.6130313" lon="17.7171804">
        <ele>4.46326</ele>
        <time>2014-07-08T11:02:28Z</time>
      </trkpt>
      <trkpt lat="59.6130481" lon="17.7171835">
        <ele>4.46326</ele>
        <time>2014-07-08T11:02:29Z</time>
      </trkpt>
      <trkpt lat="59.613066" lon="17.7171866">
        <ele>4.46326</ele>
        <time>2014-07-08T11:02:30Z</time>
      </trkpt>
      <trkpt lat="59.6130842" lon="17.7171922">
        <ele>3.98267</ele>
        <time>2014-07-08T11:02:31Z</time>
      </trkpt>
      <trkpt lat="59.6131024" lon="17.7171995">
        <ele>3.98267</ele>
        <time>2014-07-08T11:02:32Z</time>
      </trkpt>
      <trkpt lat="59.6131204" lon="17.7172095">
        <ele>3.98267</ele>
        <time>2014-07-08T11:02:33Z</time>
      </trkpt>
      <trkpt lat="59.6131376" lon="17.7172217">
        <ele>3.98267</ele>
        <time>2014-07-08T11:02:34Z</time>
      </trkpt>
      <trkpt lat="59.6131545" lon="17.7172327">
        <ele>3.98267</ele>
        <time>2014-07-08T11:02:35Z</time>
      </trkpt>
      <trkpt lat="59.6131706" lon="17.7172441">
        <ele>3.98267</ele>
        <time>2014-07-08T11:02:36Z</time>
      </trkpt>
      <trkpt lat="59.6131854" lon="17.7172591">
        <ele>3.98267</ele>
        <time>2014-07-08T11:02:37Z</time>
      </trkpt>
      <trkpt lat="59.6132013" lon="17.7172753">
        <ele>3.98267</ele>
        <time>2014-07-08T11:02:38Z</time>
      </trkpt>
      <trkpt lat="59.6132182" lon="17.7172893">
        <ele>3.98267</ele>
        <time>2014-07-08T11:02:39Z</time>
      </trkpt>
      <trkpt lat="59.6132345" lon="17.7173021">
        <ele>3.50195</ele>
        <time>2014-07-08T11:02:40Z</time>
      </trkpt>
      <trkpt lat="59.6132499" lon="17.7173141">
        <ele>3.50195</ele>
        <time>2014-07-08T11:02:41Z</time>
      </trkpt>
      <trkpt lat="59.6132652" lon="17.7173209">
        <ele>3.50195</ele>
        <time>2014-07-08T11:02:42Z</time>
      </trkpt>
      <trkpt lat="59.6132806" lon="17.7173224">
        <ele>3.50195</ele>
        <time>2014-07-08T11:02:43Z</time>
      </trkpt>
      <trkpt lat="59.6132945" lon="17.7173216">
        <ele>3.50195</ele>
        <time>2014-07-08T11:02:44Z</time>
      </trkpt>
      <trkpt lat="59.6133073" lon="17.7173164">
        <ele>3.02124</ele>
        <time>2014-07-08T11:02:45Z</time>
      </trkpt>
      <trkpt lat="59.6133189" lon="17.717303">
        <ele>3.50195</ele>
        <time>2014-07-08T11:02:46Z</time>
      </trkpt>
      <trkpt lat="59.6133282" lon="17.717283">
        <ele>3.02124</ele>
        <time>2014-07-08T11:02:47Z</time>
      </trkpt>
      <trkpt lat="59.6133386" lon="17.7172615">
        <ele>3.02124</ele>
        <time>2014-07-08T11:02:48Z</time>
      </trkpt>
      <trkpt lat="59.6133509" lon="17.7172377">
        <ele>3.02124</ele>
        <time>2014-07-08T11:02:49Z</time>
      </trkpt>
      <trkpt lat="59.6133619" lon="17.7172152">
        <ele>3.02124</ele>
        <time>2014-07-08T11:02:50Z</time>
      </trkpt>
      <trkpt lat="59.6133733" lon="17.7171897">
        <ele>3.02124</ele>
        <time>2014-07-08T11:02:51Z</time>
      </trkpt>
      <trkpt lat="59.6133868" lon="17.7171643">
        <ele>3.50195</ele>
        <time>2014-07-08T11:02:52Z</time>
      </trkpt>
      <trkpt lat="59.6134004" lon="17.7171418">
        <ele>3.50195</ele>
        <time>2014-07-08T11:02:53Z</time>
      </trkpt>
      <trkpt lat="59.6134147" lon="17.717119">
        <ele>3.50195</ele>
        <time>2014-07-08T11:02:54Z</time>
      </trkpt>
      <trkpt lat="59.6134273" lon="17.7170955">
        <ele>3.50195</ele>
        <time>2014-07-08T11:02:55Z</time>
      </trkpt>
      <trkpt lat="59.6134407" lon="17.7170727">
        <ele>3.50195</ele>
        <time>2014-07-08T11:02:56Z</time>
      </trkpt>
      <trkpt lat="59.6134547" lon="17.7170501">
        <ele>3.50195</ele>
        <time>2014-07-08T11:02:57Z</time>
      </trkpt>
      <trkpt lat="59.6134681" lon="17.7170301">
        <ele>3.50195</ele>
        <time>2014-07-08T11:02:58Z</time>
      </trkpt>
      <trkpt lat="59.6134862" lon="17.7170137">
        <ele>4.94385</ele>
        <time>2014-07-08T11:02:59Z</time>
      </trkpt>
      <trkpt lat="59.6134992" lon="17.7170093">
        <ele>4.46326</ele>
        <time>2014-07-08T11:03:00Z</time>
      </trkpt>
      <trkpt lat="59.6135059" lon="17.716996">
        <ele>4.46326</ele>
        <time>2014-07-08T11:03:01Z</time>
      </trkpt>
      <trkpt lat="59.6135163" lon="17.7169799">
        <ele>4.94385</ele>
        <time>2014-07-08T11:03:02Z</time>
      </trkpt>
      <trkpt lat="59.613528" lon="17.7169654">
        <ele>4.94385</ele>
        <time>2014-07-08T11:03:03Z</time>
      </trkpt>
      <trkpt lat="59.6135387" lon="17.7169513">
        <ele>4.94385</ele>
        <time>2014-07-08T11:03:04Z</time>
      </trkpt>
      <trkpt lat="59.6135504" lon="17.7169399">
        <ele>4.94385</ele>
        <time>2014-07-08T11:03:05Z</time>
      </trkpt>
      <trkpt lat="59.6135613" lon="17.7169322">
        <ele>4.94385</ele>
        <time>2014-07-08T11:03:06Z</time>
      </trkpt>
      <trkpt lat="59.6135665" lon="17.7169281">
        <ele>4.94385</ele>
        <time>2014-07-08T11:03:07Z</time>
      </trkpt>
      <trkpt lat="59.6135665" lon="17.7169246">
        <ele>4.94385</ele>
        <time>2014-07-08T11:03:08Z</time>
      </trkpt>
      <trkpt lat="59.613567" lon="17.7169246">
        <ele>4.94385</ele>
        <time>2014-07-08T11:03:09Z</time>
      </trkpt>
      <trkpt lat="59.6135826" lon="17.7170145">
        <ele>5.42456</ele>
        <time>2014-07-08T11:03:25Z</time>
      </trkpt>
      <trkpt lat="59.6135708" lon="17.717038">
        <ele>5.42456</ele>
        <time>2014-07-08T11:03:26Z</time>
      </trkpt>
      <trkpt lat="59.6135567" lon="17.7170564">
        <ele>5.42456</ele>
        <time>2014-07-08T11:03:27Z</time>
      </trkpt>
      <trkpt lat="59.6135413" lon="17.7170737">
        <ele>5.42456</ele>
        <time>2014-07-08T11:03:28Z</time>
      </trkpt>
      <trkpt lat="59.6135278" lon="17.7170897">
        <ele>5.42456</ele>
        <time>2014-07-08T11:03:29Z</time>
      </trkpt>
      <trkpt lat="59.613513" lon="17.7171017">
        <ele>4.94385</ele>
        <time>2014-07-08T11:03:30Z</time>
      </trkpt>
      <trkpt lat="59.6134967" lon="17.7171163">
        <ele>4.94385</ele>
        <time>2014-07-08T11:03:31Z</time>
      </trkpt>
      <trkpt lat="59.6134852" lon="17.7171403">
        <ele>4.94385</ele>
        <time>2014-07-08T11:03:32Z</time>
      </trkpt>
      <trkpt lat="59.6134829" lon="17.7171638">
        <ele>4.94385</ele>
        <time>2014-07-08T11:03:33Z</time>
      </trkpt>
      <trkpt lat="59.613491" lon="17.7171751">
        <ele>4.94385</ele>
        <time>2014-07-08T11:03:34Z</time>
      </trkpt>
      <trkpt lat="59.6135017" lon="17.7171741">
        <ele>4.94385</ele>
        <time>2014-07-08T11:03:35Z</time>
      </trkpt>
      <trkpt lat="59.6135136" lon="17.7171623">
        <ele>4.94385</ele>
        <time>2014-07-08T11:03:36Z</time>
      </trkpt>
      <trkpt lat="59.6135271" lon="17.7171418">
        <ele>4.46326</ele>
        <time>2014-07-08T11:03:37Z</time>
      </trkpt>
      <trkpt lat="59.6135409" lon="17.7171087">
        <ele>4.46326</ele>
        <time>2014-07-08T11:03:38Z</time>
      </trkpt>
      <trkpt lat="59.613556" lon="17.7170675">
        <ele>3.98267</ele>
        <time>2014-07-08T11:03:39Z</time>
      </trkpt>
      <trkpt lat="59.6135727" lon="17.7170238">
        <ele>3.98267</ele>
        <time>2014-07-08T11:03:40Z</time>
      </trkpt>
      <trkpt lat="59.6135944" lon="17.7169784">
        <ele>3.50195</ele>
        <time>2014-07-08T11:03:41Z</time>
      </trkpt>
      <trkpt lat="59.6136218" lon="17.7169305">
        <ele>3.50195</ele>
        <time>2014-07-08T11:03:42Z</time>
      </trkpt>
      <trkpt lat="59.6136587" lon="17.7168893">
        <ele>3.50195</ele>
        <time>2014-07-08T11:03:43Z</time>
      </trkpt>
      <trkpt lat="59.6137024" lon="17.7168803">
        <ele>3.50195</ele>
        <time>2014-07-08T11:03:44Z</time>
      </trkpt>
      <trkpt lat="59.6137511" lon="17.7168928">
        <ele>3.50195</ele>
        <time>2014-07-08T11:03:45Z</time>
      </trkpt>
      <trkpt lat="59.6138013" lon="17.7169156">
        <ele>3.50195</ele>
        <time>2014-07-08T11:03:46Z</time>
      </trkpt>
      <trkpt lat="59.6138526" lon="17.7169461">
        <ele>3.50195</ele>
        <time>2014-07-08T11:03:47Z</time>
      </trkpt>
      <trkpt lat="59.6139047" lon="17.7169789">
        <ele>3.50195</ele>
        <time>2014-07-08T11:03:48Z</time>
      </trkpt>
      <trkpt lat="59.6139588" lon="17.7170052">
        <ele>3.50195</ele>
        <time>2014-07-08T11:03:49Z</time>
      </trkpt>
      <trkpt lat="59.6140161" lon="17.71703">
        <ele>3.02124</ele>
        <time>2014-07-08T11:03:50Z</time>
      </trkpt>
      <trkpt lat="59.6140776" lon="17.7170586">
        <ele>3.50195</ele>
        <time>2014-07-08T11:03:51Z</time>
      </trkpt>
      <trkpt lat="59.6141411" lon="17.7170921">
        <ele>3.50195</ele>
        <time>2014-07-08T11:03:52Z</time>
      </trkpt>
      <trkpt lat="59.6142035" lon="17.7171292">
        <ele>3.50195</ele>
        <time>2014-07-08T11:03:53Z</time>
      </trkpt>
      <trkpt lat="59.6142613" lon="17.7171705">
        <ele>3.98267</ele>
        <time>2014-07-08T11:03:54Z</time>
      </trkpt>
      <trkpt lat="59.6143157" lon="17.7172099">
        <ele>4.46326</ele>
        <time>2014-07-08T11:03:55Z</time>
      </trkpt>
      <trkpt lat="59.6143679" lon="17.7172447">
        <ele>4.94385</ele>
        <time>2014-07-08T11:03:56Z</time>
      </trkpt>
      <trkpt lat="59.6144131" lon="17.7172719">
        <ele>4.94385</ele>
        <time>2014-07-08T11:03:57Z</time>
      </trkpt>
      <trkpt lat="59.6144526" lon="17.7172921">
        <ele>4.94385</ele>
        <time>2014-07-08T11:03:58Z</time>
      </trkpt>
      <trkpt lat="59.6144876" lon="17.7173109">
        <ele>4.94385</ele>
        <time>2014-07-08T11:03:59Z</time>
      </trkpt>
      <trkpt lat="59.6145192" lon="17.7173315">
        <ele>5.42456</ele>
        <time>2014-07-08T11:04:00Z</time>
      </trkpt>
      <trkpt lat="59.6145467" lon="17.7173506">
        <ele>4.94385</ele>
        <time>2014-07-08T11:04:01Z</time>
      </trkpt>
      <trkpt lat="59.6145775" lon="17.7173684">
        <ele>5.42456</ele>
        <time>2014-07-08T11:04:02Z</time>
      </trkpt>
      <trkpt lat="59.6146076" lon="17.7173918">
        <ele>5.42456</ele>
        <time>2014-07-08T11:04:03Z</time>
      </trkpt>
      <trkpt lat="59.6146382" lon="17.7174136">
        <ele>5.42456</ele>
        <time>2014-07-08T11:04:04Z</time>
      </trkpt>
      <trkpt lat="59.6146724" lon="17.7174316">
        <ele>5.42456</ele>
        <time>2014-07-08T11:04:05Z</time>
      </trkpt>
      <trkpt lat="59.6147081" lon="17.7174457">
        <ele>5.90527</ele>
        <time>2014-07-08T11:04:06Z</time>
      </trkpt>
      <trkpt lat="59.6147469" lon="17.7174611">
        <ele>5.90527</ele>
        <time>2014-07-08T11:04:07Z</time>
      </trkpt>
      <trkpt lat="59.6147844" lon="17.717483">
        <ele>5.90527</ele>
        <time>2014-07-08T11:04:08Z</time>
      </trkpt>
      <trkpt lat="59.6148191" lon="17.7175107">
        <ele>5.90527</ele>
        <time>2014-07-08T11:04:09Z</time>
      </trkpt>
      <trkpt lat="59.6148632" lon="17.7175399">
        <ele>5.90527</ele>
        <time>2014-07-08T11:04:10Z</time>
      </trkpt>
      <trkpt lat="59.6149054" lon="17.7175708">
        <ele>5.90527</ele>
        <time>2014-07-08T11:04:11Z</time>
      </trkpt>
      <trkpt lat="59.6149491" lon="17.7175921">
        <ele>5.90527</ele>
        <time>2014-07-08T11:04:12Z</time>
      </trkpt>
      <trkpt lat="59.6149967" lon="17.7176127">
        <ele>5.90527</ele>
        <time>2014-07-08T11:04:13Z</time>
      </trkpt>
      <trkpt lat="59.6150469" lon="17.7176393">
        <ele>6.38586</ele>
        <time>2014-07-08T11:04:14Z</time>
      </trkpt>
      <trkpt lat="59.6150911" lon="17.7176632">
        <ele>6.38586</ele>
        <time>2014-07-08T11:04:15Z</time>
      </trkpt>
      <trkpt lat="59.6151395" lon="17.7176912">
        <ele>6.86646</ele>
        <time>2014-07-08T11:04:16Z</time>
      </trkpt>
      <trkpt lat="59.6151796" lon="17.7177176">
        <ele>7.82788</ele>
        <time>2014-07-08T11:04:17Z</time>
      </trkpt>
      <trkpt lat="59.6152132" lon="17.7177363">
        <ele>7.82788</ele>
        <time>2014-07-08T11:04:18Z</time>
      </trkpt>
      <trkpt lat="59.6152375" lon="17.7177611">
        <ele>7.82788</ele>
        <time>2014-07-08T11:04:19Z</time>
      </trkpt>
      <trkpt lat="59.6152563" lon="17.7177878">
        <ele>9.2699</ele>
        <time>2014-07-08T11:04:20Z</time>
      </trkpt>
      <trkpt lat="59.6152682" lon="17.7178196">
        <ele>9.75061</ele>
        <time>2014-07-08T11:04:21Z</time>
      </trkpt>
      <trkpt lat="59.6152723" lon="17.7178682">
        <ele>11.1925</ele>
        <time>2014-07-08T11:04:22Z</time>
      </trkpt>
      <trkpt lat="59.6152718" lon="17.717913">
        <ele>12.1538</ele>
        <time>2014-07-08T11:04:23Z</time>
      </trkpt>
      <trkpt lat="59.6152728" lon="17.7179709">
        <ele>13.5958</ele>
        <time>2014-07-08T11:04:24Z</time>
      </trkpt>
      <trkpt lat="59.6152795" lon="17.7180243">
        <ele>15.0377</ele>
        <time>2014-07-08T11:04:25Z</time>
      </trkpt>
      <trkpt lat="59.6152755" lon="17.7180786">
        <ele>15.5184</ele>
        <time>2014-07-08T11:04:26Z</time>
      </trkpt>
      <trkpt lat="59.615273" lon="17.7181314">
        <ele>15.999</ele>
        <time>2014-07-08T11:04:27Z</time>
      </trkpt>
      <trkpt lat="59.6152755" lon="17.7181853">
        <ele>15.999</ele>
        <time>2014-07-08T11:04:28Z</time>
      </trkpt>
      <trkpt lat="59.6152764" lon="17.7182411">
        <ele>15.999</ele>
        <time>2014-07-08T11:04:29Z</time>
      </trkpt>
      <trkpt lat="59.6152753" lon="17.7182997">
        <ele>15.999</ele>
        <time>2014-07-08T11:04:30Z</time>
      </trkpt>
      <trkpt lat="59.6152755" lon="17.7183536">
        <ele>16.4797</ele>
        <time>2014-07-08T11:04:31Z</time>
      </trkpt>
      <trkpt lat="59.6152781" lon="17.7183894">
        <ele>15.999</ele>
        <time>2014-07-08T11:04:32Z</time>
      </trkpt>
      <trkpt lat="59.6152924" lon="17.7184029">
        <ele>16.4797</ele>
        <time>2014-07-08T11:04:33Z</time>
      </trkpt>
      <trkpt lat="59.6153089" lon="17.7183942">
        <ele>15.999</ele>
        <time>2014-07-08T11:04:34Z</time>
      </trkpt>
      <trkpt lat="59.6153282" lon="17.7183805">
        <ele>15.5184</ele>
        <time>2014-07-08T11:04:35Z</time>
      </trkpt>
      <trkpt lat="59.6153501" lon="17.718367">
        <ele>15.5184</ele>
        <time>2014-07-08T11:04:36Z</time>
      </trkpt>
      <trkpt lat="59.6153748" lon="17.7183559">
        <ele>15.5184</ele>
        <time>2014-07-08T11:04:37Z</time>
      </trkpt>
      <trkpt lat="59.6153991" lon="17.7183475">
        <ele>15.5184</ele>
        <time>2014-07-08T11:04:38Z</time>
      </trkpt>
      <trkpt lat="59.6154277" lon="17.7183411">
        <ele>15.5184</ele>
        <time>2014-07-08T11:04:39Z</time>
      </trkpt>
      <trkpt lat="59.6154521" lon="17.7183398">
        <ele>15.0377</ele>
        <time>2014-07-08T11:04:40Z</time>
      </trkpt>
      <trkpt lat="59.6154804" lon="17.7183507">
        <ele>15.0377</ele>
        <time>2014-07-08T11:04:41Z</time>
      </trkpt>
      <trkpt lat="59.6155096" lon="17.7183617">
        <ele>14.557</ele>
        <time>2014-07-08T11:04:42Z</time>
      </trkpt>
      <trkpt lat="59.6155417" lon="17.7183682">
        <ele>15.0377</ele>
        <time>2014-07-08T11:04:43Z</time>
      </trkpt>
      <trkpt lat="59.6155754" lon="17.7183727">
        <ele>14.557</ele>
        <time>2014-07-08T11:04:44Z</time>
      </trkpt>
      <trkpt lat="59.6156104" lon="17.7183775">
        <ele>15.0377</ele>
        <time>2014-07-08T11:04:45Z</time>
      </trkpt>
      <trkpt lat="59.6156457" lon="17.7183941">
        <ele>15.0377</ele>
        <time>2014-07-08T11:04:46Z</time>
      </trkpt>
      <trkpt lat="59.6156817" lon="17.7184125">
        <ele>15.5184</ele>
        <time>2014-07-08T11:04:47Z</time>
      </trkpt>
      <trkpt lat="59.6157121" lon="17.7184288">
        <ele>15.5184</ele>
        <time>2014-07-08T11:04:48Z</time>
      </trkpt>
      <trkpt lat="59.6157355" lon="17.7184405">
        <ele>15.999</ele>
        <time>2014-07-08T11:04:49Z</time>
      </trkpt>
      <trkpt lat="59.6157528" lon="17.7184473">
        <ele>16.4797</ele>
        <time>2014-07-08T11:04:50Z</time>
      </trkpt>
      <trkpt lat="59.6157725" lon="17.7184514">
        <ele>16.4797</ele>
        <time>2014-07-08T11:04:51Z</time>
      </trkpt>
      <trkpt lat="59.6157951" lon="17.7184498">
        <ele>16.4797</ele>
        <time>2014-07-08T11:04:52Z</time>
      </trkpt>
      <trkpt lat="59.6158199" lon="17.7184495">
        <ele>16.9604</ele>
        <time>2014-07-08T11:04:53Z</time>
      </trkpt>
      <trkpt lat="59.6158432" lon="17.7184489">
        <ele>16.4797</ele>
        <time>2014-07-08T11:04:54Z</time>
      </trkpt>
      <trkpt lat="59.6158676" lon="17.7184417">
        <ele>16.9604</ele>
        <time>2014-07-08T11:04:55Z</time>
      </trkpt>
      <trkpt lat="59.6158937" lon="17.7184405">
        <ele>16.4797</ele>
        <time>2014-07-08T11:04:56Z</time>
      </trkpt>
      <trkpt lat="59.6159215" lon="17.7184387">
        <ele>16.4797</ele>
        <time>2014-07-08T11:04:57Z</time>
      </trkpt>
      <trkpt lat="59.615952" lon="17.7184432">
        <ele>16.9604</ele>
        <time>2014-07-08T11:04:58Z</time>
      </trkpt>
      <trkpt lat="59.6159784" lon="17.7184609">
        <ele>16.9604</ele>
        <time>2014-07-08T11:04:59Z</time>
      </trkpt>
      <trkpt lat="59.6160006" lon="17.7184909">
        <ele>16.9604</ele>
        <time>2014-07-08T11:05:00Z</time>
      </trkpt>
      <trkpt lat="59.6160167" lon="17.7185323">
        <ele>16.9604</ele>
        <time>2014-07-08T11:05:01Z</time>
      </trkpt>
      <trkpt lat="59.6160337" lon="17.7185842">
        <ele>17.4412</ele>
        <time>2014-07-08T11:05:02Z</time>
      </trkpt>
      <trkpt lat="59.6160538" lon="17.71864">
        <ele>17.4412</ele>
        <time>2014-07-08T11:05:03Z</time>
      </trkpt>
      <trkpt lat="59.6160699" lon="17.7186961">
        <ele>17.4412</ele>
        <time>2014-07-08T11:05:04Z</time>
      </trkpt>
      <trkpt lat="59.6160877" lon="17.7187541">
        <ele>17.4412</ele>
        <time>2014-07-08T11:05:05Z</time>
      </trkpt>
      <trkpt lat="59.6161047" lon="17.7188117">
        <ele>16.9604</ele>
        <time>2014-07-08T11:05:06Z</time>
      </trkpt>
      <trkpt lat="59.6161245" lon="17.7188686">
        <ele>17.4412</ele>
        <time>2014-07-08T11:05:07Z</time>
      </trkpt>
      <trkpt lat="59.6161383" lon="17.718928">
        <ele>16.9604</ele>
        <time>2014-07-08T11:05:08Z</time>
      </trkpt>
      <trkpt lat="59.6161549" lon="17.7189877">
        <ele>16.9604</ele>
        <time>2014-07-08T11:05:09Z</time>
      </trkpt>
      <trkpt lat="59.616179" lon="17.719051">
        <ele>17.4412</ele>
        <time>2014-07-08T11:05:10Z</time>
      </trkpt>
      <trkpt lat="59.6162063" lon="17.7191132">
        <ele>17.9218</ele>
        <time>2014-07-08T11:05:11Z</time>
      </trkpt>
      <trkpt lat="59.6162244" lon="17.7191715">
        <ele>17.9218</ele>
        <time>2014-07-08T11:05:12Z</time>
      </trkpt>
      <trkpt lat="59.6162441" lon="17.7192317">
        <ele>18.4023</ele>
        <time>2014-07-08T11:05:13Z</time>
      </trkpt>
      <trkpt lat="59.6162566" lon="17.7192913">
        <ele>17.9218</ele>
        <time>2014-07-08T11:05:14Z</time>
      </trkpt>
      <trkpt lat="59.616271" lon="17.7193492">
        <ele>17.9218</ele>
        <time>2014-07-08T11:05:15Z</time>
      </trkpt>
      <trkpt lat="59.6162887" lon="17.7194047">
        <ele>17.9218</ele>
        <time>2014-07-08T11:05:16Z</time>
      </trkpt>
      <trkpt lat="59.6163068" lon="17.7194586">
        <ele>18.4023</ele>
        <time>2014-07-08T11:05:17Z</time>
      </trkpt>
      <trkpt lat="59.6163255" lon="17.7195131">
        <ele>18.4023</ele>
        <time>2014-07-08T11:05:18Z</time>
      </trkpt>
      <trkpt lat="59.6163456" lon="17.7195718">
        <ele>18.4023</ele>
        <time>2014-07-08T11:05:19Z</time>
      </trkpt>
      <trkpt lat="59.6163679" lon="17.7196329">
        <ele>17.9218</ele>
        <time>2014-07-08T11:05:20Z</time>
      </trkpt>
      <trkpt lat="59.6163928" lon="17.7196922">
        <ele>17.9218</ele>
        <time>2014-07-08T11:05:21Z</time>
      </trkpt>
      <trkpt lat="59.616416" lon="17.719745">
        <ele>17.9218</ele>
        <time>2014-07-08T11:05:22Z</time>
      </trkpt>
      <trkpt lat="59.6164315" lon="17.7197818">
        <ele>17.9218</ele>
        <time>2014-07-08T11:05:23Z</time>
      </trkpt>
      <trkpt lat="59.6164394" lon="17.7198034">
        <ele>17.9218</ele>
        <time>2014-07-08T11:05:24Z</time>
      </trkpt>
      <trkpt lat="59.6164465" lon="17.7198243">
        <ele>17.4412</ele>
        <time>2014-07-08T11:05:25Z</time>
      </trkpt>
      <trkpt lat="59.6164581" lon="17.71985">
        <ele>16.9604</ele>
        <time>2014-07-08T11:05:26Z</time>
      </trkpt>
      <trkpt lat="59.6164781" lon="17.7198833">
        <ele>16.9604</ele>
        <time>2014-07-08T11:05:27Z</time>
      </trkpt>
      <trkpt lat="59.6165029" lon="17.7199289">
        <ele>16.4797</ele>
        <time>2014-07-08T11:05:28Z</time>
      </trkpt>
      <trkpt lat="59.6165285" lon="17.7199879">
        <ele>16.4797</ele>
        <time>2014-07-08T11:05:29Z</time>
      </trkpt>
      <trkpt lat="59.6165554" lon="17.7200537">
        <ele>16.4797</ele>
        <time>2014-07-08T11:05:30Z</time>
      </trkpt>
      <trkpt lat="59.6165838" lon="17.7201202">
        <ele>16.4797</ele>
        <time>2014-07-08T11:05:31Z</time>
      </trkpt>
      <trkpt lat="59.6166146" lon="17.7201812">
        <ele>15.999</ele>
        <time>2014-07-08T11:05:32Z</time>
      </trkpt>
      <trkpt lat="59.6166456" lon="17.7202421">
        <ele>15.5184</ele>
        <time>2014-07-08T11:05:33Z</time>
      </trkpt>
      <trkpt lat="59.6166777" lon="17.7203024">
        <ele>15.5184</ele>
        <time>2014-07-08T11:05:34Z</time>
      </trkpt>
      <trkpt lat="59.6167089" lon="17.720361">
        <ele>15.0377</ele>
        <time>2014-07-08T11:05:35Z</time>
      </trkpt>
      <trkpt lat="59.6167368" lon="17.7204226">
        <ele>15.0377</ele>
        <time>2014-07-08T11:05:36Z</time>
      </trkpt>
      <trkpt lat="59.6167652" lon="17.7204791">
        <ele>14.557</ele>
        <time>2014-07-08T11:05:37Z</time>
      </trkpt>
      <trkpt lat="59.616794" lon="17.7205358">
        <ele>14.557</ele>
        <time>2014-07-08T11:05:38Z</time>
      </trkpt>
      <trkpt lat="59.6168218" lon="17.720598">
        <ele>14.0764</ele>
        <time>2014-07-08T11:05:39Z</time>
      </trkpt>
      <trkpt lat="59.6168486" lon="17.7206545">
        <ele>13.5958</ele>
        <time>2014-07-08T11:05:40Z</time>
      </trkpt>
      <trkpt lat="59.6168791" lon="17.7207084">
        <ele>13.5958</ele>
        <time>2014-07-08T11:05:41Z</time>
      </trkpt>
      <trkpt lat="59.6169072" lon="17.7207601">
        <ele>13.1151</ele>
        <time>2014-07-08T11:05:42Z</time>
      </trkpt>
      <trkpt lat="59.6169336" lon="17.7208096">
        <ele>13.1151</ele>
        <time>2014-07-08T11:05:43Z</time>
      </trkpt>
      <trkpt lat="59.6169598" lon="17.7208584">
        <ele>12.6344</ele>
        <time>2014-07-08T11:05:44Z</time>
      </trkpt>
      <trkpt lat="59.6169875" lon="17.7209083">
        <ele>12.1538</ele>
        <time>2014-07-08T11:05:45Z</time>
      </trkpt>
      <trkpt lat="59.6170163" lon="17.7209632">
        <ele>11.6732</ele>
        <time>2014-07-08T11:05:46Z</time>
      </trkpt>
      <trkpt lat="59.617045" lon="17.7210235">
        <ele>11.6732</ele>
        <time>2014-07-08T11:05:47Z</time>
      </trkpt>
      <trkpt lat="59.6170717" lon="17.7210873">
        <ele>11.6732</ele>
        <time>2014-07-08T11:05:48Z</time>
      </trkpt>
      <trkpt lat="59.6170938" lon="17.7211461">
        <ele>11.1925</ele>
        <time>2014-07-08T11:05:49Z</time>
      </trkpt>
      <trkpt lat="59.6171121" lon="17.7211942">
        <ele>10.7118</ele>
        <time>2014-07-08T11:05:50Z</time>
      </trkpt>
      <trkpt lat="59.6171331" lon="17.721226">
        <ele>11.1925</ele>
        <time>2014-07-08T11:05:51Z</time>
      </trkpt>
      <trkpt lat="59.6171522" lon="17.7212405">
        <ele>11.1925</ele>
        <time>2014-07-08T11:05:52Z</time>
      </trkpt>
      <trkpt lat="59.6171692" lon="17.721239">
        <ele>10.7118</ele>
        <time>2014-07-08T11:05:53Z</time>
      </trkpt>
      <trkpt lat="59.6171823" lon="17.7212179">
        <ele>10.7118</ele>
        <time>2014-07-08T11:05:54Z</time>
      </trkpt>
      <trkpt lat="59.61719" lon="17.7211867">
        <ele>10.7118</ele>
        <time>2014-07-08T11:05:55Z</time>
      </trkpt>
      <trkpt lat="59.6171982" lon="17.7211492">
        <ele>10.7118</ele>
        <time>2014-07-08T11:05:56Z</time>
      </trkpt>
      <trkpt lat="59.6172107" lon="17.7211105">
        <ele>10.7118</ele>
        <time>2014-07-08T11:05:57Z</time>
      </trkpt>
      <trkpt lat="59.6172282" lon="17.7210764">
        <ele>11.1925</ele>
        <time>2014-07-08T11:05:58Z</time>
      </trkpt>
      <trkpt lat="59.6172512" lon="17.7210479">
        <ele>11.1925</ele>
        <time>2014-07-08T11:05:59Z</time>
      </trkpt>
      <trkpt lat="59.6172789" lon="17.7210275">
        <ele>11.6732</ele>
        <time>2014-07-08T11:06:00Z</time>
      </trkpt>
      <trkpt lat="59.6173092" lon="17.7210099">
        <ele>11.6732</ele>
        <time>2014-07-08T11:06:01Z</time>
      </trkpt>
      <trkpt lat="59.6173423" lon="17.7209904">
        <ele>11.6732</ele>
        <time>2014-07-08T11:06:02Z</time>
      </trkpt>
      <trkpt lat="59.6173761" lon="17.7209716">
        <ele>12.1538</ele>
        <time>2014-07-08T11:06:03Z</time>
      </trkpt>
      <trkpt lat="59.6174106" lon="17.720958">
        <ele>12.1538</ele>
        <time>2014-07-08T11:06:04Z</time>
      </trkpt>
      <trkpt lat="59.6174443" lon="17.7209495">
        <ele>12.1538</ele>
        <time>2014-07-08T11:06:05Z</time>
      </trkpt>
      <trkpt lat="59.6174765" lon="17.7209401">
        <ele>12.1538</ele>
        <time>2014-07-08T11:06:06Z</time>
      </trkpt>
      <trkpt lat="59.6175096" lon="17.7209333">
        <ele>12.1538</ele>
        <time>2014-07-08T11:06:07Z</time>
      </trkpt>
      <trkpt lat="59.6175441" lon="17.7209291">
        <ele>12.6344</ele>
        <time>2014-07-08T11:06:08Z</time>
      </trkpt>
      <trkpt lat="59.6175801" lon="17.7209231">
        <ele>12.6344</ele>
        <time>2014-07-08T11:06:09Z</time>
      </trkpt>
      <trkpt lat="59.6176172" lon="17.7209164">
        <ele>12.6344</ele>
        <time>2014-07-08T11:06:10Z</time>
      </trkpt>
      <trkpt lat="59.617655" lon="17.7209121">
        <ele>12.6344</ele>
        <time>2014-07-08T11:06:11Z</time>
      </trkpt>
      <trkpt lat="59.6176929" lon="17.7209058">
        <ele>12.6344</ele>
        <time>2014-07-08T11:06:12Z</time>
      </trkpt>
      <trkpt lat="59.6177303" lon="17.720893">
        <ele>13.1151</ele>
        <time>2014-07-08T11:06:13Z</time>
      </trkpt>
      <trkpt lat="59.6177676" lon="17.7208831">
        <ele>13.1151</ele>
        <time>2014-07-08T11:06:14Z</time>
      </trkpt>
      <trkpt lat="59.6178042" lon="17.7208748">
        <ele>13.5958</ele>
        <time>2014-07-08T11:06:15Z</time>
      </trkpt>
      <trkpt lat="59.6178406" lon="17.7208729">
        <ele>13.5958</ele>
        <time>2014-07-08T11:06:16Z</time>
      </trkpt>
      <trkpt lat="59.6178763" lon="17.7208694">
        <ele>14.0764</ele>
        <time>2014-07-08T11:06:17Z</time>
      </trkpt>
      <trkpt lat="59.6179106" lon="17.7208637">
        <ele>14.0764</ele>
        <time>2014-07-08T11:06:18Z</time>
      </trkpt>
      <trkpt lat="59.6179437" lon="17.7208573">
        <ele>14.0764</ele>
        <time>2014-07-08T11:06:19Z</time>
      </trkpt>
      <trkpt lat="59.6179758" lon="17.7208515">
        <ele>14.557</ele>
        <time>2014-07-08T11:06:20Z</time>
      </trkpt>
      <trkpt lat="59.618007" lon="17.7208453">
        <ele>14.557</ele>
        <time>2014-07-08T11:06:21Z</time>
      </trkpt>
      <trkpt lat="59.618038" lon="17.7208412">
        <ele>15.0377</ele>
        <time>2014-07-08T11:06:22Z</time>
      </trkpt>
      <trkpt lat="59.6180687" lon="17.7208421">
        <ele>15.0377</ele>
        <time>2014-07-08T11:06:23Z</time>
      </trkpt>
      <trkpt lat="59.6180996" lon="17.7208477">
        <ele>15.5184</ele>
        <time>2014-07-08T11:06:24Z</time>
      </trkpt>
      <trkpt lat="59.6181311" lon="17.7208565">
        <ele>15.5184</ele>
        <time>2014-07-08T11:06:25Z</time>
      </trkpt>
      <trkpt lat="59.6181633" lon="17.7208672">
        <ele>15.5184</ele>
        <time>2014-07-08T11:06:26Z</time>
      </trkpt>
      <trkpt lat="59.6181955" lon="17.7208763">
        <ele>15.999</ele>
        <time>2014-07-08T11:06:27Z</time>
      </trkpt>
      <trkpt lat="59.6182261" lon="17.7208853">
        <ele>15.999</ele>
        <time>2014-07-08T11:06:28Z</time>
      </trkpt>
      <trkpt lat="59.6182525" lon="17.7208962">
        <ele>15.999</ele>
        <time>2014-07-08T11:06:29Z</time>
      </trkpt>
      <trkpt lat="59.6182733" lon="17.7209007">
        <ele>16.4797</ele>
        <time>2014-07-08T11:06:30Z</time>
      </trkpt>
      <trkpt lat="59.6182904" lon="17.7208909">
        <ele>16.4797</ele>
        <time>2014-07-08T11:06:31Z</time>
      </trkpt>
      <trkpt lat="59.6182963" lon="17.7208665">
        <ele>16.4797</ele>
        <time>2014-07-08T11:06:32Z</time>
      </trkpt>
      <trkpt lat="59.6182854" lon="17.7208482">
        <ele>16.4797</ele>
        <time>2014-07-08T11:06:33Z</time>
      </trkpt>
      <trkpt lat="59.6182659" lon="17.7208501">
        <ele>16.4797</ele>
        <time>2014-07-08T11:06:34Z</time>
      </trkpt>
      <trkpt lat="59.6182415" lon="17.720867">
        <ele>16.4797</ele>
        <time>2014-07-08T11:06:35Z</time>
      </trkpt>
      <trkpt lat="59.6182119" lon="17.7208815">
        <ele>16.4797</ele>
        <time>2014-07-08T11:06:36Z</time>
      </trkpt>
      <trkpt lat="59.618179" lon="17.720887">
        <ele>15.999</ele>
        <time>2014-07-08T11:06:37Z</time>
      </trkpt>
      <trkpt lat="59.6181452" lon="17.7208808">
        <ele>15.999</ele>
        <time>2014-07-08T11:06:38Z</time>
      </trkpt>
      <trkpt lat="59.6181103" lon="17.7208691">
        <ele>15.999</ele>
        <time>2014-07-08T11:06:39Z</time>
      </trkpt>
      <trkpt lat="59.6180741" lon="17.7208618">
        <ele>15.999</ele>
        <time>2014-07-08T11:06:40Z</time>
      </trkpt>
      <trkpt lat="59.6180347" lon="17.7208629">
        <ele>15.999</ele>
        <time>2014-07-08T11:06:41Z</time>
      </trkpt>
      <trkpt lat="59.6179924" lon="17.7208661">
        <ele>15.999</ele>
        <time>2014-07-08T11:06:42Z</time>
      </trkpt>
      <trkpt lat="59.6179495" lon="17.7208663">
        <ele>15.999</ele>
        <time>2014-07-08T11:06:43Z</time>
      </trkpt>
      <trkpt lat="59.6179006" lon="17.7208701">
        <ele>15.999</ele>
        <time>2014-07-08T11:06:44Z</time>
      </trkpt>
      <trkpt lat="59.6178532" lon="17.7208742">
        <ele>15.999</ele>
        <time>2014-07-08T11:06:45Z</time>
      </trkpt>
      <trkpt lat="59.6178085" lon="17.7208805">
        <ele>15.999</ele>
        <time>2014-07-08T11:06:46Z</time>
      </trkpt>
      <trkpt lat="59.6177645" lon="17.7208891">
        <ele>15.999</ele>
        <time>2014-07-08T11:06:47Z</time>
      </trkpt>
      <trkpt lat="59.6177205" lon="17.7208924">
        <ele>15.5184</ele>
        <time>2014-07-08T11:06:48Z</time>
      </trkpt>
      <trkpt lat="59.6176771" lon="17.7208945">
        <ele>15.5184</ele>
        <time>2014-07-08T11:06:49Z</time>
      </trkpt>
      <trkpt lat="59.6176327" lon="17.7209019">
        <ele>15.5184</ele>
        <time>2014-07-08T11:06:50Z</time>
      </trkpt>
      <trkpt lat="59.6175878" lon="17.7209091">
        <ele>15.0377</ele>
        <time>2014-07-08T11:06:51Z</time>
      </trkpt>
      <trkpt lat="59.6175407" lon="17.7209151">
        <ele>15.5184</ele>
        <time>2014-07-08T11:06:52Z</time>
      </trkpt>
      <trkpt lat="59.617494" lon="17.7209224">
        <ele>15.0377</ele>
        <time>2014-07-08T11:06:53Z</time>
      </trkpt>
      <trkpt lat="59.6174474" lon="17.7209334">
        <ele>15.0377</ele>
        <time>2014-07-08T11:06:54Z</time>
      </trkpt>
      <trkpt lat="59.617403" lon="17.7209499">
        <ele>14.557</ele>
        <time>2014-07-08T11:06:55Z</time>
      </trkpt>
      <trkpt lat="59.6173635" lon="17.7209707">
        <ele>14.557</ele>
        <time>2014-07-08T11:06:56Z</time>
      </trkpt>
      <trkpt lat="59.6173283" lon="17.7209922">
        <ele>14.0764</ele>
        <time>2014-07-08T11:06:57Z</time>
      </trkpt>
      <trkpt lat="59.6172971" lon="17.7210047">
        <ele>14.0764</ele>
        <time>2014-07-08T11:06:58Z</time>
      </trkpt>
      <trkpt lat="59.6172699" lon="17.7210156">
        <ele>14.0764</ele>
        <time>2014-07-08T11:06:59Z</time>
      </trkpt>
      <trkpt lat="59.6172448" lon="17.7210322">
        <ele>14.0764</ele>
        <time>2014-07-08T11:07:00Z</time>
      </trkpt>
      <trkpt lat="59.6172204" lon="17.7210598">
        <ele>13.5958</ele>
        <time>2014-07-08T11:07:01Z</time>
      </trkpt>
      <trkpt lat="59.6171965" lon="17.7211013">
        <ele>13.5958</ele>
        <time>2014-07-08T11:07:02Z</time>
      </trkpt>
      <trkpt lat="59.617177" lon="17.7211565">
        <ele>13.1151</ele>
        <time>2014-07-08T11:07:03Z</time>
      </trkpt>
      <trkpt lat="59.6171672" lon="17.7212239">
        <ele>13.1151</ele>
        <time>2014-07-08T11:07:04Z</time>
      </trkpt>
      <trkpt lat="59.6171709" lon="17.721301">
        <ele>12.6344</ele>
        <time>2014-07-08T11:07:05Z</time>
      </trkpt>
      <trkpt lat="59.6171841" lon="17.7213817">
        <ele>12.6344</ele>
        <time>2014-07-08T11:07:06Z</time>
      </trkpt>
      <trkpt lat="59.6172044" lon="17.7214633">
        <ele>12.1538</ele>
        <time>2014-07-08T11:07:07Z</time>
      </trkpt>
      <trkpt lat="59.6172266" lon="17.7215501">
        <ele>11.6732</ele>
        <time>2014-07-08T11:07:08Z</time>
      </trkpt>
      <trkpt lat="59.6172475" lon="17.721644">
        <ele>11.6732</ele>
        <time>2014-07-08T11:07:09Z</time>
      </trkpt>
      <trkpt lat="59.6172686" lon="17.7217425">
        <ele>11.1925</ele>
        <time>2014-07-08T11:07:10Z</time>
      </trkpt>
      <trkpt lat="59.6172884" lon="17.7218434">
        <ele>10.7118</ele>
        <time>2014-07-08T11:07:11Z</time>
      </trkpt>
      <trkpt lat="59.6173113" lon="17.7219485">
        <ele>10.7118</ele>
        <time>2014-07-08T11:07:12Z</time>
      </trkpt>
      <trkpt lat="59.6173345" lon="17.722058">
        <ele>10.7118</ele>
        <time>2014-07-08T11:07:13Z</time>
      </trkpt>
      <trkpt lat="59.6173547" lon="17.7221708">
        <ele>10.7118</ele>
        <time>2014-07-08T11:07:14Z</time>
      </trkpt>
      <trkpt lat="59.6173728" lon="17.7222836">
        <ele>10.2312</ele>
        <time>2014-07-08T11:07:15Z</time>
      </trkpt>
      <trkpt lat="59.617392" lon="17.7223986">
        <ele>9.75061</ele>
        <time>2014-07-08T11:07:16Z</time>
      </trkpt>
      <trkpt lat="59.6174089" lon="17.7225163">
        <ele>9.2699</ele>
        <time>2014-07-08T11:07:17Z</time>
      </trkpt>
      <trkpt lat="59.6174263" lon="17.7226375">
        <ele>9.2699</ele>
        <time>2014-07-08T11:07:18Z</time>
      </trkpt>
      <trkpt lat="59.6174426" lon="17.7227592">
        <ele>8.78918</ele>
        <time>2014-07-08T11:07:19Z</time>
      </trkpt>
      <trkpt lat="59.6174581" lon="17.72288">
        <ele>8.30859</ele>
        <time>2014-07-08T11:07:20Z</time>
      </trkpt>
      <trkpt lat="59.6174742" lon="17.7229991">
        <ele>8.30859</ele>
        <time>2014-07-08T11:07:21Z</time>
      </trkpt>
      <trkpt lat="59.6174914" lon="17.7231152">
        <ele>8.30859</ele>
        <time>2014-07-08T11:07:22Z</time>
      </trkpt>
      <trkpt lat="59.6175063" lon="17.7232316">
        <ele>8.30859</ele>
        <time>2014-07-08T11:07:23Z</time>
      </trkpt>
      <trkpt lat="59.6175179" lon="17.7233468">
        <ele>8.30859</ele>
        <time>2014-07-08T11:07:24Z</time>
      </trkpt>
      <trkpt lat="59.6175286" lon="17.7234545">
        <ele>7.82788</ele>
        <time>2014-07-08T11:07:25Z</time>
      </trkpt>
      <trkpt lat="59.617539" lon="17.7235456">
        <ele>7.82788</ele>
        <time>2014-07-08T11:07:26Z</time>
      </trkpt>
      <trkpt lat="59.6175463" lon="17.7236196">
        <ele>7.82788</ele>
        <time>2014-07-08T11:07:27Z</time>
      </trkpt>
      <trkpt lat="59.6175484" lon="17.7236798">
        <ele>7.34717</ele>
        <time>2014-07-08T11:07:28Z</time>
      </trkpt>
      <trkpt lat="59.6175526" lon="17.7237302">
        <ele>7.34717</ele>
        <time>2014-07-08T11:07:29Z</time>
      </trkpt>
      <trkpt lat="59.6175545" lon="17.7237742">
        <ele>7.34717</ele>
        <time>2014-07-08T11:07:30Z</time>
      </trkpt>
      <trkpt lat="59.6175568" lon="17.7238125">
        <ele>6.86646</ele>
        <time>2014-07-08T11:07:31Z</time>
      </trkpt>
      <trkpt lat="59.6175598" lon="17.7238493">
        <ele>6.86646</ele>
        <time>2014-07-08T11:07:32Z</time>
      </trkpt>
      <trkpt lat="59.6175618" lon="17.7238889">
        <ele>7.34717</ele>
        <time>2014-07-08T11:07:33Z</time>
      </trkpt>
      <trkpt lat="59.6175599" lon="17.7239331">
        <ele>7.34717</ele>
        <time>2014-07-08T11:07:34Z</time>
      </trkpt>
      <trkpt lat="59.6175556" lon="17.7239783">
        <ele>7.82788</ele>
        <time>2014-07-08T11:07:35Z</time>
      </trkpt>
      <trkpt lat="59.6175416" lon="17.7240249">
        <ele>8.78918</ele>
        <time>2014-07-08T11:07:36Z</time>
      </trkpt>
      <trkpt lat="59.6175209" lon="17.724073">
        <ele>9.2699</ele>
        <time>2014-07-08T11:07:37Z</time>
      </trkpt>
      <trkpt lat="59.6174931" lon="17.7241149">
        <ele>9.2699</ele>
        <time>2014-07-08T11:07:38Z</time>
      </trkpt>
      <trkpt lat="59.6174592" lon="17.7241497">
        <ele>9.2699</ele>
        <time>2014-07-08T11:07:39Z</time>
      </trkpt>
      <trkpt lat="59.617424" lon="17.7241845">
        <ele>9.2699</ele>
        <time>2014-07-08T11:07:40Z</time>
      </trkpt>
      <trkpt lat="59.617388" lon="17.724219">
        <ele>9.75061</ele>
        <time>2014-07-08T11:07:41Z</time>
      </trkpt>
      <trkpt lat="59.617347" lon="17.7242481">
        <ele>9.2699</ele>
        <time>2014-07-08T11:07:42Z</time>
      </trkpt>
      <trkpt lat="59.617306" lon="17.7242712">
        <ele>9.2699</ele>
        <time>2014-07-08T11:07:43Z</time>
      </trkpt>
      <trkpt lat="59.6172635" lon="17.7242869">
        <ele>9.75061</ele>
        <time>2014-07-08T11:07:44Z</time>
      </trkpt>
      <trkpt lat="59.6172199" lon="17.7242943">
        <ele>9.75061</ele>
        <time>2014-07-08T11:07:45Z</time>
      </trkpt>
      <trkpt lat="59.6171749" lon="17.7243052">
        <ele>9.75061</ele>
        <time>2014-07-08T11:07:46Z</time>
      </trkpt>
      <trkpt lat="59.6171323" lon="17.7243401">
        <ele>9.75061</ele>
        <time>2014-07-08T11:07:47Z</time>
      </trkpt>
      <trkpt lat="59.6170942" lon="17.7243999">
        <ele>9.75061</ele>
        <time>2014-07-08T11:07:48Z</time>
      </trkpt>
      <trkpt lat="59.6170642" lon="17.7244781">
        <ele>9.75061</ele>
        <time>2014-07-08T11:07:49Z</time>
      </trkpt>
      <trkpt lat="59.6170454" lon="17.7245656">
        <ele>9.75061</ele>
        <time>2014-07-08T11:07:50Z</time>
      </trkpt>
      <trkpt lat="59.6170334" lon="17.7246525">
        <ele>9.75061</ele>
        <time>2014-07-08T11:07:51Z</time>
      </trkpt>
      <trkpt lat="59.6170275" lon="17.7247366">
        <ele>10.2312</ele>
        <time>2014-07-08T11:07:52Z</time>
      </trkpt>
      <trkpt lat="59.6170274" lon="17.7248174">
        <ele>10.2312</ele>
        <time>2014-07-08T11:07:53Z</time>
      </trkpt>
      <trkpt lat="59.61703" lon="17.7248937">
        <ele>10.7118</ele>
        <time>2014-07-08T11:07:54Z</time>
      </trkpt>
      <trkpt lat="59.6170331" lon="17.7249656">
        <ele>10.7118</ele>
        <time>2014-07-08T11:07:55Z</time>
      </trkpt>
      <trkpt lat="59.6170362" lon="17.7250361">
        <ele>11.1925</ele>
        <time>2014-07-08T11:07:56Z</time>
      </trkpt>
      <trkpt lat="59.6170356" lon="17.7251064">
        <ele>11.1925</ele>
        <time>2014-07-08T11:07:57Z</time>
      </trkpt>
      <trkpt lat="59.6170331" lon="17.7251764">
        <ele>11.6732</ele>
        <time>2014-07-08T11:07:58Z</time>
      </trkpt>
      <trkpt lat="59.6170335" lon="17.7252488">
        <ele>12.1538</ele>
        <time>2014-07-08T11:07:59Z</time>
      </trkpt>
      <trkpt lat="59.6170365" lon="17.7253257">
        <ele>12.6344</ele>
        <time>2014-07-08T11:08:00Z</time>
      </trkpt>
      <trkpt lat="59.617038" lon="17.7254079">
        <ele>12.6344</ele>
        <time>2014-07-08T11:08:01Z</time>
      </trkpt>
      <trkpt lat="59.6170397" lon="17.7254918">
        <ele>13.1151</ele>
        <time>2014-07-08T11:08:02Z</time>
      </trkpt>
      <trkpt lat="59.6170422" lon="17.7255768">
        <ele>13.1151</ele>
        <time>2014-07-08T11:08:03Z</time>
      </trkpt>
      <trkpt lat="59.6170434" lon="17.7256633">
        <ele>13.1151</ele>
        <time>2014-07-08T11:08:04Z</time>
      </trkpt>
      <trkpt lat="59.6170455" lon="17.7257502">
        <ele>13.5958</ele>
        <time>2014-07-08T11:08:05Z</time>
      </trkpt>
      <trkpt lat="59.6170472" lon="17.7258361">
        <ele>13.5958</ele>
        <time>2014-07-08T11:08:06Z</time>
      </trkpt>
      <trkpt lat="59.6170511" lon="17.7259213">
        <ele>13.5958</ele>
        <time>2014-07-08T11:08:07Z</time>
      </trkpt>
      <trkpt lat="59.6170579" lon="17.7260022">
        <ele>13.5958</ele>
        <time>2014-07-08T11:08:08Z</time>
      </trkpt>
      <trkpt lat="59.6170636" lon="17.7260762">
        <ele>13.5958</ele>
        <time>2014-07-08T11:08:09Z</time>
      </trkpt>
      <trkpt lat="59.6170703" lon="17.7261405">
        <ele>13.5958</ele>
        <time>2014-07-08T11:08:10Z</time>
      </trkpt>
      <trkpt lat="59.6170771" lon="17.7261944">
        <ele>14.0764</ele>
        <time>2014-07-08T11:08:11Z</time>
      </trkpt>
      <trkpt lat="59.6170841" lon="17.7262469">
        <ele>14.0764</ele>
        <time>2014-07-08T11:08:12Z</time>
      </trkpt>
      <trkpt lat="59.6170921" lon="17.7263029">
        <ele>14.0764</ele>
        <time>2014-07-08T11:08:13Z</time>
      </trkpt>
      <trkpt lat="59.6171008" lon="17.7263638">
        <ele>14.0764</ele>
        <time>2014-07-08T11:08:14Z</time>
      </trkpt>
      <trkpt lat="59.6171119" lon="17.7264296">
        <ele>14.557</ele>
        <time>2014-07-08T11:08:15Z</time>
      </trkpt>
      <trkpt lat="59.6171253" lon="17.7264994">
        <ele>14.557</ele>
        <time>2014-07-08T11:08:16Z</time>
      </trkpt>
      <trkpt lat="59.6171397" lon="17.726575">
        <ele>14.557</ele>
        <time>2014-07-08T11:08:17Z</time>
      </trkpt>
      <trkpt lat="59.6171546" lon="17.7266572">
        <ele>15.0377</ele>
        <time>2014-07-08T11:08:18Z</time>
      </trkpt>
      <trkpt lat="59.6171682" lon="17.7267377">
        <ele>15.0377</ele>
        <time>2014-07-08T11:08:19Z</time>
      </trkpt>
      <trkpt lat="59.6171881" lon="17.7268108">
        <ele>15.5184</ele>
        <time>2014-07-08T11:08:20Z</time>
      </trkpt>
      <trkpt lat="59.6172019" lon="17.7268832">
        <ele>15.999</ele>
        <time>2014-07-08T11:08:21Z</time>
      </trkpt>
      <trkpt lat="59.6172154" lon="17.7269537">
        <ele>15.999</ele>
        <time>2014-07-08T11:08:22Z</time>
      </trkpt>
      <trkpt lat="59.6172297" lon="17.7270216">
        <ele>16.4797</ele>
        <time>2014-07-08T11:08:23Z</time>
      </trkpt>
      <trkpt lat="59.6172443" lon="17.7270884">
        <ele>16.4797</ele>
        <time>2014-07-08T11:08:24Z</time>
      </trkpt>
      <trkpt lat="59.6172563" lon="17.7271578">
        <ele>16.4797</ele>
        <time>2014-07-08T11:08:25Z</time>
      </trkpt>
      <trkpt lat="59.6172667" lon="17.7272291">
        <ele>16.4797</ele>
        <time>2014-07-08T11:08:26Z</time>
      </trkpt>
      <trkpt lat="59.6172785" lon="17.727298">
        <ele>16.4797</ele>
        <time>2014-07-08T11:08:27Z</time>
      </trkpt>
      <trkpt lat="59.6172931" lon="17.7273622">
        <ele>16.4797</ele>
        <time>2014-07-08T11:08:28Z</time>
      </trkpt>
      <trkpt lat="59.6173075" lon="17.7274256">
        <ele>16.9604</ele>
        <time>2014-07-08T11:08:29Z</time>
      </trkpt>
      <trkpt lat="59.61732" lon="17.7274891">
        <ele>16.9604</ele>
        <time>2014-07-08T11:08:30Z</time>
      </trkpt>
      <trkpt lat="59.6173345" lon="17.7275505">
        <ele>16.9604</ele>
        <time>2014-07-08T11:08:31Z</time>
      </trkpt>
      <trkpt lat="59.6173512" lon="17.7276096">
        <ele>17.4412</ele>
        <time>2014-07-08T11:08:32Z</time>
      </trkpt>
      <trkpt lat="59.6173654" lon="17.7276685">
        <ele>17.4412</ele>
        <time>2014-07-08T11:08:33Z</time>
      </trkpt>
      <trkpt lat="59.6173813" lon="17.7277272">
        <ele>17.4412</ele>
        <time>2014-07-08T11:08:34Z</time>
      </trkpt>
      <trkpt lat="59.617397" lon="17.727784">
        <ele>17.9218</ele>
        <time>2014-07-08T11:08:35Z</time>
      </trkpt>
      <trkpt lat="59.6174143" lon="17.7278388">
        <ele>17.9218</ele>
        <time>2014-07-08T11:08:36Z</time>
      </trkpt>
      <trkpt lat="59.6174341" lon="17.7278913">
        <ele>18.4023</ele>
        <time>2014-07-08T11:08:37Z</time>
      </trkpt>
      <trkpt lat="59.6174545" lon="17.7279426">
        <ele>18.8831</ele>
        <time>2014-07-08T11:08:38Z</time>
      </trkpt>
      <trkpt lat="59.6174738" lon="17.7279949">
        <ele>18.8831</ele>
        <time>2014-07-08T11:08:39Z</time>
      </trkpt>
      <trkpt lat="59.617492" lon="17.7280477">
        <ele>18.8831</ele>
        <time>2014-07-08T11:08:40Z</time>
      </trkpt>
      <trkpt lat="59.6175096" lon="17.7280991">
        <ele>19.3638</ele>
        <time>2014-07-08T11:08:41Z</time>
      </trkpt>
      <trkpt lat="59.6175277" lon="17.728149">
        <ele>19.3638</ele>
        <time>2014-07-08T11:08:42Z</time>
      </trkpt>
      <trkpt lat="59.6175472" lon="17.7281954">
        <ele>19.3638</ele>
        <time>2014-07-08T11:08:43Z</time>
      </trkpt>
      <trkpt lat="59.6175676" lon="17.7282407">
        <ele>19.3638</ele>
        <time>2014-07-08T11:08:44Z</time>
      </trkpt>
      <trkpt lat="59.6175884" lon="17.7282843">
        <ele>19.8444</ele>
        <time>2014-07-08T11:08:45Z</time>
      </trkpt>
      <trkpt lat="59.6176109" lon="17.7283254">
        <ele>19.8444</ele>
        <time>2014-07-08T11:08:46Z</time>
      </trkpt>
      <trkpt lat="59.6176329" lon="17.7283681">
        <ele>19.8444</ele>
        <time>2014-07-08T11:08:47Z</time>
      </trkpt>
      <trkpt lat="59.6176535" lon="17.7284119">
        <ele>20.325</ele>
        <time>2014-07-08T11:08:48Z</time>
      </trkpt>
      <trkpt lat="59.6176738" lon="17.7284548">
        <ele>20.325</ele>
        <time>2014-07-08T11:08:49Z</time>
      </trkpt>
      <trkpt lat="59.6176934" lon="17.7284999">
        <ele>20.325</ele>
        <time>2014-07-08T11:08:50Z</time>
      </trkpt>
      <trkpt lat="59.6177141" lon="17.728543">
        <ele>20.8057</ele>
        <time>2014-07-08T11:08:51Z</time>
      </trkpt>
      <trkpt lat="59.6177376" lon="17.7285797">
        <ele>20.8057</ele>
        <time>2014-07-08T11:08:52Z</time>
      </trkpt>
      <trkpt lat="59.6177623" lon="17.7286149">
        <ele>20.8057</ele>
        <time>2014-07-08T11:08:53Z</time>
      </trkpt>
      <trkpt lat="59.6177857" lon="17.728652">
        <ele>21.2864</ele>
        <time>2014-07-08T11:08:54Z</time>
      </trkpt>
      <trkpt lat="59.6178081" lon="17.7286926">
        <ele>21.2864</ele>
        <time>2014-07-08T11:08:55Z</time>
      </trkpt>
      <trkpt lat="59.6178345" lon="17.7287329">
        <ele>21.767</ele>
        <time>2014-07-08T11:08:56Z</time>
      </trkpt>
      <trkpt lat="59.6178599" lon="17.7287719">
        <ele>21.767</ele>
        <time>2014-07-08T11:08:57Z</time>
      </trkpt>
      <trkpt lat="59.6178868" lon="17.7288113">
        <ele>21.767</ele>
        <time>2014-07-08T11:08:58Z</time>
      </trkpt>
      <trkpt lat="59.6179151" lon="17.7288525">
        <ele>21.767</ele>
        <time>2014-07-08T11:08:59Z</time>
      </trkpt>
      <trkpt lat="59.6179458" lon="17.7288951">
        <ele>21.767</ele>
        <time>2014-07-08T11:09:00Z</time>
      </trkpt>
      <trkpt lat="59.6179773" lon="17.7289428">
        <ele>21.767</ele>
        <time>2014-07-08T11:09:01Z</time>
      </trkpt>
      <trkpt lat="59.6180084" lon="17.7289958">
        <ele>21.767</ele>
        <time>2014-07-08T11:09:02Z</time>
      </trkpt>
      <trkpt lat="59.6180396" lon="17.7290501">
        <ele>21.767</ele>
        <time>2014-07-08T11:09:03Z</time>
      </trkpt>
      <trkpt lat="59.6180706" lon="17.7291039">
        <ele>21.767</ele>
        <time>2014-07-08T11:09:04Z</time>
      </trkpt>
      <trkpt lat="59.618102" lon="17.7291595">
        <ele>21.767</ele>
        <time>2014-07-08T11:09:05Z</time>
      </trkpt>
      <trkpt lat="59.6181341" lon="17.7292169">
        <ele>21.767</ele>
        <time>2014-07-08T11:09:06Z</time>
      </trkpt>
      <trkpt lat="59.6181652" lon="17.729275">
        <ele>21.2864</ele>
        <time>2014-07-08T11:09:07Z</time>
      </trkpt>
      <trkpt lat="59.6181963" lon="17.7293317">
        <ele>21.2864</ele>
        <time>2014-07-08T11:09:08Z</time>
      </trkpt>
      <trkpt lat="59.6182281" lon="17.7293878">
        <ele>21.2864</ele>
        <time>2014-07-08T11:09:09Z</time>
      </trkpt>
      <trkpt lat="59.6182596" lon="17.7294496">
        <ele>20.8057</ele>
        <time>2014-07-08T11:09:10Z</time>
      </trkpt>
      <trkpt lat="59.6182899" lon="17.7295167">
        <ele>20.8057</ele>
        <time>2014-07-08T11:09:11Z</time>
      </trkpt>
      <trkpt lat="59.6183212" lon="17.7295857">
        <ele>20.325</ele>
        <time>2014-07-08T11:09:12Z</time>
      </trkpt>
      <trkpt lat="59.6183572" lon="17.7296571">
        <ele>19.8444</ele>
        <time>2014-07-08T11:09:13Z</time>
      </trkpt>
      <trkpt lat="59.6183947" lon="17.7297343">
        <ele>19.8444</ele>
        <time>2014-07-08T11:09:14Z</time>
      </trkpt>
      <trkpt lat="59.6184313" lon="17.7298175">
        <ele>19.3638</ele>
        <time>2014-07-08T11:09:15Z</time>
      </trkpt>
      <trkpt lat="59.6184689" lon="17.7299053">
        <ele>19.3638</ele>
        <time>2014-07-08T11:09:16Z</time>
      </trkpt>
      <trkpt lat="59.6185051" lon="17.7299944">
        <ele>18.4023</ele>
        <time>2014-07-08T11:09:17Z</time>
      </trkpt>
      <trkpt lat="59.6185401" lon="17.7300871">
        <ele>17.9218</ele>
        <time>2014-07-08T11:09:18Z</time>
      </trkpt>
      <trkpt lat="59.6185731" lon="17.7301864">
        <ele>17.4412</ele>
        <time>2014-07-08T11:09:19Z</time>
      </trkpt>
      <trkpt lat="59.6186063" lon="17.7302861">
        <ele>16.9604</ele>
        <time>2014-07-08T11:09:20Z</time>
      </trkpt>
      <trkpt lat="59.6186415" lon="17.7303846">
        <ele>15.999</ele>
        <time>2014-07-08T11:09:21Z</time>
      </trkpt>
      <trkpt lat="59.6186771" lon="17.7304839">
        <ele>15.5184</ele>
        <time>2014-07-08T11:09:22Z</time>
      </trkpt>
      <trkpt lat="59.6187138" lon="17.730583">
        <ele>15.5184</ele>
        <time>2014-07-08T11:09:23Z</time>
      </trkpt>
      <trkpt lat="59.6187492" lon="17.7306719">
        <ele>15.5184</ele>
        <time>2014-07-08T11:09:24Z</time>
      </trkpt>
      <trkpt lat="59.6187828" lon="17.730746">
        <ele>15.999</ele>
        <time>2014-07-08T11:09:25Z</time>
      </trkpt>
      <trkpt lat="59.6188073" lon="17.7308039">
        <ele>15.999</ele>
        <time>2014-07-08T11:09:26Z</time>
      </trkpt>
      <trkpt lat="59.6188285" lon="17.7308515">
        <ele>15.999</ele>
        <time>2014-07-08T11:09:27Z</time>
      </trkpt>
      <trkpt lat="59.6188415" lon="17.7308995">
        <ele>16.4797</ele>
        <time>2014-07-08T11:09:28Z</time>
      </trkpt>
      <trkpt lat="59.6188519" lon="17.7309517">
        <ele>16.4797</ele>
        <time>2014-07-08T11:09:29Z</time>
      </trkpt>
      <trkpt lat="59.6188735" lon="17.731003">
        <ele>16.9604</ele>
        <time>2014-07-08T11:09:30Z</time>
      </trkpt>
      <trkpt lat="59.6188968" lon="17.7310434">
        <ele>16.9604</ele>
        <time>2014-07-08T11:09:31Z</time>
      </trkpt>
      <trkpt lat="59.6189212" lon="17.7310651">
        <ele>16.4797</ele>
        <time>2014-07-08T11:09:32Z</time>
      </trkpt>
      <trkpt lat="59.6189602" lon="17.7310763">
        <ele>16.9604</ele>
        <time>2014-07-08T11:09:33Z</time>
      </trkpt>
      <trkpt lat="59.6190062" lon="17.7310956">
        <ele>16.9604</ele>
        <time>2014-07-08T11:09:34Z</time>
      </trkpt>
      <trkpt lat="59.6190546" lon="17.7311312">
        <ele>16.9604</ele>
        <time>2014-07-08T11:09:35Z</time>
      </trkpt>
      <trkpt lat="59.6191033" lon="17.7311802">
        <ele>16.9604</ele>
        <time>2014-07-08T11:09:36Z</time>
      </trkpt>
      <trkpt lat="59.6191546" lon="17.7312428">
        <ele>16.4797</ele>
        <time>2014-07-08T11:09:37Z</time>
      </trkpt>
      <trkpt lat="59.6192038" lon="17.7313206">
        <ele>15.999</ele>
        <time>2014-07-08T11:09:38Z</time>
      </trkpt>
      <trkpt lat="59.6192561" lon="17.7314083">
        <ele>15.5184</ele>
        <time>2014-07-08T11:09:39Z</time>
      </trkpt>
      <trkpt lat="59.6193083" lon="17.7315075">
        <ele>15.0377</ele>
        <time>2014-07-08T11:09:40Z</time>
      </trkpt>
      <trkpt lat="59.6193554" lon="17.7316214">
        <ele>14.557</ele>
        <time>2014-07-08T11:09:41Z</time>
      </trkpt>
      <trkpt lat="59.6193936" lon="17.7317513">
        <ele>14.0764</ele>
        <time>2014-07-08T11:09:42Z</time>
      </trkpt>
      <trkpt lat="59.6194251" lon="17.7318932">
        <ele>13.5958</ele>
        <time>2014-07-08T11:09:43Z</time>
      </trkpt>
      <trkpt lat="59.6194511" lon="17.7320432">
        <ele>13.1151</ele>
        <time>2014-07-08T11:09:44Z</time>
      </trkpt>
      <trkpt lat="59.619476" lon="17.7321999">
        <ele>12.1538</ele>
        <time>2014-07-08T11:09:45Z</time>
      </trkpt>
      <trkpt lat="59.6195009" lon="17.7323618">
        <ele>11.6732</ele>
        <time>2014-07-08T11:09:46Z</time>
      </trkpt>
      <trkpt lat="59.6195293" lon="17.7325444">
        <ele>10.7118</ele>
        <time>2014-07-08T11:09:47Z</time>
      </trkpt>
      <trkpt lat="59.6195558" lon="17.7327203">
        <ele>10.2312</ele>
        <time>2014-07-08T11:09:48Z</time>
      </trkpt>
      <trkpt lat="59.6195817" lon="17.7328952">
        <ele>9.2699</ele>
        <time>2014-07-08T11:09:49Z</time>
      </trkpt>
      <trkpt lat="59.6196117" lon="17.7330714">
        <ele>8.78918</ele>
        <time>2014-07-08T11:09:50Z</time>
      </trkpt>
      <trkpt lat="59.6196533" lon="17.7332496">
        <ele>7.82788</ele>
        <time>2014-07-08T11:09:51Z</time>
      </trkpt>
      <trkpt lat="59.619707" lon="17.7334221">
        <ele>7.82788</ele>
        <time>2014-07-08T11:09:52Z</time>
      </trkpt>
      <trkpt lat="59.6197571" lon="17.7335764">
        <ele>6.86646</ele>
        <time>2014-07-08T11:09:53Z</time>
      </trkpt>
      <trkpt lat="59.6198104" lon="17.733727">
        <ele>5.90527</ele>
        <time>2014-07-08T11:09:54Z</time>
      </trkpt>
      <trkpt lat="59.6198723" lon="17.7338811">
        <ele>5.42456</ele>
        <time>2014-07-08T11:09:55Z</time>
      </trkpt>
      <trkpt lat="59.61994" lon="17.7340282">
        <ele>4.94385</ele>
        <time>2014-07-08T11:09:56Z</time>
      </trkpt>
      <trkpt lat="59.6200022" lon="17.7341622">
        <ele>4.46326</ele>
        <time>2014-07-08T11:09:57Z</time>
      </trkpt>
      <trkpt lat="59.6200739" lon="17.7342829">
        <ele>3.98267</ele>
        <time>2014-07-08T11:09:58Z</time>
      </trkpt>
      <trkpt lat="59.6201529" lon="17.7343809">
        <ele>3.50195</ele>
        <time>2014-07-08T11:09:59Z</time>
      </trkpt>
      <trkpt lat="59.6202395" lon="17.7344556">
        <ele>3.02124</ele>
        <time>2014-07-08T11:10:00Z</time>
      </trkpt>
      <trkpt lat="59.6203308" lon="17.7345121">
        <ele>2.54065</ele>
        <time>2014-07-08T11:10:01Z</time>
      </trkpt>
      <trkpt lat="59.6204255" lon="17.7345288">
        <ele>2.54065</ele>
        <time>2014-07-08T11:10:02Z</time>
      </trkpt>
      <trkpt lat="59.6205201" lon="17.7345057">
        <ele>2.54065</ele>
        <time>2014-07-08T11:10:03Z</time>
      </trkpt>
      <trkpt lat="59.6206083" lon="17.7344517">
        <ele>3.02124</ele>
        <time>2014-07-08T11:10:04Z</time>
      </trkpt>
      <trkpt lat="59.6206902" lon="17.7343865">
        <ele>3.50195</ele>
        <time>2014-07-08T11:10:05Z</time>
      </trkpt>
      <trkpt lat="59.6207693" lon="17.7343214">
        <ele>3.50195</ele>
        <time>2014-07-08T11:10:06Z</time>
      </trkpt>
      <trkpt lat="59.6208473" lon="17.7342626">
        <ele>3.50195</ele>
        <time>2014-07-08T11:10:07Z</time>
      </trkpt>
      <trkpt lat="59.620925" lon="17.7342204">
        <ele>3.98267</ele>
        <time>2014-07-08T11:10:08Z</time>
      </trkpt>
      <trkpt lat="59.6210021" lon="17.7342013">
        <ele>3.98267</ele>
        <time>2014-07-08T11:10:09Z</time>
      </trkpt>
      <trkpt lat="59.6210771" lon="17.7342125">
        <ele>3.98267</ele>
        <time>2014-07-08T11:10:10Z</time>
      </trkpt>
      <trkpt lat="59.6211469" lon="17.7342633">
        <ele>3.98267</ele>
        <time>2014-07-08T11:10:11Z</time>
      </trkpt>
      <trkpt lat="59.6212109" lon="17.734342">
        <ele>3.98267</ele>
        <time>2014-07-08T11:10:12Z</time>
      </trkpt>
      <trkpt lat="59.6212704" lon="17.7344347">
        <ele>3.98267</ele>
        <time>2014-07-08T11:10:13Z</time>
      </trkpt>
      <trkpt lat="59.6213285" lon="17.734528">
        <ele>3.98267</ele>
        <time>2014-07-08T11:10:14Z</time>
      </trkpt>
      <trkpt lat="59.6213881" lon="17.7346123">
        <ele>3.98267</ele>
        <time>2014-07-08T11:10:15Z</time>
      </trkpt>
      <trkpt lat="59.6214455" lon="17.734692">
        <ele>3.98267</ele>
        <time>2014-07-08T11:10:16Z</time>
      </trkpt>
      <trkpt lat="59.6215046" lon="17.7347664">
        <ele>3.98267</ele>
        <time>2014-07-08T11:10:17Z</time>
      </trkpt>
      <trkpt lat="59.6215605" lon="17.7348414">
        <ele>3.98267</ele>
        <time>2014-07-08T11:10:18Z</time>
      </trkpt>
      <trkpt lat="59.6216102" lon="17.7349252">
        <ele>4.46326</ele>
        <time>2014-07-08T11:10:19Z</time>
      </trkpt>
      <trkpt lat="59.6216501" lon="17.7350262">
        <ele>4.46326</ele>
        <time>2014-07-08T11:10:20Z</time>
      </trkpt>
      <trkpt lat="59.6216758" lon="17.7351434">
        <ele>4.46326</ele>
        <time>2014-07-08T11:10:21Z</time>
      </trkpt>
      <trkpt lat="59.621681" lon="17.7352737">
        <ele>4.46326</ele>
        <time>2014-07-08T11:10:22Z</time>
      </trkpt>
      <trkpt lat="59.6216735" lon="17.7354059">
        <ele>4.46326</ele>
        <time>2014-07-08T11:10:23Z</time>
      </trkpt>
      <trkpt lat="59.6216588" lon="17.7355387">
        <ele>4.94385</ele>
        <time>2014-07-08T11:10:24Z</time>
      </trkpt>
      <trkpt lat="59.6216383" lon="17.7356686">
        <ele>4.94385</ele>
        <time>2014-07-08T11:10:25Z</time>
      </trkpt>
      <trkpt lat="59.6216103" lon="17.7357917">
        <ele>4.94385</ele>
        <time>2014-07-08T11:10:26Z</time>
      </trkpt>
      <trkpt lat="59.6215763" lon="17.7359094">
        <ele>4.94385</ele>
        <time>2014-07-08T11:10:27Z</time>
      </trkpt>
      <trkpt lat="59.6215377" lon="17.7360234">
        <ele>5.42456</ele>
        <time>2014-07-08T11:10:28Z</time>
      </trkpt>
      <trkpt lat="59.6214929" lon="17.7361337">
        <ele>5.42456</ele>
        <time>2014-07-08T11:10:29Z</time>
      </trkpt>
      <trkpt lat="59.6214464" lon="17.7362422">
        <ele>5.42456</ele>
        <time>2014-07-08T11:10:30Z</time>
      </trkpt>
      <trkpt lat="59.6213976" lon="17.7363504">
        <ele>5.90527</ele>
        <time>2014-07-08T11:10:31Z</time>
      </trkpt>
      <trkpt lat="59.6213451" lon="17.7364555">
        <ele>5.90527</ele>
        <time>2014-07-08T11:10:32Z</time>
      </trkpt>
      <trkpt lat="59.6212912" lon="17.7365587">
        <ele>5.90527</ele>
        <time>2014-07-08T11:10:33Z</time>
      </trkpt>
      <trkpt lat="59.6212368" lon="17.7366601">
        <ele>5.90527</ele>
        <time>2014-07-08T11:10:34Z</time>
      </trkpt>
      <trkpt lat="59.6211796" lon="17.7367534">
        <ele>5.90527</ele>
        <time>2014-07-08T11:10:35Z</time>
      </trkpt>
      <trkpt lat="59.6211186" lon="17.7368367">
        <ele>5.42456</ele>
        <time>2014-07-08T11:10:36Z</time>
      </trkpt>
      <trkpt lat="59.6210564" lon="17.7369148">
        <ele>5.42456</ele>
        <time>2014-07-08T11:10:37Z</time>
      </trkpt>
      <trkpt lat="59.6209957" lon="17.7369936">
        <ele>5.90527</ele>
        <time>2014-07-08T11:10:38Z</time>
      </trkpt>
      <trkpt lat="59.6209398" lon="17.7370765">
        <ele>5.90527</ele>
        <time>2014-07-08T11:10:39Z</time>
      </trkpt>
      <trkpt lat="59.6208886" lon="17.7371683">
        <ele>5.90527</ele>
        <time>2014-07-08T11:10:40Z</time>
      </trkpt>
      <trkpt lat="59.6208441" lon="17.7372709">
        <ele>6.38586</ele>
        <time>2014-07-08T11:10:41Z</time>
      </trkpt>
      <trkpt lat="59.6208042" lon="17.7373801">
        <ele>6.38586</ele>
        <time>2014-07-08T11:10:42Z</time>
      </trkpt>
      <trkpt lat="59.6207667" lon="17.737492">
        <ele>6.38586</ele>
        <time>2014-07-08T11:10:43Z</time>
      </trkpt>
      <trkpt lat="59.6207322" lon="17.7376067">
        <ele>6.38586</ele>
        <time>2014-07-08T11:10:44Z</time>
      </trkpt>
      <trkpt lat="59.6207006" lon="17.7377252">
        <ele>6.38586</ele>
        <time>2014-07-08T11:10:45Z</time>
      </trkpt>
      <trkpt lat="59.62067" lon="17.7378457">
        <ele>6.38586</ele>
        <time>2014-07-08T11:10:46Z</time>
      </trkpt>
      <trkpt lat="59.6206405" lon="17.7379676">
        <ele>6.38586</ele>
        <time>2014-07-08T11:10:47Z</time>
      </trkpt>
      <trkpt lat="59.6206119" lon="17.7380909">
        <ele>6.38586</ele>
        <time>2014-07-08T11:10:48Z</time>
      </trkpt>
      <trkpt lat="59.6205835" lon="17.7382146">
        <ele>5.90527</ele>
        <time>2014-07-08T11:10:49Z</time>
      </trkpt>
      <trkpt lat="59.620556" lon="17.7383369">
        <ele>5.90527</ele>
        <time>2014-07-08T11:10:50Z</time>
      </trkpt>
      <trkpt lat="59.6205296" lon="17.7384587">
        <ele>5.90527</ele>
        <time>2014-07-08T11:10:51Z</time>
      </trkpt>
      <trkpt lat="59.6205035" lon="17.7385789">
        <ele>5.90527</ele>
        <time>2014-07-08T11:10:52Z</time>
      </trkpt>
      <trkpt lat="59.6204757" lon="17.7386964">
        <ele>5.90527</ele>
        <time>2014-07-08T11:10:53Z</time>
      </trkpt>
      <trkpt lat="59.6204483" lon="17.7388129">
        <ele>5.42456</ele>
        <time>2014-07-08T11:10:54Z</time>
      </trkpt>
      <trkpt lat="59.620422" lon="17.7389297">
        <ele>5.90527</ele>
        <time>2014-07-08T11:10:55Z</time>
      </trkpt>
      <trkpt lat="59.6203973" lon="17.7390477">
        <ele>5.90527</ele>
        <time>2014-07-08T11:10:56Z</time>
      </trkpt>
      <trkpt lat="59.6203748" lon="17.7391674">
        <ele>5.90527</ele>
        <time>2014-07-08T11:10:57Z</time>
      </trkpt>
      <trkpt lat="59.620353" lon="17.7392885">
        <ele>5.90527</ele>
        <time>2014-07-08T11:10:58Z</time>
      </trkpt>
      <trkpt lat="59.6203315" lon="17.7394103">
        <ele>5.90527</ele>
        <time>2014-07-08T11:10:59Z</time>
      </trkpt>
      <trkpt lat="59.620311" lon="17.7395315">
        <ele>5.90527</ele>
        <time>2014-07-08T11:11:00Z</time>
      </trkpt>
      <trkpt lat="59.6202896" lon="17.7396523">
        <ele>6.38586</ele>
        <time>2014-07-08T11:11:01Z</time>
      </trkpt>
      <trkpt lat="59.6202685" lon="17.7397734">
        <ele>6.38586</ele>
        <time>2014-07-08T11:11:02Z</time>
      </trkpt>
      <trkpt lat="59.6202476" lon="17.7398944">
        <ele>6.38586</ele>
        <time>2014-07-08T11:11:03Z</time>
      </trkpt>
      <trkpt lat="59.6202271" lon="17.7400143">
        <ele>6.86646</ele>
        <time>2014-07-08T11:11:04Z</time>
      </trkpt>
      <trkpt lat="59.6202065" lon="17.7401338">
        <ele>6.86646</ele>
        <time>2014-07-08T11:11:05Z</time>
      </trkpt>
      <trkpt lat="59.6201862" lon="17.7402524">
        <ele>6.86646</ele>
        <time>2014-07-08T11:11:06Z</time>
      </trkpt>
      <trkpt lat="59.6201659" lon="17.7403702">
        <ele>6.86646</ele>
        <time>2014-07-08T11:11:07Z</time>
      </trkpt>
      <trkpt lat="59.6201462" lon="17.7404886">
        <ele>6.86646</ele>
        <time>2014-07-08T11:11:08Z</time>
      </trkpt>
      <trkpt lat="59.620126" lon="17.7406084">
        <ele>6.38586</ele>
        <time>2014-07-08T11:11:09Z</time>
      </trkpt>
      <trkpt lat="59.6201054" lon="17.7407291">
        <ele>6.38586</ele>
        <time>2014-07-08T11:11:10Z</time>
      </trkpt>
      <trkpt lat="59.6200836" lon="17.7408512">
        <ele>6.38586</ele>
        <time>2014-07-08T11:11:11Z</time>
      </trkpt>
      <trkpt lat="59.6200618" lon="17.7409741">
        <ele>6.38586</ele>
        <time>2014-07-08T11:11:12Z</time>
      </trkpt>
      <trkpt lat="59.6200411" lon="17.741098">
        <ele>6.38586</ele>
        <time>2014-07-08T11:11:13Z</time>
      </trkpt>
      <trkpt lat="59.6200203" lon="17.7412208">
        <ele>6.38586</ele>
        <time>2014-07-08T11:11:14Z</time>
      </trkpt>
      <trkpt lat="59.6199997" lon="17.7413418">
        <ele>5.90527</ele>
        <time>2014-07-08T11:11:15Z</time>
      </trkpt>
      <trkpt lat="59.6199799" lon="17.7414612">
        <ele>5.90527</ele>
        <time>2014-07-08T11:11:16Z</time>
      </trkpt>
      <trkpt lat="59.6199591" lon="17.7415792">
        <ele>5.90527</ele>
        <time>2014-07-08T11:11:17Z</time>
      </trkpt>
      <trkpt lat="59.6199375" lon="17.7416931">
        <ele>6.38586</ele>
        <time>2014-07-08T11:11:18Z</time>
      </trkpt>
      <trkpt lat="59.6199153" lon="17.7418008">
        <ele>6.38586</ele>
        <time>2014-07-08T11:11:19Z</time>
      </trkpt>
      <trkpt lat="59.6198959" lon="17.741905">
        <ele>6.38586</ele>
        <time>2014-07-08T11:11:20Z</time>
      </trkpt>
      <trkpt lat="59.6198852" lon="17.7420116">
        <ele>6.38586</ele>
        <time>2014-07-08T11:11:21Z</time>
      </trkpt>
      <trkpt lat="59.6198869" lon="17.7421195">
        <ele>6.38586</ele>
        <time>2014-07-08T11:11:22Z</time>
      </trkpt>
      <trkpt lat="59.6199019" lon="17.7422257">
        <ele>6.38586</ele>
        <time>2014-07-08T11:11:23Z</time>
      </trkpt>
      <trkpt lat="59.6199224" lon="17.7423316">
        <ele>6.38586</ele>
        <time>2014-07-08T11:11:24Z</time>
      </trkpt>
      <trkpt lat="59.619942" lon="17.7424407">
        <ele>6.38586</ele>
        <time>2014-07-08T11:11:25Z</time>
      </trkpt>
      <trkpt lat="59.6199612" lon="17.7425525">
        <ele>6.38586</ele>
        <time>2014-07-08T11:11:26Z</time>
      </trkpt>
      <trkpt lat="59.6199817" lon="17.7426644">
        <ele>6.38586</ele>
        <time>2014-07-08T11:11:27Z</time>
      </trkpt>
      <trkpt lat="59.6200039" lon="17.7427754">
        <ele>6.38586</ele>
        <time>2014-07-08T11:11:28Z</time>
      </trkpt>
      <trkpt lat="59.6200287" lon="17.742882">
        <ele>6.38586</ele>
        <time>2014-07-08T11:11:29Z</time>
      </trkpt>
      <trkpt lat="59.6200565" lon="17.7429851">
        <ele>6.38586</ele>
        <time>2014-07-08T11:11:30Z</time>
      </trkpt>
      <trkpt lat="59.6200892" lon="17.7430809">
        <ele>6.38586</ele>
        <time>2014-07-08T11:11:31Z</time>
      </trkpt>
      <trkpt lat="59.6201261" lon="17.7431699">
        <ele>6.38586</ele>
        <time>2014-07-08T11:11:32Z</time>
      </trkpt>
      <trkpt lat="59.6201664" lon="17.743253">
        <ele>6.38586</ele>
        <time>2014-07-08T11:11:33Z</time>
      </trkpt>
      <trkpt lat="59.6202095" lon="17.7433303">
        <ele>6.38586</ele>
        <time>2014-07-08T11:11:34Z</time>
      </trkpt>
      <trkpt lat="59.620254" lon="17.7434036">
        <ele>6.86646</ele>
        <time>2014-07-08T11:11:35Z</time>
      </trkpt>
      <trkpt lat="59.6202991" lon="17.7434726">
        <ele>6.86646</ele>
        <time>2014-07-08T11:11:36Z</time>
      </trkpt>
      <trkpt lat="59.620344" lon="17.7435379">
        <ele>6.86646</ele>
        <time>2014-07-08T11:11:37Z</time>
      </trkpt>
      <trkpt lat="59.6203878" lon="17.7436008">
        <ele>7.34717</ele>
        <time>2014-07-08T11:11:38Z</time>
      </trkpt>
      <trkpt lat="59.620431" lon="17.743659">
        <ele>7.34717</ele>
        <time>2014-07-08T11:11:39Z</time>
      </trkpt>
      <trkpt lat="59.6204737" lon="17.7437107">
        <ele>7.82788</ele>
        <time>2014-07-08T11:11:40Z</time>
      </trkpt>
      <trkpt lat="59.6205157" lon="17.7437584">
        <ele>7.82788</ele>
        <time>2014-07-08T11:11:41Z</time>
      </trkpt>
      <trkpt lat="59.6205571" lon="17.743805">
        <ele>8.30859</ele>
        <time>2014-07-08T11:11:42Z</time>
      </trkpt>
      <trkpt lat="59.6205974" lon="17.7438521">
        <ele>8.30859</ele>
        <time>2014-07-08T11:11:43Z</time>
      </trkpt>
      <trkpt lat="59.6206368" lon="17.7438974">
        <ele>8.30859</ele>
        <time>2014-07-08T11:11:44Z</time>
      </trkpt>
      <trkpt lat="59.6206755" lon="17.7439413">
        <ele>8.78918</ele>
        <time>2014-07-08T11:11:45Z</time>
      </trkpt>
      <trkpt lat="59.6207136" lon="17.7439837">
        <ele>8.78918</ele>
        <time>2014-07-08T11:11:46Z</time>
      </trkpt>
      <trkpt lat="59.6207506" lon="17.7440264">
        <ele>8.78918</ele>
        <time>2014-07-08T11:11:47Z</time>
      </trkpt>
      <trkpt lat="59.6207864" lon="17.7440699">
        <ele>8.78918</ele>
        <time>2014-07-08T11:11:48Z</time>
      </trkpt>
      <trkpt lat="59.6208214" lon="17.7441148">
        <ele>9.2699</ele>
        <time>2014-07-08T11:11:49Z</time>
      </trkpt>
      <trkpt lat="59.6208555" lon="17.744162">
        <ele>9.2699</ele>
        <time>2014-07-08T11:11:50Z</time>
      </trkpt>
      <trkpt lat="59.6208892" lon="17.7442071">
        <ele>9.2699</ele>
        <time>2014-07-08T11:11:51Z</time>
      </trkpt>
      <trkpt lat="59.6209238" lon="17.7442499">
        <ele>9.75061</ele>
        <time>2014-07-08T11:11:52Z</time>
      </trkpt>
      <trkpt lat="59.6209586" lon="17.744293">
        <ele>9.75061</ele>
        <time>2014-07-08T11:11:53Z</time>
      </trkpt>
      <trkpt lat="59.6209932" lon="17.7443385">
        <ele>9.75061</ele>
        <time>2014-07-08T11:11:54Z</time>
      </trkpt>
      <trkpt lat="59.6210274" lon="17.7443852">
        <ele>10.2312</ele>
        <time>2014-07-08T11:11:55Z</time>
      </trkpt>
      <trkpt lat="59.6210616" lon="17.7444285">
        <ele>10.2312</ele>
        <time>2014-07-08T11:11:56Z</time>
      </trkpt>
      <trkpt lat="59.6210961" lon="17.7444726">
        <ele>10.2312</ele>
        <time>2014-07-08T11:11:57Z</time>
      </trkpt>
      <trkpt lat="59.6211293" lon="17.7445198">
        <ele>10.7118</ele>
        <time>2014-07-08T11:11:58Z</time>
      </trkpt>
      <trkpt lat="59.6211616" lon="17.744569">
        <ele>10.7118</ele>
        <time>2014-07-08T11:11:59Z</time>
      </trkpt>
      <trkpt lat="59.6211937" lon="17.7446183">
        <ele>10.7118</ele>
        <time>2014-07-08T11:12:00Z</time>
      </trkpt>
      <trkpt lat="59.6212268" lon="17.7446682">
        <ele>11.1925</ele>
        <time>2014-07-08T11:12:01Z</time>
      </trkpt>
      <trkpt lat="59.62126" lon="17.7447174">
        <ele>11.1925</ele>
        <time>2014-07-08T11:12:02Z</time>
      </trkpt>
      <trkpt lat="59.6212937" lon="17.744766">
        <ele>11.1925</ele>
        <time>2014-07-08T11:12:03Z</time>
      </trkpt>
      <trkpt lat="59.621328" lon="17.7448131">
        <ele>11.1925</ele>
        <time>2014-07-08T11:12:04Z</time>
      </trkpt>
      <trkpt lat="59.6213634" lon="17.7448602">
        <ele>11.6732</ele>
        <time>2014-07-08T11:12:05Z</time>
      </trkpt>
      <trkpt lat="59.6213974" lon="17.7449114">
        <ele>11.6732</ele>
        <time>2014-07-08T11:12:06Z</time>
      </trkpt>
      <trkpt lat="59.62143" lon="17.7449643">
        <ele>11.6732</ele>
        <time>2014-07-08T11:12:07Z</time>
      </trkpt>
      <trkpt lat="59.6214629" lon="17.7450152">
        <ele>12.1538</ele>
        <time>2014-07-08T11:12:08Z</time>
      </trkpt>
      <trkpt lat="59.6214957" lon="17.7450669">
        <ele>12.1538</ele>
        <time>2014-07-08T11:12:09Z</time>
      </trkpt>
      <trkpt lat="59.6215294" lon="17.7451187">
        <ele>12.1538</ele>
        <time>2014-07-08T11:12:10Z</time>
      </trkpt>
      <trkpt lat="59.621564" lon="17.7451699">
        <ele>12.1538</ele>
        <time>2014-07-08T11:12:11Z</time>
      </trkpt>
      <trkpt lat="59.6215982" lon="17.7452213">
        <ele>12.6344</ele>
        <time>2014-07-08T11:12:12Z</time>
      </trkpt>
      <trkpt lat="59.6216328" lon="17.7452716">
        <ele>12.6344</ele>
        <time>2014-07-08T11:12:13Z</time>
      </trkpt>
      <trkpt lat="59.6216664" lon="17.7453228">
        <ele>12.6344</ele>
        <time>2014-07-08T11:12:14Z</time>
      </trkpt>
      <trkpt lat="59.6216993" lon="17.7453732">
        <ele>12.6344</ele>
        <time>2014-07-08T11:12:15Z</time>
      </trkpt>
      <trkpt lat="59.6217323" lon="17.7454226">
        <ele>13.1151</ele>
        <time>2014-07-08T11:12:16Z</time>
      </trkpt>
      <trkpt lat="59.6217651" lon="17.7454725">
        <ele>13.1151</ele>
        <time>2014-07-08T11:12:17Z</time>
      </trkpt>
      <trkpt lat="59.6217982" lon="17.7455216">
        <ele>13.1151</ele>
        <time>2014-07-08T11:12:18Z</time>
      </trkpt>
      <trkpt lat="59.6218313" lon="17.7455688">
        <ele>13.5958</ele>
        <time>2014-07-08T11:12:19Z</time>
      </trkpt>
      <trkpt lat="59.6218649" lon="17.7456145">
        <ele>13.5958</ele>
        <time>2014-07-08T11:12:20Z</time>
      </trkpt>
      <trkpt lat="59.6218982" lon="17.7456611">
        <ele>14.0764</ele>
        <time>2014-07-08T11:12:21Z</time>
      </trkpt>
      <trkpt lat="59.6219303" lon="17.7457101">
        <ele>14.0764</ele>
        <time>2014-07-08T11:12:22Z</time>
      </trkpt>
      <trkpt lat="59.6219626" lon="17.7457594">
        <ele>14.0764</ele>
        <time>2014-07-08T11:12:23Z</time>
      </trkpt>
      <trkpt lat="59.6219954" lon="17.7458098">
        <ele>14.557</ele>
        <time>2014-07-08T11:12:24Z</time>
      </trkpt>
      <trkpt lat="59.6220282" lon="17.745859">
        <ele>14.557</ele>
        <time>2014-07-08T11:12:25Z</time>
      </trkpt>
      <trkpt lat="59.6220617" lon="17.7459067">
        <ele>14.557</ele>
        <time>2014-07-08T11:12:26Z</time>
      </trkpt>
      <trkpt lat="59.6220961" lon="17.7459553">
        <ele>15.0377</ele>
        <time>2014-07-08T11:12:27Z</time>
      </trkpt>
      <trkpt lat="59.6221287" lon="17.7460054">
        <ele>15.0377</ele>
        <time>2014-07-08T11:12:28Z</time>
      </trkpt>
      <trkpt lat="59.6221633" lon="17.7460589">
        <ele>15.5184</ele>
        <time>2014-07-08T11:12:29Z</time>
      </trkpt>
      <trkpt lat="59.6221996" lon="17.7461116">
        <ele>15.999</ele>
        <time>2014-07-08T11:12:30Z</time>
      </trkpt>
      <trkpt lat="59.6222316" lon="17.7461646">
        <ele>15.999</ele>
        <time>2014-07-08T11:12:31Z</time>
      </trkpt>
      <trkpt lat="59.6222675" lon="17.7462181">
        <ele>16.4797</ele>
        <time>2014-07-08T11:12:32Z</time>
      </trkpt>
      <trkpt lat="59.622306" lon="17.746269">
        <ele>16.9604</ele>
        <time>2014-07-08T11:12:33Z</time>
      </trkpt>
      <trkpt lat="59.6223416" lon="17.7463221">
        <ele>17.9218</ele>
        <time>2014-07-08T11:12:34Z</time>
      </trkpt>
      <trkpt lat="59.6223685" lon="17.7463768">
        <ele>18.4023</ele>
        <time>2014-07-08T11:12:35Z</time>
      </trkpt>
      <trkpt lat="59.6224002" lon="17.7464278">
        <ele>18.4023</ele>
        <time>2014-07-08T11:12:36Z</time>
      </trkpt>
      <trkpt lat="59.6224389" lon="17.7464665">
        <ele>19.3638</ele>
        <time>2014-07-08T11:12:37Z</time>
      </trkpt>
      <trkpt lat="59.6224722" lon="17.7465092">
        <ele>19.8444</ele>
        <time>2014-07-08T11:12:38Z</time>
      </trkpt>
      <trkpt lat="59.6225095" lon="17.7465596">
        <ele>20.325</ele>
        <time>2014-07-08T11:12:39Z</time>
      </trkpt>
      <trkpt lat="59.6225401" lon="17.7466138">
        <ele>20.8057</ele>
        <time>2014-07-08T11:12:40Z</time>
      </trkpt>
      <trkpt lat="59.6225704" lon="17.7466686">
        <ele>20.8057</ele>
        <time>2014-07-08T11:12:41Z</time>
      </trkpt>
      <trkpt lat="59.6226035" lon="17.7467241">
        <ele>21.2864</ele>
        <time>2014-07-08T11:12:42Z</time>
      </trkpt>
      <trkpt lat="59.62264" lon="17.7467795">
        <ele>21.2864</ele>
        <time>2014-07-08T11:12:43Z</time>
      </trkpt>
      <trkpt lat="59.6226809" lon="17.7468343">
        <ele>22.2476</ele>
        <time>2014-07-08T11:12:44Z</time>
      </trkpt>
      <trkpt lat="59.6227177" lon="17.7468908">
        <ele>22.2476</ele>
        <time>2014-07-08T11:12:45Z</time>
      </trkpt>
      <trkpt lat="59.6227534" lon="17.7469505">
        <ele>22.7283</ele>
        <time>2014-07-08T11:12:46Z</time>
      </trkpt>
      <trkpt lat="59.6227902" lon="17.7470126">
        <ele>23.209</ele>
        <time>2014-07-08T11:12:47Z</time>
      </trkpt>
      <trkpt lat="59.622832" lon="17.7470752">
        <ele>23.6896</ele>
        <time>2014-07-08T11:12:48Z</time>
      </trkpt>
      <trkpt lat="59.6228622" lon="17.7471431">
        <ele>23.6896</ele>
        <time>2014-07-08T11:12:49Z</time>
      </trkpt>
      <trkpt lat="59.6228912" lon="17.7472136">
        <ele>23.209</ele>
        <time>2014-07-08T11:12:50Z</time>
      </trkpt>
      <trkpt lat="59.6229217" lon="17.7472856">
        <ele>23.209</ele>
        <time>2014-07-08T11:12:51Z</time>
      </trkpt>
      <trkpt lat="59.622953" lon="17.747357">
        <ele>23.209</ele>
        <time>2014-07-08T11:12:52Z</time>
      </trkpt>
      <trkpt lat="59.6229835" lon="17.7474311">
        <ele>23.209</ele>
        <time>2014-07-08T11:12:53Z</time>
      </trkpt>
      <trkpt lat="59.6230109" lon="17.7475052">
        <ele>23.209</ele>
        <time>2014-07-08T11:12:54Z</time>
      </trkpt>
      <trkpt lat="59.623035" lon="17.7475845">
        <ele>23.209</ele>
        <time>2014-07-08T11:12:55Z</time>
      </trkpt>
      <trkpt lat="59.6230581" lon="17.7476637">
        <ele>23.209</ele>
        <time>2014-07-08T11:12:56Z</time>
      </trkpt>
      <trkpt lat="59.6230819" lon="17.7477407">
        <ele>23.209</ele>
        <time>2014-07-08T11:12:57Z</time>
      </trkpt>
      <trkpt lat="59.6231068" lon="17.7478197">
        <ele>23.209</ele>
        <time>2014-07-08T11:12:58Z</time>
      </trkpt>
      <trkpt lat="59.6231306" lon="17.747898">
        <ele>23.209</ele>
        <time>2014-07-08T11:12:59Z</time>
      </trkpt>
      <trkpt lat="59.623155" lon="17.7479801">
        <ele>23.209</ele>
        <time>2014-07-08T11:13:00Z</time>
      </trkpt>
      <trkpt lat="59.6231824" lon="17.7480637">
        <ele>23.6896</ele>
        <time>2014-07-08T11:13:01Z</time>
      </trkpt>
      <trkpt lat="59.6232103" lon="17.7481496">
        <ele>23.209</ele>
        <time>2014-07-08T11:13:02Z</time>
      </trkpt>
      <trkpt lat="59.6232373" lon="17.748239">
        <ele>23.209</ele>
        <time>2014-07-08T11:13:03Z</time>
      </trkpt>
      <trkpt lat="59.6232671" lon="17.7483319">
        <ele>23.209</ele>
        <time>2014-07-08T11:13:04Z</time>
      </trkpt>
      <trkpt lat="59.6232997" lon="17.7484297">
        <ele>23.209</ele>
        <time>2014-07-08T11:13:05Z</time>
      </trkpt>
      <trkpt lat="59.6233299" lon="17.7485248">
        <ele>23.209</ele>
        <time>2014-07-08T11:13:06Z</time>
      </trkpt>
      <trkpt lat="59.62336" lon="17.7486199">
        <ele>22.7283</ele>
        <time>2014-07-08T11:13:07Z</time>
      </trkpt>
      <trkpt lat="59.6233909" lon="17.7487156">
        <ele>22.7283</ele>
        <time>2014-07-08T11:13:08Z</time>
      </trkpt>
      <trkpt lat="59.6234196" lon="17.7488132">
        <ele>22.7283</ele>
        <time>2014-07-08T11:13:09Z</time>
      </trkpt>
      <trkpt lat="59.6234481" lon="17.7489114">
        <ele>22.2476</ele>
        <time>2014-07-08T11:13:10Z</time>
      </trkpt>
      <trkpt lat="59.6234767" lon="17.7490075">
        <ele>22.2476</ele>
        <time>2014-07-08T11:13:11Z</time>
      </trkpt>
      <trkpt lat="59.6235078" lon="17.7491012">
        <ele>22.2476</ele>
        <time>2014-07-08T11:13:12Z</time>
      </trkpt>
      <trkpt lat="59.6235361" lon="17.7491929">
        <ele>21.767</ele>
        <time>2014-07-08T11:13:13Z</time>
      </trkpt>
      <trkpt lat="59.6235624" lon="17.7492831">
        <ele>21.767</ele>
        <time>2014-07-08T11:13:14Z</time>
      </trkpt>
      <trkpt lat="59.6235884" lon="17.7493722">
        <ele>21.767</ele>
        <time>2014-07-08T11:13:15Z</time>
      </trkpt>
      <trkpt lat="59.6236136" lon="17.7494633">
        <ele>21.767</ele>
        <time>2014-07-08T11:13:16Z</time>
      </trkpt>
      <trkpt lat="59.6236375" lon="17.7495594">
        <ele>21.767</ele>
        <time>2014-07-08T11:13:17Z</time>
      </trkpt>
      <trkpt lat="59.6236598" lon="17.7496591">
        <ele>21.767</ele>
        <time>2014-07-08T11:13:18Z</time>
      </trkpt>
      <trkpt lat="59.6236812" lon="17.74976">
        <ele>21.2864</ele>
        <time>2014-07-08T11:13:19Z</time>
      </trkpt>
      <trkpt lat="59.6237039" lon="17.7498616">
        <ele>21.2864</ele>
        <time>2014-07-08T11:13:20Z</time>
      </trkpt>
      <trkpt lat="59.6237299" lon="17.7499643">
        <ele>21.2864</ele>
        <time>2014-07-08T11:13:21Z</time>
      </trkpt>
      <trkpt lat="59.6237584" lon="17.7500668">
        <ele>21.2864</ele>
        <time>2014-07-08T11:13:22Z</time>
      </trkpt>
      <trkpt lat="59.6237884" lon="17.7501672">
        <ele>21.767</ele>
        <time>2014-07-08T11:13:23Z</time>
      </trkpt>
      <trkpt lat="59.6238185" lon="17.7502656">
        <ele>21.767</ele>
        <time>2014-07-08T11:13:24Z</time>
      </trkpt>
      <trkpt lat="59.6238495" lon="17.7503637">
        <ele>21.2864</ele>
        <time>2014-07-08T11:13:25Z</time>
      </trkpt>
      <trkpt lat="59.623881" lon="17.7504625">
        <ele>21.767</ele>
        <time>2014-07-08T11:13:26Z</time>
      </trkpt>
      <trkpt lat="59.6239101" lon="17.7505609">
        <ele>21.767</ele>
        <time>2014-07-08T11:13:27Z</time>
      </trkpt>
      <trkpt lat="59.6239377" lon="17.7506586">
        <ele>21.767</ele>
        <time>2014-07-08T11:13:28Z</time>
      </trkpt>
      <trkpt lat="59.6239651" lon="17.7507536">
        <ele>21.767</ele>
        <time>2014-07-08T11:13:29Z</time>
      </trkpt>
      <trkpt lat="59.6239929" lon="17.7508456">
        <ele>21.767</ele>
        <time>2014-07-08T11:13:30Z</time>
      </trkpt>
      <trkpt lat="59.624021" lon="17.7509365">
        <ele>21.767</ele>
        <time>2014-07-08T11:13:31Z</time>
      </trkpt>
      <trkpt lat="59.6240508" lon="17.7510265">
        <ele>21.767</ele>
        <time>2014-07-08T11:13:32Z</time>
      </trkpt>
      <trkpt lat="59.6240802" lon="17.7511162">
        <ele>21.767</ele>
        <time>2014-07-08T11:13:33Z</time>
      </trkpt>
      <trkpt lat="59.624109" lon="17.7512069">
        <ele>21.767</ele>
        <time>2014-07-08T11:13:34Z</time>
      </trkpt>
      <trkpt lat="59.6241377" lon="17.7512986">
        <ele>21.767</ele>
        <time>2014-07-08T11:13:35Z</time>
      </trkpt>
      <trkpt lat="59.624168" lon="17.7513912">
        <ele>21.767</ele>
        <time>2014-07-08T11:13:36Z</time>
      </trkpt>
      <trkpt lat="59.6241985" lon="17.7514846">
        <ele>21.767</ele>
        <time>2014-07-08T11:13:37Z</time>
      </trkpt>
      <trkpt lat="59.6242272" lon="17.75158">
        <ele>21.767</ele>
        <time>2014-07-08T11:13:38Z</time>
      </trkpt>
      <trkpt lat="59.6242542" lon="17.7516747">
        <ele>21.767</ele>
        <time>2014-07-08T11:13:39Z</time>
      </trkpt>
      <trkpt lat="59.6242793" lon="17.7517646">
        <ele>21.767</ele>
        <time>2014-07-08T11:13:40Z</time>
      </trkpt>
      <trkpt lat="59.6243022" lon="17.751849">
        <ele>21.767</ele>
        <time>2014-07-08T11:13:41Z</time>
      </trkpt>
      <trkpt lat="59.624324" lon="17.7519275">
        <ele>21.767</ele>
        <time>2014-07-08T11:13:42Z</time>
      </trkpt>
      <trkpt lat="59.6243463" lon="17.7520015">
        <ele>21.767</ele>
        <time>2014-07-08T11:13:43Z</time>
      </trkpt>
      <trkpt lat="59.6243685" lon="17.7520745">
        <ele>21.767</ele>
        <time>2014-07-08T11:13:44Z</time>
      </trkpt>
      <trkpt lat="59.6243923" lon="17.7521475">
        <ele>21.767</ele>
        <time>2014-07-08T11:13:45Z</time>
      </trkpt>
      <trkpt lat="59.6244178" lon="17.7522205">
        <ele>21.767</ele>
        <time>2014-07-08T11:13:46Z</time>
      </trkpt>
      <trkpt lat="59.6244432" lon="17.7522947">
        <ele>21.767</ele>
        <time>2014-07-08T11:13:47Z</time>
      </trkpt>
      <trkpt lat="59.6244686" lon="17.7523696">
        <ele>21.767</ele>
        <time>2014-07-08T11:13:48Z</time>
      </trkpt>
      <trkpt lat="59.624496" lon="17.7524419">
        <ele>21.767</ele>
        <time>2014-07-08T11:13:49Z</time>
      </trkpt>
      <trkpt lat="59.624525" lon="17.7525133">
        <ele>21.767</ele>
        <time>2014-07-08T11:13:50Z</time>
      </trkpt>
      <trkpt lat="59.624553" lon="17.7525884">
        <ele>21.767</ele>
        <time>2014-07-08T11:13:51Z</time>
      </trkpt>
      <trkpt lat="59.6245774" lon="17.7526692">
        <ele>21.767</ele>
        <time>2014-07-08T11:13:52Z</time>
      </trkpt>
      <trkpt lat="59.6245996" lon="17.7527557">
        <ele>21.767</ele>
        <time>2014-07-08T11:13:53Z</time>
      </trkpt>
      <trkpt lat="59.6246196" lon="17.7528479">
        <ele>21.767</ele>
        <time>2014-07-08T11:13:54Z</time>
      </trkpt>
      <trkpt lat="59.6246373" lon="17.7529431">
        <ele>21.2864</ele>
        <time>2014-07-08T11:13:55Z</time>
      </trkpt>
      <trkpt lat="59.6246548" lon="17.7530377">
        <ele>21.2864</ele>
        <time>2014-07-08T11:13:56Z</time>
      </trkpt>
      <trkpt lat="59.6246733" lon="17.7531308">
        <ele>21.2864</ele>
        <time>2014-07-08T11:13:57Z</time>
      </trkpt>
      <trkpt lat="59.6246951" lon="17.7532215">
        <ele>21.2864</ele>
        <time>2014-07-08T11:13:58Z</time>
      </trkpt>
      <trkpt lat="59.6247214" lon="17.7533109">
        <ele>21.2864</ele>
        <time>2014-07-08T11:13:59Z</time>
      </trkpt>
      <trkpt lat="59.6247528" lon="17.7533991">
        <ele>20.8057</ele>
        <time>2014-07-08T11:14:00Z</time>
      </trkpt>
      <trkpt lat="59.6247885" lon="17.7534885">
        <ele>20.8057</ele>
        <time>2014-07-08T11:14:01Z</time>
      </trkpt>
      <trkpt lat="59.624826" lon="17.7535808">
        <ele>20.8057</ele>
        <time>2014-07-08T11:14:02Z</time>
      </trkpt>
      <trkpt lat="59.6248623" lon="17.7536766">
        <ele>20.8057</ele>
        <time>2014-07-08T11:14:03Z</time>
      </trkpt>
      <trkpt lat="59.6248955" lon="17.7537755">
        <ele>20.325</ele>
        <time>2014-07-08T11:14:04Z</time>
      </trkpt>
      <trkpt lat="59.6249265" lon="17.7538766">
        <ele>20.325</ele>
        <time>2014-07-08T11:14:05Z</time>
      </trkpt>
      <trkpt lat="59.6249564" lon="17.7539787">
        <ele>20.325</ele>
        <time>2014-07-08T11:14:06Z</time>
      </trkpt>
      <trkpt lat="59.6249872" lon="17.7540816">
        <ele>20.325</ele>
        <time>2014-07-08T11:14:07Z</time>
      </trkpt>
      <trkpt lat="59.6250195" lon="17.7541858">
        <ele>19.8444</ele>
        <time>2014-07-08T11:14:08Z</time>
      </trkpt>
      <trkpt lat="59.625053" lon="17.7542901">
        <ele>19.8444</ele>
        <time>2014-07-08T11:14:09Z</time>
      </trkpt>
      <trkpt lat="59.6250874" lon="17.7543941">
        <ele>19.3638</ele>
        <time>2014-07-08T11:14:10Z</time>
      </trkpt>
      <trkpt lat="59.6251209" lon="17.7544994">
        <ele>19.3638</ele>
        <time>2014-07-08T11:14:11Z</time>
      </trkpt>
      <trkpt lat="59.6251529" lon="17.754607">
        <ele>19.3638</ele>
        <time>2014-07-08T11:14:12Z</time>
      </trkpt>
      <trkpt lat="59.6251865" lon="17.7547163">
        <ele>19.3638</ele>
        <time>2014-07-08T11:14:13Z</time>
      </trkpt>
      <trkpt lat="59.6252185" lon="17.7548268">
        <ele>18.8831</ele>
        <time>2014-07-08T11:14:14Z</time>
      </trkpt>
      <trkpt lat="59.6252488" lon="17.7549375">
        <ele>18.8831</ele>
        <time>2014-07-08T11:14:15Z</time>
      </trkpt>
      <trkpt lat="59.6252803" lon="17.7550454">
        <ele>18.8831</ele>
        <time>2014-07-08T11:14:16Z</time>
      </trkpt>
      <trkpt lat="59.6253114" lon="17.7551517">
        <ele>18.4023</ele>
        <time>2014-07-08T11:14:17Z</time>
      </trkpt>
      <trkpt lat="59.6253422" lon="17.7552572">
        <ele>18.4023</ele>
        <time>2014-07-08T11:14:18Z</time>
      </trkpt>
      <trkpt lat="59.6253718" lon="17.7553606">
        <ele>18.4023</ele>
        <time>2014-07-08T11:14:19Z</time>
      </trkpt>
      <trkpt lat="59.6254016" lon="17.7554611">
        <ele>18.4023</ele>
        <time>2014-07-08T11:14:20Z</time>
      </trkpt>
      <trkpt lat="59.6254319" lon="17.7555593">
        <ele>18.8831</ele>
        <time>2014-07-08T11:14:21Z</time>
      </trkpt>
      <trkpt lat="59.6254605" lon="17.7556561">
        <ele>18.8831</ele>
        <time>2014-07-08T11:14:22Z</time>
      </trkpt>
      <trkpt lat="59.6254865" lon="17.7557518">
        <ele>18.8831</ele>
        <time>2014-07-08T11:14:23Z</time>
      </trkpt>
      <trkpt lat="59.625512" lon="17.7558462">
        <ele>18.8831</ele>
        <time>2014-07-08T11:14:24Z</time>
      </trkpt>
      <trkpt lat="59.625541" lon="17.7559363">
        <ele>18.8831</ele>
        <time>2014-07-08T11:14:25Z</time>
      </trkpt>
      <trkpt lat="59.6255704" lon="17.7560268">
        <ele>18.8831</ele>
        <time>2014-07-08T11:14:26Z</time>
      </trkpt>
      <trkpt lat="59.6255998" lon="17.7561175">
        <ele>19.3638</ele>
        <time>2014-07-08T11:14:27Z</time>
      </trkpt>
      <trkpt lat="59.6256308" lon="17.7562074">
        <ele>19.3638</ele>
        <time>2014-07-08T11:14:28Z</time>
      </trkpt>
      <trkpt lat="59.6256619" lon="17.7562969">
        <ele>19.3638</ele>
        <time>2014-07-08T11:14:29Z</time>
      </trkpt>
      <trkpt lat="59.6256921" lon="17.7563869">
        <ele>19.8444</ele>
        <time>2014-07-08T11:14:30Z</time>
      </trkpt>
      <trkpt lat="59.6257207" lon="17.7564792">
        <ele>19.8444</ele>
        <time>2014-07-08T11:14:31Z</time>
      </trkpt>
      <trkpt lat="59.6257511" lon="17.7565718">
        <ele>19.8444</ele>
        <time>2014-07-08T11:14:32Z</time>
      </trkpt>
      <trkpt lat="59.6257828" lon="17.7566634">
        <ele>20.325</ele>
        <time>2014-07-08T11:14:33Z</time>
      </trkpt>
      <trkpt lat="59.6258145" lon="17.7567553">
        <ele>20.325</ele>
        <time>2014-07-08T11:14:34Z</time>
      </trkpt>
      <trkpt lat="59.6258465" lon="17.7568476">
        <ele>20.325</ele>
        <time>2014-07-08T11:14:35Z</time>
      </trkpt>
      <trkpt lat="59.625876" lon="17.7569402">
        <ele>20.325</ele>
        <time>2014-07-08T11:14:36Z</time>
      </trkpt>
      <trkpt lat="59.6259072" lon="17.7570313">
        <ele>20.325</ele>
        <time>2014-07-08T11:14:37Z</time>
      </trkpt>
      <trkpt lat="59.6259376" lon="17.7571226">
        <ele>20.325</ele>
        <time>2014-07-08T11:14:38Z</time>
      </trkpt>
      <trkpt lat="59.6259675" lon="17.7572168">
        <ele>19.8444</ele>
        <time>2014-07-08T11:14:39Z</time>
      </trkpt>
      <trkpt lat="59.6259952" lon="17.757312">
        <ele>19.8444</ele>
        <time>2014-07-08T11:14:40Z</time>
      </trkpt>
      <trkpt lat="59.6260224" lon="17.7574071">
        <ele>19.3638</ele>
        <time>2014-07-08T11:14:41Z</time>
      </trkpt>
      <trkpt lat="59.6260496" lon="17.7575033">
        <ele>19.3638</ele>
        <time>2014-07-08T11:14:42Z</time>
      </trkpt>
      <trkpt lat="59.6260775" lon="17.7576022">
        <ele>18.8831</ele>
        <time>2014-07-08T11:14:43Z</time>
      </trkpt>
      <trkpt lat="59.6261063" lon="17.7577007">
        <ele>18.4023</ele>
        <time>2014-07-08T11:14:44Z</time>
      </trkpt>
      <trkpt lat="59.6261362" lon="17.7577991">
        <ele>17.9218</ele>
        <time>2014-07-08T11:14:45Z</time>
      </trkpt>
      <trkpt lat="59.6261687" lon="17.7579025">
        <ele>17.4412</ele>
        <time>2014-07-08T11:14:46Z</time>
      </trkpt>
      <trkpt lat="59.6262029" lon="17.7580118">
        <ele>16.9604</ele>
        <time>2014-07-08T11:14:47Z</time>
      </trkpt>
      <trkpt lat="59.6262412" lon="17.7581256">
        <ele>16.4797</ele>
        <time>2014-07-08T11:14:48Z</time>
      </trkpt>
      <trkpt lat="59.6262821" lon="17.7582403">
        <ele>15.999</ele>
        <time>2014-07-08T11:14:49Z</time>
      </trkpt>
      <trkpt lat="59.6263292" lon="17.7583548">
        <ele>15.999</ele>
        <time>2014-07-08T11:14:50Z</time>
      </trkpt>
      <trkpt lat="59.6263731" lon="17.7584725">
        <ele>15.5184</ele>
        <time>2014-07-08T11:14:51Z</time>
      </trkpt>
      <trkpt lat="59.6264173" lon="17.7585926">
        <ele>15.5184</ele>
        <time>2014-07-08T11:14:52Z</time>
      </trkpt>
      <trkpt lat="59.6264638" lon="17.7587129">
        <ele>15.0377</ele>
        <time>2014-07-08T11:14:53Z</time>
      </trkpt>
      <trkpt lat="59.6265102" lon="17.7588331">
        <ele>15.0377</ele>
        <time>2014-07-08T11:14:54Z</time>
      </trkpt>
      <trkpt lat="59.6265567" lon="17.7589537">
        <ele>14.557</ele>
        <time>2014-07-08T11:14:55Z</time>
      </trkpt>
      <trkpt lat="59.6266026" lon="17.7590749">
        <ele>14.557</ele>
        <time>2014-07-08T11:14:56Z</time>
      </trkpt>
      <trkpt lat="59.6266484" lon="17.7591947">
        <ele>14.557</ele>
        <time>2014-07-08T11:14:57Z</time>
      </trkpt>
      <trkpt lat="59.6266929" lon="17.7593135">
        <ele>14.0764</ele>
        <time>2014-07-08T11:14:58Z</time>
      </trkpt>
      <trkpt lat="59.6267362" lon="17.7594303">
        <ele>14.0764</ele>
        <time>2014-07-08T11:14:59Z</time>
      </trkpt>
      <trkpt lat="59.6267782" lon="17.7595444">
        <ele>14.0764</ele>
        <time>2014-07-08T11:15:00Z</time>
      </trkpt>
      <trkpt lat="59.6268197" lon="17.7596563">
        <ele>13.5958</ele>
        <time>2014-07-08T11:15:01Z</time>
      </trkpt>
      <trkpt lat="59.6268602" lon="17.7597653">
        <ele>13.5958</ele>
        <time>2014-07-08T11:15:02Z</time>
      </trkpt>
      <trkpt lat="59.6269002" lon="17.7598711">
        <ele>13.5958</ele>
        <time>2014-07-08T11:15:03Z</time>
      </trkpt>
      <trkpt lat="59.6269395" lon="17.7599753">
        <ele>13.5958</ele>
        <time>2014-07-08T11:15:04Z</time>
      </trkpt>
      <trkpt lat="59.626979" lon="17.7600786">
        <ele>13.5958</ele>
        <time>2014-07-08T11:15:05Z</time>
      </trkpt>
      <trkpt lat="59.6270181" lon="17.7601823">
        <ele>13.5958</ele>
        <time>2014-07-08T11:15:06Z</time>
      </trkpt>
      <trkpt lat="59.6270567" lon="17.7602866">
        <ele>13.5958</ele>
        <time>2014-07-08T11:15:07Z</time>
      </trkpt>
      <trkpt lat="59.6270944" lon="17.7603903">
        <ele>13.5958</ele>
        <time>2014-07-08T11:15:08Z</time>
      </trkpt>
      <trkpt lat="59.6271301" lon="17.7604937">
        <ele>13.5958</ele>
        <time>2014-07-08T11:15:09Z</time>
      </trkpt>
      <trkpt lat="59.627166" lon="17.7605948">
        <ele>13.1151</ele>
        <time>2014-07-08T11:15:10Z</time>
      </trkpt>
      <trkpt lat="59.6272037" lon="17.7606911">
        <ele>13.1151</ele>
        <time>2014-07-08T11:15:11Z</time>
      </trkpt>
      <trkpt lat="59.6272394" lon="17.7607839">
        <ele>13.1151</ele>
        <time>2014-07-08T11:15:12Z</time>
      </trkpt>
      <trkpt lat="59.627271" lon="17.7608756">
        <ele>13.1151</ele>
        <time>2014-07-08T11:15:13Z</time>
      </trkpt>
      <trkpt lat="59.6273016" lon="17.7609646">
        <ele>12.6344</ele>
        <time>2014-07-08T11:15:14Z</time>
      </trkpt>
      <trkpt lat="59.6273311" lon="17.7610427">
        <ele>12.6344</ele>
        <time>2014-07-08T11:15:15Z</time>
      </trkpt>
      <trkpt lat="59.6273599" lon="17.7611211">
        <ele>12.6344</ele>
        <time>2014-07-08T11:15:16Z</time>
      </trkpt>
      <trkpt lat="59.6273866" lon="17.7612038">
        <ele>12.1538</ele>
        <time>2014-07-08T11:15:17Z</time>
      </trkpt>
      <trkpt lat="59.6274114" lon="17.7612825">
        <ele>12.1538</ele>
        <time>2014-07-08T11:15:18Z</time>
      </trkpt>
      <trkpt lat="59.6274357" lon="17.7613599">
        <ele>12.1538</ele>
        <time>2014-07-08T11:15:19Z</time>
      </trkpt>
      <trkpt lat="59.6274579" lon="17.761436">
        <ele>12.1538</ele>
        <time>2014-07-08T11:15:20Z</time>
      </trkpt>
      <trkpt lat="59.6274802" lon="17.76151">
        <ele>12.1538</ele>
        <time>2014-07-08T11:15:21Z</time>
      </trkpt>
      <trkpt lat="59.6275005" lon="17.7615863">
        <ele>11.6732</ele>
        <time>2014-07-08T11:15:22Z</time>
      </trkpt>
      <trkpt lat="59.6275198" lon="17.7616674">
        <ele>11.6732</ele>
        <time>2014-07-08T11:15:23Z</time>
      </trkpt>
      <trkpt lat="59.6275379" lon="17.7617537">
        <ele>11.6732</ele>
        <time>2014-07-08T11:15:24Z</time>
      </trkpt>
      <trkpt lat="59.627558" lon="17.761844">
        <ele>11.1925</ele>
        <time>2014-07-08T11:15:25Z</time>
      </trkpt>
      <trkpt lat="59.6275824" lon="17.7619367">
        <ele>11.1925</ele>
        <time>2014-07-08T11:15:26Z</time>
      </trkpt>
      <trkpt lat="59.6276091" lon="17.7620353">
        <ele>10.7118</ele>
        <time>2014-07-08T11:15:27Z</time>
      </trkpt>
      <trkpt lat="59.6276375" lon="17.7621409">
        <ele>10.2312</ele>
        <time>2014-07-08T11:15:28Z</time>
      </trkpt>
      <trkpt lat="59.6276694" lon="17.7622535">
        <ele>10.2312</ele>
        <time>2014-07-08T11:15:29Z</time>
      </trkpt>
      <trkpt lat="59.6277033" lon="17.7623742">
        <ele>9.75061</ele>
        <time>2014-07-08T11:15:30Z</time>
      </trkpt>
      <trkpt lat="59.6277393" lon="17.7625033">
        <ele>9.2699</ele>
        <time>2014-07-08T11:15:31Z</time>
      </trkpt>
      <trkpt lat="59.6277764" lon="17.7626384">
        <ele>8.78918</ele>
        <time>2014-07-08T11:15:32Z</time>
      </trkpt>
      <trkpt lat="59.6278113" lon="17.7627751">
        <ele>8.78918</ele>
        <time>2014-07-08T11:15:33Z</time>
      </trkpt>
      <trkpt lat="59.6278444" lon="17.7629103">
        <ele>8.78918</ele>
        <time>2014-07-08T11:15:34Z</time>
      </trkpt>
      <trkpt lat="59.6278769" lon="17.7630418">
        <ele>8.78918</ele>
        <time>2014-07-08T11:15:35Z</time>
      </trkpt>
      <trkpt lat="59.6279092" lon="17.7631684">
        <ele>8.78918</ele>
        <time>2014-07-08T11:15:36Z</time>
      </trkpt>
      <trkpt lat="59.6279406" lon="17.7632888">
        <ele>8.78918</ele>
        <time>2014-07-08T11:15:37Z</time>
      </trkpt>
      <trkpt lat="59.6279698" lon="17.7634041">
        <ele>8.78918</ele>
        <time>2014-07-08T11:15:38Z</time>
      </trkpt>
      <trkpt lat="59.6279978" lon="17.7635162">
        <ele>9.2699</ele>
        <time>2014-07-08T11:15:39Z</time>
      </trkpt>
      <trkpt lat="59.6280261" lon="17.763623">
        <ele>9.2699</ele>
        <time>2014-07-08T11:15:40Z</time>
      </trkpt>
      <trkpt lat="59.6280542" lon="17.763723">
        <ele>9.2699</ele>
        <time>2014-07-08T11:15:41Z</time>
      </trkpt>
      <trkpt lat="59.6280831" lon="17.7638171">
        <ele>9.2699</ele>
        <time>2014-07-08T11:15:42Z</time>
      </trkpt>
      <trkpt lat="59.6281112" lon="17.763909">
        <ele>9.75061</ele>
        <time>2014-07-08T11:15:43Z</time>
      </trkpt>
      <trkpt lat="59.6281418" lon="17.7639969">
        <ele>9.75061</ele>
        <time>2014-07-08T11:15:44Z</time>
      </trkpt>
      <trkpt lat="59.6281753" lon="17.764079">
        <ele>9.75061</ele>
        <time>2014-07-08T11:15:45Z</time>
      </trkpt>
      <trkpt lat="59.6282081" lon="17.7641624">
        <ele>9.75061</ele>
        <time>2014-07-08T11:15:46Z</time>
      </trkpt>
      <trkpt lat="59.628237" lon="17.7642494">
        <ele>9.75061</ele>
        <time>2014-07-08T11:15:47Z</time>
      </trkpt>
      <trkpt lat="59.628262" lon="17.7643395">
        <ele>10.2312</ele>
        <time>2014-07-08T11:15:48Z</time>
      </trkpt>
      <trkpt lat="59.6282849" lon="17.76443">
        <ele>10.2312</ele>
        <time>2014-07-08T11:15:49Z</time>
      </trkpt>
      <trkpt lat="59.6283055" lon="17.7645199">
        <ele>10.2312</ele>
        <time>2014-07-08T11:15:50Z</time>
      </trkpt>
      <trkpt lat="59.6283227" lon="17.7646104">
        <ele>10.7118</ele>
        <time>2014-07-08T11:15:51Z</time>
      </trkpt>
      <trkpt lat="59.6283353" lon="17.7646991">
        <ele>10.7118</ele>
        <time>2014-07-08T11:15:52Z</time>
      </trkpt>
      <trkpt lat="59.6283446" lon="17.7647843">
        <ele>10.7118</ele>
        <time>2014-07-08T11:15:53Z</time>
      </trkpt>
      <trkpt lat="59.6283531" lon="17.7648658">
        <ele>11.1925</ele>
        <time>2014-07-08T11:15:54Z</time>
      </trkpt>
      <trkpt lat="59.6283619" lon="17.7649441">
        <ele>11.1925</ele>
        <time>2014-07-08T11:15:55Z</time>
      </trkpt>
      <trkpt lat="59.6283696" lon="17.7650194">
        <ele>11.1925</ele>
        <time>2014-07-08T11:15:56Z</time>
      </trkpt>
      <trkpt lat="59.6283783" lon="17.7650935">
        <ele>11.6732</ele>
        <time>2014-07-08T11:15:57Z</time>
      </trkpt>
      <trkpt lat="59.6283907" lon="17.7651657">
        <ele>12.6344</ele>
        <time>2014-07-08T11:15:58Z</time>
      </trkpt>
      <trkpt lat="59.6283998" lon="17.7652371">
        <ele>13.1151</ele>
        <time>2014-07-08T11:15:59Z</time>
      </trkpt>
      <trkpt lat="59.628406" lon="17.7653086">
        <ele>13.5958</ele>
        <time>2014-07-08T11:16:00Z</time>
      </trkpt>
      <trkpt lat="59.628406" lon="17.765382">
        <ele>13.1151</ele>
        <time>2014-07-08T11:16:01Z</time>
      </trkpt>
      <trkpt lat="59.6284044" lon="17.7654578">
        <ele>13.1151</ele>
        <time>2014-07-08T11:16:02Z</time>
      </trkpt>
      <trkpt lat="59.6283998" lon="17.7655345">
        <ele>12.6344</ele>
        <time>2014-07-08T11:16:03Z</time>
      </trkpt>
      <trkpt lat="59.6283894" lon="17.7656102">
        <ele>12.6344</ele>
        <time>2014-07-08T11:16:04Z</time>
      </trkpt>
      <trkpt lat="59.6283747" lon="17.7656795">
        <ele>12.6344</ele>
        <time>2014-07-08T11:16:05Z</time>
      </trkpt>
      <trkpt lat="59.6283594" lon="17.7657412">
        <ele>12.6344</ele>
        <time>2014-07-08T11:16:06Z</time>
      </trkpt>
      <trkpt lat="59.6283472" lon="17.7657951">
        <ele>12.6344</ele>
        <time>2014-07-08T11:16:07Z</time>
      </trkpt>
      <trkpt lat="59.6283376" lon="17.7658428">
        <ele>13.1151</ele>
        <time>2014-07-08T11:16:08Z</time>
      </trkpt>
      <trkpt lat="59.6283291" lon="17.7658822">
        <ele>13.1151</ele>
        <time>2014-07-08T11:16:09Z</time>
      </trkpt>
      <trkpt lat="59.6283244" lon="17.7659136">
        <ele>13.1151</ele>
        <time>2014-07-08T11:16:10Z</time>
      </trkpt>
      <trkpt lat="59.6283226" lon="17.7659407">
        <ele>13.1151</ele>
        <time>2014-07-08T11:16:11Z</time>
      </trkpt>
      <trkpt lat="59.6283205" lon="17.7659685">
        <ele>13.1151</ele>
        <time>2014-07-08T11:16:12Z</time>
      </trkpt>
      <trkpt lat="59.6283168" lon="17.766">
        <ele>13.5958</ele>
        <time>2014-07-08T11:16:13Z</time>
      </trkpt>
      <trkpt lat="59.6283127" lon="17.7660308">
        <ele>14.0764</ele>
        <time>2014-07-08T11:16:14Z</time>
      </trkpt>
      <trkpt lat="59.6283111" lon="17.7660603">
        <ele>14.557</ele>
        <time>2014-07-08T11:16:15Z</time>
      </trkpt>
      <trkpt lat="59.628311" lon="17.7660903">
        <ele>14.557</ele>
        <time>2014-07-08T11:16:16Z</time>
      </trkpt>
      <trkpt lat="59.6283107" lon="17.7661169">
        <ele>14.557</ele>
        <time>2014-07-08T11:16:17Z</time>
      </trkpt>
      <trkpt lat="59.6283153" lon="17.7661322">
        <ele>14.557</ele>
        <time>2014-07-08T11:16:18Z</time>
      </trkpt>
      <trkpt lat="59.6283226" lon="17.7661287">
        <ele>14.557</ele>
        <time>2014-07-08T11:16:19Z</time>
      </trkpt>
      <trkpt lat="59.6283252" lon="17.7661135">
        <ele>14.0764</ele>
        <time>2014-07-08T11:16:20Z</time>
      </trkpt>
      <trkpt lat="59.628323" lon="17.7660955">
        <ele>14.0764</ele>
        <time>2014-07-08T11:16:21Z</time>
      </trkpt>
      <trkpt lat="59.6283182" lon="17.7660738">
        <ele>14.0764</ele>
        <time>2014-07-08T11:16:22Z</time>
      </trkpt>
      <trkpt lat="59.6283156" lon="17.7660534">
        <ele>13.5958</ele>
        <time>2014-07-08T11:16:23Z</time>
      </trkpt>
      <trkpt lat="59.6283141" lon="17.7660401">
        <ele>13.5958</ele>
        <time>2014-07-08T11:16:24Z</time>
      </trkpt>
      <trkpt lat="59.6283153" lon="17.7660333">
        <ele>13.5958</ele>
        <time>2014-07-08T11:16:25Z</time>
      </trkpt>
      <trkpt lat="59.6283162" lon="17.7660293">
        <ele>14.0764</ele>
        <time>2014-07-08T11:16:26Z</time>
      </trkpt>
      <trkpt lat="59.6283074" lon="17.7659241">
        <ele>14.557</ele>
        <time>2014-07-08T11:16:39Z</time>
      </trkpt>
      <trkpt lat="59.6283162" lon="17.765877">
        <ele>14.557</ele>
        <time>2014-07-08T11:16:40Z</time>
      </trkpt>
      <trkpt lat="59.628327" lon="17.7658308">
        <ele>14.0764</ele>
        <time>2014-07-08T11:16:41Z</time>
      </trkpt>
      <trkpt lat="59.6283412" lon="17.7657752">
        <ele>13.5958</ele>
        <time>2014-07-08T11:16:42Z</time>
      </trkpt>
      <trkpt lat="59.6283587" lon="17.7657163">
        <ele>13.5958</ele>
        <time>2014-07-08T11:16:43Z</time>
      </trkpt>
      <trkpt lat="59.6283786" lon="17.7656649">
        <ele>13.1151</ele>
        <time>2014-07-08T11:16:44Z</time>
      </trkpt>
      <trkpt lat="59.6284003" lon="17.7656412">
        <ele>12.6344</ele>
        <time>2014-07-08T11:16:45Z</time>
      </trkpt>
      <trkpt lat="59.6284184" lon="17.7656761">
        <ele>12.6344</ele>
        <time>2014-07-08T11:16:46Z</time>
      </trkpt>
      <trkpt lat="59.6284262" lon="17.7657334">
        <ele>12.1538</ele>
        <time>2014-07-08T11:16:47Z</time>
      </trkpt>
      <trkpt lat="59.6284329" lon="17.7657933">
        <ele>12.1538</ele>
        <time>2014-07-08T11:16:48Z</time>
      </trkpt>
      <trkpt lat="59.6284415" lon="17.7658586">
        <ele>11.6732</ele>
        <time>2014-07-08T11:16:49Z</time>
      </trkpt>
      <trkpt lat="59.6284525" lon="17.7659286">
        <ele>11.6732</ele>
        <time>2014-07-08T11:16:50Z</time>
      </trkpt>
      <trkpt lat="59.6284677" lon="17.7660013">
        <ele>11.1925</ele>
        <time>2014-07-08T11:16:51Z</time>
      </trkpt>
      <trkpt lat="59.6284971" lon="17.7660764">
        <ele>10.7118</ele>
        <time>2014-07-08T11:16:52Z</time>
      </trkpt>
      <trkpt lat="59.6285365" lon="17.7661447">
        <ele>10.7118</ele>
        <time>2014-07-08T11:16:53Z</time>
      </trkpt>
      <trkpt lat="59.6285831" lon="17.7662002">
        <ele>10.7118</ele>
        <time>2014-07-08T11:16:54Z</time>
      </trkpt>
      <trkpt lat="59.6286308" lon="17.7662432">
        <ele>10.2312</ele>
        <time>2014-07-08T11:16:55Z</time>
      </trkpt>
      <trkpt lat="59.6286732" lon="17.7662968">
        <ele>10.2312</ele>
        <time>2014-07-08T11:16:56Z</time>
      </trkpt>
      <trkpt lat="59.6287509" lon="17.7663431">
        <ele>10.2312</ele>
        <time>2014-07-08T11:16:57Z</time>
      </trkpt>
      <trkpt lat="59.6288099" lon="17.7663694">
        <ele>10.2312</ele>
        <time>2014-07-08T11:16:58Z</time>
      </trkpt>
      <trkpt lat="59.6288452" lon="17.7663969">
        <ele>9.75061</ele>
        <time>2014-07-08T11:16:59Z</time>
      </trkpt>
      <trkpt lat="59.6288873" lon="17.7664044">
        <ele>10.2312</ele>
        <time>2014-07-08T11:17:00Z</time>
      </trkpt>
      <trkpt lat="59.6289323" lon="17.7664167">
        <ele>10.7118</ele>
        <time>2014-07-08T11:17:01Z</time>
      </trkpt>
      <trkpt lat="59.6289768" lon="17.7664166">
        <ele>10.7118</ele>
        <time>2014-07-08T11:17:02Z</time>
      </trkpt>
      <trkpt lat="59.6290106" lon="17.7663903">
        <ele>11.1925</ele>
        <time>2014-07-08T11:17:03Z</time>
      </trkpt>
      <trkpt lat="59.6290307" lon="17.7663385">
        <ele>11.1925</ele>
        <time>2014-07-08T11:17:04Z</time>
      </trkpt>
      <trkpt lat="59.6290405" lon="17.7662675">
        <ele>11.1925</ele>
        <time>2014-07-08T11:17:05Z</time>
      </trkpt>
      <trkpt lat="59.6290429" lon="17.766186">
        <ele>11.1925</ele>
        <time>2014-07-08T11:17:06Z</time>
      </trkpt>
      <trkpt lat="59.6290385" lon="17.7660946">
        <ele>11.1925</ele>
        <time>2014-07-08T11:17:07Z</time>
      </trkpt>
      <trkpt lat="59.6290267" lon="17.7659975">
        <ele>10.7118</ele>
        <time>2014-07-08T11:17:08Z</time>
      </trkpt>
      <trkpt lat="59.6290038" lon="17.7658897">
        <ele>10.7118</ele>
        <time>2014-07-08T11:17:09Z</time>
      </trkpt>
      <trkpt lat="59.628973" lon="17.7657873">
        <ele>11.1925</ele>
        <time>2014-07-08T11:17:10Z</time>
      </trkpt>
      <trkpt lat="59.6289388" lon="17.765706">
        <ele>11.1925</ele>
        <time>2014-07-08T11:17:11Z</time>
      </trkpt>
      <trkpt lat="59.6289105" lon="17.7656339">
        <ele>11.1925</ele>
        <time>2014-07-08T11:17:12Z</time>
      </trkpt>
      <trkpt lat="59.628896" lon="17.7655598">
        <ele>11.1925</ele>
        <time>2014-07-08T11:17:13Z</time>
      </trkpt>
      <trkpt lat="59.6288934" lon="17.7654858">
        <ele>11.1925</ele>
        <time>2014-07-08T11:17:14Z</time>
      </trkpt>
      <trkpt lat="59.6288929" lon="17.7654149">
        <ele>11.1925</ele>
        <time>2014-07-08T11:17:15Z</time>
      </trkpt>
      <trkpt lat="59.6288922" lon="17.7653398">
        <ele>10.7118</ele>
        <time>2014-07-08T11:17:16Z</time>
      </trkpt>
      <trkpt lat="59.6288945" lon="17.7652563">
        <ele>10.7118</ele>
        <time>2014-07-08T11:17:17Z</time>
      </trkpt>
      <trkpt lat="59.6289001" lon="17.765164">
        <ele>10.2312</ele>
        <time>2014-07-08T11:17:18Z</time>
      </trkpt>
      <trkpt lat="59.6289079" lon="17.7650666">
        <ele>10.2312</ele>
        <time>2014-07-08T11:17:19Z</time>
      </trkpt>
      <trkpt lat="59.6289173" lon="17.7649662">
        <ele>10.2312</ele>
        <time>2014-07-08T11:17:20Z</time>
      </trkpt>
      <trkpt lat="59.6289276" lon="17.7648659">
        <ele>9.75061</ele>
        <time>2014-07-08T11:17:21Z</time>
      </trkpt>
      <trkpt lat="59.6289383" lon="17.7647662">
        <ele>9.75061</ele>
        <time>2014-07-08T11:17:22Z</time>
      </trkpt>
      <trkpt lat="59.6289484" lon="17.7646652">
        <ele>9.2699</ele>
        <time>2014-07-08T11:17:23Z</time>
      </trkpt>
      <trkpt lat="59.6289588" lon="17.7645611">
        <ele>9.2699</ele>
        <time>2014-07-08T11:17:24Z</time>
      </trkpt>
      <trkpt lat="59.6289705" lon="17.7644529">
        <ele>9.2699</ele>
        <time>2014-07-08T11:17:25Z</time>
      </trkpt>
      <trkpt lat="59.6289825" lon="17.7643416">
        <ele>8.78918</ele>
        <time>2014-07-08T11:17:26Z</time>
      </trkpt>
      <trkpt lat="59.6289949" lon="17.7642267">
        <ele>8.78918</ele>
        <time>2014-07-08T11:17:27Z</time>
      </trkpt>
      <trkpt lat="59.6290077" lon="17.7641064">
        <ele>8.30859</ele>
        <time>2014-07-08T11:17:28Z</time>
      </trkpt>
      <trkpt lat="59.6290208" lon="17.7639824">
        <ele>8.30859</ele>
        <time>2014-07-08T11:17:29Z</time>
      </trkpt>
      <trkpt lat="59.6290338" lon="17.763854">
        <ele>8.30859</ele>
        <time>2014-07-08T11:17:30Z</time>
      </trkpt>
      <trkpt lat="59.6290469" lon="17.7637225">
        <ele>7.82788</ele>
        <time>2014-07-08T11:17:31Z</time>
      </trkpt>
      <trkpt lat="59.6290603" lon="17.763589">
        <ele>7.82788</ele>
        <time>2014-07-08T11:17:32Z</time>
      </trkpt>
      <trkpt lat="59.6290735" lon="17.7634545">
        <ele>7.34717</ele>
        <time>2014-07-08T11:17:33Z</time>
      </trkpt>
      <trkpt lat="59.6290849" lon="17.7633298">
        <ele>7.34717</ele>
        <time>2014-07-08T11:17:34Z</time>
      </trkpt>
      <trkpt lat="59.6290942" lon="17.7632237">
        <ele>7.34717</ele>
        <time>2014-07-08T11:17:35Z</time>
      </trkpt>
      <trkpt lat="59.6291023" lon="17.7631309">
        <ele>6.86646</ele>
        <time>2014-07-08T11:17:36Z</time>
      </trkpt>
      <trkpt lat="59.6291104" lon="17.7630503">
        <ele>6.86646</ele>
        <time>2014-07-08T11:17:37Z</time>
      </trkpt>
      <trkpt lat="59.6291192" lon="17.7629855">
        <ele>6.86646</ele>
        <time>2014-07-08T11:17:38Z</time>
      </trkpt>
      <trkpt lat="59.6291265" lon="17.7629352">
        <ele>6.86646</ele>
        <time>2014-07-08T11:17:39Z</time>
      </trkpt>
      <trkpt lat="59.629131" lon="17.7628927">
        <ele>6.38586</ele>
        <time>2014-07-08T11:17:40Z</time>
      </trkpt>
      <trkpt lat="59.6291348" lon="17.762859">
        <ele>6.38586</ele>
        <time>2014-07-08T11:17:41Z</time>
      </trkpt>
      <trkpt lat="59.6291364" lon="17.762844">
        <ele>6.38586</ele>
        <time>2014-07-08T11:17:42Z</time>
      </trkpt>
      <trkpt lat="59.6291362" lon="17.7628422">
        <ele>6.38586</ele>
        <time>2014-07-08T11:17:43Z</time>
      </trkpt>
      <trkpt lat="59.6291369" lon="17.7628496">
        <ele>6.38586</ele>
        <time>2014-07-08T11:17:44Z</time>
      </trkpt>
      <trkpt lat="59.6290953" lon="17.7628974">
        <ele>7.34717</ele>
        <time>2014-07-08T11:17:54Z</time>
      </trkpt>
      <trkpt lat="59.6290789" lon="17.7629154">
        <ele>7.34717</ele>
        <time>2014-07-08T11:17:55Z</time>
      </trkpt>
      <trkpt lat="59.6290595" lon="17.7629399">
        <ele>7.82788</ele>
        <time>2014-07-08T11:17:56Z</time>
      </trkpt>
      <trkpt lat="59.62904" lon="17.7629699">
        <ele>7.82788</ele>
        <time>2014-07-08T11:17:57Z</time>
      </trkpt>
      <trkpt lat="59.6290227" lon="17.763004">
        <ele>7.82788</ele>
        <time>2014-07-08T11:17:58Z</time>
      </trkpt>
      <trkpt lat="59.6290074" lon="17.7630422">
        <ele>7.82788</ele>
        <time>2014-07-08T11:17:59Z</time>
      </trkpt>
      <trkpt lat="59.6289943" lon="17.7630909">
        <ele>7.82788</ele>
        <time>2014-07-08T11:18:00Z</time>
      </trkpt>
      <trkpt lat="59.6289833" lon="17.7631507">
        <ele>7.82788</ele>
        <time>2014-07-08T11:18:01Z</time>
      </trkpt>
      <trkpt lat="59.6289746" lon="17.7632195">
        <ele>7.82788</ele>
        <time>2014-07-08T11:18:02Z</time>
      </trkpt>
      <trkpt lat="59.6289673" lon="17.7632962">
        <ele>8.30859</ele>
        <time>2014-07-08T11:18:03Z</time>
      </trkpt>
      <trkpt lat="59.6289582" lon="17.763377">
        <ele>8.30859</ele>
        <time>2014-07-08T11:18:04Z</time>
      </trkpt>
      <trkpt lat="59.6289484" lon="17.7634605">
        <ele>8.30859</ele>
        <time>2014-07-08T11:18:05Z</time>
      </trkpt>
      <trkpt lat="59.6289404" lon="17.763547">
        <ele>8.30859</ele>
        <time>2014-07-08T11:18:06Z</time>
      </trkpt>
      <trkpt lat="59.6289313" lon="17.7636345">
        <ele>8.30859</ele>
        <time>2014-07-08T11:18:07Z</time>
      </trkpt>
      <trkpt lat="59.628921" lon="17.7637215">
        <ele>8.78918</ele>
        <time>2014-07-08T11:18:08Z</time>
      </trkpt>
      <trkpt lat="59.6289124" lon="17.7638106">
        <ele>8.78918</ele>
        <time>2014-07-08T11:18:09Z</time>
      </trkpt>
      <trkpt lat="59.6289025" lon="17.7639">
        <ele>8.78918</ele>
        <time>2014-07-08T11:18:10Z</time>
      </trkpt>
      <trkpt lat="59.6288831" lon="17.7639841">
        <ele>8.78918</ele>
        <time>2014-07-08T11:18:11Z</time>
      </trkpt>
      <trkpt lat="59.6288516" lon="17.7640588">
        <ele>8.78918</ele>
        <time>2014-07-08T11:18:12Z</time>
      </trkpt>
      <trkpt lat="59.6288105" lon="17.7641115">
        <ele>8.78918</ele>
        <time>2014-07-08T11:18:13Z</time>
      </trkpt>
      <trkpt lat="59.6287639" lon="17.7641395">
        <ele>8.78918</ele>
        <time>2014-07-08T11:18:14Z</time>
      </trkpt>
      <trkpt lat="59.6287148" lon="17.7641494">
        <ele>8.78918</ele>
        <time>2014-07-08T11:18:15Z</time>
      </trkpt>
      <trkpt lat="59.6286645" lon="17.7641472">
        <ele>8.78918</ele>
        <time>2014-07-08T11:18:16Z</time>
      </trkpt>
      <trkpt lat="59.6286132" lon="17.7641369">
        <ele>8.78918</ele>
        <time>2014-07-08T11:18:17Z</time>
      </trkpt>
      <trkpt lat="59.6285622" lon="17.7641188">
        <ele>8.78918</ele>
        <time>2014-07-08T11:18:18Z</time>
      </trkpt>
      <trkpt lat="59.6285114" lon="17.7641079">
        <ele>8.78918</ele>
        <time>2014-07-08T11:18:19Z</time>
      </trkpt>
      <trkpt lat="59.6284618" lon="17.7641214">
        <ele>8.78918</ele>
        <time>2014-07-08T11:18:20Z</time>
      </trkpt>
      <trkpt lat="59.6284164" lon="17.7641613">
        <ele>8.78918</ele>
        <time>2014-07-08T11:18:21Z</time>
      </trkpt>
      <trkpt lat="59.6283785" lon="17.7642236">
        <ele>8.78918</ele>
        <time>2014-07-08T11:18:22Z</time>
      </trkpt>
      <trkpt lat="59.6283489" lon="17.7643036">
        <ele>8.78918</ele>
        <time>2014-07-08T11:18:23Z</time>
      </trkpt>
      <trkpt lat="59.6283293" lon="17.7643904">
        <ele>9.2699</ele>
        <time>2014-07-08T11:18:24Z</time>
      </trkpt>
      <trkpt lat="59.6283169" lon="17.7644788">
        <ele>9.2699</ele>
        <time>2014-07-08T11:18:25Z</time>
      </trkpt>
      <trkpt lat="59.6283117" lon="17.7645625">
        <ele>9.2699</ele>
        <time>2014-07-08T11:18:26Z</time>
      </trkpt>
      <trkpt lat="59.6283164" lon="17.764642">
        <ele>9.75061</ele>
        <time>2014-07-08T11:18:27Z</time>
      </trkpt>
      <trkpt lat="59.628325" lon="17.7647166">
        <ele>9.75061</ele>
        <time>2014-07-08T11:18:28Z</time>
      </trkpt>
      <trkpt lat="59.6283325" lon="17.7647871">
        <ele>9.2699</ele>
        <time>2014-07-08T11:18:29Z</time>
      </trkpt>
      <trkpt lat="59.628339" lon="17.7648559">
        <ele>9.75061</ele>
        <time>2014-07-08T11:18:30Z</time>
      </trkpt>
      <trkpt lat="59.6283455" lon="17.7649226">
        <ele>9.75061</ele>
        <time>2014-07-08T11:18:31Z</time>
      </trkpt>
      <trkpt lat="59.62835" lon="17.7649875">
        <ele>9.75061</ele>
        <time>2014-07-08T11:18:32Z</time>
      </trkpt>
      <trkpt lat="59.6283542" lon="17.7650506">
        <ele>9.2699</ele>
        <time>2014-07-08T11:18:33Z</time>
      </trkpt>
      <trkpt lat="59.6283587" lon="17.7651139">
        <ele>9.75061</ele>
        <time>2014-07-08T11:18:34Z</time>
      </trkpt>
      <trkpt lat="59.6283635" lon="17.7651785">
        <ele>9.75061</ele>
        <time>2014-07-08T11:18:35Z</time>
      </trkpt>
      <trkpt lat="59.6283659" lon="17.7652466">
        <ele>9.2699</ele>
        <time>2014-07-08T11:18:36Z</time>
      </trkpt>
      <trkpt lat="59.628368" lon="17.7653197">
        <ele>9.2699</ele>
        <time>2014-07-08T11:18:37Z</time>
      </trkpt>
      <trkpt lat="59.6283705" lon="17.7653992">
        <ele>9.75061</ele>
        <time>2014-07-08T11:18:38Z</time>
      </trkpt>
      <trkpt lat="59.6283671" lon="17.7654846">
        <ele>9.2699</ele>
        <time>2014-07-08T11:18:39Z</time>
      </trkpt>
      <trkpt lat="59.6283576" lon="17.7655744">
        <ele>9.2699</ele>
        <time>2014-07-08T11:18:40Z</time>
      </trkpt>
      <trkpt lat="59.6283415" lon="17.7656633">
        <ele>9.2699</ele>
        <time>2014-07-08T11:18:41Z</time>
      </trkpt>
      <trkpt lat="59.6283245" lon="17.7657501">
        <ele>9.75061</ele>
        <time>2014-07-08T11:18:42Z</time>
      </trkpt>
      <trkpt lat="59.6283084" lon="17.7658354">
        <ele>9.75061</ele>
        <time>2014-07-08T11:18:43Z</time>
      </trkpt>
      <trkpt lat="59.6282954" lon="17.7659195">
        <ele>10.2312</ele>
        <time>2014-07-08T11:18:44Z</time>
      </trkpt>
      <trkpt lat="59.6282904" lon="17.7660045">
        <ele>10.2312</ele>
        <time>2014-07-08T11:18:45Z</time>
      </trkpt>
      <trkpt lat="59.6282962" lon="17.7660898">
        <ele>10.7118</ele>
        <time>2014-07-08T11:18:46Z</time>
      </trkpt>
      <trkpt lat="59.6283091" lon="17.766173">
        <ele>10.7118</ele>
        <time>2014-07-08T11:18:47Z</time>
      </trkpt>
      <trkpt lat="59.6283273" lon="17.7662538">
        <ele>11.1925</ele>
        <time>2014-07-08T11:18:48Z</time>
      </trkpt>
      <trkpt lat="59.628348" lon="17.7663323">
        <ele>11.1925</ele>
        <time>2014-07-08T11:18:49Z</time>
      </trkpt>
      <trkpt lat="59.6283702" lon="17.7664096">
        <ele>11.1925</ele>
        <time>2014-07-08T11:18:50Z</time>
      </trkpt>
      <trkpt lat="59.6283899" lon="17.7664899">
        <ele>11.1925</ele>
        <time>2014-07-08T11:18:51Z</time>
      </trkpt>
      <trkpt lat="59.6284044" lon="17.7665742">
        <ele>11.1925</ele>
        <time>2014-07-08T11:18:52Z</time>
      </trkpt>
      <trkpt lat="59.6284096" lon="17.7666617">
        <ele>11.1925</ele>
        <time>2014-07-08T11:18:53Z</time>
      </trkpt>
      <trkpt lat="59.6284068" lon="17.7667493">
        <ele>11.6732</ele>
        <time>2014-07-08T11:18:54Z</time>
      </trkpt>
      <trkpt lat="59.6284111" lon="17.7668343">
        <ele>13.1151</ele>
        <time>2014-07-08T11:18:55Z</time>
      </trkpt>
      <trkpt lat="59.6284007" lon="17.7669177">
        <ele>13.1151</ele>
        <time>2014-07-08T11:18:56Z</time>
      </trkpt>
      <trkpt lat="59.6283893" lon="17.7670005">
        <ele>13.1151</ele>
        <time>2014-07-08T11:18:57Z</time>
      </trkpt>
      <trkpt lat="59.6283807" lon="17.7670844">
        <ele>13.5958</ele>
        <time>2014-07-08T11:18:58Z</time>
      </trkpt>
      <trkpt lat="59.6283697" lon="17.7671658">
        <ele>14.0764</ele>
        <time>2014-07-08T11:18:59Z</time>
      </trkpt>
      <trkpt lat="59.6283577" lon="17.7672458">
        <ele>14.0764</ele>
        <time>2014-07-08T11:19:00Z</time>
      </trkpt>
      <trkpt lat="59.6283465" lon="17.7673253">
        <ele>14.557</ele>
        <time>2014-07-08T11:19:01Z</time>
      </trkpt>
      <trkpt lat="59.6283345" lon="17.767405">
        <ele>14.557</ele>
        <time>2014-07-08T11:19:02Z</time>
      </trkpt>
      <trkpt lat="59.6283257" lon="17.7674853">
        <ele>15.5184</ele>
        <time>2014-07-08T11:19:03Z</time>
      </trkpt>
      <trkpt lat="59.6283222" lon="17.7675657">
        <ele>16.4797</ele>
        <time>2014-07-08T11:19:04Z</time>
      </trkpt>
      <trkpt lat="59.6283106" lon="17.7676459">
        <ele>16.9604</ele>
        <time>2014-07-08T11:19:05Z</time>
      </trkpt>
      <trkpt lat="59.6282987" lon="17.7677276">
        <ele>16.9604</ele>
        <time>2014-07-08T11:19:06Z</time>
      </trkpt>
      <trkpt lat="59.6282899" lon="17.7678097">
        <ele>17.9218</ele>
        <time>2014-07-08T11:19:07Z</time>
      </trkpt>
      <trkpt lat="59.628278" lon="17.7678913">
        <ele>18.4023</ele>
        <time>2014-07-08T11:19:08Z</time>
      </trkpt>
      <trkpt lat="59.6282661" lon="17.7679733">
        <ele>18.8831</ele>
        <time>2014-07-08T11:19:09Z</time>
      </trkpt>
      <trkpt lat="59.6282537" lon="17.7680552">
        <ele>18.8831</ele>
        <time>2014-07-08T11:19:10Z</time>
      </trkpt>
      <trkpt lat="59.6282403" lon="17.7681365">
        <ele>18.8831</ele>
        <time>2014-07-08T11:19:11Z</time>
      </trkpt>
      <trkpt lat="59.6282267" lon="17.7682173">
        <ele>19.3638</ele>
        <time>2014-07-08T11:19:12Z</time>
      </trkpt>
      <trkpt lat="59.6282143" lon="17.7682976">
        <ele>19.3638</ele>
        <time>2014-07-08T11:19:13Z</time>
      </trkpt>
      <trkpt lat="59.628202" lon="17.7683789">
        <ele>19.3638</ele>
        <time>2014-07-08T11:19:14Z</time>
      </trkpt>
      <trkpt lat="59.6281885" lon="17.7684607">
        <ele>19.3638</ele>
        <time>2014-07-08T11:19:15Z</time>
      </trkpt>
      <trkpt lat="59.6281748" lon="17.7685424">
        <ele>19.3638</ele>
        <time>2014-07-08T11:19:16Z</time>
      </trkpt>
      <trkpt lat="59.6281604" lon="17.7686238">
        <ele>19.8444</ele>
        <time>2014-07-08T11:19:17Z</time>
      </trkpt>
      <trkpt lat="59.6281517" lon="17.7687057">
        <ele>20.8057</ele>
        <time>2014-07-08T11:19:18Z</time>
      </trkpt>
      <trkpt lat="59.6281395" lon="17.7687861">
        <ele>21.2864</ele>
        <time>2014-07-08T11:19:19Z</time>
      </trkpt>
      <trkpt lat="59.6281268" lon="17.7688654">
        <ele>21.2864</ele>
        <time>2014-07-08T11:19:20Z</time>
      </trkpt>
      <trkpt lat="59.6281159" lon="17.7689441">
        <ele>21.2864</ele>
        <time>2014-07-08T11:19:21Z</time>
      </trkpt>
      <trkpt lat="59.6281035" lon="17.7690211">
        <ele>21.2864</ele>
        <time>2014-07-08T11:19:22Z</time>
      </trkpt>
      <trkpt lat="59.6280913" lon="17.7690969">
        <ele>21.767</ele>
        <time>2014-07-08T11:19:23Z</time>
      </trkpt>
      <trkpt lat="59.628077" lon="17.7691725">
        <ele>21.767</ele>
        <time>2014-07-08T11:19:24Z</time>
      </trkpt>
      <trkpt lat="59.6280623" lon="17.7692485">
        <ele>21.2864</ele>
        <time>2014-07-08T11:19:25Z</time>
      </trkpt>
      <trkpt lat="59.6280485" lon="17.7693244">
        <ele>21.2864</ele>
        <time>2014-07-08T11:19:26Z</time>
      </trkpt>
      <trkpt lat="59.6280378" lon="17.7694002">
        <ele>21.767</ele>
        <time>2014-07-08T11:19:27Z</time>
      </trkpt>
      <trkpt lat="59.6280293" lon="17.7694739">
        <ele>22.2476</ele>
        <time>2014-07-08T11:19:28Z</time>
      </trkpt>
      <trkpt lat="59.6280171" lon="17.7695456">
        <ele>22.2476</ele>
        <time>2014-07-08T11:19:29Z</time>
      </trkpt>
      <trkpt lat="59.6280074" lon="17.769618">
        <ele>22.7283</ele>
        <time>2014-07-08T11:19:30Z</time>
      </trkpt>
      <trkpt lat="59.6279941" lon="17.7696921">
        <ele>22.7283</ele>
        <time>2014-07-08T11:19:31Z</time>
      </trkpt>
      <trkpt lat="59.6279802" lon="17.7697676">
        <ele>22.7283</ele>
        <time>2014-07-08T11:19:32Z</time>
      </trkpt>
      <trkpt lat="59.6279676" lon="17.7698428">
        <ele>22.2476</ele>
        <time>2014-07-08T11:19:33Z</time>
      </trkpt>
      <trkpt lat="59.6279537" lon="17.7699177">
        <ele>22.2476</ele>
        <time>2014-07-08T11:19:34Z</time>
      </trkpt>
      <trkpt lat="59.6279361" lon="17.7699916">
        <ele>22.2476</ele>
        <time>2014-07-08T11:19:35Z</time>
      </trkpt>
      <trkpt lat="59.6279168" lon="17.7700652">
        <ele>22.2476</ele>
        <time>2014-07-08T11:19:36Z</time>
      </trkpt>
      <trkpt lat="59.6278978" lon="17.7701403">
        <ele>22.7283</ele>
        <time>2014-07-08T11:19:37Z</time>
      </trkpt>
      <trkpt lat="59.6278791" lon="17.7702163">
        <ele>22.7283</ele>
        <time>2014-07-08T11:19:38Z</time>
      </trkpt>
      <trkpt lat="59.6278558" lon="17.7702909">
        <ele>22.7283</ele>
        <time>2014-07-08T11:19:39Z</time>
      </trkpt>
      <trkpt lat="59.6278341" lon="17.7703668">
        <ele>22.7283</ele>
        <time>2014-07-08T11:19:40Z</time>
      </trkpt>
      <trkpt lat="59.6278144" lon="17.7704438">
        <ele>23.209</ele>
        <time>2014-07-08T11:19:41Z</time>
      </trkpt>
      <trkpt lat="59.6277926" lon="17.7705209">
        <ele>23.209</ele>
        <time>2014-07-08T11:19:42Z</time>
      </trkpt>
      <trkpt lat="59.6277707" lon="17.7705981">
        <ele>23.209</ele>
        <time>2014-07-08T11:19:43Z</time>
      </trkpt>
      <trkpt lat="59.6277476" lon="17.7706763">
        <ele>23.6896</ele>
        <time>2014-07-08T11:19:44Z</time>
      </trkpt>
      <trkpt lat="59.6277223" lon="17.7707545">
        <ele>23.209</ele>
        <time>2014-07-08T11:19:45Z</time>
      </trkpt>
      <trkpt lat="59.6276967" lon="17.7708339">
        <ele>23.209</ele>
        <time>2014-07-08T11:19:46Z</time>
      </trkpt>
      <trkpt lat="59.6276743" lon="17.7709151">
        <ele>23.209</ele>
        <time>2014-07-08T11:19:47Z</time>
      </trkpt>
      <trkpt lat="59.6276553" lon="17.770997">
        <ele>23.209</ele>
        <time>2014-07-08T11:19:48Z</time>
      </trkpt>
      <trkpt lat="59.627635" lon="17.7710819">
        <ele>23.209</ele>
        <time>2014-07-08T11:19:49Z</time>
      </trkpt>
      <trkpt lat="59.6276151" lon="17.7711668">
        <ele>23.6896</ele>
        <time>2014-07-08T11:19:50Z</time>
      </trkpt>
      <trkpt lat="59.6275959" lon="17.7712503">
        <ele>23.6896</ele>
        <time>2014-07-08T11:19:51Z</time>
      </trkpt>
      <trkpt lat="59.6275787" lon="17.7713347">
        <ele>23.6896</ele>
        <time>2014-07-08T11:19:52Z</time>
      </trkpt>
      <trkpt lat="59.6275646" lon="17.7714189">
        <ele>23.6896</ele>
        <time>2014-07-08T11:19:53Z</time>
      </trkpt>
      <trkpt lat="59.6275523" lon="17.7715034">
        <ele>23.6896</ele>
        <time>2014-07-08T11:19:54Z</time>
      </trkpt>
      <trkpt lat="59.6275399" lon="17.7715875">
        <ele>23.6896</ele>
        <time>2014-07-08T11:19:55Z</time>
      </trkpt>
      <trkpt lat="59.6275257" lon="17.7716724">
        <ele>23.6896</ele>
        <time>2014-07-08T11:19:56Z</time>
      </trkpt>
      <trkpt lat="59.6275139" lon="17.7717558">
        <ele>23.6896</ele>
        <time>2014-07-08T11:19:57Z</time>
      </trkpt>
      <trkpt lat="59.6275041" lon="17.7718408">
        <ele>23.6896</ele>
        <time>2014-07-08T11:19:58Z</time>
      </trkpt>
      <trkpt lat="59.6274968" lon="17.7719267">
        <ele>23.209</ele>
        <time>2014-07-08T11:19:59Z</time>
      </trkpt>
      <trkpt lat="59.6274901" lon="17.7720138">
        <ele>23.6896</ele>
        <time>2014-07-08T11:20:00Z</time>
      </trkpt>
      <trkpt lat="59.6274855" lon="17.7721003">
        <ele>23.6896</ele>
        <time>2014-07-08T11:20:01Z</time>
      </trkpt>
      <trkpt lat="59.6274797" lon="17.7721866">
        <ele>23.6896</ele>
        <time>2014-07-08T11:20:02Z</time>
      </trkpt>
      <trkpt lat="59.6274725" lon="17.7722728">
        <ele>24.1703</ele>
        <time>2014-07-08T11:20:03Z</time>
      </trkpt>
      <trkpt lat="59.6274668" lon="17.7723592">
        <ele>24.1703</ele>
        <time>2014-07-08T11:20:04Z</time>
      </trkpt>
      <trkpt lat="59.6274627" lon="17.7724457">
        <ele>24.1703</ele>
        <time>2014-07-08T11:20:05Z</time>
      </trkpt>
      <trkpt lat="59.6274622" lon="17.7725303">
        <ele>24.1703</ele>
        <time>2014-07-08T11:20:06Z</time>
      </trkpt>
      <trkpt lat="59.627463" lon="17.7726168">
        <ele>24.1703</ele>
        <time>2014-07-08T11:20:07Z</time>
      </trkpt>
      <trkpt lat="59.6274647" lon="17.7727036">
        <ele>24.651</ele>
        <time>2014-07-08T11:20:08Z</time>
      </trkpt>
      <trkpt lat="59.6274666" lon="17.7727908">
        <ele>24.651</ele>
        <time>2014-07-08T11:20:09Z</time>
      </trkpt>
      <trkpt lat="59.6274685" lon="17.7728782">
        <ele>24.651</ele>
        <time>2014-07-08T11:20:10Z</time>
      </trkpt>
      <trkpt lat="59.627471" lon="17.7729642">
        <ele>24.651</ele>
        <time>2014-07-08T11:20:11Z</time>
      </trkpt>
      <trkpt lat="59.6274741" lon="17.7730493">
        <ele>24.651</ele>
        <time>2014-07-08T11:20:12Z</time>
      </trkpt>
      <trkpt lat="59.6274765" lon="17.7731364">
        <ele>24.651</ele>
        <time>2014-07-08T11:20:13Z</time>
      </trkpt>
      <trkpt lat="59.6274764" lon="17.7732264">
        <ele>24.651</ele>
        <time>2014-07-08T11:20:14Z</time>
      </trkpt>
      <trkpt lat="59.6274735" lon="17.7733197">
        <ele>24.651</ele>
        <time>2014-07-08T11:20:15Z</time>
      </trkpt>
      <trkpt lat="59.627469" lon="17.7734166">
        <ele>24.651</ele>
        <time>2014-07-08T11:20:16Z</time>
      </trkpt>
      <trkpt lat="59.6274642" lon="17.7735167">
        <ele>24.651</ele>
        <time>2014-07-08T11:20:17Z</time>
      </trkpt>
      <trkpt lat="59.6274538" lon="17.7736191">
        <ele>24.651</ele>
        <time>2014-07-08T11:20:18Z</time>
      </trkpt>
      <trkpt lat="59.6274372" lon="17.7737196">
        <ele>24.651</ele>
        <time>2014-07-08T11:20:19Z</time>
      </trkpt>
      <trkpt lat="59.6274135" lon="17.7738143">
        <ele>24.651</ele>
        <time>2014-07-08T11:20:20Z</time>
      </trkpt>
      <trkpt lat="59.6273838" lon="17.7739002">
        <ele>24.1703</ele>
        <time>2014-07-08T11:20:21Z</time>
      </trkpt>
      <trkpt lat="59.6273498" lon="17.7739758">
        <ele>24.1703</ele>
        <time>2014-07-08T11:20:22Z</time>
      </trkpt>
      <trkpt lat="59.6273136" lon="17.7740411">
        <ele>24.1703</ele>
        <time>2014-07-08T11:20:23Z</time>
      </trkpt>
      <trkpt lat="59.6272792" lon="17.7741004">
        <ele>24.1703</ele>
        <time>2014-07-08T11:20:24Z</time>
      </trkpt>
      <trkpt lat="59.6272451" lon="17.7741561">
        <ele>24.1703</ele>
        <time>2014-07-08T11:20:25Z</time>
      </trkpt>
      <trkpt lat="59.6272145" lon="17.7742141">
        <ele>24.1703</ele>
        <time>2014-07-08T11:20:26Z</time>
      </trkpt>
      <trkpt lat="59.6271924" lon="17.7742852">
        <ele>24.1703</ele>
        <time>2014-07-08T11:20:27Z</time>
      </trkpt>
      <trkpt lat="59.6271805" lon="17.7743651">
        <ele>24.1703</ele>
        <time>2014-07-08T11:20:28Z</time>
      </trkpt>
      <trkpt lat="59.6271768" lon="17.7744475">
        <ele>24.1703</ele>
        <time>2014-07-08T11:20:29Z</time>
      </trkpt>
      <trkpt lat="59.627175" lon="17.7745299">
        <ele>24.1703</ele>
        <time>2014-07-08T11:20:30Z</time>
      </trkpt>
      <trkpt lat="59.6271736" lon="17.7746137">
        <ele>24.1703</ele>
        <time>2014-07-08T11:20:31Z</time>
      </trkpt>
      <trkpt lat="59.6271747" lon="17.7747006">
        <ele>24.1703</ele>
        <time>2014-07-08T11:20:32Z</time>
      </trkpt>
      <trkpt lat="59.6271778" lon="17.7747899">
        <ele>24.651</ele>
        <time>2014-07-08T11:20:33Z</time>
      </trkpt>
      <trkpt lat="59.6271813" lon="17.7748806">
        <ele>24.651</ele>
        <time>2014-07-08T11:20:34Z</time>
      </trkpt>
      <trkpt lat="59.6271833" lon="17.7749728">
        <ele>24.651</ele>
        <time>2014-07-08T11:20:35Z</time>
      </trkpt>
      <trkpt lat="59.6271835" lon="17.7750678">
        <ele>24.651</ele>
        <time>2014-07-08T11:20:36Z</time>
      </trkpt>
      <trkpt lat="59.627183" lon="17.775165">
        <ele>24.651</ele>
        <time>2014-07-08T11:20:37Z</time>
      </trkpt>
      <trkpt lat="59.627183" lon="17.7752648">
        <ele>24.651</ele>
        <time>2014-07-08T11:20:38Z</time>
      </trkpt>
      <trkpt lat="59.6271843" lon="17.7753679">
        <ele>24.651</ele>
        <time>2014-07-08T11:20:39Z</time>
      </trkpt>
      <trkpt lat="59.6271845" lon="17.775474">
        <ele>24.1703</ele>
        <time>2014-07-08T11:20:40Z</time>
      </trkpt>
      <trkpt lat="59.6271834" lon="17.7755825">
        <ele>24.1703</ele>
        <time>2014-07-08T11:20:41Z</time>
      </trkpt>
      <trkpt lat="59.6271819" lon="17.7756927">
        <ele>24.1703</ele>
        <time>2014-07-08T11:20:42Z</time>
      </trkpt>
      <trkpt lat="59.6271813" lon="17.7758049">
        <ele>24.1703</ele>
        <time>2014-07-08T11:20:43Z</time>
      </trkpt>
      <trkpt lat="59.6271809" lon="17.7759199">
        <ele>24.1703</ele>
        <time>2014-07-08T11:20:44Z</time>
      </trkpt>
      <trkpt lat="59.6271808" lon="17.7760378">
        <ele>24.1703</ele>
        <time>2014-07-08T11:20:45Z</time>
      </trkpt>
      <trkpt lat="59.6271809" lon="17.776158">
        <ele>24.1703</ele>
        <time>2014-07-08T11:20:46Z</time>
      </trkpt>
      <trkpt lat="59.6271796" lon="17.7762802">
        <ele>24.1703</ele>
        <time>2014-07-08T11:20:47Z</time>
      </trkpt>
      <trkpt lat="59.6271763" lon="17.7764053">
        <ele>23.6896</ele>
        <time>2014-07-08T11:20:48Z</time>
      </trkpt>
      <trkpt lat="59.6271716" lon="17.7765319">
        <ele>23.6896</ele>
        <time>2014-07-08T11:20:49Z</time>
      </trkpt>
      <trkpt lat="59.6271669" lon="17.7766586">
        <ele>23.6896</ele>
        <time>2014-07-08T11:20:50Z</time>
      </trkpt>
      <trkpt lat="59.6271618" lon="17.7767838">
        <ele>23.6896</ele>
        <time>2014-07-08T11:20:51Z</time>
      </trkpt>
      <trkpt lat="59.6271565" lon="17.7769086">
        <ele>23.6896</ele>
        <time>2014-07-08T11:20:52Z</time>
      </trkpt>
      <trkpt lat="59.6271499" lon="17.7770328">
        <ele>23.6896</ele>
        <time>2014-07-08T11:20:53Z</time>
      </trkpt>
      <trkpt lat="59.6271409" lon="17.7771556">
        <ele>23.6896</ele>
        <time>2014-07-08T11:20:54Z</time>
      </trkpt>
      <trkpt lat="59.6271301" lon="17.7772773">
        <ele>23.6896</ele>
        <time>2014-07-08T11:20:55Z</time>
      </trkpt>
      <trkpt lat="59.6271192" lon="17.7773981">
        <ele>23.6896</ele>
        <time>2014-07-08T11:20:56Z</time>
      </trkpt>
      <trkpt lat="59.6271058" lon="17.7775181">
        <ele>23.6896</ele>
        <time>2014-07-08T11:20:57Z</time>
      </trkpt>
      <trkpt lat="59.6270917" lon="17.7776363">
        <ele>24.1703</ele>
        <time>2014-07-08T11:20:58Z</time>
      </trkpt>
      <trkpt lat="59.6270776" lon="17.7777535">
        <ele>24.1703</ele>
        <time>2014-07-08T11:20:59Z</time>
      </trkpt>
      <trkpt lat="59.6270617" lon="17.7778692">
        <ele>24.1703</ele>
        <time>2014-07-08T11:21:00Z</time>
      </trkpt>
      <trkpt lat="59.6270421" lon="17.7779826">
        <ele>24.1703</ele>
        <time>2014-07-08T11:21:01Z</time>
      </trkpt>
      <trkpt lat="59.6270178" lon="17.7780917">
        <ele>24.1703</ele>
        <time>2014-07-08T11:21:02Z</time>
      </trkpt>
      <trkpt lat="59.6269897" lon="17.7781969">
        <ele>24.1703</ele>
        <time>2014-07-08T11:21:03Z</time>
      </trkpt>
      <trkpt lat="59.6269615" lon="17.7783023">
        <ele>24.1703</ele>
        <time>2014-07-08T11:21:04Z</time>
      </trkpt>
      <trkpt lat="59.6269363" lon="17.7784085">
        <ele>24.1703</ele>
        <time>2014-07-08T11:21:05Z</time>
      </trkpt>
      <trkpt lat="59.6269155" lon="17.7785159">
        <ele>24.1703</ele>
        <time>2014-07-08T11:21:06Z</time>
      </trkpt>
      <trkpt lat="59.6268975" lon="17.7786255">
        <ele>24.1703</ele>
        <time>2014-07-08T11:21:07Z</time>
      </trkpt>
      <trkpt lat="59.6268813" lon="17.7787346">
        <ele>24.1703</ele>
        <time>2014-07-08T11:21:08Z</time>
      </trkpt>
      <trkpt lat="59.6268654" lon="17.7788411">
        <ele>24.1703</ele>
        <time>2014-07-08T11:21:09Z</time>
      </trkpt>
      <trkpt lat="59.626851" lon="17.7789443">
        <ele>24.1703</ele>
        <time>2014-07-08T11:21:10Z</time>
      </trkpt>
      <trkpt lat="59.6268381" lon="17.7790453">
        <ele>24.1703</ele>
        <time>2014-07-08T11:21:11Z</time>
      </trkpt>
      <trkpt lat="59.6268276" lon="17.7791442">
        <ele>24.1703</ele>
        <time>2014-07-08T11:21:12Z</time>
      </trkpt>
      <trkpt lat="59.6268199" lon="17.7792409">
        <ele>24.1703</ele>
        <time>2014-07-08T11:21:13Z</time>
      </trkpt>
      <trkpt lat="59.6268179" lon="17.7793359">
        <ele>24.1703</ele>
        <time>2014-07-08T11:21:14Z</time>
      </trkpt>
      <trkpt lat="59.6268255" lon="17.7794277">
        <ele>24.1703</ele>
        <time>2014-07-08T11:21:15Z</time>
      </trkpt>
      <trkpt lat="59.626841" lon="17.7795105">
        <ele>24.1703</ele>
        <time>2014-07-08T11:21:16Z</time>
      </trkpt>
      <trkpt lat="59.6268545" lon="17.7795944">
        <ele>23.6896</ele>
        <time>2014-07-08T11:21:17Z</time>
      </trkpt>
      <trkpt lat="59.626858" lon="17.7796902">
        <ele>23.6896</ele>
        <time>2014-07-08T11:21:18Z</time>
      </trkpt>
      <trkpt lat="59.6268525" lon="17.7797926">
        <ele>23.6896</ele>
        <time>2014-07-08T11:21:19Z</time>
      </trkpt>
      <trkpt lat="59.6268446" lon="17.7798989">
        <ele>23.6896</ele>
        <time>2014-07-08T11:21:20Z</time>
      </trkpt>
      <trkpt lat="59.6268364" lon="17.7800076">
        <ele>23.6896</ele>
        <time>2014-07-08T11:21:21Z</time>
      </trkpt>
      <trkpt lat="59.62683" lon="17.7801173">
        <ele>23.6896</ele>
        <time>2014-07-08T11:21:22Z</time>
      </trkpt>
      <trkpt lat="59.6268291" lon="17.7802287">
        <ele>23.6896</ele>
        <time>2014-07-08T11:21:23Z</time>
      </trkpt>
      <trkpt lat="59.6268338" lon="17.7803414">
        <ele>23.6896</ele>
        <time>2014-07-08T11:21:24Z</time>
      </trkpt>
      <trkpt lat="59.6268404" lon="17.7804548">
        <ele>23.6896</ele>
        <time>2014-07-08T11:21:25Z</time>
      </trkpt>
      <trkpt lat="59.6268442" lon="17.7805683">
        <ele>23.6896</ele>
        <time>2014-07-08T11:21:26Z</time>
      </trkpt>
      <trkpt lat="59.6268451" lon="17.7806816">
        <ele>23.6896</ele>
        <time>2014-07-08T11:21:27Z</time>
      </trkpt>
      <trkpt lat="59.626846" lon="17.7807936">
        <ele>23.6896</ele>
        <time>2014-07-08T11:21:28Z</time>
      </trkpt>
      <trkpt lat="59.6268468" lon="17.7809044">
        <ele>23.6896</ele>
        <time>2014-07-08T11:21:29Z</time>
      </trkpt>
      <trkpt lat="59.6268462" lon="17.7810151">
        <ele>23.6896</ele>
        <time>2014-07-08T11:21:30Z</time>
      </trkpt>
      <trkpt lat="59.6268456" lon="17.7811251">
        <ele>24.1703</ele>
        <time>2014-07-08T11:21:31Z</time>
      </trkpt>
      <trkpt lat="59.626845" lon="17.7812349">
        <ele>24.1703</ele>
        <time>2014-07-08T11:21:32Z</time>
      </trkpt>
      <trkpt lat="59.6268434" lon="17.781344">
        <ele>24.1703</ele>
        <time>2014-07-08T11:21:33Z</time>
      </trkpt>
      <trkpt lat="59.6268403" lon="17.7814525">
        <ele>24.1703</ele>
        <time>2014-07-08T11:21:34Z</time>
      </trkpt>
      <trkpt lat="59.6268343" lon="17.78156">
        <ele>24.1703</ele>
        <time>2014-07-08T11:21:35Z</time>
      </trkpt>
      <trkpt lat="59.626826" lon="17.7816665">
        <ele>24.1703</ele>
        <time>2014-07-08T11:21:36Z</time>
      </trkpt>
      <trkpt lat="59.6268167" lon="17.7817739">
        <ele>24.1703</ele>
        <time>2014-07-08T11:21:37Z</time>
      </trkpt>
      <trkpt lat="59.6268074" lon="17.7818817">
        <ele>24.1703</ele>
        <time>2014-07-08T11:21:38Z</time>
      </trkpt>
      <trkpt lat="59.6267971" lon="17.7819881">
        <ele>24.1703</ele>
        <time>2014-07-08T11:21:39Z</time>
      </trkpt>
      <trkpt lat="59.6267878" lon="17.7820933">
        <ele>24.651</ele>
        <time>2014-07-08T11:21:40Z</time>
      </trkpt>
      <trkpt lat="59.6267793" lon="17.7821963">
        <ele>24.651</ele>
        <time>2014-07-08T11:21:41Z</time>
      </trkpt>
      <trkpt lat="59.6267695" lon="17.7822949">
        <ele>25.1317</ele>
        <time>2014-07-08T11:21:42Z</time>
      </trkpt>
      <trkpt lat="59.626758" lon="17.7823894">
        <ele>25.1317</ele>
        <time>2014-07-08T11:21:43Z</time>
      </trkpt>
      <trkpt lat="59.6267459" lon="17.782481">
        <ele>25.6123</ele>
        <time>2014-07-08T11:21:44Z</time>
      </trkpt>
      <trkpt lat="59.6267348" lon="17.7825709">
        <ele>25.6123</ele>
        <time>2014-07-08T11:21:45Z</time>
      </trkpt>
      <trkpt lat="59.6267245" lon="17.7826599">
        <ele>26.0929</ele>
        <time>2014-07-08T11:21:46Z</time>
      </trkpt>
      <trkpt lat="59.6267142" lon="17.7827489">
        <ele>26.0929</ele>
        <time>2014-07-08T11:21:47Z</time>
      </trkpt>
      <trkpt lat="59.6267034" lon="17.7828385">
        <ele>26.5736</ele>
        <time>2014-07-08T11:21:48Z</time>
      </trkpt>
      <trkpt lat="59.6266932" lon="17.7829286">
        <ele>26.5736</ele>
        <time>2014-07-08T11:21:49Z</time>
      </trkpt>
      <trkpt lat="59.6266831" lon="17.7830194">
        <ele>26.5736</ele>
        <time>2014-07-08T11:21:50Z</time>
      </trkpt>
      <trkpt lat="59.6266716" lon="17.78311">
        <ele>26.5736</ele>
        <time>2014-07-08T11:21:51Z</time>
      </trkpt>
      <trkpt lat="59.626659" lon="17.7832014">
        <ele>27.0543</ele>
        <time>2014-07-08T11:21:52Z</time>
      </trkpt>
      <trkpt lat="59.6266461" lon="17.7832945">
        <ele>27.0543</ele>
        <time>2014-07-08T11:21:53Z</time>
      </trkpt>
      <trkpt lat="59.6266333" lon="17.7833894">
        <ele>27.0543</ele>
        <time>2014-07-08T11:21:54Z</time>
      </trkpt>
      <trkpt lat="59.6266204" lon="17.7834875">
        <ele>27.0543</ele>
        <time>2014-07-08T11:21:55Z</time>
      </trkpt>
      <trkpt lat="59.6266074" lon="17.7835885">
        <ele>27.0543</ele>
        <time>2014-07-08T11:21:56Z</time>
      </trkpt>
      <trkpt lat="59.6265955" lon="17.7836896">
        <ele>27.0543</ele>
        <time>2014-07-08T11:21:57Z</time>
      </trkpt>
      <trkpt lat="59.6265829" lon="17.7837898">
        <ele>27.0543</ele>
        <time>2014-07-08T11:21:58Z</time>
      </trkpt>
      <trkpt lat="59.6265697" lon="17.7838895">
        <ele>27.5349</ele>
        <time>2014-07-08T11:21:59Z</time>
      </trkpt>
      <trkpt lat="59.6265565" lon="17.7839891">
        <ele>27.5349</ele>
        <time>2014-07-08T11:22:00Z</time>
      </trkpt>
      <trkpt lat="59.6265428" lon="17.7840891">
        <ele>27.5349</ele>
        <time>2014-07-08T11:22:01Z</time>
      </trkpt>
      <trkpt lat="59.6265303" lon="17.7841901">
        <ele>27.5349</ele>
        <time>2014-07-08T11:22:02Z</time>
      </trkpt>
      <trkpt lat="59.6265178" lon="17.7842921">
        <ele>27.5349</ele>
        <time>2014-07-08T11:22:03Z</time>
      </trkpt>
      <trkpt lat="59.6265054" lon="17.7843937">
        <ele>27.5349</ele>
        <time>2014-07-08T11:22:04Z</time>
      </trkpt>
      <trkpt lat="59.6264933" lon="17.7844952">
        <ele>28.0155</ele>
        <time>2014-07-08T11:22:05Z</time>
      </trkpt>
      <trkpt lat="59.626481" lon="17.7845951">
        <ele>28.0155</ele>
        <time>2014-07-08T11:22:06Z</time>
      </trkpt>
      <trkpt lat="59.6264691" lon="17.784694">
        <ele>28.0155</ele>
        <time>2014-07-08T11:22:07Z</time>
      </trkpt>
      <trkpt lat="59.6264572" lon="17.7847921">
        <ele>28.0155</ele>
        <time>2014-07-08T11:22:08Z</time>
      </trkpt>
      <trkpt lat="59.6264453" lon="17.7848894">
        <ele>28.4962</ele>
        <time>2014-07-08T11:22:09Z</time>
      </trkpt>
      <trkpt lat="59.6264333" lon="17.7849872">
        <ele>28.4962</ele>
        <time>2014-07-08T11:22:10Z</time>
      </trkpt>
      <trkpt lat="59.6264205" lon="17.7850853">
        <ele>28.4962</ele>
        <time>2014-07-08T11:22:11Z</time>
      </trkpt>
      <trkpt lat="59.6264064" lon="17.7851833">
        <ele>28.4962</ele>
        <time>2014-07-08T11:22:12Z</time>
      </trkpt>
      <trkpt lat="59.6263923" lon="17.7852821">
        <ele>28.4962</ele>
        <time>2014-07-08T11:22:13Z</time>
      </trkpt>
      <trkpt lat="59.6263785" lon="17.785381">
        <ele>28.4962</ele>
        <time>2014-07-08T11:22:14Z</time>
      </trkpt>
      <trkpt lat="59.6263636" lon="17.7854789">
        <ele>28.9769</ele>
        <time>2014-07-08T11:22:15Z</time>
      </trkpt>
      <trkpt lat="59.6263474" lon="17.7855748">
        <ele>28.9769</ele>
        <time>2014-07-08T11:22:16Z</time>
      </trkpt>
      <trkpt lat="59.6263303" lon="17.7856685">
        <ele>28.9769</ele>
        <time>2014-07-08T11:22:17Z</time>
      </trkpt>
      <trkpt lat="59.6263123" lon="17.7857601">
        <ele>28.9769</ele>
        <time>2014-07-08T11:22:18Z</time>
      </trkpt>
      <trkpt lat="59.6262934" lon="17.7858496">
        <ele>29.4575</ele>
        <time>2014-07-08T11:22:19Z</time>
      </trkpt>
      <trkpt lat="59.6262736" lon="17.7859368">
        <ele>29.4575</ele>
        <time>2014-07-08T11:22:20Z</time>
      </trkpt>
      <trkpt lat="59.6262531" lon="17.7860229">
        <ele>29.4575</ele>
        <time>2014-07-08T11:22:21Z</time>
      </trkpt>
      <trkpt lat="59.6262334" lon="17.7861077">
        <ele>29.4575</ele>
        <time>2014-07-08T11:22:22Z</time>
      </trkpt>
      <trkpt lat="59.6262133" lon="17.7861911">
        <ele>29.4575</ele>
        <time>2014-07-08T11:22:23Z</time>
      </trkpt>
      <trkpt lat="59.626193" lon="17.7862767">
        <ele>29.9381</ele>
        <time>2014-07-08T11:22:24Z</time>
      </trkpt>
      <trkpt lat="59.6261728" lon="17.7863649">
        <ele>29.4575</ele>
        <time>2014-07-08T11:22:25Z</time>
      </trkpt>
      <trkpt lat="59.626152" lon="17.7864564">
        <ele>29.9381</ele>
        <time>2014-07-08T11:22:26Z</time>
      </trkpt>
      <trkpt lat="59.6261305" lon="17.7865515">
        <ele>29.9381</ele>
        <time>2014-07-08T11:22:27Z</time>
      </trkpt>
      <trkpt lat="59.6261089" lon="17.7866498">
        <ele>29.9381</ele>
        <time>2014-07-08T11:22:28Z</time>
      </trkpt>
      <trkpt lat="59.6260867" lon="17.7867513">
        <ele>29.4575</ele>
        <time>2014-07-08T11:22:29Z</time>
      </trkpt>
      <trkpt lat="59.6260655" lon="17.7868562">
        <ele>29.4575</ele>
        <time>2014-07-08T11:22:30Z</time>
      </trkpt>
      <trkpt lat="59.6260478" lon="17.7869585">
        <ele>29.4575</ele>
        <time>2014-07-08T11:22:31Z</time>
      </trkpt>
      <trkpt lat="59.6260341" lon="17.7870563">
        <ele>29.4575</ele>
        <time>2014-07-08T11:22:32Z</time>
      </trkpt>
      <trkpt lat="59.626019" lon="17.7871616">
        <ele>29.4575</ele>
        <time>2014-07-08T11:22:33Z</time>
      </trkpt>
      <trkpt lat="59.6260024" lon="17.7872738">
        <ele>29.4575</ele>
        <time>2014-07-08T11:22:34Z</time>
      </trkpt>
      <trkpt lat="59.625989" lon="17.7873871">
        <ele>29.4575</ele>
        <time>2014-07-08T11:22:35Z</time>
      </trkpt>
      <trkpt lat="59.6259797" lon="17.7875039">
        <ele>29.4575</ele>
        <time>2014-07-08T11:22:36Z</time>
      </trkpt>
      <trkpt lat="59.6259751" lon="17.7876229">
        <ele>29.4575</ele>
        <time>2014-07-08T11:22:37Z</time>
      </trkpt>
      <trkpt lat="59.6259743" lon="17.7877427">
        <ele>29.4575</ele>
        <time>2014-07-08T11:22:38Z</time>
      </trkpt>
      <trkpt lat="59.6259769" lon="17.7878619">
        <ele>28.9769</ele>
        <time>2014-07-08T11:22:39Z</time>
      </trkpt>
      <trkpt lat="59.6259838" lon="17.7879799">
        <ele>28.9769</ele>
        <time>2014-07-08T11:22:40Z</time>
      </trkpt>
      <trkpt lat="59.6259944" lon="17.7880979">
        <ele>28.9769</ele>
        <time>2014-07-08T11:22:41Z</time>
      </trkpt>
      <trkpt lat="59.6260087" lon="17.7882166">
        <ele>28.9769</ele>
        <time>2014-07-08T11:22:42Z</time>
      </trkpt>
      <trkpt lat="59.6260242" lon="17.7883369">
        <ele>28.4962</ele>
        <time>2014-07-08T11:22:43Z</time>
      </trkpt>
      <trkpt lat="59.6260428" lon="17.7884586">
        <ele>28.0155</ele>
        <time>2014-07-08T11:22:44Z</time>
      </trkpt>
      <trkpt lat="59.626063" lon="17.7885816">
        <ele>28.0155</ele>
        <time>2014-07-08T11:22:45Z</time>
      </trkpt>
      <trkpt lat="59.6260812" lon="17.7887056">
        <ele>27.5349</ele>
        <time>2014-07-08T11:22:46Z</time>
      </trkpt>
      <trkpt lat="59.6260989" lon="17.7888301">
        <ele>27.0543</ele>
        <time>2014-07-08T11:22:47Z</time>
      </trkpt>
      <trkpt lat="59.6261185" lon="17.7889533">
        <ele>27.0543</ele>
        <time>2014-07-08T11:22:48Z</time>
      </trkpt>
      <trkpt lat="59.6261349" lon="17.7890765">
        <ele>26.5736</ele>
        <time>2014-07-08T11:22:49Z</time>
      </trkpt>
      <trkpt lat="59.6261454" lon="17.7892018">
        <ele>26.5736</ele>
        <time>2014-07-08T11:22:50Z</time>
      </trkpt>
      <trkpt lat="59.626155" lon="17.7893281">
        <ele>26.5736</ele>
        <time>2014-07-08T11:22:51Z</time>
      </trkpt>
      <trkpt lat="59.6261623" lon="17.7894568">
        <ele>26.5736</ele>
        <time>2014-07-08T11:22:52Z</time>
      </trkpt>
      <trkpt lat="59.6261688" lon="17.7895871">
        <ele>26.0929</ele>
        <time>2014-07-08T11:22:53Z</time>
      </trkpt>
      <trkpt lat="59.6261745" lon="17.7897181">
        <ele>26.0929</ele>
        <time>2014-07-08T11:22:54Z</time>
      </trkpt>
      <trkpt lat="59.626178" lon="17.7898504">
        <ele>25.6123</ele>
        <time>2014-07-08T11:22:55Z</time>
      </trkpt>
      <trkpt lat="59.6261809" lon="17.7899836">
        <ele>25.6123</ele>
        <time>2014-07-08T11:22:56Z</time>
      </trkpt>
      <trkpt lat="59.6261856" lon="17.7901171">
        <ele>26.0929</ele>
        <time>2014-07-08T11:22:57Z</time>
      </trkpt>
      <trkpt lat="59.6261904" lon="17.7902507">
        <ele>26.0929</ele>
        <time>2014-07-08T11:22:58Z</time>
      </trkpt>
      <trkpt lat="59.6261933" lon="17.7903839">
        <ele>25.6123</ele>
        <time>2014-07-08T11:22:59Z</time>
      </trkpt>
      <trkpt lat="59.6261955" lon="17.7905166">
        <ele>25.6123</ele>
        <time>2014-07-08T11:23:00Z</time>
      </trkpt>
      <trkpt lat="59.6261971" lon="17.7906487">
        <ele>25.1317</ele>
        <time>2014-07-08T11:23:01Z</time>
      </trkpt>
      <trkpt lat="59.6261992" lon="17.7907811">
        <ele>25.1317</ele>
        <time>2014-07-08T11:23:02Z</time>
      </trkpt>
      <trkpt lat="59.6262024" lon="17.7909145">
        <ele>25.1317</ele>
        <time>2014-07-08T11:23:03Z</time>
      </trkpt>
      <trkpt lat="59.626204" lon="17.7910486">
        <ele>24.651</ele>
        <time>2014-07-08T11:23:04Z</time>
      </trkpt>
      <trkpt lat="59.626204" lon="17.7911828">
        <ele>24.651</ele>
        <time>2014-07-08T11:23:05Z</time>
      </trkpt>
      <trkpt lat="59.626204" lon="17.7913173">
        <ele>24.1703</ele>
        <time>2014-07-08T11:23:06Z</time>
      </trkpt>
      <trkpt lat="59.6262021" lon="17.7914521">
        <ele>24.1703</ele>
        <time>2014-07-08T11:23:07Z</time>
      </trkpt>
      <trkpt lat="59.6261996" lon="17.7915859">
        <ele>23.6896</ele>
        <time>2014-07-08T11:23:08Z</time>
      </trkpt>
      <trkpt lat="59.6261925" lon="17.7917199">
        <ele>23.209</ele>
        <time>2014-07-08T11:23:09Z</time>
      </trkpt>
      <trkpt lat="59.6261822" lon="17.7918547">
        <ele>23.209</ele>
        <time>2014-07-08T11:23:10Z</time>
      </trkpt>
      <trkpt lat="59.6261726" lon="17.7919901">
        <ele>22.7283</ele>
        <time>2014-07-08T11:23:11Z</time>
      </trkpt>
      <trkpt lat="59.6261638" lon="17.7921264">
        <ele>22.7283</ele>
        <time>2014-07-08T11:23:12Z</time>
      </trkpt>
      <trkpt lat="59.6261547" lon="17.7922636">
        <ele>22.2476</ele>
        <time>2014-07-08T11:23:13Z</time>
      </trkpt>
      <trkpt lat="59.6261432" lon="17.792402">
        <ele>22.2476</ele>
        <time>2014-07-08T11:23:14Z</time>
      </trkpt>
      <trkpt lat="59.6261257" lon="17.7925388">
        <ele>21.767</ele>
        <time>2014-07-08T11:23:15Z</time>
      </trkpt>
      <trkpt lat="59.6261035" lon="17.7926729">
        <ele>21.2864</ele>
        <time>2014-07-08T11:23:16Z</time>
      </trkpt>
      <trkpt lat="59.6260818" lon="17.7928052">
        <ele>21.2864</ele>
        <time>2014-07-08T11:23:17Z</time>
      </trkpt>
      <trkpt lat="59.6260623" lon="17.7929373">
        <ele>20.8057</ele>
        <time>2014-07-08T11:23:18Z</time>
      </trkpt>
      <trkpt lat="59.6260493" lon="17.7930695">
        <ele>20.8057</ele>
        <time>2014-07-08T11:23:19Z</time>
      </trkpt>
      <trkpt lat="59.6260447" lon="17.7931999">
        <ele>20.325</ele>
        <time>2014-07-08T11:23:20Z</time>
      </trkpt>
      <trkpt lat="59.6260531" lon="17.7933282">
        <ele>19.8444</ele>
        <time>2014-07-08T11:23:21Z</time>
      </trkpt>
      <trkpt lat="59.6260773" lon="17.7934521">
        <ele>18.8831</ele>
        <time>2014-07-08T11:23:22Z</time>
      </trkpt>
      <trkpt lat="59.6261204" lon="17.7935621">
        <ele>18.4023</ele>
        <time>2014-07-08T11:23:23Z</time>
      </trkpt>
      <trkpt lat="59.6261797" lon="17.7936424">
        <ele>17.9218</ele>
        <time>2014-07-08T11:23:24Z</time>
      </trkpt>
      <trkpt lat="59.6262498" lon="17.7936838">
        <ele>17.4412</ele>
        <time>2014-07-08T11:23:25Z</time>
      </trkpt>
      <trkpt lat="59.6263244" lon="17.793697">
        <ele>17.4412</ele>
        <time>2014-07-08T11:23:26Z</time>
      </trkpt>
      <trkpt lat="59.6263957" lon="17.7937039">
        <ele>16.4797</ele>
        <time>2014-07-08T11:23:27Z</time>
      </trkpt>
      <trkpt lat="59.6264793" lon="17.7937097">
        <ele>16.4797</ele>
        <time>2014-07-08T11:23:28Z</time>
      </trkpt>
      <trkpt lat="59.6265536" lon="17.7937298">
        <ele>16.4797</ele>
        <time>2014-07-08T11:23:29Z</time>
      </trkpt>
      <trkpt lat="59.6266209" lon="17.7937731">
        <ele>17.4412</ele>
        <time>2014-07-08T11:23:30Z</time>
      </trkpt>
      <trkpt lat="59.6266753" lon="17.7938407">
        <ele>17.9218</ele>
        <time>2014-07-08T11:23:31Z</time>
      </trkpt>
      <trkpt lat="59.6267167" lon="17.7939287">
        <ele>17.9218</ele>
        <time>2014-07-08T11:23:32Z</time>
      </trkpt>
      <trkpt lat="59.6267466" lon="17.7940314">
        <ele>17.9218</ele>
        <time>2014-07-08T11:23:33Z</time>
      </trkpt>
      <trkpt lat="59.6267668" lon="17.7941428">
        <ele>18.4023</ele>
        <time>2014-07-08T11:23:34Z</time>
      </trkpt>
      <trkpt lat="59.6267795" lon="17.7942571">
        <ele>18.4023</ele>
        <time>2014-07-08T11:23:35Z</time>
      </trkpt>
      <trkpt lat="59.6267854" lon="17.7943711">
        <ele>18.8831</ele>
        <time>2014-07-08T11:23:36Z</time>
      </trkpt>
      <trkpt lat="59.6267867" lon="17.7944835">
        <ele>18.8831</ele>
        <time>2014-07-08T11:23:37Z</time>
      </trkpt>
      <trkpt lat="59.6267844" lon="17.7945942">
        <ele>18.8831</ele>
        <time>2014-07-08T11:23:38Z</time>
      </trkpt>
      <trkpt lat="59.6267806" lon="17.7947037">
        <ele>18.8831</ele>
        <time>2014-07-08T11:23:39Z</time>
      </trkpt>
      <trkpt lat="59.6267759" lon="17.794814">
        <ele>18.8831</ele>
        <time>2014-07-08T11:23:40Z</time>
      </trkpt>
      <trkpt lat="59.62677" lon="17.7949249">
        <ele>18.8831</ele>
        <time>2014-07-08T11:23:41Z</time>
      </trkpt>
      <trkpt lat="59.6267632" lon="17.7950347">
        <ele>19.3638</ele>
        <time>2014-07-08T11:23:42Z</time>
      </trkpt>
      <trkpt lat="59.6267561" lon="17.7951436">
        <ele>19.3638</ele>
        <time>2014-07-08T11:23:43Z</time>
      </trkpt>
      <trkpt lat="59.6267482" lon="17.7952533">
        <ele>19.3638</ele>
        <time>2014-07-08T11:23:44Z</time>
      </trkpt>
      <trkpt lat="59.626741" lon="17.7953642">
        <ele>19.3638</ele>
        <time>2014-07-08T11:23:45Z</time>
      </trkpt>
      <trkpt lat="59.6267368" lon="17.7954763">
        <ele>19.3638</ele>
        <time>2014-07-08T11:23:46Z</time>
      </trkpt>
      <trkpt lat="59.6267354" lon="17.7955896">
        <ele>19.3638</ele>
        <time>2014-07-08T11:23:47Z</time>
      </trkpt>
      <trkpt lat="59.6267365" lon="17.7957033">
        <ele>19.3638</ele>
        <time>2014-07-08T11:23:48Z</time>
      </trkpt>
      <trkpt lat="59.6267395" lon="17.7958169">
        <ele>19.8444</ele>
        <time>2014-07-08T11:23:49Z</time>
      </trkpt>
      <trkpt lat="59.6267436" lon="17.7959313">
        <ele>19.8444</ele>
        <time>2014-07-08T11:23:50Z</time>
      </trkpt>
      <trkpt lat="59.6267509" lon="17.7960427">
        <ele>19.8444</ele>
        <time>2014-07-08T11:23:51Z</time>
      </trkpt>
      <trkpt lat="59.62676" lon="17.7961495">
        <ele>19.8444</ele>
        <time>2014-07-08T11:23:52Z</time>
      </trkpt>
      <trkpt lat="59.6267689" lon="17.7962545">
        <ele>19.8444</ele>
        <time>2014-07-08T11:23:53Z</time>
      </trkpt>
      <trkpt lat="59.6267789" lon="17.7963592">
        <ele>19.8444</ele>
        <time>2014-07-08T11:23:54Z</time>
      </trkpt>
      <trkpt lat="59.6267903" lon="17.7964655">
        <ele>19.8444</ele>
        <time>2014-07-08T11:23:55Z</time>
      </trkpt>
      <trkpt lat="59.6268034" lon="17.7965747">
        <ele>19.8444</ele>
        <time>2014-07-08T11:23:56Z</time>
      </trkpt>
      <trkpt lat="59.6268163" lon="17.796687">
        <ele>19.8444</ele>
        <time>2014-07-08T11:23:57Z</time>
      </trkpt>
      <trkpt lat="59.6268285" lon="17.7968016">
        <ele>19.3638</ele>
        <time>2014-07-08T11:23:58Z</time>
      </trkpt>
      <trkpt lat="59.6268416" lon="17.7969164">
        <ele>19.3638</ele>
        <time>2014-07-08T11:23:59Z</time>
      </trkpt>
      <trkpt lat="59.6268567" lon="17.7970301">
        <ele>19.3638</ele>
        <time>2014-07-08T11:24:00Z</time>
      </trkpt>
      <trkpt lat="59.6268732" lon="17.7971431">
        <ele>19.8444</ele>
        <time>2014-07-08T11:24:01Z</time>
      </trkpt>
      <trkpt lat="59.6268888" lon="17.7972569">
        <ele>19.8444</ele>
        <time>2014-07-08T11:24:02Z</time>
      </trkpt>
      <trkpt lat="59.6269026" lon="17.797371">
        <ele>19.8444</ele>
        <time>2014-07-08T11:24:03Z</time>
      </trkpt>
      <trkpt lat="59.6269161" lon="17.7974849">
        <ele>19.8444</ele>
        <time>2014-07-08T11:24:04Z</time>
      </trkpt>
      <trkpt lat="59.6269312" lon="17.7975981">
        <ele>19.8444</ele>
        <time>2014-07-08T11:24:05Z</time>
      </trkpt>
      <trkpt lat="59.6269473" lon="17.7977107">
        <ele>19.8444</ele>
        <time>2014-07-08T11:24:06Z</time>
      </trkpt>
      <trkpt lat="59.6269638" lon="17.7978243">
        <ele>19.8444</ele>
        <time>2014-07-08T11:24:07Z</time>
      </trkpt>
      <trkpt lat="59.6269812" lon="17.7979387">
        <ele>19.8444</ele>
        <time>2014-07-08T11:24:08Z</time>
      </trkpt>
      <trkpt lat="59.6269991" lon="17.7980536">
        <ele>19.8444</ele>
        <time>2014-07-08T11:24:09Z</time>
      </trkpt>
      <trkpt lat="59.6270172" lon="17.7981679">
        <ele>19.8444</ele>
        <time>2014-07-08T11:24:10Z</time>
      </trkpt>
      <trkpt lat="59.6270348" lon="17.798281">
        <ele>20.325</ele>
        <time>2014-07-08T11:24:11Z</time>
      </trkpt>
      <trkpt lat="59.6270524" lon="17.7983933">
        <ele>20.325</ele>
        <time>2014-07-08T11:24:12Z</time>
      </trkpt>
      <trkpt lat="59.6270699" lon="17.7985048">
        <ele>20.325</ele>
        <time>2014-07-08T11:24:13Z</time>
      </trkpt>
      <trkpt lat="59.6270877" lon="17.7986147">
        <ele>20.325</ele>
        <time>2014-07-08T11:24:14Z</time>
      </trkpt>
      <trkpt lat="59.6271067" lon="17.7987229">
        <ele>20.325</ele>
        <time>2014-07-08T11:24:15Z</time>
      </trkpt>
      <trkpt lat="59.6271265" lon="17.7988301">
        <ele>20.325</ele>
        <time>2014-07-08T11:24:16Z</time>
      </trkpt>
      <trkpt lat="59.6271466" lon="17.7989369">
        <ele>20.325</ele>
        <time>2014-07-08T11:24:17Z</time>
      </trkpt>
      <trkpt lat="59.6271667" lon="17.799043">
        <ele>20.325</ele>
        <time>2014-07-08T11:24:18Z</time>
      </trkpt>
      <trkpt lat="59.627186" lon="17.7991488">
        <ele>20.325</ele>
        <time>2014-07-08T11:24:19Z</time>
      </trkpt>
      <trkpt lat="59.6272062" lon="17.7992539">
        <ele>20.325</ele>
        <time>2014-07-08T11:24:20Z</time>
      </trkpt>
      <trkpt lat="59.627229" lon="17.7993588">
        <ele>20.325</ele>
        <time>2014-07-08T11:24:21Z</time>
      </trkpt>
      <trkpt lat="59.6272524" lon="17.7994659">
        <ele>20.325</ele>
        <time>2014-07-08T11:24:22Z</time>
      </trkpt>
      <trkpt lat="59.6272755" lon="17.799576">
        <ele>20.325</ele>
        <time>2014-07-08T11:24:23Z</time>
      </trkpt>
      <trkpt lat="59.6273" lon="17.7996874">
        <ele>20.325</ele>
        <time>2014-07-08T11:24:24Z</time>
      </trkpt>
      <trkpt lat="59.627326" lon="17.7997999">
        <ele>20.325</ele>
        <time>2014-07-08T11:24:25Z</time>
      </trkpt>
      <trkpt lat="59.627353" lon="17.7999133">
        <ele>20.325</ele>
        <time>2014-07-08T11:24:26Z</time>
      </trkpt>
      <trkpt lat="59.6273812" lon="17.8000256">
        <ele>20.325</ele>
        <time>2014-07-08T11:24:27Z</time>
      </trkpt>
      <trkpt lat="59.6274092" lon="17.8001353">
        <ele>20.325</ele>
        <time>2014-07-08T11:24:28Z</time>
      </trkpt>
      <trkpt lat="59.6274373" lon="17.8002431">
        <ele>20.325</ele>
        <time>2014-07-08T11:24:29Z</time>
      </trkpt>
      <trkpt lat="59.6274662" lon="17.8003496">
        <ele>20.325</ele>
        <time>2014-07-08T11:24:30Z</time>
      </trkpt>
      <trkpt lat="59.6274942" lon="17.8004557">
        <ele>20.325</ele>
        <time>2014-07-08T11:24:31Z</time>
      </trkpt>
      <trkpt lat="59.6275213" lon="17.8005604">
        <ele>20.325</ele>
        <time>2014-07-08T11:24:32Z</time>
      </trkpt>
      <trkpt lat="59.6275482" lon="17.8006637">
        <ele>20.325</ele>
        <time>2014-07-08T11:24:33Z</time>
      </trkpt>
      <trkpt lat="59.6275747" lon="17.800767">
        <ele>20.325</ele>
        <time>2014-07-08T11:24:34Z</time>
      </trkpt>
      <trkpt lat="59.627602" lon="17.8008696">
        <ele>20.325</ele>
        <time>2014-07-08T11:24:35Z</time>
      </trkpt>
      <trkpt lat="59.627631" lon="17.8009711">
        <ele>20.325</ele>
        <time>2014-07-08T11:24:36Z</time>
      </trkpt>
      <trkpt lat="59.6276594" lon="17.8010745">
        <ele>20.325</ele>
        <time>2014-07-08T11:24:37Z</time>
      </trkpt>
      <trkpt lat="59.6276862" lon="17.8011809">
        <ele>20.325</ele>
        <time>2014-07-08T11:24:38Z</time>
      </trkpt>
      <trkpt lat="59.6277118" lon="17.8012902">
        <ele>20.325</ele>
        <time>2014-07-08T11:24:39Z</time>
      </trkpt>
      <trkpt lat="59.6277387" lon="17.8014">
        <ele>20.325</ele>
        <time>2014-07-08T11:24:40Z</time>
      </trkpt>
      <trkpt lat="59.6277683" lon="17.8015088">
        <ele>20.325</ele>
        <time>2014-07-08T11:24:41Z</time>
      </trkpt>
      <trkpt lat="59.6278008" lon="17.8016168">
        <ele>19.8444</ele>
        <time>2014-07-08T11:24:42Z</time>
      </trkpt>
      <trkpt lat="59.6278336" lon="17.8017218">
        <ele>19.8444</ele>
        <time>2014-07-08T11:24:43Z</time>
      </trkpt>
      <trkpt lat="59.6278678" lon="17.8018207">
        <ele>19.8444</ele>
        <time>2014-07-08T11:24:44Z</time>
      </trkpt>
      <trkpt lat="59.6279025" lon="17.8019165">
        <ele>19.8444</ele>
        <time>2014-07-08T11:24:45Z</time>
      </trkpt>
      <trkpt lat="59.6279362" lon="17.8020128">
        <ele>19.8444</ele>
        <time>2014-07-08T11:24:46Z</time>
      </trkpt>
      <trkpt lat="59.6279681" lon="17.8021106">
        <ele>19.8444</ele>
        <time>2014-07-08T11:24:47Z</time>
      </trkpt>
      <trkpt lat="59.6279991" lon="17.8022081">
        <ele>19.8444</ele>
        <time>2014-07-08T11:24:48Z</time>
      </trkpt>
      <trkpt lat="59.6280314" lon="17.8023034">
        <ele>19.8444</ele>
        <time>2014-07-08T11:24:49Z</time>
      </trkpt>
      <trkpt lat="59.6280656" lon="17.8023964">
        <ele>19.8444</ele>
        <time>2014-07-08T11:24:50Z</time>
      </trkpt>
      <trkpt lat="59.6281012" lon="17.8024881">
        <ele>20.325</ele>
        <time>2014-07-08T11:24:51Z</time>
      </trkpt>
      <trkpt lat="59.6281382" lon="17.8025794">
        <ele>20.325</ele>
        <time>2014-07-08T11:24:52Z</time>
      </trkpt>
      <trkpt lat="59.6281756" lon="17.8026722">
        <ele>20.325</ele>
        <time>2014-07-08T11:24:53Z</time>
      </trkpt>
      <trkpt lat="59.6282125" lon="17.802767">
        <ele>20.325</ele>
        <time>2014-07-08T11:24:54Z</time>
      </trkpt>
      <trkpt lat="59.6282491" lon="17.8028618">
        <ele>20.325</ele>
        <time>2014-07-08T11:24:55Z</time>
      </trkpt>
      <trkpt lat="59.6282858" lon="17.8029551">
        <ele>20.325</ele>
        <time>2014-07-08T11:24:56Z</time>
      </trkpt>
      <trkpt lat="59.6283222" lon="17.8030457">
        <ele>20.8057</ele>
        <time>2014-07-08T11:24:57Z</time>
      </trkpt>
      <trkpt lat="59.6283586" lon="17.8031337">
        <ele>20.8057</ele>
        <time>2014-07-08T11:24:58Z</time>
      </trkpt>
      <trkpt lat="59.6283931" lon="17.8032216">
        <ele>20.8057</ele>
        <time>2014-07-08T11:24:59Z</time>
      </trkpt>
      <trkpt lat="59.6284245" lon="17.8033119">
        <ele>20.8057</ele>
        <time>2014-07-08T11:25:00Z</time>
      </trkpt>
      <trkpt lat="59.6284547" lon="17.8034017">
        <ele>20.8057</ele>
        <time>2014-07-08T11:25:01Z</time>
      </trkpt>
      <trkpt lat="59.6284863" lon="17.80349">
        <ele>20.8057</ele>
        <time>2014-07-08T11:25:02Z</time>
      </trkpt>
      <trkpt lat="59.62852" lon="17.8035775">
        <ele>20.8057</ele>
        <time>2014-07-08T11:25:03Z</time>
      </trkpt>
      <trkpt lat="59.6285555" lon="17.8036662">
        <ele>20.8057</ele>
        <time>2014-07-08T11:25:04Z</time>
      </trkpt>
      <trkpt lat="59.6285925" lon="17.8037571">
        <ele>20.8057</ele>
        <time>2014-07-08T11:25:05Z</time>
      </trkpt>
      <trkpt lat="59.6286299" lon="17.8038512">
        <ele>20.8057</ele>
        <time>2014-07-08T11:25:06Z</time>
      </trkpt>
      <trkpt lat="59.6286677" lon="17.8039477">
        <ele>20.8057</ele>
        <time>2014-07-08T11:25:07Z</time>
      </trkpt>
      <trkpt lat="59.628706" lon="17.8040447">
        <ele>20.8057</ele>
        <time>2014-07-08T11:25:08Z</time>
      </trkpt>
      <trkpt lat="59.6287459" lon="17.8041422">
        <ele>20.8057</ele>
        <time>2014-07-08T11:25:09Z</time>
      </trkpt>
      <trkpt lat="59.6287862" lon="17.8042418">
        <ele>20.325</ele>
        <time>2014-07-08T11:25:10Z</time>
      </trkpt>
      <trkpt lat="59.6288251" lon="17.8043407">
        <ele>20.325</ele>
        <time>2014-07-08T11:25:11Z</time>
      </trkpt>
      <trkpt lat="59.628866" lon="17.8044438">
        <ele>20.325</ele>
        <time>2014-07-08T11:25:12Z</time>
      </trkpt>
      <trkpt lat="59.628907" lon="17.8045468">
        <ele>20.325</ele>
        <time>2014-07-08T11:25:13Z</time>
      </trkpt>
      <trkpt lat="59.6289494" lon="17.8046464">
        <ele>19.8444</ele>
        <time>2014-07-08T11:25:14Z</time>
      </trkpt>
      <trkpt lat="59.6289925" lon="17.8047477">
        <ele>19.3638</ele>
        <time>2014-07-08T11:25:15Z</time>
      </trkpt>
      <trkpt lat="59.6290369" lon="17.8048525">
        <ele>19.3638</ele>
        <time>2014-07-08T11:25:16Z</time>
      </trkpt>
      <trkpt lat="59.6290841" lon="17.8049603">
        <ele>19.3638</ele>
        <time>2014-07-08T11:25:17Z</time>
      </trkpt>
      <trkpt lat="59.629131" lon="17.8050711">
        <ele>18.8831</ele>
        <time>2014-07-08T11:25:18Z</time>
      </trkpt>
      <trkpt lat="59.6291809" lon="17.8051816">
        <ele>19.3638</ele>
        <time>2014-07-08T11:25:19Z</time>
      </trkpt>
      <trkpt lat="59.6292353" lon="17.8052902">
        <ele>19.8444</ele>
        <time>2014-07-08T11:25:20Z</time>
      </trkpt>
      <trkpt lat="59.6292884" lon="17.8054001">
        <ele>19.8444</ele>
        <time>2014-07-08T11:25:21Z</time>
      </trkpt>
      <trkpt lat="59.6293415" lon="17.8055117">
        <ele>20.325</ele>
        <time>2014-07-08T11:25:22Z</time>
      </trkpt>
      <trkpt lat="59.6293885" lon="17.8056269">
        <ele>20.325</ele>
        <time>2014-07-08T11:25:23Z</time>
      </trkpt>
      <trkpt lat="59.6294335" lon="17.8057441">
        <ele>20.325</ele>
        <time>2014-07-08T11:25:24Z</time>
      </trkpt>
      <trkpt lat="59.6294773" lon="17.8058632">
        <ele>19.8444</ele>
        <time>2014-07-08T11:25:25Z</time>
      </trkpt>
      <trkpt lat="59.6295216" lon="17.8059818">
        <ele>19.8444</ele>
        <time>2014-07-08T11:25:26Z</time>
      </trkpt>
      <trkpt lat="59.6295671" lon="17.8060994">
        <ele>19.8444</ele>
        <time>2014-07-08T11:25:27Z</time>
      </trkpt>
      <trkpt lat="59.6296128" lon="17.8062171">
        <ele>19.3638</ele>
        <time>2014-07-08T11:25:28Z</time>
      </trkpt>
      <trkpt lat="59.6296586" lon="17.8063366">
        <ele>19.3638</ele>
        <time>2014-07-08T11:25:29Z</time>
      </trkpt>
      <trkpt lat="59.6297057" lon="17.8064563">
        <ele>19.3638</ele>
        <time>2014-07-08T11:25:30Z</time>
      </trkpt>
      <trkpt lat="59.6297544" lon="17.806576">
        <ele>19.3638</ele>
        <time>2014-07-08T11:25:31Z</time>
      </trkpt>
      <trkpt lat="59.6298031" lon="17.8066936">
        <ele>19.3638</ele>
        <time>2014-07-08T11:25:32Z</time>
      </trkpt>
      <trkpt lat="59.6298518" lon="17.8068097">
        <ele>19.3638</ele>
        <time>2014-07-08T11:25:33Z</time>
      </trkpt>
      <trkpt lat="59.6298987" lon="17.8069256">
        <ele>19.3638</ele>
        <time>2014-07-08T11:25:34Z</time>
      </trkpt>
      <trkpt lat="59.629943" lon="17.8070414">
        <ele>18.8831</ele>
        <time>2014-07-08T11:25:35Z</time>
      </trkpt>
      <trkpt lat="59.6299872" lon="17.8071585">
        <ele>18.8831</ele>
        <time>2014-07-08T11:25:36Z</time>
      </trkpt>
      <trkpt lat="59.630032" lon="17.8072751">
        <ele>18.8831</ele>
        <time>2014-07-08T11:25:37Z</time>
      </trkpt>
      <trkpt lat="59.6300781" lon="17.8073913">
        <ele>18.8831</ele>
        <time>2014-07-08T11:25:38Z</time>
      </trkpt>
      <trkpt lat="59.6301241" lon="17.8075093">
        <ele>18.4023</ele>
        <time>2014-07-08T11:25:39Z</time>
      </trkpt>
      <trkpt lat="59.6301689" lon="17.8076291">
        <ele>18.4023</ele>
        <time>2014-07-08T11:25:40Z</time>
      </trkpt>
      <trkpt lat="59.6302124" lon="17.8077508">
        <ele>18.4023</ele>
        <time>2014-07-08T11:25:41Z</time>
      </trkpt>
      <trkpt lat="59.630254" lon="17.807872">
        <ele>18.4023</ele>
        <time>2014-07-08T11:25:42Z</time>
      </trkpt>
      <trkpt lat="59.6302925" lon="17.8079897">
        <ele>18.8831</ele>
        <time>2014-07-08T11:25:43Z</time>
      </trkpt>
      <trkpt lat="59.6303265" lon="17.8081044">
        <ele>18.8831</ele>
        <time>2014-07-08T11:25:44Z</time>
      </trkpt>
      <trkpt lat="59.6303566" lon="17.8082166">
        <ele>18.8831</ele>
        <time>2014-07-08T11:25:45Z</time>
      </trkpt>
      <trkpt lat="59.630383" lon="17.8083283">
        <ele>18.8831</ele>
        <time>2014-07-08T11:25:46Z</time>
      </trkpt>
      <trkpt lat="59.630407" lon="17.8084388">
        <ele>19.3638</ele>
        <time>2014-07-08T11:25:47Z</time>
      </trkpt>
      <trkpt lat="59.6304303" lon="17.8085466">
        <ele>19.3638</ele>
        <time>2014-07-08T11:25:48Z</time>
      </trkpt>
      <trkpt lat="59.6304529" lon="17.8086517">
        <ele>19.3638</ele>
        <time>2014-07-08T11:25:49Z</time>
      </trkpt>
      <trkpt lat="59.6304735" lon="17.8087558">
        <ele>19.8444</ele>
        <time>2014-07-08T11:25:50Z</time>
      </trkpt>
      <trkpt lat="59.6304919" lon="17.8088599">
        <ele>19.8444</ele>
        <time>2014-07-08T11:25:51Z</time>
      </trkpt>
      <trkpt lat="59.630509" lon="17.808963">
        <ele>19.8444</ele>
        <time>2014-07-08T11:25:52Z</time>
      </trkpt>
      <trkpt lat="59.6305245" lon="17.8090656">
        <ele>19.8444</ele>
        <time>2014-07-08T11:25:53Z</time>
      </trkpt>
      <trkpt lat="59.6305395" lon="17.809169">
        <ele>20.325</ele>
        <time>2014-07-08T11:25:54Z</time>
      </trkpt>
      <trkpt lat="59.6305545" lon="17.8092731">
        <ele>20.325</ele>
        <time>2014-07-08T11:25:55Z</time>
      </trkpt>
      <trkpt lat="59.6305687" lon="17.8093768">
        <ele>20.325</ele>
        <time>2014-07-08T11:25:56Z</time>
      </trkpt>
      <trkpt lat="59.6305826" lon="17.8094798">
        <ele>20.325</ele>
        <time>2014-07-08T11:25:57Z</time>
      </trkpt>
      <trkpt lat="59.630595" lon="17.8095804">
        <ele>20.325</ele>
        <time>2014-07-08T11:25:58Z</time>
      </trkpt>
      <trkpt lat="59.6306055" lon="17.8096786">
        <ele>20.8057</ele>
        <time>2014-07-08T11:25:59Z</time>
      </trkpt>
      <trkpt lat="59.6306163" lon="17.8097752">
        <ele>20.8057</ele>
        <time>2014-07-08T11:26:00Z</time>
      </trkpt>
      <trkpt lat="59.6306273" lon="17.8098715">
        <ele>20.8057</ele>
        <time>2014-07-08T11:26:01Z</time>
      </trkpt>
      <trkpt lat="59.6306386" lon="17.8099682">
        <ele>20.8057</ele>
        <time>2014-07-08T11:26:02Z</time>
      </trkpt>
      <trkpt lat="59.63065" lon="17.8100626">
        <ele>20.8057</ele>
        <time>2014-07-08T11:26:03Z</time>
      </trkpt>
      <trkpt lat="59.6306632" lon="17.8101514">
        <ele>20.8057</ele>
        <time>2014-07-08T11:26:04Z</time>
      </trkpt>
      <trkpt lat="59.630678" lon="17.8102367">
        <ele>20.8057</ele>
        <time>2014-07-08T11:26:05Z</time>
      </trkpt>
      <trkpt lat="59.6306903" lon="17.8103218">
        <ele>20.8057</ele>
        <time>2014-07-08T11:26:06Z</time>
      </trkpt>
      <trkpt lat="59.6306993" lon="17.8104093">
        <ele>20.325</ele>
        <time>2014-07-08T11:26:07Z</time>
      </trkpt>
      <trkpt lat="59.6307084" lon="17.810501">
        <ele>20.325</ele>
        <time>2014-07-08T11:26:08Z</time>
      </trkpt>
      <trkpt lat="59.6307199" lon="17.8105976">
        <ele>20.325</ele>
        <time>2014-07-08T11:26:09Z</time>
      </trkpt>
      <trkpt lat="59.6307355" lon="17.8106967">
        <ele>19.8444</ele>
        <time>2014-07-08T11:26:10Z</time>
      </trkpt>
      <trkpt lat="59.6307572" lon="17.810791">
        <ele>20.325</ele>
        <time>2014-07-08T11:26:11Z</time>
      </trkpt>
      <trkpt lat="59.6307878" lon="17.8108714">
        <ele>20.325</ele>
        <time>2014-07-08T11:26:12Z</time>
      </trkpt>
      <trkpt lat="59.6308277" lon="17.8109296">
        <ele>20.325</ele>
        <time>2014-07-08T11:26:13Z</time>
      </trkpt>
      <trkpt lat="59.6308744" lon="17.8109635">
        <ele>19.8444</ele>
        <time>2014-07-08T11:26:14Z</time>
      </trkpt>
      <trkpt lat="59.6309249" lon="17.8109766">
        <ele>20.325</ele>
        <time>2014-07-08T11:26:15Z</time>
      </trkpt>
      <trkpt lat="59.630973" lon="17.8109745">
        <ele>19.8444</ele>
        <time>2014-07-08T11:26:16Z</time>
      </trkpt>
      <trkpt lat="59.6310193" lon="17.8109604">
        <ele>19.8444</ele>
        <time>2014-07-08T11:26:17Z</time>
      </trkpt>
      <trkpt lat="59.6310654" lon="17.8109374">
        <ele>19.8444</ele>
        <time>2014-07-08T11:26:18Z</time>
      </trkpt>
      <trkpt lat="59.6311115" lon="17.8109158">
        <ele>19.8444</ele>
        <time>2014-07-08T11:26:19Z</time>
      </trkpt>
      <trkpt lat="59.6311583" lon="17.8109003">
        <ele>19.8444</ele>
        <time>2014-07-08T11:26:20Z</time>
      </trkpt>
      <trkpt lat="59.6312048" lon="17.8108877">
        <ele>19.8444</ele>
        <time>2014-07-08T11:26:21Z</time>
      </trkpt>
      <trkpt lat="59.6312505" lon="17.8108735">
        <ele>19.8444</ele>
        <time>2014-07-08T11:26:22Z</time>
      </trkpt>
      <trkpt lat="59.6312952" lon="17.8108535">
        <ele>19.8444</ele>
        <time>2014-07-08T11:26:23Z</time>
      </trkpt>
      <trkpt lat="59.6313392" lon="17.8108328">
        <ele>19.8444</ele>
        <time>2014-07-08T11:26:24Z</time>
      </trkpt>
      <trkpt lat="59.6313826" lon="17.8108159">
        <ele>19.8444</ele>
        <time>2014-07-08T11:26:25Z</time>
      </trkpt>
      <trkpt lat="59.6314254" lon="17.8107984">
        <ele>19.8444</ele>
        <time>2014-07-08T11:26:26Z</time>
      </trkpt>
      <trkpt lat="59.631468" lon="17.810777">
        <ele>19.8444</ele>
        <time>2014-07-08T11:26:27Z</time>
      </trkpt>
      <trkpt lat="59.6315125" lon="17.8107528">
        <ele>19.8444</ele>
        <time>2014-07-08T11:26:28Z</time>
      </trkpt>
      <trkpt lat="59.6315591" lon="17.8107283">
        <ele>19.8444</ele>
        <time>2014-07-08T11:26:29Z</time>
      </trkpt>
      <trkpt lat="59.6316072" lon="17.810702">
        <ele>19.8444</ele>
        <time>2014-07-08T11:26:30Z</time>
      </trkpt>
      <trkpt lat="59.6316575" lon="17.8106744">
        <ele>19.8444</ele>
        <time>2014-07-08T11:26:31Z</time>
      </trkpt>
      <trkpt lat="59.6317105" lon="17.8106457">
        <ele>19.8444</ele>
        <time>2014-07-08T11:26:32Z</time>
      </trkpt>
      <trkpt lat="59.6317658" lon="17.8106148">
        <ele>19.8444</ele>
        <time>2014-07-08T11:26:33Z</time>
      </trkpt>
      <trkpt lat="59.6318228" lon="17.8105831">
        <ele>19.8444</ele>
        <time>2014-07-08T11:26:34Z</time>
      </trkpt>
      <trkpt lat="59.6318813" lon="17.8105522">
        <ele>19.8444</ele>
        <time>2014-07-08T11:26:35Z</time>
      </trkpt>
      <trkpt lat="59.6319414" lon="17.8105217">
        <ele>20.325</ele>
        <time>2014-07-08T11:26:36Z</time>
      </trkpt>
      <trkpt lat="59.632003" lon="17.810491">
        <ele>20.325</ele>
        <time>2014-07-08T11:26:37Z</time>
      </trkpt>
      <trkpt lat="59.6320656" lon="17.8104601">
        <ele>20.325</ele>
        <time>2014-07-08T11:26:38Z</time>
      </trkpt>
      <trkpt lat="59.6321294" lon="17.8104308">
        <ele>20.325</ele>
        <time>2014-07-08T11:26:39Z</time>
      </trkpt>
      <trkpt lat="59.6321947" lon="17.8104046">
        <ele>20.325</ele>
        <time>2014-07-08T11:26:40Z</time>
      </trkpt>
      <trkpt lat="59.63226" lon="17.8103792">
        <ele>20.325</ele>
        <time>2014-07-08T11:26:41Z</time>
      </trkpt>
      <trkpt lat="59.6323246" lon="17.8103534">
        <ele>20.325</ele>
        <time>2014-07-08T11:26:42Z</time>
      </trkpt>
      <trkpt lat="59.6323884" lon="17.8103301">
        <ele>20.8057</ele>
        <time>2014-07-08T11:26:43Z</time>
      </trkpt>
      <trkpt lat="59.6324528" lon="17.8103087">
        <ele>20.8057</ele>
        <time>2014-07-08T11:26:44Z</time>
      </trkpt>
      <trkpt lat="59.6325178" lon="17.8102864">
        <ele>20.8057</ele>
        <time>2014-07-08T11:26:45Z</time>
      </trkpt>
      <trkpt lat="59.6325827" lon="17.8102616">
        <ele>20.8057</ele>
        <time>2014-07-08T11:26:46Z</time>
      </trkpt>
      <trkpt lat="59.632647" lon="17.8102362">
        <ele>20.8057</ele>
        <time>2014-07-08T11:26:47Z</time>
      </trkpt>
      <trkpt lat="59.6327104" lon="17.8102103">
        <ele>21.2864</ele>
        <time>2014-07-08T11:26:48Z</time>
      </trkpt>
      <trkpt lat="59.6327728" lon="17.8101829">
        <ele>21.2864</ele>
        <time>2014-07-08T11:26:49Z</time>
      </trkpt>
      <trkpt lat="59.6328344" lon="17.8101559">
        <ele>21.2864</ele>
        <time>2014-07-08T11:26:50Z</time>
      </trkpt>
      <trkpt lat="59.6328956" lon="17.8101295">
        <ele>21.767</ele>
        <time>2014-07-08T11:26:51Z</time>
      </trkpt>
      <trkpt lat="59.6329558" lon="17.8101031">
        <ele>21.767</ele>
        <time>2014-07-08T11:26:52Z</time>
      </trkpt>
      <trkpt lat="59.6330163" lon="17.8100772">
        <ele>21.767</ele>
        <time>2014-07-08T11:26:53Z</time>
      </trkpt>
      <trkpt lat="59.6330773" lon="17.8100555">
        <ele>22.2476</ele>
        <time>2014-07-08T11:26:54Z</time>
      </trkpt>
      <trkpt lat="59.6331385" lon="17.8100388">
        <ele>22.2476</ele>
        <time>2014-07-08T11:26:55Z</time>
      </trkpt>
      <trkpt lat="59.6331994" lon="17.8100203">
        <ele>22.2476</ele>
        <time>2014-07-08T11:26:56Z</time>
      </trkpt>
      <trkpt lat="59.6332596" lon="17.8099967">
        <ele>22.7283</ele>
        <time>2014-07-08T11:26:57Z</time>
      </trkpt>
      <trkpt lat="59.6333199" lon="17.8099694">
        <ele>22.7283</ele>
        <time>2014-07-08T11:26:58Z</time>
      </trkpt>
      <trkpt lat="59.6333808" lon="17.8099411">
        <ele>22.7283</ele>
        <time>2014-07-08T11:26:59Z</time>
      </trkpt>
      <trkpt lat="59.6334425" lon="17.8099126">
        <ele>23.209</ele>
        <time>2014-07-08T11:27:00Z</time>
      </trkpt>
      <trkpt lat="59.6335051" lon="17.809885">
        <ele>23.209</ele>
        <time>2014-07-08T11:27:01Z</time>
      </trkpt>
      <trkpt lat="59.6335679" lon="17.8098576">
        <ele>23.209</ele>
        <time>2014-07-08T11:27:02Z</time>
      </trkpt>
      <trkpt lat="59.6336296" lon="17.8098284">
        <ele>23.209</ele>
        <time>2014-07-08T11:27:03Z</time>
      </trkpt>
      <trkpt lat="59.6336892" lon="17.8097998">
        <ele>23.6896</ele>
        <time>2014-07-08T11:27:04Z</time>
      </trkpt>
      <trkpt lat="59.6337471" lon="17.8097717">
        <ele>23.6896</ele>
        <time>2014-07-08T11:27:05Z</time>
      </trkpt>
      <trkpt lat="59.6338062" lon="17.8097431">
        <ele>23.6896</ele>
        <time>2014-07-08T11:27:06Z</time>
      </trkpt>
      <trkpt lat="59.6338668" lon="17.8097151">
        <ele>24.1703</ele>
        <time>2014-07-08T11:27:07Z</time>
      </trkpt>
      <trkpt lat="59.6339286" lon="17.8096824">
        <ele>24.1703</ele>
        <time>2014-07-08T11:27:08Z</time>
      </trkpt>
      <trkpt lat="59.6339922" lon="17.8096468">
        <ele>24.1703</ele>
        <time>2014-07-08T11:27:09Z</time>
      </trkpt>
      <trkpt lat="59.6340575" lon="17.8096155">
        <ele>24.1703</ele>
        <time>2014-07-08T11:27:10Z</time>
      </trkpt>
      <trkpt lat="59.6341223" lon="17.8095859">
        <ele>24.1703</ele>
        <time>2014-07-08T11:27:11Z</time>
      </trkpt>
      <trkpt lat="59.6341854" lon="17.8095549">
        <ele>24.1703</ele>
        <time>2014-07-08T11:27:12Z</time>
      </trkpt>
      <trkpt lat="59.634247" lon="17.8095255">
        <ele>23.6896</ele>
        <time>2014-07-08T11:27:13Z</time>
      </trkpt>
      <trkpt lat="59.634307" lon="17.8094973">
        <ele>23.6896</ele>
        <time>2014-07-08T11:27:14Z</time>
      </trkpt>
      <trkpt lat="59.6343655" lon="17.809469">
        <ele>23.6896</ele>
        <time>2014-07-08T11:27:15Z</time>
      </trkpt>
      <trkpt lat="59.6344233" lon="17.809441">
        <ele>23.6896</ele>
        <time>2014-07-08T11:27:16Z</time>
      </trkpt>
      <trkpt lat="59.6344794" lon="17.8094131">
        <ele>23.6896</ele>
        <time>2014-07-08T11:27:17Z</time>
      </trkpt>
      <trkpt lat="59.634534" lon="17.8093862">
        <ele>23.209</ele>
        <time>2014-07-08T11:27:18Z</time>
      </trkpt>
      <trkpt lat="59.6345889" lon="17.809358">
        <ele>23.209</ele>
        <time>2014-07-08T11:27:19Z</time>
      </trkpt>
      <trkpt lat="59.6346465" lon="17.8093305">
        <ele>23.209</ele>
        <time>2014-07-08T11:27:20Z</time>
      </trkpt>
      <trkpt lat="59.634707" lon="17.8093042">
        <ele>22.7283</ele>
        <time>2014-07-08T11:27:21Z</time>
      </trkpt>
      <trkpt lat="59.6347691" lon="17.8092763">
        <ele>22.7283</ele>
        <time>2014-07-08T11:27:22Z</time>
      </trkpt>
      <trkpt lat="59.6348335" lon="17.8092509">
        <ele>22.7283</ele>
        <time>2014-07-08T11:27:23Z</time>
      </trkpt>
      <trkpt lat="59.6348998" lon="17.8092231">
        <ele>22.2476</ele>
        <time>2014-07-08T11:27:24Z</time>
      </trkpt>
      <trkpt lat="59.6349672" lon="17.8091912">
        <ele>22.2476</ele>
        <time>2014-07-08T11:27:25Z</time>
      </trkpt>
      <trkpt lat="59.635037" lon="17.8091603">
        <ele>21.767</ele>
        <time>2014-07-08T11:27:26Z</time>
      </trkpt>
      <trkpt lat="59.6351085" lon="17.8091251">
        <ele>21.767</ele>
        <time>2014-07-08T11:27:27Z</time>
      </trkpt>
      <trkpt lat="59.6351808" lon="17.8090869">
        <ele>21.2864</ele>
        <time>2014-07-08T11:27:28Z</time>
      </trkpt>
      <trkpt lat="59.635255" lon="17.8090489">
        <ele>21.2864</ele>
        <time>2014-07-08T11:27:29Z</time>
      </trkpt>
      <trkpt lat="59.6353296" lon="17.8090092">
        <ele>21.2864</ele>
        <time>2014-07-08T11:27:30Z</time>
      </trkpt>
      <trkpt lat="59.6354034" lon="17.8089682">
        <ele>21.2864</ele>
        <time>2014-07-08T11:27:31Z</time>
      </trkpt>
      <trkpt lat="59.6354766" lon="17.8089298">
        <ele>21.2864</ele>
        <time>2014-07-08T11:27:32Z</time>
      </trkpt>
      <trkpt lat="59.6355491" lon="17.8088936">
        <ele>21.2864</ele>
        <time>2014-07-08T11:27:33Z</time>
      </trkpt>
      <trkpt lat="59.6356204" lon="17.8088573">
        <ele>20.8057</ele>
        <time>2014-07-08T11:27:34Z</time>
      </trkpt>
      <trkpt lat="59.6356909" lon="17.80882">
        <ele>20.8057</ele>
        <time>2014-07-08T11:27:35Z</time>
      </trkpt>
      <trkpt lat="59.6357613" lon="17.8087832">
        <ele>20.8057</ele>
        <time>2014-07-08T11:27:36Z</time>
      </trkpt>
      <trkpt lat="59.6358321" lon="17.8087462">
        <ele>20.8057</ele>
        <time>2014-07-08T11:27:37Z</time>
      </trkpt>
      <trkpt lat="59.6359022" lon="17.8087079">
        <ele>21.2864</ele>
        <time>2014-07-08T11:27:38Z</time>
      </trkpt>
      <trkpt lat="59.6359721" lon="17.8086699">
        <ele>21.2864</ele>
        <time>2014-07-08T11:27:39Z</time>
      </trkpt>
      <trkpt lat="59.6360418" lon="17.808633">
        <ele>21.2864</ele>
        <time>2014-07-08T11:27:40Z</time>
      </trkpt>
      <trkpt lat="59.6361104" lon="17.8085972">
        <ele>21.2864</ele>
        <time>2014-07-08T11:27:41Z</time>
      </trkpt>
      <trkpt lat="59.6361783" lon="17.8085625">
        <ele>21.2864</ele>
        <time>2014-07-08T11:27:42Z</time>
      </trkpt>
      <trkpt lat="59.6362455" lon="17.8085292">
        <ele>21.2864</ele>
        <time>2014-07-08T11:27:43Z</time>
      </trkpt>
      <trkpt lat="59.6363121" lon="17.8084984">
        <ele>21.767</ele>
        <time>2014-07-08T11:27:44Z</time>
      </trkpt>
      <trkpt lat="59.6363781" lon="17.8084715">
        <ele>21.767</ele>
        <time>2014-07-08T11:27:45Z</time>
      </trkpt>
      <trkpt lat="59.6364434" lon="17.8084463">
        <ele>21.767</ele>
        <time>2014-07-08T11:27:46Z</time>
      </trkpt>
      <trkpt lat="59.6365077" lon="17.8084221">
        <ele>21.767</ele>
        <time>2014-07-08T11:27:47Z</time>
      </trkpt>
      <trkpt lat="59.6365714" lon="17.8084007">
        <ele>22.2476</ele>
        <time>2014-07-08T11:27:48Z</time>
      </trkpt>
      <trkpt lat="59.636634" lon="17.8083817">
        <ele>22.2476</ele>
        <time>2014-07-08T11:27:49Z</time>
      </trkpt>
      <trkpt lat="59.636695" lon="17.8083656">
        <ele>22.7283</ele>
        <time>2014-07-08T11:27:50Z</time>
      </trkpt>
      <trkpt lat="59.6367553" lon="17.8083553">
        <ele>22.7283</ele>
        <time>2014-07-08T11:27:51Z</time>
      </trkpt>
      <trkpt lat="59.6368146" lon="17.8083508">
        <ele>23.209</ele>
        <time>2014-07-08T11:27:52Z</time>
      </trkpt>
      <trkpt lat="59.6368722" lon="17.8083479">
        <ele>23.209</ele>
        <time>2014-07-08T11:27:53Z</time>
      </trkpt>
      <trkpt lat="59.6369284" lon="17.8083443">
        <ele>23.209</ele>
        <time>2014-07-08T11:27:54Z</time>
      </trkpt>
      <trkpt lat="59.6369841" lon="17.8083393">
        <ele>23.6896</ele>
        <time>2014-07-08T11:27:55Z</time>
      </trkpt>
      <trkpt lat="59.6370395" lon="17.8083325">
        <ele>23.6896</ele>
        <time>2014-07-08T11:27:56Z</time>
      </trkpt>
      <trkpt lat="59.6370933" lon="17.80833">
        <ele>24.1703</ele>
        <time>2014-07-08T11:27:57Z</time>
      </trkpt>
      <trkpt lat="59.6371458" lon="17.8083326">
        <ele>24.1703</ele>
        <time>2014-07-08T11:27:58Z</time>
      </trkpt>
      <trkpt lat="59.6371971" lon="17.8083367">
        <ele>24.1703</ele>
        <time>2014-07-08T11:27:59Z</time>
      </trkpt>
      <trkpt lat="59.6372479" lon="17.8083376">
        <ele>24.1703</ele>
        <time>2014-07-08T11:28:00Z</time>
      </trkpt>
      <trkpt lat="59.6372992" lon="17.8083337">
        <ele>24.651</ele>
        <time>2014-07-08T11:28:01Z</time>
      </trkpt>
      <trkpt lat="59.6373483" lon="17.80833">
        <ele>25.1317</ele>
        <time>2014-07-08T11:28:02Z</time>
      </trkpt>
      <trkpt lat="59.6373975" lon="17.8083269">
        <ele>25.1317</ele>
        <time>2014-07-08T11:28:03Z</time>
      </trkpt>
      <trkpt lat="59.6374467" lon="17.8083237">
        <ele>25.6123</ele>
        <time>2014-07-08T11:28:04Z</time>
      </trkpt>
      <trkpt lat="59.6374946" lon="17.8083171">
        <ele>26.0929</ele>
        <time>2014-07-08T11:28:05Z</time>
      </trkpt>
      <trkpt lat="59.6375416" lon="17.8083097">
        <ele>26.0929</ele>
        <time>2014-07-08T11:28:06Z</time>
      </trkpt>
      <trkpt lat="59.6375902" lon="17.8083045">
        <ele>26.0929</ele>
        <time>2014-07-08T11:28:07Z</time>
      </trkpt>
      <trkpt lat="59.6376385" lon="17.8083035">
        <ele>26.5736</ele>
        <time>2014-07-08T11:28:08Z</time>
      </trkpt>
      <trkpt lat="59.637686" lon="17.8083044">
        <ele>26.5736</ele>
        <time>2014-07-08T11:28:09Z</time>
      </trkpt>
      <trkpt lat="59.6377327" lon="17.808304">
        <ele>27.0543</ele>
        <time>2014-07-08T11:28:10Z</time>
      </trkpt>
      <trkpt lat="59.6377778" lon="17.8083021">
        <ele>27.0543</ele>
        <time>2014-07-08T11:28:11Z</time>
      </trkpt>
      <trkpt lat="59.6378224" lon="17.8083002">
        <ele>27.5349</ele>
        <time>2014-07-08T11:28:12Z</time>
      </trkpt>
      <trkpt lat="59.637866" lon="17.8082986">
        <ele>27.5349</ele>
        <time>2014-07-08T11:28:13Z</time>
      </trkpt>
      <trkpt lat="59.6379083" lon="17.8082988">
        <ele>28.0155</ele>
        <time>2014-07-08T11:28:14Z</time>
      </trkpt>
      <trkpt lat="59.6379497" lon="17.8082969">
        <ele>28.0155</ele>
        <time>2014-07-08T11:28:15Z</time>
      </trkpt>
      <trkpt lat="59.6379902" lon="17.8082942">
        <ele>28.4962</ele>
        <time>2014-07-08T11:28:16Z</time>
      </trkpt>
      <trkpt lat="59.6380297" lon="17.8082924">
        <ele>28.9769</ele>
        <time>2014-07-08T11:28:17Z</time>
      </trkpt>
      <trkpt lat="59.6380683" lon="17.8082899">
        <ele>29.4575</ele>
        <time>2014-07-08T11:28:18Z</time>
      </trkpt>
      <trkpt lat="59.6381063" lon="17.808288">
        <ele>29.9381</ele>
        <time>2014-07-08T11:28:19Z</time>
      </trkpt>
      <trkpt lat="59.6381439" lon="17.8082873">
        <ele>29.9381</ele>
        <time>2014-07-08T11:28:20Z</time>
      </trkpt>
      <trkpt lat="59.6381808" lon="17.8082872">
        <ele>29.9381</ele>
        <time>2014-07-08T11:28:21Z</time>
      </trkpt>
      <trkpt lat="59.638218" lon="17.8082868">
        <ele>30.4188</ele>
        <time>2014-07-08T11:28:22Z</time>
      </trkpt>
      <trkpt lat="59.6382552" lon="17.8082899">
        <ele>30.4188</ele>
        <time>2014-07-08T11:28:23Z</time>
      </trkpt>
      <trkpt lat="59.6382933" lon="17.8082911">
        <ele>30.4188</ele>
        <time>2014-07-08T11:28:24Z</time>
      </trkpt>
      <trkpt lat="59.6383315" lon="17.8082889">
        <ele>30.4188</ele>
        <time>2014-07-08T11:28:25Z</time>
      </trkpt>
      <trkpt lat="59.6383694" lon="17.8082868">
        <ele>30.8995</ele>
        <time>2014-07-08T11:28:26Z</time>
      </trkpt>
      <trkpt lat="59.6384082" lon="17.8082831">
        <ele>30.8995</ele>
        <time>2014-07-08T11:28:27Z</time>
      </trkpt>
      <trkpt lat="59.6384482" lon="17.8082771">
        <ele>30.8995</ele>
        <time>2014-07-08T11:28:28Z</time>
      </trkpt>
      <trkpt lat="59.6384886" lon="17.8082692">
        <ele>30.8995</ele>
        <time>2014-07-08T11:28:29Z</time>
      </trkpt>
      <trkpt lat="59.638529" lon="17.808261">
        <ele>30.8995</ele>
        <time>2014-07-08T11:28:30Z</time>
      </trkpt>
      <trkpt lat="59.63857" lon="17.8082539">
        <ele>31.3801</ele>
        <time>2014-07-08T11:28:31Z</time>
      </trkpt>
      <trkpt lat="59.6386109" lon="17.8082474">
        <ele>31.3801</ele>
        <time>2014-07-08T11:28:32Z</time>
      </trkpt>
      <trkpt lat="59.6386521" lon="17.8082382">
        <ele>31.3801</ele>
        <time>2014-07-08T11:28:33Z</time>
      </trkpt>
      <trkpt lat="59.6386932" lon="17.8082256">
        <ele>31.3801</ele>
        <time>2014-07-08T11:28:34Z</time>
      </trkpt>
      <trkpt lat="59.6387387" lon="17.8082111">
        <ele>32.3416</ele>
        <time>2014-07-08T11:28:35Z</time>
      </trkpt>
      <trkpt lat="59.6387802" lon="17.8081982">
        <ele>32.8223</ele>
        <time>2014-07-08T11:28:36Z</time>
      </trkpt>
      <trkpt lat="59.6388206" lon="17.8081834">
        <ele>32.8223</ele>
        <time>2014-07-08T11:28:37Z</time>
      </trkpt>
      <trkpt lat="59.6388629" lon="17.808164">
        <ele>33.3029</ele>
        <time>2014-07-08T11:28:38Z</time>
      </trkpt>
      <trkpt lat="59.6389055" lon="17.8081423">
        <ele>33.3029</ele>
        <time>2014-07-08T11:28:39Z</time>
      </trkpt>
      <trkpt lat="59.6389489" lon="17.8081186">
        <ele>33.7834</ele>
        <time>2014-07-08T11:28:40Z</time>
      </trkpt>
      <trkpt lat="59.6389925" lon="17.8080927">
        <ele>33.7834</ele>
        <time>2014-07-08T11:28:41Z</time>
      </trkpt>
      <trkpt lat="59.6390365" lon="17.8080652">
        <ele>33.7834</ele>
        <time>2014-07-08T11:28:42Z</time>
      </trkpt>
      <trkpt lat="59.6390817" lon="17.8080348">
        <ele>34.2642</ele>
        <time>2014-07-08T11:28:43Z</time>
      </trkpt>
      <trkpt lat="59.6391273" lon="17.8080024">
        <ele>34.2642</ele>
        <time>2014-07-08T11:28:44Z</time>
      </trkpt>
      <trkpt lat="59.6391743" lon="17.8079658">
        <ele>34.2642</ele>
        <time>2014-07-08T11:28:45Z</time>
      </trkpt>
      <trkpt lat="59.639222" lon="17.8079243">
        <ele>34.2642</ele>
        <time>2014-07-08T11:28:46Z</time>
      </trkpt>
      <trkpt lat="59.6392702" lon="17.8078798">
        <ele>34.2642</ele>
        <time>2014-07-08T11:28:47Z</time>
      </trkpt>
      <trkpt lat="59.6393192" lon="17.8078327">
        <ele>34.2642</ele>
        <time>2014-07-08T11:28:48Z</time>
      </trkpt>
      <trkpt lat="59.6393691" lon="17.8077809">
        <ele>34.7449</ele>
        <time>2014-07-08T11:28:49Z</time>
      </trkpt>
      <trkpt lat="59.6394189" lon="17.8077259">
        <ele>34.2642</ele>
        <time>2014-07-08T11:28:50Z</time>
      </trkpt>
      <trkpt lat="59.6394696" lon="17.8076675">
        <ele>34.2642</ele>
        <time>2014-07-08T11:28:51Z</time>
      </trkpt>
      <trkpt lat="59.639523" lon="17.8076048">
        <ele>34.7449</ele>
        <time>2014-07-08T11:28:52Z</time>
      </trkpt>
      <trkpt lat="59.6395766" lon="17.8075372">
        <ele>34.7449</ele>
        <time>2014-07-08T11:28:53Z</time>
      </trkpt>
      <trkpt lat="59.6396288" lon="17.807465">
        <ele>35.2255</ele>
        <time>2014-07-08T11:28:54Z</time>
      </trkpt>
      <trkpt lat="59.6396805" lon="17.8073923">
        <ele>35.7061</ele>
        <time>2014-07-08T11:28:55Z</time>
      </trkpt>
      <trkpt lat="59.6397311" lon="17.8073181">
        <ele>35.7061</ele>
        <time>2014-07-08T11:28:56Z</time>
      </trkpt>
      <trkpt lat="59.6397805" lon="17.8072395">
        <ele>36.1868</ele>
        <time>2014-07-08T11:28:57Z</time>
      </trkpt>
      <trkpt lat="59.6398296" lon="17.8071581">
        <ele>36.1868</ele>
        <time>2014-07-08T11:28:58Z</time>
      </trkpt>
      <trkpt lat="59.6398781" lon="17.8070748">
        <ele>36.1868</ele>
        <time>2014-07-08T11:28:59Z</time>
      </trkpt>
      <trkpt lat="59.639926" lon="17.8069893">
        <ele>36.6675</ele>
        <time>2014-07-08T11:29:00Z</time>
      </trkpt>
      <trkpt lat="59.6399726" lon="17.8069032">
        <ele>36.6675</ele>
        <time>2014-07-08T11:29:01Z</time>
      </trkpt>
      <trkpt lat="59.6400186" lon="17.8068177">
        <ele>36.6675</ele>
        <time>2014-07-08T11:29:02Z</time>
      </trkpt>
      <trkpt lat="59.6400647" lon="17.8067322">
        <ele>36.6675</ele>
        <time>2014-07-08T11:29:03Z</time>
      </trkpt>
      <trkpt lat="59.6401118" lon="17.8066458">
        <ele>36.6675</ele>
        <time>2014-07-08T11:29:04Z</time>
      </trkpt>
      <trkpt lat="59.6401596" lon="17.8065578">
        <ele>36.6675</ele>
        <time>2014-07-08T11:29:05Z</time>
      </trkpt>
      <trkpt lat="59.6402068" lon="17.8064656">
        <ele>36.6675</ele>
        <time>2014-07-08T11:29:06Z</time>
      </trkpt>
      <trkpt lat="59.6402542" lon="17.806372">
        <ele>36.6675</ele>
        <time>2014-07-08T11:29:07Z</time>
      </trkpt>
      <trkpt lat="59.640302" lon="17.8062805">
        <ele>36.6675</ele>
        <time>2014-07-08T11:29:08Z</time>
      </trkpt>
      <trkpt lat="59.6403497" lon="17.806189">
        <ele>36.6675</ele>
        <time>2014-07-08T11:29:09Z</time>
      </trkpt>
      <trkpt lat="59.6403977" lon="17.8060962">
        <ele>36.1868</ele>
        <time>2014-07-08T11:29:10Z</time>
      </trkpt>
      <trkpt lat="59.6404466" lon="17.8060008">
        <ele>36.1868</ele>
        <time>2014-07-08T11:29:11Z</time>
      </trkpt>
      <trkpt lat="59.6404974" lon="17.8059035">
        <ele>35.7061</ele>
        <time>2014-07-08T11:29:12Z</time>
      </trkpt>
      <trkpt lat="59.6405492" lon="17.8058035">
        <ele>35.7061</ele>
        <time>2014-07-08T11:29:13Z</time>
      </trkpt>
      <trkpt lat="59.6406011" lon="17.8056983">
        <ele>35.7061</ele>
        <time>2014-07-08T11:29:14Z</time>
      </trkpt>
      <trkpt lat="59.6406526" lon="17.8055882">
        <ele>35.2255</ele>
        <time>2014-07-08T11:29:15Z</time>
      </trkpt>
      <trkpt lat="59.640703" lon="17.8054705">
        <ele>34.7449</ele>
        <time>2014-07-08T11:29:16Z</time>
      </trkpt>
      <trkpt lat="59.6407546" lon="17.805347">
        <ele>34.2642</ele>
        <time>2014-07-08T11:29:17Z</time>
      </trkpt>
      <trkpt lat="59.6408082" lon="17.8052198">
        <ele>34.2642</ele>
        <time>2014-07-08T11:29:18Z</time>
      </trkpt>
      <trkpt lat="59.6408615" lon="17.8050887">
        <ele>33.7834</ele>
        <time>2014-07-08T11:29:19Z</time>
      </trkpt>
      <trkpt lat="59.6409137" lon="17.8049515">
        <ele>33.3029</ele>
        <time>2014-07-08T11:29:20Z</time>
      </trkpt>
      <trkpt lat="59.6409659" lon="17.8048101">
        <ele>33.3029</ele>
        <time>2014-07-08T11:29:21Z</time>
      </trkpt>
      <trkpt lat="59.6410181" lon="17.8046669">
        <ele>32.8223</ele>
        <time>2014-07-08T11:29:22Z</time>
      </trkpt>
      <trkpt lat="59.6410698" lon="17.804524">
        <ele>32.8223</ele>
        <time>2014-07-08T11:29:23Z</time>
      </trkpt>
      <trkpt lat="59.641119" lon="17.8043744">
        <ele>32.3416</ele>
        <time>2014-07-08T11:29:24Z</time>
      </trkpt>
      <trkpt lat="59.6411659" lon="17.8042243">
        <ele>32.3416</ele>
        <time>2014-07-08T11:29:25Z</time>
      </trkpt>
      <trkpt lat="59.6412105" lon="17.8040724">
        <ele>31.8607</ele>
        <time>2014-07-08T11:29:26Z</time>
      </trkpt>
      <trkpt lat="59.6412535" lon="17.8039197">
        <ele>31.8607</ele>
        <time>2014-07-08T11:29:27Z</time>
      </trkpt>
      <trkpt lat="59.6412947" lon="17.8037647">
        <ele>31.8607</ele>
        <time>2014-07-08T11:29:28Z</time>
      </trkpt>
      <trkpt lat="59.6413345" lon="17.8036102">
        <ele>31.8607</ele>
        <time>2014-07-08T11:29:29Z</time>
      </trkpt>
      <trkpt lat="59.6413731" lon="17.8034559">
        <ele>31.3801</ele>
        <time>2014-07-08T11:29:30Z</time>
      </trkpt>
      <trkpt lat="59.6414099" lon="17.8033004">
        <ele>31.3801</ele>
        <time>2014-07-08T11:29:31Z</time>
      </trkpt>
      <trkpt lat="59.6414457" lon="17.8031445">
        <ele>31.3801</ele>
        <time>2014-07-08T11:29:32Z</time>
      </trkpt>
      <trkpt lat="59.6414811" lon="17.8029885">
        <ele>31.3801</ele>
        <time>2014-07-08T11:29:33Z</time>
      </trkpt>
      <trkpt lat="59.6415157" lon="17.8028323">
        <ele>31.3801</ele>
        <time>2014-07-08T11:29:34Z</time>
      </trkpt>
      <trkpt lat="59.6415497" lon="17.8026759">
        <ele>31.3801</ele>
        <time>2014-07-08T11:29:35Z</time>
      </trkpt>
      <trkpt lat="59.6415829" lon="17.802519">
        <ele>31.3801</ele>
        <time>2014-07-08T11:29:36Z</time>
      </trkpt>
      <trkpt lat="59.6416155" lon="17.8023625">
        <ele>31.3801</ele>
        <time>2014-07-08T11:29:37Z</time>
      </trkpt>
      <trkpt lat="59.6416472" lon="17.8022058">
        <ele>31.3801</ele>
        <time>2014-07-08T11:29:38Z</time>
      </trkpt>
      <trkpt lat="59.6416792" lon="17.8020484">
        <ele>31.3801</ele>
        <time>2014-07-08T11:29:39Z</time>
      </trkpt>
      <trkpt lat="59.6417124" lon="17.80189">
        <ele>31.3801</ele>
        <time>2014-07-08T11:29:40Z</time>
      </trkpt>
      <trkpt lat="59.6417458" lon="17.8017295">
        <ele>31.3801</ele>
        <time>2014-07-08T11:29:41Z</time>
      </trkpt>
      <trkpt lat="59.6417789" lon="17.8015677">
        <ele>31.3801</ele>
        <time>2014-07-08T11:29:42Z</time>
      </trkpt>
      <trkpt lat="59.6418125" lon="17.8014056">
        <ele>31.3801</ele>
        <time>2014-07-08T11:29:43Z</time>
      </trkpt>
      <trkpt lat="59.6418468" lon="17.8012466">
        <ele>31.8607</ele>
        <time>2014-07-08T11:29:44Z</time>
      </trkpt>
      <trkpt lat="59.6418821" lon="17.8010928">
        <ele>31.8607</ele>
        <time>2014-07-08T11:29:45Z</time>
      </trkpt>
      <trkpt lat="59.641918" lon="17.8009442">
        <ele>31.8607</ele>
        <time>2014-07-08T11:29:46Z</time>
      </trkpt>
      <trkpt lat="59.641954" lon="17.8008001">
        <ele>32.3416</ele>
        <time>2014-07-08T11:29:47Z</time>
      </trkpt>
      <trkpt lat="59.6419923" lon="17.8006591">
        <ele>32.8223</ele>
        <time>2014-07-08T11:29:48Z</time>
      </trkpt>
      <trkpt lat="59.6420323" lon="17.8005209">
        <ele>33.3029</ele>
        <time>2014-07-08T11:29:49Z</time>
      </trkpt>
      <trkpt lat="59.642071" lon="17.8003886">
        <ele>33.3029</ele>
        <time>2014-07-08T11:29:50Z</time>
      </trkpt>
      <trkpt lat="59.6421093" lon="17.8002613">
        <ele>33.7834</ele>
        <time>2014-07-08T11:29:51Z</time>
      </trkpt>
      <trkpt lat="59.6421477" lon="17.800138">
        <ele>33.7834</ele>
        <time>2014-07-08T11:29:52Z</time>
      </trkpt>
      <trkpt lat="59.6421861" lon="17.8000178">
        <ele>34.2642</ele>
        <time>2014-07-08T11:29:53Z</time>
      </trkpt>
      <trkpt lat="59.6422255" lon="17.7999045">
        <ele>34.2642</ele>
        <time>2014-07-08T11:29:54Z</time>
      </trkpt>
      <trkpt lat="59.6422646" lon="17.7997922">
        <ele>34.7449</ele>
        <time>2014-07-08T11:29:55Z</time>
      </trkpt>
      <trkpt lat="59.6423034" lon="17.7996709">
        <ele>35.2255</ele>
        <time>2014-07-08T11:29:56Z</time>
      </trkpt>
      <trkpt lat="59.6423435" lon="17.7995458">
        <ele>35.7061</ele>
        <time>2014-07-08T11:29:57Z</time>
      </trkpt>
      <trkpt lat="59.6423823" lon="17.7994253">
        <ele>36.1868</ele>
        <time>2014-07-08T11:29:58Z</time>
      </trkpt>
      <trkpt lat="59.6424208" lon="17.7993066">
        <ele>36.6675</ele>
        <time>2014-07-08T11:29:59Z</time>
      </trkpt>
      <trkpt lat="59.64246" lon="17.7991913">
        <ele>37.6287</ele>
        <time>2014-07-08T11:30:00Z</time>
      </trkpt>
      <trkpt lat="59.6424989" lon="17.799082">
        <ele>38.1094</ele>
        <time>2014-07-08T11:30:01Z</time>
      </trkpt>
      <trkpt lat="59.6425358" lon="17.7989822">
        <ele>38.1094</ele>
        <time>2014-07-08T11:30:02Z</time>
      </trkpt>
      <trkpt lat="59.642573" lon="17.7988856">
        <ele>38.1094</ele>
        <time>2014-07-08T11:30:03Z</time>
      </trkpt>
      <trkpt lat="59.6426098" lon="17.7987934">
        <ele>38.1094</ele>
        <time>2014-07-08T11:30:04Z</time>
      </trkpt>
      <trkpt lat="59.6426506" lon="17.7987027">
        <ele>38.1094</ele>
        <time>2014-07-08T11:30:05Z</time>
      </trkpt>
      <trkpt lat="59.6426892" lon="17.7986074">
        <ele>38.5901</ele>
        <time>2014-07-08T11:30:06Z</time>
      </trkpt>
      <trkpt lat="59.6427256" lon="17.7985158">
        <ele>39.0707</ele>
        <time>2014-07-08T11:30:07Z</time>
      </trkpt>
      <trkpt lat="59.6427599" lon="17.798428">
        <ele>38.5901</ele>
        <time>2014-07-08T11:30:08Z</time>
      </trkpt>
      <trkpt lat="59.642794" lon="17.7983368">
        <ele>39.0707</ele>
        <time>2014-07-08T11:30:09Z</time>
      </trkpt>
      <trkpt lat="59.6428292" lon="17.7982263">
        <ele>39.5513</ele>
        <time>2014-07-08T11:30:10Z</time>
      </trkpt>
      <trkpt lat="59.6428626" lon="17.7981122">
        <ele>40.5128</ele>
        <time>2014-07-08T11:30:11Z</time>
      </trkpt>
      <trkpt lat="59.6428932" lon="17.7980065">
        <ele>40.9934</ele>
        <time>2014-07-08T11:30:12Z</time>
      </trkpt>
      <trkpt lat="59.6429257" lon="17.7979214">
        <ele>40.9934</ele>
        <time>2014-07-08T11:30:13Z</time>
      </trkpt>
      <trkpt lat="59.6429578" lon="17.7978262">
        <ele>40.9934</ele>
        <time>2014-07-08T11:30:14Z</time>
      </trkpt>
      <trkpt lat="59.6429895" lon="17.7977402">
        <ele>41.474</ele>
        <time>2014-07-08T11:30:15Z</time>
      </trkpt>
      <trkpt lat="59.6430184" lon="17.797661">
        <ele>41.474</ele>
        <time>2014-07-08T11:30:16Z</time>
      </trkpt>
      <trkpt lat="59.6430445" lon="17.7975833">
        <ele>41.474</ele>
        <time>2014-07-08T11:30:17Z</time>
      </trkpt>
      <trkpt lat="59.6430693" lon="17.797517">
        <ele>41.474</ele>
        <time>2014-07-08T11:30:18Z</time>
      </trkpt>
      <trkpt lat="59.6430939" lon="17.7974522">
        <ele>41.474</ele>
        <time>2014-07-08T11:30:19Z</time>
      </trkpt>
      <trkpt lat="59.6431173" lon="17.7973899">
        <ele>41.474</ele>
        <time>2014-07-08T11:30:20Z</time>
      </trkpt>
      <trkpt lat="59.6431402" lon="17.7973233">
        <ele>41.474</ele>
        <time>2014-07-08T11:30:21Z</time>
      </trkpt>
      <trkpt lat="59.6431636" lon="17.7972631">
        <ele>41.474</ele>
        <time>2014-07-08T11:30:22Z</time>
      </trkpt>
      <trkpt lat="59.6431858" lon="17.7971979">
        <ele>41.9547</ele>
        <time>2014-07-08T11:30:23Z</time>
      </trkpt>
      <trkpt lat="59.6432079" lon="17.7971373">
        <ele>41.9547</ele>
        <time>2014-07-08T11:30:24Z</time>
      </trkpt>
      <trkpt lat="59.6432292" lon="17.7970706">
        <ele>42.4354</ele>
        <time>2014-07-08T11:30:25Z</time>
      </trkpt>
      <trkpt lat="59.643251" lon="17.7970061">
        <ele>42.4354</ele>
        <time>2014-07-08T11:30:26Z</time>
      </trkpt>
      <trkpt lat="59.6432743" lon="17.7969507">
        <ele>42.4354</ele>
        <time>2014-07-08T11:30:27Z</time>
      </trkpt>
      <trkpt lat="59.6432975" lon="17.7968919">
        <ele>42.4354</ele>
        <time>2014-07-08T11:30:28Z</time>
      </trkpt>
      <trkpt lat="59.6433201" lon="17.7968332">
        <ele>42.4354</ele>
        <time>2014-07-08T11:30:29Z</time>
      </trkpt>
      <trkpt lat="59.6433415" lon="17.7967658">
        <ele>42.916</ele>
        <time>2014-07-08T11:30:30Z</time>
      </trkpt>
      <trkpt lat="59.6433634" lon="17.7967048">
        <ele>42.916</ele>
        <time>2014-07-08T11:30:31Z</time>
      </trkpt>
      <trkpt lat="59.6433856" lon="17.7966461">
        <ele>42.916</ele>
        <time>2014-07-08T11:30:32Z</time>
      </trkpt>
      <trkpt lat="59.6434071" lon="17.7965854">
        <ele>43.3966</ele>
        <time>2014-07-08T11:30:33Z</time>
      </trkpt>
      <trkpt lat="59.6434293" lon="17.7965188">
        <ele>43.3966</ele>
        <time>2014-07-08T11:30:34Z</time>
      </trkpt>
      <trkpt lat="59.6434505" lon="17.7964526">
        <ele>43.3966</ele>
        <time>2014-07-08T11:30:35Z</time>
      </trkpt>
      <trkpt lat="59.6434736" lon="17.7963891">
        <ele>43.8773</ele>
        <time>2014-07-08T11:30:36Z</time>
      </trkpt>
      <trkpt lat="59.6434988" lon="17.7963269">
        <ele>43.8773</ele>
        <time>2014-07-08T11:30:37Z</time>
      </trkpt>
      <trkpt lat="59.6435247" lon="17.7962653">
        <ele>43.3966</ele>
        <time>2014-07-08T11:30:38Z</time>
      </trkpt>
      <trkpt lat="59.6435504" lon="17.7962002">
        <ele>43.3966</ele>
        <time>2014-07-08T11:30:39Z</time>
      </trkpt>
      <trkpt lat="59.6435749" lon="17.7961313">
        <ele>43.8773</ele>
        <time>2014-07-08T11:30:40Z</time>
      </trkpt>
      <trkpt lat="59.6435998" lon="17.796066">
        <ele>43.8773</ele>
        <time>2014-07-08T11:30:41Z</time>
      </trkpt>
      <trkpt lat="59.643625" lon="17.7959962">
        <ele>43.8773</ele>
        <time>2014-07-08T11:30:42Z</time>
      </trkpt>
      <trkpt lat="59.6436519" lon="17.7959277">
        <ele>43.8773</ele>
        <time>2014-07-08T11:30:43Z</time>
      </trkpt>
      <trkpt lat="59.64368" lon="17.7958614">
        <ele>43.8773</ele>
        <time>2014-07-08T11:30:44Z</time>
      </trkpt>
      <trkpt lat="59.6437076" lon="17.7957914">
        <ele>44.358</ele>
        <time>2014-07-08T11:30:45Z</time>
      </trkpt>
      <trkpt lat="59.6437354" lon="17.7957229">
        <ele>44.358</ele>
        <time>2014-07-08T11:30:46Z</time>
      </trkpt>
      <trkpt lat="59.643764" lon="17.7956553">
        <ele>44.358</ele>
        <time>2014-07-08T11:30:47Z</time>
      </trkpt>
      <trkpt lat="59.6437945" lon="17.7955843">
        <ele>44.358</ele>
        <time>2014-07-08T11:30:48Z</time>
      </trkpt>
      <trkpt lat="59.6438256" lon="17.795511">
        <ele>44.358</ele>
        <time>2014-07-08T11:30:49Z</time>
      </trkpt>
      <trkpt lat="59.6438573" lon="17.7954393">
        <ele>44.358</ele>
        <time>2014-07-08T11:30:50Z</time>
      </trkpt>
      <trkpt lat="59.6438903" lon="17.795366">
        <ele>44.8386</ele>
        <time>2014-07-08T11:30:51Z</time>
      </trkpt>
      <trkpt lat="59.6439231" lon="17.7952883">
        <ele>44.8386</ele>
        <time>2014-07-08T11:30:52Z</time>
      </trkpt>
      <trkpt lat="59.6439582" lon="17.7952182">
        <ele>44.8386</ele>
        <time>2014-07-08T11:30:53Z</time>
      </trkpt>
      <trkpt lat="59.643994" lon="17.7951481">
        <ele>44.8386</ele>
        <time>2014-07-08T11:30:54Z</time>
      </trkpt>
      <trkpt lat="59.6440308" lon="17.795073">
        <ele>44.8386</ele>
        <time>2014-07-08T11:30:55Z</time>
      </trkpt>
      <trkpt lat="59.6440684" lon="17.7949953">
        <ele>45.3192</ele>
        <time>2014-07-08T11:30:56Z</time>
      </trkpt>
      <trkpt lat="59.6441063" lon="17.7949164">
        <ele>45.3192</ele>
        <time>2014-07-08T11:30:57Z</time>
      </trkpt>
      <trkpt lat="59.6441467" lon="17.7948467">
        <ele>45.3192</ele>
        <time>2014-07-08T11:30:58Z</time>
      </trkpt>
      <trkpt lat="59.6441871" lon="17.7947705">
        <ele>45.3192</ele>
        <time>2014-07-08T11:30:59Z</time>
      </trkpt>
      <trkpt lat="59.6442286" lon="17.7946999">
        <ele>45.3192</ele>
        <time>2014-07-08T11:31:00Z</time>
      </trkpt>
      <trkpt lat="59.6442715" lon="17.7946306">
        <ele>45.3192</ele>
        <time>2014-07-08T11:31:01Z</time>
      </trkpt>
      <trkpt lat="59.6443155" lon="17.7945582">
        <ele>45.3192</ele>
        <time>2014-07-08T11:31:02Z</time>
      </trkpt>
      <trkpt lat="59.6443612" lon="17.7944872">
        <ele>45.3192</ele>
        <time>2014-07-08T11:31:03Z</time>
      </trkpt>
      <trkpt lat="59.6444079" lon="17.7944156">
        <ele>45.3192</ele>
        <time>2014-07-08T11:31:04Z</time>
      </trkpt>
      <trkpt lat="59.644456" lon="17.7943469">
        <ele>45.3192</ele>
        <time>2014-07-08T11:31:05Z</time>
      </trkpt>
      <trkpt lat="59.6445046" lon="17.7942795">
        <ele>45.3192</ele>
        <time>2014-07-08T11:31:06Z</time>
      </trkpt>
      <trkpt lat="59.6445529" lon="17.7942095">
        <ele>45.7999</ele>
        <time>2014-07-08T11:31:07Z</time>
      </trkpt>
      <trkpt lat="59.6446021" lon="17.7941414">
        <ele>45.7999</ele>
        <time>2014-07-08T11:31:08Z</time>
      </trkpt>
      <trkpt lat="59.6446528" lon="17.7940767">
        <ele>45.7999</ele>
        <time>2014-07-08T11:31:09Z</time>
      </trkpt>
      <trkpt lat="59.644704" lon="17.794009">
        <ele>45.7999</ele>
        <time>2014-07-08T11:31:10Z</time>
      </trkpt>
      <trkpt lat="59.644756" lon="17.7939399">
        <ele>45.7999</ele>
        <time>2014-07-08T11:31:11Z</time>
      </trkpt>
      <trkpt lat="59.6448088" lon="17.7938727">
        <ele>45.7999</ele>
        <time>2014-07-08T11:31:12Z</time>
      </trkpt>
      <trkpt lat="59.6448622" lon="17.7938086">
        <ele>45.3192</ele>
        <time>2014-07-08T11:31:13Z</time>
      </trkpt>
      <trkpt lat="59.6449156" lon="17.7937433">
        <ele>45.3192</ele>
        <time>2014-07-08T11:31:14Z</time>
      </trkpt>
      <trkpt lat="59.6449692" lon="17.7936814">
        <ele>45.3192</ele>
        <time>2014-07-08T11:31:15Z</time>
      </trkpt>
      <trkpt lat="59.6450225" lon="17.7936186">
        <ele>45.3192</ele>
        <time>2014-07-08T11:31:16Z</time>
      </trkpt>
      <trkpt lat="59.6450758" lon="17.7935558">
        <ele>45.3192</ele>
        <time>2014-07-08T11:31:17Z</time>
      </trkpt>
      <trkpt lat="59.6451287" lon="17.7934915">
        <ele>45.7999</ele>
        <time>2014-07-08T11:31:18Z</time>
      </trkpt>
      <trkpt lat="59.6451816" lon="17.7934302">
        <ele>45.7999</ele>
        <time>2014-07-08T11:31:19Z</time>
      </trkpt>
      <trkpt lat="59.6452344" lon="17.7933688">
        <ele>45.7999</ele>
        <time>2014-07-08T11:31:20Z</time>
      </trkpt>
      <trkpt lat="59.6452873" lon="17.7933098">
        <ele>45.7999</ele>
        <time>2014-07-08T11:31:21Z</time>
      </trkpt>
      <trkpt lat="59.6453396" lon="17.7932511">
        <ele>46.2806</ele>
        <time>2014-07-08T11:31:22Z</time>
      </trkpt>
      <trkpt lat="59.6453904" lon="17.793195">
        <ele>46.2806</ele>
        <time>2014-07-08T11:31:23Z</time>
      </trkpt>
      <trkpt lat="59.645441" lon="17.7931387">
        <ele>46.2806</ele>
        <time>2014-07-08T11:31:24Z</time>
      </trkpt>
      <trkpt lat="59.6454923" lon="17.7930817">
        <ele>46.2806</ele>
        <time>2014-07-08T11:31:25Z</time>
      </trkpt>
      <trkpt lat="59.6455442" lon="17.7930238">
        <ele>46.2806</ele>
        <time>2014-07-08T11:31:26Z</time>
      </trkpt>
      <trkpt lat="59.6455975" lon="17.7929663">
        <ele>46.7612</ele>
        <time>2014-07-08T11:31:27Z</time>
      </trkpt>
      <trkpt lat="59.6456519" lon="17.7929075">
        <ele>47.2418</ele>
        <time>2014-07-08T11:31:28Z</time>
      </trkpt>
      <trkpt lat="59.645706" lon="17.7928466">
        <ele>47.2418</ele>
        <time>2014-07-08T11:31:29Z</time>
      </trkpt>
      <trkpt lat="59.6457601" lon="17.7927861">
        <ele>47.2418</ele>
        <time>2014-07-08T11:31:30Z</time>
      </trkpt>
      <trkpt lat="59.6458142" lon="17.7927267">
        <ele>47.7225</ele>
        <time>2014-07-08T11:31:31Z</time>
      </trkpt>
      <trkpt lat="59.6458689" lon="17.7926659">
        <ele>47.7225</ele>
        <time>2014-07-08T11:31:32Z</time>
      </trkpt>
      <trkpt lat="59.6459231" lon="17.7926043">
        <ele>48.2034</ele>
        <time>2014-07-08T11:31:33Z</time>
      </trkpt>
      <trkpt lat="59.6459774" lon="17.7925437">
        <ele>48.2034</ele>
        <time>2014-07-08T11:31:34Z</time>
      </trkpt>
      <trkpt lat="59.6460316" lon="17.7924845">
        <ele>48.2034</ele>
        <time>2014-07-08T11:31:35Z</time>
      </trkpt>
      <trkpt lat="59.6460847" lon="17.7924255">
        <ele>48.684</ele>
        <time>2014-07-08T11:31:36Z</time>
      </trkpt>
      <trkpt lat="59.6461369" lon="17.7923664">
        <ele>48.684</ele>
        <time>2014-07-08T11:31:37Z</time>
      </trkpt>
      <trkpt lat="59.6461882" lon="17.7923088">
        <ele>48.684</ele>
        <time>2014-07-08T11:31:38Z</time>
      </trkpt>
      <trkpt lat="59.6462391" lon="17.7922526">
        <ele>49.1646</ele>
        <time>2014-07-08T11:31:39Z</time>
      </trkpt>
      <trkpt lat="59.6462903" lon="17.7921965">
        <ele>49.1646</ele>
        <time>2014-07-08T11:31:40Z</time>
      </trkpt>
      <trkpt lat="59.6463425" lon="17.7921381">
        <ele>49.1646</ele>
        <time>2014-07-08T11:31:41Z</time>
      </trkpt>
      <trkpt lat="59.6463957" lon="17.7920796">
        <ele>49.6453</ele>
        <time>2014-07-08T11:31:42Z</time>
      </trkpt>
      <trkpt lat="59.6464496" lon="17.7920213">
        <ele>49.1646</ele>
        <time>2014-07-08T11:31:43Z</time>
      </trkpt>
      <trkpt lat="59.6465046" lon="17.7919609">
        <ele>49.6453</ele>
        <time>2014-07-08T11:31:44Z</time>
      </trkpt>
      <trkpt lat="59.6465605" lon="17.7919001">
        <ele>49.6453</ele>
        <time>2014-07-08T11:31:45Z</time>
      </trkpt>
      <trkpt lat="59.6466162" lon="17.7918412">
        <ele>49.6453</ele>
        <time>2014-07-08T11:31:46Z</time>
      </trkpt>
      <trkpt lat="59.6466715" lon="17.7917827">
        <ele>49.6453</ele>
        <time>2014-07-08T11:31:47Z</time>
      </trkpt>
      <trkpt lat="59.6467269" lon="17.7917241">
        <ele>49.6453</ele>
        <time>2014-07-08T11:31:48Z</time>
      </trkpt>
      <trkpt lat="59.6467819" lon="17.7916669">
        <ele>50.126</ele>
        <time>2014-07-08T11:31:49Z</time>
      </trkpt>
      <trkpt lat="59.6468356" lon="17.7916102">
        <ele>50.126</ele>
        <time>2014-07-08T11:31:50Z</time>
      </trkpt>
      <trkpt lat="59.646889" lon="17.791553">
        <ele>50.126</ele>
        <time>2014-07-08T11:31:51Z</time>
      </trkpt>
      <trkpt lat="59.6469429" lon="17.7914945">
        <ele>50.126</ele>
        <time>2014-07-08T11:31:52Z</time>
      </trkpt>
      <trkpt lat="59.6469968" lon="17.7914338">
        <ele>50.6066</ele>
        <time>2014-07-08T11:31:53Z</time>
      </trkpt>
      <trkpt lat="59.6470507" lon="17.7913724">
        <ele>50.6066</ele>
        <time>2014-07-08T11:31:54Z</time>
      </trkpt>
      <trkpt lat="59.6471045" lon="17.79131">
        <ele>50.6066</ele>
        <time>2014-07-08T11:31:55Z</time>
      </trkpt>
      <trkpt lat="59.6471584" lon="17.7912445">
        <ele>51.0872</ele>
        <time>2014-07-08T11:31:56Z</time>
      </trkpt>
      <trkpt lat="59.6472109" lon="17.7911796">
        <ele>51.0872</ele>
        <time>2014-07-08T11:31:57Z</time>
      </trkpt>
      <trkpt lat="59.6472636" lon="17.7911131">
        <ele>51.5679</ele>
        <time>2014-07-08T11:31:58Z</time>
      </trkpt>
      <trkpt lat="59.6473164" lon="17.7910456">
        <ele>51.5679</ele>
        <time>2014-07-08T11:31:59Z</time>
      </trkpt>
      <trkpt lat="59.6473688" lon="17.7909774">
        <ele>51.5679</ele>
        <time>2014-07-08T11:32:00Z</time>
      </trkpt>
      <trkpt lat="59.6474206" lon="17.7909066">
        <ele>52.0486</ele>
        <time>2014-07-08T11:32:01Z</time>
      </trkpt>
      <trkpt lat="59.6474717" lon="17.7908326">
        <ele>52.0486</ele>
        <time>2014-07-08T11:32:02Z</time>
      </trkpt>
      <trkpt lat="59.6475221" lon="17.7907558">
        <ele>52.0486</ele>
        <time>2014-07-08T11:32:03Z</time>
      </trkpt>
      <trkpt lat="59.6475727" lon="17.7906773">
        <ele>52.0486</ele>
        <time>2014-07-08T11:32:04Z</time>
      </trkpt>
      <trkpt lat="59.6476232" lon="17.7905977">
        <ele>52.5292</ele>
        <time>2014-07-08T11:32:05Z</time>
      </trkpt>
      <trkpt lat="59.6476732" lon="17.7905157">
        <ele>52.5292</ele>
        <time>2014-07-08T11:32:06Z</time>
      </trkpt>
      <trkpt lat="59.6477226" lon="17.7904307">
        <ele>52.5292</ele>
        <time>2014-07-08T11:32:07Z</time>
      </trkpt>
      <trkpt lat="59.6477722" lon="17.7903435">
        <ele>52.5292</ele>
        <time>2014-07-08T11:32:08Z</time>
      </trkpt>
      <trkpt lat="59.6478218" lon="17.7902536">
        <ele>52.5292</ele>
        <time>2014-07-08T11:32:09Z</time>
      </trkpt>
      <trkpt lat="59.6478713" lon="17.7901618">
        <ele>52.5292</ele>
        <time>2014-07-08T11:32:10Z</time>
      </trkpt>
      <trkpt lat="59.6479194" lon="17.7900644">
        <ele>52.5292</ele>
        <time>2014-07-08T11:32:11Z</time>
      </trkpt>
      <trkpt lat="59.647968" lon="17.7899685">
        <ele>52.5292</ele>
        <time>2014-07-08T11:32:12Z</time>
      </trkpt>
      <trkpt lat="59.6480168" lon="17.7898707">
        <ele>53.0098</ele>
        <time>2014-07-08T11:32:13Z</time>
      </trkpt>
      <trkpt lat="59.6480663" lon="17.7897739">
        <ele>53.0098</ele>
        <time>2014-07-08T11:32:14Z</time>
      </trkpt>
      <trkpt lat="59.6481147" lon="17.7896722">
        <ele>53.0098</ele>
        <time>2014-07-08T11:32:15Z</time>
      </trkpt>
      <trkpt lat="59.6481619" lon="17.7895661">
        <ele>53.0098</ele>
        <time>2014-07-08T11:32:16Z</time>
      </trkpt>
      <trkpt lat="59.6482084" lon="17.7894543">
        <ele>53.0098</ele>
        <time>2014-07-08T11:32:17Z</time>
      </trkpt>
      <trkpt lat="59.648255" lon="17.7893402">
        <ele>53.0098</ele>
        <time>2014-07-08T11:32:18Z</time>
      </trkpt>
      <trkpt lat="59.6483006" lon="17.7892216">
        <ele>53.0098</ele>
        <time>2014-07-08T11:32:19Z</time>
      </trkpt>
      <trkpt lat="59.6483456" lon="17.7891">
        <ele>53.0098</ele>
        <time>2014-07-08T11:32:20Z</time>
      </trkpt>
      <trkpt lat="59.648389" lon="17.788972">
        <ele>53.0098</ele>
        <time>2014-07-08T11:32:21Z</time>
      </trkpt>
      <trkpt lat="59.6484317" lon="17.788843">
        <ele>53.0098</ele>
        <time>2014-07-08T11:32:22Z</time>
      </trkpt>
      <trkpt lat="59.6484745" lon="17.788715">
        <ele>53.0098</ele>
        <time>2014-07-08T11:32:23Z</time>
      </trkpt>
      <trkpt lat="59.6485171" lon="17.7885878">
        <ele>52.5292</ele>
        <time>2014-07-08T11:32:24Z</time>
      </trkpt>
      <trkpt lat="59.6485582" lon="17.7884529">
        <ele>52.5292</ele>
        <time>2014-07-08T11:32:25Z</time>
      </trkpt>
      <trkpt lat="59.6485996" lon="17.7883099">
        <ele>53.0098</ele>
        <time>2014-07-08T11:32:26Z</time>
      </trkpt>
      <trkpt lat="59.6486431" lon="17.7881772">
        <ele>53.0098</ele>
        <time>2014-07-08T11:32:27Z</time>
      </trkpt>
      <trkpt lat="59.6486866" lon="17.7880473">
        <ele>53.0098</ele>
        <time>2014-07-08T11:32:28Z</time>
      </trkpt>
      <trkpt lat="59.6487285" lon="17.7879171">
        <ele>53.0098</ele>
        <time>2014-07-08T11:32:29Z</time>
      </trkpt>
      <trkpt lat="59.6487689" lon="17.7877866">
        <ele>53.0098</ele>
        <time>2014-07-08T11:32:30Z</time>
      </trkpt>
      <trkpt lat="59.6488103" lon="17.7876563">
        <ele>53.0098</ele>
        <time>2014-07-08T11:32:31Z</time>
      </trkpt>
      <trkpt lat="59.6488517" lon="17.7875296">
        <ele>52.5292</ele>
        <time>2014-07-08T11:32:32Z</time>
      </trkpt>
      <trkpt lat="59.6488936" lon="17.7874027">
        <ele>52.5292</ele>
        <time>2014-07-08T11:32:33Z</time>
      </trkpt>
      <trkpt lat="59.6489355" lon="17.7872753">
        <ele>52.5292</ele>
        <time>2014-07-08T11:32:34Z</time>
      </trkpt>
      <trkpt lat="59.6489772" lon="17.787149">
        <ele>52.5292</ele>
        <time>2014-07-08T11:32:35Z</time>
      </trkpt>
      <trkpt lat="59.6490186" lon="17.787022">
        <ele>52.5292</ele>
        <time>2014-07-08T11:32:36Z</time>
      </trkpt>
      <trkpt lat="59.6490595" lon="17.786894">
        <ele>52.0486</ele>
        <time>2014-07-08T11:32:37Z</time>
      </trkpt>
      <trkpt lat="59.6490995" lon="17.7867639">
        <ele>52.0486</ele>
        <time>2014-07-08T11:32:38Z</time>
      </trkpt>
      <trkpt lat="59.6491391" lon="17.7866337">
        <ele>52.0486</ele>
        <time>2014-07-08T11:32:39Z</time>
      </trkpt>
      <trkpt lat="59.64918" lon="17.7865066">
        <ele>52.0486</ele>
        <time>2014-07-08T11:32:40Z</time>
      </trkpt>
      <trkpt lat="59.6492211" lon="17.7863807">
        <ele>52.0486</ele>
        <time>2014-07-08T11:32:41Z</time>
      </trkpt>
      <trkpt lat="59.6492625" lon="17.7862547">
        <ele>51.5679</ele>
        <time>2014-07-08T11:32:42Z</time>
      </trkpt>
      <trkpt lat="59.6493046" lon="17.7861286">
        <ele>51.5679</ele>
        <time>2014-07-08T11:32:43Z</time>
      </trkpt>
      <trkpt lat="59.6493458" lon="17.7860006">
        <ele>51.5679</ele>
        <time>2014-07-08T11:32:44Z</time>
      </trkpt>
      <trkpt lat="59.6493862" lon="17.7858705">
        <ele>51.5679</ele>
        <time>2014-07-08T11:32:45Z</time>
      </trkpt>
      <trkpt lat="59.6494269" lon="17.7857433">
        <ele>51.0872</ele>
        <time>2014-07-08T11:32:46Z</time>
      </trkpt>
      <trkpt lat="59.6494682" lon="17.7856143">
        <ele>51.0872</ele>
        <time>2014-07-08T11:32:47Z</time>
      </trkpt>
      <trkpt lat="59.6495086" lon="17.7854824">
        <ele>51.0872</ele>
        <time>2014-07-08T11:32:48Z</time>
      </trkpt>
      <trkpt lat="59.6495504" lon="17.785349">
        <ele>50.6066</ele>
        <time>2014-07-08T11:32:49Z</time>
      </trkpt>
      <trkpt lat="59.6495937" lon="17.7852154">
        <ele>50.6066</ele>
        <time>2014-07-08T11:32:50Z</time>
      </trkpt>
      <trkpt lat="59.6496371" lon="17.7850775">
        <ele>50.6066</ele>
        <time>2014-07-08T11:32:51Z</time>
      </trkpt>
      <trkpt lat="59.6496805" lon="17.7849409">
        <ele>50.126</ele>
        <time>2014-07-08T11:32:52Z</time>
      </trkpt>
      <trkpt lat="59.6497252" lon="17.7847953">
        <ele>50.6066</ele>
        <time>2014-07-08T11:32:53Z</time>
      </trkpt>
      <trkpt lat="59.6497704" lon="17.7846551">
        <ele>50.126</ele>
        <time>2014-07-08T11:32:54Z</time>
      </trkpt>
      <trkpt lat="59.6498153" lon="17.7845142">
        <ele>50.126</ele>
        <time>2014-07-08T11:32:55Z</time>
      </trkpt>
      <trkpt lat="59.6498609" lon="17.7843734">
        <ele>49.6453</ele>
        <time>2014-07-08T11:32:56Z</time>
      </trkpt>
      <trkpt lat="59.649907" lon="17.7842278">
        <ele>49.6453</ele>
        <time>2014-07-08T11:32:57Z</time>
      </trkpt>
      <trkpt lat="59.6499542" lon="17.7840806">
        <ele>49.1646</ele>
        <time>2014-07-08T11:32:58Z</time>
      </trkpt>
      <trkpt lat="59.6500018" lon="17.7839353">
        <ele>49.1646</ele>
        <time>2014-07-08T11:32:59Z</time>
      </trkpt>
      <trkpt lat="59.6500501" lon="17.7837892">
        <ele>48.684</ele>
        <time>2014-07-08T11:33:00Z</time>
      </trkpt>
      <trkpt lat="59.6500983" lon="17.7836369">
        <ele>48.684</ele>
        <time>2014-07-08T11:33:01Z</time>
      </trkpt>
      <trkpt lat="59.6501469" lon="17.7834861">
        <ele>48.2034</ele>
        <time>2014-07-08T11:33:02Z</time>
      </trkpt>
      <trkpt lat="59.6501966" lon="17.7833355">
        <ele>48.2034</ele>
        <time>2014-07-08T11:33:03Z</time>
      </trkpt>
      <trkpt lat="59.6502461" lon="17.7831801">
        <ele>48.2034</ele>
        <time>2014-07-08T11:33:04Z</time>
      </trkpt>
      <trkpt lat="59.6502961" lon="17.7830267">
        <ele>48.2034</ele>
        <time>2014-07-08T11:33:05Z</time>
      </trkpt>
      <trkpt lat="59.6503467" lon="17.782869">
        <ele>47.7225</ele>
        <time>2014-07-08T11:33:06Z</time>
      </trkpt>
      <trkpt lat="59.6503981" lon="17.7827108">
        <ele>47.7225</ele>
        <time>2014-07-08T11:33:07Z</time>
      </trkpt>
      <trkpt lat="59.650449" lon="17.7825542">
        <ele>47.2418</ele>
        <time>2014-07-08T11:33:08Z</time>
      </trkpt>
      <trkpt lat="59.650501" lon="17.782391">
        <ele>47.2418</ele>
        <time>2014-07-08T11:33:09Z</time>
      </trkpt>
      <trkpt lat="59.6505515" lon="17.7822387">
        <ele>47.2418</ele>
        <time>2014-07-08T11:33:10Z</time>
      </trkpt>
      <trkpt lat="59.6506011" lon="17.7820785">
        <ele>47.2418</ele>
        <time>2014-07-08T11:33:11Z</time>
      </trkpt>
      <trkpt lat="59.6506545" lon="17.7819134">
        <ele>46.7612</ele>
        <time>2014-07-08T11:33:12Z</time>
      </trkpt>
      <trkpt lat="59.6507113" lon="17.7817451">
        <ele>46.7612</ele>
        <time>2014-07-08T11:33:13Z</time>
      </trkpt>
      <trkpt lat="59.650767" lon="17.7815774">
        <ele>46.2806</ele>
        <time>2014-07-08T11:33:14Z</time>
      </trkpt>
      <trkpt lat="59.6508239" lon="17.7814051">
        <ele>46.2806</ele>
        <time>2014-07-08T11:33:15Z</time>
      </trkpt>
      <trkpt lat="59.6508832" lon="17.7812337">
        <ele>45.7999</ele>
        <time>2014-07-08T11:33:16Z</time>
      </trkpt>
      <trkpt lat="59.6509456" lon="17.7810597">
        <ele>45.3192</ele>
        <time>2014-07-08T11:33:17Z</time>
      </trkpt>
      <trkpt lat="59.6510104" lon="17.7808853">
        <ele>44.8386</ele>
        <time>2014-07-08T11:33:18Z</time>
      </trkpt>
      <trkpt lat="59.6510775" lon="17.780708">
        <ele>44.358</ele>
        <time>2014-07-08T11:33:19Z</time>
      </trkpt>
      <trkpt lat="59.6511459" lon="17.78053">
        <ele>43.3966</ele>
        <time>2014-07-08T11:33:20Z</time>
      </trkpt>
      <trkpt lat="59.6512156" lon="17.7803444">
        <ele>42.916</ele>
        <time>2014-07-08T11:33:21Z</time>
      </trkpt>
      <trkpt lat="59.6512873" lon="17.7801569">
        <ele>42.4354</ele>
        <time>2014-07-08T11:33:22Z</time>
      </trkpt>
      <trkpt lat="59.6513593" lon="17.7799682">
        <ele>41.9547</ele>
        <time>2014-07-08T11:33:23Z</time>
      </trkpt>
      <trkpt lat="59.6514321" lon="17.7797771">
        <ele>41.474</ele>
        <time>2014-07-08T11:33:24Z</time>
      </trkpt>
      <trkpt lat="59.651505" lon="17.7795874">
        <ele>40.9934</ele>
        <time>2014-07-08T11:33:25Z</time>
      </trkpt>
      <trkpt lat="59.6515776" lon="17.779398">
        <ele>40.5128</ele>
        <time>2014-07-08T11:33:26Z</time>
      </trkpt>
      <trkpt lat="59.6516499" lon="17.7792059">
        <ele>39.5513</ele>
        <time>2014-07-08T11:33:27Z</time>
      </trkpt>
      <trkpt lat="59.6517224" lon="17.7790127">
        <ele>39.0707</ele>
        <time>2014-07-08T11:33:28Z</time>
      </trkpt>
      <trkpt lat="59.6517946" lon="17.7788205">
        <ele>38.5901</ele>
        <time>2014-07-08T11:33:29Z</time>
      </trkpt>
      <trkpt lat="59.6518665" lon="17.7786247">
        <ele>38.1094</ele>
        <time>2014-07-08T11:33:30Z</time>
      </trkpt>
      <trkpt lat="59.6519386" lon="17.7784396">
        <ele>37.6287</ele>
        <time>2014-07-08T11:33:31Z</time>
      </trkpt>
      <trkpt lat="59.6520104" lon="17.7782527">
        <ele>36.6675</ele>
        <time>2014-07-08T11:33:32Z</time>
      </trkpt>
      <trkpt lat="59.6520828" lon="17.7780621">
        <ele>36.1868</ele>
        <time>2014-07-08T11:33:33Z</time>
      </trkpt>
      <trkpt lat="59.6521557" lon="17.7778695">
        <ele>35.7061</ele>
        <time>2014-07-08T11:33:34Z</time>
      </trkpt>
      <trkpt lat="59.6522293" lon="17.7776838">
        <ele>35.2255</ele>
        <time>2014-07-08T11:33:35Z</time>
      </trkpt>
      <trkpt lat="59.6523029" lon="17.7775006">
        <ele>34.2642</ele>
        <time>2014-07-08T11:33:36Z</time>
      </trkpt>
      <trkpt lat="59.6523763" lon="17.7773146">
        <ele>33.3029</ele>
        <time>2014-07-08T11:33:37Z</time>
      </trkpt>
      <trkpt lat="59.6524499" lon="17.7771266">
        <ele>32.8223</ele>
        <time>2014-07-08T11:33:38Z</time>
      </trkpt>
      <trkpt lat="59.6525239" lon="17.7769375">
        <ele>31.8607</ele>
        <time>2014-07-08T11:33:39Z</time>
      </trkpt>
      <trkpt lat="59.6525991" lon="17.7767458">
        <ele>31.3801</ele>
        <time>2014-07-08T11:33:40Z</time>
      </trkpt>
      <trkpt lat="59.6526756" lon="17.7765526">
        <ele>30.4188</ele>
        <time>2014-07-08T11:33:41Z</time>
      </trkpt>
      <trkpt lat="59.6527505" lon="17.7763589">
        <ele>29.9381</ele>
        <time>2014-07-08T11:33:42Z</time>
      </trkpt>
      <trkpt lat="59.6528239" lon="17.776164">
        <ele>29.4575</ele>
        <time>2014-07-08T11:33:43Z</time>
      </trkpt>
      <trkpt lat="59.6528963" lon="17.7759705">
        <ele>28.4962</ele>
        <time>2014-07-08T11:33:44Z</time>
      </trkpt>
      <trkpt lat="59.6529669" lon="17.775776">
        <ele>28.0155</ele>
        <time>2014-07-08T11:33:45Z</time>
      </trkpt>
      <trkpt lat="59.6530353" lon="17.7755786">
        <ele>27.0543</ele>
        <time>2014-07-08T11:33:46Z</time>
      </trkpt>
      <trkpt lat="59.6531011" lon="17.7753761">
        <ele>26.5736</ele>
        <time>2014-07-08T11:33:47Z</time>
      </trkpt>
      <trkpt lat="59.6531642" lon="17.7751684">
        <ele>26.0929</ele>
        <time>2014-07-08T11:33:48Z</time>
      </trkpt>
      <trkpt lat="59.6532247" lon="17.7749566">
        <ele>25.1317</ele>
        <time>2014-07-08T11:33:49Z</time>
      </trkpt>
      <trkpt lat="59.6532823" lon="17.7747395">
        <ele>24.1703</ele>
        <time>2014-07-08T11:33:50Z</time>
      </trkpt>
      <trkpt lat="59.6533371" lon="17.7745177">
        <ele>23.6896</ele>
        <time>2014-07-08T11:33:51Z</time>
      </trkpt>
      <trkpt lat="59.6533896" lon="17.7742928">
        <ele>22.7283</ele>
        <time>2014-07-08T11:33:52Z</time>
      </trkpt>
      <trkpt lat="59.6534394" lon="17.7740637">
        <ele>21.767</ele>
        <time>2014-07-08T11:33:53Z</time>
      </trkpt>
      <trkpt lat="59.6534855" lon="17.7738313">
        <ele>21.2864</ele>
        <time>2014-07-08T11:33:54Z</time>
      </trkpt>
      <trkpt lat="59.6535269" lon="17.7735958">
        <ele>20.325</ele>
        <time>2014-07-08T11:33:55Z</time>
      </trkpt>
      <trkpt lat="59.6535643" lon="17.7733586">
        <ele>19.8444</ele>
        <time>2014-07-08T11:33:56Z</time>
      </trkpt>
      <trkpt lat="59.6535988" lon="17.7731185">
        <ele>18.8831</ele>
        <time>2014-07-08T11:33:57Z</time>
      </trkpt>
      <trkpt lat="59.6536305" lon="17.7728731">
        <ele>17.9218</ele>
        <time>2014-07-08T11:33:58Z</time>
      </trkpt>
      <trkpt lat="59.6536595" lon="17.7726223">
        <ele>17.4412</ele>
        <time>2014-07-08T11:33:59Z</time>
      </trkpt>
      <trkpt lat="59.6536868" lon="17.7723665">
        <ele>16.4797</ele>
        <time>2014-07-08T11:34:00Z</time>
      </trkpt>
      <trkpt lat="59.6537128" lon="17.7721065">
        <ele>15.5184</ele>
        <time>2014-07-08T11:34:01Z</time>
      </trkpt>
      <trkpt lat="59.6537382" lon="17.771843">
        <ele>14.557</ele>
        <time>2014-07-08T11:34:02Z</time>
      </trkpt>
      <trkpt lat="59.6537623" lon="17.7715776">
        <ele>13.5958</ele>
        <time>2014-07-08T11:34:03Z</time>
      </trkpt>
      <trkpt lat="59.6537867" lon="17.7713151">
        <ele>13.1151</ele>
        <time>2014-07-08T11:34:04Z</time>
      </trkpt>
      <trkpt lat="59.6538112" lon="17.7710556">
        <ele>13.1151</ele>
        <time>2014-07-08T11:34:05Z</time>
      </trkpt>
      <trkpt lat="59.6538354" lon="17.7708017">
        <ele>12.6344</ele>
        <time>2014-07-08T11:34:06Z</time>
      </trkpt>
      <trkpt lat="59.6538587" lon="17.7705549">
        <ele>12.6344</ele>
        <time>2014-07-08T11:34:07Z</time>
      </trkpt>
      <trkpt lat="59.6538815" lon="17.7703161">
        <ele>12.6344</ele>
        <time>2014-07-08T11:34:08Z</time>
      </trkpt>
      <trkpt lat="59.653904" lon="17.770085">
        <ele>12.6344</ele>
        <time>2014-07-08T11:34:09Z</time>
      </trkpt>
      <trkpt lat="59.6539266" lon="17.7698621">
        <ele>12.6344</ele>
        <time>2014-07-08T11:34:10Z</time>
      </trkpt>
      <trkpt lat="59.6539485" lon="17.7696469">
        <ele>13.1151</ele>
        <time>2014-07-08T11:34:11Z</time>
      </trkpt>
      <trkpt lat="59.6539703" lon="17.7694389">
        <ele>13.1151</ele>
        <time>2014-07-08T11:34:12Z</time>
      </trkpt>
      <trkpt lat="59.6539925" lon="17.7692381">
        <ele>13.1151</ele>
        <time>2014-07-08T11:34:13Z</time>
      </trkpt>
      <trkpt lat="59.6540148" lon="17.7690433">
        <ele>13.5958</ele>
        <time>2014-07-08T11:34:14Z</time>
      </trkpt>
      <trkpt lat="59.6540361" lon="17.7688539">
        <ele>13.5958</ele>
        <time>2014-07-08T11:34:15Z</time>
      </trkpt>
      <trkpt lat="59.6540573" lon="17.7686705">
        <ele>13.5958</ele>
        <time>2014-07-08T11:34:16Z</time>
      </trkpt>
      <trkpt lat="59.6540787" lon="17.7684924">
        <ele>13.5958</ele>
        <time>2014-07-08T11:34:17Z</time>
      </trkpt>
      <trkpt lat="59.6540997" lon="17.7683186">
        <ele>14.0764</ele>
        <time>2014-07-08T11:34:18Z</time>
      </trkpt>
      <trkpt lat="59.6541204" lon="17.7681489">
        <ele>14.0764</ele>
        <time>2014-07-08T11:34:19Z</time>
      </trkpt>
      <trkpt lat="59.6541417" lon="17.7679827">
        <ele>14.0764</ele>
        <time>2014-07-08T11:34:20Z</time>
      </trkpt>
      <trkpt lat="59.654164" lon="17.7678184">
        <ele>14.0764</ele>
        <time>2014-07-08T11:34:21Z</time>
      </trkpt>
      <trkpt lat="59.6541874" lon="17.7676547">
        <ele>14.0764</ele>
        <time>2014-07-08T11:34:22Z</time>
      </trkpt>
      <trkpt lat="59.6542122" lon="17.7674916">
        <ele>13.5958</ele>
        <time>2014-07-08T11:34:23Z</time>
      </trkpt>
      <trkpt lat="59.6542377" lon="17.7673277">
        <ele>13.5958</ele>
        <time>2014-07-08T11:34:24Z</time>
      </trkpt>
      <trkpt lat="59.6542638" lon="17.7671624">
        <ele>13.5958</ele>
        <time>2014-07-08T11:34:25Z</time>
      </trkpt>
      <trkpt lat="59.654291" lon="17.7669964">
        <ele>13.5958</ele>
        <time>2014-07-08T11:34:26Z</time>
      </trkpt>
      <trkpt lat="59.6543209" lon="17.7668311">
        <ele>13.5958</ele>
        <time>2014-07-08T11:34:27Z</time>
      </trkpt>
      <trkpt lat="59.6543531" lon="17.7666669">
        <ele>13.5958</ele>
        <time>2014-07-08T11:34:28Z</time>
      </trkpt>
      <trkpt lat="59.6543868" lon="17.7665028">
        <ele>13.5958</ele>
        <time>2014-07-08T11:34:29Z</time>
      </trkpt>
      <trkpt lat="59.6544209" lon="17.7663379">
        <ele>13.1151</ele>
        <time>2014-07-08T11:34:30Z</time>
      </trkpt>
      <trkpt lat="59.6544563" lon="17.7661713">
        <ele>13.1151</ele>
        <time>2014-07-08T11:34:31Z</time>
      </trkpt>
      <trkpt lat="59.6544933" lon="17.7660045">
        <ele>13.1151</ele>
        <time>2014-07-08T11:34:32Z</time>
      </trkpt>
      <trkpt lat="59.6545331" lon="17.7658397">
        <ele>13.1151</ele>
        <time>2014-07-08T11:34:33Z</time>
      </trkpt>
      <trkpt lat="59.6545758" lon="17.7656766">
        <ele>13.1151</ele>
        <time>2014-07-08T11:34:34Z</time>
      </trkpt>
      <trkpt lat="59.6546197" lon="17.7655134">
        <ele>13.1151</ele>
        <time>2014-07-08T11:34:35Z</time>
      </trkpt>
      <trkpt lat="59.6546644" lon="17.7653495">
        <ele>13.1151</ele>
        <time>2014-07-08T11:34:36Z</time>
      </trkpt>
      <trkpt lat="59.65471" lon="17.7651842">
        <ele>13.1151</ele>
        <time>2014-07-08T11:34:37Z</time>
      </trkpt>
      <trkpt lat="59.6547562" lon="17.7650189">
        <ele>13.1151</ele>
        <time>2014-07-08T11:34:38Z</time>
      </trkpt>
      <trkpt lat="59.6548041" lon="17.7648537">
        <ele>13.5958</ele>
        <time>2014-07-08T11:34:39Z</time>
      </trkpt>
      <trkpt lat="59.6548536" lon="17.7646901">
        <ele>13.5958</ele>
        <time>2014-07-08T11:34:40Z</time>
      </trkpt>
      <trkpt lat="59.6549052" lon="17.7645289">
        <ele>13.5958</ele>
        <time>2014-07-08T11:34:41Z</time>
      </trkpt>
      <trkpt lat="59.6549581" lon="17.764369">
        <ele>13.5958</ele>
        <time>2014-07-08T11:34:42Z</time>
      </trkpt>
      <trkpt lat="59.6550125" lon="17.76421">
        <ele>13.5958</ele>
        <time>2014-07-08T11:34:43Z</time>
      </trkpt>
      <trkpt lat="59.655069" lon="17.7640521">
        <ele>13.5958</ele>
        <time>2014-07-08T11:34:44Z</time>
      </trkpt>
      <trkpt lat="59.6551278" lon="17.7638969">
        <ele>13.5958</ele>
        <time>2014-07-08T11:34:45Z</time>
      </trkpt>
      <trkpt lat="59.6551872" lon="17.7637433">
        <ele>13.5958</ele>
        <time>2014-07-08T11:34:46Z</time>
      </trkpt>
      <trkpt lat="59.6552462" lon="17.7635911">
        <ele>13.5958</ele>
        <time>2014-07-08T11:34:47Z</time>
      </trkpt>
      <trkpt lat="59.6553056" lon="17.7634428">
        <ele>13.5958</ele>
        <time>2014-07-08T11:34:48Z</time>
      </trkpt>
      <trkpt lat="59.6553648" lon="17.7632988">
        <ele>14.0764</ele>
        <time>2014-07-08T11:34:49Z</time>
      </trkpt>
      <trkpt lat="59.6554227" lon="17.7631594">
        <ele>14.0764</ele>
        <time>2014-07-08T11:34:50Z</time>
      </trkpt>
      <trkpt lat="59.6554801" lon="17.7630258">
        <ele>14.0764</ele>
        <time>2014-07-08T11:34:51Z</time>
      </trkpt>
      <trkpt lat="59.6555377" lon="17.7628984">
        <ele>14.0764</ele>
        <time>2014-07-08T11:34:52Z</time>
      </trkpt>
      <trkpt lat="59.6555948" lon="17.7627761">
        <ele>14.0764</ele>
        <time>2014-07-08T11:34:53Z</time>
      </trkpt>
      <trkpt lat="59.6556508" lon="17.7626591">
        <ele>14.0764</ele>
        <time>2014-07-08T11:34:54Z</time>
      </trkpt>
      <trkpt lat="59.6557061" lon="17.762549">
        <ele>14.0764</ele>
        <time>2014-07-08T11:34:55Z</time>
      </trkpt>
      <trkpt lat="59.6557611" lon="17.7624424">
        <ele>14.557</ele>
        <time>2014-07-08T11:34:56Z</time>
      </trkpt>
      <trkpt lat="59.655815" lon="17.7623374">
        <ele>14.557</ele>
        <time>2014-07-08T11:34:57Z</time>
      </trkpt>
      <trkpt lat="59.6558684" lon="17.7622337">
        <ele>14.557</ele>
        <time>2014-07-08T11:34:58Z</time>
      </trkpt>
      <trkpt lat="59.6559232" lon="17.7621328">
        <ele>14.557</ele>
        <time>2014-07-08T11:34:59Z</time>
      </trkpt>
      <trkpt lat="59.6559791" lon="17.7620353">
        <ele>14.557</ele>
        <time>2014-07-08T11:35:00Z</time>
      </trkpt>
      <trkpt lat="59.6560345" lon="17.7619393">
        <ele>14.557</ele>
        <time>2014-07-08T11:35:01Z</time>
      </trkpt>
      <trkpt lat="59.6560893" lon="17.7618421">
        <ele>15.0377</ele>
        <time>2014-07-08T11:35:02Z</time>
      </trkpt>
      <trkpt lat="59.6561438" lon="17.7617444">
        <ele>15.0377</ele>
        <time>2014-07-08T11:35:03Z</time>
      </trkpt>
      <trkpt lat="59.6561993" lon="17.7616472">
        <ele>14.557</ele>
        <time>2014-07-08T11:35:04Z</time>
      </trkpt>
      <trkpt lat="59.6562555" lon="17.7615494">
        <ele>14.557</ele>
        <time>2014-07-08T11:35:05Z</time>
      </trkpt>
      <trkpt lat="59.6563108" lon="17.761448">
        <ele>14.557</ele>
        <time>2014-07-08T11:35:06Z</time>
      </trkpt>
      <trkpt lat="59.6563671" lon="17.7613468">
        <ele>14.557</ele>
        <time>2014-07-08T11:35:07Z</time>
      </trkpt>
      <trkpt lat="59.656425" lon="17.761245">
        <ele>14.557</ele>
        <time>2014-07-08T11:35:08Z</time>
      </trkpt>
      <trkpt lat="59.6564831" lon="17.7611408">
        <ele>14.557</ele>
        <time>2014-07-08T11:35:09Z</time>
      </trkpt>
      <trkpt lat="59.6565417" lon="17.7610368">
        <ele>14.0764</ele>
        <time>2014-07-08T11:35:10Z</time>
      </trkpt>
      <trkpt lat="59.6566" lon="17.7609336">
        <ele>14.0764</ele>
        <time>2014-07-08T11:35:11Z</time>
      </trkpt>
      <trkpt lat="59.6566577" lon="17.7608308">
        <ele>14.0764</ele>
        <time>2014-07-08T11:35:12Z</time>
      </trkpt>
      <trkpt lat="59.6567156" lon="17.7607282">
        <ele>14.0764</ele>
        <time>2014-07-08T11:35:13Z</time>
      </trkpt>
      <trkpt lat="59.6567737" lon="17.7606227">
        <ele>14.0764</ele>
        <time>2014-07-08T11:35:14Z</time>
      </trkpt>
      <trkpt lat="59.6568321" lon="17.7605154">
        <ele>14.0764</ele>
        <time>2014-07-08T11:35:15Z</time>
      </trkpt>
      <trkpt lat="59.6568916" lon="17.7604072">
        <ele>13.5958</ele>
        <time>2014-07-08T11:35:16Z</time>
      </trkpt>
      <trkpt lat="59.6569518" lon="17.7602974">
        <ele>13.5958</ele>
        <time>2014-07-08T11:35:17Z</time>
      </trkpt>
      <trkpt lat="59.6570121" lon="17.760184">
        <ele>13.5958</ele>
        <time>2014-07-08T11:35:18Z</time>
      </trkpt>
      <trkpt lat="59.6570721" lon="17.7600674">
        <ele>13.5958</ele>
        <time>2014-07-08T11:35:19Z</time>
      </trkpt>
      <trkpt lat="59.6571312" lon="17.7599479">
        <ele>13.5958</ele>
        <time>2014-07-08T11:35:20Z</time>
      </trkpt>
      <trkpt lat="59.6571898" lon="17.7598259">
        <ele>13.1151</ele>
        <time>2014-07-08T11:35:21Z</time>
      </trkpt>
      <trkpt lat="59.657248" lon="17.7597007">
        <ele>13.1151</ele>
        <time>2014-07-08T11:35:22Z</time>
      </trkpt>
      <trkpt lat="59.6573055" lon="17.7595717">
        <ele>13.1151</ele>
        <time>2014-07-08T11:35:23Z</time>
      </trkpt>
      <trkpt lat="59.6573622" lon="17.7594396">
        <ele>13.1151</ele>
        <time>2014-07-08T11:35:24Z</time>
      </trkpt>
      <trkpt lat="59.6574176" lon="17.7593063">
        <ele>12.6344</ele>
        <time>2014-07-08T11:35:25Z</time>
      </trkpt>
      <trkpt lat="59.657472" lon="17.7591723">
        <ele>12.6344</ele>
        <time>2014-07-08T11:35:26Z</time>
      </trkpt>
      <trkpt lat="59.6575254" lon="17.7590382">
        <ele>12.6344</ele>
        <time>2014-07-08T11:35:27Z</time>
      </trkpt>
      <trkpt lat="59.6575775" lon="17.7589076">
        <ele>12.6344</ele>
        <time>2014-07-08T11:35:28Z</time>
      </trkpt>
      <trkpt lat="59.6576274" lon="17.7587792">
        <ele>12.1538</ele>
        <time>2014-07-08T11:35:29Z</time>
      </trkpt>
      <trkpt lat="59.6576761" lon="17.7586512">
        <ele>12.1538</ele>
        <time>2014-07-08T11:35:30Z</time>
      </trkpt>
      <trkpt lat="59.6577242" lon="17.7585246">
        <ele>12.1538</ele>
        <time>2014-07-08T11:35:31Z</time>
      </trkpt>
      <trkpt lat="59.6577725" lon="17.7583979">
        <ele>12.1538</ele>
        <time>2014-07-08T11:35:32Z</time>
      </trkpt>
      <trkpt lat="59.6578218" lon="17.7582694">
        <ele>12.1538</ele>
        <time>2014-07-08T11:35:33Z</time>
      </trkpt>
      <trkpt lat="59.6578724" lon="17.7581394">
        <ele>11.6732</ele>
        <time>2014-07-08T11:35:34Z</time>
      </trkpt>
      <trkpt lat="59.6579233" lon="17.7580069">
        <ele>11.6732</ele>
        <time>2014-07-08T11:35:35Z</time>
      </trkpt>
      <trkpt lat="59.6579751" lon="17.7578727">
        <ele>11.6732</ele>
        <time>2014-07-08T11:35:36Z</time>
      </trkpt>
      <trkpt lat="59.6580279" lon="17.7577376">
        <ele>11.1925</ele>
        <time>2014-07-08T11:35:37Z</time>
      </trkpt>
      <trkpt lat="59.6580813" lon="17.7576002">
        <ele>11.1925</ele>
        <time>2014-07-08T11:35:38Z</time>
      </trkpt>
      <trkpt lat="59.6581346" lon="17.757462">
        <ele>11.1925</ele>
        <time>2014-07-08T11:35:39Z</time>
      </trkpt>
      <trkpt lat="59.6581872" lon="17.7573247">
        <ele>11.1925</ele>
        <time>2014-07-08T11:35:40Z</time>
      </trkpt>
      <trkpt lat="59.6582391" lon="17.7571897">
        <ele>11.1925</ele>
        <time>2014-07-08T11:35:41Z</time>
      </trkpt>
      <trkpt lat="59.6582906" lon="17.7570551">
        <ele>10.7118</ele>
        <time>2014-07-08T11:35:42Z</time>
      </trkpt>
      <trkpt lat="59.6583434" lon="17.7569193">
        <ele>10.7118</ele>
        <time>2014-07-08T11:35:43Z</time>
      </trkpt>
      <trkpt lat="59.658397" lon="17.756781">
        <ele>10.7118</ele>
        <time>2014-07-08T11:35:44Z</time>
      </trkpt>
      <trkpt lat="59.6584515" lon="17.7566407">
        <ele>10.7118</ele>
        <time>2014-07-08T11:35:45Z</time>
      </trkpt>
      <trkpt lat="59.6585073" lon="17.7564994">
        <ele>10.7118</ele>
        <time>2014-07-08T11:35:46Z</time>
      </trkpt>
      <trkpt lat="59.6585628" lon="17.7563568">
        <ele>10.2312</ele>
        <time>2014-07-08T11:35:47Z</time>
      </trkpt>
      <trkpt lat="59.6586179" lon="17.7562148">
        <ele>10.2312</ele>
        <time>2014-07-08T11:35:48Z</time>
      </trkpt>
      <trkpt lat="59.6586728" lon="17.7560742">
        <ele>10.2312</ele>
        <time>2014-07-08T11:35:49Z</time>
      </trkpt>
      <trkpt lat="59.6587275" lon="17.7559344">
        <ele>10.2312</ele>
        <time>2014-07-08T11:35:50Z</time>
      </trkpt>
      <trkpt lat="59.6587829" lon="17.7557965">
        <ele>10.2312</ele>
        <time>2014-07-08T11:35:51Z</time>
      </trkpt>
      <trkpt lat="59.6588404" lon="17.7556592">
        <ele>10.2312</ele>
        <time>2014-07-08T11:35:52Z</time>
      </trkpt>
      <trkpt lat="59.6589" lon="17.7555228">
        <ele>10.2312</ele>
        <time>2014-07-08T11:35:53Z</time>
      </trkpt>
      <trkpt lat="59.6589616" lon="17.7553883">
        <ele>10.2312</ele>
        <time>2014-07-08T11:35:54Z</time>
      </trkpt>
      <trkpt lat="59.659025" lon="17.755255">
        <ele>10.2312</ele>
        <time>2014-07-08T11:35:55Z</time>
      </trkpt>
      <trkpt lat="59.6590886" lon="17.7551226">
        <ele>10.2312</ele>
        <time>2014-07-08T11:35:56Z</time>
      </trkpt>
      <trkpt lat="59.6591514" lon="17.7549925">
        <ele>10.2312</ele>
        <time>2014-07-08T11:35:57Z</time>
      </trkpt>
      <trkpt lat="59.6592139" lon="17.7548626">
        <ele>10.2312</ele>
        <time>2014-07-08T11:35:58Z</time>
      </trkpt>
      <trkpt lat="59.6592774" lon="17.7547398">
        <ele>10.2312</ele>
        <time>2014-07-08T11:35:59Z</time>
      </trkpt>
      <trkpt lat="59.6593426" lon="17.754621">
        <ele>10.2312</ele>
        <time>2014-07-08T11:36:00Z</time>
      </trkpt>
      <trkpt lat="59.6594098" lon="17.7545047">
        <ele>10.2312</ele>
        <time>2014-07-08T11:36:01Z</time>
      </trkpt>
      <trkpt lat="59.6594788" lon="17.7543914">
        <ele>10.7118</ele>
        <time>2014-07-08T11:36:02Z</time>
      </trkpt>
      <trkpt lat="59.6595485" lon="17.7542796">
        <ele>10.7118</ele>
        <time>2014-07-08T11:36:03Z</time>
      </trkpt>
      <trkpt lat="59.6596181" lon="17.7541684">
        <ele>10.7118</ele>
        <time>2014-07-08T11:36:04Z</time>
      </trkpt>
      <trkpt lat="59.6596881" lon="17.7540575">
        <ele>10.7118</ele>
        <time>2014-07-08T11:36:05Z</time>
      </trkpt>
      <trkpt lat="59.659758" lon="17.7539499">
        <ele>10.7118</ele>
        <time>2014-07-08T11:36:06Z</time>
      </trkpt>
      <trkpt lat="59.6598272" lon="17.7538451">
        <ele>10.7118</ele>
        <time>2014-07-08T11:36:07Z</time>
      </trkpt>
      <trkpt lat="59.6598958" lon="17.7537436">
        <ele>10.7118</ele>
        <time>2014-07-08T11:36:08Z</time>
      </trkpt>
      <trkpt lat="59.6599634" lon="17.7536435">
        <ele>10.7118</ele>
        <time>2014-07-08T11:36:09Z</time>
      </trkpt>
      <trkpt lat="59.6600305" lon="17.7535424">
        <ele>10.7118</ele>
        <time>2014-07-08T11:36:10Z</time>
      </trkpt>
      <trkpt lat="59.6600988" lon="17.753442">
        <ele>10.7118</ele>
        <time>2014-07-08T11:36:11Z</time>
      </trkpt>
      <trkpt lat="59.6601665" lon="17.7533425">
        <ele>10.7118</ele>
        <time>2014-07-08T11:36:12Z</time>
      </trkpt>
      <trkpt lat="59.660233" lon="17.753244">
        <ele>10.7118</ele>
        <time>2014-07-08T11:36:13Z</time>
      </trkpt>
      <trkpt lat="59.6602998" lon="17.7531463">
        <ele>10.7118</ele>
        <time>2014-07-08T11:36:14Z</time>
      </trkpt>
      <trkpt lat="59.6603672" lon="17.7530478">
        <ele>10.7118</ele>
        <time>2014-07-08T11:36:15Z</time>
      </trkpt>
      <trkpt lat="59.6604345" lon="17.7529484">
        <ele>10.7118</ele>
        <time>2014-07-08T11:36:16Z</time>
      </trkpt>
      <trkpt lat="59.6605013" lon="17.7528494">
        <ele>10.7118</ele>
        <time>2014-07-08T11:36:17Z</time>
      </trkpt>
      <trkpt lat="59.6605667" lon="17.7527521">
        <ele>10.7118</ele>
        <time>2014-07-08T11:36:18Z</time>
      </trkpt>
      <trkpt lat="59.6606322" lon="17.7526573">
        <ele>10.7118</ele>
        <time>2014-07-08T11:36:19Z</time>
      </trkpt>
      <trkpt lat="59.6606982" lon="17.7525625">
        <ele>10.7118</ele>
        <time>2014-07-08T11:36:20Z</time>
      </trkpt>
      <trkpt lat="59.6607651" lon="17.7524686">
        <ele>10.7118</ele>
        <time>2014-07-08T11:36:21Z</time>
      </trkpt>
      <trkpt lat="59.6608333" lon="17.7523739">
        <ele>10.7118</ele>
        <time>2014-07-08T11:36:22Z</time>
      </trkpt>
      <trkpt lat="59.6609016" lon="17.7522771">
        <ele>10.7118</ele>
        <time>2014-07-08T11:36:23Z</time>
      </trkpt>
      <trkpt lat="59.6609689" lon="17.7521807">
        <ele>10.7118</ele>
        <time>2014-07-08T11:36:24Z</time>
      </trkpt>
      <trkpt lat="59.6610363" lon="17.7520866">
        <ele>10.7118</ele>
        <time>2014-07-08T11:36:25Z</time>
      </trkpt>
      <trkpt lat="59.6611048" lon="17.7519942">
        <ele>10.7118</ele>
        <time>2014-07-08T11:36:26Z</time>
      </trkpt>
      <trkpt lat="59.6611746" lon="17.7519027">
        <ele>10.7118</ele>
        <time>2014-07-08T11:36:27Z</time>
      </trkpt>
      <trkpt lat="59.6612447" lon="17.7518133">
        <ele>10.7118</ele>
        <time>2014-07-08T11:36:28Z</time>
      </trkpt>
      <trkpt lat="59.6613151" lon="17.7517254">
        <ele>10.7118</ele>
        <time>2014-07-08T11:36:29Z</time>
      </trkpt>
      <trkpt lat="59.6613861" lon="17.7516405">
        <ele>11.1925</ele>
        <time>2014-07-08T11:36:30Z</time>
      </trkpt>
      <trkpt lat="59.6614579" lon="17.7515607">
        <ele>11.1925</ele>
        <time>2014-07-08T11:36:31Z</time>
      </trkpt>
      <trkpt lat="59.6615301" lon="17.7514844">
        <ele>11.1925</ele>
        <time>2014-07-08T11:36:32Z</time>
      </trkpt>
      <trkpt lat="59.6616017" lon="17.7514106">
        <ele>11.1925</ele>
        <time>2014-07-08T11:36:33Z</time>
      </trkpt>
      <trkpt lat="59.6616722" lon="17.7513384">
        <ele>11.1925</ele>
        <time>2014-07-08T11:36:34Z</time>
      </trkpt>
      <trkpt lat="59.6617425" lon="17.7512663">
        <ele>11.1925</ele>
        <time>2014-07-08T11:36:35Z</time>
      </trkpt>
      <trkpt lat="59.6618134" lon="17.7511955">
        <ele>11.6732</ele>
        <time>2014-07-08T11:36:36Z</time>
      </trkpt>
      <trkpt lat="59.6618849" lon="17.7511265">
        <ele>11.6732</ele>
        <time>2014-07-08T11:36:37Z</time>
      </trkpt>
      <trkpt lat="59.6619568" lon="17.7510581">
        <ele>11.6732</ele>
        <time>2014-07-08T11:36:38Z</time>
      </trkpt>
      <trkpt lat="59.6620282" lon="17.7509893">
        <ele>11.6732</ele>
        <time>2014-07-08T11:36:39Z</time>
      </trkpt>
      <trkpt lat="59.662099" lon="17.7509194">
        <ele>11.6732</ele>
        <time>2014-07-08T11:36:40Z</time>
      </trkpt>
      <trkpt lat="59.66217" lon="17.7508505">
        <ele>11.6732</ele>
        <time>2014-07-08T11:36:41Z</time>
      </trkpt>
      <trkpt lat="59.6622414" lon="17.7507821">
        <ele>11.6732</ele>
        <time>2014-07-08T11:36:42Z</time>
      </trkpt>
      <trkpt lat="59.6623132" lon="17.7507127">
        <ele>11.1925</ele>
        <time>2014-07-08T11:36:43Z</time>
      </trkpt>
      <trkpt lat="59.6623849" lon="17.7506433">
        <ele>11.1925</ele>
        <time>2014-07-08T11:36:44Z</time>
      </trkpt>
      <trkpt lat="59.6624563" lon="17.7505739">
        <ele>11.1925</ele>
        <time>2014-07-08T11:36:45Z</time>
      </trkpt>
      <trkpt lat="59.6625278" lon="17.7505035">
        <ele>11.1925</ele>
        <time>2014-07-08T11:36:46Z</time>
      </trkpt>
      <trkpt lat="59.662601" lon="17.7504336">
        <ele>11.1925</ele>
        <time>2014-07-08T11:36:47Z</time>
      </trkpt>
      <trkpt lat="59.6626759" lon="17.7503644">
        <ele>11.1925</ele>
        <time>2014-07-08T11:36:48Z</time>
      </trkpt>
      <trkpt lat="59.6627517" lon="17.7502953">
        <ele>11.1925</ele>
        <time>2014-07-08T11:36:49Z</time>
      </trkpt>
      <trkpt lat="59.6628282" lon="17.7502279">
        <ele>11.1925</ele>
        <time>2014-07-08T11:36:50Z</time>
      </trkpt>
      <trkpt lat="59.662904" lon="17.7501617">
        <ele>11.1925</ele>
        <time>2014-07-08T11:36:51Z</time>
      </trkpt>
      <trkpt lat="59.66298" lon="17.7500953">
        <ele>11.1925</ele>
        <time>2014-07-08T11:36:52Z</time>
      </trkpt>
      <trkpt lat="59.6630572" lon="17.7500295">
        <ele>11.1925</ele>
        <time>2014-07-08T11:36:53Z</time>
      </trkpt>
      <trkpt lat="59.6631357" lon="17.7499648">
        <ele>11.1925</ele>
        <time>2014-07-08T11:36:54Z</time>
      </trkpt>
      <trkpt lat="59.6632146" lon="17.749901">
        <ele>11.1925</ele>
        <time>2014-07-08T11:36:55Z</time>
      </trkpt>
      <trkpt lat="59.6632942" lon="17.7498366">
        <ele>11.1925</ele>
        <time>2014-07-08T11:36:56Z</time>
      </trkpt>
      <trkpt lat="59.6633747" lon="17.749773">
        <ele>11.1925</ele>
        <time>2014-07-08T11:36:57Z</time>
      </trkpt>
      <trkpt lat="59.6634548" lon="17.7497102">
        <ele>11.1925</ele>
        <time>2014-07-08T11:36:58Z</time>
      </trkpt>
      <trkpt lat="59.6635337" lon="17.7496471">
        <ele>11.1925</ele>
        <time>2014-07-08T11:36:59Z</time>
      </trkpt>
      <trkpt lat="59.6636123" lon="17.749584">
        <ele>11.1925</ele>
        <time>2014-07-08T11:37:00Z</time>
      </trkpt>
      <trkpt lat="59.663691" lon="17.7495218">
        <ele>11.1925</ele>
        <time>2014-07-08T11:37:01Z</time>
      </trkpt>
      <trkpt lat="59.6637691" lon="17.7494602">
        <ele>11.1925</ele>
        <time>2014-07-08T11:37:02Z</time>
      </trkpt>
      <trkpt lat="59.6638461" lon="17.7493988">
        <ele>11.1925</ele>
        <time>2014-07-08T11:37:03Z</time>
      </trkpt>
      <trkpt lat="59.6639223" lon="17.7493391">
        <ele>11.1925</ele>
        <time>2014-07-08T11:37:04Z</time>
      </trkpt>
      <trkpt lat="59.6639991" lon="17.7492824">
        <ele>11.1925</ele>
        <time>2014-07-08T11:37:05Z</time>
      </trkpt>
      <trkpt lat="59.6640768" lon="17.7492254">
        <ele>11.1925</ele>
        <time>2014-07-08T11:37:06Z</time>
      </trkpt>
      <trkpt lat="59.6641549" lon="17.7491665">
        <ele>11.1925</ele>
        <time>2014-07-08T11:37:07Z</time>
      </trkpt>
      <trkpt lat="59.6642335" lon="17.7491063">
        <ele>11.1925</ele>
        <time>2014-07-08T11:37:08Z</time>
      </trkpt>
      <trkpt lat="59.6643119" lon="17.7490437">
        <ele>11.1925</ele>
        <time>2014-07-08T11:37:09Z</time>
      </trkpt>
      <trkpt lat="59.6643899" lon="17.7489792">
        <ele>11.1925</ele>
        <time>2014-07-08T11:37:10Z</time>
      </trkpt>
      <trkpt lat="59.6644682" lon="17.7489146">
        <ele>11.1925</ele>
        <time>2014-07-08T11:37:11Z</time>
      </trkpt>
      <trkpt lat="59.6645468" lon="17.7488511">
        <ele>11.1925</ele>
        <time>2014-07-08T11:37:12Z</time>
      </trkpt>
      <trkpt lat="59.6646252" lon="17.7487877">
        <ele>11.1925</ele>
        <time>2014-07-08T11:37:13Z</time>
      </trkpt>
      <trkpt lat="59.664704" lon="17.7487268">
        <ele>11.1925</ele>
        <time>2014-07-08T11:37:14Z</time>
      </trkpt>
      <trkpt lat="59.6647832" lon="17.7486681">
        <ele>11.1925</ele>
        <time>2014-07-08T11:37:15Z</time>
      </trkpt>
      <trkpt lat="59.6648626" lon="17.748608">
        <ele>11.1925</ele>
        <time>2014-07-08T11:37:16Z</time>
      </trkpt>
      <trkpt lat="59.6649421" lon="17.7485472">
        <ele>11.1925</ele>
        <time>2014-07-08T11:37:17Z</time>
      </trkpt>
      <trkpt lat="59.6650205" lon="17.7484846">
        <ele>11.1925</ele>
        <time>2014-07-08T11:37:18Z</time>
      </trkpt>
      <trkpt lat="59.6650981" lon="17.748421">
        <ele>11.1925</ele>
        <time>2014-07-08T11:37:19Z</time>
      </trkpt>
      <trkpt lat="59.6651755" lon="17.7483573">
        <ele>11.1925</ele>
        <time>2014-07-08T11:37:20Z</time>
      </trkpt>
      <trkpt lat="59.6652536" lon="17.7482921">
        <ele>11.1925</ele>
        <time>2014-07-08T11:37:21Z</time>
      </trkpt>
      <trkpt lat="59.6653317" lon="17.7482248">
        <ele>11.1925</ele>
        <time>2014-07-08T11:37:22Z</time>
      </trkpt>
      <trkpt lat="59.665409" lon="17.7481572">
        <ele>10.7118</ele>
        <time>2014-07-08T11:37:23Z</time>
      </trkpt>
      <trkpt lat="59.6654856" lon="17.7480889">
        <ele>10.7118</ele>
        <time>2014-07-08T11:37:24Z</time>
      </trkpt>
      <trkpt lat="59.6655606" lon="17.7480181">
        <ele>10.7118</ele>
        <time>2014-07-08T11:37:25Z</time>
      </trkpt>
      <trkpt lat="59.6656353" lon="17.747946">
        <ele>10.7118</ele>
        <time>2014-07-08T11:37:26Z</time>
      </trkpt>
      <trkpt lat="59.6657104" lon="17.7478731">
        <ele>10.7118</ele>
        <time>2014-07-08T11:37:27Z</time>
      </trkpt>
      <trkpt lat="59.6657849" lon="17.7477989">
        <ele>10.7118</ele>
        <time>2014-07-08T11:37:28Z</time>
      </trkpt>
      <trkpt lat="59.6658594" lon="17.7477246">
        <ele>10.7118</ele>
        <time>2014-07-08T11:37:29Z</time>
      </trkpt>
      <trkpt lat="59.6659337" lon="17.7476504">
        <ele>10.7118</ele>
        <time>2014-07-08T11:37:30Z</time>
      </trkpt>
      <trkpt lat="59.6660078" lon="17.7475766">
        <ele>10.7118</ele>
        <time>2014-07-08T11:37:31Z</time>
      </trkpt>
      <trkpt lat="59.6660814" lon="17.7475025">
        <ele>10.7118</ele>
        <time>2014-07-08T11:37:32Z</time>
      </trkpt>
      <trkpt lat="59.6661539" lon="17.7474268">
        <ele>10.7118</ele>
        <time>2014-07-08T11:37:33Z</time>
      </trkpt>
      <trkpt lat="59.6662254" lon="17.7473509">
        <ele>10.7118</ele>
        <time>2014-07-08T11:37:34Z</time>
      </trkpt>
      <trkpt lat="59.6662958" lon="17.7472757">
        <ele>10.7118</ele>
        <time>2014-07-08T11:37:35Z</time>
      </trkpt>
      <trkpt lat="59.6663645" lon="17.747199">
        <ele>10.7118</ele>
        <time>2014-07-08T11:37:36Z</time>
      </trkpt>
      <trkpt lat="59.6664321" lon="17.7471229">
        <ele>10.7118</ele>
        <time>2014-07-08T11:37:37Z</time>
      </trkpt>
      <trkpt lat="59.6664995" lon="17.7470479">
        <ele>10.7118</ele>
        <time>2014-07-08T11:37:38Z</time>
      </trkpt>
      <trkpt lat="59.6665662" lon="17.7469746">
        <ele>10.7118</ele>
        <time>2014-07-08T11:37:39Z</time>
      </trkpt>
      <trkpt lat="59.666632" lon="17.7469032">
        <ele>10.7118</ele>
        <time>2014-07-08T11:37:40Z</time>
      </trkpt>
      <trkpt lat="59.6666989" lon="17.7468301">
        <ele>10.7118</ele>
        <time>2014-07-08T11:37:41Z</time>
      </trkpt>
      <trkpt lat="59.6667673" lon="17.7467541">
        <ele>10.7118</ele>
        <time>2014-07-08T11:37:42Z</time>
      </trkpt>
      <trkpt lat="59.6668377" lon="17.7466778">
        <ele>11.1925</ele>
        <time>2014-07-08T11:37:43Z</time>
      </trkpt>
      <trkpt lat="59.6669081" lon="17.7466043">
        <ele>11.1925</ele>
        <time>2014-07-08T11:37:44Z</time>
      </trkpt>
      <trkpt lat="59.6669774" lon="17.7465356">
        <ele>11.1925</ele>
        <time>2014-07-08T11:37:45Z</time>
      </trkpt>
      <trkpt lat="59.6670464" lon="17.7464697">
        <ele>11.1925</ele>
        <time>2014-07-08T11:37:46Z</time>
      </trkpt>
      <trkpt lat="59.6671162" lon="17.7464058">
        <ele>11.1925</ele>
        <time>2014-07-08T11:37:47Z</time>
      </trkpt>
      <trkpt lat="59.6671866" lon="17.7463433">
        <ele>11.1925</ele>
        <time>2014-07-08T11:37:48Z</time>
      </trkpt>
      <trkpt lat="59.6672577" lon="17.7462828">
        <ele>11.1925</ele>
        <time>2014-07-08T11:37:49Z</time>
      </trkpt>
      <trkpt lat="59.6673293" lon="17.7462247">
        <ele>11.1925</ele>
        <time>2014-07-08T11:37:50Z</time>
      </trkpt>
      <trkpt lat="59.6674012" lon="17.7461651">
        <ele>11.1925</ele>
        <time>2014-07-08T11:37:51Z</time>
      </trkpt>
      <trkpt lat="59.6674732" lon="17.7461075">
        <ele>11.1925</ele>
        <time>2014-07-08T11:37:52Z</time>
      </trkpt>
      <trkpt lat="59.6675457" lon="17.7460542">
        <ele>11.6732</ele>
        <time>2014-07-08T11:37:53Z</time>
      </trkpt>
      <trkpt lat="59.6676183" lon="17.7460026">
        <ele>11.6732</ele>
        <time>2014-07-08T11:37:54Z</time>
      </trkpt>
      <trkpt lat="59.6676913" lon="17.7459549">
        <ele>11.6732</ele>
        <time>2014-07-08T11:37:55Z</time>
      </trkpt>
      <trkpt lat="59.6677643" lon="17.7459066">
        <ele>11.6732</ele>
        <time>2014-07-08T11:37:56Z</time>
      </trkpt>
      <trkpt lat="59.667837" lon="17.7458608">
        <ele>11.6732</ele>
        <time>2014-07-08T11:37:57Z</time>
      </trkpt>
      <trkpt lat="59.6679089" lon="17.7458137">
        <ele>11.6732</ele>
        <time>2014-07-08T11:37:58Z</time>
      </trkpt>
      <trkpt lat="59.6679799" lon="17.7457661">
        <ele>11.6732</ele>
        <time>2014-07-08T11:37:59Z</time>
      </trkpt>
      <trkpt lat="59.6680507" lon="17.7457197">
        <ele>11.6732</ele>
        <time>2014-07-08T11:38:00Z</time>
      </trkpt>
      <trkpt lat="59.6681214" lon="17.7456731">
        <ele>11.6732</ele>
        <time>2014-07-08T11:38:01Z</time>
      </trkpt>
      <trkpt lat="59.6681921" lon="17.7456246">
        <ele>11.6732</ele>
        <time>2014-07-08T11:38:02Z</time>
      </trkpt>
      <trkpt lat="59.6682627" lon="17.7455736">
        <ele>11.6732</ele>
        <time>2014-07-08T11:38:03Z</time>
      </trkpt>
      <trkpt lat="59.6683333" lon="17.7455202">
        <ele>11.6732</ele>
        <time>2014-07-08T11:38:04Z</time>
      </trkpt>
      <trkpt lat="59.6684041" lon="17.7454654">
        <ele>11.6732</ele>
        <time>2014-07-08T11:38:05Z</time>
      </trkpt>
      <trkpt lat="59.6684752" lon="17.74541">
        <ele>11.6732</ele>
        <time>2014-07-08T11:38:06Z</time>
      </trkpt>
      <trkpt lat="59.6685464" lon="17.7453524">
        <ele>11.6732</ele>
        <time>2014-07-08T11:38:07Z</time>
      </trkpt>
      <trkpt lat="59.6686178" lon="17.7452928">
        <ele>11.6732</ele>
        <time>2014-07-08T11:38:08Z</time>
      </trkpt>
      <trkpt lat="59.6686896" lon="17.7452311">
        <ele>11.6732</ele>
        <time>2014-07-08T11:38:09Z</time>
      </trkpt>
      <trkpt lat="59.6687622" lon="17.7451689">
        <ele>11.1925</ele>
        <time>2014-07-08T11:38:10Z</time>
      </trkpt>
      <trkpt lat="59.6688351" lon="17.7451051">
        <ele>11.1925</ele>
        <time>2014-07-08T11:38:11Z</time>
      </trkpt>
      <trkpt lat="59.6689082" lon="17.7450388">
        <ele>11.1925</ele>
        <time>2014-07-08T11:38:12Z</time>
      </trkpt>
      <trkpt lat="59.6689821" lon="17.7449719">
        <ele>11.1925</ele>
        <time>2014-07-08T11:38:13Z</time>
      </trkpt>
      <trkpt lat="59.6690566" lon="17.7449052">
        <ele>11.1925</ele>
        <time>2014-07-08T11:38:14Z</time>
      </trkpt>
      <trkpt lat="59.6691314" lon="17.744838">
        <ele>11.1925</ele>
        <time>2014-07-08T11:38:15Z</time>
      </trkpt>
      <trkpt lat="59.6692066" lon="17.7447695">
        <ele>11.1925</ele>
        <time>2014-07-08T11:38:16Z</time>
      </trkpt>
      <trkpt lat="59.6692816" lon="17.7447007">
        <ele>11.1925</ele>
        <time>2014-07-08T11:38:17Z</time>
      </trkpt>
      <trkpt lat="59.6693555" lon="17.7446308">
        <ele>11.1925</ele>
        <time>2014-07-08T11:38:18Z</time>
      </trkpt>
      <trkpt lat="59.6694296" lon="17.7445611">
        <ele>11.1925</ele>
        <time>2014-07-08T11:38:19Z</time>
      </trkpt>
      <trkpt lat="59.6695045" lon="17.7444922">
        <ele>11.1925</ele>
        <time>2014-07-08T11:38:20Z</time>
      </trkpt>
      <trkpt lat="59.6695801" lon="17.7444215">
        <ele>11.1925</ele>
        <time>2014-07-08T11:38:21Z</time>
      </trkpt>
      <trkpt lat="59.6696562" lon="17.7443486">
        <ele>10.7118</ele>
        <time>2014-07-08T11:38:22Z</time>
      </trkpt>
      <trkpt lat="59.6697327" lon="17.7442744">
        <ele>10.7118</ele>
        <time>2014-07-08T11:38:23Z</time>
      </trkpt>
      <trkpt lat="59.6698093" lon="17.7441997">
        <ele>10.7118</ele>
        <time>2014-07-08T11:38:24Z</time>
      </trkpt>
      <trkpt lat="59.6698856" lon="17.7441248">
        <ele>10.7118</ele>
        <time>2014-07-08T11:38:25Z</time>
      </trkpt>
      <trkpt lat="59.6699611" lon="17.7440481">
        <ele>10.7118</ele>
        <time>2014-07-08T11:38:26Z</time>
      </trkpt>
      <trkpt lat="59.6700359" lon="17.7439697">
        <ele>10.2312</ele>
        <time>2014-07-08T11:38:27Z</time>
      </trkpt>
      <trkpt lat="59.6701108" lon="17.743889">
        <ele>10.2312</ele>
        <time>2014-07-08T11:38:28Z</time>
      </trkpt>
      <trkpt lat="59.6701866" lon="17.7438066">
        <ele>10.2312</ele>
        <time>2014-07-08T11:38:29Z</time>
      </trkpt>
      <trkpt lat="59.6702641" lon="17.7437233">
        <ele>10.2312</ele>
        <time>2014-07-08T11:38:30Z</time>
      </trkpt>
      <trkpt lat="59.6703415" lon="17.7436372">
        <ele>9.75061</ele>
        <time>2014-07-08T11:38:31Z</time>
      </trkpt>
      <trkpt lat="59.6704181" lon="17.7435502">
        <ele>9.75061</ele>
        <time>2014-07-08T11:38:32Z</time>
      </trkpt>
      <trkpt lat="59.6704948" lon="17.7434652">
        <ele>9.75061</ele>
        <time>2014-07-08T11:38:33Z</time>
      </trkpt>
      <trkpt lat="59.6705715" lon="17.7433809">
        <ele>9.75061</ele>
        <time>2014-07-08T11:38:34Z</time>
      </trkpt>
      <trkpt lat="59.6706475" lon="17.7432948">
        <ele>9.75061</ele>
        <time>2014-07-08T11:38:35Z</time>
      </trkpt>
      <trkpt lat="59.6707227" lon="17.7432081">
        <ele>9.75061</ele>
        <time>2014-07-08T11:38:36Z</time>
      </trkpt>
      <trkpt lat="59.6707966" lon="17.7431227">
        <ele>9.75061</ele>
        <time>2014-07-08T11:38:37Z</time>
      </trkpt>
      <trkpt lat="59.6708692" lon="17.7430385">
        <ele>9.75061</ele>
        <time>2014-07-08T11:38:38Z</time>
      </trkpt>
      <trkpt lat="59.6709407" lon="17.7429556">
        <ele>9.75061</ele>
        <time>2014-07-08T11:38:39Z</time>
      </trkpt>
      <trkpt lat="59.6710113" lon="17.742873">
        <ele>9.75061</ele>
        <time>2014-07-08T11:38:40Z</time>
      </trkpt>
      <trkpt lat="59.6710813" lon="17.742789">
        <ele>9.75061</ele>
        <time>2014-07-08T11:38:41Z</time>
      </trkpt>
      <trkpt lat="59.6711509" lon="17.7427046">
        <ele>9.75061</ele>
        <time>2014-07-08T11:38:42Z</time>
      </trkpt>
      <trkpt lat="59.6712194" lon="17.7426198">
        <ele>9.2699</ele>
        <time>2014-07-08T11:38:43Z</time>
      </trkpt>
      <trkpt lat="59.6712863" lon="17.7425348">
        <ele>9.2699</ele>
        <time>2014-07-08T11:38:44Z</time>
      </trkpt>
      <trkpt lat="59.6713529" lon="17.742452">
        <ele>9.2699</ele>
        <time>2014-07-08T11:38:45Z</time>
      </trkpt>
      <trkpt lat="59.6714182" lon="17.7423664">
        <ele>9.2699</ele>
        <time>2014-07-08T11:38:46Z</time>
      </trkpt>
      <trkpt lat="59.6714821" lon="17.7422784">
        <ele>9.2699</ele>
        <time>2014-07-08T11:38:47Z</time>
      </trkpt>
      <trkpt lat="59.6715473" lon="17.742194">
        <ele>9.2699</ele>
        <time>2014-07-08T11:38:48Z</time>
      </trkpt>
      <trkpt lat="59.6716142" lon="17.7421139">
        <ele>9.2699</ele>
        <time>2014-07-08T11:38:49Z</time>
      </trkpt>
      <trkpt lat="59.6716814" lon="17.7420339">
        <ele>9.75061</ele>
        <time>2014-07-08T11:38:50Z</time>
      </trkpt>
      <trkpt lat="59.6717477" lon="17.7419497">
        <ele>9.75061</ele>
        <time>2014-07-08T11:38:51Z</time>
      </trkpt>
      <trkpt lat="59.6718138" lon="17.741864">
        <ele>9.75061</ele>
        <time>2014-07-08T11:38:52Z</time>
      </trkpt>
      <trkpt lat="59.671881" lon="17.7417786">
        <ele>9.75061</ele>
        <time>2014-07-08T11:38:53Z</time>
      </trkpt>
      <trkpt lat="59.6719492" lon="17.7416926">
        <ele>9.75061</ele>
        <time>2014-07-08T11:38:54Z</time>
      </trkpt>
      <trkpt lat="59.6720178" lon="17.741606">
        <ele>9.75061</ele>
        <time>2014-07-08T11:38:55Z</time>
      </trkpt>
      <trkpt lat="59.6720866" lon="17.7415186">
        <ele>9.75061</ele>
        <time>2014-07-08T11:38:56Z</time>
      </trkpt>
      <trkpt lat="59.6721548" lon="17.7414289">
        <ele>9.75061</ele>
        <time>2014-07-08T11:38:57Z</time>
      </trkpt>
      <trkpt lat="59.6722222" lon="17.7413373">
        <ele>9.75061</ele>
        <time>2014-07-08T11:38:58Z</time>
      </trkpt>
      <trkpt lat="59.6722897" lon="17.7412456">
        <ele>10.2312</ele>
        <time>2014-07-08T11:38:59Z</time>
      </trkpt>
      <trkpt lat="59.6723576" lon="17.7411559">
        <ele>10.2312</ele>
        <time>2014-07-08T11:39:00Z</time>
      </trkpt>
      <trkpt lat="59.6724255" lon="17.7410674">
        <ele>10.2312</ele>
        <time>2014-07-08T11:39:01Z</time>
      </trkpt>
      <trkpt lat="59.6724922" lon="17.7409793">
        <ele>10.2312</ele>
        <time>2014-07-08T11:39:02Z</time>
      </trkpt>
      <trkpt lat="59.672557" lon="17.7408928">
        <ele>10.2312</ele>
        <time>2014-07-08T11:39:03Z</time>
      </trkpt>
      <trkpt lat="59.6726186" lon="17.7408041">
        <ele>10.2312</ele>
        <time>2014-07-08T11:39:04Z</time>
      </trkpt>
      <trkpt lat="59.672679" lon="17.7407182">
        <ele>10.2312</ele>
        <time>2014-07-08T11:39:05Z</time>
      </trkpt>
      <trkpt lat="59.6727423" lon="17.7406422">
        <ele>10.2312</ele>
        <time>2014-07-08T11:39:06Z</time>
      </trkpt>
      <trkpt lat="59.6728062" lon="17.740567">
        <ele>10.7118</ele>
        <time>2014-07-08T11:39:07Z</time>
      </trkpt>
      <trkpt lat="59.6728689" lon="17.740486">
        <ele>10.7118</ele>
        <time>2014-07-08T11:39:08Z</time>
      </trkpt>
      <trkpt lat="59.6729321" lon="17.7404027">
        <ele>10.7118</ele>
        <time>2014-07-08T11:39:09Z</time>
      </trkpt>
      <trkpt lat="59.6729955" lon="17.7403174">
        <ele>10.7118</ele>
        <time>2014-07-08T11:39:10Z</time>
      </trkpt>
      <trkpt lat="59.6730588" lon="17.7402309">
        <ele>10.7118</ele>
        <time>2014-07-08T11:39:11Z</time>
      </trkpt>
      <trkpt lat="59.6731225" lon="17.7401461">
        <ele>11.1925</ele>
        <time>2014-07-08T11:39:12Z</time>
      </trkpt>
      <trkpt lat="59.6731859" lon="17.7400627">
        <ele>11.1925</ele>
        <time>2014-07-08T11:39:13Z</time>
      </trkpt>
      <trkpt lat="59.6732489" lon="17.7399806">
        <ele>11.1925</ele>
        <time>2014-07-08T11:39:14Z</time>
      </trkpt>
      <trkpt lat="59.6733118" lon="17.7398998">
        <ele>11.1925</ele>
        <time>2014-07-08T11:39:15Z</time>
      </trkpt>
      <trkpt lat="59.6733745" lon="17.7398189">
        <ele>11.6732</ele>
        <time>2014-07-08T11:39:16Z</time>
      </trkpt>
      <trkpt lat="59.6734376" lon="17.7397371">
        <ele>11.6732</ele>
        <time>2014-07-08T11:39:17Z</time>
      </trkpt>
      <trkpt lat="59.6735009" lon="17.7396551">
        <ele>11.6732</ele>
        <time>2014-07-08T11:39:18Z</time>
      </trkpt>
      <trkpt lat="59.6735638" lon="17.7395745">
        <ele>11.6732</ele>
        <time>2014-07-08T11:39:19Z</time>
      </trkpt>
      <trkpt lat="59.673626" lon="17.7394952">
        <ele>11.6732</ele>
        <time>2014-07-08T11:39:20Z</time>
      </trkpt>
      <trkpt lat="59.6736881" lon="17.7394168">
        <ele>11.6732</ele>
        <time>2014-07-08T11:39:21Z</time>
      </trkpt>
      <trkpt lat="59.6737504" lon="17.7393389">
        <ele>11.6732</ele>
        <time>2014-07-08T11:39:22Z</time>
      </trkpt>
      <trkpt lat="59.6738132" lon="17.739262">
        <ele>12.1538</ele>
        <time>2014-07-08T11:39:23Z</time>
      </trkpt>
      <trkpt lat="59.6738764" lon="17.7391873">
        <ele>12.1538</ele>
        <time>2014-07-08T11:39:24Z</time>
      </trkpt>
      <trkpt lat="59.6739394" lon="17.7391129">
        <ele>12.1538</ele>
        <time>2014-07-08T11:39:25Z</time>
      </trkpt>
      <trkpt lat="59.6740012" lon="17.7390388">
        <ele>12.6344</ele>
        <time>2014-07-08T11:39:26Z</time>
      </trkpt>
      <trkpt lat="59.6740626" lon="17.7389668">
        <ele>12.6344</ele>
        <time>2014-07-08T11:39:27Z</time>
      </trkpt>
      <trkpt lat="59.674124" lon="17.7388973">
        <ele>12.6344</ele>
        <time>2014-07-08T11:39:28Z</time>
      </trkpt>
      <trkpt lat="59.6741857" lon="17.7388292">
        <ele>13.1151</ele>
        <time>2014-07-08T11:39:29Z</time>
      </trkpt>
      <trkpt lat="59.6742486" lon="17.7387629">
        <ele>13.1151</ele>
        <time>2014-07-08T11:39:30Z</time>
      </trkpt>
      <trkpt lat="59.674313" lon="17.7386991">
        <ele>13.1151</ele>
        <time>2014-07-08T11:39:31Z</time>
      </trkpt>
      <trkpt lat="59.6743788" lon="17.7386379">
        <ele>13.1151</ele>
        <time>2014-07-08T11:39:32Z</time>
      </trkpt>
      <trkpt lat="59.6744462" lon="17.7385779">
        <ele>13.1151</ele>
        <time>2014-07-08T11:39:33Z</time>
      </trkpt>
      <trkpt lat="59.6745139" lon="17.7385203">
        <ele>13.1151</ele>
        <time>2014-07-08T11:39:34Z</time>
      </trkpt>
      <trkpt lat="59.6745819" lon="17.738465">
        <ele>13.5958</ele>
        <time>2014-07-08T11:39:35Z</time>
      </trkpt>
      <trkpt lat="59.6746509" lon="17.7384132">
        <ele>13.1151</ele>
        <time>2014-07-08T11:39:36Z</time>
      </trkpt>
      <trkpt lat="59.6747213" lon="17.7383638">
        <ele>13.1151</ele>
        <time>2014-07-08T11:39:37Z</time>
      </trkpt>
      <trkpt lat="59.6747936" lon="17.7383153">
        <ele>13.1151</ele>
        <time>2014-07-08T11:39:38Z</time>
      </trkpt>
      <trkpt lat="59.6748646" lon="17.7382655">
        <ele>13.1151</ele>
        <time>2014-07-08T11:39:39Z</time>
      </trkpt>
      <trkpt lat="59.6749368" lon="17.7382157">
        <ele>13.1151</ele>
        <time>2014-07-08T11:39:40Z</time>
      </trkpt>
      <trkpt lat="59.6750118" lon="17.7381664">
        <ele>13.1151</ele>
        <time>2014-07-08T11:39:41Z</time>
      </trkpt>
      <trkpt lat="59.6750869" lon="17.7381159">
        <ele>12.6344</ele>
        <time>2014-07-08T11:39:42Z</time>
      </trkpt>
      <trkpt lat="59.6751636" lon="17.7380638">
        <ele>12.6344</ele>
        <time>2014-07-08T11:39:43Z</time>
      </trkpt>
      <trkpt lat="59.6752422" lon="17.7380106">
        <ele>12.6344</ele>
        <time>2014-07-08T11:39:44Z</time>
      </trkpt>
      <trkpt lat="59.6753227" lon="17.7379572">
        <ele>12.1538</ele>
        <time>2014-07-08T11:39:45Z</time>
      </trkpt>
      <trkpt lat="59.6754053" lon="17.7379018">
        <ele>12.1538</ele>
        <time>2014-07-08T11:39:46Z</time>
      </trkpt>
      <trkpt lat="59.6754888" lon="17.7378444">
        <ele>11.6732</ele>
        <time>2014-07-08T11:39:47Z</time>
      </trkpt>
      <trkpt lat="59.6755718" lon="17.7377873">
        <ele>11.6732</ele>
        <time>2014-07-08T11:39:48Z</time>
      </trkpt>
      <trkpt lat="59.6756542" lon="17.7377319">
        <ele>11.6732</ele>
        <time>2014-07-08T11:39:49Z</time>
      </trkpt>
      <trkpt lat="59.6757361" lon="17.7376769">
        <ele>11.6732</ele>
        <time>2014-07-08T11:39:50Z</time>
      </trkpt>
      <trkpt lat="59.6758177" lon="17.7376209">
        <ele>11.6732</ele>
        <time>2014-07-08T11:39:51Z</time>
      </trkpt>
      <trkpt lat="59.6758988" lon="17.7375646">
        <ele>11.6732</ele>
        <time>2014-07-08T11:39:52Z</time>
      </trkpt>
      <trkpt lat="59.6759801" lon="17.7375101">
        <ele>11.6732</ele>
        <time>2014-07-08T11:39:53Z</time>
      </trkpt>
      <trkpt lat="59.6760616" lon="17.7374553">
        <ele>11.6732</ele>
        <time>2014-07-08T11:39:54Z</time>
      </trkpt>
      <trkpt lat="59.6761428" lon="17.7374009">
        <ele>11.6732</ele>
        <time>2014-07-08T11:39:55Z</time>
      </trkpt>
      <trkpt lat="59.6762244" lon="17.737347">
        <ele>11.6732</ele>
        <time>2014-07-08T11:39:56Z</time>
      </trkpt>
      <trkpt lat="59.6763057" lon="17.7372927">
        <ele>11.6732</ele>
        <time>2014-07-08T11:39:57Z</time>
      </trkpt>
      <trkpt lat="59.6763867" lon="17.7372388">
        <ele>11.6732</ele>
        <time>2014-07-08T11:39:58Z</time>
      </trkpt>
      <trkpt lat="59.676468" lon="17.7371845">
        <ele>11.6732</ele>
        <time>2014-07-08T11:39:59Z</time>
      </trkpt>
      <trkpt lat="59.6765498" lon="17.7371298">
        <ele>11.6732</ele>
        <time>2014-07-08T11:40:00Z</time>
      </trkpt>
      <trkpt lat="59.676631" lon="17.7370746">
        <ele>11.6732</ele>
        <time>2014-07-08T11:40:01Z</time>
      </trkpt>
      <trkpt lat="59.6767114" lon="17.7370197">
        <ele>11.6732</ele>
        <time>2014-07-08T11:40:02Z</time>
      </trkpt>
      <trkpt lat="59.6767911" lon="17.7369659">
        <ele>11.1925</ele>
        <time>2014-07-08T11:40:03Z</time>
      </trkpt>
      <trkpt lat="59.6768701" lon="17.7369127">
        <ele>11.1925</ele>
        <time>2014-07-08T11:40:04Z</time>
      </trkpt>
      <trkpt lat="59.6769495" lon="17.736861">
        <ele>11.1925</ele>
        <time>2014-07-08T11:40:05Z</time>
      </trkpt>
      <trkpt lat="59.6770296" lon="17.7368109">
        <ele>11.1925</ele>
        <time>2014-07-08T11:40:06Z</time>
      </trkpt>
      <trkpt lat="59.6771102" lon="17.73676">
        <ele>11.1925</ele>
        <time>2014-07-08T11:40:07Z</time>
      </trkpt>
      <trkpt lat="59.6771912" lon="17.7367102">
        <ele>10.7118</ele>
        <time>2014-07-08T11:40:08Z</time>
      </trkpt>
      <trkpt lat="59.6772733" lon="17.7366636">
        <ele>11.1925</ele>
        <time>2014-07-08T11:40:09Z</time>
      </trkpt>
      <trkpt lat="59.6773561" lon="17.7366207">
        <ele>11.1925</ele>
        <time>2014-07-08T11:40:10Z</time>
      </trkpt>
      <trkpt lat="59.6774395" lon="17.7365817">
        <ele>11.1925</ele>
        <time>2014-07-08T11:40:11Z</time>
      </trkpt>
      <trkpt lat="59.6775222" lon="17.7365455">
        <ele>11.1925</ele>
        <time>2014-07-08T11:40:12Z</time>
      </trkpt>
      <trkpt lat="59.6776034" lon="17.736512">
        <ele>11.1925</ele>
        <time>2014-07-08T11:40:13Z</time>
      </trkpt>
      <trkpt lat="59.6776828" lon="17.7364825">
        <ele>11.1925</ele>
        <time>2014-07-08T11:40:14Z</time>
      </trkpt>
      <trkpt lat="59.6777618" lon="17.7364566">
        <ele>11.6732</ele>
        <time>2014-07-08T11:40:15Z</time>
      </trkpt>
      <trkpt lat="59.6778401" lon="17.7364326">
        <ele>11.6732</ele>
        <time>2014-07-08T11:40:16Z</time>
      </trkpt>
      <trkpt lat="59.6779182" lon="17.7364089">
        <ele>11.6732</ele>
        <time>2014-07-08T11:40:17Z</time>
      </trkpt>
      <trkpt lat="59.6779967" lon="17.736388">
        <ele>11.6732</ele>
        <time>2014-07-08T11:40:18Z</time>
      </trkpt>
      <trkpt lat="59.6780755" lon="17.7363693">
        <ele>11.6732</ele>
        <time>2014-07-08T11:40:19Z</time>
      </trkpt>
      <trkpt lat="59.6781539" lon="17.736351">
        <ele>11.6732</ele>
        <time>2014-07-08T11:40:20Z</time>
      </trkpt>
      <trkpt lat="59.6782308" lon="17.7363341">
        <ele>12.1538</ele>
        <time>2014-07-08T11:40:21Z</time>
      </trkpt>
      <trkpt lat="59.678306" lon="17.7363192">
        <ele>12.1538</ele>
        <time>2014-07-08T11:40:22Z</time>
      </trkpt>
      <trkpt lat="59.6783794" lon="17.7363063">
        <ele>12.1538</ele>
        <time>2014-07-08T11:40:23Z</time>
      </trkpt>
      <trkpt lat="59.6784514" lon="17.7362924">
        <ele>12.1538</ele>
        <time>2014-07-08T11:40:24Z</time>
      </trkpt>
      <trkpt lat="59.6785228" lon="17.7362759">
        <ele>12.1538</ele>
        <time>2014-07-08T11:40:25Z</time>
      </trkpt>
      <trkpt lat="59.6785938" lon="17.7362609">
        <ele>12.6344</ele>
        <time>2014-07-08T11:40:26Z</time>
      </trkpt>
      <trkpt lat="59.6786646" lon="17.7362489">
        <ele>12.6344</ele>
        <time>2014-07-08T11:40:27Z</time>
      </trkpt>
      <trkpt lat="59.6787354" lon="17.7362384">
        <ele>12.6344</ele>
        <time>2014-07-08T11:40:28Z</time>
      </trkpt>
      <trkpt lat="59.6788068" lon="17.7362292">
        <ele>12.6344</ele>
        <time>2014-07-08T11:40:29Z</time>
      </trkpt>
      <trkpt lat="59.6788788" lon="17.7362214">
        <ele>12.6344</ele>
        <time>2014-07-08T11:40:30Z</time>
      </trkpt>
      <trkpt lat="59.6789509" lon="17.736212">
        <ele>12.6344</ele>
        <time>2014-07-08T11:40:31Z</time>
      </trkpt>
      <trkpt lat="59.6790234" lon="17.7362007">
        <ele>12.6344</ele>
        <time>2014-07-08T11:40:32Z</time>
      </trkpt>
      <trkpt lat="59.6790964" lon="17.7361911">
        <ele>13.1151</ele>
        <time>2014-07-08T11:40:33Z</time>
      </trkpt>
      <trkpt lat="59.6791694" lon="17.7361841">
        <ele>13.1151</ele>
        <time>2014-07-08T11:40:34Z</time>
      </trkpt>
      <trkpt lat="59.6792425" lon="17.7361794">
        <ele>13.1151</ele>
        <time>2014-07-08T11:40:35Z</time>
      </trkpt>
      <trkpt lat="59.6793163" lon="17.7361757">
        <ele>13.1151</ele>
        <time>2014-07-08T11:40:36Z</time>
      </trkpt>
      <trkpt lat="59.6793907" lon="17.7361737">
        <ele>13.1151</ele>
        <time>2014-07-08T11:40:37Z</time>
      </trkpt>
      <trkpt lat="59.6794658" lon="17.7361743">
        <ele>13.1151</ele>
        <time>2014-07-08T11:40:38Z</time>
      </trkpt>
      <trkpt lat="59.6795412" lon="17.7361753">
        <ele>13.1151</ele>
        <time>2014-07-08T11:40:39Z</time>
      </trkpt>
      <trkpt lat="59.679617" lon="17.7361759">
        <ele>13.5958</ele>
        <time>2014-07-08T11:40:40Z</time>
      </trkpt>
      <trkpt lat="59.6796927" lon="17.7361793">
        <ele>13.5958</ele>
        <time>2014-07-08T11:40:41Z</time>
      </trkpt>
      <trkpt lat="59.6797687" lon="17.7361841">
        <ele>13.5958</ele>
        <time>2014-07-08T11:40:42Z</time>
      </trkpt>
      <trkpt lat="59.6798443" lon="17.7361875">
        <ele>13.5958</ele>
        <time>2014-07-08T11:40:43Z</time>
      </trkpt>
      <trkpt lat="59.6799196" lon="17.7361917">
        <ele>13.5958</ele>
        <time>2014-07-08T11:40:44Z</time>
      </trkpt>
      <trkpt lat="59.6799947" lon="17.7361996">
        <ele>13.5958</ele>
        <time>2014-07-08T11:40:45Z</time>
      </trkpt>
      <trkpt lat="59.6800691" lon="17.7362105">
        <ele>13.5958</ele>
        <time>2014-07-08T11:40:46Z</time>
      </trkpt>
      <trkpt lat="59.6801427" lon="17.7362217">
        <ele>14.0764</ele>
        <time>2014-07-08T11:40:47Z</time>
      </trkpt>
      <trkpt lat="59.6802156" lon="17.7362331">
        <ele>14.0764</ele>
        <time>2014-07-08T11:40:48Z</time>
      </trkpt>
      <trkpt lat="59.6802881" lon="17.7362461">
        <ele>14.0764</ele>
        <time>2014-07-08T11:40:49Z</time>
      </trkpt>
      <trkpt lat="59.6803607" lon="17.7362608">
        <ele>14.0764</ele>
        <time>2014-07-08T11:40:50Z</time>
      </trkpt>
      <trkpt lat="59.6804332" lon="17.7362747">
        <ele>14.0764</ele>
        <time>2014-07-08T11:40:51Z</time>
      </trkpt>
      <trkpt lat="59.6805053" lon="17.7362875">
        <ele>14.557</ele>
        <time>2014-07-08T11:40:52Z</time>
      </trkpt>
      <trkpt lat="59.6805771" lon="17.7363016">
        <ele>14.557</ele>
        <time>2014-07-08T11:40:53Z</time>
      </trkpt>
      <trkpt lat="59.6806483" lon="17.7363193">
        <ele>14.557</ele>
        <time>2014-07-08T11:40:54Z</time>
      </trkpt>
      <trkpt lat="59.6807193" lon="17.7363388">
        <ele>14.557</ele>
        <time>2014-07-08T11:40:55Z</time>
      </trkpt>
      <trkpt lat="59.6807895" lon="17.7363586">
        <ele>14.557</ele>
        <time>2014-07-08T11:40:56Z</time>
      </trkpt>
      <trkpt lat="59.6808596" lon="17.736379">
        <ele>14.557</ele>
        <time>2014-07-08T11:40:57Z</time>
      </trkpt>
      <trkpt lat="59.6809292" lon="17.7364006">
        <ele>14.557</ele>
        <time>2014-07-08T11:40:58Z</time>
      </trkpt>
      <trkpt lat="59.6809986" lon="17.7364229">
        <ele>14.557</ele>
        <time>2014-07-08T11:40:59Z</time>
      </trkpt>
      <trkpt lat="59.6810683" lon="17.7364458">
        <ele>15.0377</ele>
        <time>2014-07-08T11:41:00Z</time>
      </trkpt>
      <trkpt lat="59.6811379" lon="17.736469">
        <ele>15.0377</ele>
        <time>2014-07-08T11:41:01Z</time>
      </trkpt>
      <trkpt lat="59.6812079" lon="17.7364926">
        <ele>15.0377</ele>
        <time>2014-07-08T11:41:02Z</time>
      </trkpt>
      <trkpt lat="59.681278" lon="17.7365176">
        <ele>15.0377</ele>
        <time>2014-07-08T11:41:03Z</time>
      </trkpt>
      <trkpt lat="59.6813479" lon="17.7365432">
        <ele>15.0377</ele>
        <time>2014-07-08T11:41:04Z</time>
      </trkpt>
      <trkpt lat="59.681418" lon="17.7365683">
        <ele>15.0377</ele>
        <time>2014-07-08T11:41:05Z</time>
      </trkpt>
      <trkpt lat="59.6814878" lon="17.7365927">
        <ele>15.5184</ele>
        <time>2014-07-08T11:41:06Z</time>
      </trkpt>
      <trkpt lat="59.6815572" lon="17.7366176">
        <ele>15.5184</ele>
        <time>2014-07-08T11:41:07Z</time>
      </trkpt>
      <trkpt lat="59.6816267" lon="17.7366425">
        <ele>15.5184</ele>
        <time>2014-07-08T11:41:08Z</time>
      </trkpt>
      <trkpt lat="59.681696" lon="17.7366679">
        <ele>15.5184</ele>
        <time>2014-07-08T11:41:09Z</time>
      </trkpt>
      <trkpt lat="59.6817647" lon="17.7366938">
        <ele>15.5184</ele>
        <time>2014-07-08T11:41:10Z</time>
      </trkpt>
      <trkpt lat="59.6818334" lon="17.7367191">
        <ele>15.999</ele>
        <time>2014-07-08T11:41:11Z</time>
      </trkpt>
      <trkpt lat="59.6819013" lon="17.7367442">
        <ele>15.999</ele>
        <time>2014-07-08T11:41:12Z</time>
      </trkpt>
      <trkpt lat="59.6819686" lon="17.7367714">
        <ele>15.999</ele>
        <time>2014-07-08T11:41:13Z</time>
      </trkpt>
      <trkpt lat="59.6820355" lon="17.7367983">
        <ele>15.999</ele>
        <time>2014-07-08T11:41:14Z</time>
      </trkpt>
      <trkpt lat="59.6821025" lon="17.7368233">
        <ele>15.999</ele>
        <time>2014-07-08T11:41:15Z</time>
      </trkpt>
      <trkpt lat="59.6821696" lon="17.7368492">
        <ele>15.999</ele>
        <time>2014-07-08T11:41:16Z</time>
      </trkpt>
      <trkpt lat="59.6822372" lon="17.7368746">
        <ele>15.999</ele>
        <time>2014-07-08T11:41:17Z</time>
      </trkpt>
      <trkpt lat="59.6823044" lon="17.7369013">
        <ele>15.999</ele>
        <time>2014-07-08T11:41:18Z</time>
      </trkpt>
      <trkpt lat="59.6823728" lon="17.7369278">
        <ele>15.999</ele>
        <time>2014-07-08T11:41:19Z</time>
      </trkpt>
      <trkpt lat="59.6824416" lon="17.7369549">
        <ele>15.999</ele>
        <time>2014-07-08T11:41:20Z</time>
      </trkpt>
      <trkpt lat="59.6825106" lon="17.7369829">
        <ele>15.999</ele>
        <time>2014-07-08T11:41:21Z</time>
      </trkpt>
      <trkpt lat="59.6825814" lon="17.7370106">
        <ele>15.999</ele>
        <time>2014-07-08T11:41:22Z</time>
      </trkpt>
      <trkpt lat="59.6826534" lon="17.7370383">
        <ele>15.999</ele>
        <time>2014-07-08T11:41:23Z</time>
      </trkpt>
      <trkpt lat="59.682726" lon="17.7370668">
        <ele>15.5184</ele>
        <time>2014-07-08T11:41:24Z</time>
      </trkpt>
      <trkpt lat="59.6827996" lon="17.7370959">
        <ele>15.5184</ele>
        <time>2014-07-08T11:41:25Z</time>
      </trkpt>
      <trkpt lat="59.6828742" lon="17.7371251">
        <ele>15.5184</ele>
        <time>2014-07-08T11:41:26Z</time>
      </trkpt>
      <trkpt lat="59.6829494" lon="17.7371528">
        <ele>15.5184</ele>
        <time>2014-07-08T11:41:27Z</time>
      </trkpt>
      <trkpt lat="59.6830253" lon="17.7371805">
        <ele>15.0377</ele>
        <time>2014-07-08T11:41:28Z</time>
      </trkpt>
      <trkpt lat="59.6831019" lon="17.737209">
        <ele>15.0377</ele>
        <time>2014-07-08T11:41:29Z</time>
      </trkpt>
      <trkpt lat="59.6831789" lon="17.7372382">
        <ele>15.0377</ele>
        <time>2014-07-08T11:41:30Z</time>
      </trkpt>
      <trkpt lat="59.6832568" lon="17.7372694">
        <ele>15.0377</ele>
        <time>2014-07-08T11:41:31Z</time>
      </trkpt>
      <trkpt lat="59.6833352" lon="17.7373017">
        <ele>15.0377</ele>
        <time>2014-07-08T11:41:32Z</time>
      </trkpt>
      <trkpt lat="59.683414" lon="17.7373318">
        <ele>15.0377</ele>
        <time>2014-07-08T11:41:33Z</time>
      </trkpt>
      <trkpt lat="59.6834927" lon="17.7373608">
        <ele>14.557</ele>
        <time>2014-07-08T11:41:34Z</time>
      </trkpt>
      <trkpt lat="59.6835709" lon="17.7373894">
        <ele>14.557</ele>
        <time>2014-07-08T11:41:35Z</time>
      </trkpt>
      <trkpt lat="59.6836481" lon="17.7374173">
        <ele>14.557</ele>
        <time>2014-07-08T11:41:36Z</time>
      </trkpt>
      <trkpt lat="59.6837242" lon="17.7374466">
        <ele>14.557</ele>
        <time>2014-07-08T11:41:37Z</time>
      </trkpt>
      <trkpt lat="59.6837992" lon="17.737477">
        <ele>14.557</ele>
        <time>2014-07-08T11:41:38Z</time>
      </trkpt>
      <trkpt lat="59.6838735" lon="17.7375065">
        <ele>14.557</ele>
        <time>2014-07-08T11:41:39Z</time>
      </trkpt>
      <trkpt lat="59.6839474" lon="17.7375338">
        <ele>14.557</ele>
        <time>2014-07-08T11:41:40Z</time>
      </trkpt>
      <trkpt lat="59.6840201" lon="17.7375608">
        <ele>14.557</ele>
        <time>2014-07-08T11:41:41Z</time>
      </trkpt>
      <trkpt lat="59.6840915" lon="17.7375884">
        <ele>15.0377</ele>
        <time>2014-07-08T11:41:42Z</time>
      </trkpt>
      <trkpt lat="59.6841614" lon="17.7376153">
        <ele>15.0377</ele>
        <time>2014-07-08T11:41:43Z</time>
      </trkpt>
      <trkpt lat="59.6842292" lon="17.7376403">
        <ele>15.0377</ele>
        <time>2014-07-08T11:41:44Z</time>
      </trkpt>
      <trkpt lat="59.6842956" lon="17.7376652">
        <ele>15.0377</ele>
        <time>2014-07-08T11:41:45Z</time>
      </trkpt>
      <trkpt lat="59.684362" lon="17.7376899">
        <ele>15.0377</ele>
        <time>2014-07-08T11:41:46Z</time>
      </trkpt>
      <trkpt lat="59.6844287" lon="17.7377147">
        <ele>15.5184</ele>
        <time>2014-07-08T11:41:47Z</time>
      </trkpt>
      <trkpt lat="59.6844956" lon="17.737741">
        <ele>15.5184</ele>
        <time>2014-07-08T11:41:48Z</time>
      </trkpt>
      <trkpt lat="59.6845633" lon="17.737767">
        <ele>15.5184</ele>
        <time>2014-07-08T11:41:49Z</time>
      </trkpt>
      <trkpt lat="59.6846311" lon="17.737793">
        <ele>15.999</ele>
        <time>2014-07-08T11:41:50Z</time>
      </trkpt>
      <trkpt lat="59.6846992" lon="17.7378189">
        <ele>15.999</ele>
        <time>2014-07-08T11:41:51Z</time>
      </trkpt>
      <trkpt lat="59.6847675" lon="17.7378447">
        <ele>16.4797</ele>
        <time>2014-07-08T11:41:52Z</time>
      </trkpt>
      <trkpt lat="59.6848352" lon="17.7378703">
        <ele>16.4797</ele>
        <time>2014-07-08T11:41:53Z</time>
      </trkpt>
      <trkpt lat="59.6849018" lon="17.7378964">
        <ele>16.9604</ele>
        <time>2014-07-08T11:41:54Z</time>
      </trkpt>
      <trkpt lat="59.6849679" lon="17.737922">
        <ele>16.9604</ele>
        <time>2014-07-08T11:41:55Z</time>
      </trkpt>
      <trkpt lat="59.6850334" lon="17.7379479">
        <ele>16.9604</ele>
        <time>2014-07-08T11:41:56Z</time>
      </trkpt>
      <trkpt lat="59.6850989" lon="17.7379732">
        <ele>17.4412</ele>
        <time>2014-07-08T11:41:57Z</time>
      </trkpt>
      <trkpt lat="59.6851634" lon="17.7379965">
        <ele>17.4412</ele>
        <time>2014-07-08T11:41:58Z</time>
      </trkpt>
      <trkpt lat="59.6852274" lon="17.7380193">
        <ele>17.9218</ele>
        <time>2014-07-08T11:41:59Z</time>
      </trkpt>
      <trkpt lat="59.6852896" lon="17.7380432">
        <ele>18.4023</ele>
        <time>2014-07-08T11:42:00Z</time>
      </trkpt>
      <trkpt lat="59.6853504" lon="17.7380665">
        <ele>18.4023</ele>
        <time>2014-07-08T11:42:01Z</time>
      </trkpt>
      <trkpt lat="59.6854099" lon="17.7380899">
        <ele>18.8831</ele>
        <time>2014-07-08T11:42:02Z</time>
      </trkpt>
      <trkpt lat="59.6854678" lon="17.738111">
        <ele>18.8831</ele>
        <time>2014-07-08T11:42:03Z</time>
      </trkpt>
      <trkpt lat="59.6855252" lon="17.7381292">
        <ele>19.3638</ele>
        <time>2014-07-08T11:42:04Z</time>
      </trkpt>
      <trkpt lat="59.6855822" lon="17.7381453">
        <ele>19.8444</ele>
        <time>2014-07-08T11:42:05Z</time>
      </trkpt>
      <trkpt lat="59.6856378" lon="17.7381619">
        <ele>19.8444</ele>
        <time>2014-07-08T11:42:06Z</time>
      </trkpt>
      <trkpt lat="59.685692" lon="17.7381796">
        <ele>20.325</ele>
        <time>2014-07-08T11:42:07Z</time>
      </trkpt>
      <trkpt lat="59.6857467" lon="17.738196">
        <ele>20.325</ele>
        <time>2014-07-08T11:42:08Z</time>
      </trkpt>
      <trkpt lat="59.6858004" lon="17.7382114">
        <ele>20.8057</ele>
        <time>2014-07-08T11:42:09Z</time>
      </trkpt>
      <trkpt lat="59.6858517" lon="17.7382235">
        <ele>20.8057</ele>
        <time>2014-07-08T11:42:10Z</time>
      </trkpt>
      <trkpt lat="59.6859021" lon="17.7382349">
        <ele>20.8057</ele>
        <time>2014-07-08T11:42:11Z</time>
      </trkpt>
      <trkpt lat="59.6859518" lon="17.7382476">
        <ele>21.2864</ele>
        <time>2014-07-08T11:42:12Z</time>
      </trkpt>
      <trkpt lat="59.6860013" lon="17.7382582">
        <ele>21.2864</ele>
        <time>2014-07-08T11:42:13Z</time>
      </trkpt>
      <trkpt lat="59.6860505" lon="17.7382681">
        <ele>21.2864</ele>
        <time>2014-07-08T11:42:14Z</time>
      </trkpt>
      <trkpt lat="59.6860998" lon="17.7382794">
        <ele>21.2864</ele>
        <time>2014-07-08T11:42:15Z</time>
      </trkpt>
      <trkpt lat="59.6861496" lon="17.7382899">
        <ele>21.767</ele>
        <time>2014-07-08T11:42:16Z</time>
      </trkpt>
      <trkpt lat="59.6862002" lon="17.7382994">
        <ele>21.767</ele>
        <time>2014-07-08T11:42:17Z</time>
      </trkpt>
      <trkpt lat="59.6862516" lon="17.7383104">
        <ele>21.767</ele>
        <time>2014-07-08T11:42:18Z</time>
      </trkpt>
      <trkpt lat="59.6863035" lon="17.7383217">
        <ele>21.767</ele>
        <time>2014-07-08T11:42:19Z</time>
      </trkpt>
      <trkpt lat="59.6863558" lon="17.7383323">
        <ele>21.767</ele>
        <time>2014-07-08T11:42:20Z</time>
      </trkpt>
      <trkpt lat="59.6864077" lon="17.7383443">
        <ele>22.2476</ele>
        <time>2014-07-08T11:42:21Z</time>
      </trkpt>
      <trkpt lat="59.6864591" lon="17.7383569">
        <ele>22.2476</ele>
        <time>2014-07-08T11:42:22Z</time>
      </trkpt>
      <trkpt lat="59.6865092" lon="17.7383663">
        <ele>22.2476</ele>
        <time>2014-07-08T11:42:23Z</time>
      </trkpt>
      <trkpt lat="59.6865587" lon="17.7383759">
        <ele>22.2476</ele>
        <time>2014-07-08T11:42:24Z</time>
      </trkpt>
      <trkpt lat="59.6866086" lon="17.7383872">
        <ele>22.2476</ele>
        <time>2014-07-08T11:42:25Z</time>
      </trkpt>
      <trkpt lat="59.6866597" lon="17.7383965">
        <ele>22.2476</ele>
        <time>2014-07-08T11:42:26Z</time>
      </trkpt>
      <trkpt lat="59.6867114" lon="17.7384046">
        <ele>22.2476</ele>
        <time>2014-07-08T11:42:27Z</time>
      </trkpt>
      <trkpt lat="59.6867638" lon="17.7384136">
        <ele>22.2476</ele>
        <time>2014-07-08T11:42:28Z</time>
      </trkpt>
      <trkpt lat="59.6868171" lon="17.7384239">
        <ele>22.2476</ele>
        <time>2014-07-08T11:42:29Z</time>
      </trkpt>
      <trkpt lat="59.6868715" lon="17.7384353">
        <ele>22.2476</ele>
        <time>2014-07-08T11:42:30Z</time>
      </trkpt>
      <trkpt lat="59.6869264" lon="17.7384466">
        <ele>22.2476</ele>
        <time>2014-07-08T11:42:31Z</time>
      </trkpt>
      <trkpt lat="59.6869816" lon="17.7384575">
        <ele>22.2476</ele>
        <time>2014-07-08T11:42:32Z</time>
      </trkpt>
      <trkpt lat="59.6870374" lon="17.73847">
        <ele>22.2476</ele>
        <time>2014-07-08T11:42:33Z</time>
      </trkpt>
      <trkpt lat="59.6870937" lon="17.7384819">
        <ele>22.2476</ele>
        <time>2014-07-08T11:42:34Z</time>
      </trkpt>
      <trkpt lat="59.6871488" lon="17.7384865">
        <ele>22.2476</ele>
        <time>2014-07-08T11:42:35Z</time>
      </trkpt>
      <trkpt lat="59.6872051" lon="17.738484">
        <ele>22.7283</ele>
        <time>2014-07-08T11:42:36Z</time>
      </trkpt>
      <trkpt lat="59.6872672" lon="17.7384738">
        <ele>22.7283</ele>
        <time>2014-07-08T11:42:37Z</time>
      </trkpt>
      <trkpt lat="59.6873287" lon="17.738469">
        <ele>22.7283</ele>
        <time>2014-07-08T11:42:38Z</time>
      </trkpt>
      <trkpt lat="59.6873919" lon="17.7384825">
        <ele>22.7283</ele>
        <time>2014-07-08T11:42:39Z</time>
      </trkpt>
      <trkpt lat="59.6874569" lon="17.7385016">
        <ele>22.7283</ele>
        <time>2014-07-08T11:42:40Z</time>
      </trkpt>
      <trkpt lat="59.6875203" lon="17.7385144">
        <ele>22.7283</ele>
        <time>2014-07-08T11:42:41Z</time>
      </trkpt>
      <trkpt lat="59.6875834" lon="17.7385266">
        <ele>22.7283</ele>
        <time>2014-07-08T11:42:42Z</time>
      </trkpt>
      <trkpt lat="59.6876461" lon="17.7385403">
        <ele>22.7283</ele>
        <time>2014-07-08T11:42:43Z</time>
      </trkpt>
      <trkpt lat="59.6877084" lon="17.7385538">
        <ele>22.7283</ele>
        <time>2014-07-08T11:42:44Z</time>
      </trkpt>
      <trkpt lat="59.6877714" lon="17.7385674">
        <ele>22.7283</ele>
        <time>2014-07-08T11:42:45Z</time>
      </trkpt>
      <trkpt lat="59.6878346" lon="17.7385833">
        <ele>22.7283</ele>
        <time>2014-07-08T11:42:46Z</time>
      </trkpt>
      <trkpt lat="59.6878982" lon="17.7386001">
        <ele>22.7283</ele>
        <time>2014-07-08T11:42:47Z</time>
      </trkpt>
      <trkpt lat="59.6879619" lon="17.7386149">
        <ele>22.7283</ele>
        <time>2014-07-08T11:42:48Z</time>
      </trkpt>
      <trkpt lat="59.6880256" lon="17.738629">
        <ele>22.7283</ele>
        <time>2014-07-08T11:42:49Z</time>
      </trkpt>
      <trkpt lat="59.6880895" lon="17.7386441">
        <ele>22.7283</ele>
        <time>2014-07-08T11:42:50Z</time>
      </trkpt>
      <trkpt lat="59.6881538" lon="17.738659">
        <ele>22.7283</ele>
        <time>2014-07-08T11:42:51Z</time>
      </trkpt>
      <trkpt lat="59.6882184" lon="17.7386736">
        <ele>22.7283</ele>
        <time>2014-07-08T11:42:52Z</time>
      </trkpt>
      <trkpt lat="59.6882831" lon="17.7386886">
        <ele>22.7283</ele>
        <time>2014-07-08T11:42:53Z</time>
      </trkpt>
      <trkpt lat="59.688348" lon="17.7387027">
        <ele>22.7283</ele>
        <time>2014-07-08T11:42:54Z</time>
      </trkpt>
      <trkpt lat="59.6884134" lon="17.7387173">
        <ele>22.7283</ele>
        <time>2014-07-08T11:42:55Z</time>
      </trkpt>
      <trkpt lat="59.6884795" lon="17.7387328">
        <ele>22.7283</ele>
        <time>2014-07-08T11:42:56Z</time>
      </trkpt>
      <trkpt lat="59.6885454" lon="17.738748">
        <ele>22.7283</ele>
        <time>2014-07-08T11:42:57Z</time>
      </trkpt>
      <trkpt lat="59.6886117" lon="17.738762">
        <ele>22.7283</ele>
        <time>2014-07-08T11:42:58Z</time>
      </trkpt>
      <trkpt lat="59.688678" lon="17.7387763">
        <ele>22.7283</ele>
        <time>2014-07-08T11:42:59Z</time>
      </trkpt>
      <trkpt lat="59.6887447" lon="17.7387907">
        <ele>22.7283</ele>
        <time>2014-07-08T11:43:00Z</time>
      </trkpt>
      <trkpt lat="59.688812" lon="17.738804">
        <ele>23.209</ele>
        <time>2014-07-08T11:43:01Z</time>
      </trkpt>
      <trkpt lat="59.6888803" lon="17.7388176">
        <ele>23.209</ele>
        <time>2014-07-08T11:43:02Z</time>
      </trkpt>
      <trkpt lat="59.6889489" lon="17.7388328">
        <ele>23.209</ele>
        <time>2014-07-08T11:43:03Z</time>
      </trkpt>
      <trkpt lat="59.6890189" lon="17.738847">
        <ele>22.7283</ele>
        <time>2014-07-08T11:43:04Z</time>
      </trkpt>
      <trkpt lat="59.6890894" lon="17.7388612">
        <ele>22.7283</ele>
        <time>2014-07-08T11:43:05Z</time>
      </trkpt>
      <trkpt lat="59.68916" lon="17.7388757">
        <ele>22.7283</ele>
        <time>2014-07-08T11:43:06Z</time>
      </trkpt>
      <trkpt lat="59.6892305" lon="17.7388891">
        <ele>22.7283</ele>
        <time>2014-07-08T11:43:07Z</time>
      </trkpt>
      <trkpt lat="59.6893013" lon="17.7389036">
        <ele>22.7283</ele>
        <time>2014-07-08T11:43:08Z</time>
      </trkpt>
      <trkpt lat="59.6893726" lon="17.7389182">
        <ele>22.7283</ele>
        <time>2014-07-08T11:43:09Z</time>
      </trkpt>
      <trkpt lat="59.6894456" lon="17.7389306">
        <ele>22.2476</ele>
        <time>2014-07-08T11:43:10Z</time>
      </trkpt>
      <trkpt lat="59.6895197" lon="17.7389423">
        <ele>22.2476</ele>
        <time>2014-07-08T11:43:11Z</time>
      </trkpt>
      <trkpt lat="59.6895954" lon="17.7389532">
        <ele>22.2476</ele>
        <time>2014-07-08T11:43:12Z</time>
      </trkpt>
      <trkpt lat="59.6896726" lon="17.7389622">
        <ele>22.2476</ele>
        <time>2014-07-08T11:43:13Z</time>
      </trkpt>
      <trkpt lat="59.6897507" lon="17.7389692">
        <ele>21.767</ele>
        <time>2014-07-08T11:43:14Z</time>
      </trkpt>
      <trkpt lat="59.6898294" lon="17.7389751">
        <ele>21.767</ele>
        <time>2014-07-08T11:43:15Z</time>
      </trkpt>
      <trkpt lat="59.6899083" lon="17.7389808">
        <ele>21.767</ele>
        <time>2014-07-08T11:43:16Z</time>
      </trkpt>
      <trkpt lat="59.689988" lon="17.7389839">
        <ele>21.2864</ele>
        <time>2014-07-08T11:43:17Z</time>
      </trkpt>
      <trkpt lat="59.6900691" lon="17.7389835">
        <ele>21.2864</ele>
        <time>2014-07-08T11:43:18Z</time>
      </trkpt>
      <trkpt lat="59.690152" lon="17.7389803">
        <ele>20.8057</ele>
        <time>2014-07-08T11:43:19Z</time>
      </trkpt>
      <trkpt lat="59.6902366" lon="17.7389731">
        <ele>20.8057</ele>
        <time>2014-07-08T11:43:20Z</time>
      </trkpt>
      <trkpt lat="59.6903221" lon="17.7389618">
        <ele>20.325</ele>
        <time>2014-07-08T11:43:21Z</time>
      </trkpt>
      <trkpt lat="59.690409" lon="17.7389466">
        <ele>20.325</ele>
        <time>2014-07-08T11:43:22Z</time>
      </trkpt>
      <trkpt lat="59.6904971" lon="17.7389273">
        <ele>19.8444</ele>
        <time>2014-07-08T11:43:23Z</time>
      </trkpt>
      <trkpt lat="59.6905869" lon="17.7389052">
        <ele>19.3638</ele>
        <time>2014-07-08T11:43:24Z</time>
      </trkpt>
      <trkpt lat="59.6906785" lon="17.7388803">
        <ele>19.3638</ele>
        <time>2014-07-08T11:43:25Z</time>
      </trkpt>
      <trkpt lat="59.6907716" lon="17.7388522">
        <ele>18.8831</ele>
        <time>2014-07-08T11:43:26Z</time>
      </trkpt>
      <trkpt lat="59.6908656" lon="17.7388206">
        <ele>18.4023</ele>
        <time>2014-07-08T11:43:27Z</time>
      </trkpt>
      <trkpt lat="59.6909606" lon="17.7387871">
        <ele>17.9218</ele>
        <time>2014-07-08T11:43:28Z</time>
      </trkpt>
      <trkpt lat="59.6910563" lon="17.7387513">
        <ele>17.9218</ele>
        <time>2014-07-08T11:43:29Z</time>
      </trkpt>
      <trkpt lat="59.6911529" lon="17.7387125">
        <ele>17.4412</ele>
        <time>2014-07-08T11:43:30Z</time>
      </trkpt>
      <trkpt lat="59.6912502" lon="17.7386716">
        <ele>16.9604</ele>
        <time>2014-07-08T11:43:31Z</time>
      </trkpt>
      <trkpt lat="59.6913482" lon="17.7386299">
        <ele>16.9604</ele>
        <time>2014-07-08T11:43:32Z</time>
      </trkpt>
      <trkpt lat="59.6914465" lon="17.738588">
        <ele>16.4797</ele>
        <time>2014-07-08T11:43:33Z</time>
      </trkpt>
      <trkpt lat="59.691545" lon="17.738547">
        <ele>16.4797</ele>
        <time>2014-07-08T11:43:34Z</time>
      </trkpt>
      <trkpt lat="59.6916436" lon="17.738507">
        <ele>15.999</ele>
        <time>2014-07-08T11:43:35Z</time>
      </trkpt>
      <trkpt lat="59.691742" lon="17.7384662">
        <ele>15.999</ele>
        <time>2014-07-08T11:43:36Z</time>
      </trkpt>
      <trkpt lat="59.69184" lon="17.7384244">
        <ele>15.999</ele>
        <time>2014-07-08T11:43:37Z</time>
      </trkpt>
      <trkpt lat="59.6919378" lon="17.7383834">
        <ele>15.5184</ele>
        <time>2014-07-08T11:43:38Z</time>
      </trkpt>
      <trkpt lat="59.6920351" lon="17.7383433">
        <ele>15.5184</ele>
        <time>2014-07-08T11:43:39Z</time>
      </trkpt>
      <trkpt lat="59.6921316" lon="17.7383034">
        <ele>15.5184</ele>
        <time>2014-07-08T11:43:40Z</time>
      </trkpt>
      <trkpt lat="59.6922279" lon="17.7382623">
        <ele>15.5184</ele>
        <time>2014-07-08T11:43:41Z</time>
      </trkpt>
      <trkpt lat="59.6923227" lon="17.7382209">
        <ele>15.5184</ele>
        <time>2014-07-08T11:43:42Z</time>
      </trkpt>
      <trkpt lat="59.6924155" lon="17.7381809">
        <ele>15.5184</ele>
        <time>2014-07-08T11:43:43Z</time>
      </trkpt>
      <trkpt lat="59.6925059" lon="17.7381425">
        <ele>15.0377</ele>
        <time>2014-07-08T11:43:44Z</time>
      </trkpt>
      <trkpt lat="59.6925941" lon="17.7381064">
        <ele>15.0377</ele>
        <time>2014-07-08T11:43:45Z</time>
      </trkpt>
      <trkpt lat="59.692681" lon="17.7380708">
        <ele>15.0377</ele>
        <time>2014-07-08T11:43:46Z</time>
      </trkpt>
      <trkpt lat="59.6927672" lon="17.7380354">
        <ele>15.0377</ele>
        <time>2014-07-08T11:43:47Z</time>
      </trkpt>
      <trkpt lat="59.6928538" lon="17.7379995">
        <ele>15.0377</ele>
        <time>2014-07-08T11:43:48Z</time>
      </trkpt>
      <trkpt lat="59.6929407" lon="17.7379635">
        <ele>15.0377</ele>
        <time>2014-07-08T11:43:49Z</time>
      </trkpt>
      <trkpt lat="59.6930277" lon="17.7379277">
        <ele>14.557</ele>
        <time>2014-07-08T11:43:50Z</time>
      </trkpt>
      <trkpt lat="59.693115" lon="17.7378913">
        <ele>14.557</ele>
        <time>2014-07-08T11:43:51Z</time>
      </trkpt>
      <trkpt lat="59.6932026" lon="17.7378541">
        <ele>14.557</ele>
        <time>2014-07-08T11:43:52Z</time>
      </trkpt>
      <trkpt lat="59.6932904" lon="17.7378157">
        <ele>14.557</ele>
        <time>2014-07-08T11:43:53Z</time>
      </trkpt>
      <trkpt lat="59.6933787" lon="17.737777">
        <ele>14.0764</ele>
        <time>2014-07-08T11:43:54Z</time>
      </trkpt>
      <trkpt lat="59.693467" lon="17.7377397">
        <ele>14.0764</ele>
        <time>2014-07-08T11:43:55Z</time>
      </trkpt>
      <trkpt lat="59.6935552" lon="17.7377034">
        <ele>14.0764</ele>
        <time>2014-07-08T11:43:56Z</time>
      </trkpt>
      <trkpt lat="59.6936429" lon="17.7376669">
        <ele>14.0764</ele>
        <time>2014-07-08T11:43:57Z</time>
      </trkpt>
      <trkpt lat="59.69373" lon="17.7376299">
        <ele>14.0764</ele>
        <time>2014-07-08T11:43:58Z</time>
      </trkpt>
      <trkpt lat="59.6938165" lon="17.7375936">
        <ele>13.5958</ele>
        <time>2014-07-08T11:43:59Z</time>
      </trkpt>
      <trkpt lat="59.6939032" lon="17.7375593">
        <ele>13.5958</ele>
        <time>2014-07-08T11:44:00Z</time>
      </trkpt>
      <trkpt lat="59.6939902" lon="17.7375256">
        <ele>13.5958</ele>
        <time>2014-07-08T11:44:01Z</time>
      </trkpt>
      <trkpt lat="59.6940778" lon="17.7374895">
        <ele>13.5958</ele>
        <time>2014-07-08T11:44:02Z</time>
      </trkpt>
      <trkpt lat="59.6941656" lon="17.7374522">
        <ele>13.5958</ele>
        <time>2014-07-08T11:44:03Z</time>
      </trkpt>
      <trkpt lat="59.6942533" lon="17.7374148">
        <ele>13.1151</ele>
        <time>2014-07-08T11:44:04Z</time>
      </trkpt>
      <trkpt lat="59.6943413" lon="17.7373784">
        <ele>13.1151</ele>
        <time>2014-07-08T11:44:05Z</time>
      </trkpt>
      <trkpt lat="59.694429" lon="17.737342">
        <ele>13.1151</ele>
        <time>2014-07-08T11:44:06Z</time>
      </trkpt>
      <trkpt lat="59.6945163" lon="17.7373036">
        <ele>13.1151</ele>
        <time>2014-07-08T11:44:07Z</time>
      </trkpt>
      <trkpt lat="59.694603" lon="17.7372651">
        <ele>13.1151</ele>
        <time>2014-07-08T11:44:08Z</time>
      </trkpt>
      <trkpt lat="59.6946903" lon="17.7372284">
        <ele>12.6344</ele>
        <time>2014-07-08T11:44:09Z</time>
      </trkpt>
      <trkpt lat="59.694777" lon="17.7371921">
        <ele>12.6344</ele>
        <time>2014-07-08T11:44:10Z</time>
      </trkpt>
      <trkpt lat="59.6948636" lon="17.7371552">
        <ele>12.1538</ele>
        <time>2014-07-08T11:44:11Z</time>
      </trkpt>
      <trkpt lat="59.6949506" lon="17.7371182">
        <ele>12.1538</ele>
        <time>2014-07-08T11:44:12Z</time>
      </trkpt>
      <trkpt lat="59.6950381" lon="17.7370819">
        <ele>11.6732</ele>
        <time>2014-07-08T11:44:13Z</time>
      </trkpt>
      <trkpt lat="59.695126" lon="17.7370446">
        <ele>11.1925</ele>
        <time>2014-07-08T11:44:14Z</time>
      </trkpt>
      <trkpt lat="59.6952142" lon="17.7370067">
        <ele>11.1925</ele>
        <time>2014-07-08T11:44:15Z</time>
      </trkpt>
      <trkpt lat="59.6953034" lon="17.7369697">
        <ele>10.7118</ele>
        <time>2014-07-08T11:44:16Z</time>
      </trkpt>
      <trkpt lat="59.6953938" lon="17.7369352">
        <ele>10.7118</ele>
        <time>2014-07-08T11:44:17Z</time>
      </trkpt>
      <trkpt lat="59.6954855" lon="17.7369032">
        <ele>10.2312</ele>
        <time>2014-07-08T11:44:18Z</time>
      </trkpt>
      <trkpt lat="59.6955779" lon="17.7368732">
        <ele>10.2312</ele>
        <time>2014-07-08T11:44:19Z</time>
      </trkpt>
      <trkpt lat="59.6956706" lon="17.7368446">
        <ele>9.75061</ele>
        <time>2014-07-08T11:44:20Z</time>
      </trkpt>
      <trkpt lat="59.6957628" lon="17.7368188">
        <ele>9.75061</ele>
        <time>2014-07-08T11:44:21Z</time>
      </trkpt>
      <trkpt lat="59.695855" lon="17.7367973">
        <ele>9.2699</ele>
        <time>2014-07-08T11:44:22Z</time>
      </trkpt>
      <trkpt lat="59.6959468" lon="17.7367787">
        <ele>9.2699</ele>
        <time>2014-07-08T11:44:23Z</time>
      </trkpt>
      <trkpt lat="59.6960379" lon="17.7367627">
        <ele>9.2699</ele>
        <time>2014-07-08T11:44:24Z</time>
      </trkpt>
      <trkpt lat="59.696128" lon="17.7367508">
        <ele>8.78918</ele>
        <time>2014-07-08T11:44:25Z</time>
      </trkpt>
      <trkpt lat="59.6962171" lon="17.7367434">
        <ele>8.78918</ele>
        <time>2014-07-08T11:44:26Z</time>
      </trkpt>
      <trkpt lat="59.6963053" lon="17.7367389">
        <ele>8.78918</ele>
        <time>2014-07-08T11:44:27Z</time>
      </trkpt>
      <trkpt lat="59.6963928" lon="17.7367368">
        <ele>8.78918</ele>
        <time>2014-07-08T11:44:28Z</time>
      </trkpt>
      <trkpt lat="59.6964795" lon="17.7367389">
        <ele>8.30859</ele>
        <time>2014-07-08T11:44:29Z</time>
      </trkpt>
      <trkpt lat="59.696565" lon="17.7367451">
        <ele>8.30859</ele>
        <time>2014-07-08T11:44:30Z</time>
      </trkpt>
      <trkpt lat="59.6966494" lon="17.7367542">
        <ele>8.30859</ele>
        <time>2014-07-08T11:44:31Z</time>
      </trkpt>
      <trkpt lat="59.696733" lon="17.7367658">
        <ele>8.30859</ele>
        <time>2014-07-08T11:44:32Z</time>
      </trkpt>
      <trkpt lat="59.6968165" lon="17.7367803">
        <ele>8.30859</ele>
        <time>2014-07-08T11:44:33Z</time>
      </trkpt>
      <trkpt lat="59.6969002" lon="17.7367973">
        <ele>8.30859</ele>
        <time>2014-07-08T11:44:34Z</time>
      </trkpt>
      <trkpt lat="59.6969841" lon="17.7368164">
        <ele>7.82788</ele>
        <time>2014-07-08T11:44:35Z</time>
      </trkpt>
      <trkpt lat="59.6970677" lon="17.7368381">
        <ele>7.82788</ele>
        <time>2014-07-08T11:44:36Z</time>
      </trkpt>
      <trkpt lat="59.6971506" lon="17.7368612">
        <ele>8.30859</ele>
        <time>2014-07-08T11:44:37Z</time>
      </trkpt>
      <trkpt lat="59.6972318" lon="17.7368861">
        <ele>8.30859</ele>
        <time>2014-07-08T11:44:38Z</time>
      </trkpt>
      <trkpt lat="59.6973116" lon="17.7369132">
        <ele>8.30859</ele>
        <time>2014-07-08T11:44:39Z</time>
      </trkpt>
      <trkpt lat="59.6973893" lon="17.736943">
        <ele>8.30859</ele>
        <time>2014-07-08T11:44:40Z</time>
      </trkpt>
      <trkpt lat="59.6974648" lon="17.7369735">
        <ele>8.78918</ele>
        <time>2014-07-08T11:44:41Z</time>
      </trkpt>
      <trkpt lat="59.6975385" lon="17.7370062">
        <ele>8.78918</ele>
        <time>2014-07-08T11:44:42Z</time>
      </trkpt>
      <trkpt lat="59.6976107" lon="17.7370415">
        <ele>8.78918</ele>
        <time>2014-07-08T11:44:43Z</time>
      </trkpt>
      <trkpt lat="59.697682" lon="17.7370783">
        <ele>8.78918</ele>
        <time>2014-07-08T11:44:44Z</time>
      </trkpt>
      <trkpt lat="59.6977519" lon="17.7371182">
        <ele>8.78918</ele>
        <time>2014-07-08T11:44:45Z</time>
      </trkpt>
      <trkpt lat="59.6978205" lon="17.7371611">
        <ele>8.78918</ele>
        <time>2014-07-08T11:44:46Z</time>
      </trkpt>
      <trkpt lat="59.6978887" lon="17.7372061">
        <ele>8.78918</ele>
        <time>2014-07-08T11:44:47Z</time>
      </trkpt>
      <trkpt lat="59.6979575" lon="17.7372537">
        <ele>8.78918</ele>
        <time>2014-07-08T11:44:48Z</time>
      </trkpt>
      <trkpt lat="59.6980275" lon="17.7373017">
        <ele>8.78918</ele>
        <time>2014-07-08T11:44:49Z</time>
      </trkpt>
      <trkpt lat="59.6980988" lon="17.7373486">
        <ele>8.78918</ele>
        <time>2014-07-08T11:44:50Z</time>
      </trkpt>
      <trkpt lat="59.6981717" lon="17.7373961">
        <ele>8.78918</ele>
        <time>2014-07-08T11:44:51Z</time>
      </trkpt>
      <trkpt lat="59.6982463" lon="17.7374408">
        <ele>8.30859</ele>
        <time>2014-07-08T11:44:52Z</time>
      </trkpt>
      <trkpt lat="59.6983221" lon="17.7374796">
        <ele>8.30859</ele>
        <time>2014-07-08T11:44:53Z</time>
      </trkpt>
      <trkpt lat="59.6983979" lon="17.7375148">
        <ele>8.30859</ele>
        <time>2014-07-08T11:44:54Z</time>
      </trkpt>
      <trkpt lat="59.6984729" lon="17.7375468">
        <ele>8.30859</ele>
        <time>2014-07-08T11:44:55Z</time>
      </trkpt>
      <trkpt lat="59.6985471" lon="17.7375748">
        <ele>8.30859</ele>
        <time>2014-07-08T11:44:56Z</time>
      </trkpt>
      <trkpt lat="59.6986206" lon="17.7375983">
        <ele>8.30859</ele>
        <time>2014-07-08T11:44:57Z</time>
      </trkpt>
      <trkpt lat="59.698694" lon="17.7376191">
        <ele>8.30859</ele>
        <time>2014-07-08T11:44:58Z</time>
      </trkpt>
      <trkpt lat="59.6987676" lon="17.7376381">
        <ele>8.30859</ele>
        <time>2014-07-08T11:44:59Z</time>
      </trkpt>
      <trkpt lat="59.6988413" lon="17.7376542">
        <ele>8.30859</ele>
        <time>2014-07-08T11:45:00Z</time>
      </trkpt>
      <trkpt lat="59.6989152" lon="17.7376667">
        <ele>8.30859</ele>
        <time>2014-07-08T11:45:01Z</time>
      </trkpt>
      <trkpt lat="59.6989893" lon="17.7376747">
        <ele>8.30859</ele>
        <time>2014-07-08T11:45:02Z</time>
      </trkpt>
      <trkpt lat="59.699064" lon="17.7376787">
        <ele>8.30859</ele>
        <time>2014-07-08T11:45:03Z</time>
      </trkpt>
      <trkpt lat="59.6991391" lon="17.7376806">
        <ele>8.30859</ele>
        <time>2014-07-08T11:45:04Z</time>
      </trkpt>
      <trkpt lat="59.6992138" lon="17.7376843">
        <ele>8.30859</ele>
        <time>2014-07-08T11:45:05Z</time>
      </trkpt>
      <trkpt lat="59.699289" lon="17.7376869">
        <ele>8.30859</ele>
        <time>2014-07-08T11:45:06Z</time>
      </trkpt>
      <trkpt lat="59.6993643" lon="17.7376875">
        <ele>8.30859</ele>
        <time>2014-07-08T11:45:07Z</time>
      </trkpt>
      <trkpt lat="59.6994385" lon="17.737689">
        <ele>8.30859</ele>
        <time>2014-07-08T11:45:08Z</time>
      </trkpt>
      <trkpt lat="59.6995104" lon="17.737688">
        <ele>8.30859</ele>
        <time>2014-07-08T11:45:09Z</time>
      </trkpt>
      <trkpt lat="59.6995814" lon="17.7376806">
        <ele>8.78918</ele>
        <time>2014-07-08T11:45:10Z</time>
      </trkpt>
      <trkpt lat="59.6996561" lon="17.7376677">
        <ele>8.78918</ele>
        <time>2014-07-08T11:45:11Z</time>
      </trkpt>
      <trkpt lat="59.6997313" lon="17.7376672">
        <ele>8.78918</ele>
        <time>2014-07-08T11:45:12Z</time>
      </trkpt>
      <trkpt lat="59.6998046" lon="17.7376732">
        <ele>8.78918</ele>
        <time>2014-07-08T11:45:13Z</time>
      </trkpt>
      <trkpt lat="59.6998764" lon="17.7376792">
        <ele>8.78918</ele>
        <time>2014-07-08T11:45:14Z</time>
      </trkpt>
      <trkpt lat="59.6999477" lon="17.7376854">
        <ele>8.30859</ele>
        <time>2014-07-08T11:45:15Z</time>
      </trkpt>
      <trkpt lat="59.7000184" lon="17.7376915">
        <ele>8.30859</ele>
        <time>2014-07-08T11:45:16Z</time>
      </trkpt>
      <trkpt lat="59.7000895" lon="17.7376986">
        <ele>8.30859</ele>
        <time>2014-07-08T11:45:17Z</time>
      </trkpt>
      <trkpt lat="59.7001591" lon="17.7377072">
        <ele>8.30859</ele>
        <time>2014-07-08T11:45:18Z</time>
      </trkpt>
      <trkpt lat="59.7002273" lon="17.7377143">
        <ele>8.30859</ele>
        <time>2014-07-08T11:45:19Z</time>
      </trkpt>
      <trkpt lat="59.7002948" lon="17.7377185">
        <ele>8.30859</ele>
        <time>2014-07-08T11:45:20Z</time>
      </trkpt>
      <trkpt lat="59.7003612" lon="17.7377206">
        <ele>8.30859</ele>
        <time>2014-07-08T11:45:21Z</time>
      </trkpt>
      <trkpt lat="59.7004271" lon="17.7377211">
        <ele>8.30859</ele>
        <time>2014-07-08T11:45:22Z</time>
      </trkpt>
      <trkpt lat="59.7004928" lon="17.7377178">
        <ele>8.30859</ele>
        <time>2014-07-08T11:45:23Z</time>
      </trkpt>
      <trkpt lat="59.7005591" lon="17.7377111">
        <ele>8.30859</ele>
        <time>2014-07-08T11:45:24Z</time>
      </trkpt>
      <trkpt lat="59.700626" lon="17.7377046">
        <ele>8.30859</ele>
        <time>2014-07-08T11:45:25Z</time>
      </trkpt>
      <trkpt lat="59.7006936" lon="17.7376966">
        <ele>8.30859</ele>
        <time>2014-07-08T11:45:26Z</time>
      </trkpt>
      <trkpt lat="59.7007617" lon="17.7376848">
        <ele>8.30859</ele>
        <time>2014-07-08T11:45:27Z</time>
      </trkpt>
      <trkpt lat="59.7008313" lon="17.7376718">
        <ele>8.30859</ele>
        <time>2014-07-08T11:45:28Z</time>
      </trkpt>
      <trkpt lat="59.7009023" lon="17.7376576">
        <ele>8.30859</ele>
        <time>2014-07-08T11:45:29Z</time>
      </trkpt>
      <trkpt lat="59.7009748" lon="17.7376428">
        <ele>8.30859</ele>
        <time>2014-07-08T11:45:30Z</time>
      </trkpt>
      <trkpt lat="59.7010482" lon="17.7376281">
        <ele>8.30859</ele>
        <time>2014-07-08T11:45:31Z</time>
      </trkpt>
      <trkpt lat="59.7011226" lon="17.7376132">
        <ele>8.30859</ele>
        <time>2014-07-08T11:45:32Z</time>
      </trkpt>
      <trkpt lat="59.7011962" lon="17.7375981">
        <ele>8.30859</ele>
        <time>2014-07-08T11:45:33Z</time>
      </trkpt>
      <trkpt lat="59.7012682" lon="17.7375822">
        <ele>8.30859</ele>
        <time>2014-07-08T11:45:34Z</time>
      </trkpt>
      <trkpt lat="59.7013397" lon="17.7375663">
        <ele>8.30859</ele>
        <time>2014-07-08T11:45:35Z</time>
      </trkpt>
      <trkpt lat="59.7014107" lon="17.737551">
        <ele>8.78918</ele>
        <time>2014-07-08T11:45:36Z</time>
      </trkpt>
      <trkpt lat="59.7014811" lon="17.7375356">
        <ele>8.78918</ele>
        <time>2014-07-08T11:45:37Z</time>
      </trkpt>
      <trkpt lat="59.701551" lon="17.7375209">
        <ele>8.78918</ele>
        <time>2014-07-08T11:45:38Z</time>
      </trkpt>
      <trkpt lat="59.70162" lon="17.7375056">
        <ele>9.2699</ele>
        <time>2014-07-08T11:45:39Z</time>
      </trkpt>
      <trkpt lat="59.7016878" lon="17.7374904">
        <ele>9.75061</ele>
        <time>2014-07-08T11:45:40Z</time>
      </trkpt>
      <trkpt lat="59.7017547" lon="17.7374771">
        <ele>9.75061</ele>
        <time>2014-07-08T11:45:41Z</time>
      </trkpt>
      <trkpt lat="59.7018204" lon="17.7374644">
        <ele>10.2312</ele>
        <time>2014-07-08T11:45:42Z</time>
      </trkpt>
      <trkpt lat="59.7018844" lon="17.7374502">
        <ele>10.2312</ele>
        <time>2014-07-08T11:45:43Z</time>
      </trkpt>
      <trkpt lat="59.7019472" lon="17.7374359">
        <ele>10.7118</ele>
        <time>2014-07-08T11:45:44Z</time>
      </trkpt>
      <trkpt lat="59.7020085" lon="17.7374216">
        <ele>11.1925</ele>
        <time>2014-07-08T11:45:45Z</time>
      </trkpt>
      <trkpt lat="59.7020675" lon="17.7374087">
        <ele>11.1925</ele>
        <time>2014-07-08T11:45:46Z</time>
      </trkpt>
      <trkpt lat="59.7021238" lon="17.7373957">
        <ele>11.6732</ele>
        <time>2014-07-08T11:45:47Z</time>
      </trkpt>
      <trkpt lat="59.7021787" lon="17.7373816">
        <ele>11.6732</ele>
        <time>2014-07-08T11:45:48Z</time>
      </trkpt>
      <trkpt lat="59.7022328" lon="17.7373691">
        <ele>12.1538</ele>
        <time>2014-07-08T11:45:49Z</time>
      </trkpt>
      <trkpt lat="59.7022861" lon="17.7373579">
        <ele>12.1538</ele>
        <time>2014-07-08T11:45:50Z</time>
      </trkpt>
      <trkpt lat="59.7023383" lon="17.7373456">
        <ele>12.6344</ele>
        <time>2014-07-08T11:45:51Z</time>
      </trkpt>
      <trkpt lat="59.7023897" lon="17.7373328">
        <ele>12.6344</ele>
        <time>2014-07-08T11:45:52Z</time>
      </trkpt>
      <trkpt lat="59.702441" lon="17.7373209">
        <ele>13.1151</ele>
        <time>2014-07-08T11:45:53Z</time>
      </trkpt>
      <trkpt lat="59.7024918" lon="17.7373104">
        <ele>13.1151</ele>
        <time>2014-07-08T11:45:54Z</time>
      </trkpt>
      <trkpt lat="59.7025416" lon="17.7372987">
        <ele>13.5958</ele>
        <time>2014-07-08T11:45:55Z</time>
      </trkpt>
      <trkpt lat="59.7025912" lon="17.7372862">
        <ele>13.5958</ele>
        <time>2014-07-08T11:45:56Z</time>
      </trkpt>
      <trkpt lat="59.702641" lon="17.7372754">
        <ele>14.0764</ele>
        <time>2014-07-08T11:45:57Z</time>
      </trkpt>
      <trkpt lat="59.7026907" lon="17.7372651">
        <ele>14.0764</ele>
        <time>2014-07-08T11:45:58Z</time>
      </trkpt>
      <trkpt lat="59.7027399" lon="17.7372548">
        <ele>14.557</ele>
        <time>2014-07-08T11:45:59Z</time>
      </trkpt>
      <trkpt lat="59.7027889" lon="17.7372453">
        <ele>14.557</ele>
        <time>2014-07-08T11:46:00Z</time>
      </trkpt>
      <trkpt lat="59.7028372" lon="17.7372352">
        <ele>15.0377</ele>
        <time>2014-07-08T11:46:01Z</time>
      </trkpt>
      <trkpt lat="59.7028853" lon="17.7372253">
        <ele>15.0377</ele>
        <time>2014-07-08T11:46:02Z</time>
      </trkpt>
      <trkpt lat="59.7029329" lon="17.7372148">
        <ele>15.5184</ele>
        <time>2014-07-08T11:46:03Z</time>
      </trkpt>
      <trkpt lat="59.7029798" lon="17.7372041">
        <ele>15.5184</ele>
        <time>2014-07-08T11:46:04Z</time>
      </trkpt>
      <trkpt lat="59.7030254" lon="17.7371942">
        <ele>15.999</ele>
        <time>2014-07-08T11:46:05Z</time>
      </trkpt>
      <trkpt lat="59.7030694" lon="17.7371833">
        <ele>15.999</ele>
        <time>2014-07-08T11:46:06Z</time>
      </trkpt>
      <trkpt lat="59.7031129" lon="17.737174">
        <ele>16.4797</ele>
        <time>2014-07-08T11:46:07Z</time>
      </trkpt>
      <trkpt lat="59.7031562" lon="17.7371657">
        <ele>16.4797</ele>
        <time>2014-07-08T11:46:08Z</time>
      </trkpt>
      <trkpt lat="59.7031991" lon="17.7371563">
        <ele>16.4797</ele>
        <time>2014-07-08T11:46:09Z</time>
      </trkpt>
      <trkpt lat="59.7032408" lon="17.7371436">
        <ele>16.9604</ele>
        <time>2014-07-08T11:46:10Z</time>
      </trkpt>
      <trkpt lat="59.7032815" lon="17.737132">
        <ele>16.9604</ele>
        <time>2014-07-08T11:46:11Z</time>
      </trkpt>
      <trkpt lat="59.7033225" lon="17.7371232">
        <ele>17.4412</ele>
        <time>2014-07-08T11:46:12Z</time>
      </trkpt>
      <trkpt lat="59.703363" lon="17.7371122">
        <ele>17.9218</ele>
        <time>2014-07-08T11:46:13Z</time>
      </trkpt>
      <trkpt lat="59.7034029" lon="17.7370999">
        <ele>17.9218</ele>
        <time>2014-07-08T11:46:14Z</time>
      </trkpt>
      <trkpt lat="59.7034426" lon="17.7370891">
        <ele>18.4023</ele>
        <time>2014-07-08T11:46:15Z</time>
      </trkpt>
      <trkpt lat="59.7034823" lon="17.7370807">
        <ele>18.4023</ele>
        <time>2014-07-08T11:46:16Z</time>
      </trkpt>
      <trkpt lat="59.7035222" lon="17.737072">
        <ele>18.8831</ele>
        <time>2014-07-08T11:46:17Z</time>
      </trkpt>
      <trkpt lat="59.703562" lon="17.7370629">
        <ele>19.3638</ele>
        <time>2014-07-08T11:46:18Z</time>
      </trkpt>
      <trkpt lat="59.7036013" lon="17.7370531">
        <ele>19.3638</ele>
        <time>2014-07-08T11:46:19Z</time>
      </trkpt>
      <trkpt lat="59.7036403" lon="17.7370438">
        <ele>19.8444</ele>
        <time>2014-07-08T11:46:20Z</time>
      </trkpt>
      <trkpt lat="59.703679" lon="17.7370352">
        <ele>19.8444</ele>
        <time>2014-07-08T11:46:21Z</time>
      </trkpt>
      <trkpt lat="59.7037163" lon="17.7370248">
        <ele>20.325</ele>
        <time>2014-07-08T11:46:22Z</time>
      </trkpt>
      <trkpt lat="59.7037522" lon="17.7370113">
        <ele>20.8057</ele>
        <time>2014-07-08T11:46:23Z</time>
      </trkpt>
      <trkpt lat="59.7037882" lon="17.7369995">
        <ele>20.8057</ele>
        <time>2014-07-08T11:46:24Z</time>
      </trkpt>
      <trkpt lat="59.7038245" lon="17.7369953">
        <ele>21.2864</ele>
        <time>2014-07-08T11:46:25Z</time>
      </trkpt>
      <trkpt lat="59.7038603" lon="17.7369973">
        <ele>21.2864</ele>
        <time>2014-07-08T11:46:26Z</time>
      </trkpt>
      <trkpt lat="59.7038945" lon="17.7369926">
        <ele>21.767</ele>
        <time>2014-07-08T11:46:27Z</time>
      </trkpt>
      <trkpt lat="59.7039276" lon="17.7369801">
        <ele>22.2476</ele>
        <time>2014-07-08T11:46:28Z</time>
      </trkpt>
      <trkpt lat="59.7039603" lon="17.7369689">
        <ele>22.2476</ele>
        <time>2014-07-08T11:46:29Z</time>
      </trkpt>
      <trkpt lat="59.7039928" lon="17.7369583">
        <ele>22.7283</ele>
        <time>2014-07-08T11:46:30Z</time>
      </trkpt>
      <trkpt lat="59.7040256" lon="17.7369491">
        <ele>22.7283</ele>
        <time>2014-07-08T11:46:31Z</time>
      </trkpt>
      <trkpt lat="59.7040592" lon="17.7369409">
        <ele>23.209</ele>
        <time>2014-07-08T11:46:32Z</time>
      </trkpt>
      <trkpt lat="59.7040929" lon="17.7369311">
        <ele>23.209</ele>
        <time>2014-07-08T11:46:33Z</time>
      </trkpt>
      <trkpt lat="59.7041271" lon="17.7369223">
        <ele>23.6896</ele>
        <time>2014-07-08T11:46:34Z</time>
      </trkpt>
      <trkpt lat="59.7041618" lon="17.7369146">
        <ele>23.6896</ele>
        <time>2014-07-08T11:46:35Z</time>
      </trkpt>
      <trkpt lat="59.7041971" lon="17.7369078">
        <ele>24.1703</ele>
        <time>2014-07-08T11:46:36Z</time>
      </trkpt>
      <trkpt lat="59.7042328" lon="17.7369001">
        <ele>24.1703</ele>
        <time>2014-07-08T11:46:37Z</time>
      </trkpt>
      <trkpt lat="59.7042686" lon="17.7368905">
        <ele>24.651</ele>
        <time>2014-07-08T11:46:38Z</time>
      </trkpt>
      <trkpt lat="59.7043038" lon="17.7368772">
        <ele>24.651</ele>
        <time>2014-07-08T11:46:39Z</time>
      </trkpt>
      <trkpt lat="59.7043385" lon="17.7368661">
        <ele>24.651</ele>
        <time>2014-07-08T11:46:40Z</time>
      </trkpt>
      <trkpt lat="59.7043727" lon="17.7368579">
        <ele>25.1317</ele>
        <time>2014-07-08T11:46:41Z</time>
      </trkpt>
      <trkpt lat="59.7044061" lon="17.7368501">
        <ele>25.1317</ele>
        <time>2014-07-08T11:46:42Z</time>
      </trkpt>
      <trkpt lat="59.7044396" lon="17.7368423">
        <ele>25.1317</ele>
        <time>2014-07-08T11:46:43Z</time>
      </trkpt>
      <trkpt lat="59.7044737" lon="17.7368338">
        <ele>25.1317</ele>
        <time>2014-07-08T11:46:44Z</time>
      </trkpt>
      <trkpt lat="59.704508" lon="17.7368206">
        <ele>25.6123</ele>
        <time>2014-07-08T11:46:45Z</time>
      </trkpt>
      <trkpt lat="59.7045415" lon="17.736801">
        <ele>25.6123</ele>
        <time>2014-07-08T11:46:46Z</time>
      </trkpt>
      <trkpt lat="59.7045735" lon="17.7367806">
        <ele>25.6123</ele>
        <time>2014-07-08T11:46:47Z</time>
      </trkpt>
      <trkpt lat="59.7046052" lon="17.7367625">
        <ele>26.0929</ele>
        <time>2014-07-08T11:46:48Z</time>
      </trkpt>
      <trkpt lat="59.7046398" lon="17.7367477">
        <ele>26.0929</ele>
        <time>2014-07-08T11:46:49Z</time>
      </trkpt>
      <trkpt lat="59.7046772" lon="17.7367316">
        <ele>26.0929</ele>
        <time>2014-07-08T11:46:50Z</time>
      </trkpt>
      <trkpt lat="59.7047172" lon="17.7367129">
        <ele>26.0929</ele>
        <time>2014-07-08T11:46:51Z</time>
      </trkpt>
      <trkpt lat="59.7047601" lon="17.7366912">
        <ele>26.0929</ele>
        <time>2014-07-08T11:46:52Z</time>
      </trkpt>
      <trkpt lat="59.7048057" lon="17.7366627">
        <ele>26.0929</ele>
        <time>2014-07-08T11:46:53Z</time>
      </trkpt>
      <trkpt lat="59.7048545" lon="17.7366306">
        <ele>26.5736</ele>
        <time>2014-07-08T11:46:54Z</time>
      </trkpt>
      <trkpt lat="59.7049031" lon="17.7365991">
        <ele>26.5736</ele>
        <time>2014-07-08T11:46:55Z</time>
      </trkpt>
      <trkpt lat="59.7049496" lon="17.7365686">
        <ele>27.0543</ele>
        <time>2014-07-08T11:46:56Z</time>
      </trkpt>
      <trkpt lat="59.7049946" lon="17.7365352">
        <ele>27.0543</ele>
        <time>2014-07-08T11:46:57Z</time>
      </trkpt>
      <trkpt lat="59.7050377" lon="17.7364979">
        <ele>27.0543</ele>
        <time>2014-07-08T11:46:58Z</time>
      </trkpt>
      <trkpt lat="59.7050808" lon="17.7364602">
        <ele>27.0543</ele>
        <time>2014-07-08T11:46:59Z</time>
      </trkpt>
      <trkpt lat="59.7051243" lon="17.7364243">
        <ele>27.0543</ele>
        <time>2014-07-08T11:47:00Z</time>
      </trkpt>
      <trkpt lat="59.7051688" lon="17.7363898">
        <ele>27.0543</ele>
        <time>2014-07-08T11:47:01Z</time>
      </trkpt>
      <trkpt lat="59.7052137" lon="17.7363561">
        <ele>27.0543</ele>
        <time>2014-07-08T11:47:02Z</time>
      </trkpt>
      <trkpt lat="59.7052579" lon="17.7363198">
        <ele>27.0543</ele>
        <time>2014-07-08T11:47:03Z</time>
      </trkpt>
      <trkpt lat="59.7053013" lon="17.7362798">
        <ele>27.0543</ele>
        <time>2014-07-08T11:47:04Z</time>
      </trkpt>
      <trkpt lat="59.7053439" lon="17.7362385">
        <ele>27.5349</ele>
        <time>2014-07-08T11:47:05Z</time>
      </trkpt>
      <trkpt lat="59.7053867" lon="17.7361999">
        <ele>27.5349</ele>
        <time>2014-07-08T11:47:06Z</time>
      </trkpt>
      <trkpt lat="59.7054298" lon="17.7361642">
        <ele>27.5349</ele>
        <time>2014-07-08T11:47:07Z</time>
      </trkpt>
      <trkpt lat="59.7054722" lon="17.736127">
        <ele>27.5349</ele>
        <time>2014-07-08T11:47:08Z</time>
      </trkpt>
      <trkpt lat="59.7055134" lon="17.7360852">
        <ele>27.5349</ele>
        <time>2014-07-08T11:47:09Z</time>
      </trkpt>
      <trkpt lat="59.7055552" lon="17.7360431">
        <ele>27.5349</ele>
        <time>2014-07-08T11:47:10Z</time>
      </trkpt>
      <trkpt lat="59.7055981" lon="17.7360027">
        <ele>28.0155</ele>
        <time>2014-07-08T11:47:11Z</time>
      </trkpt>
      <trkpt lat="59.7056412" lon="17.7359624">
        <ele>28.0155</ele>
        <time>2014-07-08T11:47:12Z</time>
      </trkpt>
      <trkpt lat="59.7056843" lon="17.7359198">
        <ele>28.0155</ele>
        <time>2014-07-08T11:47:13Z</time>
      </trkpt>
      <trkpt lat="59.7057274" lon="17.7358738">
        <ele>28.0155</ele>
        <time>2014-07-08T11:47:14Z</time>
      </trkpt>
      <trkpt lat="59.7057708" lon="17.7358251">
        <ele>28.0155</ele>
        <time>2014-07-08T11:47:15Z</time>
      </trkpt>
      <trkpt lat="59.7058147" lon="17.7357759">
        <ele>28.0155</ele>
        <time>2014-07-08T11:47:16Z</time>
      </trkpt>
      <trkpt lat="59.7058593" lon="17.7357292">
        <ele>28.4962</ele>
        <time>2014-07-08T11:47:17Z</time>
      </trkpt>
      <trkpt lat="59.7059052" lon="17.7356873">
        <ele>28.4962</ele>
        <time>2014-07-08T11:47:18Z</time>
      </trkpt>
      <trkpt lat="59.7059506" lon="17.7356447">
        <ele>28.4962</ele>
        <time>2014-07-08T11:47:19Z</time>
      </trkpt>
      <trkpt lat="59.7059945" lon="17.7355975">
        <ele>28.4962</ele>
        <time>2014-07-08T11:47:20Z</time>
      </trkpt>
      <trkpt lat="59.7060378" lon="17.7355511">
        <ele>28.9769</ele>
        <time>2014-07-08T11:47:21Z</time>
      </trkpt>
      <trkpt lat="59.7060806" lon="17.7355102">
        <ele>28.9769</ele>
        <time>2014-07-08T11:47:22Z</time>
      </trkpt>
      <trkpt lat="59.7061234" lon="17.7354693">
        <ele>28.9769</ele>
        <time>2014-07-08T11:47:23Z</time>
      </trkpt>
      <trkpt lat="59.706166" lon="17.7354276">
        <ele>28.9769</ele>
        <time>2014-07-08T11:47:24Z</time>
      </trkpt>
      <trkpt lat="59.706208" lon="17.7353773">
        <ele>29.4575</ele>
        <time>2014-07-08T11:47:25Z</time>
      </trkpt>
      <trkpt lat="59.7062515" lon="17.7353308">
        <ele>29.9381</ele>
        <time>2014-07-08T11:47:26Z</time>
      </trkpt>
      <trkpt lat="59.7062951" lon="17.7352839">
        <ele>29.9381</ele>
        <time>2014-07-08T11:47:27Z</time>
      </trkpt>
      <trkpt lat="59.70634" lon="17.7352439">
        <ele>30.4188</ele>
        <time>2014-07-08T11:47:28Z</time>
      </trkpt>
      <trkpt lat="59.7063851" lon="17.7352035">
        <ele>30.4188</ele>
        <time>2014-07-08T11:47:29Z</time>
      </trkpt>
      <trkpt lat="59.7064302" lon="17.7351626">
        <ele>30.4188</ele>
        <time>2014-07-08T11:47:30Z</time>
      </trkpt>
      <trkpt lat="59.7064758" lon="17.7351222">
        <ele>30.4188</ele>
        <time>2014-07-08T11:47:31Z</time>
      </trkpt>
      <trkpt lat="59.706522" lon="17.7350761">
        <ele>30.8995</ele>
        <time>2014-07-08T11:47:32Z</time>
      </trkpt>
      <trkpt lat="59.7065695" lon="17.7350304">
        <ele>31.3801</ele>
        <time>2014-07-08T11:47:33Z</time>
      </trkpt>
      <trkpt lat="59.7066188" lon="17.7349891">
        <ele>31.8607</ele>
        <time>2014-07-08T11:47:34Z</time>
      </trkpt>
      <trkpt lat="59.7066683" lon="17.7349435">
        <ele>32.3416</ele>
        <time>2014-07-08T11:47:35Z</time>
      </trkpt>
      <trkpt lat="59.7067177" lon="17.7348992">
        <ele>32.8223</ele>
        <time>2014-07-08T11:47:36Z</time>
      </trkpt>
      <trkpt lat="59.7067664" lon="17.7348533">
        <ele>33.3029</ele>
        <time>2014-07-08T11:47:37Z</time>
      </trkpt>
      <trkpt lat="59.7068156" lon="17.7348154">
        <ele>33.7834</ele>
        <time>2014-07-08T11:47:38Z</time>
      </trkpt>
      <trkpt lat="59.7068656" lon="17.7347813">
        <ele>33.7834</ele>
        <time>2014-07-08T11:47:39Z</time>
      </trkpt>
      <trkpt lat="59.7069152" lon="17.7347505">
        <ele>33.7834</ele>
        <time>2014-07-08T11:47:40Z</time>
      </trkpt>
      <trkpt lat="59.7069657" lon="17.7347205">
        <ele>33.7834</ele>
        <time>2014-07-08T11:47:41Z</time>
      </trkpt>
      <trkpt lat="59.7070164" lon="17.7346927">
        <ele>34.2642</ele>
        <time>2014-07-08T11:47:42Z</time>
      </trkpt>
      <trkpt lat="59.7070673" lon="17.7346658">
        <ele>34.2642</ele>
        <time>2014-07-08T11:47:43Z</time>
      </trkpt>
      <trkpt lat="59.7071184" lon="17.7346384">
        <ele>34.7449</ele>
        <time>2014-07-08T11:47:44Z</time>
      </trkpt>
      <trkpt lat="59.7071684" lon="17.7346128">
        <ele>34.7449</ele>
        <time>2014-07-08T11:47:45Z</time>
      </trkpt>
      <trkpt lat="59.7072185" lon="17.7345895">
        <ele>34.7449</ele>
        <time>2014-07-08T11:47:46Z</time>
      </trkpt>
      <trkpt lat="59.7072703" lon="17.7345664">
        <ele>34.7449</ele>
        <time>2014-07-08T11:47:47Z</time>
      </trkpt>
      <trkpt lat="59.7073242" lon="17.7345473">
        <ele>35.2255</ele>
        <time>2014-07-08T11:47:48Z</time>
      </trkpt>
      <trkpt lat="59.707379" lon="17.7345263">
        <ele>35.2255</ele>
        <time>2014-07-08T11:47:49Z</time>
      </trkpt>
      <trkpt lat="59.7074347" lon="17.7345071">
        <ele>35.2255</ele>
        <time>2014-07-08T11:47:50Z</time>
      </trkpt>
      <trkpt lat="59.7074895" lon="17.7344854">
        <ele>35.7061</ele>
        <time>2014-07-08T11:47:51Z</time>
      </trkpt>
      <trkpt lat="59.7075439" lon="17.7344651">
        <ele>35.7061</ele>
        <time>2014-07-08T11:47:52Z</time>
      </trkpt>
      <trkpt lat="59.7075988" lon="17.7344462">
        <ele>36.1868</ele>
        <time>2014-07-08T11:47:53Z</time>
      </trkpt>
      <trkpt lat="59.7076556" lon="17.7344281">
        <ele>36.1868</ele>
        <time>2014-07-08T11:47:54Z</time>
      </trkpt>
      <trkpt lat="59.7077127" lon="17.7344089">
        <ele>36.1868</ele>
        <time>2014-07-08T11:47:55Z</time>
      </trkpt>
      <trkpt lat="59.7077685" lon="17.7343928">
        <ele>36.1868</ele>
        <time>2014-07-08T11:47:56Z</time>
      </trkpt>
      <trkpt lat="59.7078243" lon="17.7343741">
        <ele>35.7061</ele>
        <time>2014-07-08T11:47:57Z</time>
      </trkpt>
      <trkpt lat="59.707882" lon="17.7343569">
        <ele>35.7061</ele>
        <time>2014-07-08T11:47:58Z</time>
      </trkpt>
      <trkpt lat="59.7079395" lon="17.7343367">
        <ele>35.7061</ele>
        <time>2014-07-08T11:47:59Z</time>
      </trkpt>
      <trkpt lat="59.7079972" lon="17.7343187">
        <ele>35.7061</ele>
        <time>2014-07-08T11:48:00Z</time>
      </trkpt>
      <trkpt lat="59.7080568" lon="17.7343026">
        <ele>35.2255</ele>
        <time>2014-07-08T11:48:01Z</time>
      </trkpt>
      <trkpt lat="59.7081183" lon="17.7342859">
        <ele>35.2255</ele>
        <time>2014-07-08T11:48:02Z</time>
      </trkpt>
      <trkpt lat="59.708182" lon="17.7342638">
        <ele>35.2255</ele>
        <time>2014-07-08T11:48:03Z</time>
      </trkpt>
      <trkpt lat="59.7082446" lon="17.7342452">
        <ele>34.7449</ele>
        <time>2014-07-08T11:48:04Z</time>
      </trkpt>
      <trkpt lat="59.7083067" lon="17.7342251">
        <ele>34.7449</ele>
        <time>2014-07-08T11:48:05Z</time>
      </trkpt>
      <trkpt lat="59.7083699" lon="17.7342027">
        <ele>34.2642</ele>
        <time>2014-07-08T11:48:06Z</time>
      </trkpt>
      <trkpt lat="59.708439" lon="17.734185">
        <ele>33.7834</ele>
        <time>2014-07-08T11:48:07Z</time>
      </trkpt>
      <trkpt lat="59.7085073" lon="17.7341659">
        <ele>33.7834</ele>
        <time>2014-07-08T11:48:08Z</time>
      </trkpt>
      <trkpt lat="59.7085747" lon="17.7341464">
        <ele>33.3029</ele>
        <time>2014-07-08T11:48:09Z</time>
      </trkpt>
      <trkpt lat="59.7086442" lon="17.7341256">
        <ele>33.3029</ele>
        <time>2014-07-08T11:48:10Z</time>
      </trkpt>
      <trkpt lat="59.7087156" lon="17.7341043">
        <ele>32.8223</ele>
        <time>2014-07-08T11:48:11Z</time>
      </trkpt>
      <trkpt lat="59.7087885" lon="17.7340799">
        <ele>32.8223</ele>
        <time>2014-07-08T11:48:12Z</time>
      </trkpt>
      <trkpt lat="59.7088617" lon="17.7340531">
        <ele>32.3416</ele>
        <time>2014-07-08T11:48:13Z</time>
      </trkpt>
      <trkpt lat="59.7089346" lon="17.7340249">
        <ele>32.3416</ele>
        <time>2014-07-08T11:48:14Z</time>
      </trkpt>
      <trkpt lat="59.7090081" lon="17.7339982">
        <ele>32.3416</ele>
        <time>2014-07-08T11:48:15Z</time>
      </trkpt>
      <trkpt lat="59.7090818" lon="17.733973">
        <ele>32.3416</ele>
        <time>2014-07-08T11:48:16Z</time>
      </trkpt>
      <trkpt lat="59.7091555" lon="17.733949">
        <ele>32.3416</ele>
        <time>2014-07-08T11:48:17Z</time>
      </trkpt>
      <trkpt lat="59.7092295" lon="17.7339233">
        <ele>31.8607</ele>
        <time>2014-07-08T11:48:18Z</time>
      </trkpt>
      <trkpt lat="59.7093041" lon="17.7338949">
        <ele>31.8607</ele>
        <time>2014-07-08T11:48:19Z</time>
      </trkpt>
      <trkpt lat="59.7093792" lon="17.7338679">
        <ele>31.8607</ele>
        <time>2014-07-08T11:48:20Z</time>
      </trkpt>
      <trkpt lat="59.7094543" lon="17.7338397">
        <ele>32.3416</ele>
        <time>2014-07-08T11:48:21Z</time>
      </trkpt>
      <trkpt lat="59.709529" lon="17.7338122">
        <ele>31.8607</ele>
        <time>2014-07-08T11:48:22Z</time>
      </trkpt>
      <trkpt lat="59.709604" lon="17.7337847">
        <ele>31.8607</ele>
        <time>2014-07-08T11:48:23Z</time>
      </trkpt>
      <trkpt lat="59.7096789" lon="17.7337549">
        <ele>31.8607</ele>
        <time>2014-07-08T11:48:24Z</time>
      </trkpt>
      <trkpt lat="59.7097537" lon="17.7337231">
        <ele>31.8607</ele>
        <time>2014-07-08T11:48:25Z</time>
      </trkpt>
      <trkpt lat="59.7098281" lon="17.7336899">
        <ele>31.8607</ele>
        <time>2014-07-08T11:48:26Z</time>
      </trkpt>
      <trkpt lat="59.7099022" lon="17.7336541">
        <ele>31.3801</ele>
        <time>2014-07-08T11:48:27Z</time>
      </trkpt>
      <trkpt lat="59.709976" lon="17.7336151">
        <ele>31.3801</ele>
        <time>2014-07-08T11:48:28Z</time>
      </trkpt>
      <trkpt lat="59.7100499" lon="17.7335737">
        <ele>31.3801</ele>
        <time>2014-07-08T11:48:29Z</time>
      </trkpt>
      <trkpt lat="59.7101237" lon="17.7335303">
        <ele>31.3801</ele>
        <time>2014-07-08T11:48:30Z</time>
      </trkpt>
      <trkpt lat="59.710198" lon="17.7334847">
        <ele>31.3801</ele>
        <time>2014-07-08T11:48:31Z</time>
      </trkpt>
      <trkpt lat="59.7102719" lon="17.7334385">
        <ele>30.8995</ele>
        <time>2014-07-08T11:48:32Z</time>
      </trkpt>
      <trkpt lat="59.7103454" lon="17.7333884">
        <ele>30.8995</ele>
        <time>2014-07-08T11:48:33Z</time>
      </trkpt>
      <trkpt lat="59.7104185" lon="17.7333354">
        <ele>30.8995</ele>
        <time>2014-07-08T11:48:34Z</time>
      </trkpt>
      <trkpt lat="59.7104914" lon="17.7332804">
        <ele>30.8995</ele>
        <time>2014-07-08T11:48:35Z</time>
      </trkpt>
      <trkpt lat="59.7105635" lon="17.7332211">
        <ele>30.8995</ele>
        <time>2014-07-08T11:48:36Z</time>
      </trkpt>
      <trkpt lat="59.7106349" lon="17.7331553">
        <ele>30.8995</ele>
        <time>2014-07-08T11:48:37Z</time>
      </trkpt>
      <trkpt lat="59.7107065" lon="17.7330874">
        <ele>30.8995</ele>
        <time>2014-07-08T11:48:38Z</time>
      </trkpt>
      <trkpt lat="59.7107788" lon="17.7330185">
        <ele>30.8995</ele>
        <time>2014-07-08T11:48:39Z</time>
      </trkpt>
      <trkpt lat="59.7108513" lon="17.7329489">
        <ele>30.8995</ele>
        <time>2014-07-08T11:48:40Z</time>
      </trkpt>
      <trkpt lat="59.7109243" lon="17.732879">
        <ele>30.8995</ele>
        <time>2014-07-08T11:48:41Z</time>
      </trkpt>
      <trkpt lat="59.7109974" lon="17.7328106">
        <ele>30.8995</ele>
        <time>2014-07-08T11:48:42Z</time>
      </trkpt>
      <trkpt lat="59.71107" lon="17.7327428">
        <ele>30.8995</ele>
        <time>2014-07-08T11:48:43Z</time>
      </trkpt>
      <trkpt lat="59.7111413" lon="17.7326742">
        <ele>30.8995</ele>
        <time>2014-07-08T11:48:44Z</time>
      </trkpt>
      <trkpt lat="59.7112109" lon="17.7326107">
        <ele>30.8995</ele>
        <time>2014-07-08T11:48:45Z</time>
      </trkpt>
      <trkpt lat="59.7112796" lon="17.7325516">
        <ele>30.8995</ele>
        <time>2014-07-08T11:48:46Z</time>
      </trkpt>
      <trkpt lat="59.7113461" lon="17.7324931">
        <ele>30.4188</ele>
        <time>2014-07-08T11:48:47Z</time>
      </trkpt>
      <trkpt lat="59.7114109" lon="17.7324336">
        <ele>30.4188</ele>
        <time>2014-07-08T11:48:48Z</time>
      </trkpt>
      <trkpt lat="59.711472" lon="17.7323775">
        <ele>30.4188</ele>
        <time>2014-07-08T11:48:49Z</time>
      </trkpt>
      <trkpt lat="59.7115305" lon="17.7323243">
        <ele>29.9381</ele>
        <time>2014-07-08T11:48:50Z</time>
      </trkpt>
      <trkpt lat="59.7115916" lon="17.7322683">
        <ele>29.9381</ele>
        <time>2014-07-08T11:48:51Z</time>
      </trkpt>
      <trkpt lat="59.7116527" lon="17.7322135">
        <ele>29.4575</ele>
        <time>2014-07-08T11:48:52Z</time>
      </trkpt>
      <trkpt lat="59.711716" lon="17.732156">
        <ele>29.4575</ele>
        <time>2014-07-08T11:48:53Z</time>
      </trkpt>
      <trkpt lat="59.7117795" lon="17.7320994">
        <ele>28.9769</ele>
        <time>2014-07-08T11:48:54Z</time>
      </trkpt>
      <trkpt lat="59.711843" lon="17.7320409">
        <ele>28.9769</ele>
        <time>2014-07-08T11:48:55Z</time>
      </trkpt>
      <trkpt lat="59.7119087" lon="17.731979">
        <ele>28.9769</ele>
        <time>2014-07-08T11:48:56Z</time>
      </trkpt>
      <trkpt lat="59.7119764" lon="17.7319152">
        <ele>28.4962</ele>
        <time>2014-07-08T11:48:57Z</time>
      </trkpt>
      <trkpt lat="59.7120449" lon="17.7318462">
        <ele>28.4962</ele>
        <time>2014-07-08T11:48:58Z</time>
      </trkpt>
      <trkpt lat="59.7121148" lon="17.7317779">
        <ele>28.0155</ele>
        <time>2014-07-08T11:48:59Z</time>
      </trkpt>
      <trkpt lat="59.7121868" lon="17.7317145">
        <ele>28.0155</ele>
        <time>2014-07-08T11:49:00Z</time>
      </trkpt>
      <trkpt lat="59.7122603" lon="17.7316575">
        <ele>27.5349</ele>
        <time>2014-07-08T11:49:01Z</time>
      </trkpt>
      <trkpt lat="59.7123354" lon="17.7316059">
        <ele>27.5349</ele>
        <time>2014-07-08T11:49:02Z</time>
      </trkpt>
      <trkpt lat="59.7124111" lon="17.7315591">
        <ele>27.0543</ele>
        <time>2014-07-08T11:49:03Z</time>
      </trkpt>
      <trkpt lat="59.7124874" lon="17.7315132">
        <ele>27.0543</ele>
        <time>2014-07-08T11:49:04Z</time>
      </trkpt>
      <trkpt lat="59.7125643" lon="17.7314707">
        <ele>26.5736</ele>
        <time>2014-07-08T11:49:05Z</time>
      </trkpt>
      <trkpt lat="59.7126411" lon="17.7314344">
        <ele>26.0929</ele>
        <time>2014-07-08T11:49:06Z</time>
      </trkpt>
      <trkpt lat="59.7127173" lon="17.7313982">
        <ele>26.0929</ele>
        <time>2014-07-08T11:49:07Z</time>
      </trkpt>
      <trkpt lat="59.7127929" lon="17.731363">
        <ele>25.6123</ele>
        <time>2014-07-08T11:49:08Z</time>
      </trkpt>
      <trkpt lat="59.712868" lon="17.7313315">
        <ele>25.1317</ele>
        <time>2014-07-08T11:49:09Z</time>
      </trkpt>
      <trkpt lat="59.7129435" lon="17.7313014">
        <ele>25.1317</ele>
        <time>2014-07-08T11:49:10Z</time>
      </trkpt>
      <trkpt lat="59.7130206" lon="17.7312695">
        <ele>24.651</ele>
        <time>2014-07-08T11:49:11Z</time>
      </trkpt>
      <trkpt lat="59.7130979" lon="17.7312335">
        <ele>24.651</ele>
        <time>2014-07-08T11:49:12Z</time>
      </trkpt>
      <trkpt lat="59.7131735" lon="17.7311972">
        <ele>24.1703</ele>
        <time>2014-07-08T11:49:13Z</time>
      </trkpt>
      <trkpt lat="59.7132482" lon="17.731158">
        <ele>24.1703</ele>
        <time>2014-07-08T11:49:14Z</time>
      </trkpt>
      <trkpt lat="59.7133224" lon="17.7311167">
        <ele>24.1703</ele>
        <time>2014-07-08T11:49:15Z</time>
      </trkpt>
      <trkpt lat="59.7133972" lon="17.731077">
        <ele>24.1703</ele>
        <time>2014-07-08T11:49:16Z</time>
      </trkpt>
      <trkpt lat="59.7134721" lon="17.7310398">
        <ele>23.6896</ele>
        <time>2014-07-08T11:49:17Z</time>
      </trkpt>
      <trkpt lat="59.7135474" lon="17.7310055">
        <ele>23.6896</ele>
        <time>2014-07-08T11:49:18Z</time>
      </trkpt>
      <trkpt lat="59.7136231" lon="17.7309732">
        <ele>23.6896</ele>
        <time>2014-07-08T11:49:19Z</time>
      </trkpt>
      <trkpt lat="59.713698" lon="17.7309422">
        <ele>24.1703</ele>
        <time>2014-07-08T11:49:20Z</time>
      </trkpt>
      <trkpt lat="59.7137728" lon="17.7309163">
        <ele>24.1703</ele>
        <time>2014-07-08T11:49:21Z</time>
      </trkpt>
      <trkpt lat="59.7138465" lon="17.7308952">
        <ele>24.1703</ele>
        <time>2014-07-08T11:49:22Z</time>
      </trkpt>
      <trkpt lat="59.7139181" lon="17.7308724">
        <ele>24.1703</ele>
        <time>2014-07-08T11:49:23Z</time>
      </trkpt>
      <trkpt lat="59.7139874" lon="17.7308476">
        <ele>24.651</ele>
        <time>2014-07-08T11:49:24Z</time>
      </trkpt>
      <trkpt lat="59.7140554" lon="17.7308344">
        <ele>24.651</ele>
        <time>2014-07-08T11:49:25Z</time>
      </trkpt>
      <trkpt lat="59.7141206" lon="17.7308593">
        <ele>24.651</ele>
        <time>2014-07-08T11:49:26Z</time>
      </trkpt>
      <trkpt lat="59.7141698" lon="17.7309549">
        <ele>24.1703</ele>
        <time>2014-07-08T11:49:27Z</time>
      </trkpt>
      <trkpt lat="59.7142012" lon="17.7310784">
        <ele>24.1703</ele>
        <time>2014-07-08T11:49:28Z</time>
      </trkpt>
      <trkpt lat="59.7142123" lon="17.7312189">
        <ele>23.6896</ele>
        <time>2014-07-08T11:49:29Z</time>
      </trkpt>
      <trkpt lat="59.7142164" lon="17.7313683">
        <ele>23.6896</ele>
        <time>2014-07-08T11:49:30Z</time>
      </trkpt>
      <trkpt lat="59.7142221" lon="17.7315205">
        <ele>23.209</ele>
        <time>2014-07-08T11:49:31Z</time>
      </trkpt>
      <trkpt lat="59.7142305" lon="17.7316757">
        <ele>23.209</ele>
        <time>2014-07-08T11:49:32Z</time>
      </trkpt>
      <trkpt lat="59.7142401" lon="17.7318323">
        <ele>22.7283</ele>
        <time>2014-07-08T11:49:33Z</time>
      </trkpt>
      <trkpt lat="59.7142504" lon="17.7319917">
        <ele>22.2476</ele>
        <time>2014-07-08T11:49:34Z</time>
      </trkpt>
      <trkpt lat="59.7142594" lon="17.7321523">
        <ele>22.2476</ele>
        <time>2014-07-08T11:49:35Z</time>
      </trkpt>
      <trkpt lat="59.7142695" lon="17.7323157">
        <ele>22.2476</ele>
        <time>2014-07-08T11:49:36Z</time>
      </trkpt>
      <trkpt lat="59.7142799" lon="17.7324797">
        <ele>21.767</ele>
        <time>2014-07-08T11:49:37Z</time>
      </trkpt>
      <trkpt lat="59.7142897" lon="17.7326445">
        <ele>21.2864</ele>
        <time>2014-07-08T11:49:38Z</time>
      </trkpt>
      <trkpt lat="59.7142998" lon="17.7328099">
        <ele>21.2864</ele>
        <time>2014-07-08T11:49:39Z</time>
      </trkpt>
      <trkpt lat="59.7143106" lon="17.7329759">
        <ele>20.8057</ele>
        <time>2014-07-08T11:49:40Z</time>
      </trkpt>
      <trkpt lat="59.7143215" lon="17.7331418">
        <ele>20.8057</ele>
        <time>2014-07-08T11:49:41Z</time>
      </trkpt>
      <trkpt lat="59.7143318" lon="17.7333069">
        <ele>20.325</ele>
        <time>2014-07-08T11:49:42Z</time>
      </trkpt>
      <trkpt lat="59.7143429" lon="17.7334709">
        <ele>20.325</ele>
        <time>2014-07-08T11:49:43Z</time>
      </trkpt>
      <trkpt lat="59.7143562" lon="17.7336335">
        <ele>19.8444</ele>
        <time>2014-07-08T11:49:44Z</time>
      </trkpt>
      <trkpt lat="59.7143729" lon="17.7337903">
        <ele>19.8444</ele>
        <time>2014-07-08T11:49:45Z</time>
      </trkpt>
      <trkpt lat="59.7143916" lon="17.7339471">
        <ele>19.3638</ele>
        <time>2014-07-08T11:49:46Z</time>
      </trkpt>
      <trkpt lat="59.7144117" lon="17.7341068">
        <ele>19.3638</ele>
        <time>2014-07-08T11:49:47Z</time>
      </trkpt>
      <trkpt lat="59.714434" lon="17.7342626">
        <ele>18.8831</ele>
        <time>2014-07-08T11:49:48Z</time>
      </trkpt>
      <trkpt lat="59.7144586" lon="17.7344155">
        <ele>18.8831</ele>
        <time>2014-07-08T11:49:49Z</time>
      </trkpt>
      <trkpt lat="59.7144873" lon="17.7345637">
        <ele>18.4023</ele>
        <time>2014-07-08T11:49:50Z</time>
      </trkpt>
      <trkpt lat="59.7145204" lon="17.7347082">
        <ele>18.4023</ele>
        <time>2014-07-08T11:49:51Z</time>
      </trkpt>
      <trkpt lat="59.7145566" lon="17.7348498">
        <ele>18.4023</ele>
        <time>2014-07-08T11:49:52Z</time>
      </trkpt>
      <trkpt lat="59.7145966" lon="17.734988">
        <ele>17.9218</ele>
        <time>2014-07-08T11:49:53Z</time>
      </trkpt>
      <trkpt lat="59.7146401" lon="17.7351217">
        <ele>17.9218</ele>
        <time>2014-07-08T11:49:54Z</time>
      </trkpt>
      <trkpt lat="59.7146862" lon="17.735252">
        <ele>17.9218</ele>
        <time>2014-07-08T11:49:55Z</time>
      </trkpt>
      <trkpt lat="59.7147338" lon="17.7353776">
        <ele>17.9218</ele>
        <time>2014-07-08T11:49:56Z</time>
      </trkpt>
      <trkpt lat="59.7147815" lon="17.7354983">
        <ele>17.9218</ele>
        <time>2014-07-08T11:49:57Z</time>
      </trkpt>
      <trkpt lat="59.7148293" lon="17.7356152">
        <ele>17.9218</ele>
        <time>2014-07-08T11:49:58Z</time>
      </trkpt>
      <trkpt lat="59.7148768" lon="17.7357288">
        <ele>17.9218</ele>
        <time>2014-07-08T11:49:59Z</time>
      </trkpt>
      <trkpt lat="59.7149233" lon="17.7358402">
        <ele>17.9218</ele>
        <time>2014-07-08T11:50:00Z</time>
      </trkpt>
      <trkpt lat="59.7149697" lon="17.7359499">
        <ele>17.9218</ele>
        <time>2014-07-08T11:50:01Z</time>
      </trkpt>
      <trkpt lat="59.7150157" lon="17.7360587">
        <ele>17.9218</ele>
        <time>2014-07-08T11:50:02Z</time>
      </trkpt>
      <trkpt lat="59.7150617" lon="17.7361665">
        <ele>17.9218</ele>
        <time>2014-07-08T11:50:03Z</time>
      </trkpt>
      <trkpt lat="59.7151083" lon="17.7362721">
        <ele>17.9218</ele>
        <time>2014-07-08T11:50:04Z</time>
      </trkpt>
      <trkpt lat="59.7151549" lon="17.7363771">
        <ele>17.9218</ele>
        <time>2014-07-08T11:50:05Z</time>
      </trkpt>
      <trkpt lat="59.7152011" lon="17.7364829">
        <ele>17.9218</ele>
        <time>2014-07-08T11:50:06Z</time>
      </trkpt>
      <trkpt lat="59.7152463" lon="17.7365902">
        <ele>17.9218</ele>
        <time>2014-07-08T11:50:07Z</time>
      </trkpt>
      <trkpt lat="59.7152921" lon="17.7366968">
        <ele>17.9218</ele>
        <time>2014-07-08T11:50:08Z</time>
      </trkpt>
      <trkpt lat="59.7153379" lon="17.7368021">
        <ele>17.9218</ele>
        <time>2014-07-08T11:50:09Z</time>
      </trkpt>
      <trkpt lat="59.7153829" lon="17.7369076">
        <ele>17.9218</ele>
        <time>2014-07-08T11:50:10Z</time>
      </trkpt>
      <trkpt lat="59.7154275" lon="17.7370139">
        <ele>17.9218</ele>
        <time>2014-07-08T11:50:11Z</time>
      </trkpt>
      <trkpt lat="59.715471" lon="17.7371225">
        <ele>17.9218</ele>
        <time>2014-07-08T11:50:12Z</time>
      </trkpt>
      <trkpt lat="59.7155125" lon="17.737234">
        <ele>17.9218</ele>
        <time>2014-07-08T11:50:13Z</time>
      </trkpt>
      <trkpt lat="59.7155524" lon="17.737348">
        <ele>17.9218</ele>
        <time>2014-07-08T11:50:14Z</time>
      </trkpt>
      <trkpt lat="59.7155922" lon="17.7374629">
        <ele>17.9218</ele>
        <time>2014-07-08T11:50:15Z</time>
      </trkpt>
      <trkpt lat="59.7156314" lon="17.7375805">
        <ele>17.9218</ele>
        <time>2014-07-08T11:50:16Z</time>
      </trkpt>
      <trkpt lat="59.7156692" lon="17.7377023">
        <ele>17.9218</ele>
        <time>2014-07-08T11:50:17Z</time>
      </trkpt>
      <trkpt lat="59.715706" lon="17.7378281">
        <ele>17.4412</ele>
        <time>2014-07-08T11:50:18Z</time>
      </trkpt>
      <trkpt lat="59.7157413" lon="17.7379588">
        <ele>17.4412</ele>
        <time>2014-07-08T11:50:19Z</time>
      </trkpt>
      <trkpt lat="59.7157755" lon="17.7380922">
        <ele>17.4412</ele>
        <time>2014-07-08T11:50:20Z</time>
      </trkpt>
      <trkpt lat="59.715808" lon="17.7382265">
        <ele>16.9604</ele>
        <time>2014-07-08T11:50:21Z</time>
      </trkpt>
      <trkpt lat="59.7158384" lon="17.7383622">
        <ele>16.9604</ele>
        <time>2014-07-08T11:50:22Z</time>
      </trkpt>
      <trkpt lat="59.7158671" lon="17.7385">
        <ele>16.9604</ele>
        <time>2014-07-08T11:50:23Z</time>
      </trkpt>
      <trkpt lat="59.7158941" lon="17.7386398">
        <ele>16.9604</ele>
        <time>2014-07-08T11:50:24Z</time>
      </trkpt>
      <trkpt lat="59.7159199" lon="17.7387801">
        <ele>16.4797</ele>
        <time>2014-07-08T11:50:25Z</time>
      </trkpt>
      <trkpt lat="59.7159435" lon="17.7389213">
        <ele>16.4797</ele>
        <time>2014-07-08T11:50:26Z</time>
      </trkpt>
      <trkpt lat="59.7159642" lon="17.7390642">
        <ele>16.4797</ele>
        <time>2014-07-08T11:50:27Z</time>
      </trkpt>
      <trkpt lat="59.7159811" lon="17.7392072">
        <ele>16.4797</ele>
        <time>2014-07-08T11:50:28Z</time>
      </trkpt>
      <trkpt lat="59.7159963" lon="17.7393491">
        <ele>16.4797</ele>
        <time>2014-07-08T11:50:29Z</time>
      </trkpt>
      <trkpt lat="59.7160097" lon="17.7394896">
        <ele>16.4797</ele>
        <time>2014-07-08T11:50:30Z</time>
      </trkpt>
      <trkpt lat="59.7160206" lon="17.7396302">
        <ele>16.4797</ele>
        <time>2014-07-08T11:50:31Z</time>
      </trkpt>
      <trkpt lat="59.7160294" lon="17.7397719">
        <ele>16.4797</ele>
        <time>2014-07-08T11:50:32Z</time>
      </trkpt>
      <trkpt lat="59.7160365" lon="17.7399149">
        <ele>16.4797</ele>
        <time>2014-07-08T11:50:33Z</time>
      </trkpt>
      <trkpt lat="59.7160413" lon="17.7400576">
        <ele>15.999</ele>
        <time>2014-07-08T11:50:34Z</time>
      </trkpt>
      <trkpt lat="59.7160428" lon="17.740199">
        <ele>15.999</ele>
        <time>2014-07-08T11:50:35Z</time>
      </trkpt>
      <trkpt lat="59.7160424" lon="17.7403402">
        <ele>15.999</ele>
        <time>2014-07-08T11:50:36Z</time>
      </trkpt>
      <trkpt lat="59.7160411" lon="17.7404825">
        <ele>15.999</ele>
        <time>2014-07-08T11:50:37Z</time>
      </trkpt>
      <trkpt lat="59.7160391" lon="17.740625">
        <ele>15.999</ele>
        <time>2014-07-08T11:50:38Z</time>
      </trkpt>
      <trkpt lat="59.7160349" lon="17.7407675">
        <ele>15.999</ele>
        <time>2014-07-08T11:50:39Z</time>
      </trkpt>
      <trkpt lat="59.7160279" lon="17.7409095">
        <ele>15.999</ele>
        <time>2014-07-08T11:50:40Z</time>
      </trkpt>
      <trkpt lat="59.7160189" lon="17.7410503">
        <ele>15.999</ele>
        <time>2014-07-08T11:50:41Z</time>
      </trkpt>
      <trkpt lat="59.7160082" lon="17.7411902">
        <ele>15.999</ele>
        <time>2014-07-08T11:50:42Z</time>
      </trkpt>
      <trkpt lat="59.7159959" lon="17.741329">
        <ele>15.999</ele>
        <time>2014-07-08T11:50:43Z</time>
      </trkpt>
      <trkpt lat="59.7159819" lon="17.7414662">
        <ele>15.999</ele>
        <time>2014-07-08T11:50:44Z</time>
      </trkpt>
      <trkpt lat="59.7159667" lon="17.7416017">
        <ele>15.999</ele>
        <time>2014-07-08T11:50:45Z</time>
      </trkpt>
      <trkpt lat="59.7159502" lon="17.741736">
        <ele>15.999</ele>
        <time>2014-07-08T11:50:46Z</time>
      </trkpt>
      <trkpt lat="59.7159325" lon="17.7418707">
        <ele>15.5184</ele>
        <time>2014-07-08T11:50:47Z</time>
      </trkpt>
      <trkpt lat="59.7159137" lon="17.7420065">
        <ele>15.5184</ele>
        <time>2014-07-08T11:50:48Z</time>
      </trkpt>
      <trkpt lat="59.7158946" lon="17.7421431">
        <ele>15.5184</ele>
        <time>2014-07-08T11:50:49Z</time>
      </trkpt>
      <trkpt lat="59.7158757" lon="17.7422785">
        <ele>15.5184</ele>
        <time>2014-07-08T11:50:50Z</time>
      </trkpt>
      <trkpt lat="59.7158569" lon="17.7424126">
        <ele>15.5184</ele>
        <time>2014-07-08T11:50:51Z</time>
      </trkpt>
      <trkpt lat="59.7158378" lon="17.7425472">
        <ele>15.5184</ele>
        <time>2014-07-08T11:50:52Z</time>
      </trkpt>
      <trkpt lat="59.7158191" lon="17.7426841">
        <ele>15.5184</ele>
        <time>2014-07-08T11:50:53Z</time>
      </trkpt>
      <trkpt lat="59.7157992" lon="17.7428223">
        <ele>15.5184</ele>
        <time>2014-07-08T11:50:54Z</time>
      </trkpt>
      <trkpt lat="59.7157787" lon="17.7429605">
        <ele>15.5184</ele>
        <time>2014-07-08T11:50:55Z</time>
      </trkpt>
      <trkpt lat="59.7157594" lon="17.7430991">
        <ele>15.0377</ele>
        <time>2014-07-08T11:50:56Z</time>
      </trkpt>
      <trkpt lat="59.7157413" lon="17.7432373">
        <ele>15.0377</ele>
        <time>2014-07-08T11:50:57Z</time>
      </trkpt>
      <trkpt lat="59.7157231" lon="17.7433741">
        <ele>15.0377</ele>
        <time>2014-07-08T11:50:58Z</time>
      </trkpt>
      <trkpt lat="59.7157041" lon="17.7435098">
        <ele>15.0377</ele>
        <time>2014-07-08T11:50:59Z</time>
      </trkpt>
      <trkpt lat="59.7156851" lon="17.7436458">
        <ele>15.0377</ele>
        <time>2014-07-08T11:51:00Z</time>
      </trkpt>
      <trkpt lat="59.7156663" lon="17.7437815">
        <ele>15.0377</ele>
        <time>2014-07-08T11:51:01Z</time>
      </trkpt>
      <trkpt lat="59.7156469" lon="17.7439164">
        <ele>15.0377</ele>
        <time>2014-07-08T11:51:02Z</time>
      </trkpt>
      <trkpt lat="59.7156275" lon="17.7440512">
        <ele>15.0377</ele>
        <time>2014-07-08T11:51:03Z</time>
      </trkpt>
      <trkpt lat="59.7156088" lon="17.7441864">
        <ele>15.0377</ele>
        <time>2014-07-08T11:51:04Z</time>
      </trkpt>
      <trkpt lat="59.7155912" lon="17.744321">
        <ele>15.5184</ele>
        <time>2014-07-08T11:51:05Z</time>
      </trkpt>
      <trkpt lat="59.715573" lon="17.744454">
        <ele>15.5184</ele>
        <time>2014-07-08T11:51:06Z</time>
      </trkpt>
      <trkpt lat="59.7155542" lon="17.7445867">
        <ele>15.5184</ele>
        <time>2014-07-08T11:51:07Z</time>
      </trkpt>
      <trkpt lat="59.7155357" lon="17.7447209">
        <ele>15.0377</ele>
        <time>2014-07-08T11:51:08Z</time>
      </trkpt>
      <trkpt lat="59.7155169" lon="17.7448569">
        <ele>15.0377</ele>
        <time>2014-07-08T11:51:09Z</time>
      </trkpt>
      <trkpt lat="59.7154969" lon="17.7449937">
        <ele>15.0377</ele>
        <time>2014-07-08T11:51:10Z</time>
      </trkpt>
      <trkpt lat="59.7154775" lon="17.745131">
        <ele>15.0377</ele>
        <time>2014-07-08T11:51:11Z</time>
      </trkpt>
      <trkpt lat="59.7154592" lon="17.745267">
        <ele>15.0377</ele>
        <time>2014-07-08T11:51:12Z</time>
      </trkpt>
      <trkpt lat="59.7154415" lon="17.7454011">
        <ele>15.0377</ele>
        <time>2014-07-08T11:51:13Z</time>
      </trkpt>
      <trkpt lat="59.7154235" lon="17.7455352">
        <ele>15.0377</ele>
        <time>2014-07-08T11:51:14Z</time>
      </trkpt>
      <trkpt lat="59.7154048" lon="17.7456704">
        <ele>15.0377</ele>
        <time>2014-07-08T11:51:15Z</time>
      </trkpt>
      <trkpt lat="59.7153862" lon="17.7458049">
        <ele>14.557</ele>
        <time>2014-07-08T11:51:16Z</time>
      </trkpt>
      <trkpt lat="59.7153677" lon="17.7459393">
        <ele>14.557</ele>
        <time>2014-07-08T11:51:17Z</time>
      </trkpt>
      <trkpt lat="59.7153482" lon="17.746076">
        <ele>14.557</ele>
        <time>2014-07-08T11:51:18Z</time>
      </trkpt>
      <trkpt lat="59.7153285" lon="17.7462144">
        <ele>14.0764</ele>
        <time>2014-07-08T11:51:19Z</time>
      </trkpt>
      <trkpt lat="59.7153087" lon="17.7463542">
        <ele>14.0764</ele>
        <time>2014-07-08T11:51:20Z</time>
      </trkpt>
      <trkpt lat="59.715289" lon="17.7464956">
        <ele>13.5958</ele>
        <time>2014-07-08T11:51:21Z</time>
      </trkpt>
      <trkpt lat="59.7152695" lon="17.7466395">
        <ele>13.5958</ele>
        <time>2014-07-08T11:51:22Z</time>
      </trkpt>
      <trkpt lat="59.7152488" lon="17.7467846">
        <ele>13.1151</ele>
        <time>2014-07-08T11:51:23Z</time>
      </trkpt>
      <trkpt lat="59.7152275" lon="17.7469302">
        <ele>13.1151</ele>
        <time>2014-07-08T11:51:24Z</time>
      </trkpt>
      <trkpt lat="59.7152069" lon="17.7470771">
        <ele>13.1151</ele>
        <time>2014-07-08T11:51:25Z</time>
      </trkpt>
      <trkpt lat="59.7151861" lon="17.7472269">
        <ele>12.6344</ele>
        <time>2014-07-08T11:51:26Z</time>
      </trkpt>
      <trkpt lat="59.7151645" lon="17.74738">
        <ele>12.6344</ele>
        <time>2014-07-08T11:51:27Z</time>
      </trkpt>
      <trkpt lat="59.7151435" lon="17.7475352">
        <ele>12.6344</ele>
        <time>2014-07-08T11:51:28Z</time>
      </trkpt>
      <trkpt lat="59.715123" lon="17.7476906">
        <ele>12.6344</ele>
        <time>2014-07-08T11:51:29Z</time>
      </trkpt>
      <trkpt lat="59.7151031" lon="17.7478444">
        <ele>12.1538</ele>
        <time>2014-07-08T11:51:30Z</time>
      </trkpt>
      <trkpt lat="59.7150828" lon="17.7479947">
        <ele>12.1538</ele>
        <time>2014-07-08T11:51:31Z</time>
      </trkpt>
      <trkpt lat="59.7150628" lon="17.7481418">
        <ele>12.1538</ele>
        <time>2014-07-08T11:51:32Z</time>
      </trkpt>
      <trkpt lat="59.7150431" lon="17.7482858">
        <ele>12.1538</ele>
        <time>2014-07-08T11:51:33Z</time>
      </trkpt>
      <trkpt lat="59.7150233" lon="17.7484271">
        <ele>12.1538</ele>
        <time>2014-07-08T11:51:34Z</time>
      </trkpt>
      <trkpt lat="59.7150033" lon="17.7485659">
        <ele>12.1538</ele>
        <time>2014-07-08T11:51:35Z</time>
      </trkpt>
      <trkpt lat="59.7149836" lon="17.7487042">
        <ele>11.6732</ele>
        <time>2014-07-08T11:51:36Z</time>
      </trkpt>
      <trkpt lat="59.7149639" lon="17.7488435">
        <ele>11.6732</ele>
        <time>2014-07-08T11:51:37Z</time>
      </trkpt>
      <trkpt lat="59.7149437" lon="17.7489834">
        <ele>11.6732</ele>
        <time>2014-07-08T11:51:38Z</time>
      </trkpt>
      <trkpt lat="59.714924" lon="17.7491245">
        <ele>11.1925</ele>
        <time>2014-07-08T11:51:39Z</time>
      </trkpt>
      <trkpt lat="59.7149053" lon="17.7492675">
        <ele>11.1925</ele>
        <time>2014-07-08T11:51:40Z</time>
      </trkpt>
      <trkpt lat="59.7148856" lon="17.7494126">
        <ele>10.7118</ele>
        <time>2014-07-08T11:51:41Z</time>
      </trkpt>
      <trkpt lat="59.7148648" lon="17.749561">
        <ele>10.7118</ele>
        <time>2014-07-08T11:51:42Z</time>
      </trkpt>
      <trkpt lat="59.7148437" lon="17.7497125">
        <ele>10.7118</ele>
        <time>2014-07-08T11:51:43Z</time>
      </trkpt>
      <trkpt lat="59.7148225" lon="17.7498652">
        <ele>10.2312</ele>
        <time>2014-07-08T11:51:44Z</time>
      </trkpt>
      <trkpt lat="59.7148024" lon="17.7500179">
        <ele>10.2312</ele>
        <time>2014-07-08T11:51:45Z</time>
      </trkpt>
      <trkpt lat="59.7147834" lon="17.750171">
        <ele>10.2312</ele>
        <time>2014-07-08T11:51:46Z</time>
      </trkpt>
      <trkpt lat="59.7147648" lon="17.750325">
        <ele>10.2312</ele>
        <time>2014-07-08T11:51:47Z</time>
      </trkpt>
      <trkpt lat="59.7147466" lon="17.7504796">
        <ele>10.2312</ele>
        <time>2014-07-08T11:51:48Z</time>
      </trkpt>
      <trkpt lat="59.7147312" lon="17.7506335">
        <ele>10.2312</ele>
        <time>2014-07-08T11:51:49Z</time>
      </trkpt>
      <trkpt lat="59.7147188" lon="17.7507841">
        <ele>10.2312</ele>
        <time>2014-07-08T11:51:50Z</time>
      </trkpt>
      <trkpt lat="59.7147096" lon="17.7509312">
        <ele>10.2312</ele>
        <time>2014-07-08T11:51:51Z</time>
      </trkpt>
      <trkpt lat="59.7147033" lon="17.7510751">
        <ele>10.2312</ele>
        <time>2014-07-08T11:51:52Z</time>
      </trkpt>
      <trkpt lat="59.7146991" lon="17.7512172">
        <ele>10.2312</ele>
        <time>2014-07-08T11:51:53Z</time>
      </trkpt>
      <trkpt lat="59.7146982" lon="17.7513588">
        <ele>10.2312</ele>
        <time>2014-07-08T11:51:54Z</time>
      </trkpt>
      <trkpt lat="59.7147005" lon="17.7515007">
        <ele>10.2312</ele>
        <time>2014-07-08T11:51:55Z</time>
      </trkpt>
      <trkpt lat="59.7147054" lon="17.7516432">
        <ele>10.2312</ele>
        <time>2014-07-08T11:51:56Z</time>
      </trkpt>
      <trkpt lat="59.714713" lon="17.7517877">
        <ele>10.2312</ele>
        <time>2014-07-08T11:51:57Z</time>
      </trkpt>
      <trkpt lat="59.7147233" lon="17.7519341">
        <ele>10.2312</ele>
        <time>2014-07-08T11:51:58Z</time>
      </trkpt>
      <trkpt lat="59.7147358" lon="17.7520817">
        <ele>10.7118</ele>
        <time>2014-07-08T11:51:59Z</time>
      </trkpt>
      <trkpt lat="59.7147498" lon="17.75223">
        <ele>10.7118</ele>
        <time>2014-07-08T11:52:00Z</time>
      </trkpt>
      <trkpt lat="59.7147648" lon="17.7523789">
        <ele>10.7118</ele>
        <time>2014-07-08T11:52:01Z</time>
      </trkpt>
      <trkpt lat="59.7147809" lon="17.7525282">
        <ele>10.7118</ele>
        <time>2014-07-08T11:52:02Z</time>
      </trkpt>
      <trkpt lat="59.7147979" lon="17.752679">
        <ele>10.7118</ele>
        <time>2014-07-08T11:52:03Z</time>
      </trkpt>
      <trkpt lat="59.7148152" lon="17.7528301">
        <ele>10.7118</ele>
        <time>2014-07-08T11:52:04Z</time>
      </trkpt>
      <trkpt lat="59.7148339" lon="17.7529779">
        <ele>10.7118</ele>
        <time>2014-07-08T11:52:05Z</time>
      </trkpt>
      <trkpt lat="59.714853" lon="17.7531219">
        <ele>10.7118</ele>
        <time>2014-07-08T11:52:06Z</time>
      </trkpt>
      <trkpt lat="59.7148706" lon="17.7532629">
        <ele>10.7118</ele>
        <time>2014-07-08T11:52:07Z</time>
      </trkpt>
      <trkpt lat="59.7148877" lon="17.7534021">
        <ele>10.7118</ele>
        <time>2014-07-08T11:52:08Z</time>
      </trkpt>
      <trkpt lat="59.7149053" lon="17.7535411">
        <ele>10.7118</ele>
        <time>2014-07-08T11:52:09Z</time>
      </trkpt>
      <trkpt lat="59.7149234" lon="17.7536805">
        <ele>10.7118</ele>
        <time>2014-07-08T11:52:10Z</time>
      </trkpt>
      <trkpt lat="59.7149417" lon="17.7538216">
        <ele>10.7118</ele>
        <time>2014-07-08T11:52:11Z</time>
      </trkpt>
      <trkpt lat="59.7149603" lon="17.7539644">
        <ele>10.7118</ele>
        <time>2014-07-08T11:52:12Z</time>
      </trkpt>
      <trkpt lat="59.7149784" lon="17.7541088">
        <ele>10.7118</ele>
        <time>2014-07-08T11:52:13Z</time>
      </trkpt>
      <trkpt lat="59.714996" lon="17.7542523">
        <ele>11.1925</ele>
        <time>2014-07-08T11:52:14Z</time>
      </trkpt>
      <trkpt lat="59.715013" lon="17.7543914">
        <ele>11.1925</ele>
        <time>2014-07-08T11:52:15Z</time>
      </trkpt>
      <trkpt lat="59.7150292" lon="17.7545263">
        <ele>11.6732</ele>
        <time>2014-07-08T11:52:16Z</time>
      </trkpt>
      <trkpt lat="59.7150447" lon="17.7546592">
        <ele>11.6732</ele>
        <time>2014-07-08T11:52:17Z</time>
      </trkpt>
      <trkpt lat="59.7150587" lon="17.7547909">
        <ele>11.6732</ele>
        <time>2014-07-08T11:52:18Z</time>
      </trkpt>
      <trkpt lat="59.7150694" lon="17.7549213">
        <ele>12.1538</ele>
        <time>2014-07-08T11:52:19Z</time>
      </trkpt>
      <trkpt lat="59.7150805" lon="17.7550515">
        <ele>12.1538</ele>
        <time>2014-07-08T11:52:20Z</time>
      </trkpt>
      <trkpt lat="59.7150898" lon="17.7551821">
        <ele>12.1538</ele>
        <time>2014-07-08T11:52:21Z</time>
      </trkpt>
      <trkpt lat="59.7150949" lon="17.7553116">
        <ele>12.1538</ele>
        <time>2014-07-08T11:52:22Z</time>
      </trkpt>
      <trkpt lat="59.7150971" lon="17.7554416">
        <ele>12.1538</ele>
        <time>2014-07-08T11:52:23Z</time>
      </trkpt>
      <trkpt lat="59.7150966" lon="17.7555727">
        <ele>12.1538</ele>
        <time>2014-07-08T11:52:24Z</time>
      </trkpt>
      <trkpt lat="59.7150939" lon="17.7557039">
        <ele>12.6344</ele>
        <time>2014-07-08T11:52:25Z</time>
      </trkpt>
      <trkpt lat="59.7150906" lon="17.7558361">
        <ele>12.6344</ele>
        <time>2014-07-08T11:52:26Z</time>
      </trkpt>
      <trkpt lat="59.7150855" lon="17.7559689">
        <ele>12.6344</ele>
        <time>2014-07-08T11:52:27Z</time>
      </trkpt>
      <trkpt lat="59.7150779" lon="17.7561016">
        <ele>12.6344</ele>
        <time>2014-07-08T11:52:28Z</time>
      </trkpt>
      <trkpt lat="59.7150674" lon="17.756234">
        <ele>12.6344</ele>
        <time>2014-07-08T11:52:29Z</time>
      </trkpt>
      <trkpt lat="59.7150543" lon="17.7563662">
        <ele>12.6344</ele>
        <time>2014-07-08T11:52:30Z</time>
      </trkpt>
      <trkpt lat="59.7150395" lon="17.7564983">
        <ele>12.6344</ele>
        <time>2014-07-08T11:52:31Z</time>
      </trkpt>
      <trkpt lat="59.7150248" lon="17.7566301">
        <ele>12.6344</ele>
        <time>2014-07-08T11:52:32Z</time>
      </trkpt>
      <trkpt lat="59.715011" lon="17.7567542">
        <ele>12.6344</ele>
        <time>2014-07-08T11:52:33Z</time>
      </trkpt>
      <trkpt lat="59.7149955" lon="17.7568795">
        <ele>12.6344</ele>
        <time>2014-07-08T11:52:34Z</time>
      </trkpt>
      <trkpt lat="59.7149768" lon="17.7570091">
        <ele>12.6344</ele>
        <time>2014-07-08T11:52:35Z</time>
      </trkpt>
      <trkpt lat="59.7149604" lon="17.7571386">
        <ele>12.1538</ele>
        <time>2014-07-08T11:52:36Z</time>
      </trkpt>
      <trkpt lat="59.7149427" lon="17.7572719">
        <ele>12.1538</ele>
        <time>2014-07-08T11:52:37Z</time>
      </trkpt>
      <trkpt lat="59.7149249" lon="17.7574107">
        <ele>12.1538</ele>
        <time>2014-07-08T11:52:38Z</time>
      </trkpt>
      <trkpt lat="59.7149053" lon="17.7575525">
        <ele>12.1538</ele>
        <time>2014-07-08T11:52:39Z</time>
      </trkpt>
      <trkpt lat="59.7148861" lon="17.7576968">
        <ele>11.6732</ele>
        <time>2014-07-08T11:52:40Z</time>
      </trkpt>
      <trkpt lat="59.7148673" lon="17.7578411">
        <ele>11.6732</ele>
        <time>2014-07-08T11:52:41Z</time>
      </trkpt>
      <trkpt lat="59.7148474" lon="17.7579826">
        <ele>11.6732</ele>
        <time>2014-07-08T11:52:42Z</time>
      </trkpt>
      <trkpt lat="59.7148272" lon="17.7581221">
        <ele>11.1925</ele>
        <time>2014-07-08T11:52:43Z</time>
      </trkpt>
      <trkpt lat="59.7148085" lon="17.7582617">
        <ele>11.1925</ele>
        <time>2014-07-08T11:52:44Z</time>
      </trkpt>
      <trkpt lat="59.7147902" lon="17.758403">
        <ele>11.1925</ele>
        <time>2014-07-08T11:52:45Z</time>
      </trkpt>
      <trkpt lat="59.7147718" lon="17.7585466">
        <ele>11.1925</ele>
        <time>2014-07-08T11:52:46Z</time>
      </trkpt>
      <trkpt lat="59.714753" lon="17.7586911">
        <ele>11.1925</ele>
        <time>2014-07-08T11:52:47Z</time>
      </trkpt>
      <trkpt lat="59.7147357" lon="17.7588367">
        <ele>11.1925</ele>
        <time>2014-07-08T11:52:48Z</time>
      </trkpt>
      <trkpt lat="59.7147182" lon="17.7589796">
        <ele>11.1925</ele>
        <time>2014-07-08T11:52:49Z</time>
      </trkpt>
      <trkpt lat="59.7147006" lon="17.75912">
        <ele>11.1925</ele>
        <time>2014-07-08T11:52:50Z</time>
      </trkpt>
      <trkpt lat="59.7146829" lon="17.7592589">
        <ele>11.1925</ele>
        <time>2014-07-08T11:52:51Z</time>
      </trkpt>
      <trkpt lat="59.7146643" lon="17.7593976">
        <ele>11.1925</ele>
        <time>2014-07-08T11:52:52Z</time>
      </trkpt>
      <trkpt lat="59.7146451" lon="17.7595366">
        <ele>11.6732</ele>
        <time>2014-07-08T11:52:53Z</time>
      </trkpt>
      <trkpt lat="59.7146262" lon="17.7596752">
        <ele>11.6732</ele>
        <time>2014-07-08T11:52:54Z</time>
      </trkpt>
      <trkpt lat="59.7146095" lon="17.759813">
        <ele>12.1538</ele>
        <time>2014-07-08T11:52:55Z</time>
      </trkpt>
      <trkpt lat="59.714593" lon="17.7599492">
        <ele>12.1538</ele>
        <time>2014-07-08T11:52:56Z</time>
      </trkpt>
      <trkpt lat="59.7145769" lon="17.760086">
        <ele>12.6344</ele>
        <time>2014-07-08T11:52:57Z</time>
      </trkpt>
      <trkpt lat="59.7145618" lon="17.7602232">
        <ele>12.6344</ele>
        <time>2014-07-08T11:52:58Z</time>
      </trkpt>
      <trkpt lat="59.7145494" lon="17.7603632">
        <ele>13.1151</ele>
        <time>2014-07-08T11:52:59Z</time>
      </trkpt>
      <trkpt lat="59.7145365" lon="17.7605052">
        <ele>13.1151</ele>
        <time>2014-07-08T11:53:00Z</time>
      </trkpt>
      <trkpt lat="59.714525" lon="17.7606498">
        <ele>13.1151</ele>
        <time>2014-07-08T11:53:01Z</time>
      </trkpt>
      <trkpt lat="59.7145141" lon="17.7607963">
        <ele>13.5958</ele>
        <time>2014-07-08T11:53:02Z</time>
      </trkpt>
      <trkpt lat="59.7145039" lon="17.7609443">
        <ele>13.5958</ele>
        <time>2014-07-08T11:53:03Z</time>
      </trkpt>
      <trkpt lat="59.7144952" lon="17.7610926">
        <ele>13.5958</ele>
        <time>2014-07-08T11:53:04Z</time>
      </trkpt>
      <trkpt lat="59.7144859" lon="17.7612387">
        <ele>13.5958</ele>
        <time>2014-07-08T11:53:05Z</time>
      </trkpt>
      <trkpt lat="59.714476" lon="17.7613818">
        <ele>13.5958</ele>
        <time>2014-07-08T11:53:06Z</time>
      </trkpt>
      <trkpt lat="59.7144672" lon="17.7615242">
        <ele>13.5958</ele>
        <time>2014-07-08T11:53:07Z</time>
      </trkpt>
      <trkpt lat="59.7144578" lon="17.7616669">
        <ele>14.0764</ele>
        <time>2014-07-08T11:53:08Z</time>
      </trkpt>
      <trkpt lat="59.7144485" lon="17.7618104">
        <ele>14.0764</ele>
        <time>2014-07-08T11:53:09Z</time>
      </trkpt>
      <trkpt lat="59.7144407" lon="17.7619538">
        <ele>14.0764</ele>
        <time>2014-07-08T11:53:10Z</time>
      </trkpt>
      <trkpt lat="59.7144334" lon="17.7620975">
        <ele>14.0764</ele>
        <time>2014-07-08T11:53:11Z</time>
      </trkpt>
      <trkpt lat="59.7144262" lon="17.762241">
        <ele>14.0764</ele>
        <time>2014-07-08T11:53:12Z</time>
      </trkpt>
      <trkpt lat="59.7144178" lon="17.7623824">
        <ele>14.0764</ele>
        <time>2014-07-08T11:53:13Z</time>
      </trkpt>
      <trkpt lat="59.7144087" lon="17.7625243">
        <ele>14.0764</ele>
        <time>2014-07-08T11:53:14Z</time>
      </trkpt>
      <trkpt lat="59.7143993" lon="17.7626682">
        <ele>13.5958</ele>
        <time>2014-07-08T11:53:15Z</time>
      </trkpt>
      <trkpt lat="59.7143911" lon="17.7628134">
        <ele>13.5958</ele>
        <time>2014-07-08T11:53:16Z</time>
      </trkpt>
      <trkpt lat="59.7143851" lon="17.7629595">
        <ele>13.5958</ele>
        <time>2014-07-08T11:53:17Z</time>
      </trkpt>
      <trkpt lat="59.7143801" lon="17.7631087">
        <ele>13.1151</ele>
        <time>2014-07-08T11:53:18Z</time>
      </trkpt>
      <trkpt lat="59.7143786" lon="17.7632614">
        <ele>13.1151</ele>
        <time>2014-07-08T11:53:19Z</time>
      </trkpt>
      <trkpt lat="59.7143809" lon="17.7634133">
        <ele>12.6344</ele>
        <time>2014-07-08T11:53:20Z</time>
      </trkpt>
      <trkpt lat="59.7143873" lon="17.7635644">
        <ele>12.6344</ele>
        <time>2014-07-08T11:53:21Z</time>
      </trkpt>
      <trkpt lat="59.7143971" lon="17.763714">
        <ele>12.6344</ele>
        <time>2014-07-08T11:53:22Z</time>
      </trkpt>
      <trkpt lat="59.7144105" lon="17.7638622">
        <ele>12.1538</ele>
        <time>2014-07-08T11:53:23Z</time>
      </trkpt>
      <trkpt lat="59.7144283" lon="17.764009">
        <ele>12.1538</ele>
        <time>2014-07-08T11:53:24Z</time>
      </trkpt>
      <trkpt lat="59.7144506" lon="17.7641591">
        <ele>12.1538</ele>
        <time>2014-07-08T11:53:25Z</time>
      </trkpt>
      <trkpt lat="59.714478" lon="17.7642971">
        <ele>12.1538</ele>
        <time>2014-07-08T11:53:26Z</time>
      </trkpt>
      <trkpt lat="59.714507" lon="17.7644313">
        <ele>12.1538</ele>
        <time>2014-07-08T11:53:27Z</time>
      </trkpt>
      <trkpt lat="59.7145385" lon="17.7645637">
        <ele>12.1538</ele>
        <time>2014-07-08T11:53:28Z</time>
      </trkpt>
      <trkpt lat="59.7145733" lon="17.7646928">
        <ele>12.1538</ele>
        <time>2014-07-08T11:53:29Z</time>
      </trkpt>
      <trkpt lat="59.7146111" lon="17.7648192">
        <ele>12.1538</ele>
        <time>2014-07-08T11:53:30Z</time>
      </trkpt>
      <trkpt lat="59.7146509" lon="17.7649441">
        <ele>12.1538</ele>
        <time>2014-07-08T11:53:31Z</time>
      </trkpt>
      <trkpt lat="59.7146924" lon="17.7650679">
        <ele>12.1538</ele>
        <time>2014-07-08T11:53:32Z</time>
      </trkpt>
      <trkpt lat="59.7147337" lon="17.7651917">
        <ele>12.1538</ele>
        <time>2014-07-08T11:53:33Z</time>
      </trkpt>
      <trkpt lat="59.7147751" lon="17.7653139">
        <ele>12.1538</ele>
        <time>2014-07-08T11:53:34Z</time>
      </trkpt>
      <trkpt lat="59.7148176" lon="17.7654329">
        <ele>12.1538</ele>
        <time>2014-07-08T11:53:35Z</time>
      </trkpt>
      <trkpt lat="59.7148592" lon="17.7655509">
        <ele>12.1538</ele>
        <time>2014-07-08T11:53:36Z</time>
      </trkpt>
      <trkpt lat="59.7148996" lon="17.7656678">
        <ele>12.1538</ele>
        <time>2014-07-08T11:53:37Z</time>
      </trkpt>
      <trkpt lat="59.7149395" lon="17.7657847">
        <ele>12.1538</ele>
        <time>2014-07-08T11:53:38Z</time>
      </trkpt>
      <trkpt lat="59.7149794" lon="17.7659016">
        <ele>12.1538</ele>
        <time>2014-07-08T11:53:39Z</time>
      </trkpt>
      <trkpt lat="59.7150197" lon="17.7660166">
        <ele>11.6732</ele>
        <time>2014-07-08T11:53:40Z</time>
      </trkpt>
      <trkpt lat="59.7150603" lon="17.7661293">
        <ele>11.6732</ele>
        <time>2014-07-08T11:53:41Z</time>
      </trkpt>
      <trkpt lat="59.715101" lon="17.7662416">
        <ele>11.6732</ele>
        <time>2014-07-08T11:53:42Z</time>
      </trkpt>
      <trkpt lat="59.7151412" lon="17.766355">
        <ele>11.6732</ele>
        <time>2014-07-08T11:53:43Z</time>
      </trkpt>
      <trkpt lat="59.7151815" lon="17.7664675">
        <ele>11.6732</ele>
        <time>2014-07-08T11:53:44Z</time>
      </trkpt>
      <trkpt lat="59.7152203" lon="17.7665788">
        <ele>11.6732</ele>
        <time>2014-07-08T11:53:45Z</time>
      </trkpt>
      <trkpt lat="59.7152581" lon="17.7666923">
        <ele>11.6732</ele>
        <time>2014-07-08T11:53:46Z</time>
      </trkpt>
      <trkpt lat="59.7152964" lon="17.7668073">
        <ele>11.6732</ele>
        <time>2014-07-08T11:53:47Z</time>
      </trkpt>
      <trkpt lat="59.7153367" lon="17.7669224">
        <ele>11.6732</ele>
        <time>2014-07-08T11:53:48Z</time>
      </trkpt>
      <trkpt lat="59.7153773" lon="17.7670389">
        <ele>11.6732</ele>
        <time>2014-07-08T11:53:49Z</time>
      </trkpt>
      <trkpt lat="59.7154181" lon="17.7671573">
        <ele>11.1925</ele>
        <time>2014-07-08T11:53:50Z</time>
      </trkpt>
      <trkpt lat="59.7154595" lon="17.7672748">
        <ele>11.6732</ele>
        <time>2014-07-08T11:53:51Z</time>
      </trkpt>
      <trkpt lat="59.7155005" lon="17.7673925">
        <ele>11.6732</ele>
        <time>2014-07-08T11:53:52Z</time>
      </trkpt>
      <trkpt lat="59.7155409" lon="17.7675106">
        <ele>11.6732</ele>
        <time>2014-07-08T11:53:53Z</time>
      </trkpt>
      <trkpt lat="59.7155811" lon="17.7676286">
        <ele>11.6732</ele>
        <time>2014-07-08T11:53:54Z</time>
      </trkpt>
      <trkpt lat="59.7156219" lon="17.7677463">
        <ele>11.6732</ele>
        <time>2014-07-08T11:53:55Z</time>
      </trkpt>
      <trkpt lat="59.7156637" lon="17.7678631">
        <ele>11.6732</ele>
        <time>2014-07-08T11:53:56Z</time>
      </trkpt>
      <trkpt lat="59.7157057" lon="17.7679795">
        <ele>11.6732</ele>
        <time>2014-07-08T11:53:57Z</time>
      </trkpt>
      <trkpt lat="59.7157461" lon="17.7680848">
        <ele>11.6732</ele>
        <time>2014-07-08T11:53:58Z</time>
      </trkpt>
      <trkpt lat="59.7157861" lon="17.768192">
        <ele>11.6732</ele>
        <time>2014-07-08T11:53:59Z</time>
      </trkpt>
      <trkpt lat="59.7158251" lon="17.7683069">
        <ele>11.6732</ele>
        <time>2014-07-08T11:54:00Z</time>
      </trkpt>
      <trkpt lat="59.7158619" lon="17.7684178">
        <ele>11.6732</ele>
        <time>2014-07-08T11:54:01Z</time>
      </trkpt>
      <trkpt lat="59.7159003" lon="17.7685267">
        <ele>12.1538</ele>
        <time>2014-07-08T11:54:02Z</time>
      </trkpt>
      <trkpt lat="59.7159397" lon="17.7686351">
        <ele>12.1538</ele>
        <time>2014-07-08T11:54:03Z</time>
      </trkpt>
      <trkpt lat="59.7159787" lon="17.7687447">
        <ele>12.1538</ele>
        <time>2014-07-08T11:54:04Z</time>
      </trkpt>
      <trkpt lat="59.7160169" lon="17.7688558">
        <ele>12.1538</ele>
        <time>2014-07-08T11:54:05Z</time>
      </trkpt>
      <trkpt lat="59.7160548" lon="17.7689664">
        <ele>12.1538</ele>
        <time>2014-07-08T11:54:06Z</time>
      </trkpt>
      <trkpt lat="59.7160931" lon="17.769076">
        <ele>12.1538</ele>
        <time>2014-07-08T11:54:07Z</time>
      </trkpt>
      <trkpt lat="59.7161314" lon="17.7691858">
        <ele>12.1538</ele>
        <time>2014-07-08T11:54:08Z</time>
      </trkpt>
      <trkpt lat="59.7161693" lon="17.7692958">
        <ele>12.1538</ele>
        <time>2014-07-08T11:54:09Z</time>
      </trkpt>
      <trkpt lat="59.7162083" lon="17.769405">
        <ele>12.1538</ele>
        <time>2014-07-08T11:54:10Z</time>
      </trkpt>
      <trkpt lat="59.7162475" lon="17.7695117">
        <ele>12.1538</ele>
        <time>2014-07-08T11:54:11Z</time>
      </trkpt>
      <trkpt lat="59.7162853" lon="17.7696159">
        <ele>12.6344</ele>
        <time>2014-07-08T11:54:12Z</time>
      </trkpt>
      <trkpt lat="59.7163219" lon="17.7697174">
        <ele>12.6344</ele>
        <time>2014-07-08T11:54:13Z</time>
      </trkpt>
      <trkpt lat="59.716358" lon="17.7698165">
        <ele>13.1151</ele>
        <time>2014-07-08T11:54:14Z</time>
      </trkpt>
      <trkpt lat="59.7163946" lon="17.769912">
        <ele>13.1151</ele>
        <time>2014-07-08T11:54:15Z</time>
      </trkpt>
      <trkpt lat="59.7164305" lon="17.7700042">
        <ele>13.5958</ele>
        <time>2014-07-08T11:54:16Z</time>
      </trkpt>
      <trkpt lat="59.7164655" lon="17.7700941">
        <ele>13.5958</ele>
        <time>2014-07-08T11:54:17Z</time>
      </trkpt>
      <trkpt lat="59.7165008" lon="17.7701805">
        <ele>14.0764</ele>
        <time>2014-07-08T11:54:18Z</time>
      </trkpt>
      <trkpt lat="59.7165366" lon="17.7702625">
        <ele>14.0764</ele>
        <time>2014-07-08T11:54:19Z</time>
      </trkpt>
      <trkpt lat="59.7165728" lon="17.770342">
        <ele>14.557</ele>
        <time>2014-07-08T11:54:20Z</time>
      </trkpt>
      <trkpt lat="59.7166092" lon="17.7704181">
        <ele>14.557</ele>
        <time>2014-07-08T11:54:21Z</time>
      </trkpt>
      <trkpt lat="59.7166459" lon="17.7704898">
        <ele>15.0377</ele>
        <time>2014-07-08T11:54:22Z</time>
      </trkpt>
      <trkpt lat="59.7166816" lon="17.7705596">
        <ele>15.0377</ele>
        <time>2014-07-08T11:54:23Z</time>
      </trkpt>
      <trkpt lat="59.7167164" lon="17.7706267">
        <ele>15.5184</ele>
        <time>2014-07-08T11:54:24Z</time>
      </trkpt>
      <trkpt lat="59.7167521" lon="17.7706902">
        <ele>15.5184</ele>
        <time>2014-07-08T11:54:25Z</time>
      </trkpt>
      <trkpt lat="59.7167895" lon="17.7707535">
        <ele>15.5184</ele>
        <time>2014-07-08T11:54:26Z</time>
      </trkpt>
      <trkpt lat="59.7168292" lon="17.7708213">
        <ele>15.999</ele>
        <time>2014-07-08T11:54:27Z</time>
      </trkpt>
      <trkpt lat="59.7168712" lon="17.7708918">
        <ele>15.999</ele>
        <time>2014-07-08T11:54:28Z</time>
      </trkpt>
      <trkpt lat="59.7169148" lon="17.7709627">
        <ele>15.999</ele>
        <time>2014-07-08T11:54:29Z</time>
      </trkpt>
      <trkpt lat="59.7169587" lon="17.7710343">
        <ele>15.999</ele>
        <time>2014-07-08T11:54:30Z</time>
      </trkpt>
      <trkpt lat="59.7170023" lon="17.7711055">
        <ele>15.999</ele>
        <time>2014-07-08T11:54:31Z</time>
      </trkpt>
      <trkpt lat="59.7170459" lon="17.7711747">
        <ele>16.4797</ele>
        <time>2014-07-08T11:54:32Z</time>
      </trkpt>
      <trkpt lat="59.7170901" lon="17.7712423">
        <ele>16.4797</ele>
        <time>2014-07-08T11:54:33Z</time>
      </trkpt>
      <trkpt lat="59.7171341" lon="17.7713089">
        <ele>16.4797</ele>
        <time>2014-07-08T11:54:34Z</time>
      </trkpt>
      <trkpt lat="59.7171777" lon="17.7713767">
        <ele>16.4797</ele>
        <time>2014-07-08T11:54:35Z</time>
      </trkpt>
      <trkpt lat="59.7172214" lon="17.7714457">
        <ele>16.4797</ele>
        <time>2014-07-08T11:54:36Z</time>
      </trkpt>
      <trkpt lat="59.7172663" lon="17.7715148">
        <ele>16.4797</ele>
        <time>2014-07-08T11:54:37Z</time>
      </trkpt>
      <trkpt lat="59.7173121" lon="17.7715847">
        <ele>16.4797</ele>
        <time>2014-07-08T11:54:38Z</time>
      </trkpt>
      <trkpt lat="59.7173581" lon="17.7716562">
        <ele>16.9604</ele>
        <time>2014-07-08T11:54:39Z</time>
      </trkpt>
      <trkpt lat="59.717404" lon="17.7717277">
        <ele>16.9604</ele>
        <time>2014-07-08T11:54:40Z</time>
      </trkpt>
      <trkpt lat="59.7174492" lon="17.7717983">
        <ele>16.9604</ele>
        <time>2014-07-08T11:54:41Z</time>
      </trkpt>
      <trkpt lat="59.7174942" lon="17.7718686">
        <ele>16.9604</ele>
        <time>2014-07-08T11:54:42Z</time>
      </trkpt>
      <trkpt lat="59.7175387" lon="17.7719392">
        <ele>16.9604</ele>
        <time>2014-07-08T11:54:43Z</time>
      </trkpt>
      <trkpt lat="59.717583" lon="17.7720106">
        <ele>17.4412</ele>
        <time>2014-07-08T11:54:44Z</time>
      </trkpt>
      <trkpt lat="59.7176279" lon="17.7720813">
        <ele>17.4412</ele>
        <time>2014-07-08T11:54:45Z</time>
      </trkpt>
      <trkpt lat="59.7176732" lon="17.7721514">
        <ele>17.4412</ele>
        <time>2014-07-08T11:54:46Z</time>
      </trkpt>
      <trkpt lat="59.717719" lon="17.7722218">
        <ele>17.4412</ele>
        <time>2014-07-08T11:54:47Z</time>
      </trkpt>
      <trkpt lat="59.7177652" lon="17.7722938">
        <ele>17.9218</ele>
        <time>2014-07-08T11:54:48Z</time>
      </trkpt>
      <trkpt lat="59.7178114" lon="17.7723674">
        <ele>17.9218</ele>
        <time>2014-07-08T11:54:49Z</time>
      </trkpt>
      <trkpt lat="59.7178578" lon="17.7724402">
        <ele>17.9218</ele>
        <time>2014-07-08T11:54:50Z</time>
      </trkpt>
      <trkpt lat="59.7179041" lon="17.7725106">
        <ele>17.9218</ele>
        <time>2014-07-08T11:54:51Z</time>
      </trkpt>
      <trkpt lat="59.7179498" lon="17.7725806">
        <ele>17.9218</ele>
        <time>2014-07-08T11:54:52Z</time>
      </trkpt>
      <trkpt lat="59.7179947" lon="17.7726489">
        <ele>18.4023</ele>
        <time>2014-07-08T11:54:53Z</time>
      </trkpt>
      <trkpt lat="59.7180381" lon="17.7727152">
        <ele>18.4023</ele>
        <time>2014-07-08T11:54:54Z</time>
      </trkpt>
      <trkpt lat="59.7180801" lon="17.7727821">
        <ele>18.4023</ele>
        <time>2014-07-08T11:54:55Z</time>
      </trkpt>
      <trkpt lat="59.7181218" lon="17.7728481">
        <ele>18.4023</ele>
        <time>2014-07-08T11:54:56Z</time>
      </trkpt>
      <trkpt lat="59.7181648" lon="17.7729157">
        <ele>18.4023</ele>
        <time>2014-07-08T11:54:57Z</time>
      </trkpt>
      <trkpt lat="59.7182103" lon="17.7729876">
        <ele>18.4023</ele>
        <time>2014-07-08T11:54:58Z</time>
      </trkpt>
      <trkpt lat="59.7182579" lon="17.7730623">
        <ele>18.8831</ele>
        <time>2014-07-08T11:54:59Z</time>
      </trkpt>
      <trkpt lat="59.7183075" lon="17.77314">
        <ele>18.8831</ele>
        <time>2014-07-08T11:55:00Z</time>
      </trkpt>
      <trkpt lat="59.7183563" lon="17.773217">
        <ele>18.8831</ele>
        <time>2014-07-08T11:55:01Z</time>
      </trkpt>
      <trkpt lat="59.7184036" lon="17.7732912">
        <ele>18.8831</ele>
        <time>2014-07-08T11:55:02Z</time>
      </trkpt>
      <trkpt lat="59.7184499" lon="17.7733631">
        <ele>18.8831</ele>
        <time>2014-07-08T11:55:03Z</time>
      </trkpt>
      <trkpt lat="59.7184953" lon="17.7734341">
        <ele>18.8831</ele>
        <time>2014-07-08T11:55:04Z</time>
      </trkpt>
      <trkpt lat="59.7185402" lon="17.7735072">
        <ele>19.3638</ele>
        <time>2014-07-08T11:55:05Z</time>
      </trkpt>
      <trkpt lat="59.7185857" lon="17.7735787">
        <ele>19.3638</ele>
        <time>2014-07-08T11:55:06Z</time>
      </trkpt>
      <trkpt lat="59.7186319" lon="17.7736486">
        <ele>19.3638</ele>
        <time>2014-07-08T11:55:07Z</time>
      </trkpt>
      <trkpt lat="59.7186775" lon="17.7737195">
        <ele>19.3638</ele>
        <time>2014-07-08T11:55:08Z</time>
      </trkpt>
      <trkpt lat="59.7187226" lon="17.7737916">
        <ele>19.3638</ele>
        <time>2014-07-08T11:55:09Z</time>
      </trkpt>
      <trkpt lat="59.7187669" lon="17.7738636">
        <ele>19.3638</ele>
        <time>2014-07-08T11:55:10Z</time>
      </trkpt>
      <trkpt lat="59.7188111" lon="17.7739337">
        <ele>19.3638</ele>
        <time>2014-07-08T11:55:11Z</time>
      </trkpt>
      <trkpt lat="59.7188562" lon="17.7740023">
        <ele>19.3638</ele>
        <time>2014-07-08T11:55:12Z</time>
      </trkpt>
      <trkpt lat="59.7189013" lon="17.7740713">
        <ele>19.3638</ele>
        <time>2014-07-08T11:55:13Z</time>
      </trkpt>
      <trkpt lat="59.7189456" lon="17.7741421">
        <ele>19.3638</ele>
        <time>2014-07-08T11:55:14Z</time>
      </trkpt>
      <trkpt lat="59.7189894" lon="17.7742129">
        <ele>19.8444</ele>
        <time>2014-07-08T11:55:15Z</time>
      </trkpt>
      <trkpt lat="59.7190339" lon="17.774282">
        <ele>19.8444</ele>
        <time>2014-07-08T11:55:16Z</time>
      </trkpt>
      <trkpt lat="59.7190787" lon="17.7743509">
        <ele>19.8444</ele>
        <time>2014-07-08T11:55:17Z</time>
      </trkpt>
      <trkpt lat="59.7191234" lon="17.7744204">
        <ele>19.8444</ele>
        <time>2014-07-08T11:55:18Z</time>
      </trkpt>
      <trkpt lat="59.7191679" lon="17.7744899">
        <ele>19.8444</ele>
        <time>2014-07-08T11:55:19Z</time>
      </trkpt>
      <trkpt lat="59.7192124" lon="17.7745597">
        <ele>19.8444</ele>
        <time>2014-07-08T11:55:20Z</time>
      </trkpt>
      <trkpt lat="59.7192571" lon="17.7746282">
        <ele>19.8444</ele>
        <time>2014-07-08T11:55:21Z</time>
      </trkpt>
      <trkpt lat="59.7193028" lon="17.7746964">
        <ele>19.8444</ele>
        <time>2014-07-08T11:55:22Z</time>
      </trkpt>
      <trkpt lat="59.7193483" lon="17.7747665">
        <ele>20.325</ele>
        <time>2014-07-08T11:55:23Z</time>
      </trkpt>
      <trkpt lat="59.7193943" lon="17.7748355">
        <ele>20.325</ele>
        <time>2014-07-08T11:55:24Z</time>
      </trkpt>
      <trkpt lat="59.7194421" lon="17.7749007">
        <ele>20.325</ele>
        <time>2014-07-08T11:55:25Z</time>
      </trkpt>
      <trkpt lat="59.7194916" lon="17.7749624">
        <ele>20.325</ele>
        <time>2014-07-08T11:55:26Z</time>
      </trkpt>
      <trkpt lat="59.7195422" lon="17.7750223">
        <ele>20.325</ele>
        <time>2014-07-08T11:55:27Z</time>
      </trkpt>
      <trkpt lat="59.7195936" lon="17.7750809">
        <ele>20.325</ele>
        <time>2014-07-08T11:55:28Z</time>
      </trkpt>
      <trkpt lat="59.7196457" lon="17.775139">
        <ele>20.325</ele>
        <time>2014-07-08T11:55:29Z</time>
      </trkpt>
      <trkpt lat="59.7196991" lon="17.7751954">
        <ele>20.325</ele>
        <time>2014-07-08T11:55:30Z</time>
      </trkpt>
      <trkpt lat="59.7197539" lon="17.7752507">
        <ele>20.325</ele>
        <time>2014-07-08T11:55:31Z</time>
      </trkpt>
      <trkpt lat="59.7198107" lon="17.7753042">
        <ele>20.325</ele>
        <time>2014-07-08T11:55:32Z</time>
      </trkpt>
      <trkpt lat="59.7198684" lon="17.7753581">
        <ele>20.325</ele>
        <time>2014-07-08T11:55:33Z</time>
      </trkpt>
      <trkpt lat="59.7199264" lon="17.7754135">
        <ele>20.325</ele>
        <time>2014-07-08T11:55:34Z</time>
      </trkpt>
      <trkpt lat="59.7199851" lon="17.7754668">
        <ele>20.325</ele>
        <time>2014-07-08T11:55:35Z</time>
      </trkpt>
      <trkpt lat="59.7200444" lon="17.7755162">
        <ele>20.325</ele>
        <time>2014-07-08T11:55:36Z</time>
      </trkpt>
      <trkpt lat="59.7201037" lon="17.7755628">
        <ele>20.325</ele>
        <time>2014-07-08T11:55:37Z</time>
      </trkpt>
      <trkpt lat="59.7201635" lon="17.7756078">
        <ele>20.325</ele>
        <time>2014-07-08T11:55:38Z</time>
      </trkpt>
      <trkpt lat="59.7202238" lon="17.7756505">
        <ele>20.325</ele>
        <time>2014-07-08T11:55:39Z</time>
      </trkpt>
      <trkpt lat="59.7202849" lon="17.7756887">
        <ele>19.8444</ele>
        <time>2014-07-08T11:55:40Z</time>
      </trkpt>
      <trkpt lat="59.7203481" lon="17.7757216">
        <ele>19.8444</ele>
        <time>2014-07-08T11:55:41Z</time>
      </trkpt>
      <trkpt lat="59.7204131" lon="17.7757507">
        <ele>19.8444</ele>
        <time>2014-07-08T11:55:42Z</time>
      </trkpt>
      <trkpt lat="59.7204796" lon="17.7757777">
        <ele>19.8444</ele>
        <time>2014-07-08T11:55:43Z</time>
      </trkpt>
      <trkpt lat="59.7205474" lon="17.7758026">
        <ele>19.8444</ele>
        <time>2014-07-08T11:55:44Z</time>
      </trkpt>
      <trkpt lat="59.7206157" lon="17.7758256">
        <ele>19.8444</ele>
        <time>2014-07-08T11:55:45Z</time>
      </trkpt>
      <trkpt lat="59.7206827" lon="17.775845">
        <ele>20.325</ele>
        <time>2014-07-08T11:55:46Z</time>
      </trkpt>
      <trkpt lat="59.7207447" lon="17.7758621">
        <ele>20.325</ele>
        <time>2014-07-08T11:55:47Z</time>
      </trkpt>
      <trkpt lat="59.7208096" lon="17.7758862">
        <ele>20.325</ele>
        <time>2014-07-08T11:55:48Z</time>
      </trkpt>
      <trkpt lat="59.7208773" lon="17.775916">
        <ele>20.325</ele>
        <time>2014-07-08T11:55:49Z</time>
      </trkpt>
      <trkpt lat="59.7209432" lon="17.7759408">
        <ele>20.325</ele>
        <time>2014-07-08T11:55:50Z</time>
      </trkpt>
      <trkpt lat="59.7210095" lon="17.7759591">
        <ele>20.8057</ele>
        <time>2014-07-08T11:55:51Z</time>
      </trkpt>
      <trkpt lat="59.7210765" lon="17.7759697">
        <ele>20.8057</ele>
        <time>2014-07-08T11:55:52Z</time>
      </trkpt>
      <trkpt lat="59.7211442" lon="17.7759744">
        <ele>20.8057</ele>
        <time>2014-07-08T11:55:53Z</time>
      </trkpt>
      <trkpt lat="59.7212115" lon="17.7759766">
        <ele>20.8057</ele>
        <time>2014-07-08T11:55:54Z</time>
      </trkpt>
      <trkpt lat="59.7212784" lon="17.7759739">
        <ele>20.8057</ele>
        <time>2014-07-08T11:55:55Z</time>
      </trkpt>
      <trkpt lat="59.721345" lon="17.7759668">
        <ele>20.8057</ele>
        <time>2014-07-08T11:55:56Z</time>
      </trkpt>
      <trkpt lat="59.721411" lon="17.7759584">
        <ele>20.8057</ele>
        <time>2014-07-08T11:55:57Z</time>
      </trkpt>
      <trkpt lat="59.7214768" lon="17.7759465">
        <ele>21.2864</ele>
        <time>2014-07-08T11:55:58Z</time>
      </trkpt>
      <trkpt lat="59.7215417" lon="17.7759319">
        <ele>21.2864</ele>
        <time>2014-07-08T11:55:59Z</time>
      </trkpt>
      <trkpt lat="59.7216059" lon="17.7759137">
        <ele>21.2864</ele>
        <time>2014-07-08T11:56:00Z</time>
      </trkpt>
      <trkpt lat="59.7216696" lon="17.7758933">
        <ele>21.2864</ele>
        <time>2014-07-08T11:56:01Z</time>
      </trkpt>
      <trkpt lat="59.7217335" lon="17.7758741">
        <ele>21.2864</ele>
        <time>2014-07-08T11:56:02Z</time>
      </trkpt>
      <trkpt lat="59.721797" lon="17.7758533">
        <ele>21.2864</ele>
        <time>2014-07-08T11:56:03Z</time>
      </trkpt>
      <trkpt lat="59.7218602" lon="17.7758295">
        <ele>21.767</ele>
        <time>2014-07-08T11:56:04Z</time>
      </trkpt>
      <trkpt lat="59.7219237" lon="17.7758051">
        <ele>21.767</ele>
        <time>2014-07-08T11:56:05Z</time>
      </trkpt>
      <trkpt lat="59.721987" lon="17.7757806">
        <ele>21.767</ele>
        <time>2014-07-08T11:56:06Z</time>
      </trkpt>
      <trkpt lat="59.7220502" lon="17.7757564">
        <ele>21.767</ele>
        <time>2014-07-08T11:56:07Z</time>
      </trkpt>
      <trkpt lat="59.7221136" lon="17.775733">
        <ele>22.2476</ele>
        <time>2014-07-08T11:56:08Z</time>
      </trkpt>
      <trkpt lat="59.7221777" lon="17.7757103">
        <ele>22.2476</ele>
        <time>2014-07-08T11:56:09Z</time>
      </trkpt>
      <trkpt lat="59.7222423" lon="17.7756875">
        <ele>22.2476</ele>
        <time>2014-07-08T11:56:10Z</time>
      </trkpt>
      <trkpt lat="59.7223072" lon="17.7756648">
        <ele>22.7283</ele>
        <time>2014-07-08T11:56:11Z</time>
      </trkpt>
      <trkpt lat="59.722372" lon="17.7756438">
        <ele>22.7283</ele>
        <time>2014-07-08T11:56:12Z</time>
      </trkpt>
      <trkpt lat="59.7224365" lon="17.7756224">
        <ele>23.209</ele>
        <time>2014-07-08T11:56:13Z</time>
      </trkpt>
      <trkpt lat="59.7225004" lon="17.7756021">
        <ele>23.209</ele>
        <time>2014-07-08T11:56:14Z</time>
      </trkpt>
      <trkpt lat="59.722564" lon="17.775584">
        <ele>23.6896</ele>
        <time>2014-07-08T11:56:15Z</time>
      </trkpt>
      <trkpt lat="59.7226266" lon="17.7755694">
        <ele>23.6896</ele>
        <time>2014-07-08T11:56:16Z</time>
      </trkpt>
      <trkpt lat="59.7226879" lon="17.775558">
        <ele>23.6896</ele>
        <time>2014-07-08T11:56:17Z</time>
      </trkpt>
      <trkpt lat="59.722749" lon="17.7755491">
        <ele>24.1703</ele>
        <time>2014-07-08T11:56:18Z</time>
      </trkpt>
      <trkpt lat="59.7228091" lon="17.7755444">
        <ele>24.1703</ele>
        <time>2014-07-08T11:56:19Z</time>
      </trkpt>
      <trkpt lat="59.7228682" lon="17.7755435">
        <ele>24.651</ele>
        <time>2014-07-08T11:56:20Z</time>
      </trkpt>
      <trkpt lat="59.7229258" lon="17.7755459">
        <ele>24.651</ele>
        <time>2014-07-08T11:56:21Z</time>
      </trkpt>
      <trkpt lat="59.7229823" lon="17.7755485">
        <ele>24.651</ele>
        <time>2014-07-08T11:56:22Z</time>
      </trkpt>
      <trkpt lat="59.7230376" lon="17.7755534">
        <ele>25.1317</ele>
        <time>2014-07-08T11:56:23Z</time>
      </trkpt>
      <trkpt lat="59.7230916" lon="17.7755632">
        <ele>25.1317</ele>
        <time>2014-07-08T11:56:24Z</time>
      </trkpt>
      <trkpt lat="59.7231451" lon="17.775576">
        <ele>25.6123</ele>
        <time>2014-07-08T11:56:25Z</time>
      </trkpt>
      <trkpt lat="59.7231978" lon="17.7755908">
        <ele>25.6123</ele>
        <time>2014-07-08T11:56:26Z</time>
      </trkpt>
      <trkpt lat="59.72325" lon="17.7756078">
        <ele>26.0929</ele>
        <time>2014-07-08T11:56:27Z</time>
      </trkpt>
      <trkpt lat="59.7233014" lon="17.7756274">
        <ele>26.0929</ele>
        <time>2014-07-08T11:56:28Z</time>
      </trkpt>
      <trkpt lat="59.7233525" lon="17.7756492">
        <ele>26.0929</ele>
        <time>2014-07-08T11:56:29Z</time>
      </trkpt>
      <trkpt lat="59.7234042" lon="17.7756742">
        <ele>26.0929</ele>
        <time>2014-07-08T11:56:30Z</time>
      </trkpt>
      <trkpt lat="59.7234566" lon="17.7757023">
        <ele>26.5736</ele>
        <time>2014-07-08T11:56:31Z</time>
      </trkpt>
      <trkpt lat="59.7235093" lon="17.7757326">
        <ele>26.5736</ele>
        <time>2014-07-08T11:56:32Z</time>
      </trkpt>
      <trkpt lat="59.7235627" lon="17.7757659">
        <ele>26.5736</ele>
        <time>2014-07-08T11:56:33Z</time>
      </trkpt>
      <trkpt lat="59.7236166" lon="17.775802">
        <ele>27.0543</ele>
        <time>2014-07-08T11:56:34Z</time>
      </trkpt>
      <trkpt lat="59.7236704" lon="17.7758424">
        <ele>27.0543</ele>
        <time>2014-07-08T11:56:35Z</time>
      </trkpt>
      <trkpt lat="59.7237238" lon="17.7758863">
        <ele>27.0543</ele>
        <time>2014-07-08T11:56:36Z</time>
      </trkpt>
      <trkpt lat="59.7237773" lon="17.775931">
        <ele>27.5349</ele>
        <time>2014-07-08T11:56:37Z</time>
      </trkpt>
      <trkpt lat="59.7238308" lon="17.775979">
        <ele>27.5349</ele>
        <time>2014-07-08T11:56:38Z</time>
      </trkpt>
      <trkpt lat="59.7238835" lon="17.7760323">
        <ele>27.5349</ele>
        <time>2014-07-08T11:56:39Z</time>
      </trkpt>
      <trkpt lat="59.7239358" lon="17.7760891">
        <ele>27.5349</ele>
        <time>2014-07-08T11:56:40Z</time>
      </trkpt>
      <trkpt lat="59.7239876" lon="17.7761507">
        <ele>28.0155</ele>
        <time>2014-07-08T11:56:41Z</time>
      </trkpt>
      <trkpt lat="59.7240389" lon="17.7762138">
        <ele>28.0155</ele>
        <time>2014-07-08T11:56:42Z</time>
      </trkpt>
      <trkpt lat="59.7240889" lon="17.7762781">
        <ele>28.0155</ele>
        <time>2014-07-08T11:56:43Z</time>
      </trkpt>
      <trkpt lat="59.7241379" lon="17.7763452">
        <ele>28.0155</ele>
        <time>2014-07-08T11:56:44Z</time>
      </trkpt>
      <trkpt lat="59.7241861" lon="17.7764138">
        <ele>28.4962</ele>
        <time>2014-07-08T11:56:45Z</time>
      </trkpt>
      <trkpt lat="59.7242329" lon="17.7764852">
        <ele>28.4962</ele>
        <time>2014-07-08T11:56:46Z</time>
      </trkpt>
      <trkpt lat="59.7242786" lon="17.7765588">
        <ele>28.4962</ele>
        <time>2014-07-08T11:56:47Z</time>
      </trkpt>
      <trkpt lat="59.7243236" lon="17.7766345">
        <ele>28.4962</ele>
        <time>2014-07-08T11:56:48Z</time>
      </trkpt>
      <trkpt lat="59.7243673" lon="17.7767133">
        <ele>28.4962</ele>
        <time>2014-07-08T11:56:49Z</time>
      </trkpt>
      <trkpt lat="59.7244104" lon="17.7767953">
        <ele>28.4962</ele>
        <time>2014-07-08T11:56:50Z</time>
      </trkpt>
      <trkpt lat="59.7244523" lon="17.7768702">
        <ele>28.4962</ele>
        <time>2014-07-08T11:56:51Z</time>
      </trkpt>
      <trkpt lat="59.724493" lon="17.7769478">
        <ele>28.4962</ele>
        <time>2014-07-08T11:56:52Z</time>
      </trkpt>
      <trkpt lat="59.7245336" lon="17.7770319">
        <ele>28.4962</ele>
        <time>2014-07-08T11:56:53Z</time>
      </trkpt>
      <trkpt lat="59.7245741" lon="17.7771117">
        <ele>28.4962</ele>
        <time>2014-07-08T11:56:54Z</time>
      </trkpt>
      <trkpt lat="59.7246148" lon="17.7771935">
        <ele>28.4962</ele>
        <time>2014-07-08T11:56:55Z</time>
      </trkpt>
      <trkpt lat="59.7246547" lon="17.7772787">
        <ele>28.4962</ele>
        <time>2014-07-08T11:56:56Z</time>
      </trkpt>
      <trkpt lat="59.7246955" lon="17.7773641">
        <ele>28.4962</ele>
        <time>2014-07-08T11:56:57Z</time>
      </trkpt>
      <trkpt lat="59.7247376" lon="17.7774487">
        <ele>28.4962</ele>
        <time>2014-07-08T11:56:58Z</time>
      </trkpt>
      <trkpt lat="59.7247807" lon="17.7775332">
        <ele>28.4962</ele>
        <time>2014-07-08T11:56:59Z</time>
      </trkpt>
      <trkpt lat="59.7248248" lon="17.777619">
        <ele>28.4962</ele>
        <time>2014-07-08T11:57:00Z</time>
      </trkpt>
      <trkpt lat="59.7248696" lon="17.7777058">
        <ele>28.4962</ele>
        <time>2014-07-08T11:57:01Z</time>
      </trkpt>
      <trkpt lat="59.7249154" lon="17.7777932">
        <ele>28.4962</ele>
        <time>2014-07-08T11:57:02Z</time>
      </trkpt>
      <trkpt lat="59.7249631" lon="17.7778803">
        <ele>28.4962</ele>
        <time>2014-07-08T11:57:03Z</time>
      </trkpt>
      <trkpt lat="59.7250131" lon="17.7779668">
        <ele>28.0155</ele>
        <time>2014-07-08T11:57:04Z</time>
      </trkpt>
      <trkpt lat="59.7250649" lon="17.7780524">
        <ele>28.0155</ele>
        <time>2014-07-08T11:57:05Z</time>
      </trkpt>
      <trkpt lat="59.7251187" lon="17.7781358">
        <ele>28.0155</ele>
        <time>2014-07-08T11:57:06Z</time>
      </trkpt>
      <trkpt lat="59.7251744" lon="17.7782162">
        <ele>28.0155</ele>
        <time>2014-07-08T11:57:07Z</time>
      </trkpt>
      <trkpt lat="59.725232" lon="17.7782936">
        <ele>28.0155</ele>
        <time>2014-07-08T11:57:08Z</time>
      </trkpt>
      <trkpt lat="59.7252912" lon="17.7783687">
        <ele>28.0155</ele>
        <time>2014-07-08T11:57:09Z</time>
      </trkpt>
      <trkpt lat="59.7253511" lon="17.7784418">
        <ele>27.5349</ele>
        <time>2014-07-08T11:57:10Z</time>
      </trkpt>
      <trkpt lat="59.7254116" lon="17.7785118">
        <ele>27.5349</ele>
        <time>2014-07-08T11:57:11Z</time>
      </trkpt>
      <trkpt lat="59.7254729" lon="17.7785768">
        <ele>27.5349</ele>
        <time>2014-07-08T11:57:12Z</time>
      </trkpt>
      <trkpt lat="59.7255354" lon="17.7786362">
        <ele>27.5349</ele>
        <time>2014-07-08T11:57:13Z</time>
      </trkpt>
      <trkpt lat="59.7255992" lon="17.778693">
        <ele>27.5349</ele>
        <time>2014-07-08T11:57:14Z</time>
      </trkpt>
      <trkpt lat="59.7256649" lon="17.7787467">
        <ele>27.0543</ele>
        <time>2014-07-08T11:57:15Z</time>
      </trkpt>
      <trkpt lat="59.7257327" lon="17.7787949">
        <ele>27.0543</ele>
        <time>2014-07-08T11:57:16Z</time>
      </trkpt>
      <trkpt lat="59.7258013" lon="17.7788402">
        <ele>27.5349</ele>
        <time>2014-07-08T11:57:17Z</time>
      </trkpt>
      <trkpt lat="59.7258706" lon="17.778884">
        <ele>27.5349</ele>
        <time>2014-07-08T11:57:18Z</time>
      </trkpt>
      <trkpt lat="59.7259399" lon="17.7789246">
        <ele>27.5349</ele>
        <time>2014-07-08T11:57:19Z</time>
      </trkpt>
      <trkpt lat="59.7260098" lon="17.7789609">
        <ele>27.0543</ele>
        <time>2014-07-08T11:57:20Z</time>
      </trkpt>
      <trkpt lat="59.7260804" lon="17.7789948">
        <ele>27.0543</ele>
        <time>2014-07-08T11:57:21Z</time>
      </trkpt>
      <trkpt lat="59.7261518" lon="17.7790256">
        <ele>27.0543</ele>
        <time>2014-07-08T11:57:22Z</time>
      </trkpt>
      <trkpt lat="59.7262234" lon="17.7790532">
        <ele>27.0543</ele>
        <time>2014-07-08T11:57:23Z</time>
      </trkpt>
      <trkpt lat="59.7262964" lon="17.779081">
        <ele>27.0543</ele>
        <time>2014-07-08T11:57:24Z</time>
      </trkpt>
      <trkpt lat="59.72637" lon="17.7791103">
        <ele>27.0543</ele>
        <time>2014-07-08T11:57:25Z</time>
      </trkpt>
      <trkpt lat="59.7264439" lon="17.7791401">
        <ele>27.0543</ele>
        <time>2014-07-08T11:57:26Z</time>
      </trkpt>
      <trkpt lat="59.7265172" lon="17.7791699">
        <ele>27.0543</ele>
        <time>2014-07-08T11:57:27Z</time>
      </trkpt>
      <trkpt lat="59.7265899" lon="17.7792007">
        <ele>27.0543</ele>
        <time>2014-07-08T11:57:28Z</time>
      </trkpt>
      <trkpt lat="59.7266612" lon="17.7792332">
        <ele>27.0543</ele>
        <time>2014-07-08T11:57:29Z</time>
      </trkpt>
      <trkpt lat="59.7267313" lon="17.7792678">
        <ele>27.5349</ele>
        <time>2014-07-08T11:57:30Z</time>
      </trkpt>
      <trkpt lat="59.7268009" lon="17.779303">
        <ele>27.5349</ele>
        <time>2014-07-08T11:57:31Z</time>
      </trkpt>
      <trkpt lat="59.7268712" lon="17.7793357">
        <ele>27.5349</ele>
        <time>2014-07-08T11:57:32Z</time>
      </trkpt>
      <trkpt lat="59.7269413" lon="17.7793697">
        <ele>28.0155</ele>
        <time>2014-07-08T11:57:33Z</time>
      </trkpt>
      <trkpt lat="59.7270108" lon="17.7794092">
        <ele>28.0155</ele>
        <time>2014-07-08T11:57:34Z</time>
      </trkpt>
      <trkpt lat="59.7270801" lon="17.7794515">
        <ele>28.0155</ele>
        <time>2014-07-08T11:57:35Z</time>
      </trkpt>
      <trkpt lat="59.7271485" lon="17.779495">
        <ele>28.0155</ele>
        <time>2014-07-08T11:57:36Z</time>
      </trkpt>
      <trkpt lat="59.7272153" lon="17.7795406">
        <ele>28.4962</ele>
        <time>2014-07-08T11:57:37Z</time>
      </trkpt>
      <trkpt lat="59.7272811" lon="17.7795891">
        <ele>28.4962</ele>
        <time>2014-07-08T11:57:38Z</time>
      </trkpt>
      <trkpt lat="59.7273454" lon="17.7796394">
        <ele>28.4962</ele>
        <time>2014-07-08T11:57:39Z</time>
      </trkpt>
      <trkpt lat="59.7274079" lon="17.7796913">
        <ele>28.4962</ele>
        <time>2014-07-08T11:57:40Z</time>
      </trkpt>
      <trkpt lat="59.7274697" lon="17.7797451">
        <ele>28.4962</ele>
        <time>2014-07-08T11:57:41Z</time>
      </trkpt>
      <trkpt lat="59.7275324" lon="17.7798005">
        <ele>28.9769</ele>
        <time>2014-07-08T11:57:42Z</time>
      </trkpt>
      <trkpt lat="59.7275949" lon="17.7798596">
        <ele>28.9769</ele>
        <time>2014-07-08T11:57:43Z</time>
      </trkpt>
      <trkpt lat="59.7276562" lon="17.7799227">
        <ele>28.9769</ele>
        <time>2014-07-08T11:57:44Z</time>
      </trkpt>
      <trkpt lat="59.7277179" lon="17.7799869">
        <ele>28.9769</ele>
        <time>2014-07-08T11:57:45Z</time>
      </trkpt>
      <trkpt lat="59.7277803" lon="17.7800537">
        <ele>28.9769</ele>
        <time>2014-07-08T11:57:46Z</time>
      </trkpt>
      <trkpt lat="59.7278425" lon="17.7801227">
        <ele>28.9769</ele>
        <time>2014-07-08T11:57:47Z</time>
      </trkpt>
      <trkpt lat="59.7279038" lon="17.7801917">
        <ele>28.9769</ele>
        <time>2014-07-08T11:57:48Z</time>
      </trkpt>
      <trkpt lat="59.7279623" lon="17.7802624">
        <ele>28.9769</ele>
        <time>2014-07-08T11:57:49Z</time>
      </trkpt>
      <trkpt lat="59.7280193" lon="17.7803341">
        <ele>28.4962</ele>
        <time>2014-07-08T11:57:50Z</time>
      </trkpt>
      <trkpt lat="59.7280753" lon="17.7804076">
        <ele>28.4962</ele>
        <time>2014-07-08T11:57:51Z</time>
      </trkpt>
      <trkpt lat="59.7281317" lon="17.7804795">
        <ele>28.9769</ele>
        <time>2014-07-08T11:57:52Z</time>
      </trkpt>
      <trkpt lat="59.7281856" lon="17.7805554">
        <ele>29.4575</ele>
        <time>2014-07-08T11:57:53Z</time>
      </trkpt>
      <trkpt lat="59.7282389" lon="17.7806331">
        <ele>29.4575</ele>
        <time>2014-07-08T11:57:54Z</time>
      </trkpt>
      <trkpt lat="59.7282903" lon="17.7807079">
        <ele>29.4575</ele>
        <time>2014-07-08T11:57:55Z</time>
      </trkpt>
      <trkpt lat="59.7283415" lon="17.7807809">
        <ele>28.9769</ele>
        <time>2014-07-08T11:57:56Z</time>
      </trkpt>
      <trkpt lat="59.7283912" lon="17.7808562">
        <ele>28.9769</ele>
        <time>2014-07-08T11:57:57Z</time>
      </trkpt>
      <trkpt lat="59.7284402" lon="17.7809291">
        <ele>29.4575</ele>
        <time>2014-07-08T11:57:58Z</time>
      </trkpt>
      <trkpt lat="59.7284881" lon="17.7809964">
        <ele>28.9769</ele>
        <time>2014-07-08T11:57:59Z</time>
      </trkpt>
      <trkpt lat="59.7285364" lon="17.7810579">
        <ele>28.9769</ele>
        <time>2014-07-08T11:58:00Z</time>
      </trkpt>
      <trkpt lat="59.7285833" lon="17.7811179">
        <ele>28.4962</ele>
        <time>2014-07-08T11:58:01Z</time>
      </trkpt>
      <trkpt lat="59.72863" lon="17.7811742">
        <ele>28.4962</ele>
        <time>2014-07-08T11:58:02Z</time>
      </trkpt>
      <trkpt lat="59.7286768" lon="17.781226">
        <ele>28.4962</ele>
        <time>2014-07-08T11:58:03Z</time>
      </trkpt>
      <trkpt lat="59.7287229" lon="17.7812699">
        <ele>28.4962</ele>
        <time>2014-07-08T11:58:04Z</time>
      </trkpt>
      <trkpt lat="59.7287677" lon="17.781296">
        <ele>28.4962</ele>
        <time>2014-07-08T11:58:05Z</time>
      </trkpt>
      <trkpt lat="59.7288139" lon="17.7813053">
        <ele>28.4962</ele>
        <time>2014-07-08T11:58:06Z</time>
      </trkpt>
      <trkpt lat="59.7288586" lon="17.7813075">
        <ele>28.4962</ele>
        <time>2014-07-08T11:58:07Z</time>
      </trkpt>
      <trkpt lat="59.7289039" lon="17.7813057">
        <ele>28.4962</ele>
        <time>2014-07-08T11:58:08Z</time>
      </trkpt>
      <trkpt lat="59.7289481" lon="17.7812971">
        <ele>28.4962</ele>
        <time>2014-07-08T11:58:09Z</time>
      </trkpt>
      <trkpt lat="59.7289895" lon="17.781283">
        <ele>28.9769</ele>
        <time>2014-07-08T11:58:10Z</time>
      </trkpt>
      <trkpt lat="59.7290284" lon="17.7812629">
        <ele>28.9769</ele>
        <time>2014-07-08T11:58:11Z</time>
      </trkpt>
      <trkpt lat="59.7290645" lon="17.7812427">
        <ele>28.4962</ele>
        <time>2014-07-08T11:58:12Z</time>
      </trkpt>
      <trkpt lat="59.7290998" lon="17.7812254">
        <ele>28.4962</ele>
        <time>2014-07-08T11:58:13Z</time>
      </trkpt>
      <trkpt lat="59.7291336" lon="17.781205">
        <ele>28.4962</ele>
        <time>2014-07-08T11:58:14Z</time>
      </trkpt>
      <trkpt lat="59.7291656" lon="17.7811908">
        <ele>28.4962</ele>
        <time>2014-07-08T11:58:15Z</time>
      </trkpt>
      <trkpt lat="59.729191" lon="17.7811935">
        <ele>28.4962</ele>
        <time>2014-07-08T11:58:16Z</time>
      </trkpt>
      <trkpt lat="59.7292055" lon="17.7812028">
        <ele>28.4962</ele>
        <time>2014-07-08T11:58:17Z</time>
      </trkpt>
      <trkpt lat="59.7292116" lon="17.7812037">
        <ele>28.9769</ele>
        <time>2014-07-08T11:58:18Z</time>
      </trkpt>
      <trkpt lat="59.7292128" lon="17.7812023">
        <ele>29.4575</ele>
        <time>2014-07-08T11:58:19Z</time>
      </trkpt>
      <trkpt lat="59.7292137" lon="17.7812022">
        <ele>29.9381</ele>
        <time>2014-07-08T11:58:20Z</time>
      </trkpt>
      <trkpt lat="59.7292775" lon="17.7811939">
        <ele>29.4575</ele>
        <time>2014-07-08T12:00:39Z</time>
      </trkpt>
      <trkpt lat="59.7292976" lon="17.7811941">
        <ele>28.9769</ele>
        <time>2014-07-08T12:00:40Z</time>
      </trkpt>
      <trkpt lat="59.729323" lon="17.7811941">
        <ele>28.9769</ele>
        <time>2014-07-08T12:00:41Z</time>
      </trkpt>
      <trkpt lat="59.7293558" lon="17.7811945">
        <ele>28.9769</ele>
        <time>2014-07-08T12:00:42Z</time>
      </trkpt>
      <trkpt lat="59.7293941" lon="17.7811946">
        <ele>28.4962</ele>
        <time>2014-07-08T12:00:43Z</time>
      </trkpt>
      <trkpt lat="59.7294403" lon="17.7811929">
        <ele>28.4962</ele>
        <time>2014-07-08T12:00:44Z</time>
      </trkpt>
      <trkpt lat="59.7294935" lon="17.7811862">
        <ele>28.0155</ele>
        <time>2014-07-08T12:00:45Z</time>
      </trkpt>
      <trkpt lat="59.7295508" lon="17.7811767">
        <ele>28.0155</ele>
        <time>2014-07-08T12:00:46Z</time>
      </trkpt>
      <trkpt lat="59.7296096" lon="17.7811676">
        <ele>28.0155</ele>
        <time>2014-07-08T12:00:47Z</time>
      </trkpt>
      <trkpt lat="59.72967" lon="17.781156">
        <ele>27.5349</ele>
        <time>2014-07-08T12:00:48Z</time>
      </trkpt>
      <trkpt lat="59.7297318" lon="17.78114">
        <ele>27.5349</ele>
        <time>2014-07-08T12:00:49Z</time>
      </trkpt>
      <trkpt lat="59.7297951" lon="17.7811183">
        <ele>27.0543</ele>
        <time>2014-07-08T12:00:50Z</time>
      </trkpt>
      <trkpt lat="59.7298594" lon="17.7810925">
        <ele>27.0543</ele>
        <time>2014-07-08T12:00:51Z</time>
      </trkpt>
      <trkpt lat="59.7299245" lon="17.7810665">
        <ele>27.0543</ele>
        <time>2014-07-08T12:00:52Z</time>
      </trkpt>
      <trkpt lat="59.7299904" lon="17.7810408">
        <ele>27.0543</ele>
        <time>2014-07-08T12:00:53Z</time>
      </trkpt>
      <trkpt lat="59.7300564" lon="17.7810151">
        <ele>27.0543</ele>
        <time>2014-07-08T12:00:54Z</time>
      </trkpt>
      <trkpt lat="59.7301207" lon="17.7809878">
        <ele>27.0543</ele>
        <time>2014-07-08T12:00:55Z</time>
      </trkpt>
      <trkpt lat="59.7301839" lon="17.780961">
        <ele>27.5349</ele>
        <time>2014-07-08T12:00:56Z</time>
      </trkpt>
      <trkpt lat="59.7302455" lon="17.7809397">
        <ele>27.5349</ele>
        <time>2014-07-08T12:00:57Z</time>
      </trkpt>
      <trkpt lat="59.7303058" lon="17.7809246">
        <ele>27.5349</ele>
        <time>2014-07-08T12:00:58Z</time>
      </trkpt>
      <trkpt lat="59.7303655" lon="17.7809131">
        <ele>27.5349</ele>
        <time>2014-07-08T12:00:59Z</time>
      </trkpt>
      <trkpt lat="59.7304239" lon="17.7809054">
        <ele>27.5349</ele>
        <time>2014-07-08T12:01:00Z</time>
      </trkpt>
      <trkpt lat="59.7304804" lon="17.780903">
        <ele>27.5349</ele>
        <time>2014-07-08T12:01:01Z</time>
      </trkpt>
      <trkpt lat="59.7305363" lon="17.7809083">
        <ele>27.5349</ele>
        <time>2014-07-08T12:01:02Z</time>
      </trkpt>
      <trkpt lat="59.7305886" lon="17.7809252">
        <ele>27.5349</ele>
        <time>2014-07-08T12:01:03Z</time>
      </trkpt>
      <trkpt lat="59.7306368" lon="17.7809477">
        <ele>27.5349</ele>
        <time>2014-07-08T12:01:04Z</time>
      </trkpt>
      <trkpt lat="59.730686" lon="17.7809651">
        <ele>27.5349</ele>
        <time>2014-07-08T12:01:05Z</time>
      </trkpt>
      <trkpt lat="59.7307351" lon="17.7809779">
        <ele>27.0543</ele>
        <time>2014-07-08T12:01:06Z</time>
      </trkpt>
      <trkpt lat="59.730785" lon="17.7809852">
        <ele>26.5736</ele>
        <time>2014-07-08T12:01:07Z</time>
      </trkpt>
      <trkpt lat="59.7308373" lon="17.7809838">
        <ele>26.5736</ele>
        <time>2014-07-08T12:01:08Z</time>
      </trkpt>
      <trkpt lat="59.7308925" lon="17.7809749">
        <ele>26.0929</ele>
        <time>2014-07-08T12:01:09Z</time>
      </trkpt>
      <trkpt lat="59.73095" lon="17.7809537">
        <ele>26.0929</ele>
        <time>2014-07-08T12:01:10Z</time>
      </trkpt>
      <trkpt lat="59.7310077" lon="17.7809149">
        <ele>25.6123</ele>
        <time>2014-07-08T12:01:11Z</time>
      </trkpt>
      <trkpt lat="59.7310634" lon="17.7808567">
        <ele>25.6123</ele>
        <time>2014-07-08T12:01:12Z</time>
      </trkpt>
      <trkpt lat="59.7311127" lon="17.7807739">
        <ele>25.1317</ele>
        <time>2014-07-08T12:01:13Z</time>
      </trkpt>
      <trkpt lat="59.7311562" lon="17.7806707">
        <ele>25.1317</ele>
        <time>2014-07-08T12:01:14Z</time>
      </trkpt>
      <trkpt lat="59.7311955" lon="17.7805533">
        <ele>24.651</ele>
        <time>2014-07-08T12:01:15Z</time>
      </trkpt>
      <trkpt lat="59.7312329" lon="17.7804227">
        <ele>24.1703</ele>
        <time>2014-07-08T12:01:16Z</time>
      </trkpt>
      <trkpt lat="59.7312728" lon="17.7802898">
        <ele>24.1703</ele>
        <time>2014-07-08T12:01:17Z</time>
      </trkpt>
      <trkpt lat="59.7313168" lon="17.7801542">
        <ele>23.6896</ele>
        <time>2014-07-08T12:01:18Z</time>
      </trkpt>
      <trkpt lat="59.7313538" lon="17.7799353">
        <ele>23.6896</ele>
        <time>2014-07-08T12:01:19Z</time>
      </trkpt>
      <trkpt lat="59.7314041" lon="17.7797751">
        <ele>23.6896</ele>
        <time>2014-07-08T12:01:20Z</time>
      </trkpt>
      <trkpt lat="59.7314598" lon="17.7796301">
        <ele>23.209</ele>
        <time>2014-07-08T12:01:21Z</time>
      </trkpt>
      <trkpt lat="59.7315195" lon="17.7794841">
        <ele>23.209</ele>
        <time>2014-07-08T12:01:22Z</time>
      </trkpt>
      <trkpt lat="59.7315792" lon="17.7793416">
        <ele>22.7283</ele>
        <time>2014-07-08T12:01:23Z</time>
      </trkpt>
      <trkpt lat="59.7316421" lon="17.7792017">
        <ele>22.2476</ele>
        <time>2014-07-08T12:01:24Z</time>
      </trkpt>
      <trkpt lat="59.731706" lon="17.7790614">
        <ele>22.2476</ele>
        <time>2014-07-08T12:01:25Z</time>
      </trkpt>
      <trkpt lat="59.7317715" lon="17.7789213">
        <ele>21.767</ele>
        <time>2014-07-08T12:01:26Z</time>
      </trkpt>
      <trkpt lat="59.7318391" lon="17.7787859">
        <ele>21.2864</ele>
        <time>2014-07-08T12:01:27Z</time>
      </trkpt>
      <trkpt lat="59.73191" lon="17.7786608">
        <ele>21.2864</ele>
        <time>2014-07-08T12:01:28Z</time>
      </trkpt>
      <trkpt lat="59.7319831" lon="17.7785419">
        <ele>20.8057</ele>
        <time>2014-07-08T12:01:29Z</time>
      </trkpt>
      <trkpt lat="59.7320604" lon="17.7784352">
        <ele>20.8057</ele>
        <time>2014-07-08T12:01:30Z</time>
      </trkpt>
      <trkpt lat="59.7321412" lon="17.7783456">
        <ele>20.8057</ele>
        <time>2014-07-08T12:01:31Z</time>
      </trkpt>
      <trkpt lat="59.7322248" lon="17.7782709">
        <ele>20.8057</ele>
        <time>2014-07-08T12:01:32Z</time>
      </trkpt>
      <trkpt lat="59.7323082" lon="17.7782082">
        <ele>20.325</ele>
        <time>2014-07-08T12:01:33Z</time>
      </trkpt>
      <trkpt lat="59.7323928" lon="17.7781516">
        <ele>19.8444</ele>
        <time>2014-07-08T12:01:34Z</time>
      </trkpt>
      <trkpt lat="59.7324786" lon="17.7780958">
        <ele>19.3638</ele>
        <time>2014-07-08T12:01:35Z</time>
      </trkpt>
      <trkpt lat="59.7325647" lon="17.7780372">
        <ele>19.3638</ele>
        <time>2014-07-08T12:01:36Z</time>
      </trkpt>
      <trkpt lat="59.7326509" lon="17.7779752">
        <ele>19.3638</ele>
        <time>2014-07-08T12:01:37Z</time>
      </trkpt>
      <trkpt lat="59.7327342" lon="17.7779034">
        <ele>18.8831</ele>
        <time>2014-07-08T12:01:38Z</time>
      </trkpt>
      <trkpt lat="59.7328128" lon="17.7778184">
        <ele>18.8831</ele>
        <time>2014-07-08T12:01:39Z</time>
      </trkpt>
      <trkpt lat="59.7328849" lon="17.7777187">
        <ele>18.8831</ele>
        <time>2014-07-08T12:01:40Z</time>
      </trkpt>
      <trkpt lat="59.7329502" lon="17.7776032">
        <ele>18.8831</ele>
        <time>2014-07-08T12:01:41Z</time>
      </trkpt>
      <trkpt lat="59.7330099" lon="17.7774761">
        <ele>18.8831</ele>
        <time>2014-07-08T12:01:42Z</time>
      </trkpt>
      <trkpt lat="59.7330657" lon="17.7773415">
        <ele>18.4023</ele>
        <time>2014-07-08T12:01:43Z</time>
      </trkpt>
      <trkpt lat="59.7331204" lon="17.7772058">
        <ele>18.4023</ele>
        <time>2014-07-08T12:01:44Z</time>
      </trkpt>
      <trkpt lat="59.7331746" lon="17.7770683">
        <ele>17.9218</ele>
        <time>2014-07-08T12:01:45Z</time>
      </trkpt>
      <trkpt lat="59.733228" lon="17.7769271">
        <ele>17.9218</ele>
        <time>2014-07-08T12:01:46Z</time>
      </trkpt>
      <trkpt lat="59.7332796" lon="17.7767816">
        <ele>18.4023</ele>
        <time>2014-07-08T12:01:47Z</time>
      </trkpt>
      <trkpt lat="59.7333282" lon="17.7766359">
        <ele>18.4023</ele>
        <time>2014-07-08T12:01:48Z</time>
      </trkpt>
      <trkpt lat="59.7333761" lon="17.7764934">
        <ele>18.4023</ele>
        <time>2014-07-08T12:01:49Z</time>
      </trkpt>
      <trkpt lat="59.7334246" lon="17.7763542">
        <ele>18.4023</ele>
        <time>2014-07-08T12:01:50Z</time>
      </trkpt>
      <trkpt lat="59.733472" lon="17.7762149">
        <ele>18.8831</ele>
        <time>2014-07-08T12:01:51Z</time>
      </trkpt>
      <trkpt lat="59.7335189" lon="17.7760765">
        <ele>18.8831</ele>
        <time>2014-07-08T12:01:52Z</time>
      </trkpt>
      <trkpt lat="59.7335661" lon="17.7759403">
        <ele>18.8831</ele>
        <time>2014-07-08T12:01:53Z</time>
      </trkpt>
      <trkpt lat="59.7336133" lon="17.7758051">
        <ele>19.3638</ele>
        <time>2014-07-08T12:01:54Z</time>
      </trkpt>
      <trkpt lat="59.7336593" lon="17.775673">
        <ele>19.3638</ele>
        <time>2014-07-08T12:01:55Z</time>
      </trkpt>
      <trkpt lat="59.733704" lon="17.7755446">
        <ele>19.3638</ele>
        <time>2014-07-08T12:01:56Z</time>
      </trkpt>
      <trkpt lat="59.7337491" lon="17.7754196">
        <ele>19.8444</ele>
        <time>2014-07-08T12:01:57Z</time>
      </trkpt>
      <trkpt lat="59.7337944" lon="17.7752973">
        <ele>19.8444</ele>
        <time>2014-07-08T12:01:58Z</time>
      </trkpt>
      <trkpt lat="59.7338391" lon="17.7751757">
        <ele>19.8444</ele>
        <time>2014-07-08T12:01:59Z</time>
      </trkpt>
      <trkpt lat="59.7338831" lon="17.7750552">
        <ele>20.325</ele>
        <time>2014-07-08T12:02:00Z</time>
      </trkpt>
      <trkpt lat="59.7339259" lon="17.7749386">
        <ele>20.325</ele>
        <time>2014-07-08T12:02:01Z</time>
      </trkpt>
      <trkpt lat="59.7339689" lon="17.7748266">
        <ele>20.325</ele>
        <time>2014-07-08T12:02:02Z</time>
      </trkpt>
      <trkpt lat="59.7340122" lon="17.7747187">
        <ele>20.325</ele>
        <time>2014-07-08T12:02:03Z</time>
      </trkpt>
      <trkpt lat="59.7340555" lon="17.7746106">
        <ele>20.325</ele>
        <time>2014-07-08T12:02:04Z</time>
      </trkpt>
      <trkpt lat="59.7340988" lon="17.7745029">
        <ele>20.8057</ele>
        <time>2014-07-08T12:02:05Z</time>
      </trkpt>
      <trkpt lat="59.7341427" lon="17.7743972">
        <ele>20.8057</ele>
        <time>2014-07-08T12:02:06Z</time>
      </trkpt>
      <trkpt lat="59.7341872" lon="17.774292">
        <ele>20.8057</ele>
        <time>2014-07-08T12:02:07Z</time>
      </trkpt>
      <trkpt lat="59.7342322" lon="17.7741857">
        <ele>20.8057</ele>
        <time>2014-07-08T12:02:08Z</time>
      </trkpt>
      <trkpt lat="59.734277" lon="17.7740789">
        <ele>21.2864</ele>
        <time>2014-07-08T12:02:09Z</time>
      </trkpt>
      <trkpt lat="59.7343219" lon="17.7739735">
        <ele>21.2864</ele>
        <time>2014-07-08T12:02:10Z</time>
      </trkpt>
      <trkpt lat="59.7343665" lon="17.7738703">
        <ele>21.2864</ele>
        <time>2014-07-08T12:02:11Z</time>
      </trkpt>
      <trkpt lat="59.7344115" lon="17.7737678">
        <ele>21.2864</ele>
        <time>2014-07-08T12:02:12Z</time>
      </trkpt>
      <trkpt lat="59.7344564" lon="17.7736663">
        <ele>21.767</ele>
        <time>2014-07-08T12:02:13Z</time>
      </trkpt>
      <trkpt lat="59.7345016" lon="17.7735653">
        <ele>21.767</ele>
        <time>2014-07-08T12:02:14Z</time>
      </trkpt>
      <trkpt lat="59.7345491" lon="17.7734663">
        <ele>22.2476</ele>
        <time>2014-07-08T12:02:15Z</time>
      </trkpt>
      <trkpt lat="59.7345959" lon="17.7733653">
        <ele>22.2476</ele>
        <time>2014-07-08T12:02:16Z</time>
      </trkpt>
      <trkpt lat="59.7346426" lon="17.7732643">
        <ele>22.2476</ele>
        <time>2014-07-08T12:02:17Z</time>
      </trkpt>
      <trkpt lat="59.7346896" lon="17.7731643">
        <ele>22.2476</ele>
        <time>2014-07-08T12:02:18Z</time>
      </trkpt>
      <trkpt lat="59.7347351" lon="17.7730615">
        <ele>22.2476</ele>
        <time>2014-07-08T12:02:19Z</time>
      </trkpt>
      <trkpt lat="59.7347788" lon="17.7729545">
        <ele>22.2476</ele>
        <time>2014-07-08T12:02:20Z</time>
      </trkpt>
      <trkpt lat="59.7348202" lon="17.772841">
        <ele>22.2476</ele>
        <time>2014-07-08T12:02:21Z</time>
      </trkpt>
      <trkpt lat="59.7348615" lon="17.7727281">
        <ele>22.7283</ele>
        <time>2014-07-08T12:02:22Z</time>
      </trkpt>
      <trkpt lat="59.7349005" lon="17.7726137">
        <ele>22.7283</ele>
        <time>2014-07-08T12:02:23Z</time>
      </trkpt>
      <trkpt lat="59.7349342" lon="17.7724924">
        <ele>22.7283</ele>
        <time>2014-07-08T12:02:24Z</time>
      </trkpt>
      <trkpt lat="59.7349633" lon="17.7723628">
        <ele>22.7283</ele>
        <time>2014-07-08T12:02:25Z</time>
      </trkpt>
      <trkpt lat="59.7349875" lon="17.7722277">
        <ele>22.7283</ele>
        <time>2014-07-08T12:02:26Z</time>
      </trkpt>
      <trkpt lat="59.7350062" lon="17.7720879">
        <ele>22.2476</ele>
        <time>2014-07-08T12:02:27Z</time>
      </trkpt>
      <trkpt lat="59.735021" lon="17.7719458">
        <ele>22.2476</ele>
        <time>2014-07-08T12:02:28Z</time>
      </trkpt>
      <trkpt lat="59.7350333" lon="17.7718">
        <ele>22.2476</ele>
        <time>2014-07-08T12:02:29Z</time>
      </trkpt>
      <trkpt lat="59.7350446" lon="17.7716521">
        <ele>21.767</ele>
        <time>2014-07-08T12:02:30Z</time>
      </trkpt>
      <trkpt lat="59.7350565" lon="17.7715014">
        <ele>21.767</ele>
        <time>2014-07-08T12:02:31Z</time>
      </trkpt>
      <trkpt lat="59.7350684" lon="17.7713466">
        <ele>21.767</ele>
        <time>2014-07-08T12:02:32Z</time>
      </trkpt>
      <trkpt lat="59.7350812" lon="17.7711895">
        <ele>21.767</ele>
        <time>2014-07-08T12:02:33Z</time>
      </trkpt>
      <trkpt lat="59.7350968" lon="17.7710325">
        <ele>21.767</ele>
        <time>2014-07-08T12:02:34Z</time>
      </trkpt>
      <trkpt lat="59.7351166" lon="17.7708761">
        <ele>21.767</ele>
        <time>2014-07-08T12:02:35Z</time>
      </trkpt>
      <trkpt lat="59.7351409" lon="17.7707191">
        <ele>21.2864</ele>
        <time>2014-07-08T12:02:36Z</time>
      </trkpt>
      <trkpt lat="59.7351676" lon="17.7705604">
        <ele>21.2864</ele>
        <time>2014-07-08T12:02:37Z</time>
      </trkpt>
      <trkpt lat="59.7351954" lon="17.7704005">
        <ele>21.2864</ele>
        <time>2014-07-08T12:02:38Z</time>
      </trkpt>
      <trkpt lat="59.7352252" lon="17.7702401">
        <ele>21.2864</ele>
        <time>2014-07-08T12:02:39Z</time>
      </trkpt>
      <trkpt lat="59.7352578" lon="17.770081">
        <ele>20.8057</ele>
        <time>2014-07-08T12:02:40Z</time>
      </trkpt>
      <trkpt lat="59.735294" lon="17.7699237">
        <ele>20.8057</ele>
        <time>2014-07-08T12:02:41Z</time>
      </trkpt>
      <trkpt lat="59.7353323" lon="17.7697667">
        <ele>20.8057</ele>
        <time>2014-07-08T12:02:42Z</time>
      </trkpt>
      <trkpt lat="59.7353705" lon="17.7696092">
        <ele>20.8057</ele>
        <time>2014-07-08T12:02:43Z</time>
      </trkpt>
      <trkpt lat="59.7354088" lon="17.7694512">
        <ele>20.325</ele>
        <time>2014-07-08T12:02:44Z</time>
      </trkpt>
      <trkpt lat="59.7354475" lon="17.7692916">
        <ele>20.325</ele>
        <time>2014-07-08T12:02:45Z</time>
      </trkpt>
      <trkpt lat="59.7354865" lon="17.7691302">
        <ele>20.325</ele>
        <time>2014-07-08T12:02:46Z</time>
      </trkpt>
      <trkpt lat="59.7355257" lon="17.7689683">
        <ele>19.8444</ele>
        <time>2014-07-08T12:02:47Z</time>
      </trkpt>
      <trkpt lat="59.7355645" lon="17.7688066">
        <ele>19.8444</ele>
        <time>2014-07-08T12:02:48Z</time>
      </trkpt>
      <trkpt lat="59.7356036" lon="17.7686457">
        <ele>19.8444</ele>
        <time>2014-07-08T12:02:49Z</time>
      </trkpt>
      <trkpt lat="59.7356437" lon="17.7684851">
        <ele>19.3638</ele>
        <time>2014-07-08T12:02:50Z</time>
      </trkpt>
      <trkpt lat="59.7356832" lon="17.7683234">
        <ele>19.3638</ele>
        <time>2014-07-08T12:02:51Z</time>
      </trkpt>
      <trkpt lat="59.7357229" lon="17.7681603">
        <ele>19.3638</ele>
        <time>2014-07-08T12:02:52Z</time>
      </trkpt>
      <trkpt lat="59.7357639" lon="17.7679961">
        <ele>18.8831</ele>
        <time>2014-07-08T12:02:53Z</time>
      </trkpt>
      <trkpt lat="59.7358051" lon="17.7678314">
        <ele>18.8831</ele>
        <time>2014-07-08T12:02:54Z</time>
      </trkpt>
      <trkpt lat="59.7358458" lon="17.7676672">
        <ele>18.8831</ele>
        <time>2014-07-08T12:02:55Z</time>
      </trkpt>
      <trkpt lat="59.7358858" lon="17.7675035">
        <ele>18.4023</ele>
        <time>2014-07-08T12:02:56Z</time>
      </trkpt>
      <trkpt lat="59.7359262" lon="17.7673393">
        <ele>18.4023</ele>
        <time>2014-07-08T12:02:57Z</time>
      </trkpt>
      <trkpt lat="59.7359671" lon="17.7671755">
        <ele>18.4023</ele>
        <time>2014-07-08T12:02:58Z</time>
      </trkpt>
      <trkpt lat="59.7360091" lon="17.7670105">
        <ele>18.4023</ele>
        <time>2014-07-08T12:02:59Z</time>
      </trkpt>
      <trkpt lat="59.7360516" lon="17.7668433">
        <ele>18.4023</ele>
        <time>2014-07-08T12:03:00Z</time>
      </trkpt>
      <trkpt lat="59.7360945" lon="17.7666721">
        <ele>17.9218</ele>
        <time>2014-07-08T12:03:01Z</time>
      </trkpt>
      <trkpt lat="59.7361371" lon="17.7664975">
        <ele>17.9218</ele>
        <time>2014-07-08T12:03:02Z</time>
      </trkpt>
      <trkpt lat="59.7361796" lon="17.7663197">
        <ele>17.9218</ele>
        <time>2014-07-08T12:03:03Z</time>
      </trkpt>
      <trkpt lat="59.7362238" lon="17.7661399">
        <ele>17.9218</ele>
        <time>2014-07-08T12:03:04Z</time>
      </trkpt>
      <trkpt lat="59.7362689" lon="17.7659598">
        <ele>17.9218</ele>
        <time>2014-07-08T12:03:05Z</time>
      </trkpt>
      <trkpt lat="59.7363137" lon="17.7657801">
        <ele>17.4412</ele>
        <time>2014-07-08T12:03:06Z</time>
      </trkpt>
      <trkpt lat="59.7363581" lon="17.7656006">
        <ele>17.4412</ele>
        <time>2014-07-08T12:03:07Z</time>
      </trkpt>
      <trkpt lat="59.7364015" lon="17.7654211">
        <ele>17.4412</ele>
        <time>2014-07-08T12:03:08Z</time>
      </trkpt>
      <trkpt lat="59.7364453" lon="17.7652403">
        <ele>17.4412</ele>
        <time>2014-07-08T12:03:09Z</time>
      </trkpt>
      <trkpt lat="59.7364907" lon="17.76506">
        <ele>17.4412</ele>
        <time>2014-07-08T12:03:10Z</time>
      </trkpt>
      <trkpt lat="59.7365363" lon="17.7648786">
        <ele>17.4412</ele>
        <time>2014-07-08T12:03:11Z</time>
      </trkpt>
      <trkpt lat="59.7365821" lon="17.7646955">
        <ele>17.4412</ele>
        <time>2014-07-08T12:03:12Z</time>
      </trkpt>
      <trkpt lat="59.7366274" lon="17.7645145">
        <ele>17.4412</ele>
        <time>2014-07-08T12:03:13Z</time>
      </trkpt>
      <trkpt lat="59.7366716" lon="17.7643375">
        <ele>17.4412</ele>
        <time>2014-07-08T12:03:14Z</time>
      </trkpt>
      <trkpt lat="59.7367166" lon="17.764164">
        <ele>17.4412</ele>
        <time>2014-07-08T12:03:15Z</time>
      </trkpt>
      <trkpt lat="59.7367638" lon="17.7639929">
        <ele>16.9604</ele>
        <time>2014-07-08T12:03:16Z</time>
      </trkpt>
      <trkpt lat="59.7368141" lon="17.7638226">
        <ele>16.9604</ele>
        <time>2014-07-08T12:03:17Z</time>
      </trkpt>
      <trkpt lat="59.7368688" lon="17.7636557">
        <ele>16.9604</ele>
        <time>2014-07-08T12:03:18Z</time>
      </trkpt>
      <trkpt lat="59.7369278" lon="17.7634946">
        <ele>16.9604</ele>
        <time>2014-07-08T12:03:19Z</time>
      </trkpt>
      <trkpt lat="59.7369902" lon="17.7633382">
        <ele>16.9604</ele>
        <time>2014-07-08T12:03:20Z</time>
      </trkpt>
      <trkpt lat="59.7370549" lon="17.7631879">
        <ele>16.9604</ele>
        <time>2014-07-08T12:03:21Z</time>
      </trkpt>
      <trkpt lat="59.7371214" lon="17.7630449">
        <ele>16.9604</ele>
        <time>2014-07-08T12:03:22Z</time>
      </trkpt>
      <trkpt lat="59.737189" lon="17.7629082">
        <ele>16.9604</ele>
        <time>2014-07-08T12:03:23Z</time>
      </trkpt>
      <trkpt lat="59.7372574" lon="17.7627746">
        <ele>16.9604</ele>
        <time>2014-07-08T12:03:24Z</time>
      </trkpt>
      <trkpt lat="59.7373262" lon="17.7626472">
        <ele>17.4412</ele>
        <time>2014-07-08T12:03:25Z</time>
      </trkpt>
      <trkpt lat="59.7373941" lon="17.7625253">
        <ele>17.4412</ele>
        <time>2014-07-08T12:03:26Z</time>
      </trkpt>
      <trkpt lat="59.7374605" lon="17.7624083">
        <ele>17.9218</ele>
        <time>2014-07-08T12:03:27Z</time>
      </trkpt>
      <trkpt lat="59.7375248" lon="17.7622957">
        <ele>18.4023</ele>
        <time>2014-07-08T12:03:28Z</time>
      </trkpt>
      <trkpt lat="59.7375875" lon="17.7621878">
        <ele>18.4023</ele>
        <time>2014-07-08T12:03:29Z</time>
      </trkpt>
      <trkpt lat="59.7376487" lon="17.7620842">
        <ele>18.8831</ele>
        <time>2014-07-08T12:03:30Z</time>
      </trkpt>
      <trkpt lat="59.7377083" lon="17.7619831">
        <ele>18.8831</ele>
        <time>2014-07-08T12:03:31Z</time>
      </trkpt>
      <trkpt lat="59.7377657" lon="17.7618834">
        <ele>19.3638</ele>
        <time>2014-07-08T12:03:32Z</time>
      </trkpt>
      <trkpt lat="59.7378216" lon="17.7617867">
        <ele>19.8444</ele>
        <time>2014-07-08T12:03:33Z</time>
      </trkpt>
      <trkpt lat="59.7378763" lon="17.7616925">
        <ele>19.8444</ele>
        <time>2014-07-08T12:03:34Z</time>
      </trkpt>
      <trkpt lat="59.7379293" lon="17.7616">
        <ele>20.325</ele>
        <time>2014-07-08T12:03:35Z</time>
      </trkpt>
      <trkpt lat="59.7379806" lon="17.7615101">
        <ele>20.325</ele>
        <time>2014-07-08T12:03:36Z</time>
      </trkpt>
      <trkpt lat="59.7380302" lon="17.7614205">
        <ele>20.325</ele>
        <time>2014-07-08T12:03:37Z</time>
      </trkpt>
      <trkpt lat="59.7380785" lon="17.7613304">
        <ele>20.8057</ele>
        <time>2014-07-08T12:03:38Z</time>
      </trkpt>
      <trkpt lat="59.7381255" lon="17.7612382">
        <ele>20.8057</ele>
        <time>2014-07-08T12:03:39Z</time>
      </trkpt>
      <trkpt lat="59.7381703" lon="17.7611396">
        <ele>21.2864</ele>
        <time>2014-07-08T12:03:40Z</time>
      </trkpt>
      <trkpt lat="59.7382125" lon="17.7610361">
        <ele>21.767</ele>
        <time>2014-07-08T12:03:41Z</time>
      </trkpt>
      <trkpt lat="59.7382527" lon="17.7609315">
        <ele>21.767</ele>
        <time>2014-07-08T12:03:42Z</time>
      </trkpt>
      <trkpt lat="59.7382924" lon="17.7608274">
        <ele>21.767</ele>
        <time>2014-07-08T12:03:43Z</time>
      </trkpt>
      <trkpt lat="59.7383304" lon="17.760717">
        <ele>21.767</ele>
        <time>2014-07-08T12:03:44Z</time>
      </trkpt>
      <trkpt lat="59.738367" lon="17.7606083">
        <ele>21.767</ele>
        <time>2014-07-08T12:03:45Z</time>
      </trkpt>
      <trkpt lat="59.7383984" lon="17.7604917">
        <ele>21.767</ele>
        <time>2014-07-08T12:03:46Z</time>
      </trkpt>
      <trkpt lat="59.7384278" lon="17.7603746">
        <ele>21.767</ele>
        <time>2014-07-08T12:03:47Z</time>
      </trkpt>
      <trkpt lat="59.7384557" lon="17.7602555">
        <ele>21.767</ele>
        <time>2014-07-08T12:03:48Z</time>
      </trkpt>
      <trkpt lat="59.7384788" lon="17.7601363">
        <ele>21.767</ele>
        <time>2014-07-08T12:03:49Z</time>
      </trkpt>
      <trkpt lat="59.7385052" lon="17.7600177">
        <ele>21.767</ele>
        <time>2014-07-08T12:03:50Z</time>
      </trkpt>
      <trkpt lat="59.7385344" lon="17.7598935">
        <ele>21.767</ele>
        <time>2014-07-08T12:03:51Z</time>
      </trkpt>
      <trkpt lat="59.7385606" lon="17.7597713">
        <ele>21.767</ele>
        <time>2014-07-08T12:03:52Z</time>
      </trkpt>
      <trkpt lat="59.7385855" lon="17.7596484">
        <ele>21.2864</ele>
        <time>2014-07-08T12:03:53Z</time>
      </trkpt>
      <trkpt lat="59.7386104" lon="17.7595251">
        <ele>21.2864</ele>
        <time>2014-07-08T12:03:54Z</time>
      </trkpt>
      <trkpt lat="59.7386357" lon="17.7594016">
        <ele>21.2864</ele>
        <time>2014-07-08T12:03:55Z</time>
      </trkpt>
      <trkpt lat="59.7386613" lon="17.7592786">
        <ele>21.2864</ele>
        <time>2014-07-08T12:03:56Z</time>
      </trkpt>
      <trkpt lat="59.7386863" lon="17.7591561">
        <ele>21.2864</ele>
        <time>2014-07-08T12:03:57Z</time>
      </trkpt>
      <trkpt lat="59.7387111" lon="17.7590335">
        <ele>21.2864</ele>
        <time>2014-07-08T12:03:58Z</time>
      </trkpt>
      <trkpt lat="59.7387374" lon="17.7589128">
        <ele>20.8057</ele>
        <time>2014-07-08T12:03:59Z</time>
      </trkpt>
      <trkpt lat="59.7387649" lon="17.7587916">
        <ele>20.8057</ele>
        <time>2014-07-08T12:04:00Z</time>
      </trkpt>
      <trkpt lat="59.7387933" lon="17.7586666">
        <ele>20.8057</ele>
        <time>2014-07-08T12:04:01Z</time>
      </trkpt>
      <trkpt lat="59.7388233" lon="17.7585405">
        <ele>20.325</ele>
        <time>2014-07-08T12:04:02Z</time>
      </trkpt>
      <trkpt lat="59.7388555" lon="17.7584165">
        <ele>20.325</ele>
        <time>2014-07-08T12:04:03Z</time>
      </trkpt>
      <trkpt lat="59.7388885" lon="17.7582922">
        <ele>20.325</ele>
        <time>2014-07-08T12:04:04Z</time>
      </trkpt>
      <trkpt lat="59.7389227" lon="17.7581684">
        <ele>19.8444</ele>
        <time>2014-07-08T12:04:05Z</time>
      </trkpt>
      <trkpt lat="59.738956" lon="17.7580451">
        <ele>19.8444</ele>
        <time>2014-07-08T12:04:06Z</time>
      </trkpt>
      <trkpt lat="59.7389893" lon="17.7579281">
        <ele>19.8444</ele>
        <time>2014-07-08T12:04:07Z</time>
      </trkpt>
      <trkpt lat="59.7390336" lon="17.7578338">
        <ele>19.3638</ele>
        <time>2014-07-08T12:04:08Z</time>
      </trkpt>
      <trkpt lat="59.7391004" lon="17.7577903">
        <ele>19.3638</ele>
        <time>2014-07-08T12:04:09Z</time>
      </trkpt>
      <trkpt lat="59.7391704" lon="17.7577997">
        <ele>19.3638</ele>
        <time>2014-07-08T12:04:10Z</time>
      </trkpt>
      <trkpt lat="59.7392377" lon="17.7578453">
        <ele>19.3638</ele>
        <time>2014-07-08T12:04:11Z</time>
      </trkpt>
      <trkpt lat="59.7393024" lon="17.7579009">
        <ele>19.3638</ele>
        <time>2014-07-08T12:04:12Z</time>
      </trkpt>
      <trkpt lat="59.7393658" lon="17.7579554">
        <ele>19.3638</ele>
        <time>2014-07-08T12:04:13Z</time>
      </trkpt>
      <trkpt lat="59.7394284" lon="17.7580047">
        <ele>19.3638</ele>
        <time>2014-07-08T12:04:14Z</time>
      </trkpt>
      <trkpt lat="59.7394894" lon="17.758051">
        <ele>19.8444</ele>
        <time>2014-07-08T12:04:15Z</time>
      </trkpt>
      <trkpt lat="59.7395486" lon="17.7580994">
        <ele>19.8444</ele>
        <time>2014-07-08T12:04:16Z</time>
      </trkpt>
      <trkpt lat="59.7396073" lon="17.7581498">
        <ele>19.8444</ele>
        <time>2014-07-08T12:04:17Z</time>
      </trkpt>
      <trkpt lat="59.7396667" lon="17.7581984">
        <ele>20.325</ele>
        <time>2014-07-08T12:04:18Z</time>
      </trkpt>
      <trkpt lat="59.7397267" lon="17.7582445">
        <ele>20.325</ele>
        <time>2014-07-08T12:04:19Z</time>
      </trkpt>
      <trkpt lat="59.7397869" lon="17.7582911">
        <ele>20.325</ele>
        <time>2014-07-08T12:04:20Z</time>
      </trkpt>
      <trkpt lat="59.7398475" lon="17.7583378">
        <ele>20.8057</ele>
        <time>2014-07-08T12:04:21Z</time>
      </trkpt>
      <trkpt lat="59.7399086" lon="17.7583807">
        <ele>20.8057</ele>
        <time>2014-07-08T12:04:22Z</time>
      </trkpt>
      <trkpt lat="59.7399696" lon="17.7584215">
        <ele>20.8057</ele>
        <time>2014-07-08T12:04:23Z</time>
      </trkpt>
      <trkpt lat="59.7400295" lon="17.7584638">
        <ele>21.2864</ele>
        <time>2014-07-08T12:04:24Z</time>
      </trkpt>
      <trkpt lat="59.7400893" lon="17.7585042">
        <ele>21.2864</ele>
        <time>2014-07-08T12:04:25Z</time>
      </trkpt>
      <trkpt lat="59.740149" lon="17.75854">
        <ele>21.2864</ele>
        <time>2014-07-08T12:04:26Z</time>
      </trkpt>
      <trkpt lat="59.7402085" lon="17.7585731">
        <ele>21.767</ele>
        <time>2014-07-08T12:04:27Z</time>
      </trkpt>
      <trkpt lat="59.7402669" lon="17.7586054">
        <ele>21.767</ele>
        <time>2014-07-08T12:04:28Z</time>
      </trkpt>
      <trkpt lat="59.7403236" lon="17.7586344">
        <ele>21.767</ele>
        <time>2014-07-08T12:04:29Z</time>
      </trkpt>
      <trkpt lat="59.7403795" lon="17.758659">
        <ele>21.767</ele>
        <time>2014-07-08T12:04:30Z</time>
      </trkpt>
      <trkpt lat="59.7404344" lon="17.7586829">
        <ele>22.2476</ele>
        <time>2014-07-08T12:04:31Z</time>
      </trkpt>
      <trkpt lat="59.7404888" lon="17.7587046">
        <ele>22.2476</ele>
        <time>2014-07-08T12:04:32Z</time>
      </trkpt>
      <trkpt lat="59.7405431" lon="17.7587237">
        <ele>22.2476</ele>
        <time>2014-07-08T12:04:33Z</time>
      </trkpt>
      <trkpt lat="59.7405981" lon="17.7587407">
        <ele>22.7283</ele>
        <time>2014-07-08T12:04:34Z</time>
      </trkpt>
      <trkpt lat="59.7406537" lon="17.7587577">
        <ele>22.7283</ele>
        <time>2014-07-08T12:04:35Z</time>
      </trkpt>
      <trkpt lat="59.7407093" lon="17.7587807">
        <ele>22.7283</ele>
        <time>2014-07-08T12:04:36Z</time>
      </trkpt>
      <trkpt lat="59.740765" lon="17.758805">
        <ele>22.7283</ele>
        <time>2014-07-08T12:04:37Z</time>
      </trkpt>
      <trkpt lat="59.7408214" lon="17.7588243">
        <ele>23.209</ele>
        <time>2014-07-08T12:04:38Z</time>
      </trkpt>
      <trkpt lat="59.7408784" lon="17.7588403">
        <ele>23.209</ele>
        <time>2014-07-08T12:04:39Z</time>
      </trkpt>
      <trkpt lat="59.7409353" lon="17.7588562">
        <ele>23.209</ele>
        <time>2014-07-08T12:04:40Z</time>
      </trkpt>
      <trkpt lat="59.7409923" lon="17.7588724">
        <ele>23.6896</ele>
        <time>2014-07-08T12:04:41Z</time>
      </trkpt>
      <trkpt lat="59.7410493" lon="17.7588911">
        <ele>23.6896</ele>
        <time>2014-07-08T12:04:42Z</time>
      </trkpt>
      <trkpt lat="59.7411061" lon="17.7589124">
        <ele>23.6896</ele>
        <time>2014-07-08T12:04:43Z</time>
      </trkpt>
      <trkpt lat="59.7411627" lon="17.7589372">
        <ele>23.6896</ele>
        <time>2014-07-08T12:04:44Z</time>
      </trkpt>
      <trkpt lat="59.7412188" lon="17.7589665">
        <ele>24.1703</ele>
        <time>2014-07-08T12:04:45Z</time>
      </trkpt>
      <trkpt lat="59.7412747" lon="17.7589994">
        <ele>24.1703</ele>
        <time>2014-07-08T12:04:46Z</time>
      </trkpt>
      <trkpt lat="59.7413297" lon="17.7590376">
        <ele>24.1703</ele>
        <time>2014-07-08T12:04:47Z</time>
      </trkpt>
      <trkpt lat="59.7413839" lon="17.7590801">
        <ele>24.651</ele>
        <time>2014-07-08T12:04:48Z</time>
      </trkpt>
      <trkpt lat="59.7414366" lon="17.7591276">
        <ele>24.651</ele>
        <time>2014-07-08T12:04:49Z</time>
      </trkpt>
      <trkpt lat="59.7414866" lon="17.7591843">
        <ele>24.651</ele>
        <time>2014-07-08T12:04:50Z</time>
      </trkpt>
      <trkpt lat="59.7415348" lon="17.7592475">
        <ele>25.1317</ele>
        <time>2014-07-08T12:04:51Z</time>
      </trkpt>
      <trkpt lat="59.7415819" lon="17.7593128">
        <ele>25.1317</ele>
        <time>2014-07-08T12:04:52Z</time>
      </trkpt>
      <trkpt lat="59.7416283" lon="17.759379">
        <ele>25.6123</ele>
        <time>2014-07-08T12:04:53Z</time>
      </trkpt>
      <trkpt lat="59.7416735" lon="17.7594474">
        <ele>25.6123</ele>
        <time>2014-07-08T12:04:54Z</time>
      </trkpt>
      <trkpt lat="59.7417179" lon="17.7595178">
        <ele>26.0929</ele>
        <time>2014-07-08T12:04:55Z</time>
      </trkpt>
      <trkpt lat="59.741762" lon="17.7595879">
        <ele>26.0929</ele>
        <time>2014-07-08T12:04:56Z</time>
      </trkpt>
      <trkpt lat="59.7418055" lon="17.7596575">
        <ele>26.0929</ele>
        <time>2014-07-08T12:04:57Z</time>
      </trkpt>
      <trkpt lat="59.7418485" lon="17.7597266">
        <ele>26.5736</ele>
        <time>2014-07-08T12:04:58Z</time>
      </trkpt>
      <trkpt lat="59.7418915" lon="17.7597949">
        <ele>26.5736</ele>
        <time>2014-07-08T12:04:59Z</time>
      </trkpt>
      <trkpt lat="59.7419346" lon="17.7598624">
        <ele>26.5736</ele>
        <time>2014-07-08T12:05:00Z</time>
      </trkpt>
      <trkpt lat="59.7419777" lon="17.7599312">
        <ele>27.0543</ele>
        <time>2014-07-08T12:05:01Z</time>
      </trkpt>
      <trkpt lat="59.7420215" lon="17.7600007">
        <ele>27.0543</ele>
        <time>2014-07-08T12:05:02Z</time>
      </trkpt>
      <trkpt lat="59.7420656" lon="17.7600709">
        <ele>27.5349</ele>
        <time>2014-07-08T12:05:03Z</time>
      </trkpt>
      <trkpt lat="59.74211" lon="17.7601408">
        <ele>27.5349</ele>
        <time>2014-07-08T12:05:04Z</time>
      </trkpt>
      <trkpt lat="59.7421546" lon="17.7602115">
        <ele>28.0155</ele>
        <time>2014-07-08T12:05:05Z</time>
      </trkpt>
      <trkpt lat="59.7421998" lon="17.7602824">
        <ele>28.0155</ele>
        <time>2014-07-08T12:05:06Z</time>
      </trkpt>
      <trkpt lat="59.742245" lon="17.7603528">
        <ele>28.4962</ele>
        <time>2014-07-08T12:05:07Z</time>
      </trkpt>
      <trkpt lat="59.7422901" lon="17.7604222">
        <ele>28.4962</ele>
        <time>2014-07-08T12:05:08Z</time>
      </trkpt>
      <trkpt lat="59.7423346" lon="17.7604927">
        <ele>28.9769</ele>
        <time>2014-07-08T12:05:09Z</time>
      </trkpt>
      <trkpt lat="59.7423788" lon="17.7605642">
        <ele>28.9769</ele>
        <time>2014-07-08T12:05:10Z</time>
      </trkpt>
      <trkpt lat="59.7424231" lon="17.7606347">
        <ele>29.4575</ele>
        <time>2014-07-08T12:05:11Z</time>
      </trkpt>
      <trkpt lat="59.7424674" lon="17.7607054">
        <ele>29.4575</ele>
        <time>2014-07-08T12:05:12Z</time>
      </trkpt>
      <trkpt lat="59.7425115" lon="17.7607751">
        <ele>29.9381</ele>
        <time>2014-07-08T12:05:13Z</time>
      </trkpt>
      <trkpt lat="59.7425552" lon="17.7608444">
        <ele>29.9381</ele>
        <time>2014-07-08T12:05:14Z</time>
      </trkpt>
      <trkpt lat="59.742598" lon="17.7609148">
        <ele>30.4188</ele>
        <time>2014-07-08T12:05:15Z</time>
      </trkpt>
      <trkpt lat="59.742641" lon="17.7609833">
        <ele>30.8995</ele>
        <time>2014-07-08T12:05:16Z</time>
      </trkpt>
      <trkpt lat="59.742684" lon="17.7610502">
        <ele>30.8995</ele>
        <time>2014-07-08T12:05:17Z</time>
      </trkpt>
      <trkpt lat="59.7427264" lon="17.7611178">
        <ele>31.3801</ele>
        <time>2014-07-08T12:05:18Z</time>
      </trkpt>
      <trkpt lat="59.7427689" lon="17.7611848">
        <ele>31.3801</ele>
        <time>2014-07-08T12:05:19Z</time>
      </trkpt>
      <trkpt lat="59.7428122" lon="17.7612522">
        <ele>31.3801</ele>
        <time>2014-07-08T12:05:20Z</time>
      </trkpt>
      <trkpt lat="59.7428564" lon="17.7613195">
        <ele>31.8607</ele>
        <time>2014-07-08T12:05:21Z</time>
      </trkpt>
      <trkpt lat="59.7429013" lon="17.7613851">
        <ele>31.8607</ele>
        <time>2014-07-08T12:05:22Z</time>
      </trkpt>
      <trkpt lat="59.7429469" lon="17.761449">
        <ele>32.3416</ele>
        <time>2014-07-08T12:05:23Z</time>
      </trkpt>
      <trkpt lat="59.7429942" lon="17.7615102">
        <ele>32.3416</ele>
        <time>2014-07-08T12:05:24Z</time>
      </trkpt>
      <trkpt lat="59.7430441" lon="17.7615675">
        <ele>32.3416</ele>
        <time>2014-07-08T12:05:25Z</time>
      </trkpt>
      <trkpt lat="59.7430959" lon="17.7616223">
        <ele>32.3416</ele>
        <time>2014-07-08T12:05:26Z</time>
      </trkpt>
      <trkpt lat="59.7431498" lon="17.7616748">
        <ele>32.3416</ele>
        <time>2014-07-08T12:05:27Z</time>
      </trkpt>
      <trkpt lat="59.7432059" lon="17.761722">
        <ele>32.3416</ele>
        <time>2014-07-08T12:05:28Z</time>
      </trkpt>
      <trkpt lat="59.7432641" lon="17.7617614">
        <ele>31.8607</ele>
        <time>2014-07-08T12:05:29Z</time>
      </trkpt>
      <trkpt lat="59.7433247" lon="17.7617912">
        <ele>31.8607</ele>
        <time>2014-07-08T12:05:30Z</time>
      </trkpt>
      <trkpt lat="59.7433869" lon="17.7618173">
        <ele>31.8607</ele>
        <time>2014-07-08T12:05:31Z</time>
      </trkpt>
      <trkpt lat="59.7434512" lon="17.761842">
        <ele>31.3801</ele>
        <time>2014-07-08T12:05:32Z</time>
      </trkpt>
      <trkpt lat="59.7435118" lon="17.761858">
        <ele>31.8607</ele>
        <time>2014-07-08T12:05:33Z</time>
      </trkpt>
      <trkpt lat="59.7435719" lon="17.7618733">
        <ele>31.3801</ele>
        <time>2014-07-08T12:05:34Z</time>
      </trkpt>
      <trkpt lat="59.7436387" lon="17.7618866">
        <ele>30.8995</ele>
        <time>2014-07-08T12:05:35Z</time>
      </trkpt>
      <trkpt lat="59.7437056" lon="17.7618875">
        <ele>30.8995</ele>
        <time>2014-07-08T12:05:36Z</time>
      </trkpt>
      <trkpt lat="59.7437735" lon="17.7618801">
        <ele>30.4188</ele>
        <time>2014-07-08T12:05:37Z</time>
      </trkpt>
      <trkpt lat="59.7438425" lon="17.7618663">
        <ele>30.4188</ele>
        <time>2014-07-08T12:05:38Z</time>
      </trkpt>
      <trkpt lat="59.7439125" lon="17.7618448">
        <ele>29.9381</ele>
        <time>2014-07-08T12:05:39Z</time>
      </trkpt>
      <trkpt lat="59.7439836" lon="17.7618159">
        <ele>29.9381</ele>
        <time>2014-07-08T12:05:40Z</time>
      </trkpt>
      <trkpt lat="59.7440554" lon="17.761783">
        <ele>29.9381</ele>
        <time>2014-07-08T12:05:41Z</time>
      </trkpt>
      <trkpt lat="59.7441273" lon="17.7617466">
        <ele>29.4575</ele>
        <time>2014-07-08T12:05:42Z</time>
      </trkpt>
      <trkpt lat="59.7441992" lon="17.7617075">
        <ele>29.4575</ele>
        <time>2014-07-08T12:05:43Z</time>
      </trkpt>
      <trkpt lat="59.7442698" lon="17.7616661">
        <ele>29.4575</ele>
        <time>2014-07-08T12:05:44Z</time>
      </trkpt>
      <trkpt lat="59.7443386" lon="17.7616225">
        <ele>28.4962</ele>
        <time>2014-07-08T12:05:45Z</time>
      </trkpt>
      <trkpt lat="59.7444079" lon="17.7615816">
        <ele>28.4962</ele>
        <time>2014-07-08T12:05:46Z</time>
      </trkpt>
      <trkpt lat="59.7444788" lon="17.7615448">
        <ele>28.0155</ele>
        <time>2014-07-08T12:05:47Z</time>
      </trkpt>
      <trkpt lat="59.7445509" lon="17.7615075">
        <ele>27.5349</ele>
        <time>2014-07-08T12:05:48Z</time>
      </trkpt>
      <trkpt lat="59.7446219" lon="17.761465">
        <ele>27.5349</ele>
        <time>2014-07-08T12:05:49Z</time>
      </trkpt>
      <trkpt lat="59.7446933" lon="17.7614204">
        <ele>27.0543</ele>
        <time>2014-07-08T12:05:50Z</time>
      </trkpt>
      <trkpt lat="59.744766" lon="17.7613708">
        <ele>26.5736</ele>
        <time>2014-07-08T12:05:51Z</time>
      </trkpt>
      <trkpt lat="59.7448443" lon="17.7612916">
        <ele>26.5736</ele>
        <time>2014-07-08T12:05:52Z</time>
      </trkpt>
      <trkpt lat="59.7449214" lon="17.7612245">
        <ele>26.0929</ele>
        <time>2014-07-08T12:05:53Z</time>
      </trkpt>
      <trkpt lat="59.7449963" lon="17.7611601">
        <ele>25.6123</ele>
        <time>2014-07-08T12:05:54Z</time>
      </trkpt>
      <trkpt lat="59.7450794" lon="17.7611252">
        <ele>25.1317</ele>
        <time>2014-07-08T12:05:55Z</time>
      </trkpt>
      <trkpt lat="59.7451585" lon="17.7610734">
        <ele>24.651</ele>
        <time>2014-07-08T12:05:56Z</time>
      </trkpt>
      <trkpt lat="59.7452448" lon="17.7610378">
        <ele>24.651</ele>
        <time>2014-07-08T12:05:57Z</time>
      </trkpt>
      <trkpt lat="59.745332" lon="17.7609966">
        <ele>24.1703</ele>
        <time>2014-07-08T12:05:58Z</time>
      </trkpt>
      <trkpt lat="59.7454197" lon="17.7609531">
        <ele>23.6896</ele>
        <time>2014-07-08T12:05:59Z</time>
      </trkpt>
      <trkpt lat="59.74551" lon="17.7609109">
        <ele>23.209</ele>
        <time>2014-07-08T12:06:00Z</time>
      </trkpt>
      <trkpt lat="59.7456025" lon="17.7608691">
        <ele>23.209</ele>
        <time>2014-07-08T12:06:01Z</time>
      </trkpt>
      <trkpt lat="59.7456969" lon="17.7608313">
        <ele>22.7283</ele>
        <time>2014-07-08T12:06:02Z</time>
      </trkpt>
      <trkpt lat="59.7457942" lon="17.7608003">
        <ele>22.2476</ele>
        <time>2014-07-08T12:06:03Z</time>
      </trkpt>
      <trkpt lat="59.7458933" lon="17.760774">
        <ele>21.2864</ele>
        <time>2014-07-08T12:06:04Z</time>
      </trkpt>
      <trkpt lat="59.745994" lon="17.7607492">
        <ele>21.2864</ele>
        <time>2014-07-08T12:06:05Z</time>
      </trkpt>
      <trkpt lat="59.7460947" lon="17.760728">
        <ele>20.8057</ele>
        <time>2014-07-08T12:06:06Z</time>
      </trkpt>
      <trkpt lat="59.7461961" lon="17.7607112">
        <ele>20.325</ele>
        <time>2014-07-08T12:06:07Z</time>
      </trkpt>
      <trkpt lat="59.7462984" lon="17.760699">
        <ele>19.3638</ele>
        <time>2014-07-08T12:06:08Z</time>
      </trkpt>
      <trkpt lat="59.7464024" lon="17.7606905">
        <ele>19.3638</ele>
        <time>2014-07-08T12:06:09Z</time>
      </trkpt>
      <trkpt lat="59.7465065" lon="17.7606848">
        <ele>18.8831</ele>
        <time>2014-07-08T12:06:10Z</time>
      </trkpt>
      <trkpt lat="59.7466095" lon="17.7606838">
        <ele>18.4023</ele>
        <time>2014-07-08T12:06:11Z</time>
      </trkpt>
      <trkpt lat="59.746711" lon="17.7606863">
        <ele>18.4023</ele>
        <time>2014-07-08T12:06:12Z</time>
      </trkpt>
      <trkpt lat="59.7468106" lon="17.7606946">
        <ele>18.4023</ele>
        <time>2014-07-08T12:06:13Z</time>
      </trkpt>
      <trkpt lat="59.746908" lon="17.7607127">
        <ele>18.4023</ele>
        <time>2014-07-08T12:06:14Z</time>
      </trkpt>
      <trkpt lat="59.7470023" lon="17.760737">
        <ele>17.9218</ele>
        <time>2014-07-08T12:06:15Z</time>
      </trkpt>
      <trkpt lat="59.747094" lon="17.7607626">
        <ele>17.9218</ele>
        <time>2014-07-08T12:06:16Z</time>
      </trkpt>
      <trkpt lat="59.7471827" lon="17.7607875">
        <ele>18.4023</ele>
        <time>2014-07-08T12:06:17Z</time>
      </trkpt>
      <trkpt lat="59.7472688" lon="17.7608114">
        <ele>18.4023</ele>
        <time>2014-07-08T12:06:18Z</time>
      </trkpt>
      <trkpt lat="59.7473525" lon="17.7608362">
        <ele>17.9218</ele>
        <time>2014-07-08T12:06:19Z</time>
      </trkpt>
      <trkpt lat="59.7474353" lon="17.760861">
        <ele>17.9218</ele>
        <time>2014-07-08T12:06:20Z</time>
      </trkpt>
      <trkpt lat="59.7475167" lon="17.760886">
        <ele>17.9218</ele>
        <time>2014-07-08T12:06:21Z</time>
      </trkpt>
      <trkpt lat="59.7475978" lon="17.7609113">
        <ele>17.9218</ele>
        <time>2014-07-08T12:06:22Z</time>
      </trkpt>
      <trkpt lat="59.7476791" lon="17.760938">
        <ele>18.4023</ele>
        <time>2014-07-08T12:06:23Z</time>
      </trkpt>
      <trkpt lat="59.7477597" lon="17.7609661">
        <ele>18.4023</ele>
        <time>2014-07-08T12:06:24Z</time>
      </trkpt>
      <trkpt lat="59.7478404" lon="17.7609932">
        <ele>18.4023</ele>
        <time>2014-07-08T12:06:25Z</time>
      </trkpt>
      <trkpt lat="59.7479207" lon="17.7610192">
        <ele>18.4023</ele>
        <time>2014-07-08T12:06:26Z</time>
      </trkpt>
      <trkpt lat="59.7480005" lon="17.7610447">
        <ele>18.8831</ele>
        <time>2014-07-08T12:06:27Z</time>
      </trkpt>
      <trkpt lat="59.7480798" lon="17.7610681">
        <ele>18.8831</ele>
        <time>2014-07-08T12:06:28Z</time>
      </trkpt>
      <trkpt lat="59.748158" lon="17.7610879">
        <ele>19.3638</ele>
        <time>2014-07-08T12:06:29Z</time>
      </trkpt>
      <trkpt lat="59.7482346" lon="17.7611054">
        <ele>19.3638</ele>
        <time>2014-07-08T12:06:30Z</time>
      </trkpt>
      <trkpt lat="59.74831" lon="17.761119">
        <ele>19.8444</ele>
        <time>2014-07-08T12:06:31Z</time>
      </trkpt>
      <trkpt lat="59.7483839" lon="17.7611268">
        <ele>19.8444</ele>
        <time>2014-07-08T12:06:32Z</time>
      </trkpt>
      <trkpt lat="59.7484572" lon="17.7611289">
        <ele>20.325</ele>
        <time>2014-07-08T12:06:33Z</time>
      </trkpt>
      <trkpt lat="59.7485294" lon="17.7611255">
        <ele>20.325</ele>
        <time>2014-07-08T12:06:34Z</time>
      </trkpt>
      <trkpt lat="59.7486004" lon="17.7611159">
        <ele>20.8057</ele>
        <time>2014-07-08T12:06:35Z</time>
      </trkpt>
      <trkpt lat="59.7486701" lon="17.7610993">
        <ele>21.2864</ele>
        <time>2014-07-08T12:06:36Z</time>
      </trkpt>
      <trkpt lat="59.7487384" lon="17.7610769">
        <ele>21.2864</ele>
        <time>2014-07-08T12:06:37Z</time>
      </trkpt>
      <trkpt lat="59.7488053" lon="17.7610499">
        <ele>21.767</ele>
        <time>2014-07-08T12:06:38Z</time>
      </trkpt>
      <trkpt lat="59.7488702" lon="17.7610197">
        <ele>22.2476</ele>
        <time>2014-07-08T12:06:39Z</time>
      </trkpt>
      <trkpt lat="59.7489313" lon="17.7609859">
        <ele>22.2476</ele>
        <time>2014-07-08T12:06:40Z</time>
      </trkpt>
      <trkpt lat="59.7489878" lon="17.7609513">
        <ele>22.7283</ele>
        <time>2014-07-08T12:06:41Z</time>
      </trkpt>
      <trkpt lat="59.7490421" lon="17.7609196">
        <ele>22.7283</ele>
        <time>2014-07-08T12:06:42Z</time>
      </trkpt>
      <trkpt lat="59.7490946" lon="17.7608899">
        <ele>23.209</ele>
        <time>2014-07-08T12:06:43Z</time>
      </trkpt>
      <trkpt lat="59.7491458" lon="17.7608625">
        <ele>23.209</ele>
        <time>2014-07-08T12:06:44Z</time>
      </trkpt>
      <trkpt lat="59.749195" lon="17.7608368">
        <ele>23.209</ele>
        <time>2014-07-08T12:06:45Z</time>
      </trkpt>
      <trkpt lat="59.749242" lon="17.7608118">
        <ele>23.6896</ele>
        <time>2014-07-08T12:06:46Z</time>
      </trkpt>
      <trkpt lat="59.7492872" lon="17.7607881">
        <ele>24.1703</ele>
        <time>2014-07-08T12:06:47Z</time>
      </trkpt>
      <trkpt lat="59.7493311" lon="17.7607669">
        <ele>24.1703</ele>
        <time>2014-07-08T12:06:48Z</time>
      </trkpt>
      <trkpt lat="59.7493732" lon="17.7607475">
        <ele>24.651</ele>
        <time>2014-07-08T12:06:49Z</time>
      </trkpt>
      <trkpt lat="59.7494141" lon="17.760729">
        <ele>25.1317</ele>
        <time>2014-07-08T12:06:50Z</time>
      </trkpt>
      <trkpt lat="59.7494939" lon="17.7606998">
        <ele>25.1317</ele>
        <time>2014-07-08T12:06:51Z</time>
      </trkpt>
      <trkpt lat="59.7495322" lon="17.7606847">
        <ele>25.6123</ele>
        <time>2014-07-08T12:06:52Z</time>
      </trkpt>
      <trkpt lat="59.7495705" lon="17.7606733">
        <ele>25.6123</ele>
        <time>2014-07-08T12:06:53Z</time>
      </trkpt>
      <trkpt lat="59.7496094" lon="17.7606656">
        <ele>25.6123</ele>
        <time>2014-07-08T12:06:54Z</time>
      </trkpt>
      <trkpt lat="59.7496493" lon="17.7606606">
        <ele>26.0929</ele>
        <time>2014-07-08T12:06:55Z</time>
      </trkpt>
      <trkpt lat="59.7496903" lon="17.760657">
        <ele>26.0929</ele>
        <time>2014-07-08T12:06:56Z</time>
      </trkpt>
      <trkpt lat="59.7497322" lon="17.7606553">
        <ele>26.0929</ele>
        <time>2014-07-08T12:06:57Z</time>
      </trkpt>
      <trkpt lat="59.7497742" lon="17.7606578">
        <ele>26.5736</ele>
        <time>2014-07-08T12:06:58Z</time>
      </trkpt>
      <trkpt lat="59.7498173" lon="17.760665">
        <ele>26.5736</ele>
        <time>2014-07-08T12:06:59Z</time>
      </trkpt>
      <trkpt lat="59.7498617" lon="17.7606787">
        <ele>27.0543</ele>
        <time>2014-07-08T12:07:00Z</time>
      </trkpt>
      <trkpt lat="59.7499061" lon="17.7606985">
        <ele>27.0543</ele>
        <time>2014-07-08T12:07:01Z</time>
      </trkpt>
      <trkpt lat="59.7499503" lon="17.7607248">
        <ele>27.5349</ele>
        <time>2014-07-08T12:07:02Z</time>
      </trkpt>
      <trkpt lat="59.7499941" lon="17.7607579">
        <ele>27.5349</ele>
        <time>2014-07-08T12:07:03Z</time>
      </trkpt>
      <trkpt lat="59.7500379" lon="17.7607958">
        <ele>28.0155</ele>
        <time>2014-07-08T12:07:04Z</time>
      </trkpt>
      <trkpt lat="59.7500819" lon="17.7608393">
        <ele>28.0155</ele>
        <time>2014-07-08T12:07:05Z</time>
      </trkpt>
      <trkpt lat="59.7501259" lon="17.7608869">
        <ele>28.4962</ele>
        <time>2014-07-08T12:07:06Z</time>
      </trkpt>
      <trkpt lat="59.7501689" lon="17.760938">
        <ele>28.4962</ele>
        <time>2014-07-08T12:07:07Z</time>
      </trkpt>
      <trkpt lat="59.7502114" lon="17.7609927">
        <ele>28.9769</ele>
        <time>2014-07-08T12:07:08Z</time>
      </trkpt>
      <trkpt lat="59.7502538" lon="17.7610496">
        <ele>28.9769</ele>
        <time>2014-07-08T12:07:09Z</time>
      </trkpt>
      <trkpt lat="59.7502958" lon="17.761108">
        <ele>29.4575</ele>
        <time>2014-07-08T12:07:10Z</time>
      </trkpt>
      <trkpt lat="59.7503384" lon="17.7611668">
        <ele>29.4575</ele>
        <time>2014-07-08T12:07:11Z</time>
      </trkpt>
      <trkpt lat="59.7503827" lon="17.7612247">
        <ele>29.4575</ele>
        <time>2014-07-08T12:07:12Z</time>
      </trkpt>
      <trkpt lat="59.7504289" lon="17.7612817">
        <ele>29.4575</ele>
        <time>2014-07-08T12:07:13Z</time>
      </trkpt>
      <trkpt lat="59.7504753" lon="17.7613397">
        <ele>29.9381</ele>
        <time>2014-07-08T12:07:14Z</time>
      </trkpt>
      <trkpt lat="59.7505226" lon="17.7613987">
        <ele>29.9381</ele>
        <time>2014-07-08T12:07:15Z</time>
      </trkpt>
      <trkpt lat="59.7505704" lon="17.7614578">
        <ele>29.9381</ele>
        <time>2014-07-08T12:07:16Z</time>
      </trkpt>
      <trkpt lat="59.7506185" lon="17.761521">
        <ele>29.9381</ele>
        <time>2014-07-08T12:07:17Z</time>
      </trkpt>
      <trkpt lat="59.7506671" lon="17.7615863">
        <ele>29.9381</ele>
        <time>2014-07-08T12:07:18Z</time>
      </trkpt>
      <trkpt lat="59.7507164" lon="17.7616508">
        <ele>29.9381</ele>
        <time>2014-07-08T12:07:19Z</time>
      </trkpt>
      <trkpt lat="59.7507657" lon="17.761715">
        <ele>29.9381</ele>
        <time>2014-07-08T12:07:20Z</time>
      </trkpt>
      <trkpt lat="59.7508157" lon="17.761781">
        <ele>29.9381</ele>
        <time>2014-07-08T12:07:21Z</time>
      </trkpt>
      <trkpt lat="59.7508677" lon="17.7618489">
        <ele>29.9381</ele>
        <time>2014-07-08T12:07:22Z</time>
      </trkpt>
      <trkpt lat="59.7509217" lon="17.7619166">
        <ele>29.9381</ele>
        <time>2014-07-08T12:07:23Z</time>
      </trkpt>
      <trkpt lat="59.7509779" lon="17.7619793">
        <ele>29.9381</ele>
        <time>2014-07-08T12:07:24Z</time>
      </trkpt>
      <trkpt lat="59.7510355" lon="17.7620363">
        <ele>29.4575</ele>
        <time>2014-07-08T12:07:25Z</time>
      </trkpt>
      <trkpt lat="59.7510933" lon="17.7620913">
        <ele>29.4575</ele>
        <time>2014-07-08T12:07:26Z</time>
      </trkpt>
      <trkpt lat="59.7511506" lon="17.7621466">
        <ele>28.9769</ele>
        <time>2014-07-08T12:07:27Z</time>
      </trkpt>
      <trkpt lat="59.7512105" lon="17.7621976">
        <ele>28.9769</ele>
        <time>2014-07-08T12:07:28Z</time>
      </trkpt>
      <trkpt lat="59.7512723" lon="17.7622448">
        <ele>28.4962</ele>
        <time>2014-07-08T12:07:29Z</time>
      </trkpt>
      <trkpt lat="59.7513337" lon="17.7622927">
        <ele>28.4962</ele>
        <time>2014-07-08T12:07:30Z</time>
      </trkpt>
      <trkpt lat="59.7513956" lon="17.7623382">
        <ele>28.0155</ele>
        <time>2014-07-08T12:07:31Z</time>
      </trkpt>
      <trkpt lat="59.7514598" lon="17.7623817">
        <ele>28.0155</ele>
        <time>2014-07-08T12:07:32Z</time>
      </trkpt>
      <trkpt lat="59.751524" lon="17.7624244">
        <ele>28.0155</ele>
        <time>2014-07-08T12:07:33Z</time>
      </trkpt>
      <trkpt lat="59.751588" lon="17.7624632">
        <ele>28.0155</ele>
        <time>2014-07-08T12:07:34Z</time>
      </trkpt>
      <trkpt lat="59.7516512" lon="17.7624927">
        <ele>28.0155</ele>
        <time>2014-07-08T12:07:35Z</time>
      </trkpt>
      <trkpt lat="59.7517144" lon="17.7625161">
        <ele>28.0155</ele>
        <time>2014-07-08T12:07:36Z</time>
      </trkpt>
      <trkpt lat="59.7517771" lon="17.7625351">
        <ele>28.0155</ele>
        <time>2014-07-08T12:07:37Z</time>
      </trkpt>
      <trkpt lat="59.7518389" lon="17.7625439">
        <ele>28.4962</ele>
        <time>2014-07-08T12:07:38Z</time>
      </trkpt>
      <trkpt lat="59.7518999" lon="17.762538">
        <ele>28.4962</ele>
        <time>2014-07-08T12:07:39Z</time>
      </trkpt>
      <trkpt lat="59.751959" lon="17.7625211">
        <ele>28.4962</ele>
        <time>2014-07-08T12:07:40Z</time>
      </trkpt>
      <trkpt lat="59.7520156" lon="17.7624993">
        <ele>28.4962</ele>
        <time>2014-07-08T12:07:41Z</time>
      </trkpt>
      <trkpt lat="59.75207" lon="17.7624748">
        <ele>28.9769</ele>
        <time>2014-07-08T12:07:42Z</time>
      </trkpt>
      <trkpt lat="59.7521236" lon="17.7624485">
        <ele>28.9769</ele>
        <time>2014-07-08T12:07:43Z</time>
      </trkpt>
      <trkpt lat="59.7521761" lon="17.7624222">
        <ele>28.9769</ele>
        <time>2014-07-08T12:07:44Z</time>
      </trkpt>
      <trkpt lat="59.7522275" lon="17.7623944">
        <ele>28.9769</ele>
        <time>2014-07-08T12:07:45Z</time>
      </trkpt>
      <trkpt lat="59.7522788" lon="17.7623652">
        <ele>28.9769</ele>
        <time>2014-07-08T12:07:46Z</time>
      </trkpt>
      <trkpt lat="59.7523325" lon="17.762337">
        <ele>29.4575</ele>
        <time>2014-07-08T12:07:47Z</time>
      </trkpt>
      <trkpt lat="59.752389" lon="17.7623087">
        <ele>29.4575</ele>
        <time>2014-07-08T12:07:48Z</time>
      </trkpt>
      <trkpt lat="59.7524486" lon="17.7622793">
        <ele>28.9769</ele>
        <time>2014-07-08T12:07:49Z</time>
      </trkpt>
      <trkpt lat="59.7525128" lon="17.7622515">
        <ele>28.4962</ele>
        <time>2014-07-08T12:07:50Z</time>
      </trkpt>
      <trkpt lat="59.7525823" lon="17.7622277">
        <ele>28.0155</ele>
        <time>2014-07-08T12:07:51Z</time>
      </trkpt>
      <trkpt lat="59.7526554" lon="17.7622064">
        <ele>27.5349</ele>
        <time>2014-07-08T12:07:52Z</time>
      </trkpt>
      <trkpt lat="59.752731" lon="17.7621873">
        <ele>27.0543</ele>
        <time>2014-07-08T12:07:53Z</time>
      </trkpt>
      <trkpt lat="59.7528091" lon="17.7621712">
        <ele>27.0543</ele>
        <time>2014-07-08T12:07:54Z</time>
      </trkpt>
      <trkpt lat="59.7528921" lon="17.7621447">
        <ele>26.5736</ele>
        <time>2014-07-08T12:07:55Z</time>
      </trkpt>
      <trkpt lat="59.7529774" lon="17.762125">
        <ele>26.0929</ele>
        <time>2014-07-08T12:07:56Z</time>
      </trkpt>
      <trkpt lat="59.7530635" lon="17.7621027">
        <ele>25.6123</ele>
        <time>2014-07-08T12:07:57Z</time>
      </trkpt>
      <trkpt lat="59.7531488" lon="17.7620902">
        <ele>25.1317</ele>
        <time>2014-07-08T12:07:58Z</time>
      </trkpt>
      <trkpt lat="59.753228" lon="17.7620761">
        <ele>24.651</ele>
        <time>2014-07-08T12:07:59Z</time>
      </trkpt>
      <trkpt lat="59.7533101" lon="17.7620695">
        <ele>24.651</ele>
        <time>2014-07-08T12:08:00Z</time>
      </trkpt>
      <trkpt lat="59.753393" lon="17.7620582">
        <ele>24.1703</ele>
        <time>2014-07-08T12:08:01Z</time>
      </trkpt>
      <trkpt lat="59.7534762" lon="17.7620452">
        <ele>23.6896</ele>
        <time>2014-07-08T12:08:02Z</time>
      </trkpt>
      <trkpt lat="59.7535588" lon="17.7620303">
        <ele>23.209</ele>
        <time>2014-07-08T12:08:03Z</time>
      </trkpt>
      <trkpt lat="59.7536421" lon="17.7620162">
        <ele>22.7283</ele>
        <time>2014-07-08T12:08:04Z</time>
      </trkpt>
      <trkpt lat="59.7537269" lon="17.7620029">
        <ele>22.7283</ele>
        <time>2014-07-08T12:08:05Z</time>
      </trkpt>
      <trkpt lat="59.7538122" lon="17.7619898">
        <ele>22.7283</ele>
        <time>2014-07-08T12:08:06Z</time>
      </trkpt>
      <trkpt lat="59.753897" lon="17.7619748">
        <ele>22.2476</ele>
        <time>2014-07-08T12:08:07Z</time>
      </trkpt>
      <trkpt lat="59.7539829" lon="17.7619625">
        <ele>22.7283</ele>
        <time>2014-07-08T12:08:08Z</time>
      </trkpt>
      <trkpt lat="59.7540663" lon="17.7619525">
        <ele>22.7283</ele>
        <time>2014-07-08T12:08:09Z</time>
      </trkpt>
      <trkpt lat="59.754148" lon="17.7619477">
        <ele>22.7283</ele>
        <time>2014-07-08T12:08:10Z</time>
      </trkpt>
      <trkpt lat="59.7542276" lon="17.7619489">
        <ele>22.7283</ele>
        <time>2014-07-08T12:08:11Z</time>
      </trkpt>
      <trkpt lat="59.7543057" lon="17.7619544">
        <ele>22.7283</ele>
        <time>2014-07-08T12:08:12Z</time>
      </trkpt>
      <trkpt lat="59.7543819" lon="17.761963">
        <ele>22.7283</ele>
        <time>2014-07-08T12:08:13Z</time>
      </trkpt>
      <trkpt lat="59.7544568" lon="17.7619748">
        <ele>22.7283</ele>
        <time>2014-07-08T12:08:14Z</time>
      </trkpt>
      <trkpt lat="59.7545315" lon="17.7619862">
        <ele>22.7283</ele>
        <time>2014-07-08T12:08:15Z</time>
      </trkpt>
      <trkpt lat="59.754606" lon="17.7619943">
        <ele>22.7283</ele>
        <time>2014-07-08T12:08:16Z</time>
      </trkpt>
      <trkpt lat="59.7546801" lon="17.7619995">
        <ele>22.7283</ele>
        <time>2014-07-08T12:08:17Z</time>
      </trkpt>
      <trkpt lat="59.7547541" lon="17.7620027">
        <ele>22.7283</ele>
        <time>2014-07-08T12:08:18Z</time>
      </trkpt>
      <trkpt lat="59.754828" lon="17.7620041">
        <ele>23.209</ele>
        <time>2014-07-08T12:08:19Z</time>
      </trkpt>
      <trkpt lat="59.7549018" lon="17.7620047">
        <ele>23.209</ele>
        <time>2014-07-08T12:08:20Z</time>
      </trkpt>
      <trkpt lat="59.754975" lon="17.7620034">
        <ele>23.209</ele>
        <time>2014-07-08T12:08:21Z</time>
      </trkpt>
      <trkpt lat="59.7550478" lon="17.7619995">
        <ele>23.209</ele>
        <time>2014-07-08T12:08:22Z</time>
      </trkpt>
      <trkpt lat="59.7551205" lon="17.7619929">
        <ele>22.7283</ele>
        <time>2014-07-08T12:08:23Z</time>
      </trkpt>
      <trkpt lat="59.7551931" lon="17.7619866">
        <ele>22.7283</ele>
        <time>2014-07-08T12:08:24Z</time>
      </trkpt>
      <trkpt lat="59.7552656" lon="17.7619814">
        <ele>22.7283</ele>
        <time>2014-07-08T12:08:25Z</time>
      </trkpt>
      <trkpt lat="59.7553379" lon="17.7619758">
        <ele>22.7283</ele>
        <time>2014-07-08T12:08:26Z</time>
      </trkpt>
      <trkpt lat="59.7554095" lon="17.761971">
        <ele>23.209</ele>
        <time>2014-07-08T12:08:27Z</time>
      </trkpt>
      <trkpt lat="59.7554805" lon="17.7619658">
        <ele>23.209</ele>
        <time>2014-07-08T12:08:28Z</time>
      </trkpt>
      <trkpt lat="59.7555513" lon="17.7619591">
        <ele>23.209</ele>
        <time>2014-07-08T12:08:29Z</time>
      </trkpt>
      <trkpt lat="59.7556226" lon="17.7619539">
        <ele>23.209</ele>
        <time>2014-07-08T12:08:30Z</time>
      </trkpt>
      <trkpt lat="59.7556949" lon="17.7619505">
        <ele>23.209</ele>
        <time>2014-07-08T12:08:31Z</time>
      </trkpt>
      <trkpt lat="59.7557676" lon="17.7619467">
        <ele>23.209</ele>
        <time>2014-07-08T12:08:32Z</time>
      </trkpt>
      <trkpt lat="59.7558404" lon="17.7619421">
        <ele>23.209</ele>
        <time>2014-07-08T12:08:33Z</time>
      </trkpt>
      <trkpt lat="59.755913" lon="17.7619384">
        <ele>23.209</ele>
        <time>2014-07-08T12:08:34Z</time>
      </trkpt>
      <trkpt lat="59.7559859" lon="17.7619375">
        <ele>23.6896</ele>
        <time>2014-07-08T12:08:35Z</time>
      </trkpt>
      <trkpt lat="59.7560587" lon="17.761937">
        <ele>23.6896</ele>
        <time>2014-07-08T12:08:36Z</time>
      </trkpt>
      <trkpt lat="59.7561311" lon="17.7619371">
        <ele>23.6896</ele>
        <time>2014-07-08T12:08:37Z</time>
      </trkpt>
      <trkpt lat="59.7562022" lon="17.7619358">
        <ele>24.1703</ele>
        <time>2014-07-08T12:08:38Z</time>
      </trkpt>
      <trkpt lat="59.7562734" lon="17.761935">
        <ele>24.1703</ele>
        <time>2014-07-08T12:08:39Z</time>
      </trkpt>
      <trkpt lat="59.7563446" lon="17.7619369">
        <ele>24.1703</ele>
        <time>2014-07-08T12:08:40Z</time>
      </trkpt>
      <trkpt lat="59.7564166" lon="17.7619393">
        <ele>24.1703</ele>
        <time>2014-07-08T12:08:41Z</time>
      </trkpt>
      <trkpt lat="59.7564901" lon="17.7619445">
        <ele>24.1703</ele>
        <time>2014-07-08T12:08:42Z</time>
      </trkpt>
      <trkpt lat="59.7565643" lon="17.7619516">
        <ele>24.1703</ele>
        <time>2014-07-08T12:08:43Z</time>
      </trkpt>
      <trkpt lat="59.7566399" lon="17.7619614">
        <ele>24.1703</ele>
        <time>2014-07-08T12:08:44Z</time>
      </trkpt>
      <trkpt lat="59.7567155" lon="17.7619738">
        <ele>24.1703</ele>
        <time>2014-07-08T12:08:45Z</time>
      </trkpt>
      <trkpt lat="59.7567902" lon="17.7619881">
        <ele>24.1703</ele>
        <time>2014-07-08T12:08:46Z</time>
      </trkpt>
      <trkpt lat="59.7568657" lon="17.7620017">
        <ele>24.1703</ele>
        <time>2014-07-08T12:08:47Z</time>
      </trkpt>
      <trkpt lat="59.7569398" lon="17.7620064">
        <ele>24.1703</ele>
        <time>2014-07-08T12:08:48Z</time>
      </trkpt>
      <trkpt lat="59.7570123" lon="17.7620064">
        <ele>24.1703</ele>
        <time>2014-07-08T12:08:49Z</time>
      </trkpt>
      <trkpt lat="59.7570832" lon="17.7619961">
        <ele>24.651</ele>
        <time>2014-07-08T12:08:50Z</time>
      </trkpt>
      <trkpt lat="59.7571518" lon="17.7619738">
        <ele>24.651</ele>
        <time>2014-07-08T12:08:51Z</time>
      </trkpt>
      <trkpt lat="59.757218" lon="17.7619433">
        <ele>24.651</ele>
        <time>2014-07-08T12:08:52Z</time>
      </trkpt>
      <trkpt lat="59.7572822" lon="17.7619068">
        <ele>24.651</ele>
        <time>2014-07-08T12:08:53Z</time>
      </trkpt>
      <trkpt lat="59.7573444" lon="17.761862">
        <ele>24.651</ele>
        <time>2014-07-08T12:08:54Z</time>
      </trkpt>
      <trkpt lat="59.7574035" lon="17.7618059">
        <ele>25.1317</ele>
        <time>2014-07-08T12:08:55Z</time>
      </trkpt>
      <trkpt lat="59.7574602" lon="17.7617417">
        <ele>25.1317</ele>
        <time>2014-07-08T12:08:56Z</time>
      </trkpt>
      <trkpt lat="59.7575153" lon="17.7616748">
        <ele>25.1317</ele>
        <time>2014-07-08T12:08:57Z</time>
      </trkpt>
      <trkpt lat="59.7575684" lon="17.7616029">
        <ele>25.6123</ele>
        <time>2014-07-08T12:08:58Z</time>
      </trkpt>
      <trkpt lat="59.757619" lon="17.7615255">
        <ele>25.6123</ele>
        <time>2014-07-08T12:08:59Z</time>
      </trkpt>
      <trkpt lat="59.7576682" lon="17.7614434">
        <ele>25.6123</ele>
        <time>2014-07-08T12:09:00Z</time>
      </trkpt>
      <trkpt lat="59.7577157" lon="17.7613573">
        <ele>25.6123</ele>
        <time>2014-07-08T12:09:01Z</time>
      </trkpt>
      <trkpt lat="59.7577613" lon="17.7612686">
        <ele>26.0929</ele>
        <time>2014-07-08T12:09:02Z</time>
      </trkpt>
      <trkpt lat="59.7578069" lon="17.7611802">
        <ele>26.0929</ele>
        <time>2014-07-08T12:09:03Z</time>
      </trkpt>
      <trkpt lat="59.7578515" lon="17.7610924">
        <ele>26.0929</ele>
        <time>2014-07-08T12:09:04Z</time>
      </trkpt>
      <trkpt lat="59.757895" lon="17.761006">
        <ele>26.0929</ele>
        <time>2014-07-08T12:09:05Z</time>
      </trkpt>
      <trkpt lat="59.7579376" lon="17.7609189">
        <ele>26.0929</ele>
        <time>2014-07-08T12:09:06Z</time>
      </trkpt>
      <trkpt lat="59.7579808" lon="17.7608355">
        <ele>25.6123</ele>
        <time>2014-07-08T12:09:07Z</time>
      </trkpt>
      <trkpt lat="59.758026" lon="17.7607637">
        <ele>25.6123</ele>
        <time>2014-07-08T12:09:08Z</time>
      </trkpt>
      <trkpt lat="59.7580731" lon="17.7607036">
        <ele>25.6123</ele>
        <time>2014-07-08T12:09:09Z</time>
      </trkpt>
      <trkpt lat="59.7581203" lon="17.7606539">
        <ele>25.6123</ele>
        <time>2014-07-08T12:09:10Z</time>
      </trkpt>
      <trkpt lat="59.758167" lon="17.7606145">
        <ele>25.6123</ele>
        <time>2014-07-08T12:09:11Z</time>
      </trkpt>
      <trkpt lat="59.7582162" lon="17.7605843">
        <ele>25.6123</ele>
        <time>2014-07-08T12:09:12Z</time>
      </trkpt>
      <trkpt lat="59.7582678" lon="17.7605605">
        <ele>25.6123</ele>
        <time>2014-07-08T12:09:13Z</time>
      </trkpt>
      <trkpt lat="59.7583178" lon="17.7605435">
        <ele>25.6123</ele>
        <time>2014-07-08T12:09:14Z</time>
      </trkpt>
      <trkpt lat="59.7583679" lon="17.7605356">
        <ele>25.6123</ele>
        <time>2014-07-08T12:09:15Z</time>
      </trkpt>
      <trkpt lat="59.7584182" lon="17.7605361">
        <ele>25.6123</ele>
        <time>2014-07-08T12:09:16Z</time>
      </trkpt>
      <trkpt lat="59.7584667" lon="17.7605439">
        <ele>26.0929</ele>
        <time>2014-07-08T12:09:17Z</time>
      </trkpt>
      <trkpt lat="59.7585144" lon="17.7605578">
        <ele>26.0929</ele>
        <time>2014-07-08T12:09:18Z</time>
      </trkpt>
      <trkpt lat="59.7585601" lon="17.7605803">
        <ele>26.5736</ele>
        <time>2014-07-08T12:09:19Z</time>
      </trkpt>
      <trkpt lat="59.7586036" lon="17.7606096">
        <ele>27.0543</ele>
        <time>2014-07-08T12:09:20Z</time>
      </trkpt>
      <trkpt lat="59.7586444" lon="17.760645">
        <ele>27.0543</ele>
        <time>2014-07-08T12:09:21Z</time>
      </trkpt>
      <trkpt lat="59.7586846" lon="17.760686">
        <ele>28.0155</ele>
        <time>2014-07-08T12:09:22Z</time>
      </trkpt>
      <trkpt lat="59.7587211" lon="17.7607322">
        <ele>28.4962</ele>
        <time>2014-07-08T12:09:23Z</time>
      </trkpt>
      <trkpt lat="59.7587544" lon="17.7607827">
        <ele>28.9769</ele>
        <time>2014-07-08T12:09:24Z</time>
      </trkpt>
      <trkpt lat="59.7587839" lon="17.7608358">
        <ele>29.4575</ele>
        <time>2014-07-08T12:09:25Z</time>
      </trkpt>
      <trkpt lat="59.7588129" lon="17.7608952">
        <ele>29.4575</ele>
        <time>2014-07-08T12:09:26Z</time>
      </trkpt>
      <trkpt lat="59.7588409" lon="17.7609582">
        <ele>29.9381</ele>
        <time>2014-07-08T12:09:27Z</time>
      </trkpt>
      <trkpt lat="59.7588656" lon="17.7610228">
        <ele>30.4188</ele>
        <time>2014-07-08T12:09:28Z</time>
      </trkpt>
      <trkpt lat="59.7588904" lon="17.7610911">
        <ele>30.8995</ele>
        <time>2014-07-08T12:09:29Z</time>
      </trkpt>
      <trkpt lat="59.7589129" lon="17.7611623">
        <ele>30.8995</ele>
        <time>2014-07-08T12:09:30Z</time>
      </trkpt>
      <trkpt lat="59.7589305" lon="17.7612372">
        <ele>31.3801</ele>
        <time>2014-07-08T12:09:31Z</time>
      </trkpt>
      <trkpt lat="59.7589464" lon="17.7613184">
        <ele>31.3801</ele>
        <time>2014-07-08T12:09:32Z</time>
      </trkpt>
      <trkpt lat="59.7589611" lon="17.7614023">
        <ele>31.8607</ele>
        <time>2014-07-08T12:09:33Z</time>
      </trkpt>
      <trkpt lat="59.7589723" lon="17.7614894">
        <ele>31.8607</ele>
        <time>2014-07-08T12:09:34Z</time>
      </trkpt>
      <trkpt lat="59.7589803" lon="17.7615767">
        <ele>31.8607</ele>
        <time>2014-07-08T12:09:35Z</time>
      </trkpt>
      <trkpt lat="59.7589875" lon="17.7616588">
        <ele>32.3416</ele>
        <time>2014-07-08T12:09:36Z</time>
      </trkpt>
      <trkpt lat="59.7589937" lon="17.7617384">
        <ele>32.3416</ele>
        <time>2014-07-08T12:09:37Z</time>
      </trkpt>
      <trkpt lat="59.7589999" lon="17.7618187">
        <ele>32.3416</ele>
        <time>2014-07-08T12:09:38Z</time>
      </trkpt>
      <trkpt lat="59.7590073" lon="17.7619002">
        <ele>32.3416</ele>
        <time>2014-07-08T12:09:39Z</time>
      </trkpt>
      <trkpt lat="59.7590158" lon="17.7619829">
        <ele>32.8223</ele>
        <time>2014-07-08T12:09:40Z</time>
      </trkpt>
      <trkpt lat="59.7590242" lon="17.7620684">
        <ele>32.8223</ele>
        <time>2014-07-08T12:09:41Z</time>
      </trkpt>
      <trkpt lat="59.759033" lon="17.7621571">
        <ele>32.8223</ele>
        <time>2014-07-08T12:09:42Z</time>
      </trkpt>
      <trkpt lat="59.7590433" lon="17.7622478">
        <ele>32.8223</ele>
        <time>2014-07-08T12:09:43Z</time>
      </trkpt>
      <trkpt lat="59.7590562" lon="17.7623414">
        <ele>33.3029</ele>
        <time>2014-07-08T12:09:44Z</time>
      </trkpt>
      <trkpt lat="59.7590704" lon="17.7624354">
        <ele>33.3029</ele>
        <time>2014-07-08T12:09:45Z</time>
      </trkpt>
      <trkpt lat="59.7590852" lon="17.7625307">
        <ele>33.3029</ele>
        <time>2014-07-08T12:09:46Z</time>
      </trkpt>
      <trkpt lat="59.7591029" lon="17.7626236">
        <ele>32.8223</ele>
        <time>2014-07-08T12:09:47Z</time>
      </trkpt>
      <trkpt lat="59.7591271" lon="17.7627174">
        <ele>32.8223</ele>
        <time>2014-07-08T12:09:48Z</time>
      </trkpt>
      <trkpt lat="59.7591574" lon="17.7628128">
        <ele>32.3416</ele>
        <time>2014-07-08T12:09:49Z</time>
      </trkpt>
      <trkpt lat="59.7591932" lon="17.7629082">
        <ele>32.3416</ele>
        <time>2014-07-08T12:09:50Z</time>
      </trkpt>
      <trkpt lat="59.7592349" lon="17.7630039">
        <ele>32.3416</ele>
        <time>2014-07-08T12:09:51Z</time>
      </trkpt>
      <trkpt lat="59.7592831" lon="17.7630973">
        <ele>31.8607</ele>
        <time>2014-07-08T12:09:52Z</time>
      </trkpt>
      <trkpt lat="59.7593378" lon="17.7631854">
        <ele>31.3801</ele>
        <time>2014-07-08T12:09:53Z</time>
      </trkpt>
      <trkpt lat="59.7593999" lon="17.7632657">
        <ele>30.8995</ele>
        <time>2014-07-08T12:09:54Z</time>
      </trkpt>
      <trkpt lat="59.7594687" lon="17.7633382">
        <ele>30.4188</ele>
        <time>2014-07-08T12:09:55Z</time>
      </trkpt>
      <trkpt lat="59.7595437" lon="17.7633991">
        <ele>29.9381</ele>
        <time>2014-07-08T12:09:56Z</time>
      </trkpt>
      <trkpt lat="59.7596239" lon="17.7634437">
        <ele>29.4575</ele>
        <time>2014-07-08T12:09:57Z</time>
      </trkpt>
      <trkpt lat="59.7597091" lon="17.7634688">
        <ele>28.9769</ele>
        <time>2014-07-08T12:09:58Z</time>
      </trkpt>
      <trkpt lat="59.7597982" lon="17.7634737">
        <ele>28.4962</ele>
        <time>2014-07-08T12:09:59Z</time>
      </trkpt>
      <trkpt lat="59.7598893" lon="17.7634547">
        <ele>28.0155</ele>
        <time>2014-07-08T12:10:00Z</time>
      </trkpt>
      <trkpt lat="59.7599805" lon="17.7634066">
        <ele>27.5349</ele>
        <time>2014-07-08T12:10:01Z</time>
      </trkpt>
      <trkpt lat="59.7600772" lon="17.7632988">
        <ele>26.5736</ele>
        <time>2014-07-08T12:10:02Z</time>
      </trkpt>
      <trkpt lat="59.7601718" lon="17.7632128">
        <ele>26.5736</ele>
        <time>2014-07-08T12:10:03Z</time>
      </trkpt>
      <trkpt lat="59.7602658" lon="17.7631346">
        <ele>26.0929</ele>
        <time>2014-07-08T12:10:04Z</time>
      </trkpt>
      <trkpt lat="59.7603584" lon="17.7630603">
        <ele>26.0929</ele>
        <time>2014-07-08T12:10:05Z</time>
      </trkpt>
      <trkpt lat="59.7604494" lon="17.7629859">
        <ele>25.6123</ele>
        <time>2014-07-08T12:10:06Z</time>
      </trkpt>
      <trkpt lat="59.7605378" lon="17.7629112">
        <ele>25.1317</ele>
        <time>2014-07-08T12:10:07Z</time>
      </trkpt>
      <trkpt lat="59.760627" lon="17.762843">
        <ele>25.1317</ele>
        <time>2014-07-08T12:10:08Z</time>
      </trkpt>
      <trkpt lat="59.760715" lon="17.7627804">
        <ele>25.6123</ele>
        <time>2014-07-08T12:10:09Z</time>
      </trkpt>
      <trkpt lat="59.760801" lon="17.7627267">
        <ele>25.6123</ele>
        <time>2014-07-08T12:10:10Z</time>
      </trkpt>
      <trkpt lat="59.760886" lon="17.762683">
        <ele>25.6123</ele>
        <time>2014-07-08T12:10:11Z</time>
      </trkpt>
      <trkpt lat="59.7609694" lon="17.7626472">
        <ele>25.6123</ele>
        <time>2014-07-08T12:10:12Z</time>
      </trkpt>
      <trkpt lat="59.7610523" lon="17.7626219">
        <ele>25.6123</ele>
        <time>2014-07-08T12:10:13Z</time>
      </trkpt>
      <trkpt lat="59.7611339" lon="17.7626104">
        <ele>26.0929</ele>
        <time>2014-07-08T12:10:14Z</time>
      </trkpt>
      <trkpt lat="59.7612152" lon="17.7626135">
        <ele>26.0929</ele>
        <time>2014-07-08T12:10:15Z</time>
      </trkpt>
      <trkpt lat="59.7612964" lon="17.7626268">
        <ele>26.0929</ele>
        <time>2014-07-08T12:10:16Z</time>
      </trkpt>
      <trkpt lat="59.761378" lon="17.7626449">
        <ele>26.0929</ele>
        <time>2014-07-08T12:10:17Z</time>
      </trkpt>
      <trkpt lat="59.7614589" lon="17.762664">
        <ele>26.0929</ele>
        <time>2014-07-08T12:10:18Z</time>
      </trkpt>
      <trkpt lat="59.7615393" lon="17.7626825">
        <ele>26.5736</ele>
        <time>2014-07-08T12:10:19Z</time>
      </trkpt>
      <trkpt lat="59.7616193" lon="17.7627036">
        <ele>26.5736</ele>
        <time>2014-07-08T12:10:20Z</time>
      </trkpt>
      <trkpt lat="59.7616978" lon="17.7627295">
        <ele>26.5736</ele>
        <time>2014-07-08T12:10:21Z</time>
      </trkpt>
      <trkpt lat="59.7617753" lon="17.7627594">
        <ele>26.5736</ele>
        <time>2014-07-08T12:10:22Z</time>
      </trkpt>
      <trkpt lat="59.7618509" lon="17.7627937">
        <ele>26.5736</ele>
        <time>2014-07-08T12:10:23Z</time>
      </trkpt>
      <trkpt lat="59.7619244" lon="17.762831">
        <ele>26.5736</ele>
        <time>2014-07-08T12:10:24Z</time>
      </trkpt>
      <trkpt lat="59.7619955" lon="17.7628702">
        <ele>27.0543</ele>
        <time>2014-07-08T12:10:25Z</time>
      </trkpt>
      <trkpt lat="59.762065" lon="17.7629113">
        <ele>27.0543</ele>
        <time>2014-07-08T12:10:26Z</time>
      </trkpt>
      <trkpt lat="59.7621332" lon="17.7629512">
        <ele>27.0543</ele>
        <time>2014-07-08T12:10:27Z</time>
      </trkpt>
      <trkpt lat="59.7622012" lon="17.7629884">
        <ele>27.0543</ele>
        <time>2014-07-08T12:10:28Z</time>
      </trkpt>
      <trkpt lat="59.7622686" lon="17.7630244">
        <ele>27.5349</ele>
        <time>2014-07-08T12:10:29Z</time>
      </trkpt>
      <trkpt lat="59.7623347" lon="17.7630629">
        <ele>27.5349</ele>
        <time>2014-07-08T12:10:30Z</time>
      </trkpt>
      <trkpt lat="59.7623991" lon="17.7630999">
        <ele>28.0155</ele>
        <time>2014-07-08T12:10:31Z</time>
      </trkpt>
      <trkpt lat="59.7624618" lon="17.7631351">
        <ele>28.0155</ele>
        <time>2014-07-08T12:10:32Z</time>
      </trkpt>
      <trkpt lat="59.7625233" lon="17.763171">
        <ele>28.4962</ele>
        <time>2014-07-08T12:10:33Z</time>
      </trkpt>
      <trkpt lat="59.762583" lon="17.7632082">
        <ele>28.4962</ele>
        <time>2014-07-08T12:10:34Z</time>
      </trkpt>
      <trkpt lat="59.7626404" lon="17.7632481">
        <ele>28.9769</ele>
        <time>2014-07-08T12:10:35Z</time>
      </trkpt>
      <trkpt lat="59.7626958" lon="17.7632886">
        <ele>29.4575</ele>
        <time>2014-07-08T12:10:36Z</time>
      </trkpt>
      <trkpt lat="59.7627493" lon="17.7633268">
        <ele>29.4575</ele>
        <time>2014-07-08T12:10:37Z</time>
      </trkpt>
      <trkpt lat="59.7628016" lon="17.7633633">
        <ele>29.9381</ele>
        <time>2014-07-08T12:10:38Z</time>
      </trkpt>
      <trkpt lat="59.7628518" lon="17.7634019">
        <ele>30.4188</ele>
        <time>2014-07-08T12:10:39Z</time>
      </trkpt>
      <trkpt lat="59.7628993" lon="17.7634455">
        <ele>30.4188</ele>
        <time>2014-07-08T12:10:40Z</time>
      </trkpt>
      <trkpt lat="59.7629455" lon="17.7634877">
        <ele>30.8995</ele>
        <time>2014-07-08T12:10:41Z</time>
      </trkpt>
      <trkpt lat="59.7629912" lon="17.7635246">
        <ele>31.3801</ele>
        <time>2014-07-08T12:10:42Z</time>
      </trkpt>
      <trkpt lat="59.7630351" lon="17.763563">
        <ele>31.3801</ele>
        <time>2014-07-08T12:10:43Z</time>
      </trkpt>
      <trkpt lat="59.7630767" lon="17.7636081">
        <ele>31.8607</ele>
        <time>2014-07-08T12:10:44Z</time>
      </trkpt>
      <trkpt lat="59.7631176" lon="17.7636555">
        <ele>32.3416</ele>
        <time>2014-07-08T12:10:45Z</time>
      </trkpt>
      <trkpt lat="59.7631593" lon="17.7637001">
        <ele>32.3416</ele>
        <time>2014-07-08T12:10:46Z</time>
      </trkpt>
      <trkpt lat="59.7632018" lon="17.7637427">
        <ele>32.3416</ele>
        <time>2014-07-08T12:10:47Z</time>
      </trkpt>
      <trkpt lat="59.763245" lon="17.7637852">
        <ele>32.8223</ele>
        <time>2014-07-08T12:10:48Z</time>
      </trkpt>
      <trkpt lat="59.7632888" lon="17.7638281">
        <ele>32.8223</ele>
        <time>2014-07-08T12:10:49Z</time>
      </trkpt>
      <trkpt lat="59.7633325" lon="17.7638743">
        <ele>32.8223</ele>
        <time>2014-07-08T12:10:50Z</time>
      </trkpt>
      <trkpt lat="59.7633762" lon="17.7639256">
        <ele>32.8223</ele>
        <time>2014-07-08T12:10:51Z</time>
      </trkpt>
      <trkpt lat="59.7634211" lon="17.7639784">
        <ele>32.8223</ele>
        <time>2014-07-08T12:10:52Z</time>
      </trkpt>
      <trkpt lat="59.7634672" lon="17.7640308">
        <ele>32.8223</ele>
        <time>2014-07-08T12:10:53Z</time>
      </trkpt>
      <trkpt lat="59.7635144" lon="17.7640847">
        <ele>33.3029</ele>
        <time>2014-07-08T12:10:54Z</time>
      </trkpt>
      <trkpt lat="59.7635613" lon="17.7641401">
        <ele>33.3029</ele>
        <time>2014-07-08T12:10:55Z</time>
      </trkpt>
      <trkpt lat="59.763608" lon="17.7641973">
        <ele>33.3029</ele>
        <time>2014-07-08T12:10:56Z</time>
      </trkpt>
      <trkpt lat="59.7636542" lon="17.7642571">
        <ele>33.3029</ele>
        <time>2014-07-08T12:10:57Z</time>
      </trkpt>
      <trkpt lat="59.7636997" lon="17.7643193">
        <ele>33.3029</ele>
        <time>2014-07-08T12:10:58Z</time>
      </trkpt>
      <trkpt lat="59.7637458" lon="17.7643821">
        <ele>33.7834</ele>
        <time>2014-07-08T12:10:59Z</time>
      </trkpt>
      <trkpt lat="59.7637926" lon="17.7644465">
        <ele>33.7834</ele>
        <time>2014-07-08T12:11:00Z</time>
      </trkpt>
      <trkpt lat="59.7638408" lon="17.764513">
        <ele>33.7834</ele>
        <time>2014-07-08T12:11:01Z</time>
      </trkpt>
      <trkpt lat="59.7638898" lon="17.764583">
        <ele>33.7834</ele>
        <time>2014-07-08T12:11:02Z</time>
      </trkpt>
      <trkpt lat="59.7639387" lon="17.764657">
        <ele>33.7834</ele>
        <time>2014-07-08T12:11:03Z</time>
      </trkpt>
      <trkpt lat="59.7639873" lon="17.7647347">
        <ele>33.7834</ele>
        <time>2014-07-08T12:11:04Z</time>
      </trkpt>
      <trkpt lat="59.7640355" lon="17.7648145">
        <ele>33.7834</ele>
        <time>2014-07-08T12:11:05Z</time>
      </trkpt>
      <trkpt lat="59.7640841" lon="17.7648939">
        <ele>33.7834</ele>
        <time>2014-07-08T12:11:06Z</time>
      </trkpt>
      <trkpt lat="59.7641327" lon="17.7649746">
        <ele>33.7834</ele>
        <time>2014-07-08T12:11:07Z</time>
      </trkpt>
      <trkpt lat="59.764181" lon="17.7650585">
        <ele>33.7834</ele>
        <time>2014-07-08T12:11:08Z</time>
      </trkpt>
      <trkpt lat="59.7642286" lon="17.7651465">
        <ele>33.7834</ele>
        <time>2014-07-08T12:11:09Z</time>
      </trkpt>
      <trkpt lat="59.7642758" lon="17.7652382">
        <ele>33.7834</ele>
        <time>2014-07-08T12:11:10Z</time>
      </trkpt>
      <trkpt lat="59.764324" lon="17.7653304">
        <ele>33.7834</ele>
        <time>2014-07-08T12:11:11Z</time>
      </trkpt>
      <trkpt lat="59.7643732" lon="17.7654122">
        <ele>33.7834</ele>
        <time>2014-07-08T12:11:12Z</time>
      </trkpt>
      <trkpt lat="59.7644223" lon="17.7654948">
        <ele>34.2642</ele>
        <time>2014-07-08T12:11:13Z</time>
      </trkpt>
      <trkpt lat="59.764469" lon="17.7655869">
        <ele>34.2642</ele>
        <time>2014-07-08T12:11:14Z</time>
      </trkpt>
      <trkpt lat="59.7645134" lon="17.7656744">
        <ele>34.2642</ele>
        <time>2014-07-08T12:11:15Z</time>
      </trkpt>
      <trkpt lat="59.7645582" lon="17.7657594">
        <ele>34.2642</ele>
        <time>2014-07-08T12:11:16Z</time>
      </trkpt>
      <trkpt lat="59.7646037" lon="17.7658436">
        <ele>34.2642</ele>
        <time>2014-07-08T12:11:17Z</time>
      </trkpt>
      <trkpt lat="59.7646493" lon="17.7659296">
        <ele>34.2642</ele>
        <time>2014-07-08T12:11:18Z</time>
      </trkpt>
      <trkpt lat="59.7646953" lon="17.7660168">
        <ele>34.2642</ele>
        <time>2014-07-08T12:11:19Z</time>
      </trkpt>
      <trkpt lat="59.7647436" lon="17.7661027">
        <ele>34.2642</ele>
        <time>2014-07-08T12:11:20Z</time>
      </trkpt>
      <trkpt lat="59.7647943" lon="17.7661858">
        <ele>34.2642</ele>
        <time>2014-07-08T12:11:21Z</time>
      </trkpt>
      <trkpt lat="59.764847" lon="17.7662683">
        <ele>34.2642</ele>
        <time>2014-07-08T12:11:22Z</time>
      </trkpt>
      <trkpt lat="59.7649016" lon="17.7663505">
        <ele>34.2642</ele>
        <time>2014-07-08T12:11:23Z</time>
      </trkpt>
      <trkpt lat="59.7649581" lon="17.7664316">
        <ele>34.2642</ele>
        <time>2014-07-08T12:11:24Z</time>
      </trkpt>
      <trkpt lat="59.7650165" lon="17.76651">
        <ele>34.7449</ele>
        <time>2014-07-08T12:11:25Z</time>
      </trkpt>
      <trkpt lat="59.7650755" lon="17.7665867">
        <ele>34.7449</ele>
        <time>2014-07-08T12:11:26Z</time>
      </trkpt>
      <trkpt lat="59.7651342" lon="17.7666607">
        <ele>34.7449</ele>
        <time>2014-07-08T12:11:27Z</time>
      </trkpt>
      <trkpt lat="59.7651921" lon="17.7667306">
        <ele>34.7449</ele>
        <time>2014-07-08T12:11:28Z</time>
      </trkpt>
      <trkpt lat="59.7652496" lon="17.7667974">
        <ele>34.7449</ele>
        <time>2014-07-08T12:11:29Z</time>
      </trkpt>
      <trkpt lat="59.7653072" lon="17.76686">
        <ele>34.7449</ele>
        <time>2014-07-08T12:11:30Z</time>
      </trkpt>
      <trkpt lat="59.7653651" lon="17.7669197">
        <ele>34.7449</ele>
        <time>2014-07-08T12:11:31Z</time>
      </trkpt>
      <trkpt lat="59.7654227" lon="17.7669778">
        <ele>34.7449</ele>
        <time>2014-07-08T12:11:32Z</time>
      </trkpt>
      <trkpt lat="59.7654793" lon="17.7670352">
        <ele>34.7449</ele>
        <time>2014-07-08T12:11:33Z</time>
      </trkpt>
      <trkpt lat="59.765534" lon="17.7670943">
        <ele>35.2255</ele>
        <time>2014-07-08T12:11:34Z</time>
      </trkpt>
      <trkpt lat="59.7655869" lon="17.7671533">
        <ele>35.2255</ele>
        <time>2014-07-08T12:11:35Z</time>
      </trkpt>
      <trkpt lat="59.7656382" lon="17.7672133">
        <ele>35.2255</ele>
        <time>2014-07-08T12:11:36Z</time>
      </trkpt>
      <trkpt lat="59.7656914" lon="17.7672715">
        <ele>35.7061</ele>
        <time>2014-07-08T12:11:37Z</time>
      </trkpt>
      <trkpt lat="59.765745" lon="17.7673318">
        <ele>35.7061</ele>
        <time>2014-07-08T12:11:38Z</time>
      </trkpt>
      <trkpt lat="59.7658003" lon="17.76739">
        <ele>35.7061</ele>
        <time>2014-07-08T12:11:39Z</time>
      </trkpt>
      <trkpt lat="59.7658589" lon="17.767449">
        <ele>36.1868</ele>
        <time>2014-07-08T12:11:40Z</time>
      </trkpt>
      <trkpt lat="59.7659172" lon="17.7675095">
        <ele>36.6675</ele>
        <time>2014-07-08T12:11:41Z</time>
      </trkpt>
      <trkpt lat="59.7659766" lon="17.7675703">
        <ele>37.1481</ele>
        <time>2014-07-08T12:11:42Z</time>
      </trkpt>
      <trkpt lat="59.766035" lon="17.7676303">
        <ele>36.6675</ele>
        <time>2014-07-08T12:11:43Z</time>
      </trkpt>
      <trkpt lat="59.7660951" lon="17.7676913">
        <ele>36.6675</ele>
        <time>2014-07-08T12:11:44Z</time>
      </trkpt>
      <trkpt lat="59.7661567" lon="17.767755">
        <ele>37.1481</ele>
        <time>2014-07-08T12:11:45Z</time>
      </trkpt>
      <trkpt lat="59.7662175" lon="17.7678201">
        <ele>37.1481</ele>
        <time>2014-07-08T12:11:46Z</time>
      </trkpt>
      <trkpt lat="59.7662773" lon="17.7678833">
        <ele>37.1481</ele>
        <time>2014-07-08T12:11:47Z</time>
      </trkpt>
      <trkpt lat="59.7663374" lon="17.7679475">
        <ele>37.1481</ele>
        <time>2014-07-08T12:11:48Z</time>
      </trkpt>
      <trkpt lat="59.7663954" lon="17.7680106">
        <ele>37.1481</ele>
        <time>2014-07-08T12:11:49Z</time>
      </trkpt>
      <trkpt lat="59.7664525" lon="17.7680703">
        <ele>36.6675</ele>
        <time>2014-07-08T12:11:50Z</time>
      </trkpt>
      <trkpt lat="59.7665095" lon="17.768129">
        <ele>37.1481</ele>
        <time>2014-07-08T12:11:51Z</time>
      </trkpt>
      <trkpt lat="59.7665654" lon="17.7681879">
        <ele>37.1481</ele>
        <time>2014-07-08T12:11:52Z</time>
      </trkpt>
      <trkpt lat="59.7666198" lon="17.7682454">
        <ele>36.6675</ele>
        <time>2014-07-08T12:11:53Z</time>
      </trkpt>
      <trkpt lat="59.7666737" lon="17.7683016">
        <ele>36.6675</ele>
        <time>2014-07-08T12:11:54Z</time>
      </trkpt>
      <trkpt lat="59.7667259" lon="17.7683568">
        <ele>36.6675</ele>
        <time>2014-07-08T12:11:55Z</time>
      </trkpt>
      <trkpt lat="59.7667763" lon="17.7684109">
        <ele>37.1481</ele>
        <time>2014-07-08T12:11:56Z</time>
      </trkpt>
      <trkpt lat="59.766825" lon="17.768464">
        <ele>37.1481</ele>
        <time>2014-07-08T12:11:57Z</time>
      </trkpt>
      <trkpt lat="59.7668727" lon="17.7685165">
        <ele>37.1481</ele>
        <time>2014-07-08T12:11:58Z</time>
      </trkpt>
      <trkpt lat="59.7669199" lon="17.768569">
        <ele>37.1481</ele>
        <time>2014-07-08T12:11:59Z</time>
      </trkpt>
      <trkpt lat="59.7669675" lon="17.7686222">
        <ele>37.6287</ele>
        <time>2014-07-08T12:12:00Z</time>
      </trkpt>
      <trkpt lat="59.7670162" lon="17.7686747">
        <ele>37.6287</ele>
        <time>2014-07-08T12:12:01Z</time>
      </trkpt>
      <trkpt lat="59.7670654" lon="17.7687268">
        <ele>37.6287</ele>
        <time>2014-07-08T12:12:02Z</time>
      </trkpt>
      <trkpt lat="59.7671149" lon="17.7687797">
        <ele>38.1094</ele>
        <time>2014-07-08T12:12:03Z</time>
      </trkpt>
      <trkpt lat="59.7671639" lon="17.7688337">
        <ele>38.1094</ele>
        <time>2014-07-08T12:12:04Z</time>
      </trkpt>
      <trkpt lat="59.767212" lon="17.7688876">
        <ele>38.1094</ele>
        <time>2014-07-08T12:12:05Z</time>
      </trkpt>
      <trkpt lat="59.7672596" lon="17.7689385">
        <ele>38.5901</ele>
        <time>2014-07-08T12:12:06Z</time>
      </trkpt>
      <trkpt lat="59.7673063" lon="17.7689866">
        <ele>38.5901</ele>
        <time>2014-07-08T12:12:07Z</time>
      </trkpt>
      <trkpt lat="59.7673522" lon="17.7690333">
        <ele>39.0707</ele>
        <time>2014-07-08T12:12:08Z</time>
      </trkpt>
      <trkpt lat="59.7673978" lon="17.7690782">
        <ele>39.0707</ele>
        <time>2014-07-08T12:12:09Z</time>
      </trkpt>
      <trkpt lat="59.7674429" lon="17.7691221">
        <ele>39.0707</ele>
        <time>2014-07-08T12:12:10Z</time>
      </trkpt>
      <trkpt lat="59.7674878" lon="17.7691659">
        <ele>39.5513</ele>
        <time>2014-07-08T12:12:11Z</time>
      </trkpt>
      <trkpt lat="59.7675327" lon="17.7692075">
        <ele>39.5513</ele>
        <time>2014-07-08T12:12:12Z</time>
      </trkpt>
      <trkpt lat="59.7675776" lon="17.7692492">
        <ele>39.5513</ele>
        <time>2014-07-08T12:12:13Z</time>
      </trkpt>
      <trkpt lat="59.7676223" lon="17.7692925">
        <ele>40.0321</ele>
        <time>2014-07-08T12:12:14Z</time>
      </trkpt>
      <trkpt lat="59.7676676" lon="17.7693339">
        <ele>40.0321</ele>
        <time>2014-07-08T12:12:15Z</time>
      </trkpt>
      <trkpt lat="59.7677128" lon="17.769374">
        <ele>40.5128</ele>
        <time>2014-07-08T12:12:16Z</time>
      </trkpt>
      <trkpt lat="59.7677579" lon="17.7694132">
        <ele>40.5128</ele>
        <time>2014-07-08T12:12:17Z</time>
      </trkpt>
      <trkpt lat="59.7678028" lon="17.769452">
        <ele>40.9934</ele>
        <time>2014-07-08T12:12:18Z</time>
      </trkpt>
      <trkpt lat="59.7678475" lon="17.7694906">
        <ele>40.9934</ele>
        <time>2014-07-08T12:12:19Z</time>
      </trkpt>
      <trkpt lat="59.7678924" lon="17.7695289">
        <ele>40.9934</ele>
        <time>2014-07-08T12:12:20Z</time>
      </trkpt>
      <trkpt lat="59.7679381" lon="17.7695635">
        <ele>41.474</ele>
        <time>2014-07-08T12:12:21Z</time>
      </trkpt>
      <trkpt lat="59.7679837" lon="17.7695968">
        <ele>41.474</ele>
        <time>2014-07-08T12:12:22Z</time>
      </trkpt>
      <trkpt lat="59.7680286" lon="17.7696314">
        <ele>41.9547</ele>
        <time>2014-07-08T12:12:23Z</time>
      </trkpt>
      <trkpt lat="59.7680735" lon="17.769663">
        <ele>41.9547</ele>
        <time>2014-07-08T12:12:24Z</time>
      </trkpt>
      <trkpt lat="59.7681185" lon="17.7696926">
        <ele>41.9547</ele>
        <time>2014-07-08T12:12:25Z</time>
      </trkpt>
      <trkpt lat="59.7681631" lon="17.769719">
        <ele>42.4354</ele>
        <time>2014-07-08T12:12:26Z</time>
      </trkpt>
      <trkpt lat="59.7682078" lon="17.7697421">
        <ele>42.4354</ele>
        <time>2014-07-08T12:12:27Z</time>
      </trkpt>
      <trkpt lat="59.768252" lon="17.7697675">
        <ele>42.916</ele>
        <time>2014-07-08T12:12:28Z</time>
      </trkpt>
      <trkpt lat="59.768295" lon="17.7697935">
        <ele>42.916</ele>
        <time>2014-07-08T12:12:29Z</time>
      </trkpt>
      <trkpt lat="59.7683391" lon="17.7698191">
        <ele>42.916</ele>
        <time>2014-07-08T12:12:30Z</time>
      </trkpt>
      <trkpt lat="59.7683835" lon="17.7698433">
        <ele>43.3966</ele>
        <time>2014-07-08T12:12:31Z</time>
      </trkpt>
      <trkpt lat="59.7684278" lon="17.7698678">
        <ele>43.3966</ele>
        <time>2014-07-08T12:12:32Z</time>
      </trkpt>
      <trkpt lat="59.7684737" lon="17.7698934">
        <ele>43.8773</ele>
        <time>2014-07-08T12:12:33Z</time>
      </trkpt>
      <trkpt lat="59.7685199" lon="17.7699199">
        <ele>43.8773</ele>
        <time>2014-07-08T12:12:34Z</time>
      </trkpt>
      <trkpt lat="59.7685663" lon="17.7699484">
        <ele>44.358</ele>
        <time>2014-07-08T12:12:35Z</time>
      </trkpt>
      <trkpt lat="59.7686121" lon="17.769975">
        <ele>44.358</ele>
        <time>2014-07-08T12:12:36Z</time>
      </trkpt>
      <trkpt lat="59.7686557" lon="17.7699988">
        <ele>43.8773</ele>
        <time>2014-07-08T12:12:37Z</time>
      </trkpt>
      <trkpt lat="59.7686987" lon="17.7700206">
        <ele>43.8773</ele>
        <time>2014-07-08T12:12:38Z</time>
      </trkpt>
      <trkpt lat="59.7687419" lon="17.770041">
        <ele>43.8773</ele>
        <time>2014-07-08T12:12:39Z</time>
      </trkpt>
      <trkpt lat="59.7687841" lon="17.7700649">
        <ele>43.8773</ele>
        <time>2014-07-08T12:12:40Z</time>
      </trkpt>
      <trkpt lat="59.7688276" lon="17.7700876">
        <ele>43.8773</ele>
        <time>2014-07-08T12:12:41Z</time>
      </trkpt>
      <trkpt lat="59.7688706" lon="17.7701061">
        <ele>43.8773</ele>
        <time>2014-07-08T12:12:42Z</time>
      </trkpt>
      <trkpt lat="59.768914" lon="17.7701247">
        <ele>43.8773</ele>
        <time>2014-07-08T12:12:43Z</time>
      </trkpt>
      <trkpt lat="59.7689581" lon="17.7701412">
        <ele>43.3966</ele>
        <time>2014-07-08T12:12:44Z</time>
      </trkpt>
      <trkpt lat="59.7689974" lon="17.7701561">
        <ele>42.916</ele>
        <time>2014-07-08T12:12:45Z</time>
      </trkpt>
      <trkpt lat="59.7690343" lon="17.7701654">
        <ele>42.916</ele>
        <time>2014-07-08T12:12:46Z</time>
      </trkpt>
      <trkpt lat="59.7690791" lon="17.7701779">
        <ele>42.916</ele>
        <time>2014-07-08T12:12:47Z</time>
      </trkpt>
      <trkpt lat="59.7691249" lon="17.7701903">
        <ele>42.4354</ele>
        <time>2014-07-08T12:12:48Z</time>
      </trkpt>
      <trkpt lat="59.7691679" lon="17.770199">
        <ele>41.9547</ele>
        <time>2014-07-08T12:12:49Z</time>
      </trkpt>
      <trkpt lat="59.769212" lon="17.7702042">
        <ele>41.9547</ele>
        <time>2014-07-08T12:12:50Z</time>
      </trkpt>
      <trkpt lat="59.7692537" lon="17.7702073">
        <ele>41.474</ele>
        <time>2014-07-08T12:12:51Z</time>
      </trkpt>
      <trkpt lat="59.7692957" lon="17.7702148">
        <ele>41.474</ele>
        <time>2014-07-08T12:12:52Z</time>
      </trkpt>
      <trkpt lat="59.7693399" lon="17.7702228">
        <ele>41.474</ele>
        <time>2014-07-08T12:12:53Z</time>
      </trkpt>
      <trkpt lat="59.769385" lon="17.7702281">
        <ele>41.9547</ele>
        <time>2014-07-08T12:12:54Z</time>
      </trkpt>
      <trkpt lat="59.7694299" lon="17.7702311">
        <ele>41.9547</ele>
        <time>2014-07-08T12:12:55Z</time>
      </trkpt>
      <trkpt lat="59.7694751" lon="17.7702314">
        <ele>41.9547</ele>
        <time>2014-07-08T12:12:56Z</time>
      </trkpt>
      <trkpt lat="59.7695212" lon="17.7702339">
        <ele>41.9547</ele>
        <time>2014-07-08T12:12:57Z</time>
      </trkpt>
      <trkpt lat="59.7695704" lon="17.7702364">
        <ele>42.4354</ele>
        <time>2014-07-08T12:12:58Z</time>
      </trkpt>
      <trkpt lat="59.7696205" lon="17.7702416">
        <ele>42.916</ele>
        <time>2014-07-08T12:12:59Z</time>
      </trkpt>
      <trkpt lat="59.7696669" lon="17.7702465">
        <ele>42.916</ele>
        <time>2014-07-08T12:13:00Z</time>
      </trkpt>
      <trkpt lat="59.7697166" lon="17.7702567">
        <ele>43.3966</ele>
        <time>2014-07-08T12:13:01Z</time>
      </trkpt>
      <trkpt lat="59.7697671" lon="17.7702681">
        <ele>42.916</ele>
        <time>2014-07-08T12:13:02Z</time>
      </trkpt>
      <trkpt lat="59.7698196" lon="17.7702816">
        <ele>42.916</ele>
        <time>2014-07-08T12:13:03Z</time>
      </trkpt>
      <trkpt lat="59.7698735" lon="17.7702957">
        <ele>42.916</ele>
        <time>2014-07-08T12:13:04Z</time>
      </trkpt>
      <trkpt lat="59.7699263" lon="17.7703083">
        <ele>42.4354</ele>
        <time>2014-07-08T12:13:05Z</time>
      </trkpt>
      <trkpt lat="59.7699822" lon="17.7703277">
        <ele>42.4354</ele>
        <time>2014-07-08T12:13:06Z</time>
      </trkpt>
      <trkpt lat="59.7700361" lon="17.7703453">
        <ele>42.4354</ele>
        <time>2014-07-08T12:13:07Z</time>
      </trkpt>
      <trkpt lat="59.7700896" lon="17.7703639">
        <ele>41.9547</ele>
        <time>2014-07-08T12:13:08Z</time>
      </trkpt>
      <trkpt lat="59.7701434" lon="17.7703835">
        <ele>41.474</ele>
        <time>2014-07-08T12:13:09Z</time>
      </trkpt>
      <trkpt lat="59.7701984" lon="17.7704072">
        <ele>41.474</ele>
        <time>2014-07-08T12:13:10Z</time>
      </trkpt>
      <trkpt lat="59.7702524" lon="17.7704365">
        <ele>40.9934</ele>
        <time>2014-07-08T12:13:11Z</time>
      </trkpt>
      <trkpt lat="59.7703076" lon="17.7704686">
        <ele>40.5128</ele>
        <time>2014-07-08T12:13:12Z</time>
      </trkpt>
      <trkpt lat="59.7703639" lon="17.7705057">
        <ele>40.0321</ele>
        <time>2014-07-08T12:13:13Z</time>
      </trkpt>
      <trkpt lat="59.7704219" lon="17.7705437">
        <ele>39.5513</ele>
        <time>2014-07-08T12:13:14Z</time>
      </trkpt>
      <trkpt lat="59.7704837" lon="17.7705814">
        <ele>39.0707</ele>
        <time>2014-07-08T12:13:15Z</time>
      </trkpt>
      <trkpt lat="59.7705473" lon="17.770621">
        <ele>38.5901</ele>
        <time>2014-07-08T12:13:16Z</time>
      </trkpt>
      <trkpt lat="59.7706133" lon="17.7706649">
        <ele>38.5901</ele>
        <time>2014-07-08T12:13:17Z</time>
      </trkpt>
      <trkpt lat="59.7706793" lon="17.7707144">
        <ele>38.1094</ele>
        <time>2014-07-08T12:13:18Z</time>
      </trkpt>
      <trkpt lat="59.7707473" lon="17.7707742">
        <ele>38.1094</ele>
        <time>2014-07-08T12:13:19Z</time>
      </trkpt>
      <trkpt lat="59.7708142" lon="17.77084">
        <ele>38.1094</ele>
        <time>2014-07-08T12:13:20Z</time>
      </trkpt>
      <trkpt lat="59.7708808" lon="17.7709059">
        <ele>37.6287</ele>
        <time>2014-07-08T12:13:21Z</time>
      </trkpt>
      <trkpt lat="59.77095" lon="17.7709731">
        <ele>37.1481</ele>
        <time>2014-07-08T12:13:22Z</time>
      </trkpt>
      <trkpt lat="59.7710249" lon="17.7710447">
        <ele>37.6287</ele>
        <time>2014-07-08T12:13:23Z</time>
      </trkpt>
      <trkpt lat="59.7710985" lon="17.7711216">
        <ele>37.6287</ele>
        <time>2014-07-08T12:13:24Z</time>
      </trkpt>
      <trkpt lat="59.7711729" lon="17.7712047">
        <ele>37.6287</ele>
        <time>2014-07-08T12:13:25Z</time>
      </trkpt>
      <trkpt lat="59.7712461" lon="17.7712936">
        <ele>37.6287</ele>
        <time>2014-07-08T12:13:26Z</time>
      </trkpt>
      <trkpt lat="59.7713188" lon="17.7713885">
        <ele>37.1481</ele>
        <time>2014-07-08T12:13:27Z</time>
      </trkpt>
      <trkpt lat="59.7713902" lon="17.7714899">
        <ele>36.6675</ele>
        <time>2014-07-08T12:13:28Z</time>
      </trkpt>
      <trkpt lat="59.7714617" lon="17.7715974">
        <ele>36.6675</ele>
        <time>2014-07-08T12:13:29Z</time>
      </trkpt>
      <trkpt lat="59.7715332" lon="17.7717086">
        <ele>36.6675</ele>
        <time>2014-07-08T12:13:30Z</time>
      </trkpt>
      <trkpt lat="59.7716032" lon="17.7718216">
        <ele>36.1868</ele>
        <time>2014-07-08T12:13:31Z</time>
      </trkpt>
      <trkpt lat="59.7716731" lon="17.7719356">
        <ele>35.7061</ele>
        <time>2014-07-08T12:13:32Z</time>
      </trkpt>
      <trkpt lat="59.7717448" lon="17.7720537">
        <ele>35.7061</ele>
        <time>2014-07-08T12:13:33Z</time>
      </trkpt>
      <trkpt lat="59.7718168" lon="17.7721711">
        <ele>35.7061</ele>
        <time>2014-07-08T12:13:34Z</time>
      </trkpt>
      <trkpt lat="59.7718909" lon="17.7722872">
        <ele>36.1868</ele>
        <time>2014-07-08T12:13:35Z</time>
      </trkpt>
      <trkpt lat="59.7719626" lon="17.7724012">
        <ele>35.7061</ele>
        <time>2014-07-08T12:13:36Z</time>
      </trkpt>
      <trkpt lat="59.7720355" lon="17.7725137">
        <ele>35.2255</ele>
        <time>2014-07-08T12:13:37Z</time>
      </trkpt>
      <trkpt lat="59.7721097" lon="17.7726218">
        <ele>34.2642</ele>
        <time>2014-07-08T12:13:38Z</time>
      </trkpt>
      <trkpt lat="59.7721859" lon="17.7727236">
        <ele>34.2642</ele>
        <time>2014-07-08T12:13:39Z</time>
      </trkpt>
      <trkpt lat="59.772263" lon="17.7728191">
        <ele>33.7834</ele>
        <time>2014-07-08T12:13:40Z</time>
      </trkpt>
      <trkpt lat="59.77234" lon="17.7729105">
        <ele>33.7834</ele>
        <time>2014-07-08T12:13:41Z</time>
      </trkpt>
      <trkpt lat="59.7724175" lon="17.7729976">
        <ele>33.7834</ele>
        <time>2014-07-08T12:13:42Z</time>
      </trkpt>
      <trkpt lat="59.7724955" lon="17.7730798">
        <ele>33.7834</ele>
        <time>2014-07-08T12:13:43Z</time>
      </trkpt>
      <trkpt lat="59.7725718" lon="17.7731613">
        <ele>33.7834</ele>
        <time>2014-07-08T12:13:44Z</time>
      </trkpt>
      <trkpt lat="59.7726464" lon="17.7732403">
        <ele>33.7834</ele>
        <time>2014-07-08T12:13:45Z</time>
      </trkpt>
      <trkpt lat="59.7727215" lon="17.7733156">
        <ele>33.7834</ele>
        <time>2014-07-08T12:13:46Z</time>
      </trkpt>
      <trkpt lat="59.7727981" lon="17.7733902">
        <ele>34.2642</ele>
        <time>2014-07-08T12:13:47Z</time>
      </trkpt>
      <trkpt lat="59.7728733" lon="17.7734632">
        <ele>34.7449</ele>
        <time>2014-07-08T12:13:48Z</time>
      </trkpt>
      <trkpt lat="59.7729471" lon="17.7735347">
        <ele>35.2255</ele>
        <time>2014-07-08T12:13:49Z</time>
      </trkpt>
      <trkpt lat="59.7730197" lon="17.7736052">
        <ele>35.2255</ele>
        <time>2014-07-08T12:13:50Z</time>
      </trkpt>
      <trkpt lat="59.7730912" lon="17.7736769">
        <ele>35.2255</ele>
        <time>2014-07-08T12:13:51Z</time>
      </trkpt>
      <trkpt lat="59.7731616" lon="17.77375">
        <ele>35.7061</ele>
        <time>2014-07-08T12:13:52Z</time>
      </trkpt>
      <trkpt lat="59.773231" lon="17.7738252">
        <ele>35.7061</ele>
        <time>2014-07-08T12:13:53Z</time>
      </trkpt>
      <trkpt lat="59.7732984" lon="17.7739035">
        <ele>35.7061</ele>
        <time>2014-07-08T12:13:54Z</time>
      </trkpt>
      <trkpt lat="59.7733642" lon="17.7739841">
        <ele>36.1868</ele>
        <time>2014-07-08T12:13:55Z</time>
      </trkpt>
      <trkpt lat="59.7734284" lon="17.7740646">
        <ele>36.1868</ele>
        <time>2014-07-08T12:13:56Z</time>
      </trkpt>
      <trkpt lat="59.7734911" lon="17.7741452">
        <ele>36.1868</ele>
        <time>2014-07-08T12:13:57Z</time>
      </trkpt>
      <trkpt lat="59.7735522" lon="17.7742257">
        <ele>36.1868</ele>
        <time>2014-07-08T12:13:58Z</time>
      </trkpt>
      <trkpt lat="59.773613" lon="17.7743044">
        <ele>36.6675</ele>
        <time>2014-07-08T12:13:59Z</time>
      </trkpt>
      <trkpt lat="59.7736736" lon="17.7743832">
        <ele>36.6675</ele>
        <time>2014-07-08T12:14:00Z</time>
      </trkpt>
      <trkpt lat="59.7737346" lon="17.7744629">
        <ele>37.1481</ele>
        <time>2014-07-08T12:14:01Z</time>
      </trkpt>
      <trkpt lat="59.7737944" lon="17.7745461">
        <ele>37.6287</ele>
        <time>2014-07-08T12:14:02Z</time>
      </trkpt>
      <trkpt lat="59.7738548" lon="17.7746272">
        <ele>37.6287</ele>
        <time>2014-07-08T12:14:03Z</time>
      </trkpt>
      <trkpt lat="59.7739151" lon="17.7747071">
        <ele>38.1094</ele>
        <time>2014-07-08T12:14:04Z</time>
      </trkpt>
      <trkpt lat="59.7739744" lon="17.7747876">
        <ele>38.5901</ele>
        <time>2014-07-08T12:14:05Z</time>
      </trkpt>
      <trkpt lat="59.7740324" lon="17.7748674">
        <ele>38.5901</ele>
        <time>2014-07-08T12:14:06Z</time>
      </trkpt>
      <trkpt lat="59.774089" lon="17.7749476">
        <ele>39.0707</ele>
        <time>2014-07-08T12:14:07Z</time>
      </trkpt>
      <trkpt lat="59.7741438" lon="17.7750254">
        <ele>39.0707</ele>
        <time>2014-07-08T12:14:08Z</time>
      </trkpt>
      <trkpt lat="59.7741971" lon="17.7750929">
        <ele>39.5513</ele>
        <time>2014-07-08T12:14:09Z</time>
      </trkpt>
      <trkpt lat="59.7742496" lon="17.7751618">
        <ele>40.0321</ele>
        <time>2014-07-08T12:14:10Z</time>
      </trkpt>
      <trkpt lat="59.7742976" lon="17.7752327">
        <ele>40.0321</ele>
        <time>2014-07-08T12:14:11Z</time>
      </trkpt>
      <trkpt lat="59.774346" lon="17.7752954">
        <ele>39.5513</ele>
        <time>2014-07-08T12:14:12Z</time>
      </trkpt>
      <trkpt lat="59.7743986" lon="17.7753582">
        <ele>40.0321</ele>
        <time>2014-07-08T12:14:13Z</time>
      </trkpt>
      <trkpt lat="59.7744506" lon="17.7754278">
        <ele>40.0321</ele>
        <time>2014-07-08T12:14:14Z</time>
      </trkpt>
      <trkpt lat="59.7745019" lon="17.7754994">
        <ele>39.5513</ele>
        <time>2014-07-08T12:14:15Z</time>
      </trkpt>
      <trkpt lat="59.7745553" lon="17.7755745">
        <ele>39.5513</ele>
        <time>2014-07-08T12:14:16Z</time>
      </trkpt>
      <trkpt lat="59.7746096" lon="17.7756528">
        <ele>39.0707</ele>
        <time>2014-07-08T12:14:17Z</time>
      </trkpt>
      <trkpt lat="59.7746649" lon="17.7757339">
        <ele>39.0707</ele>
        <time>2014-07-08T12:14:18Z</time>
      </trkpt>
      <trkpt lat="59.774721" lon="17.7758155">
        <ele>39.0707</ele>
        <time>2014-07-08T12:14:19Z</time>
      </trkpt>
      <trkpt lat="59.774778" lon="17.7758977">
        <ele>39.5513</ele>
        <time>2014-07-08T12:14:20Z</time>
      </trkpt>
      <trkpt lat="59.7748342" lon="17.7759812">
        <ele>39.5513</ele>
        <time>2014-07-08T12:14:21Z</time>
      </trkpt>
      <trkpt lat="59.7748904" lon="17.776066">
        <ele>39.5513</ele>
        <time>2014-07-08T12:14:22Z</time>
      </trkpt>
      <trkpt lat="59.7749473" lon="17.7761485">
        <ele>39.5513</ele>
        <time>2014-07-08T12:14:23Z</time>
      </trkpt>
      <trkpt lat="59.7750031" lon="17.7762287">
        <ele>39.0707</ele>
        <time>2014-07-08T12:14:24Z</time>
      </trkpt>
      <trkpt lat="59.7750603" lon="17.7763102">
        <ele>39.0707</ele>
        <time>2014-07-08T12:14:25Z</time>
      </trkpt>
      <trkpt lat="59.7751174" lon="17.7763926">
        <ele>39.0707</ele>
        <time>2014-07-08T12:14:26Z</time>
      </trkpt>
      <trkpt lat="59.7751748" lon="17.7764758">
        <ele>38.1094</ele>
        <time>2014-07-08T12:14:27Z</time>
      </trkpt>
      <trkpt lat="59.7752342" lon="17.7765623">
        <ele>37.6287</ele>
        <time>2014-07-08T12:14:28Z</time>
      </trkpt>
      <trkpt lat="59.775295" lon="17.7766505">
        <ele>37.6287</ele>
        <time>2014-07-08T12:14:29Z</time>
      </trkpt>
      <trkpt lat="59.7753567" lon="17.7767401">
        <ele>37.1481</ele>
        <time>2014-07-08T12:14:30Z</time>
      </trkpt>
      <trkpt lat="59.7754187" lon="17.7768316">
        <ele>36.6675</ele>
        <time>2014-07-08T12:14:31Z</time>
      </trkpt>
      <trkpt lat="59.7754799" lon="17.776923">
        <ele>36.6675</ele>
        <time>2014-07-08T12:14:32Z</time>
      </trkpt>
      <trkpt lat="59.77554" lon="17.7770134">
        <ele>36.1868</ele>
        <time>2014-07-08T12:14:33Z</time>
      </trkpt>
      <trkpt lat="59.7755996" lon="17.7771026">
        <ele>35.7061</ele>
        <time>2014-07-08T12:14:34Z</time>
      </trkpt>
      <trkpt lat="59.7756584" lon="17.7771903">
        <ele>35.7061</ele>
        <time>2014-07-08T12:14:35Z</time>
      </trkpt>
      <trkpt lat="59.7757175" lon="17.7772769">
        <ele>35.2255</ele>
        <time>2014-07-08T12:14:36Z</time>
      </trkpt>
      <trkpt lat="59.7757767" lon="17.7773632">
        <ele>35.2255</ele>
        <time>2014-07-08T12:14:37Z</time>
      </trkpt>
      <trkpt lat="59.7758371" lon="17.7774498">
        <ele>34.7449</ele>
        <time>2014-07-08T12:14:38Z</time>
      </trkpt>
      <trkpt lat="59.7758988" lon="17.7775363">
        <ele>34.7449</ele>
        <time>2014-07-08T12:14:39Z</time>
      </trkpt>
      <trkpt lat="59.7759605" lon="17.7776227">
        <ele>34.2642</ele>
        <time>2014-07-08T12:14:40Z</time>
      </trkpt>
      <trkpt lat="59.7760225" lon="17.7777118">
        <ele>34.2642</ele>
        <time>2014-07-08T12:14:41Z</time>
      </trkpt>
      <trkpt lat="59.7760843" lon="17.7778005">
        <ele>34.2642</ele>
        <time>2014-07-08T12:14:42Z</time>
      </trkpt>
      <trkpt lat="59.7761474" lon="17.7778874">
        <ele>34.2642</ele>
        <time>2014-07-08T12:14:43Z</time>
      </trkpt>
      <trkpt lat="59.7762114" lon="17.7779739">
        <ele>34.2642</ele>
        <time>2014-07-08T12:14:44Z</time>
      </trkpt>
      <trkpt lat="59.776276" lon="17.7780616">
        <ele>34.2642</ele>
        <time>2014-07-08T12:14:45Z</time>
      </trkpt>
      <trkpt lat="59.7763409" lon="17.7781531">
        <ele>33.7834</ele>
        <time>2014-07-08T12:14:46Z</time>
      </trkpt>
      <trkpt lat="59.7764065" lon="17.778245">
        <ele>33.7834</ele>
        <time>2014-07-08T12:14:47Z</time>
      </trkpt>
      <trkpt lat="59.7764728" lon="17.7783366">
        <ele>33.3029</ele>
        <time>2014-07-08T12:14:48Z</time>
      </trkpt>
      <trkpt lat="59.7765393" lon="17.7784299">
        <ele>33.3029</ele>
        <time>2014-07-08T12:14:49Z</time>
      </trkpt>
      <trkpt lat="59.7766066" lon="17.7785257">
        <ele>32.8223</ele>
        <time>2014-07-08T12:14:50Z</time>
      </trkpt>
      <trkpt lat="59.7766749" lon="17.7786256">
        <ele>32.3416</ele>
        <time>2014-07-08T12:14:51Z</time>
      </trkpt>
      <trkpt lat="59.7767434" lon="17.7787281">
        <ele>32.3416</ele>
        <time>2014-07-08T12:14:52Z</time>
      </trkpt>
      <trkpt lat="59.7768115" lon="17.7788323">
        <ele>31.8607</ele>
        <time>2014-07-08T12:14:53Z</time>
      </trkpt>
      <trkpt lat="59.7768781" lon="17.7789391">
        <ele>31.3801</ele>
        <time>2014-07-08T12:14:54Z</time>
      </trkpt>
      <trkpt lat="59.7769444" lon="17.7790474">
        <ele>31.3801</ele>
        <time>2014-07-08T12:14:55Z</time>
      </trkpt>
      <trkpt lat="59.7770107" lon="17.779155">
        <ele>30.8995</ele>
        <time>2014-07-08T12:14:56Z</time>
      </trkpt>
      <trkpt lat="59.7770764" lon="17.7792635">
        <ele>30.4188</ele>
        <time>2014-07-08T12:14:57Z</time>
      </trkpt>
      <trkpt lat="59.7771402" lon="17.7793757">
        <ele>30.4188</ele>
        <time>2014-07-08T12:14:58Z</time>
      </trkpt>
      <trkpt lat="59.7772037" lon="17.7794893">
        <ele>29.9381</ele>
        <time>2014-07-08T12:14:59Z</time>
      </trkpt>
      <trkpt lat="59.7772674" lon="17.7796032">
        <ele>29.9381</ele>
        <time>2014-07-08T12:15:00Z</time>
      </trkpt>
      <trkpt lat="59.7773302" lon="17.77972">
        <ele>29.4575</ele>
        <time>2014-07-08T12:15:01Z</time>
      </trkpt>
      <trkpt lat="59.7773919" lon="17.7798408">
        <ele>29.4575</ele>
        <time>2014-07-08T12:15:02Z</time>
      </trkpt>
      <trkpt lat="59.7774525" lon="17.7799638">
        <ele>28.9769</ele>
        <time>2014-07-08T12:15:03Z</time>
      </trkpt>
      <trkpt lat="59.7775115" lon="17.7800895">
        <ele>28.9769</ele>
        <time>2014-07-08T12:15:04Z</time>
      </trkpt>
      <trkpt lat="59.777569" lon="17.780218">
        <ele>28.4962</ele>
        <time>2014-07-08T12:15:05Z</time>
      </trkpt>
      <trkpt lat="59.7776266" lon="17.7803476">
        <ele>28.4962</ele>
        <time>2014-07-08T12:15:06Z</time>
      </trkpt>
      <trkpt lat="59.7776849" lon="17.7804784">
        <ele>28.0155</ele>
        <time>2014-07-08T12:15:07Z</time>
      </trkpt>
      <trkpt lat="59.7777441" lon="17.7806098">
        <ele>28.0155</ele>
        <time>2014-07-08T12:15:08Z</time>
      </trkpt>
      <trkpt lat="59.7778024" lon="17.780741">
        <ele>27.5349</ele>
        <time>2014-07-08T12:15:09Z</time>
      </trkpt>
      <trkpt lat="59.7778569" lon="17.7808769">
        <ele>27.5349</ele>
        <time>2014-07-08T12:15:10Z</time>
      </trkpt>
      <trkpt lat="59.7778934" lon="17.7810215">
        <ele>27.5349</ele>
        <time>2014-07-08T12:15:11Z</time>
      </trkpt>
      <trkpt lat="59.7779565" lon="17.7811448">
        <ele>28.0155</ele>
        <time>2014-07-08T12:15:12Z</time>
      </trkpt>
      <trkpt lat="59.7780048" lon="17.7812684">
        <ele>27.5349</ele>
        <time>2014-07-08T12:15:13Z</time>
      </trkpt>
      <trkpt lat="59.7780549" lon="17.7813902">
        <ele>28.0155</ele>
        <time>2014-07-08T12:15:14Z</time>
      </trkpt>
      <trkpt lat="59.7781031" lon="17.781512">
        <ele>28.0155</ele>
        <time>2014-07-08T12:15:15Z</time>
      </trkpt>
      <trkpt lat="59.7781637" lon="17.7816317">
        <ele>28.0155</ele>
        <time>2014-07-08T12:15:16Z</time>
      </trkpt>
      <trkpt lat="59.7782138" lon="17.7817566">
        <ele>28.0155</ele>
        <time>2014-07-08T12:15:17Z</time>
      </trkpt>
      <trkpt lat="59.7782633" lon="17.7818748">
        <ele>28.0155</ele>
        <time>2014-07-08T12:15:18Z</time>
      </trkpt>
      <trkpt lat="59.7783118" lon="17.7819897">
        <ele>28.0155</ele>
        <time>2014-07-08T12:15:19Z</time>
      </trkpt>
      <trkpt lat="59.7783615" lon="17.7821021">
        <ele>28.0155</ele>
        <time>2014-07-08T12:15:20Z</time>
      </trkpt>
      <trkpt lat="59.7784103" lon="17.782213">
        <ele>28.0155</ele>
        <time>2014-07-08T12:15:21Z</time>
      </trkpt>
      <trkpt lat="59.77846" lon="17.782322">
        <ele>28.0155</ele>
        <time>2014-07-08T12:15:22Z</time>
      </trkpt>
      <trkpt lat="59.7785107" lon="17.7824272">
        <ele>28.0155</ele>
        <time>2014-07-08T12:15:23Z</time>
      </trkpt>
      <trkpt lat="59.778562" lon="17.7825284">
        <ele>28.0155</ele>
        <time>2014-07-08T12:15:24Z</time>
      </trkpt>
      <trkpt lat="59.7786138" lon="17.7826138">
        <ele>28.0155</ele>
        <time>2014-07-08T12:15:25Z</time>
      </trkpt>
      <trkpt lat="59.7786656" lon="17.7826879">
        <ele>28.0155</ele>
        <time>2014-07-08T12:15:26Z</time>
      </trkpt>
      <trkpt lat="59.7787172" lon="17.7827729">
        <ele>28.0155</ele>
        <time>2014-07-08T12:15:27Z</time>
      </trkpt>
      <trkpt lat="59.7787683" lon="17.7828623">
        <ele>27.5349</ele>
        <time>2014-07-08T12:15:28Z</time>
      </trkpt>
      <trkpt lat="59.7788186" lon="17.7829452">
        <ele>27.5349</ele>
        <time>2014-07-08T12:15:29Z</time>
      </trkpt>
      <trkpt lat="59.7788695" lon="17.7830272">
        <ele>27.5349</ele>
        <time>2014-07-08T12:15:30Z</time>
      </trkpt>
      <trkpt lat="59.7789222" lon="17.7831055">
        <ele>27.5349</ele>
        <time>2014-07-08T12:15:31Z</time>
      </trkpt>
      <trkpt lat="59.7789773" lon="17.7831807">
        <ele>27.0543</ele>
        <time>2014-07-08T12:15:32Z</time>
      </trkpt>
      <trkpt lat="59.7790339" lon="17.783255">
        <ele>27.0543</ele>
        <time>2014-07-08T12:15:33Z</time>
      </trkpt>
      <trkpt lat="59.7790919" lon="17.7833278">
        <ele>27.0543</ele>
        <time>2014-07-08T12:15:34Z</time>
      </trkpt>
      <trkpt lat="59.7791513" lon="17.7833971">
        <ele>27.0543</ele>
        <time>2014-07-08T12:15:35Z</time>
      </trkpt>
      <trkpt lat="59.7792121" lon="17.7834611">
        <ele>27.0543</ele>
        <time>2014-07-08T12:15:36Z</time>
      </trkpt>
      <trkpt lat="59.7792734" lon="17.7835222">
        <ele>27.0543</ele>
        <time>2014-07-08T12:15:37Z</time>
      </trkpt>
      <trkpt lat="59.7793358" lon="17.7835802">
        <ele>27.0543</ele>
        <time>2014-07-08T12:15:38Z</time>
      </trkpt>
      <trkpt lat="59.779399" lon="17.7836354">
        <ele>27.0543</ele>
        <time>2014-07-08T12:15:39Z</time>
      </trkpt>
      <trkpt lat="59.7794638" lon="17.7836876">
        <ele>27.0543</ele>
        <time>2014-07-08T12:15:40Z</time>
      </trkpt>
      <trkpt lat="59.7795305" lon="17.7837351">
        <ele>27.0543</ele>
        <time>2014-07-08T12:15:41Z</time>
      </trkpt>
      <trkpt lat="59.7795984" lon="17.783779">
        <ele>27.0543</ele>
        <time>2014-07-08T12:15:42Z</time>
      </trkpt>
      <trkpt lat="59.7796662" lon="17.7838219">
        <ele>27.0543</ele>
        <time>2014-07-08T12:15:43Z</time>
      </trkpt>
      <trkpt lat="59.7797337" lon="17.7838652">
        <ele>27.0543</ele>
        <time>2014-07-08T12:15:44Z</time>
      </trkpt>
      <trkpt lat="59.7798007" lon="17.7839084">
        <ele>27.0543</ele>
        <time>2014-07-08T12:15:45Z</time>
      </trkpt>
      <trkpt lat="59.7798679" lon="17.7839513">
        <ele>27.0543</ele>
        <time>2014-07-08T12:15:46Z</time>
      </trkpt>
      <trkpt lat="59.7799351" lon="17.7839955">
        <ele>27.0543</ele>
        <time>2014-07-08T12:15:47Z</time>
      </trkpt>
      <trkpt lat="59.780003" lon="17.7840413">
        <ele>27.0543</ele>
        <time>2014-07-08T12:15:48Z</time>
      </trkpt>
      <trkpt lat="59.7800715" lon="17.7840865">
        <ele>27.0543</ele>
        <time>2014-07-08T12:15:49Z</time>
      </trkpt>
      <trkpt lat="59.7801408" lon="17.7841304">
        <ele>27.5349</ele>
        <time>2014-07-08T12:15:50Z</time>
      </trkpt>
      <trkpt lat="59.7802097" lon="17.7841755">
        <ele>27.5349</ele>
        <time>2014-07-08T12:15:51Z</time>
      </trkpt>
      <trkpt lat="59.7802777" lon="17.7842243">
        <ele>27.5349</ele>
        <time>2014-07-08T12:15:52Z</time>
      </trkpt>
      <trkpt lat="59.7803451" lon="17.7842751">
        <ele>27.5349</ele>
        <time>2014-07-08T12:15:53Z</time>
      </trkpt>
      <trkpt lat="59.7804122" lon="17.7843264">
        <ele>27.5349</ele>
        <time>2014-07-08T12:15:54Z</time>
      </trkpt>
      <trkpt lat="59.7804787" lon="17.7843786">
        <ele>27.5349</ele>
        <time>2014-07-08T12:15:55Z</time>
      </trkpt>
      <trkpt lat="59.7805446" lon="17.7844321">
        <ele>28.0155</ele>
        <time>2014-07-08T12:15:56Z</time>
      </trkpt>
      <trkpt lat="59.7806096" lon="17.784489">
        <ele>28.0155</ele>
        <time>2014-07-08T12:15:57Z</time>
      </trkpt>
      <trkpt lat="59.7806728" lon="17.7845486">
        <ele>28.0155</ele>
        <time>2014-07-08T12:15:58Z</time>
      </trkpt>
      <trkpt lat="59.7807346" lon="17.7846096">
        <ele>28.0155</ele>
        <time>2014-07-08T12:15:59Z</time>
      </trkpt>
      <trkpt lat="59.7807952" lon="17.7846709">
        <ele>28.0155</ele>
        <time>2014-07-08T12:16:00Z</time>
      </trkpt>
      <trkpt lat="59.7808543" lon="17.7847324">
        <ele>28.0155</ele>
        <time>2014-07-08T12:16:01Z</time>
      </trkpt>
      <trkpt lat="59.7809122" lon="17.7847936">
        <ele>28.4962</ele>
        <time>2014-07-08T12:16:02Z</time>
      </trkpt>
      <trkpt lat="59.7809683" lon="17.7848552">
        <ele>28.4962</ele>
        <time>2014-07-08T12:16:03Z</time>
      </trkpt>
      <trkpt lat="59.7810237" lon="17.7849163">
        <ele>28.4962</ele>
        <time>2014-07-08T12:16:04Z</time>
      </trkpt>
      <trkpt lat="59.7810796" lon="17.7849737">
        <ele>28.4962</ele>
        <time>2014-07-08T12:16:05Z</time>
      </trkpt>
      <trkpt lat="59.7811358" lon="17.7850288">
        <ele>28.4962</ele>
        <time>2014-07-08T12:16:06Z</time>
      </trkpt>
      <trkpt lat="59.7811924" lon="17.7850831">
        <ele>28.4962</ele>
        <time>2014-07-08T12:16:07Z</time>
      </trkpt>
      <trkpt lat="59.78125" lon="17.785136">
        <ele>28.4962</ele>
        <time>2014-07-08T12:16:08Z</time>
      </trkpt>
      <trkpt lat="59.7813071" lon="17.7851893">
        <ele>28.4962</ele>
        <time>2014-07-08T12:16:09Z</time>
      </trkpt>
      <trkpt lat="59.7813635" lon="17.7852422">
        <ele>28.9769</ele>
        <time>2014-07-08T12:16:10Z</time>
      </trkpt>
      <trkpt lat="59.7814192" lon="17.785292">
        <ele>28.9769</ele>
        <time>2014-07-08T12:16:11Z</time>
      </trkpt>
      <trkpt lat="59.7814744" lon="17.78534">
        <ele>28.9769</ele>
        <time>2014-07-08T12:16:12Z</time>
      </trkpt>
      <trkpt lat="59.7815295" lon="17.7853889">
        <ele>28.9769</ele>
        <time>2014-07-08T12:16:13Z</time>
      </trkpt>
      <trkpt lat="59.7815851" lon="17.7854383">
        <ele>28.9769</ele>
        <time>2014-07-08T12:16:14Z</time>
      </trkpt>
      <trkpt lat="59.7816417" lon="17.7854872">
        <ele>28.9769</ele>
        <time>2014-07-08T12:16:15Z</time>
      </trkpt>
      <trkpt lat="59.7816997" lon="17.7855375">
        <ele>28.9769</ele>
        <time>2014-07-08T12:16:16Z</time>
      </trkpt>
      <trkpt lat="59.7817595" lon="17.7855897">
        <ele>28.9769</ele>
        <time>2014-07-08T12:16:17Z</time>
      </trkpt>
      <trkpt lat="59.781821" lon="17.785643">
        <ele>28.9769</ele>
        <time>2014-07-08T12:16:18Z</time>
      </trkpt>
      <trkpt lat="59.781884" lon="17.7856977">
        <ele>28.9769</ele>
        <time>2014-07-08T12:16:19Z</time>
      </trkpt>
      <trkpt lat="59.7819477" lon="17.7857549">
        <ele>28.9769</ele>
        <time>2014-07-08T12:16:20Z</time>
      </trkpt>
      <trkpt lat="59.7820111" lon="17.785812">
        <ele>28.9769</ele>
        <time>2014-07-08T12:16:21Z</time>
      </trkpt>
      <trkpt lat="59.7820741" lon="17.7858673">
        <ele>28.9769</ele>
        <time>2014-07-08T12:16:22Z</time>
      </trkpt>
      <trkpt lat="59.7821363" lon="17.7859211">
        <ele>28.9769</ele>
        <time>2014-07-08T12:16:23Z</time>
      </trkpt>
      <trkpt lat="59.7821974" lon="17.7859736">
        <ele>29.4575</ele>
        <time>2014-07-08T12:16:24Z</time>
      </trkpt>
      <trkpt lat="59.7822575" lon="17.7860244">
        <ele>29.4575</ele>
        <time>2014-07-08T12:16:25Z</time>
      </trkpt>
      <trkpt lat="59.7823123" lon="17.7860653">
        <ele>29.4575</ele>
        <time>2014-07-08T12:16:26Z</time>
      </trkpt>
      <trkpt lat="59.7823672" lon="17.7861058">
        <ele>29.9381</ele>
        <time>2014-07-08T12:16:27Z</time>
      </trkpt>
      <trkpt lat="59.7824223" lon="17.7861514">
        <ele>29.9381</ele>
        <time>2014-07-08T12:16:28Z</time>
      </trkpt>
      <trkpt lat="59.7824746" lon="17.7861897">
        <ele>30.4188</ele>
        <time>2014-07-08T12:16:29Z</time>
      </trkpt>
      <trkpt lat="59.7825264" lon="17.7862234">
        <ele>30.4188</ele>
        <time>2014-07-08T12:16:30Z</time>
      </trkpt>
      <trkpt lat="59.7825772" lon="17.7862569">
        <ele>30.8995</ele>
        <time>2014-07-08T12:16:31Z</time>
      </trkpt>
      <trkpt lat="59.7826279" lon="17.7862886">
        <ele>30.8995</ele>
        <time>2014-07-08T12:16:32Z</time>
      </trkpt>
      <trkpt lat="59.7826781" lon="17.7863186">
        <ele>30.8995</ele>
        <time>2014-07-08T12:16:33Z</time>
      </trkpt>
      <trkpt lat="59.7827289" lon="17.7863445">
        <ele>31.3801</ele>
        <time>2014-07-08T12:16:34Z</time>
      </trkpt>
      <trkpt lat="59.7827806" lon="17.7863672">
        <ele>31.3801</ele>
        <time>2014-07-08T12:16:35Z</time>
      </trkpt>
      <trkpt lat="59.7828324" lon="17.7863874">
        <ele>31.3801</ele>
        <time>2014-07-08T12:16:36Z</time>
      </trkpt>
      <trkpt lat="59.7828848" lon="17.7864021">
        <ele>31.3801</ele>
        <time>2014-07-08T12:16:37Z</time>
      </trkpt>
      <trkpt lat="59.7829382" lon="17.7864128">
        <ele>31.3801</ele>
        <time>2014-07-08T12:16:38Z</time>
      </trkpt>
      <trkpt lat="59.7829926" lon="17.7864227">
        <ele>31.3801</ele>
        <time>2014-07-08T12:16:39Z</time>
      </trkpt>
      <trkpt lat="59.7830481" lon="17.7864285">
        <ele>31.3801</ele>
        <time>2014-07-08T12:16:40Z</time>
      </trkpt>
      <trkpt lat="59.7831048" lon="17.7864295">
        <ele>31.3801</ele>
        <time>2014-07-08T12:16:41Z</time>
      </trkpt>
      <trkpt lat="59.7831629" lon="17.7864314">
        <ele>31.3801</ele>
        <time>2014-07-08T12:16:42Z</time>
      </trkpt>
      <trkpt lat="59.7832232" lon="17.7864381">
        <ele>31.3801</ele>
        <time>2014-07-08T12:16:43Z</time>
      </trkpt>
      <trkpt lat="59.7832853" lon="17.7864481">
        <ele>31.3801</ele>
        <time>2014-07-08T12:16:44Z</time>
      </trkpt>
      <trkpt lat="59.7833494" lon="17.7864602">
        <ele>31.3801</ele>
        <time>2014-07-08T12:16:45Z</time>
      </trkpt>
      <trkpt lat="59.7834148" lon="17.7864766">
        <ele>31.3801</ele>
        <time>2014-07-08T12:16:46Z</time>
      </trkpt>
      <trkpt lat="59.7834816" lon="17.7864979">
        <ele>31.3801</ele>
        <time>2014-07-08T12:16:47Z</time>
      </trkpt>
      <trkpt lat="59.7835477" lon="17.7865242">
        <ele>31.3801</ele>
        <time>2014-07-08T12:16:48Z</time>
      </trkpt>
      <trkpt lat="59.7836116" lon="17.7865563">
        <ele>31.8607</ele>
        <time>2014-07-08T12:16:49Z</time>
      </trkpt>
      <trkpt lat="59.7836734" lon="17.7865918">
        <ele>31.8607</ele>
        <time>2014-07-08T12:16:50Z</time>
      </trkpt>
      <trkpt lat="59.7837329" lon="17.7866284">
        <ele>32.3416</ele>
        <time>2014-07-08T12:16:51Z</time>
      </trkpt>
      <trkpt lat="59.7837906" lon="17.7866658">
        <ele>32.3416</ele>
        <time>2014-07-08T12:16:52Z</time>
      </trkpt>
      <trkpt lat="59.7838468" lon="17.7867045">
        <ele>32.8223</ele>
        <time>2014-07-08T12:16:53Z</time>
      </trkpt>
      <trkpt lat="59.7839016" lon="17.7867429">
        <ele>32.8223</ele>
        <time>2014-07-08T12:16:54Z</time>
      </trkpt>
      <trkpt lat="59.7839548" lon="17.7867802">
        <ele>33.3029</ele>
        <time>2014-07-08T12:16:55Z</time>
      </trkpt>
      <trkpt lat="59.784007" lon="17.786818">
        <ele>33.3029</ele>
        <time>2014-07-08T12:16:56Z</time>
      </trkpt>
      <trkpt lat="59.7840592" lon="17.7868569">
        <ele>33.7834</ele>
        <time>2014-07-08T12:16:57Z</time>
      </trkpt>
      <trkpt lat="59.7841109" lon="17.7868962">
        <ele>33.7834</ele>
        <time>2014-07-08T12:16:58Z</time>
      </trkpt>
      <trkpt lat="59.7841608" lon="17.786934">
        <ele>34.2642</ele>
        <time>2014-07-08T12:16:59Z</time>
      </trkpt>
      <trkpt lat="59.7842098" lon="17.7869712">
        <ele>34.2642</ele>
        <time>2014-07-08T12:17:00Z</time>
      </trkpt>
      <trkpt lat="59.7842597" lon="17.7870097">
        <ele>34.7449</ele>
        <time>2014-07-08T12:17:01Z</time>
      </trkpt>
      <trkpt lat="59.784311" lon="17.7870492">
        <ele>34.7449</ele>
        <time>2014-07-08T12:17:02Z</time>
      </trkpt>
      <trkpt lat="59.7843631" lon="17.7870895">
        <ele>35.2255</ele>
        <time>2014-07-08T12:17:03Z</time>
      </trkpt>
      <trkpt lat="59.7844153" lon="17.7871299">
        <ele>35.7061</ele>
        <time>2014-07-08T12:17:04Z</time>
      </trkpt>
      <trkpt lat="59.7844682" lon="17.7871703">
        <ele>36.1868</ele>
        <time>2014-07-08T12:17:05Z</time>
      </trkpt>
      <trkpt lat="59.7845216" lon="17.7872118">
        <ele>36.6675</ele>
        <time>2014-07-08T12:17:06Z</time>
      </trkpt>
      <trkpt lat="59.7845747" lon="17.7872589">
        <ele>37.1481</ele>
        <time>2014-07-08T12:17:07Z</time>
      </trkpt>
      <trkpt lat="59.784629" lon="17.7873113">
        <ele>37.1481</ele>
        <time>2014-07-08T12:17:08Z</time>
      </trkpt>
      <trkpt lat="59.7846855" lon="17.7873666">
        <ele>37.6287</ele>
        <time>2014-07-08T12:17:09Z</time>
      </trkpt>
      <trkpt lat="59.7847403" lon="17.7874268">
        <ele>37.6287</ele>
        <time>2014-07-08T12:17:10Z</time>
      </trkpt>
      <trkpt lat="59.7847926" lon="17.7874879">
        <ele>38.1094</ele>
        <time>2014-07-08T12:17:11Z</time>
      </trkpt>
      <trkpt lat="59.7848439" lon="17.7875479">
        <ele>38.1094</ele>
        <time>2014-07-08T12:17:12Z</time>
      </trkpt>
      <trkpt lat="59.7848943" lon="17.7876096">
        <ele>38.1094</ele>
        <time>2014-07-08T12:17:13Z</time>
      </trkpt>
      <trkpt lat="59.7849449" lon="17.7876706">
        <ele>38.1094</ele>
        <time>2014-07-08T12:17:14Z</time>
      </trkpt>
      <trkpt lat="59.7849943" lon="17.7877297">
        <ele>38.1094</ele>
        <time>2014-07-08T12:17:15Z</time>
      </trkpt>
      <trkpt lat="59.7850423" lon="17.787788">
        <ele>38.1094</ele>
        <time>2014-07-08T12:17:16Z</time>
      </trkpt>
      <trkpt lat="59.7850895" lon="17.7878452">
        <ele>38.1094</ele>
        <time>2014-07-08T12:17:17Z</time>
      </trkpt>
      <trkpt lat="59.7851354" lon="17.7879018">
        <ele>38.1094</ele>
        <time>2014-07-08T12:17:18Z</time>
      </trkpt>
      <trkpt lat="59.7851797" lon="17.7879571">
        <ele>38.1094</ele>
        <time>2014-07-08T12:17:19Z</time>
      </trkpt>
      <trkpt lat="59.7852243" lon="17.788012">
        <ele>38.1094</ele>
        <time>2014-07-08T12:17:20Z</time>
      </trkpt>
      <trkpt lat="59.7852701" lon="17.788065">
        <ele>38.1094</ele>
        <time>2014-07-08T12:17:21Z</time>
      </trkpt>
      <trkpt lat="59.7853157" lon="17.7881085">
        <ele>38.1094</ele>
        <time>2014-07-08T12:17:22Z</time>
      </trkpt>
      <trkpt lat="59.7853604" lon="17.7881513">
        <ele>38.1094</ele>
        <time>2014-07-08T12:17:23Z</time>
      </trkpt>
      <trkpt lat="59.7854032" lon="17.7882057">
        <ele>37.6287</ele>
        <time>2014-07-08T12:17:24Z</time>
      </trkpt>
      <trkpt lat="59.7854474" lon="17.7882611">
        <ele>37.6287</ele>
        <time>2014-07-08T12:17:25Z</time>
      </trkpt>
      <trkpt lat="59.7854945" lon="17.7883145">
        <ele>37.6287</ele>
        <time>2014-07-08T12:17:26Z</time>
      </trkpt>
      <trkpt lat="59.7855437" lon="17.7883683">
        <ele>37.6287</ele>
        <time>2014-07-08T12:17:27Z</time>
      </trkpt>
      <trkpt lat="59.7855943" lon="17.7884191">
        <ele>37.6287</ele>
        <time>2014-07-08T12:17:28Z</time>
      </trkpt>
      <trkpt lat="59.7856461" lon="17.7884631">
        <ele>37.6287</ele>
        <time>2014-07-08T12:17:29Z</time>
      </trkpt>
      <trkpt lat="59.7856987" lon="17.7884982">
        <ele>37.1481</ele>
        <time>2014-07-08T12:17:30Z</time>
      </trkpt>
      <trkpt lat="59.7857526" lon="17.7885276">
        <ele>37.1481</ele>
        <time>2014-07-08T12:17:31Z</time>
      </trkpt>
      <trkpt lat="59.7858078" lon="17.7885512">
        <ele>37.1481</ele>
        <time>2014-07-08T12:17:32Z</time>
      </trkpt>
      <trkpt lat="59.7858638" lon="17.788572">
        <ele>37.1481</ele>
        <time>2014-07-08T12:17:33Z</time>
      </trkpt>
      <trkpt lat="59.7859207" lon="17.788591">
        <ele>37.1481</ele>
        <time>2014-07-08T12:17:34Z</time>
      </trkpt>
      <trkpt lat="59.7859762" lon="17.788607">
        <ele>37.1481</ele>
        <time>2014-07-08T12:17:35Z</time>
      </trkpt>
      <trkpt lat="59.786031" lon="17.7886239">
        <ele>37.6287</ele>
        <time>2014-07-08T12:17:36Z</time>
      </trkpt>
      <trkpt lat="59.7860852" lon="17.7886425">
        <ele>37.6287</ele>
        <time>2014-07-08T12:17:37Z</time>
      </trkpt>
      <trkpt lat="59.7861388" lon="17.7886584">
        <ele>37.6287</ele>
        <time>2014-07-08T12:17:38Z</time>
      </trkpt>
      <trkpt lat="59.7861918" lon="17.788672">
        <ele>37.6287</ele>
        <time>2014-07-08T12:17:39Z</time>
      </trkpt>
      <trkpt lat="59.7862424" lon="17.7886833">
        <ele>37.6287</ele>
        <time>2014-07-08T12:17:40Z</time>
      </trkpt>
      <trkpt lat="59.7862903" lon="17.7886915">
        <ele>38.1094</ele>
        <time>2014-07-08T12:17:41Z</time>
      </trkpt>
      <trkpt lat="59.7863315" lon="17.7887001">
        <ele>38.1094</ele>
        <time>2014-07-08T12:17:42Z</time>
      </trkpt>
      <trkpt lat="59.7863637" lon="17.7887088">
        <ele>38.1094</ele>
        <time>2014-07-08T12:17:43Z</time>
      </trkpt>
      <trkpt lat="59.7863887" lon="17.7887253">
        <ele>38.1094</ele>
        <time>2014-07-08T12:17:44Z</time>
      </trkpt>
      <trkpt lat="59.7864045" lon="17.7887595">
        <ele>38.5901</ele>
        <time>2014-07-08T12:17:45Z</time>
      </trkpt>
      <trkpt lat="59.7864094" lon="17.7888045">
        <ele>38.1094</ele>
        <time>2014-07-08T12:17:46Z</time>
      </trkpt>
      <trkpt lat="59.7864073" lon="17.7888541">
        <ele>38.5901</ele>
        <time>2014-07-08T12:17:47Z</time>
      </trkpt>
      <trkpt lat="59.7863984" lon="17.7889008">
        <ele>38.1094</ele>
        <time>2014-07-08T12:17:48Z</time>
      </trkpt>
      <trkpt lat="59.7863891" lon="17.7889443">
        <ele>38.1094</ele>
        <time>2014-07-08T12:17:49Z</time>
      </trkpt>
      <trkpt lat="59.7863814" lon="17.7889904">
        <ele>37.6287</ele>
        <time>2014-07-08T12:17:50Z</time>
      </trkpt>
      <trkpt lat="59.7863717" lon="17.7890435">
        <ele>37.6287</ele>
        <time>2014-07-08T12:17:51Z</time>
      </trkpt>
      <trkpt lat="59.7863618" lon="17.7890972">
        <ele>37.1481</ele>
        <time>2014-07-08T12:17:52Z</time>
      </trkpt>
      <trkpt lat="59.7863538" lon="17.789146">
        <ele>36.6675</ele>
        <time>2014-07-08T12:17:53Z</time>
      </trkpt>
      <trkpt lat="59.7863473" lon="17.7891903">
        <ele>36.6675</ele>
        <time>2014-07-08T12:17:54Z</time>
      </trkpt>
      <trkpt lat="59.7863435" lon="17.7892287">
        <ele>36.1868</ele>
        <time>2014-07-08T12:17:55Z</time>
      </trkpt>
      <trkpt lat="59.7863426" lon="17.7892681">
        <ele>35.7061</ele>
        <time>2014-07-08T12:17:56Z</time>
      </trkpt>
      <trkpt lat="59.786346" lon="17.7893115">
        <ele>35.7061</ele>
        <time>2014-07-08T12:17:57Z</time>
      </trkpt>
      <trkpt lat="59.786354" lon="17.7893475">
        <ele>35.7061</ele>
        <time>2014-07-08T12:17:58Z</time>
      </trkpt>
      <trkpt lat="59.7863659" lon="17.7893702">
        <ele>35.7061</ele>
        <time>2014-07-08T12:17:59Z</time>
      </trkpt>
      <trkpt lat="59.7863757" lon="17.789377">
        <ele>35.7061</ele>
        <time>2014-07-08T12:18:00Z</time>
      </trkpt>
      <trkpt lat="59.7863829" lon="17.789376">
        <ele>35.7061</ele>
        <time>2014-07-08T12:18:01Z</time>
      </trkpt>
      <trkpt lat="59.7863903" lon="17.7893748">
        <ele>35.7061</ele>
        <time>2014-07-08T12:18:02Z</time>
      </trkpt>
      <trkpt lat="59.7863923" lon="17.7893729">
        <ele>35.7061</ele>
        <time>2014-07-08T12:18:03Z</time>
      </trkpt>
      <trkpt lat="59.7863911" lon="17.7893687">
        <ele>35.7061</ele>
        <time>2014-07-08T12:18:04Z</time>
      </trkpt>
      <trkpt lat="59.786482" lon="17.7887046">
        <ele>28.0155</ele>
        <time>2014-07-08T12:31:01Z</time>
      </trkpt>
      <trkpt lat="59.786513" lon="17.7887114">
        <ele>28.0155</ele>
        <time>2014-07-08T12:31:02Z</time>
      </trkpt>
      <trkpt lat="59.7865506" lon="17.7887045">
        <ele>27.5349</ele>
        <time>2014-07-08T12:31:03Z</time>
      </trkpt>
      <trkpt lat="59.7865996" lon="17.7886916">
        <ele>28.0155</ele>
        <time>2014-07-08T12:31:04Z</time>
      </trkpt>
      <trkpt lat="59.7866531" lon="17.7886725">
        <ele>27.5349</ele>
        <time>2014-07-08T12:31:05Z</time>
      </trkpt>
      <trkpt lat="59.7867165" lon="17.7886563">
        <ele>28.9769</ele>
        <time>2014-07-08T12:31:06Z</time>
      </trkpt>
      <trkpt lat="59.7867792" lon="17.7886277">
        <ele>29.4575</ele>
        <time>2014-07-08T12:31:07Z</time>
      </trkpt>
      <trkpt lat="59.7868435" lon="17.7885978">
        <ele>29.9381</ele>
        <time>2014-07-08T12:31:08Z</time>
      </trkpt>
      <trkpt lat="59.7869093" lon="17.7885591">
        <ele>30.4188</ele>
        <time>2014-07-08T12:31:09Z</time>
      </trkpt>
      <trkpt lat="59.7869761" lon="17.7885083">
        <ele>30.4188</ele>
        <time>2014-07-08T12:31:10Z</time>
      </trkpt>
      <trkpt lat="59.7870417" lon="17.7884464">
        <ele>30.8995</ele>
        <time>2014-07-08T12:31:11Z</time>
      </trkpt>
      <trkpt lat="59.7871021" lon="17.78837">
        <ele>30.8995</ele>
        <time>2014-07-08T12:31:12Z</time>
      </trkpt>
      <trkpt lat="59.7871641" lon="17.7882892">
        <ele>30.4188</ele>
        <time>2014-07-08T12:31:13Z</time>
      </trkpt>
      <trkpt lat="59.7872282" lon="17.7882076">
        <ele>30.4188</ele>
        <time>2014-07-08T12:31:14Z</time>
      </trkpt>
      <trkpt lat="59.7872901" lon="17.7881214">
        <ele>30.8995</ele>
        <time>2014-07-08T12:31:15Z</time>
      </trkpt>
      <trkpt lat="59.7873515" lon="17.7880363">
        <ele>31.3801</ele>
        <time>2014-07-08T12:31:16Z</time>
      </trkpt>
      <trkpt lat="59.7874118" lon="17.7879447">
        <ele>31.3801</ele>
        <time>2014-07-08T12:31:17Z</time>
      </trkpt>
      <trkpt lat="59.7874595" lon="17.7878512">
        <ele>29.9381</ele>
        <time>2014-07-08T12:31:18Z</time>
      </trkpt>
      <trkpt lat="59.7875156" lon="17.7877618">
        <ele>30.8995</ele>
        <time>2014-07-08T12:31:19Z</time>
      </trkpt>
      <trkpt lat="59.7875793" lon="17.7876686">
        <ele>31.8607</ele>
        <time>2014-07-08T12:31:20Z</time>
      </trkpt>
      <trkpt lat="59.7876376" lon="17.7875754">
        <ele>31.8607</ele>
        <time>2014-07-08T12:31:21Z</time>
      </trkpt>
      <trkpt lat="59.7876931" lon="17.7874783">
        <ele>31.3801</ele>
        <time>2014-07-08T12:31:22Z</time>
      </trkpt>
      <trkpt lat="59.7877583" lon="17.7873903">
        <ele>31.8607</ele>
        <time>2014-07-08T12:31:23Z</time>
      </trkpt>
      <trkpt lat="59.7878267" lon="17.787307">
        <ele>32.8223</ele>
        <time>2014-07-08T12:31:24Z</time>
      </trkpt>
      <trkpt lat="59.7878914" lon="17.7872256">
        <ele>33.3029</ele>
        <time>2014-07-08T12:31:25Z</time>
      </trkpt>
      <trkpt lat="59.7879639" lon="17.787155">
        <ele>34.7449</ele>
        <time>2014-07-08T12:31:26Z</time>
      </trkpt>
      <trkpt lat="59.7880281" lon="17.7870922">
        <ele>34.7449</ele>
        <time>2014-07-08T12:31:27Z</time>
      </trkpt>
      <trkpt lat="59.7880901" lon="17.787033">
        <ele>34.7449</ele>
        <time>2014-07-08T12:31:28Z</time>
      </trkpt>
      <trkpt lat="59.7881442" lon="17.7869675">
        <ele>34.7449</ele>
        <time>2014-07-08T12:31:29Z</time>
      </trkpt>
      <trkpt lat="59.7881937" lon="17.7869022">
        <ele>34.7449</ele>
        <time>2014-07-08T12:31:30Z</time>
      </trkpt>
      <trkpt lat="59.7882456" lon="17.7868366">
        <ele>33.7834</ele>
        <time>2014-07-08T12:31:31Z</time>
      </trkpt>
      <trkpt lat="59.7882991" lon="17.786776">
        <ele>33.7834</ele>
        <time>2014-07-08T12:31:32Z</time>
      </trkpt>
      <trkpt lat="59.7883499" lon="17.7867166">
        <ele>33.3029</ele>
        <time>2014-07-08T12:31:33Z</time>
      </trkpt>
      <trkpt lat="59.7883994" lon="17.7866512">
        <ele>32.3416</ele>
        <time>2014-07-08T12:31:34Z</time>
      </trkpt>
      <trkpt lat="59.7884549" lon="17.7865797">
        <ele>32.3416</ele>
        <time>2014-07-08T12:31:35Z</time>
      </trkpt>
      <trkpt lat="59.7885115" lon="17.7865035">
        <ele>31.8607</ele>
        <time>2014-07-08T12:31:36Z</time>
      </trkpt>
      <trkpt lat="59.7885679" lon="17.7864216">
        <ele>31.3801</ele>
        <time>2014-07-08T12:31:37Z</time>
      </trkpt>
      <trkpt lat="59.7886274" lon="17.7863404">
        <ele>30.8995</ele>
        <time>2014-07-08T12:31:38Z</time>
      </trkpt>
      <trkpt lat="59.7886796" lon="17.7862573">
        <ele>29.9381</ele>
        <time>2014-07-08T12:31:39Z</time>
      </trkpt>
      <trkpt lat="59.7887377" lon="17.7861827">
        <ele>30.4188</ele>
        <time>2014-07-08T12:31:40Z</time>
      </trkpt>
      <trkpt lat="59.7887962" lon="17.7861145">
        <ele>30.8995</ele>
        <time>2014-07-08T12:31:41Z</time>
      </trkpt>
      <trkpt lat="59.7888511" lon="17.7860442">
        <ele>31.8607</ele>
        <time>2014-07-08T12:31:42Z</time>
      </trkpt>
      <trkpt lat="59.7889015" lon="17.7859716">
        <ele>31.8607</ele>
        <time>2014-07-08T12:31:43Z</time>
      </trkpt>
      <trkpt lat="59.7889476" lon="17.7858975">
        <ele>31.8607</ele>
        <time>2014-07-08T12:31:44Z</time>
      </trkpt>
      <trkpt lat="59.7889911" lon="17.7858285">
        <ele>31.8607</ele>
        <time>2014-07-08T12:31:45Z</time>
      </trkpt>
      <trkpt lat="59.7890336" lon="17.7857611">
        <ele>31.8607</ele>
        <time>2014-07-08T12:31:46Z</time>
      </trkpt>
      <trkpt lat="59.7890733" lon="17.7856991">
        <ele>31.3801</ele>
        <time>2014-07-08T12:31:47Z</time>
      </trkpt>
      <trkpt lat="59.7891176" lon="17.7856409">
        <ele>31.3801</ele>
        <time>2014-07-08T12:31:48Z</time>
      </trkpt>
      <trkpt lat="59.7891641" lon="17.7855834">
        <ele>31.3801</ele>
        <time>2014-07-08T12:31:49Z</time>
      </trkpt>
      <trkpt lat="59.7892108" lon="17.7855223">
        <ele>31.3801</ele>
        <time>2014-07-08T12:31:50Z</time>
      </trkpt>
      <trkpt lat="59.7892577" lon="17.7854588">
        <ele>30.8995</ele>
        <time>2014-07-08T12:31:51Z</time>
      </trkpt>
      <trkpt lat="59.7893049" lon="17.7853936">
        <ele>30.4188</ele>
        <time>2014-07-08T12:31:52Z</time>
      </trkpt>
      <trkpt lat="59.7893557" lon="17.7853322">
        <ele>30.4188</ele>
        <time>2014-07-08T12:31:53Z</time>
      </trkpt>
      <trkpt lat="59.7894092" lon="17.785275">
        <ele>29.9381</ele>
        <time>2014-07-08T12:31:54Z</time>
      </trkpt>
      <trkpt lat="59.7894655" lon="17.7852216">
        <ele>29.9381</ele>
        <time>2014-07-08T12:31:55Z</time>
      </trkpt>
      <trkpt lat="59.7895212" lon="17.7851748">
        <ele>29.9381</ele>
        <time>2014-07-08T12:31:56Z</time>
      </trkpt>
      <trkpt lat="59.7895755" lon="17.7851377">
        <ele>29.9381</ele>
        <time>2014-07-08T12:31:57Z</time>
      </trkpt>
      <trkpt lat="59.7896298" lon="17.7851068">
        <ele>30.4188</ele>
        <time>2014-07-08T12:31:58Z</time>
      </trkpt>
      <trkpt lat="59.7896843" lon="17.7850801">
        <ele>30.4188</ele>
        <time>2014-07-08T12:31:59Z</time>
      </trkpt>
      <trkpt lat="59.7897379" lon="17.7850602">
        <ele>30.4188</ele>
        <time>2014-07-08T12:32:00Z</time>
      </trkpt>
      <trkpt lat="59.7897918" lon="17.7850453">
        <ele>30.4188</ele>
        <time>2014-07-08T12:32:01Z</time>
      </trkpt>
      <trkpt lat="59.7898453" lon="17.7850335">
        <ele>30.4188</ele>
        <time>2014-07-08T12:32:02Z</time>
      </trkpt>
      <trkpt lat="59.7898985" lon="17.7850239">
        <ele>30.4188</ele>
        <time>2014-07-08T12:32:03Z</time>
      </trkpt>
      <trkpt lat="59.7899501" lon="17.7850158">
        <ele>30.4188</ele>
        <time>2014-07-08T12:32:04Z</time>
      </trkpt>
      <trkpt lat="59.7900024" lon="17.7850077">
        <ele>30.4188</ele>
        <time>2014-07-08T12:32:05Z</time>
      </trkpt>
      <trkpt lat="59.7900566" lon="17.7850013">
        <ele>30.4188</ele>
        <time>2014-07-08T12:32:06Z</time>
      </trkpt>
      <trkpt lat="59.7901111" lon="17.7849947">
        <ele>30.8995</ele>
        <time>2014-07-08T12:32:07Z</time>
      </trkpt>
      <trkpt lat="59.7901651" lon="17.7849878">
        <ele>30.8995</ele>
        <time>2014-07-08T12:32:08Z</time>
      </trkpt>
      <trkpt lat="59.7902184" lon="17.7849817">
        <ele>30.8995</ele>
        <time>2014-07-08T12:32:09Z</time>
      </trkpt>
      <trkpt lat="59.7902717" lon="17.7849754">
        <ele>30.8995</ele>
        <time>2014-07-08T12:32:10Z</time>
      </trkpt>
      <trkpt lat="59.7903248" lon="17.7849661">
        <ele>30.8995</ele>
        <time>2014-07-08T12:32:11Z</time>
      </trkpt>
      <trkpt lat="59.7903778" lon="17.7849547">
        <ele>30.8995</ele>
        <time>2014-07-08T12:32:12Z</time>
      </trkpt>
      <trkpt lat="59.7904317" lon="17.7849437">
        <ele>30.4188</ele>
        <time>2014-07-08T12:32:13Z</time>
      </trkpt>
      <trkpt lat="59.7904881" lon="17.7849292">
        <ele>30.4188</ele>
        <time>2014-07-08T12:32:14Z</time>
      </trkpt>
      <trkpt lat="59.7905468" lon="17.7849111">
        <ele>30.4188</ele>
        <time>2014-07-08T12:32:15Z</time>
      </trkpt>
      <trkpt lat="59.7906071" lon="17.7848967">
        <ele>30.4188</ele>
        <time>2014-07-08T12:32:16Z</time>
      </trkpt>
      <trkpt lat="59.7906674" lon="17.7848834">
        <ele>30.4188</ele>
        <time>2014-07-08T12:32:17Z</time>
      </trkpt>
      <trkpt lat="59.7907288" lon="17.7848673">
        <ele>30.4188</ele>
        <time>2014-07-08T12:32:18Z</time>
      </trkpt>
      <trkpt lat="59.7907931" lon="17.7848506">
        <ele>30.4188</ele>
        <time>2014-07-08T12:32:19Z</time>
      </trkpt>
      <trkpt lat="59.7908591" lon="17.7848383">
        <ele>30.4188</ele>
        <time>2014-07-08T12:32:20Z</time>
      </trkpt>
      <trkpt lat="59.790928" lon="17.7848319">
        <ele>30.4188</ele>
        <time>2014-07-08T12:32:21Z</time>
      </trkpt>
      <trkpt lat="59.7909967" lon="17.7848356">
        <ele>29.9381</ele>
        <time>2014-07-08T12:32:22Z</time>
      </trkpt>
      <trkpt lat="59.7910676" lon="17.7848546">
        <ele>30.4188</ele>
        <time>2014-07-08T12:32:23Z</time>
      </trkpt>
      <trkpt lat="59.791137" lon="17.7848889">
        <ele>30.4188</ele>
        <time>2014-07-08T12:32:24Z</time>
      </trkpt>
      <trkpt lat="59.7911979" lon="17.7849385">
        <ele>30.4188</ele>
        <time>2014-07-08T12:32:25Z</time>
      </trkpt>
      <trkpt lat="59.7912575" lon="17.7849986">
        <ele>29.9381</ele>
        <time>2014-07-08T12:32:26Z</time>
      </trkpt>
      <trkpt lat="59.791314" lon="17.785064">
        <ele>29.9381</ele>
        <time>2014-07-08T12:32:27Z</time>
      </trkpt>
      <trkpt lat="59.7913691" lon="17.785134">
        <ele>29.9381</ele>
        <time>2014-07-08T12:32:28Z</time>
      </trkpt>
      <trkpt lat="59.7914216" lon="17.7852146">
        <ele>29.9381</ele>
        <time>2014-07-08T12:32:29Z</time>
      </trkpt>
      <trkpt lat="59.7914708" lon="17.7852915">
        <ele>29.9381</ele>
        <time>2014-07-08T12:32:30Z</time>
      </trkpt>
      <trkpt lat="59.7915242" lon="17.785361">
        <ele>29.4575</ele>
        <time>2014-07-08T12:32:31Z</time>
      </trkpt>
      <trkpt lat="59.7915827" lon="17.7854272">
        <ele>28.9769</ele>
        <time>2014-07-08T12:32:32Z</time>
      </trkpt>
      <trkpt lat="59.7916433" lon="17.785499">
        <ele>29.4575</ele>
        <time>2014-07-08T12:32:33Z</time>
      </trkpt>
      <trkpt lat="59.791705" lon="17.785566">
        <ele>29.9381</ele>
        <time>2014-07-08T12:32:34Z</time>
      </trkpt>
      <trkpt lat="59.7917683" lon="17.7856266">
        <ele>29.9381</ele>
        <time>2014-07-08T12:32:35Z</time>
      </trkpt>
      <trkpt lat="59.7918338" lon="17.7856784">
        <ele>29.9381</ele>
        <time>2014-07-08T12:32:36Z</time>
      </trkpt>
      <trkpt lat="59.7919006" lon="17.7857256">
        <ele>30.4188</ele>
        <time>2014-07-08T12:32:37Z</time>
      </trkpt>
      <trkpt lat="59.7919676" lon="17.7857704">
        <ele>29.9381</ele>
        <time>2014-07-08T12:32:38Z</time>
      </trkpt>
      <trkpt lat="59.7920353" lon="17.7858136">
        <ele>29.9381</ele>
        <time>2014-07-08T12:32:39Z</time>
      </trkpt>
      <trkpt lat="59.7921042" lon="17.785854">
        <ele>29.9381</ele>
        <time>2014-07-08T12:32:40Z</time>
      </trkpt>
      <trkpt lat="59.7921728" lon="17.7858928">
        <ele>29.4575</ele>
        <time>2014-07-08T12:32:41Z</time>
      </trkpt>
      <trkpt lat="59.7922426" lon="17.7859334">
        <ele>30.4188</ele>
        <time>2014-07-08T12:32:42Z</time>
      </trkpt>
      <trkpt lat="59.7923096" lon="17.7859628">
        <ele>29.9381</ele>
        <time>2014-07-08T12:32:43Z</time>
      </trkpt>
      <trkpt lat="59.7923785" lon="17.7859799">
        <ele>29.4575</ele>
        <time>2014-07-08T12:32:44Z</time>
      </trkpt>
      <trkpt lat="59.7924494" lon="17.7859898">
        <ele>29.4575</ele>
        <time>2014-07-08T12:32:45Z</time>
      </trkpt>
      <trkpt lat="59.7925207" lon="17.7859952">
        <ele>29.4575</ele>
        <time>2014-07-08T12:32:46Z</time>
      </trkpt>
      <trkpt lat="59.7925913" lon="17.7860006">
        <ele>29.4575</ele>
        <time>2014-07-08T12:32:47Z</time>
      </trkpt>
      <trkpt lat="59.7926618" lon="17.7860038">
        <ele>29.4575</ele>
        <time>2014-07-08T12:32:48Z</time>
      </trkpt>
      <trkpt lat="59.7927316" lon="17.7860068">
        <ele>29.4575</ele>
        <time>2014-07-08T12:32:49Z</time>
      </trkpt>
      <trkpt lat="59.7928009" lon="17.7860136">
        <ele>29.4575</ele>
        <time>2014-07-08T12:32:50Z</time>
      </trkpt>
      <trkpt lat="59.7928688" lon="17.7860223">
        <ele>29.4575</ele>
        <time>2014-07-08T12:32:51Z</time>
      </trkpt>
      <trkpt lat="59.7929352" lon="17.7860286">
        <ele>28.9769</ele>
        <time>2014-07-08T12:32:52Z</time>
      </trkpt>
      <trkpt lat="59.7930005" lon="17.7860331">
        <ele>28.9769</ele>
        <time>2014-07-08T12:32:53Z</time>
      </trkpt>
      <trkpt lat="59.7930653" lon="17.7860358">
        <ele>28.9769</ele>
        <time>2014-07-08T12:32:54Z</time>
      </trkpt>
      <trkpt lat="59.7931295" lon="17.7860425">
        <ele>28.9769</ele>
        <time>2014-07-08T12:32:55Z</time>
      </trkpt>
      <trkpt lat="59.7931947" lon="17.7860545">
        <ele>28.9769</ele>
        <time>2014-07-08T12:32:56Z</time>
      </trkpt>
      <trkpt lat="59.7932581" lon="17.7860662">
        <ele>28.9769</ele>
        <time>2014-07-08T12:32:57Z</time>
      </trkpt>
      <trkpt lat="59.7933174" lon="17.786072">
        <ele>28.4962</ele>
        <time>2014-07-08T12:32:58Z</time>
      </trkpt>
      <trkpt lat="59.7933801" lon="17.7860881">
        <ele>28.4962</ele>
        <time>2014-07-08T12:32:59Z</time>
      </trkpt>
      <trkpt lat="59.7934435" lon="17.7861238">
        <ele>28.9769</ele>
        <time>2014-07-08T12:33:00Z</time>
      </trkpt>
      <trkpt lat="59.7935038" lon="17.7861658">
        <ele>28.4962</ele>
        <time>2014-07-08T12:33:01Z</time>
      </trkpt>
      <trkpt lat="59.7935637" lon="17.786216">
        <ele>28.4962</ele>
        <time>2014-07-08T12:33:02Z</time>
      </trkpt>
      <trkpt lat="59.7936195" lon="17.7862802">
        <ele>28.0155</ele>
        <time>2014-07-08T12:33:03Z</time>
      </trkpt>
      <trkpt lat="59.7936702" lon="17.7863659">
        <ele>28.0155</ele>
        <time>2014-07-08T12:33:04Z</time>
      </trkpt>
      <trkpt lat="59.7937164" lon="17.7864611">
        <ele>28.4962</ele>
        <time>2014-07-08T12:33:05Z</time>
      </trkpt>
      <trkpt lat="59.7937588" lon="17.7865659">
        <ele>28.4962</ele>
        <time>2014-07-08T12:33:06Z</time>
      </trkpt>
      <trkpt lat="59.7937946" lon="17.7866708">
        <ele>27.5349</ele>
        <time>2014-07-08T12:33:07Z</time>
      </trkpt>
      <trkpt lat="59.7938248" lon="17.7867854">
        <ele>27.0543</ele>
        <time>2014-07-08T12:33:08Z</time>
      </trkpt>
      <trkpt lat="59.7938516" lon="17.7869046">
        <ele>26.5736</ele>
        <time>2014-07-08T12:33:09Z</time>
      </trkpt>
      <trkpt lat="59.7938749" lon="17.7870288">
        <ele>26.0929</ele>
        <time>2014-07-08T12:33:10Z</time>
      </trkpt>
      <trkpt lat="59.7938968" lon="17.7871542">
        <ele>26.0929</ele>
        <time>2014-07-08T12:33:11Z</time>
      </trkpt>
      <trkpt lat="59.7939184" lon="17.7872796">
        <ele>25.1317</ele>
        <time>2014-07-08T12:33:12Z</time>
      </trkpt>
      <trkpt lat="59.7939393" lon="17.7874063">
        <ele>24.651</ele>
        <time>2014-07-08T12:33:13Z</time>
      </trkpt>
      <trkpt lat="59.7939589" lon="17.7875376">
        <ele>24.1703</ele>
        <time>2014-07-08T12:33:14Z</time>
      </trkpt>
      <trkpt lat="59.7939785" lon="17.7876669">
        <ele>23.6896</ele>
        <time>2014-07-08T12:33:15Z</time>
      </trkpt>
      <trkpt lat="59.7939985" lon="17.7877922">
        <ele>23.209</ele>
        <time>2014-07-08T12:33:16Z</time>
      </trkpt>
      <trkpt lat="59.7940184" lon="17.7879114">
        <ele>22.2476</ele>
        <time>2014-07-08T12:33:17Z</time>
      </trkpt>
      <trkpt lat="59.7940407" lon="17.7880255">
        <ele>21.767</ele>
        <time>2014-07-08T12:33:18Z</time>
      </trkpt>
      <trkpt lat="59.7940666" lon="17.7881353">
        <ele>20.8057</ele>
        <time>2014-07-08T12:33:19Z</time>
      </trkpt>
      <trkpt lat="59.7940977" lon="17.7882421">
        <ele>20.8057</ele>
        <time>2014-07-08T12:33:20Z</time>
      </trkpt>
      <trkpt lat="59.7941324" lon="17.7883393">
        <ele>19.8444</ele>
        <time>2014-07-08T12:33:21Z</time>
      </trkpt>
      <trkpt lat="59.7941681" lon="17.7884237">
        <ele>19.3638</ele>
        <time>2014-07-08T12:33:22Z</time>
      </trkpt>
      <trkpt lat="59.7942043" lon="17.7884969">
        <ele>18.8831</ele>
        <time>2014-07-08T12:33:23Z</time>
      </trkpt>
      <trkpt lat="59.7942432" lon="17.7885627">
        <ele>18.4023</ele>
        <time>2014-07-08T12:33:24Z</time>
      </trkpt>
      <trkpt lat="59.794281" lon="17.788617">
        <ele>16.9604</ele>
        <time>2014-07-08T12:33:25Z</time>
      </trkpt>
      <trkpt lat="59.7943169" lon="17.788665">
        <ele>15.999</ele>
        <time>2014-07-08T12:33:26Z</time>
      </trkpt>
      <trkpt lat="59.7943511" lon="17.7887123">
        <ele>15.0377</ele>
        <time>2014-07-08T12:33:27Z</time>
      </trkpt>
      <trkpt lat="59.794384" lon="17.788758">
        <ele>14.0764</ele>
        <time>2014-07-08T12:33:28Z</time>
      </trkpt>
      <trkpt lat="59.7944155" lon="17.7887968">
        <ele>13.5958</ele>
        <time>2014-07-08T12:33:29Z</time>
      </trkpt>
      <trkpt lat="59.7944453" lon="17.7888365">
        <ele>13.1151</ele>
        <time>2014-07-08T12:33:30Z</time>
      </trkpt>
      <trkpt lat="59.7944649" lon="17.7888807">
        <ele>13.1151</ele>
        <time>2014-07-08T12:33:31Z</time>
      </trkpt>
      <trkpt lat="59.7944712" lon="17.7889181">
        <ele>12.6344</ele>
        <time>2014-07-08T12:33:32Z</time>
      </trkpt>
      <trkpt lat="59.7944736" lon="17.7889473">
        <ele>12.6344</ele>
        <time>2014-07-08T12:33:33Z</time>
      </trkpt>
      <trkpt lat="59.7944749" lon="17.7889754">
        <ele>13.1151</ele>
        <time>2014-07-08T12:33:34Z</time>
      </trkpt>
      <trkpt lat="59.7944782" lon="17.7890051">
        <ele>13.1151</ele>
        <time>2014-07-08T12:33:35Z</time>
      </trkpt>
      <trkpt lat="59.7944901" lon="17.7890325">
        <ele>13.1151</ele>
        <time>2014-07-08T12:33:36Z</time>
      </trkpt>
      <trkpt lat="59.7945121" lon="17.7890466">
        <ele>13.1151</ele>
        <time>2014-07-08T12:33:37Z</time>
      </trkpt>
      <trkpt lat="59.7945405" lon="17.7890476">
        <ele>13.1151</ele>
        <time>2014-07-08T12:33:38Z</time>
      </trkpt>
      <trkpt lat="59.7945753" lon="17.7890512">
        <ele>12.6344</ele>
        <time>2014-07-08T12:33:39Z</time>
      </trkpt>
      <trkpt lat="59.7946171" lon="17.7890728">
        <ele>12.6344</ele>
        <time>2014-07-08T12:33:40Z</time>
      </trkpt>
      <trkpt lat="59.7946622" lon="17.7891201">
        <ele>12.1538</ele>
        <time>2014-07-08T12:33:41Z</time>
      </trkpt>
      <trkpt lat="59.7947098" lon="17.7891889">
        <ele>12.1538</ele>
        <time>2014-07-08T12:33:42Z</time>
      </trkpt>
      <trkpt lat="59.7947623" lon="17.7892695">
        <ele>11.6732</ele>
        <time>2014-07-08T12:33:43Z</time>
      </trkpt>
      <trkpt lat="59.7948189" lon="17.7893547">
        <ele>11.6732</ele>
        <time>2014-07-08T12:33:44Z</time>
      </trkpt>
      <trkpt lat="59.7948778" lon="17.7894427">
        <ele>11.6732</ele>
        <time>2014-07-08T12:33:45Z</time>
      </trkpt>
      <trkpt lat="59.7949366" lon="17.7895298">
        <ele>11.6732</ele>
        <time>2014-07-08T12:33:46Z</time>
      </trkpt>
      <trkpt lat="59.7949959" lon="17.7896163">
        <ele>11.6732</ele>
        <time>2014-07-08T12:33:47Z</time>
      </trkpt>
      <trkpt lat="59.7950564" lon="17.7897043">
        <ele>11.6732</ele>
        <time>2014-07-08T12:33:48Z</time>
      </trkpt>
      <trkpt lat="59.7951175" lon="17.7897936">
        <ele>11.6732</ele>
        <time>2014-07-08T12:33:49Z</time>
      </trkpt>
      <trkpt lat="59.7951782" lon="17.7898834">
        <ele>11.6732</ele>
        <time>2014-07-08T12:33:50Z</time>
      </trkpt>
      <trkpt lat="59.7952394" lon="17.7899746">
        <ele>11.6732</ele>
        <time>2014-07-08T12:33:51Z</time>
      </trkpt>
      <trkpt lat="59.7953015" lon="17.7900676">
        <ele>11.6732</ele>
        <time>2014-07-08T12:33:52Z</time>
      </trkpt>
      <trkpt lat="59.7953656" lon="17.7901611">
        <ele>12.1538</ele>
        <time>2014-07-08T12:33:53Z</time>
      </trkpt>
      <trkpt lat="59.7954301" lon="17.7902558">
        <ele>12.1538</ele>
        <time>2014-07-08T12:33:54Z</time>
      </trkpt>
      <trkpt lat="59.7954956" lon="17.7903519">
        <ele>12.1538</ele>
        <time>2014-07-08T12:33:55Z</time>
      </trkpt>
      <trkpt lat="59.7955622" lon="17.7904492">
        <ele>12.1538</ele>
        <time>2014-07-08T12:33:56Z</time>
      </trkpt>
      <trkpt lat="59.7956298" lon="17.790549">
        <ele>12.1538</ele>
        <time>2014-07-08T12:33:57Z</time>
      </trkpt>
      <trkpt lat="59.7956988" lon="17.7906519">
        <ele>12.1538</ele>
        <time>2014-07-08T12:33:58Z</time>
      </trkpt>
      <trkpt lat="59.7957688" lon="17.7907585">
        <ele>12.1538</ele>
        <time>2014-07-08T12:33:59Z</time>
      </trkpt>
      <trkpt lat="59.7958396" lon="17.7908661">
        <ele>12.6344</ele>
        <time>2014-07-08T12:34:00Z</time>
      </trkpt>
      <trkpt lat="59.7959116" lon="17.7909717">
        <ele>12.6344</ele>
        <time>2014-07-08T12:34:01Z</time>
      </trkpt>
      <trkpt lat="59.7959838" lon="17.7910766">
        <ele>12.6344</ele>
        <time>2014-07-08T12:34:02Z</time>
      </trkpt>
      <trkpt lat="59.7960558" lon="17.7911794">
        <ele>12.6344</ele>
        <time>2014-07-08T12:34:03Z</time>
      </trkpt>
      <trkpt lat="59.796127" lon="17.7912789">
        <ele>12.6344</ele>
        <time>2014-07-08T12:34:04Z</time>
      </trkpt>
      <trkpt lat="59.796196" lon="17.7913775">
        <ele>12.6344</ele>
        <time>2014-07-08T12:34:05Z</time>
      </trkpt>
      <trkpt lat="59.7962629" lon="17.791476">
        <ele>12.6344</ele>
        <time>2014-07-08T12:34:06Z</time>
      </trkpt>
      <trkpt lat="59.7963282" lon="17.7915723">
        <ele>12.6344</ele>
        <time>2014-07-08T12:34:07Z</time>
      </trkpt>
      <trkpt lat="59.7963919" lon="17.7916666">
        <ele>13.1151</ele>
        <time>2014-07-08T12:34:08Z</time>
      </trkpt>
      <trkpt lat="59.796454" lon="17.7917593">
        <ele>13.1151</ele>
        <time>2014-07-08T12:34:09Z</time>
      </trkpt>
      <trkpt lat="59.7965143" lon="17.7918505">
        <ele>13.1151</ele>
        <time>2014-07-08T12:34:10Z</time>
      </trkpt>
      <trkpt lat="59.7965733" lon="17.7919383">
        <ele>13.1151</ele>
        <time>2014-07-08T12:34:11Z</time>
      </trkpt>
      <trkpt lat="59.7966314" lon="17.7920233">
        <ele>13.1151</ele>
        <time>2014-07-08T12:34:12Z</time>
      </trkpt>
      <trkpt lat="59.7966889" lon="17.7921096">
        <ele>13.1151</ele>
        <time>2014-07-08T12:34:13Z</time>
      </trkpt>
      <trkpt lat="59.7967473" lon="17.7921961">
        <ele>13.1151</ele>
        <time>2014-07-08T12:34:14Z</time>
      </trkpt>
      <trkpt lat="59.7968069" lon="17.7922809">
        <ele>13.1151</ele>
        <time>2014-07-08T12:34:15Z</time>
      </trkpt>
      <trkpt lat="59.7968665" lon="17.792365">
        <ele>13.1151</ele>
        <time>2014-07-08T12:34:16Z</time>
      </trkpt>
      <trkpt lat="59.7969242" lon="17.7924498">
        <ele>13.1151</ele>
        <time>2014-07-08T12:34:17Z</time>
      </trkpt>
      <trkpt lat="59.79698" lon="17.7925337">
        <ele>13.1151</ele>
        <time>2014-07-08T12:34:18Z</time>
      </trkpt>
      <trkpt lat="59.7970353" lon="17.7926139">
        <ele>13.1151</ele>
        <time>2014-07-08T12:34:19Z</time>
      </trkpt>
      <trkpt lat="59.7970892" lon="17.7926922">
        <ele>13.1151</ele>
        <time>2014-07-08T12:34:20Z</time>
      </trkpt>
      <trkpt lat="59.7971423" lon="17.7927695">
        <ele>13.1151</ele>
        <time>2014-07-08T12:34:21Z</time>
      </trkpt>
      <trkpt lat="59.7971954" lon="17.7928471">
        <ele>13.1151</ele>
        <time>2014-07-08T12:34:22Z</time>
      </trkpt>
      <trkpt lat="59.7972485" lon="17.7929249">
        <ele>13.1151</ele>
        <time>2014-07-08T12:34:23Z</time>
      </trkpt>
      <trkpt lat="59.7973017" lon="17.7930031">
        <ele>13.1151</ele>
        <time>2014-07-08T12:34:24Z</time>
      </trkpt>
      <trkpt lat="59.7973558" lon="17.7930818">
        <ele>13.1151</ele>
        <time>2014-07-08T12:34:25Z</time>
      </trkpt>
      <trkpt lat="59.7974098" lon="17.7931615">
        <ele>13.1151</ele>
        <time>2014-07-08T12:34:26Z</time>
      </trkpt>
      <trkpt lat="59.7974641" lon="17.7932429">
        <ele>13.1151</ele>
        <time>2014-07-08T12:34:27Z</time>
      </trkpt>
      <trkpt lat="59.7975185" lon="17.7933254">
        <ele>13.1151</ele>
        <time>2014-07-08T12:34:28Z</time>
      </trkpt>
      <trkpt lat="59.7975721" lon="17.7934071">
        <ele>13.1151</ele>
        <time>2014-07-08T12:34:29Z</time>
      </trkpt>
      <trkpt lat="59.7976251" lon="17.7934852">
        <ele>13.5958</ele>
        <time>2014-07-08T12:34:30Z</time>
      </trkpt>
      <trkpt lat="59.7977266" lon="17.7936312">
        <ele>13.5958</ele>
        <time>2014-07-08T12:34:31Z</time>
      </trkpt>
      <trkpt lat="59.7977766" lon="17.7936973">
        <ele>13.5958</ele>
        <time>2014-07-08T12:34:32Z</time>
      </trkpt>
      <trkpt lat="59.7978261" lon="17.7937618">
        <ele>13.5958</ele>
        <time>2014-07-08T12:34:33Z</time>
      </trkpt>
      <trkpt lat="59.7978748" lon="17.7938302">
        <ele>13.5958</ele>
        <time>2014-07-08T12:34:34Z</time>
      </trkpt>
      <trkpt lat="59.7979237" lon="17.7939023">
        <ele>13.5958</ele>
        <time>2014-07-08T12:34:35Z</time>
      </trkpt>
      <trkpt lat="59.797973" lon="17.7939785">
        <ele>13.1151</ele>
        <time>2014-07-08T12:34:36Z</time>
      </trkpt>
      <trkpt lat="59.7980222" lon="17.7940554">
        <ele>13.1151</ele>
        <time>2014-07-08T12:34:37Z</time>
      </trkpt>
      <trkpt lat="59.7980706" lon="17.7941302">
        <ele>13.1151</ele>
        <time>2014-07-08T12:34:38Z</time>
      </trkpt>
      <trkpt lat="59.7981178" lon="17.7942026">
        <ele>13.1151</ele>
        <time>2014-07-08T12:34:39Z</time>
      </trkpt>
      <trkpt lat="59.7981647" lon="17.7942711">
        <ele>13.1151</ele>
        <time>2014-07-08T12:34:40Z</time>
      </trkpt>
      <trkpt lat="59.7982113" lon="17.7943373">
        <ele>13.1151</ele>
        <time>2014-07-08T12:34:41Z</time>
      </trkpt>
      <trkpt lat="59.7982572" lon="17.7944032">
        <ele>13.1151</ele>
        <time>2014-07-08T12:34:42Z</time>
      </trkpt>
      <trkpt lat="59.7983019" lon="17.794468">
        <ele>13.1151</ele>
        <time>2014-07-08T12:34:43Z</time>
      </trkpt>
      <trkpt lat="59.7983448" lon="17.7945343">
        <ele>13.1151</ele>
        <time>2014-07-08T12:34:44Z</time>
      </trkpt>
      <trkpt lat="59.7983873" lon="17.7946023">
        <ele>13.1151</ele>
        <time>2014-07-08T12:34:45Z</time>
      </trkpt>
      <trkpt lat="59.798432" lon="17.7946698">
        <ele>13.1151</ele>
        <time>2014-07-08T12:34:46Z</time>
      </trkpt>
      <trkpt lat="59.7984783" lon="17.7947384">
        <ele>13.1151</ele>
        <time>2014-07-08T12:34:47Z</time>
      </trkpt>
      <trkpt lat="59.7985255" lon="17.7948104">
        <ele>13.1151</ele>
        <time>2014-07-08T12:34:48Z</time>
      </trkpt>
      <trkpt lat="59.7985748" lon="17.7948829">
        <ele>13.1151</ele>
        <time>2014-07-08T12:34:49Z</time>
      </trkpt>
      <trkpt lat="59.7986254" lon="17.7949573">
        <ele>13.1151</ele>
        <time>2014-07-08T12:34:50Z</time>
      </trkpt>
      <trkpt lat="59.7986773" lon="17.7950324">
        <ele>13.1151</ele>
        <time>2014-07-08T12:34:51Z</time>
      </trkpt>
      <trkpt lat="59.7987306" lon="17.7951051">
        <ele>13.1151</ele>
        <time>2014-07-08T12:34:52Z</time>
      </trkpt>
      <trkpt lat="59.798783" lon="17.79518">
        <ele>13.1151</ele>
        <time>2014-07-08T12:34:53Z</time>
      </trkpt>
      <trkpt lat="59.798834" lon="17.7952564">
        <ele>13.1151</ele>
        <time>2014-07-08T12:34:54Z</time>
      </trkpt>
      <trkpt lat="59.7988856" lon="17.7953324">
        <ele>13.1151</ele>
        <time>2014-07-08T12:34:55Z</time>
      </trkpt>
      <trkpt lat="59.798938" lon="17.7954077">
        <ele>13.1151</ele>
        <time>2014-07-08T12:34:56Z</time>
      </trkpt>
      <trkpt lat="59.7989908" lon="17.7954829">
        <ele>13.1151</ele>
        <time>2014-07-08T12:34:57Z</time>
      </trkpt>
      <trkpt lat="59.7990441" lon="17.7955593">
        <ele>13.1151</ele>
        <time>2014-07-08T12:34:58Z</time>
      </trkpt>
      <trkpt lat="59.7990975" lon="17.7956366">
        <ele>13.1151</ele>
        <time>2014-07-08T12:34:59Z</time>
      </trkpt>
      <trkpt lat="59.7991514" lon="17.7957152">
        <ele>13.1151</ele>
        <time>2014-07-08T12:35:00Z</time>
      </trkpt>
      <trkpt lat="59.7992056" lon="17.7957939">
        <ele>13.1151</ele>
        <time>2014-07-08T12:35:01Z</time>
      </trkpt>
      <trkpt lat="59.7992606" lon="17.7958719">
        <ele>13.1151</ele>
        <time>2014-07-08T12:35:02Z</time>
      </trkpt>
      <trkpt lat="59.7993154" lon="17.79595">
        <ele>13.1151</ele>
        <time>2014-07-08T12:35:03Z</time>
      </trkpt>
      <trkpt lat="59.7993689" lon="17.7960283">
        <ele>13.1151</ele>
        <time>2014-07-08T12:35:04Z</time>
      </trkpt>
      <trkpt lat="59.7994209" lon="17.7961059">
        <ele>13.1151</ele>
        <time>2014-07-08T12:35:05Z</time>
      </trkpt>
      <trkpt lat="59.799472" lon="17.7961835">
        <ele>13.1151</ele>
        <time>2014-07-08T12:35:06Z</time>
      </trkpt>
      <trkpt lat="59.7995219" lon="17.7962624">
        <ele>13.1151</ele>
        <time>2014-07-08T12:35:07Z</time>
      </trkpt>
      <trkpt lat="59.7995718" lon="17.7963435">
        <ele>13.1151</ele>
        <time>2014-07-08T12:35:08Z</time>
      </trkpt>
      <trkpt lat="59.7996215" lon="17.7964266">
        <ele>13.1151</ele>
        <time>2014-07-08T12:35:09Z</time>
      </trkpt>
      <trkpt lat="59.7996703" lon="17.7965132">
        <ele>13.1151</ele>
        <time>2014-07-08T12:35:10Z</time>
      </trkpt>
      <trkpt lat="59.7997176" lon="17.7966053">
        <ele>13.1151</ele>
        <time>2014-07-08T12:35:11Z</time>
      </trkpt>
      <trkpt lat="59.7997635" lon="17.7967022">
        <ele>13.1151</ele>
        <time>2014-07-08T12:35:12Z</time>
      </trkpt>
      <trkpt lat="59.7998076" lon="17.7968042">
        <ele>13.1151</ele>
        <time>2014-07-08T12:35:13Z</time>
      </trkpt>
      <trkpt lat="59.7998497" lon="17.7969105">
        <ele>13.1151</ele>
        <time>2014-07-08T12:35:14Z</time>
      </trkpt>
      <trkpt lat="59.79989" lon="17.7970197">
        <ele>13.1151</ele>
        <time>2014-07-08T12:35:15Z</time>
      </trkpt>
      <trkpt lat="59.7999278" lon="17.7971316">
        <ele>13.1151</ele>
        <time>2014-07-08T12:35:16Z</time>
      </trkpt>
      <trkpt lat="59.7999622" lon="17.7972445">
        <ele>13.1151</ele>
        <time>2014-07-08T12:35:17Z</time>
      </trkpt>
      <trkpt lat="59.7999933" lon="17.7973583">
        <ele>13.1151</ele>
        <time>2014-07-08T12:35:18Z</time>
      </trkpt>
      <trkpt lat="59.8000196" lon="17.797472">
        <ele>13.1151</ele>
        <time>2014-07-08T12:35:19Z</time>
      </trkpt>
      <trkpt lat="59.8000432" lon="17.7975841">
        <ele>13.1151</ele>
        <time>2014-07-08T12:35:20Z</time>
      </trkpt>
      <trkpt lat="59.8000661" lon="17.7976957">
        <ele>13.5958</ele>
        <time>2014-07-08T12:35:21Z</time>
      </trkpt>
      <trkpt lat="59.8000864" lon="17.7978092">
        <ele>13.5958</ele>
        <time>2014-07-08T12:35:22Z</time>
      </trkpt>
      <trkpt lat="59.8001035" lon="17.7979236">
        <ele>13.5958</ele>
        <time>2014-07-08T12:35:23Z</time>
      </trkpt>
      <trkpt lat="59.8001168" lon="17.7980389">
        <ele>13.5958</ele>
        <time>2014-07-08T12:35:24Z</time>
      </trkpt>
      <trkpt lat="59.8001267" lon="17.7981552">
        <ele>13.5958</ele>
        <time>2014-07-08T12:35:25Z</time>
      </trkpt>
      <trkpt lat="59.8001342" lon="17.7982723">
        <ele>13.5958</ele>
        <time>2014-07-08T12:35:26Z</time>
      </trkpt>
      <trkpt lat="59.8001397" lon="17.7983901">
        <ele>13.5958</ele>
        <time>2014-07-08T12:35:27Z</time>
      </trkpt>
      <trkpt lat="59.8001445" lon="17.7985085">
        <ele>13.5958</ele>
        <time>2014-07-08T12:35:28Z</time>
      </trkpt>
      <trkpt lat="59.80015" lon="17.7986276">
        <ele>13.5958</ele>
        <time>2014-07-08T12:35:29Z</time>
      </trkpt>
      <trkpt lat="59.8001554" lon="17.7987473">
        <ele>13.5958</ele>
        <time>2014-07-08T12:35:30Z</time>
      </trkpt>
      <trkpt lat="59.8001608" lon="17.7988689">
        <ele>13.5958</ele>
        <time>2014-07-08T12:35:31Z</time>
      </trkpt>
      <trkpt lat="59.8001652" lon="17.7989924">
        <ele>13.5958</ele>
        <time>2014-07-08T12:35:32Z</time>
      </trkpt>
      <trkpt lat="59.8001698" lon="17.7991174">
        <ele>14.0764</ele>
        <time>2014-07-08T12:35:33Z</time>
      </trkpt>
      <trkpt lat="59.8001753" lon="17.799243">
        <ele>14.0764</ele>
        <time>2014-07-08T12:35:34Z</time>
      </trkpt>
      <trkpt lat="59.8001805" lon="17.79937">
        <ele>14.0764</ele>
        <time>2014-07-08T12:35:35Z</time>
      </trkpt>
      <trkpt lat="59.8001857" lon="17.7994984">
        <ele>14.0764</ele>
        <time>2014-07-08T12:35:36Z</time>
      </trkpt>
      <trkpt lat="59.8001914" lon="17.7996274">
        <ele>14.0764</ele>
        <time>2014-07-08T12:35:37Z</time>
      </trkpt>
      <trkpt lat="59.8001973" lon="17.7997569">
        <ele>14.0764</ele>
        <time>2014-07-08T12:35:38Z</time>
      </trkpt>
      <trkpt lat="59.8002039" lon="17.7998859">
        <ele>14.557</ele>
        <time>2014-07-08T12:35:39Z</time>
      </trkpt>
      <trkpt lat="59.8002111" lon="17.8000117">
        <ele>14.557</ele>
        <time>2014-07-08T12:35:40Z</time>
      </trkpt>
      <trkpt lat="59.8002191" lon="17.8001324">
        <ele>14.557</ele>
        <time>2014-07-08T12:35:41Z</time>
      </trkpt>
      <trkpt lat="59.8002278" lon="17.8002495">
        <ele>14.557</ele>
        <time>2014-07-08T12:35:42Z</time>
      </trkpt>
      <trkpt lat="59.8002378" lon="17.8003641">
        <ele>15.0377</ele>
        <time>2014-07-08T12:35:43Z</time>
      </trkpt>
      <trkpt lat="59.8002502" lon="17.8004764">
        <ele>15.0377</ele>
        <time>2014-07-08T12:35:44Z</time>
      </trkpt>
      <trkpt lat="59.8002641" lon="17.800587">
        <ele>15.0377</ele>
        <time>2014-07-08T12:35:45Z</time>
      </trkpt>
      <trkpt lat="59.8002789" lon="17.8006965">
        <ele>15.0377</ele>
        <time>2014-07-08T12:35:46Z</time>
      </trkpt>
      <trkpt lat="59.800295" lon="17.8008036">
        <ele>15.5184</ele>
        <time>2014-07-08T12:35:47Z</time>
      </trkpt>
      <trkpt lat="59.8003128" lon="17.8009084">
        <ele>15.5184</ele>
        <time>2014-07-08T12:35:48Z</time>
      </trkpt>
      <trkpt lat="59.8003313" lon="17.8010131">
        <ele>15.5184</ele>
        <time>2014-07-08T12:35:49Z</time>
      </trkpt>
      <trkpt lat="59.8003506" lon="17.8011177">
        <ele>15.999</ele>
        <time>2014-07-08T12:35:50Z</time>
      </trkpt>
      <trkpt lat="59.8003708" lon="17.8012203">
        <ele>15.999</ele>
        <time>2014-07-08T12:35:51Z</time>
      </trkpt>
      <trkpt lat="59.800391" lon="17.8013211">
        <ele>15.999</ele>
        <time>2014-07-08T12:35:52Z</time>
      </trkpt>
      <trkpt lat="59.8004115" lon="17.8014208">
        <ele>15.999</ele>
        <time>2014-07-08T12:35:53Z</time>
      </trkpt>
      <trkpt lat="59.8004315" lon="17.8015213">
        <ele>15.999</ele>
        <time>2014-07-08T12:35:54Z</time>
      </trkpt>
      <trkpt lat="59.8004519" lon="17.8016233">
        <ele>16.4797</ele>
        <time>2014-07-08T12:35:55Z</time>
      </trkpt>
      <trkpt lat="59.8004728" lon="17.8017263">
        <ele>16.4797</ele>
        <time>2014-07-08T12:35:56Z</time>
      </trkpt>
      <trkpt lat="59.8004925" lon="17.8018272">
        <ele>15.999</ele>
        <time>2014-07-08T12:35:57Z</time>
      </trkpt>
      <trkpt lat="59.8005122" lon="17.8019279">
        <ele>15.999</ele>
        <time>2014-07-08T12:35:58Z</time>
      </trkpt>
      <trkpt lat="59.8005333" lon="17.8020264">
        <ele>15.5184</ele>
        <time>2014-07-08T12:35:59Z</time>
      </trkpt>
      <trkpt lat="59.8005547" lon="17.8021234">
        <ele>15.5184</ele>
        <time>2014-07-08T12:36:00Z</time>
      </trkpt>
      <trkpt lat="59.8005741" lon="17.8022212">
        <ele>15.0377</ele>
        <time>2014-07-08T12:36:01Z</time>
      </trkpt>
      <trkpt lat="59.8005921" lon="17.80232">
        <ele>15.0377</ele>
        <time>2014-07-08T12:36:02Z</time>
      </trkpt>
      <trkpt lat="59.8006106" lon="17.8024178">
        <ele>15.0377</ele>
        <time>2014-07-08T12:36:03Z</time>
      </trkpt>
      <trkpt lat="59.8006294" lon="17.8025148">
        <ele>15.0377</ele>
        <time>2014-07-08T12:36:04Z</time>
      </trkpt>
      <trkpt lat="59.8006484" lon="17.8026115">
        <ele>14.557</ele>
        <time>2014-07-08T12:36:05Z</time>
      </trkpt>
      <trkpt lat="59.8006679" lon="17.8027069">
        <ele>14.557</ele>
        <time>2014-07-08T12:36:06Z</time>
      </trkpt>
      <trkpt lat="59.8006871" lon="17.8028022">
        <ele>14.557</ele>
        <time>2014-07-08T12:36:07Z</time>
      </trkpt>
      <trkpt lat="59.8007065" lon="17.8028949">
        <ele>14.557</ele>
        <time>2014-07-08T12:36:08Z</time>
      </trkpt>
      <trkpt lat="59.8007252" lon="17.8029836">
        <ele>14.557</ele>
        <time>2014-07-08T12:36:09Z</time>
      </trkpt>
      <trkpt lat="59.8007431" lon="17.8030715">
        <ele>14.557</ele>
        <time>2014-07-08T12:36:10Z</time>
      </trkpt>
      <trkpt lat="59.8007604" lon="17.8031592">
        <ele>14.0764</ele>
        <time>2014-07-08T12:36:11Z</time>
      </trkpt>
      <trkpt lat="59.8007779" lon="17.8032465">
        <ele>14.0764</ele>
        <time>2014-07-08T12:36:12Z</time>
      </trkpt>
      <trkpt lat="59.8007964" lon="17.8033331">
        <ele>14.0764</ele>
        <time>2014-07-08T12:36:13Z</time>
      </trkpt>
      <trkpt lat="59.8008148" lon="17.8034197">
        <ele>14.0764</ele>
        <time>2014-07-08T12:36:14Z</time>
      </trkpt>
      <trkpt lat="59.8008339" lon="17.8035067">
        <ele>14.0764</ele>
        <time>2014-07-08T12:36:15Z</time>
      </trkpt>
      <trkpt lat="59.800853" lon="17.8035943">
        <ele>14.0764</ele>
        <time>2014-07-08T12:36:16Z</time>
      </trkpt>
      <trkpt lat="59.8008721" lon="17.8036835">
        <ele>14.0764</ele>
        <time>2014-07-08T12:36:17Z</time>
      </trkpt>
      <trkpt lat="59.800891" lon="17.8037746">
        <ele>14.0764</ele>
        <time>2014-07-08T12:36:18Z</time>
      </trkpt>
      <trkpt lat="59.8009106" lon="17.8038667">
        <ele>14.0764</ele>
        <time>2014-07-08T12:36:19Z</time>
      </trkpt>
      <trkpt lat="59.8009313" lon="17.8039584">
        <ele>14.0764</ele>
        <time>2014-07-08T12:36:20Z</time>
      </trkpt>
      <trkpt lat="59.8009513" lon="17.8040506">
        <ele>14.0764</ele>
        <time>2014-07-08T12:36:21Z</time>
      </trkpt>
      <trkpt lat="59.8009709" lon="17.8041429">
        <ele>14.0764</ele>
        <time>2014-07-08T12:36:22Z</time>
      </trkpt>
      <trkpt lat="59.8009917" lon="17.8042345">
        <ele>14.557</ele>
        <time>2014-07-08T12:36:23Z</time>
      </trkpt>
      <trkpt lat="59.8010121" lon="17.8043269">
        <ele>14.557</ele>
        <time>2014-07-08T12:36:24Z</time>
      </trkpt>
      <trkpt lat="59.8010314" lon="17.8044194">
        <ele>14.557</ele>
        <time>2014-07-08T12:36:25Z</time>
      </trkpt>
      <trkpt lat="59.8010514" lon="17.8045092">
        <ele>14.557</ele>
        <time>2014-07-08T12:36:26Z</time>
      </trkpt>
      <trkpt lat="59.801071" lon="17.8045969">
        <ele>14.557</ele>
        <time>2014-07-08T12:36:27Z</time>
      </trkpt>
      <trkpt lat="59.8010899" lon="17.8046824">
        <ele>14.557</ele>
        <time>2014-07-08T12:36:28Z</time>
      </trkpt>
      <trkpt lat="59.8011087" lon="17.8047651">
        <ele>14.557</ele>
        <time>2014-07-08T12:36:29Z</time>
      </trkpt>
      <trkpt lat="59.8011271" lon="17.8048449">
        <ele>14.557</ele>
        <time>2014-07-08T12:36:30Z</time>
      </trkpt>
      <trkpt lat="59.8011447" lon="17.8049231">
        <ele>14.557</ele>
        <time>2014-07-08T12:36:31Z</time>
      </trkpt>
      <trkpt lat="59.8011623" lon="17.8050008">
        <ele>15.0377</ele>
        <time>2014-07-08T12:36:32Z</time>
      </trkpt>
      <trkpt lat="59.8011799" lon="17.8050779">
        <ele>15.0377</ele>
        <time>2014-07-08T12:36:33Z</time>
      </trkpt>
      <trkpt lat="59.8011964" lon="17.8051566">
        <ele>15.0377</ele>
        <time>2014-07-08T12:36:34Z</time>
      </trkpt>
      <trkpt lat="59.8012131" lon="17.8052348">
        <ele>15.0377</ele>
        <time>2014-07-08T12:36:35Z</time>
      </trkpt>
      <trkpt lat="59.8012312" lon="17.8053124">
        <ele>15.0377</ele>
        <time>2014-07-08T12:36:36Z</time>
      </trkpt>
      <trkpt lat="59.8012493" lon="17.8053918">
        <ele>15.0377</ele>
        <time>2014-07-08T12:36:37Z</time>
      </trkpt>
      <trkpt lat="59.8012665" lon="17.805472">
        <ele>15.0377</ele>
        <time>2014-07-08T12:36:38Z</time>
      </trkpt>
      <trkpt lat="59.801284" lon="17.8055519">
        <ele>15.0377</ele>
        <time>2014-07-08T12:36:39Z</time>
      </trkpt>
      <trkpt lat="59.8013009" lon="17.8056321">
        <ele>15.0377</ele>
        <time>2014-07-08T12:36:40Z</time>
      </trkpt>
      <trkpt lat="59.8013185" lon="17.8057107">
        <ele>15.5184</ele>
        <time>2014-07-08T12:36:41Z</time>
      </trkpt>
      <trkpt lat="59.8013357" lon="17.805787">
        <ele>15.5184</ele>
        <time>2014-07-08T12:36:42Z</time>
      </trkpt>
      <trkpt lat="59.8013517" lon="17.8058617">
        <ele>15.5184</ele>
        <time>2014-07-08T12:36:43Z</time>
      </trkpt>
      <trkpt lat="59.8013675" lon="17.8059346">
        <ele>15.5184</ele>
        <time>2014-07-08T12:36:44Z</time>
      </trkpt>
      <trkpt lat="59.801384" lon="17.806005">
        <ele>15.5184</ele>
        <time>2014-07-08T12:36:45Z</time>
      </trkpt>
      <trkpt lat="59.8013996" lon="17.8060733">
        <ele>15.999</ele>
        <time>2014-07-08T12:36:46Z</time>
      </trkpt>
      <trkpt lat="59.8014151" lon="17.8061391">
        <ele>15.999</ele>
        <time>2014-07-08T12:36:47Z</time>
      </trkpt>
      <trkpt lat="59.8014311" lon="17.8062026">
        <ele>15.999</ele>
        <time>2014-07-08T12:36:48Z</time>
      </trkpt>
      <trkpt lat="59.8014462" lon="17.8062678">
        <ele>15.999</ele>
        <time>2014-07-08T12:36:49Z</time>
      </trkpt>
      <trkpt lat="59.8014611" lon="17.806336">
        <ele>15.999</ele>
        <time>2014-07-08T12:36:50Z</time>
      </trkpt>
      <trkpt lat="59.8014778" lon="17.8064035">
        <ele>16.4797</ele>
        <time>2014-07-08T12:36:51Z</time>
      </trkpt>
      <trkpt lat="59.8014943" lon="17.8064723">
        <ele>16.4797</ele>
        <time>2014-07-08T12:36:52Z</time>
      </trkpt>
      <trkpt lat="59.8015077" lon="17.8065429">
        <ele>16.4797</ele>
        <time>2014-07-08T12:36:53Z</time>
      </trkpt>
      <trkpt lat="59.8015217" lon="17.8066128">
        <ele>16.9604</ele>
        <time>2014-07-08T12:36:54Z</time>
      </trkpt>
      <trkpt lat="59.8015373" lon="17.8066789">
        <ele>16.9604</ele>
        <time>2014-07-08T12:36:55Z</time>
      </trkpt>
      <trkpt lat="59.8015513" lon="17.8067402">
        <ele>17.4412</ele>
        <time>2014-07-08T12:36:56Z</time>
      </trkpt>
      <trkpt lat="59.8015643" lon="17.8068003">
        <ele>17.4412</ele>
        <time>2014-07-08T12:36:57Z</time>
      </trkpt>
      <trkpt lat="59.8015791" lon="17.8068609">
        <ele>17.9218</ele>
        <time>2014-07-08T12:36:58Z</time>
      </trkpt>
      <trkpt lat="59.8015931" lon="17.8069187">
        <ele>18.4023</ele>
        <time>2014-07-08T12:36:59Z</time>
      </trkpt>
      <trkpt lat="59.8016067" lon="17.8069791">
        <ele>18.4023</ele>
        <time>2014-07-08T12:37:00Z</time>
      </trkpt>
      <trkpt lat="59.8016202" lon="17.8070411">
        <ele>18.8831</ele>
        <time>2014-07-08T12:37:01Z</time>
      </trkpt>
      <trkpt lat="59.8016316" lon="17.8071043">
        <ele>19.3638</ele>
        <time>2014-07-08T12:37:02Z</time>
      </trkpt>
      <trkpt lat="59.801643" lon="17.8071706">
        <ele>19.3638</ele>
        <time>2014-07-08T12:37:03Z</time>
      </trkpt>
      <trkpt lat="59.8016534" lon="17.80724">
        <ele>19.8444</ele>
        <time>2014-07-08T12:37:04Z</time>
      </trkpt>
      <trkpt lat="59.8016606" lon="17.8073114">
        <ele>20.325</ele>
        <time>2014-07-08T12:37:05Z</time>
      </trkpt>
      <trkpt lat="59.8016644" lon="17.8073829">
        <ele>20.325</ele>
        <time>2014-07-08T12:37:06Z</time>
      </trkpt>
      <trkpt lat="59.8016673" lon="17.8074548">
        <ele>20.325</ele>
        <time>2014-07-08T12:37:07Z</time>
      </trkpt>
      <trkpt lat="59.8016697" lon="17.8075278">
        <ele>20.8057</ele>
        <time>2014-07-08T12:37:08Z</time>
      </trkpt>
      <trkpt lat="59.8016695" lon="17.8076">
        <ele>21.2864</ele>
        <time>2014-07-08T12:37:09Z</time>
      </trkpt>
      <trkpt lat="59.8016667" lon="17.807671">
        <ele>21.2864</ele>
        <time>2014-07-08T12:37:10Z</time>
      </trkpt>
      <trkpt lat="59.8016626" lon="17.8077426">
        <ele>21.767</ele>
        <time>2014-07-08T12:37:11Z</time>
      </trkpt>
      <trkpt lat="59.8016585" lon="17.8078166">
        <ele>21.767</ele>
        <time>2014-07-08T12:37:12Z</time>
      </trkpt>
      <trkpt lat="59.8016518" lon="17.8078925">
        <ele>22.2476</ele>
        <time>2014-07-08T12:37:13Z</time>
      </trkpt>
      <trkpt lat="59.8016405" lon="17.8079709">
        <ele>22.2476</ele>
        <time>2014-07-08T12:37:14Z</time>
      </trkpt>
      <trkpt lat="59.801628" lon="17.8080553">
        <ele>22.7283</ele>
        <time>2014-07-08T12:37:15Z</time>
      </trkpt>
      <trkpt lat="59.8016114" lon="17.80813">
        <ele>22.2476</ele>
        <time>2014-07-08T12:37:16Z</time>
      </trkpt>
      <trkpt lat="59.8015907" lon="17.8081941">
        <ele>21.767</ele>
        <time>2014-07-08T12:37:17Z</time>
      </trkpt>
      <trkpt lat="59.8015705" lon="17.808259">
        <ele>22.2476</ele>
        <time>2014-07-08T12:37:18Z</time>
      </trkpt>
      <trkpt lat="59.8015456" lon="17.8083149">
        <ele>22.2476</ele>
        <time>2014-07-08T12:37:19Z</time>
      </trkpt>
      <trkpt lat="59.8015217" lon="17.808378">
        <ele>22.7283</ele>
        <time>2014-07-08T12:37:20Z</time>
      </trkpt>
      <trkpt lat="59.8014962" lon="17.8084361">
        <ele>22.7283</ele>
        <time>2014-07-08T12:37:21Z</time>
      </trkpt>
      <trkpt lat="59.8014708" lon="17.8084986">
        <ele>23.209</ele>
        <time>2014-07-08T12:37:22Z</time>
      </trkpt>
      <trkpt lat="59.8014415" lon="17.8085589">
        <ele>22.2476</ele>
        <time>2014-07-08T12:37:23Z</time>
      </trkpt>
      <trkpt lat="59.801412" lon="17.8086227">
        <ele>22.2476</ele>
        <time>2014-07-08T12:37:24Z</time>
      </trkpt>
      <trkpt lat="59.8013809" lon="17.8086925">
        <ele>22.2476</ele>
        <time>2014-07-08T12:37:25Z</time>
      </trkpt>
      <trkpt lat="59.8013522" lon="17.8087692">
        <ele>22.7283</ele>
        <time>2014-07-08T12:37:26Z</time>
      </trkpt>
      <trkpt lat="59.801322" lon="17.808849">
        <ele>23.209</ele>
        <time>2014-07-08T12:37:27Z</time>
      </trkpt>
      <trkpt lat="59.8012937" lon="17.8089258">
        <ele>23.209</ele>
        <time>2014-07-08T12:37:28Z</time>
      </trkpt>
      <trkpt lat="59.8012681" lon="17.8090044">
        <ele>23.209</ele>
        <time>2014-07-08T12:37:29Z</time>
      </trkpt>
      <trkpt lat="59.8012421" lon="17.8090809">
        <ele>22.2476</ele>
        <time>2014-07-08T12:37:30Z</time>
      </trkpt>
      <trkpt lat="59.8012182" lon="17.809165">
        <ele>21.767</ele>
        <time>2014-07-08T12:37:31Z</time>
      </trkpt>
      <trkpt lat="59.8011973" lon="17.8092535">
        <ele>21.767</ele>
        <time>2014-07-08T12:37:32Z</time>
      </trkpt>
      <trkpt lat="59.8011779" lon="17.8093421">
        <ele>21.767</ele>
        <time>2014-07-08T12:37:33Z</time>
      </trkpt>
      <trkpt lat="59.8011613" lon="17.8094322">
        <ele>21.767</ele>
        <time>2014-07-08T12:37:34Z</time>
      </trkpt>
      <trkpt lat="59.8011486" lon="17.809525">
        <ele>21.2864</ele>
        <time>2014-07-08T12:37:35Z</time>
      </trkpt>
      <trkpt lat="59.8011379" lon="17.8096229">
        <ele>20.8057</ele>
        <time>2014-07-08T12:37:36Z</time>
      </trkpt>
      <trkpt lat="59.8011295" lon="17.8097275">
        <ele>20.325</ele>
        <time>2014-07-08T12:37:37Z</time>
      </trkpt>
      <trkpt lat="59.8011234" lon="17.8098385">
        <ele>20.325</ele>
        <time>2014-07-08T12:37:38Z</time>
      </trkpt>
      <trkpt lat="59.8011189" lon="17.8099554">
        <ele>19.8444</ele>
        <time>2014-07-08T12:37:39Z</time>
      </trkpt>
      <trkpt lat="59.8011131" lon="17.8100761">
        <ele>19.8444</ele>
        <time>2014-07-08T12:37:40Z</time>
      </trkpt>
      <trkpt lat="59.8011039" lon="17.8101973">
        <ele>19.8444</ele>
        <time>2014-07-08T12:37:41Z</time>
      </trkpt>
      <trkpt lat="59.8010886" lon="17.8103182">
        <ele>19.8444</ele>
        <time>2014-07-08T12:37:42Z</time>
      </trkpt>
      <trkpt lat="59.8010629" lon="17.8104323">
        <ele>19.3638</ele>
        <time>2014-07-08T12:37:43Z</time>
      </trkpt>
      <trkpt lat="59.8010255" lon="17.8105336">
        <ele>18.8831</ele>
        <time>2014-07-08T12:37:44Z</time>
      </trkpt>
      <trkpt lat="59.8009779" lon="17.8106167">
        <ele>18.4023</ele>
        <time>2014-07-08T12:37:45Z</time>
      </trkpt>
      <trkpt lat="59.8009238" lon="17.8106815">
        <ele>17.9218</ele>
        <time>2014-07-08T12:37:46Z</time>
      </trkpt>
      <trkpt lat="59.8008673" lon="17.8107383">
        <ele>17.9218</ele>
        <time>2014-07-08T12:37:47Z</time>
      </trkpt>
      <trkpt lat="59.8008115" lon="17.8107963">
        <ele>17.9218</ele>
        <time>2014-07-08T12:37:48Z</time>
      </trkpt>
      <trkpt lat="59.8007588" lon="17.8108635">
        <ele>17.9218</ele>
        <time>2014-07-08T12:37:49Z</time>
      </trkpt>
      <trkpt lat="59.8007111" lon="17.8109426">
        <ele>17.9218</ele>
        <time>2014-07-08T12:37:50Z</time>
      </trkpt>
      <trkpt lat="59.8006691" lon="17.8110332">
        <ele>17.4412</ele>
        <time>2014-07-08T12:37:51Z</time>
      </trkpt>
      <trkpt lat="59.8006328" lon="17.8111344">
        <ele>17.4412</ele>
        <time>2014-07-08T12:37:52Z</time>
      </trkpt>
      <trkpt lat="59.8006026" lon="17.8112444">
        <ele>17.9218</ele>
        <time>2014-07-08T12:37:53Z</time>
      </trkpt>
      <trkpt lat="59.8005796" lon="17.8113598">
        <ele>17.9218</ele>
        <time>2014-07-08T12:37:54Z</time>
      </trkpt>
      <trkpt lat="59.8005619" lon="17.8114792">
        <ele>17.9218</ele>
        <time>2014-07-08T12:37:55Z</time>
      </trkpt>
      <trkpt lat="59.8005467" lon="17.8116015">
        <ele>17.9218</ele>
        <time>2014-07-08T12:37:56Z</time>
      </trkpt>
      <trkpt lat="59.8005353" lon="17.811726">
        <ele>17.9218</ele>
        <time>2014-07-08T12:37:57Z</time>
      </trkpt>
      <trkpt lat="59.8005293" lon="17.8118518">
        <ele>17.9218</ele>
        <time>2014-07-08T12:37:58Z</time>
      </trkpt>
      <trkpt lat="59.8005278" lon="17.8119778">
        <ele>17.9218</ele>
        <time>2014-07-08T12:37:59Z</time>
      </trkpt>
      <trkpt lat="59.8005288" lon="17.8121029">
        <ele>18.4023</ele>
        <time>2014-07-08T12:38:00Z</time>
      </trkpt>
      <trkpt lat="59.8005287" lon="17.8122265">
        <ele>18.4023</ele>
        <time>2014-07-08T12:38:01Z</time>
      </trkpt>
      <trkpt lat="59.8005236" lon="17.8123501">
        <ele>18.4023</ele>
        <time>2014-07-08T12:38:02Z</time>
      </trkpt>
      <trkpt lat="59.800512" lon="17.8124734">
        <ele>18.4023</ele>
        <time>2014-07-08T12:38:03Z</time>
      </trkpt>
      <trkpt lat="59.8004944" lon="17.8125953">
        <ele>18.4023</ele>
        <time>2014-07-08T12:38:04Z</time>
      </trkpt>
      <trkpt lat="59.8004714" lon="17.8127139">
        <ele>18.4023</ele>
        <time>2014-07-08T12:38:05Z</time>
      </trkpt>
      <trkpt lat="59.8004441" lon="17.8128287">
        <ele>18.4023</ele>
        <time>2014-07-08T12:38:06Z</time>
      </trkpt>
      <trkpt lat="59.8004122" lon="17.8129387">
        <ele>18.4023</ele>
        <time>2014-07-08T12:38:07Z</time>
      </trkpt>
      <trkpt lat="59.8003765" lon="17.8130428">
        <ele>18.4023</ele>
        <time>2014-07-08T12:38:08Z</time>
      </trkpt>
      <trkpt lat="59.8003401" lon="17.8131446">
        <ele>18.4023</ele>
        <time>2014-07-08T12:38:09Z</time>
      </trkpt>
      <trkpt lat="59.8003038" lon="17.8132438">
        <ele>18.8831</ele>
        <time>2014-07-08T12:38:10Z</time>
      </trkpt>
      <trkpt lat="59.8002691" lon="17.8133405">
        <ele>18.8831</ele>
        <time>2014-07-08T12:38:11Z</time>
      </trkpt>
      <trkpt lat="59.8002357" lon="17.8134361">
        <ele>18.8831</ele>
        <time>2014-07-08T12:38:12Z</time>
      </trkpt>
      <trkpt lat="59.8002019" lon="17.8135293">
        <ele>18.8831</ele>
        <time>2014-07-08T12:38:13Z</time>
      </trkpt>
      <trkpt lat="59.800168" lon="17.8136204">
        <ele>19.3638</ele>
        <time>2014-07-08T12:38:14Z</time>
      </trkpt>
      <trkpt lat="59.8001347" lon="17.8137105">
        <ele>19.3638</ele>
        <time>2014-07-08T12:38:15Z</time>
      </trkpt>
      <trkpt lat="59.8001023" lon="17.8137959">
        <ele>19.3638</ele>
        <time>2014-07-08T12:38:16Z</time>
      </trkpt>
      <trkpt lat="59.8000698" lon="17.8138814">
        <ele>19.8444</ele>
        <time>2014-07-08T12:38:17Z</time>
      </trkpt>
      <trkpt lat="59.8000382" lon="17.8139659">
        <ele>19.8444</ele>
        <time>2014-07-08T12:38:18Z</time>
      </trkpt>
      <trkpt lat="59.800007" lon="17.8140488">
        <ele>19.8444</ele>
        <time>2014-07-08T12:38:19Z</time>
      </trkpt>
      <trkpt lat="59.7999754" lon="17.8141292">
        <ele>19.8444</ele>
        <time>2014-07-08T12:38:20Z</time>
      </trkpt>
      <trkpt lat="59.7999445" lon="17.8142072">
        <ele>19.8444</ele>
        <time>2014-07-08T12:38:21Z</time>
      </trkpt>
      <trkpt lat="59.7999135" lon="17.8142814">
        <ele>19.8444</ele>
        <time>2014-07-08T12:38:22Z</time>
      </trkpt>
      <trkpt lat="59.7998834" lon="17.8143545">
        <ele>20.325</ele>
        <time>2014-07-08T12:38:23Z</time>
      </trkpt>
      <trkpt lat="59.7998538" lon="17.8144259">
        <ele>20.8057</ele>
        <time>2014-07-08T12:38:24Z</time>
      </trkpt>
      <trkpt lat="59.7998239" lon="17.8144968">
        <ele>20.8057</ele>
        <time>2014-07-08T12:38:25Z</time>
      </trkpt>
      <trkpt lat="59.7997931" lon="17.8145671">
        <ele>20.8057</ele>
        <time>2014-07-08T12:38:26Z</time>
      </trkpt>
      <trkpt lat="59.7997626" lon="17.8146383">
        <ele>21.2864</ele>
        <time>2014-07-08T12:38:27Z</time>
      </trkpt>
      <trkpt lat="59.799733" lon="17.8147114">
        <ele>21.2864</ele>
        <time>2014-07-08T12:38:28Z</time>
      </trkpt>
      <trkpt lat="59.7997026" lon="17.8147857">
        <ele>21.767</ele>
        <time>2014-07-08T12:38:29Z</time>
      </trkpt>
      <trkpt lat="59.7996721" lon="17.814861">
        <ele>21.767</ele>
        <time>2014-07-08T12:38:30Z</time>
      </trkpt>
      <trkpt lat="59.7996438" lon="17.8149418">
        <ele>21.767</ele>
        <time>2014-07-08T12:38:31Z</time>
      </trkpt>
      <trkpt lat="59.7996153" lon="17.8150252">
        <ele>22.2476</ele>
        <time>2014-07-08T12:38:32Z</time>
      </trkpt>
      <trkpt lat="59.7995848" lon="17.8151081">
        <ele>22.2476</ele>
        <time>2014-07-08T12:38:33Z</time>
      </trkpt>
      <trkpt lat="59.7995518" lon="17.8151878">
        <ele>22.2476</ele>
        <time>2014-07-08T12:38:34Z</time>
      </trkpt>
      <trkpt lat="59.7995169" lon="17.8152652">
        <ele>22.2476</ele>
        <time>2014-07-08T12:38:35Z</time>
      </trkpt>
      <trkpt lat="59.7994837" lon="17.815342">
        <ele>22.7283</ele>
        <time>2014-07-08T12:38:36Z</time>
      </trkpt>
      <trkpt lat="59.7994444" lon="17.8154116">
        <ele>21.767</ele>
        <time>2014-07-08T12:38:37Z</time>
      </trkpt>
      <trkpt lat="59.7994009" lon="17.8154765">
        <ele>21.767</ele>
        <time>2014-07-08T12:38:38Z</time>
      </trkpt>
      <trkpt lat="59.7993574" lon="17.8155322">
        <ele>21.767</ele>
        <time>2014-07-08T12:38:39Z</time>
      </trkpt>
      <trkpt lat="59.7993116" lon="17.8155831">
        <ele>21.767</ele>
        <time>2014-07-08T12:38:40Z</time>
      </trkpt>
      <trkpt lat="59.7992632" lon="17.8156291">
        <ele>21.2864</ele>
        <time>2014-07-08T12:38:41Z</time>
      </trkpt>
      <trkpt lat="59.7992118" lon="17.8156699">
        <ele>21.2864</ele>
        <time>2014-07-08T12:38:42Z</time>
      </trkpt>
      <trkpt lat="59.7991579" lon="17.8157062">
        <ele>21.2864</ele>
        <time>2014-07-08T12:38:43Z</time>
      </trkpt>
      <trkpt lat="59.799103" lon="17.8157359">
        <ele>21.2864</ele>
        <time>2014-07-08T12:38:44Z</time>
      </trkpt>
      <trkpt lat="59.7990482" lon="17.8157556">
        <ele>20.8057</ele>
        <time>2014-07-08T12:38:45Z</time>
      </trkpt>
      <trkpt lat="59.7989963" lon="17.8157717">
        <ele>20.8057</ele>
        <time>2014-07-08T12:38:46Z</time>
      </trkpt>
      <trkpt lat="59.7989447" lon="17.8157837">
        <ele>20.8057</ele>
        <time>2014-07-08T12:38:47Z</time>
      </trkpt>
      <trkpt lat="59.7988924" lon="17.8157944">
        <ele>20.8057</ele>
        <time>2014-07-08T12:38:48Z</time>
      </trkpt>
      <trkpt lat="59.7988396" lon="17.8158047">
        <ele>21.2864</ele>
        <time>2014-07-08T12:38:49Z</time>
      </trkpt>
      <trkpt lat="59.7987857" lon="17.8158191">
        <ele>21.2864</ele>
        <time>2014-07-08T12:38:50Z</time>
      </trkpt>
      <trkpt lat="59.7987311" lon="17.8158368">
        <ele>21.2864</ele>
        <time>2014-07-08T12:38:51Z</time>
      </trkpt>
      <trkpt lat="59.7986767" lon="17.8158595">
        <ele>21.2864</ele>
        <time>2014-07-08T12:38:52Z</time>
      </trkpt>
      <trkpt lat="59.7986226" lon="17.8158894">
        <ele>21.2864</ele>
        <time>2014-07-08T12:38:53Z</time>
      </trkpt>
      <trkpt lat="59.7985701" lon="17.8159285">
        <ele>21.2864</ele>
        <time>2014-07-08T12:38:54Z</time>
      </trkpt>
      <trkpt lat="59.7985199" lon="17.8159742">
        <ele>21.2864</ele>
        <time>2014-07-08T12:38:55Z</time>
      </trkpt>
      <trkpt lat="59.7984697" lon="17.8160217">
        <ele>21.767</ele>
        <time>2014-07-08T12:38:56Z</time>
      </trkpt>
      <trkpt lat="59.7984225" lon="17.8160727">
        <ele>21.767</ele>
        <time>2014-07-08T12:38:57Z</time>
      </trkpt>
      <trkpt lat="59.7983768" lon="17.8161254">
        <ele>22.2476</ele>
        <time>2014-07-08T12:38:58Z</time>
      </trkpt>
      <trkpt lat="59.7983314" lon="17.8161788">
        <ele>22.2476</ele>
        <time>2014-07-08T12:38:59Z</time>
      </trkpt>
      <trkpt lat="59.7982872" lon="17.8162361">
        <ele>22.7283</ele>
        <time>2014-07-08T12:39:00Z</time>
      </trkpt>
      <trkpt lat="59.7982465" lon="17.8162991">
        <ele>22.7283</ele>
        <time>2014-07-08T12:39:01Z</time>
      </trkpt>
      <trkpt lat="59.7982076" lon="17.8163638">
        <ele>22.7283</ele>
        <time>2014-07-08T12:39:02Z</time>
      </trkpt>
      <trkpt lat="59.7981697" lon="17.8164316">
        <ele>22.7283</ele>
        <time>2014-07-08T12:39:03Z</time>
      </trkpt>
      <trkpt lat="59.7981309" lon="17.8165025">
        <ele>22.7283</ele>
        <time>2014-07-08T12:39:04Z</time>
      </trkpt>
      <trkpt lat="59.7980918" lon="17.8165762">
        <ele>22.7283</ele>
        <time>2014-07-08T12:39:05Z</time>
      </trkpt>
      <trkpt lat="59.7980527" lon="17.8166523">
        <ele>22.7283</ele>
        <time>2014-07-08T12:39:06Z</time>
      </trkpt>
      <trkpt lat="59.7980144" lon="17.8167303">
        <ele>22.7283</ele>
        <time>2014-07-08T12:39:07Z</time>
      </trkpt>
      <trkpt lat="59.7979781" lon="17.8168097">
        <ele>22.7283</ele>
        <time>2014-07-08T12:39:08Z</time>
      </trkpt>
      <trkpt lat="59.7979427" lon="17.8168864">
        <ele>22.7283</ele>
        <time>2014-07-08T12:39:09Z</time>
      </trkpt>
      <trkpt lat="59.7979092" lon="17.8169639">
        <ele>22.7283</ele>
        <time>2014-07-08T12:39:10Z</time>
      </trkpt>
      <trkpt lat="59.7978784" lon="17.8170449">
        <ele>23.209</ele>
        <time>2014-07-08T12:39:11Z</time>
      </trkpt>
      <trkpt lat="59.7978485" lon="17.8171295">
        <ele>23.209</ele>
        <time>2014-07-08T12:39:12Z</time>
      </trkpt>
      <trkpt lat="59.7978201" lon="17.8172236">
        <ele>23.6896</ele>
        <time>2014-07-08T12:39:13Z</time>
      </trkpt>
      <trkpt lat="59.7977911" lon="17.8173183">
        <ele>22.7283</ele>
        <time>2014-07-08T12:39:14Z</time>
      </trkpt>
      <trkpt lat="59.7977614" lon="17.81742">
        <ele>22.2476</ele>
        <time>2014-07-08T12:39:15Z</time>
      </trkpt>
      <trkpt lat="59.7977289" lon="17.8175275">
        <ele>21.2864</ele>
        <time>2014-07-08T12:39:16Z</time>
      </trkpt>
      <trkpt lat="59.7976964" lon="17.8176432">
        <ele>20.8057</ele>
        <time>2014-07-08T12:39:17Z</time>
      </trkpt>
      <trkpt lat="59.797665" lon="17.8177656">
        <ele>20.8057</ele>
        <time>2014-07-08T12:39:18Z</time>
      </trkpt>
      <trkpt lat="59.7976331" lon="17.8178919">
        <ele>19.8444</ele>
        <time>2014-07-08T12:39:19Z</time>
      </trkpt>
      <trkpt lat="59.7976026" lon="17.8180205">
        <ele>19.3638</ele>
        <time>2014-07-08T12:39:20Z</time>
      </trkpt>
      <trkpt lat="59.7975751" lon="17.8181504">
        <ele>18.8831</ele>
        <time>2014-07-08T12:39:21Z</time>
      </trkpt>
      <trkpt lat="59.7975529" lon="17.8182834">
        <ele>18.4023</ele>
        <time>2014-07-08T12:39:22Z</time>
      </trkpt>
      <trkpt lat="59.7975361" lon="17.818418">
        <ele>18.4023</ele>
        <time>2014-07-08T12:39:23Z</time>
      </trkpt>
      <trkpt lat="59.7975232" lon="17.8185539">
        <ele>18.4023</ele>
        <time>2014-07-08T12:39:24Z</time>
      </trkpt>
      <trkpt lat="59.7975124" lon="17.818693">
        <ele>17.9218</ele>
        <time>2014-07-08T12:39:25Z</time>
      </trkpt>
      <trkpt lat="59.797503" lon="17.8188363">
        <ele>17.4412</ele>
        <time>2014-07-08T12:39:26Z</time>
      </trkpt>
      <trkpt lat="59.7974938" lon="17.8189834">
        <ele>17.4412</ele>
        <time>2014-07-08T12:39:27Z</time>
      </trkpt>
      <trkpt lat="59.7974858" lon="17.8191347">
        <ele>17.4412</ele>
        <time>2014-07-08T12:39:28Z</time>
      </trkpt>
      <trkpt lat="59.7974777" lon="17.8192906">
        <ele>16.9604</ele>
        <time>2014-07-08T12:39:29Z</time>
      </trkpt>
      <trkpt lat="59.7974693" lon="17.8194507">
        <ele>16.9604</ele>
        <time>2014-07-08T12:39:30Z</time>
      </trkpt>
      <trkpt lat="59.7974611" lon="17.8196126">
        <ele>16.9604</ele>
        <time>2014-07-08T12:39:31Z</time>
      </trkpt>
      <trkpt lat="59.7974531" lon="17.8197748">
        <ele>16.4797</ele>
        <time>2014-07-08T12:39:32Z</time>
      </trkpt>
      <trkpt lat="59.7974451" lon="17.8199374">
        <ele>16.4797</ele>
        <time>2014-07-08T12:39:33Z</time>
      </trkpt>
      <trkpt lat="59.7974371" lon="17.8200986">
        <ele>16.4797</ele>
        <time>2014-07-08T12:39:34Z</time>
      </trkpt>
      <trkpt lat="59.7974291" lon="17.8202602">
        <ele>16.4797</ele>
        <time>2014-07-08T12:39:35Z</time>
      </trkpt>
      <trkpt lat="59.7974216" lon="17.8204207">
        <ele>16.4797</ele>
        <time>2014-07-08T12:39:36Z</time>
      </trkpt>
      <trkpt lat="59.7974146" lon="17.8205804">
        <ele>16.4797</ele>
        <time>2014-07-08T12:39:37Z</time>
      </trkpt>
      <trkpt lat="59.7974081" lon="17.82074">
        <ele>16.4797</ele>
        <time>2014-07-08T12:39:38Z</time>
      </trkpt>
      <trkpt lat="59.7974016" lon="17.8209016">
        <ele>15.999</ele>
        <time>2014-07-08T12:39:39Z</time>
      </trkpt>
      <trkpt lat="59.7973954" lon="17.8210636">
        <ele>15.999</ele>
        <time>2014-07-08T12:39:40Z</time>
      </trkpt>
      <trkpt lat="59.7973907" lon="17.8212245">
        <ele>15.999</ele>
        <time>2014-07-08T12:39:41Z</time>
      </trkpt>
      <trkpt lat="59.7973865" lon="17.8213837">
        <ele>15.999</ele>
        <time>2014-07-08T12:39:42Z</time>
      </trkpt>
      <trkpt lat="59.7973828" lon="17.8215418">
        <ele>15.999</ele>
        <time>2014-07-08T12:39:43Z</time>
      </trkpt>
      <trkpt lat="59.7973808" lon="17.8216994">
        <ele>15.999</ele>
        <time>2014-07-08T12:39:44Z</time>
      </trkpt>
      <trkpt lat="59.7973799" lon="17.8218558">
        <ele>15.999</ele>
        <time>2014-07-08T12:39:45Z</time>
      </trkpt>
      <trkpt lat="59.7973808" lon="17.822012">
        <ele>15.999</ele>
        <time>2014-07-08T12:39:46Z</time>
      </trkpt>
      <trkpt lat="59.7973827" lon="17.8221686">
        <ele>15.999</ele>
        <time>2014-07-08T12:39:47Z</time>
      </trkpt>
      <trkpt lat="59.7973876" lon="17.8223207">
        <ele>16.4797</ele>
        <time>2014-07-08T12:39:48Z</time>
      </trkpt>
      <trkpt lat="59.7973953" lon="17.8224714">
        <ele>16.4797</ele>
        <time>2014-07-08T12:39:49Z</time>
      </trkpt>
      <trkpt lat="59.7973988" lon="17.8226291">
        <ele>16.4797</ele>
        <time>2014-07-08T12:39:50Z</time>
      </trkpt>
      <trkpt lat="59.7974011" lon="17.8227849">
        <ele>16.4797</ele>
        <time>2014-07-08T12:39:51Z</time>
      </trkpt>
      <trkpt lat="59.797407" lon="17.8229358">
        <ele>16.4797</ele>
        <time>2014-07-08T12:39:52Z</time>
      </trkpt>
      <trkpt lat="59.7974133" lon="17.8230869">
        <ele>16.4797</ele>
        <time>2014-07-08T12:39:53Z</time>
      </trkpt>
      <trkpt lat="59.7974193" lon="17.8232372">
        <ele>16.9604</ele>
        <time>2014-07-08T12:39:54Z</time>
      </trkpt>
      <trkpt lat="59.7974265" lon="17.8233864">
        <ele>16.9604</ele>
        <time>2014-07-08T12:39:55Z</time>
      </trkpt>
      <trkpt lat="59.7974353" lon="17.8235338">
        <ele>16.9604</ele>
        <time>2014-07-08T12:39:56Z</time>
      </trkpt>
      <trkpt lat="59.7974456" lon="17.8236781">
        <ele>17.4412</ele>
        <time>2014-07-08T12:39:57Z</time>
      </trkpt>
      <trkpt lat="59.7974575" lon="17.8238188">
        <ele>17.4412</ele>
        <time>2014-07-08T12:39:58Z</time>
      </trkpt>
      <trkpt lat="59.7974724" lon="17.8239561">
        <ele>17.4412</ele>
        <time>2014-07-08T12:39:59Z</time>
      </trkpt>
      <trkpt lat="59.7974894" lon="17.8240925">
        <ele>17.4412</ele>
        <time>2014-07-08T12:40:00Z</time>
      </trkpt>
      <trkpt lat="59.7975068" lon="17.8242318">
        <ele>17.4412</ele>
        <time>2014-07-08T12:40:01Z</time>
      </trkpt>
      <trkpt lat="59.7975246" lon="17.8243737">
        <ele>17.4412</ele>
        <time>2014-07-08T12:40:02Z</time>
      </trkpt>
      <trkpt lat="59.7975441" lon="17.8245149">
        <ele>17.4412</ele>
        <time>2014-07-08T12:40:03Z</time>
      </trkpt>
      <trkpt lat="59.7975661" lon="17.8246524">
        <ele>17.4412</ele>
        <time>2014-07-08T12:40:04Z</time>
      </trkpt>
      <trkpt lat="59.7975886" lon="17.8247866">
        <ele>17.4412</ele>
        <time>2014-07-08T12:40:05Z</time>
      </trkpt>
      <trkpt lat="59.7976104" lon="17.8249209">
        <ele>17.4412</ele>
        <time>2014-07-08T12:40:06Z</time>
      </trkpt>
      <trkpt lat="59.7976309" lon="17.8250594">
        <ele>17.4412</ele>
        <time>2014-07-08T12:40:07Z</time>
      </trkpt>
      <trkpt lat="59.7976512" lon="17.8252018">
        <ele>17.4412</ele>
        <time>2014-07-08T12:40:08Z</time>
      </trkpt>
      <trkpt lat="59.797673" lon="17.8253476">
        <ele>17.4412</ele>
        <time>2014-07-08T12:40:09Z</time>
      </trkpt>
      <trkpt lat="59.7976961" lon="17.8254959">
        <ele>17.4412</ele>
        <time>2014-07-08T12:40:10Z</time>
      </trkpt>
      <trkpt lat="59.7977176" lon="17.825645">
        <ele>16.9604</ele>
        <time>2014-07-08T12:40:11Z</time>
      </trkpt>
      <trkpt lat="59.7977367" lon="17.8257951">
        <ele>16.9604</ele>
        <time>2014-07-08T12:40:12Z</time>
      </trkpt>
      <trkpt lat="59.7977523" lon="17.8259459">
        <ele>16.9604</ele>
        <time>2014-07-08T12:40:13Z</time>
      </trkpt>
      <trkpt lat="59.7977647" lon="17.8260977">
        <ele>16.9604</ele>
        <time>2014-07-08T12:40:14Z</time>
      </trkpt>
      <trkpt lat="59.7977739" lon="17.8262484">
        <ele>16.9604</ele>
        <time>2014-07-08T12:40:15Z</time>
      </trkpt>
      <trkpt lat="59.7977817" lon="17.8263971">
        <ele>16.9604</ele>
        <time>2014-07-08T12:40:16Z</time>
      </trkpt>
      <trkpt lat="59.7977898" lon="17.8265437">
        <ele>16.9604</ele>
        <time>2014-07-08T12:40:17Z</time>
      </trkpt>
      <trkpt lat="59.7977978" lon="17.8266908">
        <ele>16.9604</ele>
        <time>2014-07-08T12:40:18Z</time>
      </trkpt>
      <trkpt lat="59.7978051" lon="17.8268388">
        <ele>16.9604</ele>
        <time>2014-07-08T12:40:19Z</time>
      </trkpt>
      <trkpt lat="59.797813" lon="17.826987">
        <ele>16.9604</ele>
        <time>2014-07-08T12:40:20Z</time>
      </trkpt>
      <trkpt lat="59.7978227" lon="17.827134">
        <ele>16.9604</ele>
        <time>2014-07-08T12:40:21Z</time>
      </trkpt>
      <trkpt lat="59.7978347" lon="17.8272796">
        <ele>17.4412</ele>
        <time>2014-07-08T12:40:22Z</time>
      </trkpt>
      <trkpt lat="59.7978486" lon="17.8274244">
        <ele>17.4412</ele>
        <time>2014-07-08T12:40:23Z</time>
      </trkpt>
      <trkpt lat="59.7978642" lon="17.82757">
        <ele>17.4412</ele>
        <time>2014-07-08T12:40:24Z</time>
      </trkpt>
      <trkpt lat="59.7978812" lon="17.8277165">
        <ele>17.4412</ele>
        <time>2014-07-08T12:40:25Z</time>
      </trkpt>
      <trkpt lat="59.7978993" lon="17.8278628">
        <ele>17.4412</ele>
        <time>2014-07-08T12:40:26Z</time>
      </trkpt>
      <trkpt lat="59.7979179" lon="17.8280087">
        <ele>17.4412</ele>
        <time>2014-07-08T12:40:27Z</time>
      </trkpt>
      <trkpt lat="59.7979377" lon="17.8281552">
        <ele>17.4412</ele>
        <time>2014-07-08T12:40:28Z</time>
      </trkpt>
      <trkpt lat="59.7979598" lon="17.8283022">
        <ele>17.4412</ele>
        <time>2014-07-08T12:40:29Z</time>
      </trkpt>
      <trkpt lat="59.7979842" lon="17.8284478">
        <ele>17.4412</ele>
        <time>2014-07-08T12:40:30Z</time>
      </trkpt>
      <trkpt lat="59.7980108" lon="17.8285913">
        <ele>17.9218</ele>
        <time>2014-07-08T12:40:31Z</time>
      </trkpt>
      <trkpt lat="59.7980396" lon="17.8287318">
        <ele>17.9218</ele>
        <time>2014-07-08T12:40:32Z</time>
      </trkpt>
      <trkpt lat="59.7980698" lon="17.8288684">
        <ele>17.9218</ele>
        <time>2014-07-08T12:40:33Z</time>
      </trkpt>
      <trkpt lat="59.7980983" lon="17.8290027">
        <ele>17.9218</ele>
        <time>2014-07-08T12:40:34Z</time>
      </trkpt>
      <trkpt lat="59.7981241" lon="17.8291344">
        <ele>17.9218</ele>
        <time>2014-07-08T12:40:35Z</time>
      </trkpt>
      <trkpt lat="59.7981489" lon="17.8292615">
        <ele>17.9218</ele>
        <time>2014-07-08T12:40:36Z</time>
      </trkpt>
      <trkpt lat="59.7981732" lon="17.8293859">
        <ele>17.9218</ele>
        <time>2014-07-08T12:40:37Z</time>
      </trkpt>
      <trkpt lat="59.7981983" lon="17.8295091">
        <ele>18.4023</ele>
        <time>2014-07-08T12:40:38Z</time>
      </trkpt>
      <trkpt lat="59.7982235" lon="17.8296318">
        <ele>18.4023</ele>
        <time>2014-07-08T12:40:39Z</time>
      </trkpt>
      <trkpt lat="59.7982486" lon="17.8297543">
        <ele>18.4023</ele>
        <time>2014-07-08T12:40:40Z</time>
      </trkpt>
      <trkpt lat="59.7982723" lon="17.8298738">
        <ele>18.4023</ele>
        <time>2014-07-08T12:40:41Z</time>
      </trkpt>
      <trkpt lat="59.7982962" lon="17.829993">
        <ele>17.9218</ele>
        <time>2014-07-08T12:40:42Z</time>
      </trkpt>
      <trkpt lat="59.798321" lon="17.8301105">
        <ele>17.9218</ele>
        <time>2014-07-08T12:40:43Z</time>
      </trkpt>
      <trkpt lat="59.7983454" lon="17.8302247">
        <ele>17.9218</ele>
        <time>2014-07-08T12:40:44Z</time>
      </trkpt>
      <trkpt lat="59.7983687" lon="17.8303344">
        <ele>17.9218</ele>
        <time>2014-07-08T12:40:45Z</time>
      </trkpt>
      <trkpt lat="59.7983925" lon="17.830439">
        <ele>17.9218</ele>
        <time>2014-07-08T12:40:46Z</time>
      </trkpt>
      <trkpt lat="59.7984163" lon="17.8305402">
        <ele>17.9218</ele>
        <time>2014-07-08T12:40:47Z</time>
      </trkpt>
      <trkpt lat="59.7984385" lon="17.8306432">
        <ele>17.9218</ele>
        <time>2014-07-08T12:40:48Z</time>
      </trkpt>
      <trkpt lat="59.7984572" lon="17.830751">
        <ele>17.9218</ele>
        <time>2014-07-08T12:40:49Z</time>
      </trkpt>
      <trkpt lat="59.7984728" lon="17.8308635">
        <ele>17.9218</ele>
        <time>2014-07-08T12:40:50Z</time>
      </trkpt>
      <trkpt lat="59.798485" lon="17.8309808">
        <ele>17.9218</ele>
        <time>2014-07-08T12:40:51Z</time>
      </trkpt>
      <trkpt lat="59.7984924" lon="17.8311015">
        <ele>17.9218</ele>
        <time>2014-07-08T12:40:52Z</time>
      </trkpt>
      <trkpt lat="59.7984928" lon="17.8312244">
        <ele>17.9218</ele>
        <time>2014-07-08T12:40:53Z</time>
      </trkpt>
      <trkpt lat="59.7984846" lon="17.831353">
        <ele>18.4023</ele>
        <time>2014-07-08T12:40:54Z</time>
      </trkpt>
      <trkpt lat="59.798478" lon="17.8314724">
        <ele>18.8831</ele>
        <time>2014-07-08T12:40:55Z</time>
      </trkpt>
      <trkpt lat="59.7984737" lon="17.8315868">
        <ele>19.8444</ele>
        <time>2014-07-08T12:40:56Z</time>
      </trkpt>
      <trkpt lat="59.7984707" lon="17.8316963">
        <ele>20.325</ele>
        <time>2014-07-08T12:40:57Z</time>
      </trkpt>
      <trkpt lat="59.7984676" lon="17.831801">
        <ele>20.8057</ele>
        <time>2014-07-08T12:40:58Z</time>
      </trkpt>
      <trkpt lat="59.7984665" lon="17.8319002">
        <ele>21.2864</ele>
        <time>2014-07-08T12:40:59Z</time>
      </trkpt>
      <trkpt lat="59.7984685" lon="17.8319951">
        <ele>21.767</ele>
        <time>2014-07-08T12:41:00Z</time>
      </trkpt>
      <trkpt lat="59.7984738" lon="17.8320885">
        <ele>21.767</ele>
        <time>2014-07-08T12:41:01Z</time>
      </trkpt>
      <trkpt lat="59.7984804" lon="17.8321838">
        <ele>22.2476</ele>
        <time>2014-07-08T12:41:02Z</time>
      </trkpt>
      <trkpt lat="59.7984886" lon="17.8322827">
        <ele>22.2476</ele>
        <time>2014-07-08T12:41:03Z</time>
      </trkpt>
      <trkpt lat="59.7984985" lon="17.8323857">
        <ele>22.7283</ele>
        <time>2014-07-08T12:41:04Z</time>
      </trkpt>
      <trkpt lat="59.7985081" lon="17.8324933">
        <ele>22.7283</ele>
        <time>2014-07-08T12:41:05Z</time>
      </trkpt>
      <trkpt lat="59.7985168" lon="17.8326038">
        <ele>22.7283</ele>
        <time>2014-07-08T12:41:06Z</time>
      </trkpt>
      <trkpt lat="59.7985241" lon="17.8327168">
        <ele>23.209</ele>
        <time>2014-07-08T12:41:07Z</time>
      </trkpt>
      <trkpt lat="59.7985303" lon="17.8328293">
        <ele>23.209</ele>
        <time>2014-07-08T12:41:08Z</time>
      </trkpt>
      <trkpt lat="59.7985339" lon="17.8329416">
        <ele>23.6896</ele>
        <time>2014-07-08T12:41:09Z</time>
      </trkpt>
      <trkpt lat="59.7985345" lon="17.833055">
        <ele>23.6896</ele>
        <time>2014-07-08T12:41:10Z</time>
      </trkpt>
      <trkpt lat="59.7985325" lon="17.8331701">
        <ele>23.6896</ele>
        <time>2014-07-08T12:41:11Z</time>
      </trkpt>
      <trkpt lat="59.7985296" lon="17.8332866">
        <ele>23.6896</ele>
        <time>2014-07-08T12:41:12Z</time>
      </trkpt>
      <trkpt lat="59.7985267" lon="17.8334061">
        <ele>23.6896</ele>
        <time>2014-07-08T12:41:13Z</time>
      </trkpt>
      <trkpt lat="59.7985241" lon="17.8335291">
        <ele>24.1703</ele>
        <time>2014-07-08T12:41:14Z</time>
      </trkpt>
      <trkpt lat="59.7985219" lon="17.8336549">
        <ele>24.1703</ele>
        <time>2014-07-08T12:41:15Z</time>
      </trkpt>
      <trkpt lat="59.7985218" lon="17.8337786">
        <ele>23.6896</ele>
        <time>2014-07-08T12:41:16Z</time>
      </trkpt>
      <trkpt lat="59.7985256" lon="17.8339009">
        <ele>23.6896</ele>
        <time>2014-07-08T12:41:17Z</time>
      </trkpt>
      <trkpt lat="59.7985316" lon="17.8340218">
        <ele>23.6896</ele>
        <time>2014-07-08T12:41:18Z</time>
      </trkpt>
      <trkpt lat="59.7985408" lon="17.8341347">
        <ele>23.6896</ele>
        <time>2014-07-08T12:41:19Z</time>
      </trkpt>
      <trkpt lat="59.798553" lon="17.8342532">
        <ele>23.6896</ele>
        <time>2014-07-08T12:41:20Z</time>
      </trkpt>
      <trkpt lat="59.7985677" lon="17.8343751">
        <ele>23.6896</ele>
        <time>2014-07-08T12:41:21Z</time>
      </trkpt>
      <trkpt lat="59.7985862" lon="17.8344903">
        <ele>23.6896</ele>
        <time>2014-07-08T12:41:22Z</time>
      </trkpt>
      <trkpt lat="59.7986068" lon="17.8346092">
        <ele>23.6896</ele>
        <time>2014-07-08T12:41:23Z</time>
      </trkpt>
      <trkpt lat="59.7986292" lon="17.8347322">
        <ele>23.6896</ele>
        <time>2014-07-08T12:41:24Z</time>
      </trkpt>
      <trkpt lat="59.7986521" lon="17.8348582">
        <ele>23.6896</ele>
        <time>2014-07-08T12:41:25Z</time>
      </trkpt>
      <trkpt lat="59.7986753" lon="17.8349876">
        <ele>23.6896</ele>
        <time>2014-07-08T12:41:26Z</time>
      </trkpt>
      <trkpt lat="59.7986972" lon="17.8351178">
        <ele>23.6896</ele>
        <time>2014-07-08T12:41:27Z</time>
      </trkpt>
      <trkpt lat="59.798716" lon="17.835246">
        <ele>23.6896</ele>
        <time>2014-07-08T12:41:28Z</time>
      </trkpt>
      <trkpt lat="59.7987304" lon="17.8353726">
        <ele>24.1703</ele>
        <time>2014-07-08T12:41:29Z</time>
      </trkpt>
      <trkpt lat="59.7987415" lon="17.835499">
        <ele>24.1703</ele>
        <time>2014-07-08T12:41:30Z</time>
      </trkpt>
      <trkpt lat="59.7987466" lon="17.8356253">
        <ele>24.651</ele>
        <time>2014-07-08T12:41:31Z</time>
      </trkpt>
      <trkpt lat="59.7987458" lon="17.8357486">
        <ele>24.651</ele>
        <time>2014-07-08T12:41:32Z</time>
      </trkpt>
      <trkpt lat="59.7987428" lon="17.8358646">
        <ele>25.1317</ele>
        <time>2014-07-08T12:41:33Z</time>
      </trkpt>
      <trkpt lat="59.7987427" lon="17.8359703">
        <ele>25.6123</ele>
        <time>2014-07-08T12:41:34Z</time>
      </trkpt>
      <trkpt lat="59.7987499" lon="17.8360673">
        <ele>25.6123</ele>
        <time>2014-07-08T12:41:35Z</time>
      </trkpt>
      <trkpt lat="59.7987691" lon="17.8361548">
        <ele>25.6123</ele>
        <time>2014-07-08T12:41:36Z</time>
      </trkpt>
      <trkpt lat="59.7988021" lon="17.8362175">
        <ele>25.6123</ele>
        <time>2014-07-08T12:41:37Z</time>
      </trkpt>
      <trkpt lat="59.7988473" lon="17.8362458">
        <ele>25.1317</ele>
        <time>2014-07-08T12:41:38Z</time>
      </trkpt>
      <trkpt lat="59.7988973" lon="17.836237">
        <ele>24.651</ele>
        <time>2014-07-08T12:41:39Z</time>
      </trkpt>
      <trkpt lat="59.7989472" lon="17.8362019">
        <ele>24.651</ele>
        <time>2014-07-08T12:41:40Z</time>
      </trkpt>
      <trkpt lat="59.7989943" lon="17.8361524">
        <ele>24.1703</ele>
        <time>2014-07-08T12:41:41Z</time>
      </trkpt>
      <trkpt lat="59.79904" lon="17.8360966">
        <ele>24.1703</ele>
        <time>2014-07-08T12:41:42Z</time>
      </trkpt>
      <trkpt lat="59.7990873" lon="17.8360419">
        <ele>23.6896</ele>
        <time>2014-07-08T12:41:43Z</time>
      </trkpt>
      <trkpt lat="59.7991363" lon="17.8359886">
        <ele>23.6896</ele>
        <time>2014-07-08T12:41:44Z</time>
      </trkpt>
      <trkpt lat="59.799186" lon="17.8359338">
        <ele>23.209</ele>
        <time>2014-07-08T12:41:45Z</time>
      </trkpt>
      <trkpt lat="59.7992366" lon="17.8358797">
        <ele>23.209</ele>
        <time>2014-07-08T12:41:46Z</time>
      </trkpt>
      <trkpt lat="59.7992879" lon="17.835825">
        <ele>22.7283</ele>
        <time>2014-07-08T12:41:47Z</time>
      </trkpt>
      <trkpt lat="59.7993414" lon="17.8357703">
        <ele>22.2476</ele>
        <time>2014-07-08T12:41:48Z</time>
      </trkpt>
      <trkpt lat="59.7993952" lon="17.8357138">
        <ele>22.2476</ele>
        <time>2014-07-08T12:41:49Z</time>
      </trkpt>
      <trkpt lat="59.7994512" lon="17.8356582">
        <ele>22.2476</ele>
        <time>2014-07-08T12:41:50Z</time>
      </trkpt>
      <trkpt lat="59.7995089" lon="17.8356042">
        <ele>22.2476</ele>
        <time>2014-07-08T12:41:51Z</time>
      </trkpt>
      <trkpt lat="59.7995693" lon="17.8355508">
        <ele>22.2476</ele>
        <time>2014-07-08T12:41:52Z</time>
      </trkpt>
      <trkpt lat="59.7996299" lon="17.8354993">
        <ele>22.2476</ele>
        <time>2014-07-08T12:41:53Z</time>
      </trkpt>
      <trkpt lat="59.7996906" lon="17.8354484">
        <ele>22.7283</ele>
        <time>2014-07-08T12:41:54Z</time>
      </trkpt>
      <trkpt lat="59.7997486" lon="17.8353961">
        <ele>22.7283</ele>
        <time>2014-07-08T12:41:55Z</time>
      </trkpt>
      <trkpt lat="59.7998057" lon="17.8353126">
        <ele>22.7283</ele>
        <time>2014-07-08T12:41:56Z</time>
      </trkpt>
      <trkpt lat="59.7998606" lon="17.8352499">
        <ele>22.7283</ele>
        <time>2014-07-08T12:41:57Z</time>
      </trkpt>
      <trkpt lat="59.7999154" lon="17.8351942">
        <ele>22.7283</ele>
        <time>2014-07-08T12:41:58Z</time>
      </trkpt>
      <trkpt lat="59.7999694" lon="17.8351354">
        <ele>22.7283</ele>
        <time>2014-07-08T12:41:59Z</time>
      </trkpt>
      <trkpt lat="59.8000263" lon="17.8350804">
        <ele>22.2476</ele>
        <time>2014-07-08T12:42:00Z</time>
      </trkpt>
      <trkpt lat="59.8000852" lon="17.8350308">
        <ele>22.2476</ele>
        <time>2014-07-08T12:42:01Z</time>
      </trkpt>
      <trkpt lat="59.8001471" lon="17.8349955">
        <ele>21.767</ele>
        <time>2014-07-08T12:42:02Z</time>
      </trkpt>
      <trkpt lat="59.8002131" lon="17.8349769">
        <ele>21.767</ele>
        <time>2014-07-08T12:42:03Z</time>
      </trkpt>
      <trkpt lat="59.8002801" lon="17.8349808">
        <ele>21.767</ele>
        <time>2014-07-08T12:42:04Z</time>
      </trkpt>
      <trkpt lat="59.8003459" lon="17.8350098">
        <ele>21.2864</ele>
        <time>2014-07-08T12:42:05Z</time>
      </trkpt>
      <trkpt lat="59.8004094" lon="17.8350643">
        <ele>21.2864</ele>
        <time>2014-07-08T12:42:06Z</time>
      </trkpt>
      <trkpt lat="59.8004695" lon="17.8351436">
        <ele>21.2864</ele>
        <time>2014-07-08T12:42:07Z</time>
      </trkpt>
      <trkpt lat="59.8005236" lon="17.8352452">
        <ele>20.8057</ele>
        <time>2014-07-08T12:42:08Z</time>
      </trkpt>
      <trkpt lat="59.8005718" lon="17.8353639">
        <ele>20.325</ele>
        <time>2014-07-08T12:42:09Z</time>
      </trkpt>
      <trkpt lat="59.8006167" lon="17.8354942">
        <ele>20.325</ele>
        <time>2014-07-08T12:42:10Z</time>
      </trkpt>
      <trkpt lat="59.8006604" lon="17.8356306">
        <ele>19.8444</ele>
        <time>2014-07-08T12:42:11Z</time>
      </trkpt>
      <trkpt lat="59.800704" lon="17.8357697">
        <ele>19.8444</ele>
        <time>2014-07-08T12:42:12Z</time>
      </trkpt>
      <trkpt lat="59.8007463" lon="17.8359103">
        <ele>19.3638</ele>
        <time>2014-07-08T12:42:13Z</time>
      </trkpt>
      <trkpt lat="59.8007886" lon="17.8360522">
        <ele>19.3638</ele>
        <time>2014-07-08T12:42:14Z</time>
      </trkpt>
      <trkpt lat="59.8008313" lon="17.8361932">
        <ele>18.8831</ele>
        <time>2014-07-08T12:42:15Z</time>
      </trkpt>
      <trkpt lat="59.8008733" lon="17.8363351">
        <ele>18.8831</ele>
        <time>2014-07-08T12:42:16Z</time>
      </trkpt>
      <trkpt lat="59.8009161" lon="17.8364765">
        <ele>18.4023</ele>
        <time>2014-07-08T12:42:17Z</time>
      </trkpt>
      <trkpt lat="59.8009592" lon="17.8366165">
        <ele>18.4023</ele>
        <time>2014-07-08T12:42:18Z</time>
      </trkpt>
      <trkpt lat="59.8010028" lon="17.8367568">
        <ele>17.9218</ele>
        <time>2014-07-08T12:42:19Z</time>
      </trkpt>
      <trkpt lat="59.8010473" lon="17.8368981">
        <ele>17.9218</ele>
        <time>2014-07-08T12:42:20Z</time>
      </trkpt>
      <trkpt lat="59.8010942" lon="17.8370401">
        <ele>17.4412</ele>
        <time>2014-07-08T12:42:21Z</time>
      </trkpt>
      <trkpt lat="59.8011431" lon="17.8371826">
        <ele>16.9604</ele>
        <time>2014-07-08T12:42:22Z</time>
      </trkpt>
      <trkpt lat="59.8011934" lon="17.8373262">
        <ele>16.4797</ele>
        <time>2014-07-08T12:42:23Z</time>
      </trkpt>
      <trkpt lat="59.8012442" lon="17.837471">
        <ele>16.4797</ele>
        <time>2014-07-08T12:42:24Z</time>
      </trkpt>
      <trkpt lat="59.8012957" lon="17.8376161">
        <ele>15.999</ele>
        <time>2014-07-08T12:42:25Z</time>
      </trkpt>
      <trkpt lat="59.8013483" lon="17.8377601">
        <ele>15.5184</ele>
        <time>2014-07-08T12:42:26Z</time>
      </trkpt>
      <trkpt lat="59.8014015" lon="17.8379036">
        <ele>15.5184</ele>
        <time>2014-07-08T12:42:27Z</time>
      </trkpt>
      <trkpt lat="59.8014533" lon="17.838049">
        <ele>15.0377</ele>
        <time>2014-07-08T12:42:28Z</time>
      </trkpt>
      <trkpt lat="59.8015042" lon="17.838194">
        <ele>15.0377</ele>
        <time>2014-07-08T12:42:29Z</time>
      </trkpt>
      <trkpt lat="59.8015547" lon="17.8383353">
        <ele>15.0377</ele>
        <time>2014-07-08T12:42:30Z</time>
      </trkpt>
      <trkpt lat="59.8016047" lon="17.8384719">
        <ele>15.0377</ele>
        <time>2014-07-08T12:42:31Z</time>
      </trkpt>
      <trkpt lat="59.8016539" lon="17.8386035">
        <ele>15.0377</ele>
        <time>2014-07-08T12:42:32Z</time>
      </trkpt>
      <trkpt lat="59.8017021" lon="17.8387324">
        <ele>15.0377</ele>
        <time>2014-07-08T12:42:33Z</time>
      </trkpt>
      <trkpt lat="59.8017487" lon="17.8388603">
        <ele>14.557</ele>
        <time>2014-07-08T12:42:34Z</time>
      </trkpt>
      <trkpt lat="59.8017935" lon="17.8389882">
        <ele>14.557</ele>
        <time>2014-07-08T12:42:35Z</time>
      </trkpt>
      <trkpt lat="59.8018355" lon="17.839118">
        <ele>14.557</ele>
        <time>2014-07-08T12:42:36Z</time>
      </trkpt>
      <trkpt lat="59.8018736" lon="17.8392478">
        <ele>14.0764</ele>
        <time>2014-07-08T12:42:37Z</time>
      </trkpt>
      <trkpt lat="59.8019086" lon="17.8393746">
        <ele>14.0764</ele>
        <time>2014-07-08T12:42:38Z</time>
      </trkpt>
      <trkpt lat="59.801941" lon="17.8394976">
        <ele>14.0764</ele>
        <time>2014-07-08T12:42:39Z</time>
      </trkpt>
      <trkpt lat="59.8019694" lon="17.8396157">
        <ele>14.0764</ele>
        <time>2014-07-08T12:42:40Z</time>
      </trkpt>
      <trkpt lat="59.8019935" lon="17.8397305">
        <ele>14.0764</ele>
        <time>2014-07-08T12:42:41Z</time>
      </trkpt>
      <trkpt lat="59.802016" lon="17.8398419">
        <ele>14.0764</ele>
        <time>2014-07-08T12:42:42Z</time>
      </trkpt>
      <trkpt lat="59.8020393" lon="17.8399502">
        <ele>14.557</ele>
        <time>2014-07-08T12:42:43Z</time>
      </trkpt>
      <trkpt lat="59.8020627" lon="17.8400549">
        <ele>14.557</ele>
        <time>2014-07-08T12:42:44Z</time>
      </trkpt>
      <trkpt lat="59.8020855" lon="17.8401594">
        <ele>14.557</ele>
        <time>2014-07-08T12:42:45Z</time>
      </trkpt>
      <trkpt lat="59.802107" lon="17.8402642">
        <ele>15.0377</ele>
        <time>2014-07-08T12:42:46Z</time>
      </trkpt>
      <trkpt lat="59.802129" lon="17.8403677">
        <ele>15.0377</ele>
        <time>2014-07-08T12:42:47Z</time>
      </trkpt>
      <trkpt lat="59.8021548" lon="17.8404678">
        <ele>15.0377</ele>
        <time>2014-07-08T12:42:48Z</time>
      </trkpt>
      <trkpt lat="59.8021847" lon="17.8405629">
        <ele>15.0377</ele>
        <time>2014-07-08T12:42:49Z</time>
      </trkpt>
      <trkpt lat="59.8022179" lon="17.8406548">
        <ele>15.5184</ele>
        <time>2014-07-08T12:42:50Z</time>
      </trkpt>
      <trkpt lat="59.8022537" lon="17.8407437">
        <ele>15.5184</ele>
        <time>2014-07-08T12:42:51Z</time>
      </trkpt>
      <trkpt lat="59.8022911" lon="17.8408302">
        <ele>15.5184</ele>
        <time>2014-07-08T12:42:52Z</time>
      </trkpt>
      <trkpt lat="59.8023294" lon="17.8409154">
        <ele>15.5184</ele>
        <time>2014-07-08T12:42:53Z</time>
      </trkpt>
      <trkpt lat="59.8023686" lon="17.8409987">
        <ele>15.5184</ele>
        <time>2014-07-08T12:42:54Z</time>
      </trkpt>
      <trkpt lat="59.8024081" lon="17.8410805">
        <ele>15.999</ele>
        <time>2014-07-08T12:42:55Z</time>
      </trkpt>
      <trkpt lat="59.8024479" lon="17.8411624">
        <ele>15.999</ele>
        <time>2014-07-08T12:42:56Z</time>
      </trkpt>
      <trkpt lat="59.802489" lon="17.8412436">
        <ele>15.999</ele>
        <time>2014-07-08T12:42:57Z</time>
      </trkpt>
      <trkpt lat="59.8025302" lon="17.8413245">
        <ele>16.4797</ele>
        <time>2014-07-08T12:42:58Z</time>
      </trkpt>
      <trkpt lat="59.8025706" lon="17.8414054">
        <ele>16.4797</ele>
        <time>2014-07-08T12:42:59Z</time>
      </trkpt>
      <trkpt lat="59.8026101" lon="17.8414867">
        <ele>16.4797</ele>
        <time>2014-07-08T12:43:00Z</time>
      </trkpt>
      <trkpt lat="59.8026498" lon="17.8415676">
        <ele>16.4797</ele>
        <time>2014-07-08T12:43:01Z</time>
      </trkpt>
      <trkpt lat="59.8026893" lon="17.8416421">
        <ele>16.9604</ele>
        <time>2014-07-08T12:43:02Z</time>
      </trkpt>
      <trkpt lat="59.8027294" lon="17.8417184">
        <ele>17.4412</ele>
        <time>2014-07-08T12:43:03Z</time>
      </trkpt>
      <trkpt lat="59.8027681" lon="17.8417963">
        <ele>17.4412</ele>
        <time>2014-07-08T12:43:04Z</time>
      </trkpt>
      <trkpt lat="59.8028019" lon="17.8418709">
        <ele>17.4412</ele>
        <time>2014-07-08T12:43:05Z</time>
      </trkpt>
      <trkpt lat="59.8028353" lon="17.8419457">
        <ele>17.4412</ele>
        <time>2014-07-08T12:43:06Z</time>
      </trkpt>
      <trkpt lat="59.8028697" lon="17.8420187">
        <ele>17.4412</ele>
        <time>2014-07-08T12:43:07Z</time>
      </trkpt>
      <trkpt lat="59.8029052" lon="17.8420903">
        <ele>17.9218</ele>
        <time>2014-07-08T12:43:08Z</time>
      </trkpt>
      <trkpt lat="59.8029416" lon="17.8421608">
        <ele>17.9218</ele>
        <time>2014-07-08T12:43:09Z</time>
      </trkpt>
      <trkpt lat="59.8029777" lon="17.8422322">
        <ele>17.9218</ele>
        <time>2014-07-08T12:43:10Z</time>
      </trkpt>
      <trkpt lat="59.8030127" lon="17.842305">
        <ele>17.9218</ele>
        <time>2014-07-08T12:43:11Z</time>
      </trkpt>
      <trkpt lat="59.8030479" lon="17.8423764">
        <ele>17.9218</ele>
        <time>2014-07-08T12:43:12Z</time>
      </trkpt>
      <trkpt lat="59.8030836" lon="17.8424466">
        <ele>17.9218</ele>
        <time>2014-07-08T12:43:13Z</time>
      </trkpt>
      <trkpt lat="59.8031198" lon="17.842516">
        <ele>18.4023</ele>
        <time>2014-07-08T12:43:14Z</time>
      </trkpt>
      <trkpt lat="59.803157" lon="17.842585">
        <ele>18.4023</ele>
        <time>2014-07-08T12:43:15Z</time>
      </trkpt>
      <trkpt lat="59.8031934" lon="17.8426557">
        <ele>18.4023</ele>
        <time>2014-07-08T12:43:16Z</time>
      </trkpt>
      <trkpt lat="59.8032296" lon="17.8427264">
        <ele>18.4023</ele>
        <time>2014-07-08T12:43:17Z</time>
      </trkpt>
      <trkpt lat="59.8032674" lon="17.8427934">
        <ele>18.4023</ele>
        <time>2014-07-08T12:43:18Z</time>
      </trkpt>
      <trkpt lat="59.8033058" lon="17.842858">
        <ele>18.8831</ele>
        <time>2014-07-08T12:43:19Z</time>
      </trkpt>
      <trkpt lat="59.8033447" lon="17.842923">
        <ele>18.8831</ele>
        <time>2014-07-08T12:43:20Z</time>
      </trkpt>
      <trkpt lat="59.803385" lon="17.8429862">
        <ele>18.8831</ele>
        <time>2014-07-08T12:43:21Z</time>
      </trkpt>
      <trkpt lat="59.803427" lon="17.8430469">
        <ele>18.8831</ele>
        <time>2014-07-08T12:43:22Z</time>
      </trkpt>
      <trkpt lat="59.8034701" lon="17.8431071">
        <ele>19.3638</ele>
        <time>2014-07-08T12:43:23Z</time>
      </trkpt>
      <trkpt lat="59.8035141" lon="17.8431669">
        <ele>19.3638</ele>
        <time>2014-07-08T12:43:24Z</time>
      </trkpt>
      <trkpt lat="59.8035591" lon="17.8432215">
        <ele>19.3638</ele>
        <time>2014-07-08T12:43:25Z</time>
      </trkpt>
      <trkpt lat="59.8036055" lon="17.8432718">
        <ele>19.3638</ele>
        <time>2014-07-08T12:43:26Z</time>
      </trkpt>
      <trkpt lat="59.8036514" lon="17.8433231">
        <ele>19.8444</ele>
        <time>2014-07-08T12:43:27Z</time>
      </trkpt>
      <trkpt lat="59.8036968" lon="17.8433753">
        <ele>19.8444</ele>
        <time>2014-07-08T12:43:28Z</time>
      </trkpt>
      <trkpt lat="59.803742" lon="17.8434267">
        <ele>19.8444</ele>
        <time>2014-07-08T12:43:29Z</time>
      </trkpt>
      <trkpt lat="59.8037879" lon="17.8434774">
        <ele>19.8444</ele>
        <time>2014-07-08T12:43:30Z</time>
      </trkpt>
      <trkpt lat="59.803834" lon="17.8435282">
        <ele>19.8444</ele>
        <time>2014-07-08T12:43:31Z</time>
      </trkpt>
      <trkpt lat="59.8038794" lon="17.8435793">
        <ele>19.8444</ele>
        <time>2014-07-08T12:43:32Z</time>
      </trkpt>
      <trkpt lat="59.8039248" lon="17.8436287">
        <ele>20.325</ele>
        <time>2014-07-08T12:43:33Z</time>
      </trkpt>
      <trkpt lat="59.8039687" lon="17.8436749">
        <ele>20.325</ele>
        <time>2014-07-08T12:43:34Z</time>
      </trkpt>
      <trkpt lat="59.8040103" lon="17.8437193">
        <ele>20.325</ele>
        <time>2014-07-08T12:43:35Z</time>
      </trkpt>
      <trkpt lat="59.8040515" lon="17.8437644">
        <ele>20.325</ele>
        <time>2014-07-08T12:43:36Z</time>
      </trkpt>
      <trkpt lat="59.8040927" lon="17.8438106">
        <ele>20.325</ele>
        <time>2014-07-08T12:43:37Z</time>
      </trkpt>
      <trkpt lat="59.8041349" lon="17.8438575">
        <ele>20.325</ele>
        <time>2014-07-08T12:43:38Z</time>
      </trkpt>
      <trkpt lat="59.8041764" lon="17.8439054">
        <ele>20.8057</ele>
        <time>2014-07-08T12:43:39Z</time>
      </trkpt>
      <trkpt lat="59.8042174" lon="17.8439531">
        <ele>20.8057</ele>
        <time>2014-07-08T12:43:40Z</time>
      </trkpt>
      <trkpt lat="59.8042596" lon="17.844002">
        <ele>20.8057</ele>
        <time>2014-07-08T12:43:41Z</time>
      </trkpt>
      <trkpt lat="59.8043031" lon="17.8440567">
        <ele>20.8057</ele>
        <time>2014-07-08T12:43:42Z</time>
      </trkpt>
      <trkpt lat="59.8043473" lon="17.8441167">
        <ele>21.2864</ele>
        <time>2014-07-08T12:43:43Z</time>
      </trkpt>
      <trkpt lat="59.8043922" lon="17.8441797">
        <ele>21.2864</ele>
        <time>2014-07-08T12:43:44Z</time>
      </trkpt>
      <trkpt lat="59.8044381" lon="17.8442451">
        <ele>21.2864</ele>
        <time>2014-07-08T12:43:45Z</time>
      </trkpt>
      <trkpt lat="59.8044843" lon="17.8443135">
        <ele>21.2864</ele>
        <time>2014-07-08T12:43:46Z</time>
      </trkpt>
      <trkpt lat="59.8045303" lon="17.8443859">
        <ele>21.767</ele>
        <time>2014-07-08T12:43:47Z</time>
      </trkpt>
      <trkpt lat="59.8045756" lon="17.8444611">
        <ele>21.767</ele>
        <time>2014-07-08T12:43:48Z</time>
      </trkpt>
      <trkpt lat="59.8046191" lon="17.8445331">
        <ele>21.767</ele>
        <time>2014-07-08T12:43:49Z</time>
      </trkpt>
      <trkpt lat="59.8046594" lon="17.844602">
        <ele>21.767</ele>
        <time>2014-07-08T12:43:50Z</time>
      </trkpt>
      <trkpt lat="59.8046971" lon="17.8446713">
        <ele>22.2476</ele>
        <time>2014-07-08T12:43:51Z</time>
      </trkpt>
      <trkpt lat="59.8047333" lon="17.8447389">
        <ele>22.2476</ele>
        <time>2014-07-08T12:43:52Z</time>
      </trkpt>
      <trkpt lat="59.8047681" lon="17.8448072">
        <ele>22.2476</ele>
        <time>2014-07-08T12:43:53Z</time>
      </trkpt>
      <trkpt lat="59.8048008" lon="17.8448754">
        <ele>22.2476</ele>
        <time>2014-07-08T12:43:54Z</time>
      </trkpt>
      <trkpt lat="59.8048329" lon="17.8449439">
        <ele>22.2476</ele>
        <time>2014-07-08T12:43:55Z</time>
      </trkpt>
      <trkpt lat="59.8048639" lon="17.8450133">
        <ele>22.7283</ele>
        <time>2014-07-08T12:43:56Z</time>
      </trkpt>
      <trkpt lat="59.8048935" lon="17.8450828">
        <ele>22.7283</ele>
        <time>2014-07-08T12:43:57Z</time>
      </trkpt>
      <trkpt lat="59.8049232" lon="17.8451514">
        <ele>23.209</ele>
        <time>2014-07-08T12:43:58Z</time>
      </trkpt>
      <trkpt lat="59.8049531" lon="17.8452186">
        <ele>23.209</ele>
        <time>2014-07-08T12:43:59Z</time>
      </trkpt>
      <trkpt lat="59.804983" lon="17.8452852">
        <ele>23.6896</ele>
        <time>2014-07-08T12:44:00Z</time>
      </trkpt>
      <trkpt lat="59.8050121" lon="17.845351">
        <ele>23.6896</ele>
        <time>2014-07-08T12:44:01Z</time>
      </trkpt>
      <trkpt lat="59.8050412" lon="17.8454149">
        <ele>24.1703</ele>
        <time>2014-07-08T12:44:02Z</time>
      </trkpt>
      <trkpt lat="59.8050692" lon="17.8454776">
        <ele>24.1703</ele>
        <time>2014-07-08T12:44:03Z</time>
      </trkpt>
      <trkpt lat="59.805097" lon="17.8455391">
        <ele>24.651</ele>
        <time>2014-07-08T12:44:04Z</time>
      </trkpt>
      <trkpt lat="59.8051251" lon="17.8455971">
        <ele>24.651</ele>
        <time>2014-07-08T12:44:05Z</time>
      </trkpt>
      <trkpt lat="59.8051541" lon="17.8456546">
        <ele>24.651</ele>
        <time>2014-07-08T12:44:06Z</time>
      </trkpt>
      <trkpt lat="59.8051845" lon="17.8457114">
        <ele>25.1317</ele>
        <time>2014-07-08T12:44:07Z</time>
      </trkpt>
      <trkpt lat="59.805216" lon="17.8457648">
        <ele>25.1317</ele>
        <time>2014-07-08T12:44:08Z</time>
      </trkpt>
      <trkpt lat="59.8052489" lon="17.8458119">
        <ele>25.6123</ele>
        <time>2014-07-08T12:44:09Z</time>
      </trkpt>
      <trkpt lat="59.8052841" lon="17.8458502">
        <ele>25.6123</ele>
        <time>2014-07-08T12:44:10Z</time>
      </trkpt>
      <trkpt lat="59.8053205" lon="17.8458774">
        <ele>26.0929</ele>
        <time>2014-07-08T12:44:11Z</time>
      </trkpt>
      <trkpt lat="59.8053577" lon="17.8458901">
        <ele>26.0929</ele>
        <time>2014-07-08T12:44:12Z</time>
      </trkpt>
      <trkpt lat="59.805394" lon="17.8458917">
        <ele>26.5736</ele>
        <time>2014-07-08T12:44:13Z</time>
      </trkpt>
      <trkpt lat="59.8054293" lon="17.845884">
        <ele>26.5736</ele>
        <time>2014-07-08T12:44:14Z</time>
      </trkpt>
      <trkpt lat="59.8054633" lon="17.8458681">
        <ele>27.0543</ele>
        <time>2014-07-08T12:44:15Z</time>
      </trkpt>
      <trkpt lat="59.8054955" lon="17.8458473">
        <ele>27.0543</ele>
        <time>2014-07-08T12:44:16Z</time>
      </trkpt>
      <trkpt lat="59.8055251" lon="17.8458203">
        <ele>27.5349</ele>
        <time>2014-07-08T12:44:17Z</time>
      </trkpt>
      <trkpt lat="59.8055538" lon="17.8457888">
        <ele>27.5349</ele>
        <time>2014-07-08T12:44:18Z</time>
      </trkpt>
      <trkpt lat="59.8055815" lon="17.845753">
        <ele>27.5349</ele>
        <time>2014-07-08T12:44:19Z</time>
      </trkpt>
      <trkpt lat="59.8056084" lon="17.8457136">
        <ele>27.5349</ele>
        <time>2014-07-08T12:44:20Z</time>
      </trkpt>
      <trkpt lat="59.8056354" lon="17.8456711">
        <ele>28.0155</ele>
        <time>2014-07-08T12:44:21Z</time>
      </trkpt>
      <trkpt lat="59.8056633" lon="17.8456281">
        <ele>28.0155</ele>
        <time>2014-07-08T12:44:22Z</time>
      </trkpt>
      <trkpt lat="59.8056923" lon="17.8455846">
        <ele>28.0155</ele>
        <time>2014-07-08T12:44:23Z</time>
      </trkpt>
      <trkpt lat="59.8057228" lon="17.8455391">
        <ele>28.0155</ele>
        <time>2014-07-08T12:44:24Z</time>
      </trkpt>
      <trkpt lat="59.8057554" lon="17.8454965">
        <ele>28.0155</ele>
        <time>2014-07-08T12:44:25Z</time>
      </trkpt>
      <trkpt lat="59.8057913" lon="17.8454566">
        <ele>28.0155</ele>
        <time>2014-07-08T12:44:26Z</time>
      </trkpt>
      <trkpt lat="59.80583" lon="17.8454153">
        <ele>28.0155</ele>
        <time>2014-07-08T12:44:27Z</time>
      </trkpt>
      <trkpt lat="59.8058689" lon="17.8453687">
        <ele>28.0155</ele>
        <time>2014-07-08T12:44:28Z</time>
      </trkpt>
      <trkpt lat="59.8059083" lon="17.8453204">
        <ele>27.5349</ele>
        <time>2014-07-08T12:44:29Z</time>
      </trkpt>
      <trkpt lat="59.8059511" lon="17.8452764">
        <ele>27.5349</ele>
        <time>2014-07-08T12:44:30Z</time>
      </trkpt>
      <trkpt lat="59.8059952" lon="17.845231">
        <ele>27.0543</ele>
        <time>2014-07-08T12:44:31Z</time>
      </trkpt>
      <trkpt lat="59.8060398" lon="17.8451812">
        <ele>27.0543</ele>
        <time>2014-07-08T12:44:32Z</time>
      </trkpt>
      <trkpt lat="59.8060858" lon="17.8451326">
        <ele>27.0543</ele>
        <time>2014-07-08T12:44:33Z</time>
      </trkpt>
      <trkpt lat="59.8061326" lon="17.8450857">
        <ele>26.5736</ele>
        <time>2014-07-08T12:44:34Z</time>
      </trkpt>
      <trkpt lat="59.8061796" lon="17.8450393">
        <ele>26.5736</ele>
        <time>2014-07-08T12:44:35Z</time>
      </trkpt>
      <trkpt lat="59.8062253" lon="17.8449927">
        <ele>26.5736</ele>
        <time>2014-07-08T12:44:36Z</time>
      </trkpt>
      <trkpt lat="59.8062693" lon="17.844946">
        <ele>26.5736</ele>
        <time>2014-07-08T12:44:37Z</time>
      </trkpt>
      <trkpt lat="59.806313" lon="17.8449051">
        <ele>26.5736</ele>
        <time>2014-07-08T12:44:38Z</time>
      </trkpt>
      <trkpt lat="59.8063558" lon="17.8448667">
        <ele>27.0543</ele>
        <time>2014-07-08T12:44:39Z</time>
      </trkpt>
      <trkpt lat="59.8063971" lon="17.8448279">
        <ele>27.0543</ele>
        <time>2014-07-08T12:44:40Z</time>
      </trkpt>
      <trkpt lat="59.8064378" lon="17.8447875">
        <ele>27.0543</ele>
        <time>2014-07-08T12:44:41Z</time>
      </trkpt>
      <trkpt lat="59.8064802" lon="17.8447464">
        <ele>27.0543</ele>
        <time>2014-07-08T12:44:42Z</time>
      </trkpt>
      <trkpt lat="59.806524" lon="17.8447061">
        <ele>27.0543</ele>
        <time>2014-07-08T12:44:43Z</time>
      </trkpt>
      <trkpt lat="59.806566" lon="17.844663">
        <ele>27.0543</ele>
        <time>2014-07-08T12:44:44Z</time>
      </trkpt>
      <trkpt lat="59.8066075" lon="17.8446232">
        <ele>27.0543</ele>
        <time>2014-07-08T12:44:45Z</time>
      </trkpt>
      <trkpt lat="59.80665" lon="17.8445879">
        <ele>27.0543</ele>
        <time>2014-07-08T12:44:46Z</time>
      </trkpt>
      <trkpt lat="59.8066931" lon="17.8445475">
        <ele>27.5349</ele>
        <time>2014-07-08T12:44:47Z</time>
      </trkpt>
      <trkpt lat="59.8067367" lon="17.8445029">
        <ele>27.5349</ele>
        <time>2014-07-08T12:44:48Z</time>
      </trkpt>
      <trkpt lat="59.8067815" lon="17.8444558">
        <ele>27.5349</ele>
        <time>2014-07-08T12:44:49Z</time>
      </trkpt>
      <trkpt lat="59.8068255" lon="17.8444072">
        <ele>27.5349</ele>
        <time>2014-07-08T12:44:50Z</time>
      </trkpt>
      <trkpt lat="59.8068706" lon="17.8443556">
        <ele>28.0155</ele>
        <time>2014-07-08T12:44:51Z</time>
      </trkpt>
      <trkpt lat="59.8069126" lon="17.844301">
        <ele>28.0155</ele>
        <time>2014-07-08T12:44:52Z</time>
      </trkpt>
      <trkpt lat="59.8069566" lon="17.8442482">
        <ele>28.0155</ele>
        <time>2014-07-08T12:44:53Z</time>
      </trkpt>
      <trkpt lat="59.8070002" lon="17.8441933">
        <ele>27.5349</ele>
        <time>2014-07-08T12:44:54Z</time>
      </trkpt>
      <trkpt lat="59.8070423" lon="17.8441351">
        <ele>28.0155</ele>
        <time>2014-07-08T12:44:55Z</time>
      </trkpt>
      <trkpt lat="59.8070857" lon="17.8440771">
        <ele>28.0155</ele>
        <time>2014-07-08T12:44:56Z</time>
      </trkpt>
      <trkpt lat="59.8071298" lon="17.8440213">
        <ele>27.5349</ele>
        <time>2014-07-08T12:44:57Z</time>
      </trkpt>
      <trkpt lat="59.8071746" lon="17.8439658">
        <ele>27.5349</ele>
        <time>2014-07-08T12:44:58Z</time>
      </trkpt>
      <trkpt lat="59.8072189" lon="17.8439075">
        <ele>27.5349</ele>
        <time>2014-07-08T12:44:59Z</time>
      </trkpt>
      <trkpt lat="59.8072661" lon="17.8438504">
        <ele>27.5349</ele>
        <time>2014-07-08T12:45:00Z</time>
      </trkpt>
      <trkpt lat="59.8073152" lon="17.8437908">
        <ele>27.5349</ele>
        <time>2014-07-08T12:45:01Z</time>
      </trkpt>
      <trkpt lat="59.8073653" lon="17.8437282">
        <ele>27.5349</ele>
        <time>2014-07-08T12:45:02Z</time>
      </trkpt>
      <trkpt lat="59.8074151" lon="17.8436623">
        <ele>27.5349</ele>
        <time>2014-07-08T12:45:03Z</time>
      </trkpt>
      <trkpt lat="59.8074639" lon="17.843595">
        <ele>27.5349</ele>
        <time>2014-07-08T12:45:04Z</time>
      </trkpt>
      <trkpt lat="59.8075142" lon="17.8435299">
        <ele>27.5349</ele>
        <time>2014-07-08T12:45:05Z</time>
      </trkpt>
      <trkpt lat="59.807565" lon="17.8434648">
        <ele>27.0543</ele>
        <time>2014-07-08T12:45:06Z</time>
      </trkpt>
      <trkpt lat="59.8076135" lon="17.8433977">
        <ele>27.0543</ele>
        <time>2014-07-08T12:45:07Z</time>
      </trkpt>
      <trkpt lat="59.8076592" lon="17.8433325">
        <ele>27.5349</ele>
        <time>2014-07-08T12:45:08Z</time>
      </trkpt>
      <trkpt lat="59.8077053" lon="17.8432749">
        <ele>27.0543</ele>
        <time>2014-07-08T12:45:09Z</time>
      </trkpt>
      <trkpt lat="59.8077471" lon="17.843213">
        <ele>27.5349</ele>
        <time>2014-07-08T12:45:10Z</time>
      </trkpt>
      <trkpt lat="59.8077882" lon="17.8431516">
        <ele>27.5349</ele>
        <time>2014-07-08T12:45:11Z</time>
      </trkpt>
      <trkpt lat="59.8078289" lon="17.843092">
        <ele>28.0155</ele>
        <time>2014-07-08T12:45:12Z</time>
      </trkpt>
      <trkpt lat="59.8078721" lon="17.8430387">
        <ele>28.0155</ele>
        <time>2014-07-08T12:45:13Z</time>
      </trkpt>
      <trkpt lat="59.8079177" lon="17.8429872">
        <ele>28.4962</ele>
        <time>2014-07-08T12:45:14Z</time>
      </trkpt>
      <trkpt lat="59.8079606" lon="17.8429255">
        <ele>28.4962</ele>
        <time>2014-07-08T12:45:15Z</time>
      </trkpt>
      <trkpt lat="59.8080036" lon="17.8428548">
        <ele>28.9769</ele>
        <time>2014-07-08T12:45:16Z</time>
      </trkpt>
      <trkpt lat="59.8080462" lon="17.842779">
        <ele>28.9769</ele>
        <time>2014-07-08T12:45:17Z</time>
      </trkpt>
      <trkpt lat="59.8080922" lon="17.8427082">
        <ele>29.4575</ele>
        <time>2014-07-08T12:45:18Z</time>
      </trkpt>
      <trkpt lat="59.8081373" lon="17.8426341">
        <ele>29.9381</ele>
        <time>2014-07-08T12:45:19Z</time>
      </trkpt>
      <trkpt lat="59.8081855" lon="17.8425642">
        <ele>29.9381</ele>
        <time>2014-07-08T12:45:20Z</time>
      </trkpt>
      <trkpt lat="59.8082357" lon="17.8424927">
        <ele>30.4188</ele>
        <time>2014-07-08T12:45:21Z</time>
      </trkpt>
      <trkpt lat="59.8082853" lon="17.8424224">
        <ele>30.8995</ele>
        <time>2014-07-08T12:45:22Z</time>
      </trkpt>
      <trkpt lat="59.8083322" lon="17.842355">
        <ele>31.3801</ele>
        <time>2014-07-08T12:45:23Z</time>
      </trkpt>
      <trkpt lat="59.8083806" lon="17.842293">
        <ele>31.3801</ele>
        <time>2014-07-08T12:45:24Z</time>
      </trkpt>
      <trkpt lat="59.8084295" lon="17.8422352">
        <ele>31.3801</ele>
        <time>2014-07-08T12:45:25Z</time>
      </trkpt>
      <trkpt lat="59.8084817" lon="17.8421802">
        <ele>31.3801</ele>
        <time>2014-07-08T12:45:26Z</time>
      </trkpt>
      <trkpt lat="59.8085335" lon="17.8421266">
        <ele>31.3801</ele>
        <time>2014-07-08T12:45:27Z</time>
      </trkpt>
      <trkpt lat="59.8085823" lon="17.8420721">
        <ele>31.3801</ele>
        <time>2014-07-08T12:45:28Z</time>
      </trkpt>
      <trkpt lat="59.8086302" lon="17.8420175">
        <ele>31.3801</ele>
        <time>2014-07-08T12:45:29Z</time>
      </trkpt>
      <trkpt lat="59.8086771" lon="17.8419642">
        <ele>31.3801</ele>
        <time>2014-07-08T12:45:30Z</time>
      </trkpt>
      <trkpt lat="59.8087246" lon="17.8419113">
        <ele>31.3801</ele>
        <time>2014-07-08T12:45:31Z</time>
      </trkpt>
      <trkpt lat="59.8087724" lon="17.8418584">
        <ele>31.3801</ele>
        <time>2014-07-08T12:45:32Z</time>
      </trkpt>
      <trkpt lat="59.8088214" lon="17.8418057">
        <ele>31.3801</ele>
        <time>2014-07-08T12:45:33Z</time>
      </trkpt>
      <trkpt lat="59.8088699" lon="17.8417509">
        <ele>31.3801</ele>
        <time>2014-07-08T12:45:34Z</time>
      </trkpt>
      <trkpt lat="59.8089179" lon="17.8416944">
        <ele>31.3801</ele>
        <time>2014-07-08T12:45:35Z</time>
      </trkpt>
      <trkpt lat="59.8089646" lon="17.8416391">
        <ele>30.8995</ele>
        <time>2014-07-08T12:45:36Z</time>
      </trkpt>
      <trkpt lat="59.8090105" lon="17.8415841">
        <ele>31.3801</ele>
        <time>2014-07-08T12:45:37Z</time>
      </trkpt>
      <trkpt lat="59.809055" lon="17.8415287">
        <ele>31.3801</ele>
        <time>2014-07-08T12:45:38Z</time>
      </trkpt>
      <trkpt lat="59.8090987" lon="17.8414741">
        <ele>31.3801</ele>
        <time>2014-07-08T12:45:39Z</time>
      </trkpt>
      <trkpt lat="59.8091433" lon="17.8414236">
        <ele>31.3801</ele>
        <time>2014-07-08T12:45:40Z</time>
      </trkpt>
      <trkpt lat="59.8091889" lon="17.8413784">
        <ele>31.3801</ele>
        <time>2014-07-08T12:45:41Z</time>
      </trkpt>
      <trkpt lat="59.8092355" lon="17.8413396">
        <ele>31.3801</ele>
        <time>2014-07-08T12:45:42Z</time>
      </trkpt>
      <trkpt lat="59.8092838" lon="17.8413084">
        <ele>31.3801</ele>
        <time>2014-07-08T12:45:43Z</time>
      </trkpt>
      <trkpt lat="59.8093344" lon="17.8412842">
        <ele>31.8607</ele>
        <time>2014-07-08T12:45:44Z</time>
      </trkpt>
      <trkpt lat="59.8093836" lon="17.8412662">
        <ele>31.8607</ele>
        <time>2014-07-08T12:45:45Z</time>
      </trkpt>
      <trkpt lat="59.8094316" lon="17.8412489">
        <ele>31.8607</ele>
        <time>2014-07-08T12:45:46Z</time>
      </trkpt>
      <trkpt lat="59.8094829" lon="17.8412291">
        <ele>31.8607</ele>
        <time>2014-07-08T12:45:47Z</time>
      </trkpt>
      <trkpt lat="59.8095317" lon="17.8412095">
        <ele>31.8607</ele>
        <time>2014-07-08T12:45:48Z</time>
      </trkpt>
      <trkpt lat="59.8095784" lon="17.8411866">
        <ele>31.8607</ele>
        <time>2014-07-08T12:45:49Z</time>
      </trkpt>
      <trkpt lat="59.8096255" lon="17.8411589">
        <ele>32.3416</ele>
        <time>2014-07-08T12:45:50Z</time>
      </trkpt>
      <trkpt lat="59.8096718" lon="17.8411277">
        <ele>32.3416</ele>
        <time>2014-07-08T12:45:51Z</time>
      </trkpt>
      <trkpt lat="59.8097157" lon="17.8410946">
        <ele>32.3416</ele>
        <time>2014-07-08T12:45:52Z</time>
      </trkpt>
      <trkpt lat="59.8097582" lon="17.8410612">
        <ele>32.8223</ele>
        <time>2014-07-08T12:45:53Z</time>
      </trkpt>
      <trkpt lat="59.8098012" lon="17.8410317">
        <ele>32.8223</ele>
        <time>2014-07-08T12:45:54Z</time>
      </trkpt>
      <trkpt lat="59.8098451" lon="17.8410075">
        <ele>32.8223</ele>
        <time>2014-07-08T12:45:55Z</time>
      </trkpt>
      <trkpt lat="59.8098897" lon="17.8409868">
        <ele>32.8223</ele>
        <time>2014-07-08T12:45:56Z</time>
      </trkpt>
      <trkpt lat="59.8099351" lon="17.8409667">
        <ele>32.8223</ele>
        <time>2014-07-08T12:45:57Z</time>
      </trkpt>
      <trkpt lat="59.8099813" lon="17.8409485">
        <ele>32.8223</ele>
        <time>2014-07-08T12:45:58Z</time>
      </trkpt>
      <trkpt lat="59.8100286" lon="17.8409286">
        <ele>32.8223</ele>
        <time>2014-07-08T12:45:59Z</time>
      </trkpt>
      <trkpt lat="59.8100752" lon="17.8409106">
        <ele>32.8223</ele>
        <time>2014-07-08T12:46:00Z</time>
      </trkpt>
      <trkpt lat="59.8101195" lon="17.8408941">
        <ele>32.8223</ele>
        <time>2014-07-08T12:46:01Z</time>
      </trkpt>
      <trkpt lat="59.8101658" lon="17.8408733">
        <ele>32.8223</ele>
        <time>2014-07-08T12:46:02Z</time>
      </trkpt>
      <trkpt lat="59.8102134" lon="17.8408444">
        <ele>32.8223</ele>
        <time>2014-07-08T12:46:03Z</time>
      </trkpt>
      <trkpt lat="59.8102599" lon="17.8408059">
        <ele>32.8223</ele>
        <time>2014-07-08T12:46:04Z</time>
      </trkpt>
      <trkpt lat="59.8103042" lon="17.8407623">
        <ele>32.8223</ele>
        <time>2014-07-08T12:46:05Z</time>
      </trkpt>
      <trkpt lat="59.8103472" lon="17.8407147">
        <ele>33.3029</ele>
        <time>2014-07-08T12:46:06Z</time>
      </trkpt>
      <trkpt lat="59.8103892" lon="17.8406611">
        <ele>33.3029</ele>
        <time>2014-07-08T12:46:07Z</time>
      </trkpt>
      <trkpt lat="59.810429" lon="17.8406051">
        <ele>33.3029</ele>
        <time>2014-07-08T12:46:08Z</time>
      </trkpt>
      <trkpt lat="59.81047" lon="17.8405503">
        <ele>33.3029</ele>
        <time>2014-07-08T12:46:09Z</time>
      </trkpt>
      <trkpt lat="59.8105137" lon="17.8404989">
        <ele>33.3029</ele>
        <time>2014-07-08T12:46:10Z</time>
      </trkpt>
      <trkpt lat="59.810558" lon="17.8404472">
        <ele>33.3029</ele>
        <time>2014-07-08T12:46:11Z</time>
      </trkpt>
      <trkpt lat="59.8106023" lon="17.8403952">
        <ele>33.3029</ele>
        <time>2014-07-08T12:46:12Z</time>
      </trkpt>
      <trkpt lat="59.810648" lon="17.8403513">
        <ele>33.7834</ele>
        <time>2014-07-08T12:46:13Z</time>
      </trkpt>
      <trkpt lat="59.810695" lon="17.8403166">
        <ele>33.7834</ele>
        <time>2014-07-08T12:46:14Z</time>
      </trkpt>
      <trkpt lat="59.8107432" lon="17.8402889">
        <ele>33.7834</ele>
        <time>2014-07-08T12:46:15Z</time>
      </trkpt>
      <trkpt lat="59.8107921" lon="17.8402685">
        <ele>34.2642</ele>
        <time>2014-07-08T12:46:16Z</time>
      </trkpt>
      <trkpt lat="59.8108403" lon="17.8402552">
        <ele>34.2642</ele>
        <time>2014-07-08T12:46:17Z</time>
      </trkpt>
      <trkpt lat="59.8108895" lon="17.8402456">
        <ele>34.2642</ele>
        <time>2014-07-08T12:46:18Z</time>
      </trkpt>
      <trkpt lat="59.8109377" lon="17.8402379">
        <ele>34.7449</ele>
        <time>2014-07-08T12:46:19Z</time>
      </trkpt>
      <trkpt lat="59.8109856" lon="17.8402321">
        <ele>34.7449</ele>
        <time>2014-07-08T12:46:20Z</time>
      </trkpt>
      <trkpt lat="59.8110334" lon="17.8402286">
        <ele>34.7449</ele>
        <time>2014-07-08T12:46:21Z</time>
      </trkpt>
      <trkpt lat="59.8110815" lon="17.840228">
        <ele>35.2255</ele>
        <time>2014-07-08T12:46:22Z</time>
      </trkpt>
      <trkpt lat="59.8111288" lon="17.8402293">
        <ele>35.2255</ele>
        <time>2014-07-08T12:46:23Z</time>
      </trkpt>
      <trkpt lat="59.8111778" lon="17.8402312">
        <ele>35.2255</ele>
        <time>2014-07-08T12:46:24Z</time>
      </trkpt>
      <trkpt lat="59.8112271" lon="17.8402334">
        <ele>35.7061</ele>
        <time>2014-07-08T12:46:25Z</time>
      </trkpt>
      <trkpt lat="59.8112733" lon="17.8402358">
        <ele>35.7061</ele>
        <time>2014-07-08T12:46:26Z</time>
      </trkpt>
      <trkpt lat="59.8113183" lon="17.8402322">
        <ele>35.2255</ele>
        <time>2014-07-08T12:46:27Z</time>
      </trkpt>
      <trkpt lat="59.8113656" lon="17.8402238">
        <ele>34.7449</ele>
        <time>2014-07-08T12:46:28Z</time>
      </trkpt>
      <trkpt lat="59.8114149" lon="17.8402135">
        <ele>34.7449</ele>
        <time>2014-07-08T12:46:29Z</time>
      </trkpt>
      <trkpt lat="59.8114649" lon="17.8402061">
        <ele>35.2255</ele>
        <time>2014-07-08T12:46:30Z</time>
      </trkpt>
      <trkpt lat="59.8115132" lon="17.8402001">
        <ele>35.2255</ele>
        <time>2014-07-08T12:46:31Z</time>
      </trkpt>
      <trkpt lat="59.8115634" lon="17.8401958">
        <ele>35.2255</ele>
        <time>2014-07-08T12:46:32Z</time>
      </trkpt>
      <trkpt lat="59.8116137" lon="17.8401926">
        <ele>34.7449</ele>
        <time>2014-07-08T12:46:33Z</time>
      </trkpt>
      <trkpt lat="59.811664" lon="17.8401905">
        <ele>34.7449</ele>
        <time>2014-07-08T12:46:34Z</time>
      </trkpt>
      <trkpt lat="59.8117147" lon="17.8401863">
        <ele>34.7449</ele>
        <time>2014-07-08T12:46:35Z</time>
      </trkpt>
      <trkpt lat="59.8117654" lon="17.8401816">
        <ele>34.7449</ele>
        <time>2014-07-08T12:46:36Z</time>
      </trkpt>
      <trkpt lat="59.8118152" lon="17.8401837">
        <ele>34.7449</ele>
        <time>2014-07-08T12:46:37Z</time>
      </trkpt>
      <trkpt lat="59.8118663" lon="17.8401943">
        <ele>34.7449</ele>
        <time>2014-07-08T12:46:38Z</time>
      </trkpt>
      <trkpt lat="59.8119187" lon="17.840207">
        <ele>35.2255</ele>
        <time>2014-07-08T12:46:39Z</time>
      </trkpt>
      <trkpt lat="59.8119681" lon="17.8402236">
        <ele>35.2255</ele>
        <time>2014-07-08T12:46:40Z</time>
      </trkpt>
      <trkpt lat="59.8120167" lon="17.8402393">
        <ele>34.7449</ele>
        <time>2014-07-08T12:46:41Z</time>
      </trkpt>
      <trkpt lat="59.8120649" lon="17.8402578">
        <ele>34.7449</ele>
        <time>2014-07-08T12:46:42Z</time>
      </trkpt>
      <trkpt lat="59.8121129" lon="17.8402822">
        <ele>35.2255</ele>
        <time>2014-07-08T12:46:43Z</time>
      </trkpt>
      <trkpt lat="59.8121596" lon="17.8403093">
        <ele>35.2255</ele>
        <time>2014-07-08T12:46:44Z</time>
      </trkpt>
      <trkpt lat="59.8122051" lon="17.8403378">
        <ele>35.7061</ele>
        <time>2014-07-08T12:46:45Z</time>
      </trkpt>
      <trkpt lat="59.8122491" lon="17.8403666">
        <ele>35.7061</ele>
        <time>2014-07-08T12:46:46Z</time>
      </trkpt>
      <trkpt lat="59.8122933" lon="17.8403968">
        <ele>35.7061</ele>
        <time>2014-07-08T12:46:47Z</time>
      </trkpt>
      <trkpt lat="59.8123377" lon="17.8404277">
        <ele>35.7061</ele>
        <time>2014-07-08T12:46:48Z</time>
      </trkpt>
      <trkpt lat="59.8123814" lon="17.840462">
        <ele>35.7061</ele>
        <time>2014-07-08T12:46:49Z</time>
      </trkpt>
      <trkpt lat="59.8124214" lon="17.8404999">
        <ele>35.7061</ele>
        <time>2014-07-08T12:46:50Z</time>
      </trkpt>
      <trkpt lat="59.8124611" lon="17.8405428">
        <ele>35.7061</ele>
        <time>2014-07-08T12:46:51Z</time>
      </trkpt>
      <trkpt lat="59.8125025" lon="17.8405921">
        <ele>35.2255</ele>
        <time>2014-07-08T12:46:52Z</time>
      </trkpt>
      <trkpt lat="59.8125479" lon="17.8406433">
        <ele>34.7449</ele>
        <time>2014-07-08T12:46:53Z</time>
      </trkpt>
      <trkpt lat="59.8125994" lon="17.8406942">
        <ele>34.7449</ele>
        <time>2014-07-08T12:46:54Z</time>
      </trkpt>
      <trkpt lat="59.8126554" lon="17.840744">
        <ele>34.2642</ele>
        <time>2014-07-08T12:46:55Z</time>
      </trkpt>
      <trkpt lat="59.8127143" lon="17.8407904">
        <ele>33.7834</ele>
        <time>2014-07-08T12:46:56Z</time>
      </trkpt>
      <trkpt lat="59.812775" lon="17.8408324">
        <ele>33.3029</ele>
        <time>2014-07-08T12:46:57Z</time>
      </trkpt>
      <trkpt lat="59.8128393" lon="17.8408654">
        <ele>32.8223</ele>
        <time>2014-07-08T12:46:58Z</time>
      </trkpt>
      <trkpt lat="59.8129082" lon="17.8408936">
        <ele>32.3416</ele>
        <time>2014-07-08T12:46:59Z</time>
      </trkpt>
      <trkpt lat="59.8129817" lon="17.8409262">
        <ele>31.8607</ele>
        <time>2014-07-08T12:47:00Z</time>
      </trkpt>
      <trkpt lat="59.8130558" lon="17.8409616">
        <ele>31.3801</ele>
        <time>2014-07-08T12:47:01Z</time>
      </trkpt>
      <trkpt lat="59.8131279" lon="17.8409992">
        <ele>30.4188</ele>
        <time>2014-07-08T12:47:02Z</time>
      </trkpt>
      <trkpt lat="59.813201" lon="17.8410375">
        <ele>29.9381</ele>
        <time>2014-07-08T12:47:03Z</time>
      </trkpt>
      <trkpt lat="59.8132729" lon="17.8410729">
        <ele>29.4575</ele>
        <time>2014-07-08T12:47:04Z</time>
      </trkpt>
      <trkpt lat="59.8133474" lon="17.8411085">
        <ele>28.9769</ele>
        <time>2014-07-08T12:47:05Z</time>
      </trkpt>
      <trkpt lat="59.8134242" lon="17.8411422">
        <ele>28.9769</ele>
        <time>2014-07-08T12:47:06Z</time>
      </trkpt>
      <trkpt lat="59.8134972" lon="17.8411682">
        <ele>29.4575</ele>
        <time>2014-07-08T12:47:07Z</time>
      </trkpt>
      <trkpt lat="59.8135664" lon="17.841196">
        <ele>29.4575</ele>
        <time>2014-07-08T12:47:08Z</time>
      </trkpt>
      <trkpt lat="59.8136318" lon="17.8412193">
        <ele>29.9381</ele>
        <time>2014-07-08T12:47:09Z</time>
      </trkpt>
      <trkpt lat="59.8136934" lon="17.841239">
        <ele>29.9381</ele>
        <time>2014-07-08T12:47:10Z</time>
      </trkpt>
      <trkpt lat="59.8137578" lon="17.841266">
        <ele>29.9381</ele>
        <time>2014-07-08T12:47:11Z</time>
      </trkpt>
      <trkpt lat="59.813821" lon="17.841297">
        <ele>29.9381</ele>
        <time>2014-07-08T12:47:12Z</time>
      </trkpt>
      <trkpt lat="59.8138839" lon="17.8413277">
        <ele>29.9381</ele>
        <time>2014-07-08T12:47:13Z</time>
      </trkpt>
      <trkpt lat="59.8139464" lon="17.8413603">
        <ele>30.4188</ele>
        <time>2014-07-08T12:47:14Z</time>
      </trkpt>
      <trkpt lat="59.81401" lon="17.8413908">
        <ele>30.4188</ele>
        <time>2014-07-08T12:47:15Z</time>
      </trkpt>
      <trkpt lat="59.8140747" lon="17.8414152">
        <ele>30.4188</ele>
        <time>2014-07-08T12:47:16Z</time>
      </trkpt>
      <trkpt lat="59.8141414" lon="17.8414323">
        <ele>30.4188</ele>
        <time>2014-07-08T12:47:17Z</time>
      </trkpt>
      <trkpt lat="59.8142059" lon="17.8414366">
        <ele>30.4188</ele>
        <time>2014-07-08T12:47:18Z</time>
      </trkpt>
      <trkpt lat="59.8142699" lon="17.8414295">
        <ele>29.9381</ele>
        <time>2014-07-08T12:47:19Z</time>
      </trkpt>
      <trkpt lat="59.8143373" lon="17.8414199">
        <ele>29.9381</ele>
        <time>2014-07-08T12:47:20Z</time>
      </trkpt>
      <trkpt lat="59.814403" lon="17.8414112">
        <ele>29.9381</ele>
        <time>2014-07-08T12:47:21Z</time>
      </trkpt>
      <trkpt lat="59.8144682" lon="17.841397">
        <ele>29.9381</ele>
        <time>2014-07-08T12:47:22Z</time>
      </trkpt>
      <trkpt lat="59.8145326" lon="17.8413725">
        <ele>29.9381</ele>
        <time>2014-07-08T12:47:23Z</time>
      </trkpt>
      <trkpt lat="59.8145947" lon="17.8413401">
        <ele>29.9381</ele>
        <time>2014-07-08T12:47:24Z</time>
      </trkpt>
      <trkpt lat="59.8146576" lon="17.8413039">
        <ele>29.9381</ele>
        <time>2014-07-08T12:47:25Z</time>
      </trkpt>
      <trkpt lat="59.8147233" lon="17.8412691">
        <ele>29.9381</ele>
        <time>2014-07-08T12:47:26Z</time>
      </trkpt>
      <trkpt lat="59.8147874" lon="17.8412371">
        <ele>29.9381</ele>
        <time>2014-07-08T12:47:27Z</time>
      </trkpt>
      <trkpt lat="59.8148555" lon="17.8412117">
        <ele>29.4575</ele>
        <time>2014-07-08T12:47:28Z</time>
      </trkpt>
      <trkpt lat="59.814929" lon="17.8411938">
        <ele>28.9769</ele>
        <time>2014-07-08T12:47:29Z</time>
      </trkpt>
      <trkpt lat="59.8150087" lon="17.8411821">
        <ele>28.4962</ele>
        <time>2014-07-08T12:47:30Z</time>
      </trkpt>
      <trkpt lat="59.815096" lon="17.8411733">
        <ele>28.4962</ele>
        <time>2014-07-08T12:47:31Z</time>
      </trkpt>
      <trkpt lat="59.8151863" lon="17.841164">
        <ele>27.5349</ele>
        <time>2014-07-08T12:47:32Z</time>
      </trkpt>
      <trkpt lat="59.8152813" lon="17.841154">
        <ele>27.0543</ele>
        <time>2014-07-08T12:47:33Z</time>
      </trkpt>
      <trkpt lat="59.8153796" lon="17.841146">
        <ele>26.5736</ele>
        <time>2014-07-08T12:47:34Z</time>
      </trkpt>
      <trkpt lat="59.8154801" lon="17.8411479">
        <ele>26.5736</ele>
        <time>2014-07-08T12:47:35Z</time>
      </trkpt>
      <trkpt lat="59.8155807" lon="17.8411685">
        <ele>26.0929</ele>
        <time>2014-07-08T12:47:36Z</time>
      </trkpt>
      <trkpt lat="59.8156786" lon="17.8412075">
        <ele>26.5736</ele>
        <time>2014-07-08T12:47:37Z</time>
      </trkpt>
      <trkpt lat="59.8157733" lon="17.8412594">
        <ele>26.5736</ele>
        <time>2014-07-08T12:47:38Z</time>
      </trkpt>
      <trkpt lat="59.8158655" lon="17.8413121">
        <ele>27.0543</ele>
        <time>2014-07-08T12:47:39Z</time>
      </trkpt>
      <trkpt lat="59.8159546" lon="17.8413509">
        <ele>27.5349</ele>
        <time>2014-07-08T12:47:40Z</time>
      </trkpt>
      <trkpt lat="59.8160427" lon="17.8413734">
        <ele>28.0155</ele>
        <time>2014-07-08T12:47:41Z</time>
      </trkpt>
      <trkpt lat="59.8161292" lon="17.8413816">
        <ele>28.4962</ele>
        <time>2014-07-08T12:47:42Z</time>
      </trkpt>
      <trkpt lat="59.8162152" lon="17.8413789">
        <ele>28.9769</ele>
        <time>2014-07-08T12:47:43Z</time>
      </trkpt>
      <trkpt lat="59.8162985" lon="17.8413702">
        <ele>29.4575</ele>
        <time>2014-07-08T12:47:44Z</time>
      </trkpt>
      <trkpt lat="59.816383" lon="17.8413568">
        <ele>29.4575</ele>
        <time>2014-07-08T12:47:45Z</time>
      </trkpt>
      <trkpt lat="59.8164678" lon="17.8413418">
        <ele>29.9381</ele>
        <time>2014-07-08T12:47:46Z</time>
      </trkpt>
      <trkpt lat="59.8165457" lon="17.8413308">
        <ele>30.4188</ele>
        <time>2014-07-08T12:47:47Z</time>
      </trkpt>
      <trkpt lat="59.8166254" lon="17.8413178">
        <ele>30.8995</ele>
        <time>2014-07-08T12:47:48Z</time>
      </trkpt>
      <trkpt lat="59.8167042" lon="17.8413044">
        <ele>31.3801</ele>
        <time>2014-07-08T12:47:49Z</time>
      </trkpt>
      <trkpt lat="59.8167825" lon="17.8412867">
        <ele>31.3801</ele>
        <time>2014-07-08T12:47:50Z</time>
      </trkpt>
      <trkpt lat="59.8168596" lon="17.8412612">
        <ele>31.8607</ele>
        <time>2014-07-08T12:47:51Z</time>
      </trkpt>
      <trkpt lat="59.8169296" lon="17.8412213">
        <ele>32.3416</ele>
        <time>2014-07-08T12:47:52Z</time>
      </trkpt>
      <trkpt lat="59.8169963" lon="17.8411728">
        <ele>32.8223</ele>
        <time>2014-07-08T12:47:53Z</time>
      </trkpt>
      <trkpt lat="59.8170667" lon="17.8411294">
        <ele>33.3029</ele>
        <time>2014-07-08T12:47:54Z</time>
      </trkpt>
      <trkpt lat="59.8171393" lon="17.8411012">
        <ele>33.3029</ele>
        <time>2014-07-08T12:47:55Z</time>
      </trkpt>
      <trkpt lat="59.8172118" lon="17.8410978">
        <ele>33.7834</ele>
        <time>2014-07-08T12:47:56Z</time>
      </trkpt>
      <trkpt lat="59.8172827" lon="17.8411167">
        <ele>34.2642</ele>
        <time>2014-07-08T12:47:57Z</time>
      </trkpt>
      <trkpt lat="59.81735" lon="17.8411598">
        <ele>34.7449</ele>
        <time>2014-07-08T12:47:58Z</time>
      </trkpt>
      <trkpt lat="59.8174076" lon="17.8412292">
        <ele>35.2255</ele>
        <time>2014-07-08T12:47:59Z</time>
      </trkpt>
      <trkpt lat="59.8174547" lon="17.8413167">
        <ele>35.7061</ele>
        <time>2014-07-08T12:48:00Z</time>
      </trkpt>
      <trkpt lat="59.8174903" lon="17.8414064">
        <ele>35.7061</ele>
        <time>2014-07-08T12:48:01Z</time>
      </trkpt>
      <trkpt lat="59.8175181" lon="17.8414908">
        <ele>36.1868</ele>
        <time>2014-07-08T12:48:02Z</time>
      </trkpt>
      <trkpt lat="59.8175454" lon="17.8415643">
        <ele>36.1868</ele>
        <time>2014-07-08T12:48:03Z</time>
      </trkpt>
      <trkpt lat="59.8175723" lon="17.8416287">
        <ele>36.6675</ele>
        <time>2014-07-08T12:48:04Z</time>
      </trkpt>
      <trkpt lat="59.8176023" lon="17.8416841">
        <ele>36.6675</ele>
        <time>2014-07-08T12:48:05Z</time>
      </trkpt>
      <trkpt lat="59.817638" lon="17.8417291">
        <ele>37.1481</ele>
        <time>2014-07-08T12:48:06Z</time>
      </trkpt>
      <trkpt lat="59.8176723" lon="17.8417652">
        <ele>37.6287</ele>
        <time>2014-07-08T12:48:07Z</time>
      </trkpt>
      <trkpt lat="59.8177051" lon="17.8417969">
        <ele>37.6287</ele>
        <time>2014-07-08T12:48:08Z</time>
      </trkpt>
      <trkpt lat="59.8177371" lon="17.8418276">
        <ele>38.1094</ele>
        <time>2014-07-08T12:48:09Z</time>
      </trkpt>
      <trkpt lat="59.8177695" lon="17.8418548">
        <ele>38.1094</ele>
        <time>2014-07-08T12:48:10Z</time>
      </trkpt>
      <trkpt lat="59.8177996" lon="17.8418761">
        <ele>38.5901</ele>
        <time>2014-07-08T12:48:11Z</time>
      </trkpt>
      <trkpt lat="59.8178303" lon="17.8418928">
        <ele>38.5901</ele>
        <time>2014-07-08T12:48:12Z</time>
      </trkpt>
      <trkpt lat="59.8178592" lon="17.8419048">
        <ele>39.0707</ele>
        <time>2014-07-08T12:48:13Z</time>
      </trkpt>
      <trkpt lat="59.8178871" lon="17.8419126">
        <ele>39.0707</ele>
        <time>2014-07-08T12:48:14Z</time>
      </trkpt>
      <trkpt lat="59.8179158" lon="17.8419193">
        <ele>39.5513</ele>
        <time>2014-07-08T12:48:15Z</time>
      </trkpt>
      <trkpt lat="59.8179442" lon="17.8419245">
        <ele>39.5513</ele>
        <time>2014-07-08T12:48:16Z</time>
      </trkpt>
      <trkpt lat="59.8179721" lon="17.8419258">
        <ele>40.0321</ele>
        <time>2014-07-08T12:48:17Z</time>
      </trkpt>
      <trkpt lat="59.8179993" lon="17.8419237">
        <ele>40.0321</ele>
        <time>2014-07-08T12:48:18Z</time>
      </trkpt>
      <trkpt lat="59.8180262" lon="17.8419193">
        <ele>40.5128</ele>
        <time>2014-07-08T12:48:19Z</time>
      </trkpt>
      <trkpt lat="59.8180529" lon="17.8419125">
        <ele>40.5128</ele>
        <time>2014-07-08T12:48:20Z</time>
      </trkpt>
      <trkpt lat="59.8180794" lon="17.8419048">
        <ele>40.5128</ele>
        <time>2014-07-08T12:48:21Z</time>
      </trkpt>
      <trkpt lat="59.8181052" lon="17.841899">
        <ele>40.5128</ele>
        <time>2014-07-08T12:48:22Z</time>
      </trkpt>
      <trkpt lat="59.8181328" lon="17.8418952">
        <ele>40.5128</ele>
        <time>2014-07-08T12:48:23Z</time>
      </trkpt>
      <trkpt lat="59.8181613" lon="17.8418893">
        <ele>40.5128</ele>
        <time>2014-07-08T12:48:24Z</time>
      </trkpt>
      <trkpt lat="59.8181919" lon="17.841879">
        <ele>40.5128</ele>
        <time>2014-07-08T12:48:25Z</time>
      </trkpt>
      <trkpt lat="59.818225" lon="17.8418659">
        <ele>40.5128</ele>
        <time>2014-07-08T12:48:26Z</time>
      </trkpt>
      <trkpt lat="59.8182612" lon="17.8418494">
        <ele>40.5128</ele>
        <time>2014-07-08T12:48:27Z</time>
      </trkpt>
      <trkpt lat="59.8183001" lon="17.8418322">
        <ele>40.5128</ele>
        <time>2014-07-08T12:48:28Z</time>
      </trkpt>
      <trkpt lat="59.8183431" lon="17.8418136">
        <ele>40.5128</ele>
        <time>2014-07-08T12:48:29Z</time>
      </trkpt>
      <trkpt lat="59.8183876" lon="17.841796">
        <ele>40.5128</ele>
        <time>2014-07-08T12:48:30Z</time>
      </trkpt>
      <trkpt lat="59.8184334" lon="17.8417834">
        <ele>40.5128</ele>
        <time>2014-07-08T12:48:31Z</time>
      </trkpt>
      <trkpt lat="59.818482" lon="17.8417741">
        <ele>40.5128</ele>
        <time>2014-07-08T12:48:32Z</time>
      </trkpt>
      <trkpt lat="59.8185332" lon="17.8417669">
        <ele>40.5128</ele>
        <time>2014-07-08T12:48:33Z</time>
      </trkpt>
      <trkpt lat="59.8185836" lon="17.8417602">
        <ele>40.5128</ele>
        <time>2014-07-08T12:48:34Z</time>
      </trkpt>
      <trkpt lat="59.8186356" lon="17.841756">
        <ele>40.5128</ele>
        <time>2014-07-08T12:48:35Z</time>
      </trkpt>
      <trkpt lat="59.8186855" lon="17.8417515">
        <ele>40.5128</ele>
        <time>2014-07-08T12:48:36Z</time>
      </trkpt>
      <trkpt lat="59.8187332" lon="17.8417509">
        <ele>40.5128</ele>
        <time>2014-07-08T12:48:37Z</time>
      </trkpt>
      <trkpt lat="59.8187804" lon="17.841753">
        <ele>40.9934</ele>
        <time>2014-07-08T12:48:38Z</time>
      </trkpt>
      <trkpt lat="59.8188321" lon="17.8417565">
        <ele>40.9934</ele>
        <time>2014-07-08T12:48:39Z</time>
      </trkpt>
      <trkpt lat="59.818885" lon="17.8417634">
        <ele>41.474</ele>
        <time>2014-07-08T12:48:40Z</time>
      </trkpt>
      <trkpt lat="59.8189316" lon="17.8417719">
        <ele>41.474</ele>
        <time>2014-07-08T12:48:41Z</time>
      </trkpt>
      <trkpt lat="59.8189777" lon="17.8417821">
        <ele>41.9547</ele>
        <time>2014-07-08T12:48:42Z</time>
      </trkpt>
      <trkpt lat="59.8190223" lon="17.8417934">
        <ele>41.9547</ele>
        <time>2014-07-08T12:48:43Z</time>
      </trkpt>
      <trkpt lat="59.8190668" lon="17.8418073">
        <ele>41.9547</ele>
        <time>2014-07-08T12:48:44Z</time>
      </trkpt>
      <trkpt lat="59.8191103" lon="17.8418244">
        <ele>42.4354</ele>
        <time>2014-07-08T12:48:45Z</time>
      </trkpt>
      <trkpt lat="59.8191529" lon="17.8418441">
        <ele>42.916</ele>
        <time>2014-07-08T12:48:46Z</time>
      </trkpt>
      <trkpt lat="59.8191937" lon="17.8418668">
        <ele>42.916</ele>
        <time>2014-07-08T12:48:47Z</time>
      </trkpt>
      <trkpt lat="59.8192315" lon="17.8418904">
        <ele>42.916</ele>
        <time>2014-07-08T12:48:48Z</time>
      </trkpt>
      <trkpt lat="59.8192696" lon="17.8419171">
        <ele>43.3966</ele>
        <time>2014-07-08T12:48:49Z</time>
      </trkpt>
      <trkpt lat="59.8193112" lon="17.8419462">
        <ele>43.3966</ele>
        <time>2014-07-08T12:48:50Z</time>
      </trkpt>
      <trkpt lat="59.8193528" lon="17.8419778">
        <ele>43.3966</ele>
        <time>2014-07-08T12:48:51Z</time>
      </trkpt>
      <trkpt lat="59.8193962" lon="17.8420109">
        <ele>43.3966</ele>
        <time>2014-07-08T12:48:52Z</time>
      </trkpt>
      <trkpt lat="59.8194391" lon="17.8420503">
        <ele>43.8773</ele>
        <time>2014-07-08T12:48:53Z</time>
      </trkpt>
      <trkpt lat="59.8194832" lon="17.8420929">
        <ele>43.8773</ele>
        <time>2014-07-08T12:48:54Z</time>
      </trkpt>
      <trkpt lat="59.8195268" lon="17.8421367">
        <ele>43.8773</ele>
        <time>2014-07-08T12:48:55Z</time>
      </trkpt>
      <trkpt lat="59.8195704" lon="17.8421783">
        <ele>44.358</ele>
        <time>2014-07-08T12:48:56Z</time>
      </trkpt>
      <trkpt lat="59.8196131" lon="17.8422192">
        <ele>44.358</ele>
        <time>2014-07-08T12:48:57Z</time>
      </trkpt>
      <trkpt lat="59.8196521" lon="17.84226">
        <ele>44.358</ele>
        <time>2014-07-08T12:48:58Z</time>
      </trkpt>
      <trkpt lat="59.8196905" lon="17.8422996">
        <ele>44.358</ele>
        <time>2014-07-08T12:48:59Z</time>
      </trkpt>
      <trkpt lat="59.8197284" lon="17.8423352">
        <ele>44.8386</ele>
        <time>2014-07-08T12:49:00Z</time>
      </trkpt>
      <trkpt lat="59.8197687" lon="17.8423664">
        <ele>44.8386</ele>
        <time>2014-07-08T12:49:01Z</time>
      </trkpt>
      <trkpt lat="59.819808" lon="17.842399">
        <ele>45.3192</ele>
        <time>2014-07-08T12:49:02Z</time>
      </trkpt>
      <trkpt lat="59.8198477" lon="17.8424249">
        <ele>45.3192</ele>
        <time>2014-07-08T12:49:03Z</time>
      </trkpt>
      <trkpt lat="59.8198894" lon="17.8424487">
        <ele>45.3192</ele>
        <time>2014-07-08T12:49:04Z</time>
      </trkpt>
      <trkpt lat="59.8199329" lon="17.8424673">
        <ele>45.7999</ele>
        <time>2014-07-08T12:49:05Z</time>
      </trkpt>
      <trkpt lat="59.8199784" lon="17.8424801">
        <ele>46.2806</ele>
        <time>2014-07-08T12:49:06Z</time>
      </trkpt>
      <trkpt lat="59.8200282" lon="17.8424912">
        <ele>46.2806</ele>
        <time>2014-07-08T12:49:07Z</time>
      </trkpt>
      <trkpt lat="59.8200816" lon="17.8424984">
        <ele>46.2806</ele>
        <time>2014-07-08T12:49:08Z</time>
      </trkpt>
      <trkpt lat="59.8201381" lon="17.8424979">
        <ele>46.7612</ele>
        <time>2014-07-08T12:49:09Z</time>
      </trkpt>
      <trkpt lat="59.8201961" lon="17.8424995">
        <ele>46.2806</ele>
        <time>2014-07-08T12:49:10Z</time>
      </trkpt>
      <trkpt lat="59.8202582" lon="17.8425062">
        <ele>45.7999</ele>
        <time>2014-07-08T12:49:11Z</time>
      </trkpt>
      <trkpt lat="59.8203235" lon="17.8425192">
        <ele>45.7999</ele>
        <time>2014-07-08T12:49:12Z</time>
      </trkpt>
      <trkpt lat="59.8203932" lon="17.8425419">
        <ele>45.7999</ele>
        <time>2014-07-08T12:49:13Z</time>
      </trkpt>
      <trkpt lat="59.8204621" lon="17.8425749">
        <ele>45.3192</ele>
        <time>2014-07-08T12:49:14Z</time>
      </trkpt>
      <trkpt lat="59.8205365" lon="17.8426137">
        <ele>45.7999</ele>
        <time>2014-07-08T12:49:15Z</time>
      </trkpt>
      <trkpt lat="59.8206125" lon="17.8426578">
        <ele>46.2806</ele>
        <time>2014-07-08T12:49:16Z</time>
      </trkpt>
      <trkpt lat="59.8206897" lon="17.842703">
        <ele>46.7612</ele>
        <time>2014-07-08T12:49:17Z</time>
      </trkpt>
      <trkpt lat="59.8207644" lon="17.8427473">
        <ele>47.7225</ele>
        <time>2014-07-08T12:49:18Z</time>
      </trkpt>
      <trkpt lat="59.8208336" lon="17.8427873">
        <ele>47.7225</ele>
        <time>2014-07-08T12:49:19Z</time>
      </trkpt>
      <trkpt lat="59.8209061" lon="17.8428111">
        <ele>48.684</ele>
        <time>2014-07-08T12:49:20Z</time>
      </trkpt>
      <trkpt lat="59.8209746" lon="17.8428263">
        <ele>48.684</ele>
        <time>2014-07-08T12:49:21Z</time>
      </trkpt>
      <trkpt lat="59.8210433" lon="17.8428438">
        <ele>48.684</ele>
        <time>2014-07-08T12:49:22Z</time>
      </trkpt>
      <trkpt lat="59.8211109" lon="17.8428658">
        <ele>48.684</ele>
        <time>2014-07-08T12:49:23Z</time>
      </trkpt>
      <trkpt lat="59.8211817" lon="17.8428862">
        <ele>49.1646</ele>
        <time>2014-07-08T12:49:24Z</time>
      </trkpt>
      <trkpt lat="59.8212523" lon="17.8429024">
        <ele>49.6453</ele>
        <time>2014-07-08T12:49:25Z</time>
      </trkpt>
      <trkpt lat="59.8213217" lon="17.8429112">
        <ele>49.6453</ele>
        <time>2014-07-08T12:49:26Z</time>
      </trkpt>
      <trkpt lat="59.8213915" lon="17.842921">
        <ele>50.126</ele>
        <time>2014-07-08T12:49:27Z</time>
      </trkpt>
      <trkpt lat="59.82146" lon="17.8429255">
        <ele>50.6066</ele>
        <time>2014-07-08T12:49:28Z</time>
      </trkpt>
      <trkpt lat="59.821528" lon="17.8429261">
        <ele>50.6066</ele>
        <time>2014-07-08T12:49:29Z</time>
      </trkpt>
      <trkpt lat="59.8215922" lon="17.8429309">
        <ele>50.6066</ele>
        <time>2014-07-08T12:49:30Z</time>
      </trkpt>
      <trkpt lat="59.8216574" lon="17.8429418">
        <ele>51.0872</ele>
        <time>2014-07-08T12:49:31Z</time>
      </trkpt>
      <trkpt lat="59.821721" lon="17.8429584">
        <ele>51.0872</ele>
        <time>2014-07-08T12:49:32Z</time>
      </trkpt>
      <trkpt lat="59.8217836" lon="17.8429791">
        <ele>51.0872</ele>
        <time>2014-07-08T12:49:33Z</time>
      </trkpt>
      <trkpt lat="59.8218444" lon="17.8430027">
        <ele>51.5679</ele>
        <time>2014-07-08T12:49:34Z</time>
      </trkpt>
      <trkpt lat="59.821906" lon="17.8430225">
        <ele>51.0872</ele>
        <time>2014-07-08T12:49:35Z</time>
      </trkpt>
      <trkpt lat="59.8219707" lon="17.8430345">
        <ele>51.0872</ele>
        <time>2014-07-08T12:49:36Z</time>
      </trkpt>
      <trkpt lat="59.8220392" lon="17.8430409">
        <ele>51.0872</ele>
        <time>2014-07-08T12:49:37Z</time>
      </trkpt>
      <trkpt lat="59.8221096" lon="17.8430483">
        <ele>51.0872</ele>
        <time>2014-07-08T12:49:38Z</time>
      </trkpt>
      <trkpt lat="59.822181" lon="17.8430589">
        <ele>50.6066</ele>
        <time>2014-07-08T12:49:39Z</time>
      </trkpt>
      <trkpt lat="59.822252" lon="17.8430765">
        <ele>50.6066</ele>
        <time>2014-07-08T12:49:40Z</time>
      </trkpt>
      <trkpt lat="59.8223226" lon="17.8431033">
        <ele>50.126</ele>
        <time>2014-07-08T12:49:41Z</time>
      </trkpt>
      <trkpt lat="59.8223962" lon="17.8431334">
        <ele>49.6453</ele>
        <time>2014-07-08T12:49:42Z</time>
      </trkpt>
      <trkpt lat="59.8224718" lon="17.8431634">
        <ele>49.1646</ele>
        <time>2014-07-08T12:49:43Z</time>
      </trkpt>
      <trkpt lat="59.8225489" lon="17.843191">
        <ele>49.1646</ele>
        <time>2014-07-08T12:49:44Z</time>
      </trkpt>
      <trkpt lat="59.8226281" lon="17.84321">
        <ele>48.684</ele>
        <time>2014-07-08T12:49:45Z</time>
      </trkpt>
      <trkpt lat="59.8227087" lon="17.843217">
        <ele>48.2034</ele>
        <time>2014-07-08T12:49:46Z</time>
      </trkpt>
      <trkpt lat="59.82279" lon="17.8432142">
        <ele>47.7225</ele>
        <time>2014-07-08T12:49:47Z</time>
      </trkpt>
      <trkpt lat="59.8228731" lon="17.8432042">
        <ele>46.7612</ele>
        <time>2014-07-08T12:49:48Z</time>
      </trkpt>
      <trkpt lat="59.8229591" lon="17.8431878">
        <ele>46.2806</ele>
        <time>2014-07-08T12:49:49Z</time>
      </trkpt>
      <trkpt lat="59.8230475" lon="17.8431634">
        <ele>45.3192</ele>
        <time>2014-07-08T12:49:50Z</time>
      </trkpt>
      <trkpt lat="59.8231378" lon="17.8431219">
        <ele>44.8386</ele>
        <time>2014-07-08T12:49:51Z</time>
      </trkpt>
      <trkpt lat="59.8232255" lon="17.8430485">
        <ele>44.358</ele>
        <time>2014-07-08T12:49:52Z</time>
      </trkpt>
      <trkpt lat="59.8233077" lon="17.842946">
        <ele>43.8773</ele>
        <time>2014-07-08T12:49:53Z</time>
      </trkpt>
      <trkpt lat="59.8233855" lon="17.8428264">
        <ele>43.3966</ele>
        <time>2014-07-08T12:49:54Z</time>
      </trkpt>
      <trkpt lat="59.823464" lon="17.842703">
        <ele>42.916</ele>
        <time>2014-07-08T12:49:55Z</time>
      </trkpt>
      <trkpt lat="59.823548" lon="17.8425923">
        <ele>42.4354</ele>
        <time>2014-07-08T12:49:56Z</time>
      </trkpt>
      <trkpt lat="59.8236393" lon="17.8425062">
        <ele>41.9547</ele>
        <time>2014-07-08T12:49:57Z</time>
      </trkpt>
      <trkpt lat="59.8237357" lon="17.842445">
        <ele>41.474</ele>
        <time>2014-07-08T12:49:58Z</time>
      </trkpt>
      <trkpt lat="59.8238346" lon="17.8424108">
        <ele>41.474</ele>
        <time>2014-07-08T12:49:59Z</time>
      </trkpt>
      <trkpt lat="59.8239329" lon="17.842401">
        <ele>41.474</ele>
        <time>2014-07-08T12:50:00Z</time>
      </trkpt>
      <trkpt lat="59.8240302" lon="17.8424075">
        <ele>40.9934</ele>
        <time>2014-07-08T12:50:01Z</time>
      </trkpt>
      <trkpt lat="59.8241257" lon="17.8424239">
        <ele>40.9934</ele>
        <time>2014-07-08T12:50:02Z</time>
      </trkpt>
      <trkpt lat="59.82422" lon="17.8424412">
        <ele>40.9934</ele>
        <time>2014-07-08T12:50:03Z</time>
      </trkpt>
      <trkpt lat="59.8243118" lon="17.8424528">
        <ele>40.9934</ele>
        <time>2014-07-08T12:50:04Z</time>
      </trkpt>
      <trkpt lat="59.8244007" lon="17.8424555">
        <ele>40.9934</ele>
        <time>2014-07-08T12:50:05Z</time>
      </trkpt>
      <trkpt lat="59.8244863" lon="17.8424496">
        <ele>40.9934</ele>
        <time>2014-07-08T12:50:06Z</time>
      </trkpt>
      <trkpt lat="59.8245658" lon="17.8424409">
        <ele>40.9934</ele>
        <time>2014-07-08T12:50:07Z</time>
      </trkpt>
      <trkpt lat="59.8246424" lon="17.842434">
        <ele>40.9934</ele>
        <time>2014-07-08T12:50:08Z</time>
      </trkpt>
      <trkpt lat="59.8247172" lon="17.842436">
        <ele>41.474</ele>
        <time>2014-07-08T12:50:09Z</time>
      </trkpt>
      <trkpt lat="59.8247949" lon="17.8424482">
        <ele>40.9934</ele>
        <time>2014-07-08T12:50:10Z</time>
      </trkpt>
      <trkpt lat="59.8248773" lon="17.8424651">
        <ele>40.5128</ele>
        <time>2014-07-08T12:50:11Z</time>
      </trkpt>
      <trkpt lat="59.8249657" lon="17.8424739">
        <ele>40.0321</ele>
        <time>2014-07-08T12:50:12Z</time>
      </trkpt>
      <trkpt lat="59.8250579" lon="17.8424616">
        <ele>39.5513</ele>
        <time>2014-07-08T12:50:13Z</time>
      </trkpt>
      <trkpt lat="59.8251535" lon="17.8424291">
        <ele>39.0707</ele>
        <time>2014-07-08T12:50:14Z</time>
      </trkpt>
      <trkpt lat="59.8252527" lon="17.8423803">
        <ele>39.0707</ele>
        <time>2014-07-08T12:50:15Z</time>
      </trkpt>
      <trkpt lat="59.8253471" lon="17.8423213">
        <ele>39.0707</ele>
        <time>2014-07-08T12:50:16Z</time>
      </trkpt>
      <trkpt lat="59.8254395" lon="17.8422574">
        <ele>39.0707</ele>
        <time>2014-07-08T12:50:17Z</time>
      </trkpt>
      <trkpt lat="59.8255308" lon="17.8421886">
        <ele>38.5901</ele>
        <time>2014-07-08T12:50:18Z</time>
      </trkpt>
      <trkpt lat="59.8256201" lon="17.8421136">
        <ele>38.5901</ele>
        <time>2014-07-08T12:50:19Z</time>
      </trkpt>
      <trkpt lat="59.8257073" lon="17.8420316">
        <ele>38.5901</ele>
        <time>2014-07-08T12:50:20Z</time>
      </trkpt>
      <trkpt lat="59.8257917" lon="17.8419434">
        <ele>38.1094</ele>
        <time>2014-07-08T12:50:21Z</time>
      </trkpt>
      <trkpt lat="59.825874" lon="17.8418567">
        <ele>38.1094</ele>
        <time>2014-07-08T12:50:22Z</time>
      </trkpt>
      <trkpt lat="59.8259553" lon="17.8417768">
        <ele>37.6287</ele>
        <time>2014-07-08T12:50:23Z</time>
      </trkpt>
      <trkpt lat="59.8260376" lon="17.8417022">
        <ele>37.6287</ele>
        <time>2014-07-08T12:50:24Z</time>
      </trkpt>
      <trkpt lat="59.8261185" lon="17.841626">
        <ele>37.6287</ele>
        <time>2014-07-08T12:50:25Z</time>
      </trkpt>
      <trkpt lat="59.8261991" lon="17.8415447">
        <ele>37.1481</ele>
        <time>2014-07-08T12:50:26Z</time>
      </trkpt>
      <trkpt lat="59.8262786" lon="17.8414596">
        <ele>36.6675</ele>
        <time>2014-07-08T12:50:27Z</time>
      </trkpt>
      <trkpt lat="59.8263584" lon="17.8413679">
        <ele>36.1868</ele>
        <time>2014-07-08T12:50:28Z</time>
      </trkpt>
      <trkpt lat="59.8264381" lon="17.8412744">
        <ele>36.1868</ele>
        <time>2014-07-08T12:50:29Z</time>
      </trkpt>
      <trkpt lat="59.8265194" lon="17.8411966">
        <ele>35.7061</ele>
        <time>2014-07-08T12:50:30Z</time>
      </trkpt>
      <trkpt lat="59.8266057" lon="17.8411441">
        <ele>35.2255</ele>
        <time>2014-07-08T12:50:31Z</time>
      </trkpt>
      <trkpt lat="59.8266964" lon="17.8411479">
        <ele>34.2642</ele>
        <time>2014-07-08T12:50:32Z</time>
      </trkpt>
      <trkpt lat="59.8267915" lon="17.8411795">
        <ele>33.7834</ele>
        <time>2014-07-08T12:50:33Z</time>
      </trkpt>
      <trkpt lat="59.8268897" lon="17.8412438">
        <ele>32.8223</ele>
        <time>2014-07-08T12:50:34Z</time>
      </trkpt>
      <trkpt lat="59.8269845" lon="17.8413157">
        <ele>31.8607</ele>
        <time>2014-07-08T12:50:35Z</time>
      </trkpt>
      <trkpt lat="59.8270846" lon="17.8413904">
        <ele>31.3801</ele>
        <time>2014-07-08T12:50:36Z</time>
      </trkpt>
      <trkpt lat="59.8271849" lon="17.8414671">
        <ele>30.4188</ele>
        <time>2014-07-08T12:50:37Z</time>
      </trkpt>
      <trkpt lat="59.8272798" lon="17.8415445">
        <ele>29.9381</ele>
        <time>2014-07-08T12:50:38Z</time>
      </trkpt>
      <trkpt lat="59.827373" lon="17.8416161">
        <ele>29.4575</ele>
        <time>2014-07-08T12:50:39Z</time>
      </trkpt>
      <trkpt lat="59.8274648" lon="17.8416852">
        <ele>29.4575</ele>
        <time>2014-07-08T12:50:40Z</time>
      </trkpt>
      <trkpt lat="59.8275565" lon="17.8417539">
        <ele>28.9769</ele>
        <time>2014-07-08T12:50:41Z</time>
      </trkpt>
      <trkpt lat="59.8276487" lon="17.8418139">
        <ele>28.4962</ele>
        <time>2014-07-08T12:50:42Z</time>
      </trkpt>
      <trkpt lat="59.8277384" lon="17.8418654">
        <ele>28.0155</ele>
        <time>2014-07-08T12:50:43Z</time>
      </trkpt>
      <trkpt lat="59.8278261" lon="17.841912">
        <ele>28.0155</ele>
        <time>2014-07-08T12:50:44Z</time>
      </trkpt>
      <trkpt lat="59.8279113" lon="17.8419686">
        <ele>27.5349</ele>
        <time>2014-07-08T12:50:45Z</time>
      </trkpt>
      <trkpt lat="59.8279906" lon="17.8420532">
        <ele>27.0543</ele>
        <time>2014-07-08T12:50:46Z</time>
      </trkpt>
      <trkpt lat="59.8280626" lon="17.842162">
        <ele>25.6123</ele>
        <time>2014-07-08T12:50:47Z</time>
      </trkpt>
      <trkpt lat="59.8281245" lon="17.842292">
        <ele>25.1317</ele>
        <time>2014-07-08T12:50:48Z</time>
      </trkpt>
      <trkpt lat="59.8281782" lon="17.8424284">
        <ele>24.1703</ele>
        <time>2014-07-08T12:50:49Z</time>
      </trkpt>
      <trkpt lat="59.8282369" lon="17.8425446">
        <ele>23.209</ele>
        <time>2014-07-08T12:50:50Z</time>
      </trkpt>
      <trkpt lat="59.8283054" lon="17.8426285">
        <ele>22.2476</ele>
        <time>2014-07-08T12:50:51Z</time>
      </trkpt>
      <trkpt lat="59.8283838" lon="17.8426733">
        <ele>21.767</ele>
        <time>2014-07-08T12:50:52Z</time>
      </trkpt>
      <trkpt lat="59.8284711" lon="17.8426849">
        <ele>20.8057</ele>
        <time>2014-07-08T12:50:53Z</time>
      </trkpt>
      <trkpt lat="59.8285655" lon="17.8426902">
        <ele>19.8444</ele>
        <time>2014-07-08T12:50:54Z</time>
      </trkpt>
      <trkpt lat="59.828664" lon="17.842704">
        <ele>18.8831</ele>
        <time>2014-07-08T12:50:55Z</time>
      </trkpt>
      <trkpt lat="59.8287663" lon="17.8427326">
        <ele>17.9218</ele>
        <time>2014-07-08T12:50:56Z</time>
      </trkpt>
      <trkpt lat="59.8288707" lon="17.8427829">
        <ele>16.9604</ele>
        <time>2014-07-08T12:50:57Z</time>
      </trkpt>
      <trkpt lat="59.8289769" lon="17.8428509">
        <ele>15.999</ele>
        <time>2014-07-08T12:50:58Z</time>
      </trkpt>
      <trkpt lat="59.8290831" lon="17.8429393">
        <ele>15.5184</ele>
        <time>2014-07-08T12:50:59Z</time>
      </trkpt>
      <trkpt lat="59.8291835" lon="17.8430514">
        <ele>15.5184</ele>
        <time>2014-07-08T12:51:00Z</time>
      </trkpt>
      <trkpt lat="59.8292742" lon="17.8431893">
        <ele>15.5184</ele>
        <time>2014-07-08T12:51:01Z</time>
      </trkpt>
      <trkpt lat="59.8293522" lon="17.8433443">
        <ele>15.5184</ele>
        <time>2014-07-08T12:51:02Z</time>
      </trkpt>
      <trkpt lat="59.8294191" lon="17.8435034">
        <ele>15.999</ele>
        <time>2014-07-08T12:51:03Z</time>
      </trkpt>
      <trkpt lat="59.8294839" lon="17.843653">
        <ele>15.999</ele>
        <time>2014-07-08T12:51:04Z</time>
      </trkpt>
      <trkpt lat="59.8295503" lon="17.8437873">
        <ele>15.999</ele>
        <time>2014-07-08T12:51:05Z</time>
      </trkpt>
      <trkpt lat="59.8296238" lon="17.8439096">
        <ele>15.999</ele>
        <time>2014-07-08T12:51:06Z</time>
      </trkpt>
      <trkpt lat="59.8296995" lon="17.8440301">
        <ele>15.5184</ele>
        <time>2014-07-08T12:51:07Z</time>
      </trkpt>
      <trkpt lat="59.8297729" lon="17.8441602">
        <ele>15.5184</ele>
        <time>2014-07-08T12:51:08Z</time>
      </trkpt>
      <trkpt lat="59.8298422" lon="17.8443034">
        <ele>15.5184</ele>
        <time>2014-07-08T12:51:09Z</time>
      </trkpt>
      <trkpt lat="59.8299052" lon="17.8444559">
        <ele>15.5184</ele>
        <time>2014-07-08T12:51:10Z</time>
      </trkpt>
      <trkpt lat="59.8299614" lon="17.8446102">
        <ele>15.0377</ele>
        <time>2014-07-08T12:51:11Z</time>
      </trkpt>
      <trkpt lat="59.8300154" lon="17.8447591">
        <ele>15.5184</ele>
        <time>2014-07-08T12:51:12Z</time>
      </trkpt>
      <trkpt lat="59.8300666" lon="17.8449031">
        <ele>15.5184</ele>
        <time>2014-07-08T12:51:13Z</time>
      </trkpt>
      <trkpt lat="59.8301168" lon="17.8450386">
        <ele>15.999</ele>
        <time>2014-07-08T12:51:14Z</time>
      </trkpt>
      <trkpt lat="59.8301672" lon="17.8451642">
        <ele>16.4797</ele>
        <time>2014-07-08T12:51:15Z</time>
      </trkpt>
      <trkpt lat="59.8302185" lon="17.8452814">
        <ele>16.4797</ele>
        <time>2014-07-08T12:51:16Z</time>
      </trkpt>
      <trkpt lat="59.8302682" lon="17.8453873">
        <ele>16.9604</ele>
        <time>2014-07-08T12:51:17Z</time>
      </trkpt>
      <trkpt lat="59.830318" lon="17.845485">
        <ele>16.9604</ele>
        <time>2014-07-08T12:51:18Z</time>
      </trkpt>
      <trkpt lat="59.8303682" lon="17.8455738">
        <ele>16.9604</ele>
        <time>2014-07-08T12:51:19Z</time>
      </trkpt>
      <trkpt lat="59.8304255" lon="17.8456537">
        <ele>17.4412</ele>
        <time>2014-07-08T12:51:20Z</time>
      </trkpt>
      <trkpt lat="59.8304861" lon="17.8457224">
        <ele>17.4412</ele>
        <time>2014-07-08T12:51:21Z</time>
      </trkpt>
      <trkpt lat="59.830549" lon="17.8457934">
        <ele>16.9604</ele>
        <time>2014-07-08T12:51:22Z</time>
      </trkpt>
      <trkpt lat="59.8306075" lon="17.8458673">
        <ele>16.4797</ele>
        <time>2014-07-08T12:51:23Z</time>
      </trkpt>
      <trkpt lat="59.8306696" lon="17.8459323">
        <ele>15.999</ele>
        <time>2014-07-08T12:51:24Z</time>
      </trkpt>
      <trkpt lat="59.8307376" lon="17.8459805">
        <ele>15.5184</ele>
        <time>2014-07-08T12:51:25Z</time>
      </trkpt>
      <trkpt lat="59.8308063" lon="17.8460302">
        <ele>15.5184</ele>
        <time>2014-07-08T12:51:26Z</time>
      </trkpt>
      <trkpt lat="59.8308841" lon="17.8460784">
        <ele>15.5184</ele>
        <time>2014-07-08T12:51:27Z</time>
      </trkpt>
      <trkpt lat="59.8309562" lon="17.8461264">
        <ele>15.5184</ele>
        <time>2014-07-08T12:51:28Z</time>
      </trkpt>
      <trkpt lat="59.831027" lon="17.8461799">
        <ele>15.5184</ele>
        <time>2014-07-08T12:51:29Z</time>
      </trkpt>
      <trkpt lat="59.8310998" lon="17.8462338">
        <ele>15.5184</ele>
        <time>2014-07-08T12:51:30Z</time>
      </trkpt>
      <trkpt lat="59.8311684" lon="17.8462953">
        <ele>15.5184</ele>
        <time>2014-07-08T12:51:31Z</time>
      </trkpt>
      <trkpt lat="59.8312295" lon="17.8463596">
        <ele>15.0377</ele>
        <time>2014-07-08T12:51:32Z</time>
      </trkpt>
      <trkpt lat="59.8312913" lon="17.8464233">
        <ele>15.0377</ele>
        <time>2014-07-08T12:51:33Z</time>
      </trkpt>
      <trkpt lat="59.8313575" lon="17.8464807">
        <ele>15.0377</ele>
        <time>2014-07-08T12:51:34Z</time>
      </trkpt>
      <trkpt lat="59.831427" lon="17.846535">
        <ele>14.557</ele>
        <time>2014-07-08T12:51:35Z</time>
      </trkpt>
      <trkpt lat="59.8315004" lon="17.846585">
        <ele>14.557</ele>
        <time>2014-07-08T12:51:36Z</time>
      </trkpt>
      <trkpt lat="59.831576" lon="17.8466298">
        <ele>14.0764</ele>
        <time>2014-07-08T12:51:37Z</time>
      </trkpt>
      <trkpt lat="59.8316529" lon="17.8466706">
        <ele>14.0764</ele>
        <time>2014-07-08T12:51:38Z</time>
      </trkpt>
      <trkpt lat="59.8317326" lon="17.8467096">
        <ele>14.557</ele>
        <time>2014-07-08T12:51:39Z</time>
      </trkpt>
      <trkpt lat="59.831815" lon="17.846745">
        <ele>15.0377</ele>
        <time>2014-07-08T12:51:40Z</time>
      </trkpt>
      <trkpt lat="59.8318962" lon="17.8467848">
        <ele>15.5184</ele>
        <time>2014-07-08T12:51:41Z</time>
      </trkpt>
      <trkpt lat="59.8319752" lon="17.8468391">
        <ele>15.5184</ele>
        <time>2014-07-08T12:51:42Z</time>
      </trkpt>
      <trkpt lat="59.8320591" lon="17.8469054">
        <ele>15.999</ele>
        <time>2014-07-08T12:51:43Z</time>
      </trkpt>
      <trkpt lat="59.8321423" lon="17.8469977">
        <ele>15.999</ele>
        <time>2014-07-08T12:51:44Z</time>
      </trkpt>
      <trkpt lat="59.8322211" lon="17.8471113">
        <ele>15.999</ele>
        <time>2014-07-08T12:51:45Z</time>
      </trkpt>
      <trkpt lat="59.8322988" lon="17.847237">
        <ele>16.9604</ele>
        <time>2014-07-08T12:51:46Z</time>
      </trkpt>
      <trkpt lat="59.8323434" lon="17.8473918">
        <ele>16.9604</ele>
        <time>2014-07-08T12:51:47Z</time>
      </trkpt>
      <trkpt lat="59.8323859" lon="17.8475448">
        <ele>18.4023</ele>
        <time>2014-07-08T12:51:48Z</time>
      </trkpt>
      <trkpt lat="59.8324224" lon="17.8476924">
        <ele>18.8831</ele>
        <time>2014-07-08T12:51:49Z</time>
      </trkpt>
      <trkpt lat="59.8324593" lon="17.8478298">
        <ele>19.3638</ele>
        <time>2014-07-08T12:51:50Z</time>
      </trkpt>
      <trkpt lat="59.8324898" lon="17.8479638">
        <ele>19.3638</ele>
        <time>2014-07-08T12:51:51Z</time>
      </trkpt>
      <trkpt lat="59.8325216" lon="17.8480944">
        <ele>19.3638</ele>
        <time>2014-07-08T12:51:52Z</time>
      </trkpt>
      <trkpt lat="59.8325564" lon="17.8482229">
        <ele>18.8831</ele>
        <time>2014-07-08T12:51:53Z</time>
      </trkpt>
      <trkpt lat="59.8325957" lon="17.8483498">
        <ele>18.8831</ele>
        <time>2014-07-08T12:51:54Z</time>
      </trkpt>
      <trkpt lat="59.8326381" lon="17.8484731">
        <ele>18.8831</ele>
        <time>2014-07-08T12:51:55Z</time>
      </trkpt>
      <trkpt lat="59.8326846" lon="17.8485927">
        <ele>18.8831</ele>
        <time>2014-07-08T12:51:56Z</time>
      </trkpt>
      <trkpt lat="59.8327371" lon="17.8487065">
        <ele>18.8831</ele>
        <time>2014-07-08T12:51:57Z</time>
      </trkpt>
      <trkpt lat="59.8327908" lon="17.8488175">
        <ele>18.8831</ele>
        <time>2014-07-08T12:51:58Z</time>
      </trkpt>
      <trkpt lat="59.8328467" lon="17.8489248">
        <ele>18.4023</ele>
        <time>2014-07-08T12:51:59Z</time>
      </trkpt>
      <trkpt lat="59.8329063" lon="17.8490311">
        <ele>18.4023</ele>
        <time>2014-07-08T12:52:00Z</time>
      </trkpt>
      <trkpt lat="59.8329671" lon="17.8491401">
        <ele>18.4023</ele>
        <time>2014-07-08T12:52:01Z</time>
      </trkpt>
      <trkpt lat="59.8330298" lon="17.8492508">
        <ele>18.4023</ele>
        <time>2014-07-08T12:52:02Z</time>
      </trkpt>
      <trkpt lat="59.8330943" lon="17.8493654">
        <ele>17.9218</ele>
        <time>2014-07-08T12:52:03Z</time>
      </trkpt>
      <trkpt lat="59.8331608" lon="17.8494835">
        <ele>17.9218</ele>
        <time>2014-07-08T12:52:04Z</time>
      </trkpt>
      <trkpt lat="59.8332259" lon="17.8496048">
        <ele>16.9604</ele>
        <time>2014-07-08T12:52:05Z</time>
      </trkpt>
      <trkpt lat="59.8332951" lon="17.8497236">
        <ele>16.4797</ele>
        <time>2014-07-08T12:52:06Z</time>
      </trkpt>
      <trkpt lat="59.8333623" lon="17.8498449">
        <ele>15.999</ele>
        <time>2014-07-08T12:52:07Z</time>
      </trkpt>
      <trkpt lat="59.8334266" lon="17.8499759">
        <ele>15.999</ele>
        <time>2014-07-08T12:52:08Z</time>
      </trkpt>
      <trkpt lat="59.8334788" lon="17.8501191">
        <ele>15.5184</ele>
        <time>2014-07-08T12:52:09Z</time>
      </trkpt>
      <trkpt lat="59.833526" lon="17.8502635">
        <ele>15.999</ele>
        <time>2014-07-08T12:52:10Z</time>
      </trkpt>
      <trkpt lat="59.8335736" lon="17.8503991">
        <ele>15.999</ele>
        <time>2014-07-08T12:52:11Z</time>
      </trkpt>
      <trkpt lat="59.833625" lon="17.8505211">
        <ele>15.999</ele>
        <time>2014-07-08T12:52:12Z</time>
      </trkpt>
      <trkpt lat="59.8336799" lon="17.8506275">
        <ele>16.4797</ele>
        <time>2014-07-08T12:52:13Z</time>
      </trkpt>
      <trkpt lat="59.8337377" lon="17.8507228">
        <ele>16.4797</ele>
        <time>2014-07-08T12:52:14Z</time>
      </trkpt>
      <trkpt lat="59.8337969" lon="17.8508134">
        <ele>16.9604</ele>
        <time>2014-07-08T12:52:15Z</time>
      </trkpt>
      <trkpt lat="59.8338587" lon="17.850899">
        <ele>16.9604</ele>
        <time>2014-07-08T12:52:16Z</time>
      </trkpt>
      <trkpt lat="59.8339223" lon="17.8509802">
        <ele>17.4412</ele>
        <time>2014-07-08T12:52:17Z</time>
      </trkpt>
      <trkpt lat="59.8339871" lon="17.8510589">
        <ele>17.4412</ele>
        <time>2014-07-08T12:52:18Z</time>
      </trkpt>
      <trkpt lat="59.8340523" lon="17.8511347">
        <ele>17.9218</ele>
        <time>2014-07-08T12:52:19Z</time>
      </trkpt>
      <trkpt lat="59.8341181" lon="17.8512067">
        <ele>18.4023</ele>
        <time>2014-07-08T12:52:20Z</time>
      </trkpt>
      <trkpt lat="59.8341818" lon="17.8512722">
        <ele>18.4023</ele>
        <time>2014-07-08T12:52:21Z</time>
      </trkpt>
      <trkpt lat="59.8342443" lon="17.8513321">
        <ele>18.4023</ele>
        <time>2014-07-08T12:52:22Z</time>
      </trkpt>
      <trkpt lat="59.8343097" lon="17.8513889">
        <ele>18.8831</ele>
        <time>2014-07-08T12:52:23Z</time>
      </trkpt>
      <trkpt lat="59.8343745" lon="17.8514435">
        <ele>18.8831</ele>
        <time>2014-07-08T12:52:24Z</time>
      </trkpt>
      <trkpt lat="59.8344387" lon="17.8514965">
        <ele>19.3638</ele>
        <time>2014-07-08T12:52:25Z</time>
      </trkpt>
      <trkpt lat="59.834504" lon="17.8515545">
        <ele>19.8444</ele>
        <time>2014-07-08T12:52:26Z</time>
      </trkpt>
      <trkpt lat="59.8345657" lon="17.8516181">
        <ele>20.325</ele>
        <time>2014-07-08T12:52:27Z</time>
      </trkpt>
      <trkpt lat="59.8346274" lon="17.8516874">
        <ele>20.8057</ele>
        <time>2014-07-08T12:52:28Z</time>
      </trkpt>
      <trkpt lat="59.8346822" lon="17.8517595">
        <ele>21.2864</ele>
        <time>2014-07-08T12:52:29Z</time>
      </trkpt>
      <trkpt lat="59.8347343" lon="17.8518349">
        <ele>21.767</ele>
        <time>2014-07-08T12:52:30Z</time>
      </trkpt>
      <trkpt lat="59.8347801" lon="17.8519131">
        <ele>22.2476</ele>
        <time>2014-07-08T12:52:31Z</time>
      </trkpt>
      <trkpt lat="59.8348216" lon="17.8519912">
        <ele>22.7283</ele>
        <time>2014-07-08T12:52:32Z</time>
      </trkpt>
      <trkpt lat="59.8348603" lon="17.8520667">
        <ele>23.209</ele>
        <time>2014-07-08T12:52:33Z</time>
      </trkpt>
      <trkpt lat="59.8348936" lon="17.8521347">
        <ele>23.6896</ele>
        <time>2014-07-08T12:52:34Z</time>
      </trkpt>
      <trkpt lat="59.8349275" lon="17.8521976">
        <ele>24.1703</ele>
        <time>2014-07-08T12:52:35Z</time>
      </trkpt>
      <trkpt lat="59.8349573" lon="17.8522624">
        <ele>24.651</ele>
        <time>2014-07-08T12:52:36Z</time>
      </trkpt>
      <trkpt lat="59.8349889" lon="17.8523311">
        <ele>24.651</ele>
        <time>2014-07-08T12:52:37Z</time>
      </trkpt>
      <trkpt lat="59.8350236" lon="17.8524048">
        <ele>25.1317</ele>
        <time>2014-07-08T12:52:38Z</time>
      </trkpt>
      <trkpt lat="59.8350662" lon="17.8524773">
        <ele>25.6123</ele>
        <time>2014-07-08T12:52:39Z</time>
      </trkpt>
      <trkpt lat="59.8351013" lon="17.8525575">
        <ele>25.6123</ele>
        <time>2014-07-08T12:52:40Z</time>
      </trkpt>
      <trkpt lat="59.835137" lon="17.852643">
        <ele>25.6123</ele>
        <time>2014-07-08T12:52:41Z</time>
      </trkpt>
      <trkpt lat="59.8351724" lon="17.8527268">
        <ele>26.0929</ele>
        <time>2014-07-08T12:52:42Z</time>
      </trkpt>
      <trkpt lat="59.8352058" lon="17.8528123">
        <ele>26.0929</ele>
        <time>2014-07-08T12:52:43Z</time>
      </trkpt>
      <trkpt lat="59.8352345" lon="17.852895">
        <ele>25.6123</ele>
        <time>2014-07-08T12:52:44Z</time>
      </trkpt>
      <trkpt lat="59.8352632" lon="17.85297">
        <ele>25.1317</ele>
        <time>2014-07-08T12:52:45Z</time>
      </trkpt>
      <trkpt lat="59.8352919" lon="17.8530397">
        <ele>24.651</ele>
        <time>2014-07-08T12:52:46Z</time>
      </trkpt>
      <trkpt lat="59.8353219" lon="17.8531046">
        <ele>24.651</ele>
        <time>2014-07-08T12:52:47Z</time>
      </trkpt>
      <trkpt lat="59.8353556" lon="17.8531622">
        <ele>24.651</ele>
        <time>2014-07-08T12:52:48Z</time>
      </trkpt>
      <trkpt lat="59.8353904" lon="17.8532139">
        <ele>25.1317</ele>
        <time>2014-07-08T12:52:49Z</time>
      </trkpt>
      <trkpt lat="59.8354218" lon="17.8532668">
        <ele>25.1317</ele>
        <time>2014-07-08T12:52:50Z</time>
      </trkpt>
      <trkpt lat="59.8354534" lon="17.853323">
        <ele>25.6123</ele>
        <time>2014-07-08T12:52:51Z</time>
      </trkpt>
      <trkpt lat="59.8354816" lon="17.8533792">
        <ele>25.1317</ele>
        <time>2014-07-08T12:52:52Z</time>
      </trkpt>
      <trkpt lat="59.835508" lon="17.8534298">
        <ele>25.1317</ele>
        <time>2014-07-08T12:52:53Z</time>
      </trkpt>
      <trkpt lat="59.8355346" lon="17.8534723">
        <ele>25.1317</ele>
        <time>2014-07-08T12:52:54Z</time>
      </trkpt>
      <trkpt lat="59.8355583" lon="17.8535076">
        <ele>25.1317</ele>
        <time>2014-07-08T12:52:55Z</time>
      </trkpt>
      <trkpt lat="59.8355748" lon="17.8535376">
        <ele>25.1317</ele>
        <time>2014-07-08T12:52:56Z</time>
      </trkpt>
      <trkpt lat="59.8355878" lon="17.8535661">
        <ele>24.651</ele>
        <time>2014-07-08T12:52:57Z</time>
      </trkpt>
      <trkpt lat="59.835599" lon="17.853588">
        <ele>24.651</ele>
        <time>2014-07-08T12:52:58Z</time>
      </trkpt>
      <trkpt lat="59.8356042" lon="17.8536025">
        <ele>24.1703</ele>
        <time>2014-07-08T12:52:59Z</time>
      </trkpt>
      <trkpt lat="59.8356041" lon="17.8536066">
        <ele>24.1703</ele>
        <time>2014-07-08T12:53:00Z</time>
      </trkpt>
      <trkpt lat="59.8356027" lon="17.8536066">
        <ele>24.1703</ele>
        <time>2014-07-08T12:53:01Z</time>
      </trkpt>
      <trkpt lat="59.8357239" lon="17.8538229">
        <ele>33.7834</ele>
        <time>2014-07-08T12:58:05Z</time>
      </trkpt>
      <trkpt lat="59.8357325" lon="17.8538454">
        <ele>32.3416</ele>
        <time>2014-07-08T12:58:06Z</time>
      </trkpt>
      <trkpt lat="59.8357489" lon="17.8538651">
        <ele>31.8607</ele>
        <time>2014-07-08T12:58:07Z</time>
      </trkpt>
      <trkpt lat="59.8357808" lon="17.8538847">
        <ele>31.3801</ele>
        <time>2014-07-08T12:58:08Z</time>
      </trkpt>
      <trkpt lat="59.8358079" lon="17.8539101">
        <ele>31.3801</ele>
        <time>2014-07-08T12:58:09Z</time>
      </trkpt>
      <trkpt lat="59.835827" lon="17.8539407">
        <ele>30.8995</ele>
        <time>2014-07-08T12:58:10Z</time>
      </trkpt>
      <trkpt lat="59.8358455" lon="17.8539785">
        <ele>29.9381</ele>
        <time>2014-07-08T12:58:11Z</time>
      </trkpt>
      <trkpt lat="59.8358705" lon="17.8540206">
        <ele>29.4575</ele>
        <time>2014-07-08T12:58:12Z</time>
      </trkpt>
      <trkpt lat="59.8358978" lon="17.8540643">
        <ele>28.9769</ele>
        <time>2014-07-08T12:58:13Z</time>
      </trkpt>
      <trkpt lat="59.8359278" lon="17.8541159">
        <ele>28.4962</ele>
        <time>2014-07-08T12:58:14Z</time>
      </trkpt>
      <trkpt lat="59.835959" lon="17.8541676">
        <ele>27.5349</ele>
        <time>2014-07-08T12:58:15Z</time>
      </trkpt>
      <trkpt lat="59.8359917" lon="17.854218">
        <ele>27.0543</ele>
        <time>2014-07-08T12:58:16Z</time>
      </trkpt>
      <trkpt lat="59.8360278" lon="17.8542707">
        <ele>26.5736</ele>
        <time>2014-07-08T12:58:17Z</time>
      </trkpt>
      <trkpt lat="59.8360656" lon="17.8543266">
        <ele>26.0929</ele>
        <time>2014-07-08T12:58:18Z</time>
      </trkpt>
      <trkpt lat="59.8361056" lon="17.8543836">
        <ele>25.6123</ele>
        <time>2014-07-08T12:58:19Z</time>
      </trkpt>
      <trkpt lat="59.8361506" lon="17.8544395">
        <ele>25.1317</ele>
        <time>2014-07-08T12:58:20Z</time>
      </trkpt>
      <trkpt lat="59.8361995" lon="17.8544959">
        <ele>24.651</ele>
        <time>2014-07-08T12:58:21Z</time>
      </trkpt>
      <trkpt lat="59.8362502" lon="17.8545554">
        <ele>24.651</ele>
        <time>2014-07-08T12:58:22Z</time>
      </trkpt>
      <trkpt lat="59.836302" lon="17.8546171">
        <ele>24.651</ele>
        <time>2014-07-08T12:58:23Z</time>
      </trkpt>
      <trkpt lat="59.8363578" lon="17.8546828">
        <ele>24.1703</ele>
        <time>2014-07-08T12:58:24Z</time>
      </trkpt>
      <trkpt lat="59.8364173" lon="17.8547497">
        <ele>24.1703</ele>
        <time>2014-07-08T12:58:25Z</time>
      </trkpt>
      <trkpt lat="59.8364762" lon="17.8548146">
        <ele>24.1703</ele>
        <time>2014-07-08T12:58:26Z</time>
      </trkpt>
      <trkpt lat="59.8365323" lon="17.8548804">
        <ele>23.6896</ele>
        <time>2014-07-08T12:58:27Z</time>
      </trkpt>
      <trkpt lat="59.8365854" lon="17.8549508">
        <ele>23.6896</ele>
        <time>2014-07-08T12:58:28Z</time>
      </trkpt>
      <trkpt lat="59.8366367" lon="17.8550257">
        <ele>23.209</ele>
        <time>2014-07-08T12:58:29Z</time>
      </trkpt>
      <trkpt lat="59.8366865" lon="17.8551047">
        <ele>22.7283</ele>
        <time>2014-07-08T12:58:30Z</time>
      </trkpt>
      <trkpt lat="59.8367375" lon="17.8551915">
        <ele>22.2476</ele>
        <time>2014-07-08T12:58:31Z</time>
      </trkpt>
      <trkpt lat="59.8367869" lon="17.8552848">
        <ele>22.2476</ele>
        <time>2014-07-08T12:58:32Z</time>
      </trkpt>
      <trkpt lat="59.8368362" lon="17.8553797">
        <ele>22.2476</ele>
        <time>2014-07-08T12:58:33Z</time>
      </trkpt>
      <trkpt lat="59.8368889" lon="17.8554764">
        <ele>23.209</ele>
        <time>2014-07-08T12:58:34Z</time>
      </trkpt>
      <trkpt lat="59.8369351" lon="17.8555722">
        <ele>23.209</ele>
        <time>2014-07-08T12:58:35Z</time>
      </trkpt>
      <trkpt lat="59.8369842" lon="17.8556645">
        <ele>22.7283</ele>
        <time>2014-07-08T12:58:36Z</time>
      </trkpt>
      <trkpt lat="59.8370334" lon="17.855751">
        <ele>22.7283</ele>
        <time>2014-07-08T12:58:37Z</time>
      </trkpt>
      <trkpt lat="59.8370828" lon="17.8558312">
        <ele>22.7283</ele>
        <time>2014-07-08T12:58:38Z</time>
      </trkpt>
      <trkpt lat="59.8371356" lon="17.8559004">
        <ele>22.2476</ele>
        <time>2014-07-08T12:58:39Z</time>
      </trkpt>
      <trkpt lat="59.8371903" lon="17.8559616">
        <ele>21.767</ele>
        <time>2014-07-08T12:58:40Z</time>
      </trkpt>
      <trkpt lat="59.8372494" lon="17.8560134">
        <ele>21.767</ele>
        <time>2014-07-08T12:58:41Z</time>
      </trkpt>
      <trkpt lat="59.8373106" lon="17.8560604">
        <ele>21.2864</ele>
        <time>2014-07-08T12:58:42Z</time>
      </trkpt>
      <trkpt lat="59.8373715" lon="17.856106">
        <ele>21.2864</ele>
        <time>2014-07-08T12:58:43Z</time>
      </trkpt>
      <trkpt lat="59.8374349" lon="17.856149">
        <ele>21.2864</ele>
        <time>2014-07-08T12:58:44Z</time>
      </trkpt>
      <trkpt lat="59.8374927" lon="17.8561966">
        <ele>21.2864</ele>
        <time>2014-07-08T12:58:45Z</time>
      </trkpt>
      <trkpt lat="59.8375483" lon="17.8562489">
        <ele>21.2864</ele>
        <time>2014-07-08T12:58:46Z</time>
      </trkpt>
      <trkpt lat="59.8376011" lon="17.856307">
        <ele>20.8057</ele>
        <time>2014-07-08T12:58:47Z</time>
      </trkpt>
      <trkpt lat="59.8376531" lon="17.8563708">
        <ele>20.8057</ele>
        <time>2014-07-08T12:58:48Z</time>
      </trkpt>
      <trkpt lat="59.8377042" lon="17.8564391">
        <ele>20.325</ele>
        <time>2014-07-08T12:58:49Z</time>
      </trkpt>
      <trkpt lat="59.8377545" lon="17.8565146">
        <ele>19.8444</ele>
        <time>2014-07-08T12:58:50Z</time>
      </trkpt>
      <trkpt lat="59.8378056" lon="17.8565984">
        <ele>19.8444</ele>
        <time>2014-07-08T12:58:51Z</time>
      </trkpt>
      <trkpt lat="59.837856" lon="17.8566877">
        <ele>19.8444</ele>
        <time>2014-07-08T12:58:52Z</time>
      </trkpt>
      <trkpt lat="59.8379027" lon="17.8567847">
        <ele>19.3638</ele>
        <time>2014-07-08T12:58:53Z</time>
      </trkpt>
      <trkpt lat="59.8379484" lon="17.8568873">
        <ele>18.8831</ele>
        <time>2014-07-08T12:58:54Z</time>
      </trkpt>
      <trkpt lat="59.8379938" lon="17.8569919">
        <ele>18.4023</ele>
        <time>2014-07-08T12:58:55Z</time>
      </trkpt>
      <trkpt lat="59.8380411" lon="17.8570976">
        <ele>18.4023</ele>
        <time>2014-07-08T12:58:56Z</time>
      </trkpt>
      <trkpt lat="59.8380845" lon="17.8572062">
        <ele>17.9218</ele>
        <time>2014-07-08T12:58:57Z</time>
      </trkpt>
      <trkpt lat="59.8381302" lon="17.8573136">
        <ele>17.9218</ele>
        <time>2014-07-08T12:58:58Z</time>
      </trkpt>
      <trkpt lat="59.8381756" lon="17.8574203">
        <ele>17.4412</ele>
        <time>2014-07-08T12:58:59Z</time>
      </trkpt>
      <trkpt lat="59.8382206" lon="17.8575265">
        <ele>17.9218</ele>
        <time>2014-07-08T12:59:00Z</time>
      </trkpt>
      <trkpt lat="59.8382631" lon="17.8576319">
        <ele>17.4412</ele>
        <time>2014-07-08T12:59:01Z</time>
      </trkpt>
      <trkpt lat="59.8383052" lon="17.857735">
        <ele>17.4412</ele>
        <time>2014-07-08T12:59:02Z</time>
      </trkpt>
      <trkpt lat="59.8383487" lon="17.8578344">
        <ele>17.4412</ele>
        <time>2014-07-08T12:59:03Z</time>
      </trkpt>
      <trkpt lat="59.8383927" lon="17.857932">
        <ele>16.9604</ele>
        <time>2014-07-08T12:59:04Z</time>
      </trkpt>
      <trkpt lat="59.8384373" lon="17.8580276">
        <ele>17.4412</ele>
        <time>2014-07-08T12:59:05Z</time>
      </trkpt>
      <trkpt lat="59.8384817" lon="17.8581195">
        <ele>17.4412</ele>
        <time>2014-07-08T12:59:06Z</time>
      </trkpt>
      <trkpt lat="59.8385253" lon="17.8582076">
        <ele>17.4412</ele>
        <time>2014-07-08T12:59:07Z</time>
      </trkpt>
      <trkpt lat="59.8385693" lon="17.8582924">
        <ele>17.4412</ele>
        <time>2014-07-08T12:59:08Z</time>
      </trkpt>
      <trkpt lat="59.8386134" lon="17.8583754">
        <ele>17.4412</ele>
        <time>2014-07-08T12:59:09Z</time>
      </trkpt>
      <trkpt lat="59.8386586" lon="17.8584583">
        <ele>17.4412</ele>
        <time>2014-07-08T12:59:10Z</time>
      </trkpt>
      <trkpt lat="59.8387045" lon="17.8585413">
        <ele>17.9218</ele>
        <time>2014-07-08T12:59:11Z</time>
      </trkpt>
      <trkpt lat="59.8387505" lon="17.858625">
        <ele>17.9218</ele>
        <time>2014-07-08T12:59:12Z</time>
      </trkpt>
      <trkpt lat="59.8387962" lon="17.8587084">
        <ele>17.9218</ele>
        <time>2014-07-08T12:59:13Z</time>
      </trkpt>
      <trkpt lat="59.8388418" lon="17.8587907">
        <ele>18.4023</ele>
        <time>2014-07-08T12:59:14Z</time>
      </trkpt>
      <trkpt lat="59.8388878" lon="17.8588723">
        <ele>18.4023</ele>
        <time>2014-07-08T12:59:15Z</time>
      </trkpt>
      <trkpt lat="59.8389328" lon="17.8589555">
        <ele>18.4023</ele>
        <time>2014-07-08T12:59:16Z</time>
      </trkpt>
      <trkpt lat="59.8389777" lon="17.8590379">
        <ele>18.4023</ele>
        <time>2014-07-08T12:59:17Z</time>
      </trkpt>
      <trkpt lat="59.8390237" lon="17.8591203">
        <ele>18.4023</ele>
        <time>2014-07-08T12:59:18Z</time>
      </trkpt>
      <trkpt lat="59.8390707" lon="17.8592036">
        <ele>18.8831</ele>
        <time>2014-07-08T12:59:19Z</time>
      </trkpt>
      <trkpt lat="59.8391195" lon="17.8592843">
        <ele>18.8831</ele>
        <time>2014-07-08T12:59:20Z</time>
      </trkpt>
      <trkpt lat="59.8391708" lon="17.8593601">
        <ele>18.8831</ele>
        <time>2014-07-08T12:59:21Z</time>
      </trkpt>
      <trkpt lat="59.8392226" lon="17.8594311">
        <ele>18.8831</ele>
        <time>2014-07-08T12:59:22Z</time>
      </trkpt>
      <trkpt lat="59.8392732" lon="17.8594996">
        <ele>18.8831</ele>
        <time>2014-07-08T12:59:23Z</time>
      </trkpt>
      <trkpt lat="59.839322" lon="17.8595668">
        <ele>18.8831</ele>
        <time>2014-07-08T12:59:24Z</time>
      </trkpt>
      <trkpt lat="59.839369" lon="17.859633">
        <ele>18.8831</ele>
        <time>2014-07-08T12:59:25Z</time>
      </trkpt>
      <trkpt lat="59.8394138" lon="17.8596963">
        <ele>19.3638</ele>
        <time>2014-07-08T12:59:26Z</time>
      </trkpt>
      <trkpt lat="59.8394593" lon="17.8597531">
        <ele>19.3638</ele>
        <time>2014-07-08T12:59:27Z</time>
      </trkpt>
      <trkpt lat="59.8395063" lon="17.8598068">
        <ele>19.3638</ele>
        <time>2014-07-08T12:59:28Z</time>
      </trkpt>
      <trkpt lat="59.8395536" lon="17.8598615">
        <ele>19.3638</ele>
        <time>2014-07-08T12:59:29Z</time>
      </trkpt>
      <trkpt lat="59.8396017" lon="17.8599164">
        <ele>19.3638</ele>
        <time>2014-07-08T12:59:30Z</time>
      </trkpt>
      <trkpt lat="59.839651" lon="17.8599698">
        <ele>19.3638</ele>
        <time>2014-07-08T12:59:31Z</time>
      </trkpt>
      <trkpt lat="59.8397015" lon="17.8600199">
        <ele>19.8444</ele>
        <time>2014-07-08T12:59:32Z</time>
      </trkpt>
      <trkpt lat="59.8397528" lon="17.8600667">
        <ele>19.8444</ele>
        <time>2014-07-08T12:59:33Z</time>
      </trkpt>
      <trkpt lat="59.8398043" lon="17.8601119">
        <ele>19.8444</ele>
        <time>2014-07-08T12:59:34Z</time>
      </trkpt>
      <trkpt lat="59.8398567" lon="17.8601561">
        <ele>19.8444</ele>
        <time>2014-07-08T12:59:35Z</time>
      </trkpt>
      <trkpt lat="59.8399106" lon="17.8601956">
        <ele>19.8444</ele>
        <time>2014-07-08T12:59:36Z</time>
      </trkpt>
      <trkpt lat="59.8399654" lon="17.8602315">
        <ele>19.8444</ele>
        <time>2014-07-08T12:59:37Z</time>
      </trkpt>
      <trkpt lat="59.8400211" lon="17.8602677">
        <ele>20.325</ele>
        <time>2014-07-08T12:59:38Z</time>
      </trkpt>
      <trkpt lat="59.8400773" lon="17.8603039">
        <ele>20.325</ele>
        <time>2014-07-08T12:59:39Z</time>
      </trkpt>
      <trkpt lat="59.8401348" lon="17.8603405">
        <ele>20.325</ele>
        <time>2014-07-08T12:59:40Z</time>
      </trkpt>
      <trkpt lat="59.8401936" lon="17.860378">
        <ele>20.325</ele>
        <time>2014-07-08T12:59:41Z</time>
      </trkpt>
      <trkpt lat="59.8402537" lon="17.8604151">
        <ele>20.325</ele>
        <time>2014-07-08T12:59:42Z</time>
      </trkpt>
      <trkpt lat="59.8403146" lon="17.8604525">
        <ele>20.325</ele>
        <time>2014-07-08T12:59:43Z</time>
      </trkpt>
      <trkpt lat="59.8403757" lon="17.8604926">
        <ele>20.325</ele>
        <time>2014-07-08T12:59:44Z</time>
      </trkpt>
      <trkpt lat="59.8404371" lon="17.8605333">
        <ele>20.325</ele>
        <time>2014-07-08T12:59:45Z</time>
      </trkpt>
      <trkpt lat="59.8404988" lon="17.8605713">
        <ele>20.325</ele>
        <time>2014-07-08T12:59:46Z</time>
      </trkpt>
      <trkpt lat="59.8405609" lon="17.8606091">
        <ele>20.8057</ele>
        <time>2014-07-08T12:59:47Z</time>
      </trkpt>
      <trkpt lat="59.8406222" lon="17.8606473">
        <ele>20.8057</ele>
        <time>2014-07-08T12:59:48Z</time>
      </trkpt>
      <trkpt lat="59.8406837" lon="17.8606837">
        <ele>20.8057</ele>
        <time>2014-07-08T12:59:49Z</time>
      </trkpt>
      <trkpt lat="59.8407466" lon="17.8607185">
        <ele>20.8057</ele>
        <time>2014-07-08T12:59:50Z</time>
      </trkpt>
      <trkpt lat="59.8408103" lon="17.8607531">
        <ele>20.8057</ele>
        <time>2014-07-08T12:59:51Z</time>
      </trkpt>
      <trkpt lat="59.8408729" lon="17.8607866">
        <ele>20.8057</ele>
        <time>2014-07-08T12:59:52Z</time>
      </trkpt>
      <trkpt lat="59.8409346" lon="17.8608214">
        <ele>20.8057</ele>
        <time>2014-07-08T12:59:53Z</time>
      </trkpt>
      <trkpt lat="59.840995" lon="17.8608582">
        <ele>20.325</ele>
        <time>2014-07-08T12:59:54Z</time>
      </trkpt>
      <trkpt lat="59.8410548" lon="17.8608961">
        <ele>20.325</ele>
        <time>2014-07-08T12:59:55Z</time>
      </trkpt>
      <trkpt lat="59.8411154" lon="17.8609364">
        <ele>20.325</ele>
        <time>2014-07-08T12:59:56Z</time>
      </trkpt>
      <trkpt lat="59.8411775" lon="17.8609795">
        <ele>19.8444</ele>
        <time>2014-07-08T12:59:57Z</time>
      </trkpt>
      <trkpt lat="59.8412397" lon="17.8610265">
        <ele>19.8444</ele>
        <time>2014-07-08T12:59:58Z</time>
      </trkpt>
      <trkpt lat="59.8412998" lon="17.8610803">
        <ele>19.8444</ele>
        <time>2014-07-08T12:59:59Z</time>
      </trkpt>
      <trkpt lat="59.8413584" lon="17.8611373">
        <ele>19.8444</ele>
        <time>2014-07-08T13:00:00Z</time>
      </trkpt>
      <trkpt lat="59.8414164" lon="17.8611929">
        <ele>19.8444</ele>
        <time>2014-07-08T13:00:01Z</time>
      </trkpt>
      <trkpt lat="59.8414749" lon="17.8612494">
        <ele>19.8444</ele>
        <time>2014-07-08T13:00:02Z</time>
      </trkpt>
      <trkpt lat="59.8415334" lon="17.8613093">
        <ele>19.8444</ele>
        <time>2014-07-08T13:00:03Z</time>
      </trkpt>
      <trkpt lat="59.8415914" lon="17.8613714">
        <ele>19.8444</ele>
        <time>2014-07-08T13:00:04Z</time>
      </trkpt>
      <trkpt lat="59.84165" lon="17.8614333">
        <ele>19.8444</ele>
        <time>2014-07-08T13:00:05Z</time>
      </trkpt>
      <trkpt lat="59.8417075" lon="17.8614979">
        <ele>20.325</ele>
        <time>2014-07-08T13:00:06Z</time>
      </trkpt>
      <trkpt lat="59.8417634" lon="17.8615626">
        <ele>20.325</ele>
        <time>2014-07-08T13:00:07Z</time>
      </trkpt>
      <trkpt lat="59.8418197" lon="17.8616245">
        <ele>20.325</ele>
        <time>2014-07-08T13:00:08Z</time>
      </trkpt>
      <trkpt lat="59.8418746" lon="17.861685">
        <ele>20.8057</ele>
        <time>2014-07-08T13:00:09Z</time>
      </trkpt>
      <trkpt lat="59.8419302" lon="17.861741">
        <ele>21.2864</ele>
        <time>2014-07-08T13:00:10Z</time>
      </trkpt>
      <trkpt lat="59.8419804" lon="17.8617961">
        <ele>21.2864</ele>
        <time>2014-07-08T13:00:11Z</time>
      </trkpt>
      <trkpt lat="59.8420293" lon="17.8618496">
        <ele>21.2864</ele>
        <time>2014-07-08T13:00:12Z</time>
      </trkpt>
      <trkpt lat="59.8420771" lon="17.8619013">
        <ele>21.2864</ele>
        <time>2014-07-08T13:00:13Z</time>
      </trkpt>
      <trkpt lat="59.8421229" lon="17.861952">
        <ele>21.2864</ele>
        <time>2014-07-08T13:00:14Z</time>
      </trkpt>
      <trkpt lat="59.8421715" lon="17.8619985">
        <ele>21.2864</ele>
        <time>2014-07-08T13:00:15Z</time>
      </trkpt>
      <trkpt lat="59.8422218" lon="17.8620411">
        <ele>21.767</ele>
        <time>2014-07-08T13:00:16Z</time>
      </trkpt>
      <trkpt lat="59.8422731" lon="17.8620777">
        <ele>21.767</ele>
        <time>2014-07-08T13:00:17Z</time>
      </trkpt>
      <trkpt lat="59.842324" lon="17.8621092">
        <ele>21.2864</ele>
        <time>2014-07-08T13:00:18Z</time>
      </trkpt>
      <trkpt lat="59.8423773" lon="17.862136">
        <ele>21.2864</ele>
        <time>2014-07-08T13:00:19Z</time>
      </trkpt>
      <trkpt lat="59.8424328" lon="17.8621587">
        <ele>21.2864</ele>
        <time>2014-07-08T13:00:20Z</time>
      </trkpt>
      <trkpt lat="59.8424922" lon="17.8621745">
        <ele>21.2864</ele>
        <time>2014-07-08T13:00:21Z</time>
      </trkpt>
      <trkpt lat="59.8425493" lon="17.8621812">
        <ele>20.8057</ele>
        <time>2014-07-08T13:00:22Z</time>
      </trkpt>
      <trkpt lat="59.8426098" lon="17.8621781">
        <ele>20.8057</ele>
        <time>2014-07-08T13:00:23Z</time>
      </trkpt>
      <trkpt lat="59.8426729" lon="17.8621673">
        <ele>20.325</ele>
        <time>2014-07-08T13:00:24Z</time>
      </trkpt>
      <trkpt lat="59.8427369" lon="17.8621551">
        <ele>20.325</ele>
        <time>2014-07-08T13:00:25Z</time>
      </trkpt>
      <trkpt lat="59.842802" lon="17.8621435">
        <ele>20.325</ele>
        <time>2014-07-08T13:00:26Z</time>
      </trkpt>
      <trkpt lat="59.8428624" lon="17.8621292">
        <ele>20.325</ele>
        <time>2014-07-08T13:00:27Z</time>
      </trkpt>
      <trkpt lat="59.8429227" lon="17.8621107">
        <ele>20.325</ele>
        <time>2014-07-08T13:00:28Z</time>
      </trkpt>
      <trkpt lat="59.8429838" lon="17.8620947">
        <ele>19.8444</ele>
        <time>2014-07-08T13:00:29Z</time>
      </trkpt>
      <trkpt lat="59.8430448" lon="17.8620815">
        <ele>19.8444</ele>
        <time>2014-07-08T13:00:30Z</time>
      </trkpt>
      <trkpt lat="59.8431066" lon="17.8620657">
        <ele>19.8444</ele>
        <time>2014-07-08T13:00:31Z</time>
      </trkpt>
      <trkpt lat="59.8431677" lon="17.8620477">
        <ele>19.8444</ele>
        <time>2014-07-08T13:00:32Z</time>
      </trkpt>
      <trkpt lat="59.8432264" lon="17.8620257">
        <ele>19.3638</ele>
        <time>2014-07-08T13:00:33Z</time>
      </trkpt>
      <trkpt lat="59.8432884" lon="17.8620024">
        <ele>18.8831</ele>
        <time>2014-07-08T13:00:34Z</time>
      </trkpt>
      <trkpt lat="59.8433552" lon="17.8619766">
        <ele>18.4023</ele>
        <time>2014-07-08T13:00:35Z</time>
      </trkpt>
      <trkpt lat="59.8434226" lon="17.8619506">
        <ele>18.4023</ele>
        <time>2014-07-08T13:00:36Z</time>
      </trkpt>
      <trkpt lat="59.8434888" lon="17.8619244">
        <ele>17.9218</ele>
        <time>2014-07-08T13:00:37Z</time>
      </trkpt>
      <trkpt lat="59.8435547" lon="17.861898">
        <ele>17.9218</ele>
        <time>2014-07-08T13:00:38Z</time>
      </trkpt>
      <trkpt lat="59.8436209" lon="17.8618709">
        <ele>17.9218</ele>
        <time>2014-07-08T13:00:39Z</time>
      </trkpt>
      <trkpt lat="59.8436873" lon="17.8618419">
        <ele>17.4412</ele>
        <time>2014-07-08T13:00:40Z</time>
      </trkpt>
      <trkpt lat="59.8437546" lon="17.8618127">
        <ele>17.4412</ele>
        <time>2014-07-08T13:00:41Z</time>
      </trkpt>
      <trkpt lat="59.8438235" lon="17.8617834">
        <ele>17.4412</ele>
        <time>2014-07-08T13:00:42Z</time>
      </trkpt>
      <trkpt lat="59.843893" lon="17.8617524">
        <ele>16.9604</ele>
        <time>2014-07-08T13:00:43Z</time>
      </trkpt>
      <trkpt lat="59.8439627" lon="17.8617201">
        <ele>16.9604</ele>
        <time>2014-07-08T13:00:44Z</time>
      </trkpt>
      <trkpt lat="59.8440327" lon="17.8616881">
        <ele>16.4797</ele>
        <time>2014-07-08T13:00:45Z</time>
      </trkpt>
      <trkpt lat="59.8441022" lon="17.8616555">
        <ele>16.4797</ele>
        <time>2014-07-08T13:00:46Z</time>
      </trkpt>
      <trkpt lat="59.8441705" lon="17.8616226">
        <ele>16.4797</ele>
        <time>2014-07-08T13:00:47Z</time>
      </trkpt>
      <trkpt lat="59.8442382" lon="17.8615928">
        <ele>16.4797</ele>
        <time>2014-07-08T13:00:48Z</time>
      </trkpt>
      <trkpt lat="59.8443058" lon="17.8615646">
        <ele>16.4797</ele>
        <time>2014-07-08T13:00:49Z</time>
      </trkpt>
      <trkpt lat="59.8443724" lon="17.861535">
        <ele>16.4797</ele>
        <time>2014-07-08T13:00:50Z</time>
      </trkpt>
      <trkpt lat="59.8444395" lon="17.8615034">
        <ele>16.4797</ele>
        <time>2014-07-08T13:00:51Z</time>
      </trkpt>
      <trkpt lat="59.8445064" lon="17.8614711">
        <ele>16.4797</ele>
        <time>2014-07-08T13:00:52Z</time>
      </trkpt>
      <trkpt lat="59.8445741" lon="17.8614394">
        <ele>16.4797</ele>
        <time>2014-07-08T13:00:53Z</time>
      </trkpt>
      <trkpt lat="59.8446424" lon="17.8614079">
        <ele>16.4797</ele>
        <time>2014-07-08T13:00:54Z</time>
      </trkpt>
      <trkpt lat="59.8447114" lon="17.8613778">
        <ele>16.4797</ele>
        <time>2014-07-08T13:00:55Z</time>
      </trkpt>
      <trkpt lat="59.8447803" lon="17.861348">
        <ele>16.4797</ele>
        <time>2014-07-08T13:00:56Z</time>
      </trkpt>
      <trkpt lat="59.8448491" lon="17.8613173">
        <ele>16.4797</ele>
        <time>2014-07-08T13:00:57Z</time>
      </trkpt>
      <trkpt lat="59.8449175" lon="17.861286">
        <ele>16.9604</ele>
        <time>2014-07-08T13:00:58Z</time>
      </trkpt>
      <trkpt lat="59.8449857" lon="17.8612538">
        <ele>16.9604</ele>
        <time>2014-07-08T13:00:59Z</time>
      </trkpt>
      <trkpt lat="59.8450533" lon="17.8612218">
        <ele>16.9604</ele>
        <time>2014-07-08T13:01:00Z</time>
      </trkpt>
      <trkpt lat="59.8451206" lon="17.8611911">
        <ele>16.9604</ele>
        <time>2014-07-08T13:01:01Z</time>
      </trkpt>
      <trkpt lat="59.8451865" lon="17.8611603">
        <ele>17.4412</ele>
        <time>2014-07-08T13:01:02Z</time>
      </trkpt>
      <trkpt lat="59.8452516" lon="17.8611277">
        <ele>17.4412</ele>
        <time>2014-07-08T13:01:03Z</time>
      </trkpt>
      <trkpt lat="59.8453175" lon="17.8610947">
        <ele>17.4412</ele>
        <time>2014-07-08T13:01:04Z</time>
      </trkpt>
      <trkpt lat="59.8453843" lon="17.8610629">
        <ele>17.4412</ele>
        <time>2014-07-08T13:01:05Z</time>
      </trkpt>
      <trkpt lat="59.845453" lon="17.8610318">
        <ele>17.4412</ele>
        <time>2014-07-08T13:01:06Z</time>
      </trkpt>
      <trkpt lat="59.845523" lon="17.8610002">
        <ele>17.4412</ele>
        <time>2014-07-08T13:01:07Z</time>
      </trkpt>
      <trkpt lat="59.8455945" lon="17.8609684">
        <ele>17.4412</ele>
        <time>2014-07-08T13:01:08Z</time>
      </trkpt>
      <trkpt lat="59.8456664" lon="17.8609333">
        <ele>17.4412</ele>
        <time>2014-07-08T13:01:09Z</time>
      </trkpt>
      <trkpt lat="59.8457395" lon="17.8608925">
        <ele>17.4412</ele>
        <time>2014-07-08T13:01:10Z</time>
      </trkpt>
      <trkpt lat="59.8458151" lon="17.8608518">
        <ele>16.9604</ele>
        <time>2014-07-08T13:01:11Z</time>
      </trkpt>
      <trkpt lat="59.845893" lon="17.8608159">
        <ele>16.9604</ele>
        <time>2014-07-08T13:01:12Z</time>
      </trkpt>
      <trkpt lat="59.8459732" lon="17.8607831">
        <ele>16.4797</ele>
        <time>2014-07-08T13:01:13Z</time>
      </trkpt>
      <trkpt lat="59.8460552" lon="17.8607518">
        <ele>16.4797</ele>
        <time>2014-07-08T13:01:14Z</time>
      </trkpt>
      <trkpt lat="59.846139" lon="17.8607194">
        <ele>15.999</ele>
        <time>2014-07-08T13:01:15Z</time>
      </trkpt>
      <trkpt lat="59.8462246" lon="17.8606845">
        <ele>15.999</ele>
        <time>2014-07-08T13:01:16Z</time>
      </trkpt>
      <trkpt lat="59.846312" lon="17.8606464">
        <ele>15.5184</ele>
        <time>2014-07-08T13:01:17Z</time>
      </trkpt>
      <trkpt lat="59.846401" lon="17.8606057">
        <ele>15.5184</ele>
        <time>2014-07-08T13:01:18Z</time>
      </trkpt>
      <trkpt lat="59.8464918" lon="17.8605639">
        <ele>15.0377</ele>
        <time>2014-07-08T13:01:19Z</time>
      </trkpt>
      <trkpt lat="59.8465846" lon="17.860522">
        <ele>15.0377</ele>
        <time>2014-07-08T13:01:20Z</time>
      </trkpt>
      <trkpt lat="59.8466794" lon="17.8604805">
        <ele>14.557</ele>
        <time>2014-07-08T13:01:21Z</time>
      </trkpt>
      <trkpt lat="59.8467761" lon="17.8604376">
        <ele>14.0764</ele>
        <time>2014-07-08T13:01:22Z</time>
      </trkpt>
      <trkpt lat="59.8468736" lon="17.860393">
        <ele>14.0764</ele>
        <time>2014-07-08T13:01:23Z</time>
      </trkpt>
      <trkpt lat="59.8469726" lon="17.8603459">
        <ele>13.5958</ele>
        <time>2014-07-08T13:01:24Z</time>
      </trkpt>
      <trkpt lat="59.8470719" lon="17.8602987">
        <ele>13.1151</ele>
        <time>2014-07-08T13:01:25Z</time>
      </trkpt>
      <trkpt lat="59.8471719" lon="17.8602527">
        <ele>13.1151</ele>
        <time>2014-07-08T13:01:26Z</time>
      </trkpt>
      <trkpt lat="59.8472723" lon="17.8602071">
        <ele>12.6344</ele>
        <time>2014-07-08T13:01:27Z</time>
      </trkpt>
      <trkpt lat="59.8473722" lon="17.8601623">
        <ele>12.6344</ele>
        <time>2014-07-08T13:01:28Z</time>
      </trkpt>
      <trkpt lat="59.8474709" lon="17.8601178">
        <ele>12.1538</ele>
        <time>2014-07-08T13:01:29Z</time>
      </trkpt>
      <trkpt lat="59.8475682" lon="17.8600737">
        <ele>12.1538</ele>
        <time>2014-07-08T13:01:30Z</time>
      </trkpt>
      <trkpt lat="59.8476641" lon="17.8600298">
        <ele>12.1538</ele>
        <time>2014-07-08T13:01:31Z</time>
      </trkpt>
      <trkpt lat="59.847759" lon="17.8599859">
        <ele>12.1538</ele>
        <time>2014-07-08T13:01:32Z</time>
      </trkpt>
      <trkpt lat="59.8478536" lon="17.8599416">
        <ele>12.1538</ele>
        <time>2014-07-08T13:01:33Z</time>
      </trkpt>
      <trkpt lat="59.847948" lon="17.8598973">
        <ele>11.6732</ele>
        <time>2014-07-08T13:01:34Z</time>
      </trkpt>
      <trkpt lat="59.848042" lon="17.8598534">
        <ele>11.6732</ele>
        <time>2014-07-08T13:01:35Z</time>
      </trkpt>
      <trkpt lat="59.8481354" lon="17.8598097">
        <ele>11.6732</ele>
        <time>2014-07-08T13:01:36Z</time>
      </trkpt>
      <trkpt lat="59.8482286" lon="17.8597655">
        <ele>11.6732</ele>
        <time>2014-07-08T13:01:37Z</time>
      </trkpt>
      <trkpt lat="59.8483204" lon="17.8597203">
        <ele>11.6732</ele>
        <time>2014-07-08T13:01:38Z</time>
      </trkpt>
      <trkpt lat="59.8484105" lon="17.8596756">
        <ele>11.6732</ele>
        <time>2014-07-08T13:01:39Z</time>
      </trkpt>
      <trkpt lat="59.8484991" lon="17.8596336">
        <ele>11.6732</ele>
        <time>2014-07-08T13:01:40Z</time>
      </trkpt>
      <trkpt lat="59.8485859" lon="17.8595932">
        <ele>11.6732</ele>
        <time>2014-07-08T13:01:41Z</time>
      </trkpt>
      <trkpt lat="59.8486707" lon="17.8595526">
        <ele>11.6732</ele>
        <time>2014-07-08T13:01:42Z</time>
      </trkpt>
      <trkpt lat="59.8487541" lon="17.8595122">
        <ele>11.6732</ele>
        <time>2014-07-08T13:01:43Z</time>
      </trkpt>
      <trkpt lat="59.8488366" lon="17.8594713">
        <ele>11.6732</ele>
        <time>2014-07-08T13:01:44Z</time>
      </trkpt>
      <trkpt lat="59.8489177" lon="17.8594286">
        <ele>11.6732</ele>
        <time>2014-07-08T13:01:45Z</time>
      </trkpt>
      <trkpt lat="59.848998" lon="17.8593848">
        <ele>11.6732</ele>
        <time>2014-07-08T13:01:46Z</time>
      </trkpt>
      <trkpt lat="59.849078" lon="17.8593411">
        <ele>11.6732</ele>
        <time>2014-07-08T13:01:47Z</time>
      </trkpt>
      <trkpt lat="59.849157" lon="17.8593002">
        <ele>11.6732</ele>
        <time>2014-07-08T13:01:48Z</time>
      </trkpt>
      <trkpt lat="59.8492352" lon="17.8592602">
        <ele>11.6732</ele>
        <time>2014-07-08T13:01:49Z</time>
      </trkpt>
      <trkpt lat="59.8493119" lon="17.8592186">
        <ele>11.6732</ele>
        <time>2014-07-08T13:01:50Z</time>
      </trkpt>
      <trkpt lat="59.8493874" lon="17.8591768">
        <ele>11.6732</ele>
        <time>2014-07-08T13:01:51Z</time>
      </trkpt>
      <trkpt lat="59.8494626" lon="17.8591358">
        <ele>11.6732</ele>
        <time>2014-07-08T13:01:52Z</time>
      </trkpt>
      <trkpt lat="59.849539" lon="17.8590924">
        <ele>11.6732</ele>
        <time>2014-07-08T13:01:53Z</time>
      </trkpt>
      <trkpt lat="59.8496131" lon="17.8590417">
        <ele>12.1538</ele>
        <time>2014-07-08T13:01:54Z</time>
      </trkpt>
      <trkpt lat="59.8496856" lon="17.8589868">
        <ele>12.1538</ele>
        <time>2014-07-08T13:01:55Z</time>
      </trkpt>
      <trkpt lat="59.8497578" lon="17.8589291">
        <ele>11.6732</ele>
        <time>2014-07-08T13:01:56Z</time>
      </trkpt>
      <trkpt lat="59.8498309" lon="17.8588706">
        <ele>12.1538</ele>
        <time>2014-07-08T13:01:57Z</time>
      </trkpt>
      <trkpt lat="59.8499044" lon="17.8588153">
        <ele>12.1538</ele>
        <time>2014-07-08T13:01:58Z</time>
      </trkpt>
      <trkpt lat="59.8499769" lon="17.8587619">
        <ele>12.1538</ele>
        <time>2014-07-08T13:01:59Z</time>
      </trkpt>
      <trkpt lat="59.8500505" lon="17.858707">
        <ele>12.1538</ele>
        <time>2014-07-08T13:02:00Z</time>
      </trkpt>
      <trkpt lat="59.8501224" lon="17.8586521">
        <ele>12.1538</ele>
        <time>2014-07-08T13:02:01Z</time>
      </trkpt>
      <trkpt lat="59.8501948" lon="17.858598">
        <ele>12.1538</ele>
        <time>2014-07-08T13:02:02Z</time>
      </trkpt>
      <trkpt lat="59.8502675" lon="17.8585452">
        <ele>12.1538</ele>
        <time>2014-07-08T13:02:03Z</time>
      </trkpt>
      <trkpt lat="59.8503395" lon="17.8584914">
        <ele>12.1538</ele>
        <time>2014-07-08T13:02:04Z</time>
      </trkpt>
      <trkpt lat="59.8504106" lon="17.8584381">
        <ele>12.6344</ele>
        <time>2014-07-08T13:02:05Z</time>
      </trkpt>
      <trkpt lat="59.8504819" lon="17.8583898">
        <ele>12.6344</ele>
        <time>2014-07-08T13:02:06Z</time>
      </trkpt>
      <trkpt lat="59.8505535" lon="17.8583454">
        <ele>12.6344</ele>
        <time>2014-07-08T13:02:07Z</time>
      </trkpt>
      <trkpt lat="59.8506256" lon="17.858303">
        <ele>12.6344</ele>
        <time>2014-07-08T13:02:08Z</time>
      </trkpt>
      <trkpt lat="59.8506983" lon="17.8582636">
        <ele>12.1538</ele>
        <time>2014-07-08T13:02:09Z</time>
      </trkpt>
      <trkpt lat="59.8507717" lon="17.8582277">
        <ele>12.1538</ele>
        <time>2014-07-08T13:02:10Z</time>
      </trkpt>
      <trkpt lat="59.8508466" lon="17.8581946">
        <ele>12.1538</ele>
        <time>2014-07-08T13:02:11Z</time>
      </trkpt>
      <trkpt lat="59.8509222" lon="17.8581609">
        <ele>12.1538</ele>
        <time>2014-07-08T13:02:12Z</time>
      </trkpt>
      <trkpt lat="59.8509981" lon="17.8581263">
        <ele>11.6732</ele>
        <time>2014-07-08T13:02:13Z</time>
      </trkpt>
      <trkpt lat="59.8510752" lon="17.8580929">
        <ele>11.6732</ele>
        <time>2014-07-08T13:02:14Z</time>
      </trkpt>
      <trkpt lat="59.8511521" lon="17.8580587">
        <ele>11.6732</ele>
        <time>2014-07-08T13:02:15Z</time>
      </trkpt>
      <trkpt lat="59.851228" lon="17.8580263">
        <ele>11.6732</ele>
        <time>2014-07-08T13:02:16Z</time>
      </trkpt>
      <trkpt lat="59.8513027" lon="17.8579957">
        <ele>11.1925</ele>
        <time>2014-07-08T13:02:17Z</time>
      </trkpt>
      <trkpt lat="59.8513777" lon="17.8579645">
        <ele>11.1925</ele>
        <time>2014-07-08T13:02:18Z</time>
      </trkpt>
      <trkpt lat="59.8514532" lon="17.8579325">
        <ele>11.1925</ele>
        <time>2014-07-08T13:02:19Z</time>
      </trkpt>
      <trkpt lat="59.851529" lon="17.8578994">
        <ele>10.7118</ele>
        <time>2014-07-08T13:02:20Z</time>
      </trkpt>
      <trkpt lat="59.8516052" lon="17.8578663">
        <ele>10.7118</ele>
        <time>2014-07-08T13:02:21Z</time>
      </trkpt>
      <trkpt lat="59.8516807" lon="17.8578347">
        <ele>10.2312</ele>
        <time>2014-07-08T13:02:22Z</time>
      </trkpt>
      <trkpt lat="59.8517552" lon="17.8578039">
        <ele>10.2312</ele>
        <time>2014-07-08T13:02:23Z</time>
      </trkpt>
      <trkpt lat="59.8518295" lon="17.8577733">
        <ele>10.2312</ele>
        <time>2014-07-08T13:02:24Z</time>
      </trkpt>
      <trkpt lat="59.8519041" lon="17.8577435">
        <ele>10.2312</ele>
        <time>2014-07-08T13:02:25Z</time>
      </trkpt>
      <trkpt lat="59.8519786" lon="17.8577138">
        <ele>9.75061</ele>
        <time>2014-07-08T13:02:26Z</time>
      </trkpt>
      <trkpt lat="59.8520532" lon="17.8576859">
        <ele>9.75061</ele>
        <time>2014-07-08T13:02:27Z</time>
      </trkpt>
      <trkpt lat="59.8521294" lon="17.8576632">
        <ele>9.75061</ele>
        <time>2014-07-08T13:02:28Z</time>
      </trkpt>
      <trkpt lat="59.852208" lon="17.8576467">
        <ele>9.2699</ele>
        <time>2014-07-08T13:02:29Z</time>
      </trkpt>
      <trkpt lat="59.8522902" lon="17.8576382">
        <ele>9.75061</ele>
        <time>2014-07-08T13:02:30Z</time>
      </trkpt>
      <trkpt lat="59.8523748" lon="17.857637">
        <ele>9.75061</ele>
        <time>2014-07-08T13:02:31Z</time>
      </trkpt>
      <trkpt lat="59.8524594" lon="17.8576433">
        <ele>9.75061</ele>
        <time>2014-07-08T13:02:32Z</time>
      </trkpt>
      <trkpt lat="59.8525447" lon="17.8576614">
        <ele>10.2312</ele>
        <time>2014-07-08T13:02:33Z</time>
      </trkpt>
      <trkpt lat="59.8526288" lon="17.8576932">
        <ele>10.2312</ele>
        <time>2014-07-08T13:02:34Z</time>
      </trkpt>
      <trkpt lat="59.8527095" lon="17.8577351">
        <ele>10.7118</ele>
        <time>2014-07-08T13:02:35Z</time>
      </trkpt>
      <trkpt lat="59.8527855" lon="17.8577816">
        <ele>10.7118</ele>
        <time>2014-07-08T13:02:36Z</time>
      </trkpt>
      <trkpt lat="59.8528592" lon="17.8578305">
        <ele>11.1925</ele>
        <time>2014-07-08T13:02:37Z</time>
      </trkpt>
      <trkpt lat="59.8529287" lon="17.8578844">
        <ele>11.6732</ele>
        <time>2014-07-08T13:02:38Z</time>
      </trkpt>
      <trkpt lat="59.8529944" lon="17.8579435">
        <ele>11.6732</ele>
        <time>2014-07-08T13:02:39Z</time>
      </trkpt>
      <trkpt lat="59.8530565" lon="17.858007">
        <ele>11.6732</ele>
        <time>2014-07-08T13:02:40Z</time>
      </trkpt>
      <trkpt lat="59.8531173" lon="17.858074">
        <ele>12.1538</ele>
        <time>2014-07-08T13:02:41Z</time>
      </trkpt>
      <trkpt lat="59.8531786" lon="17.858145">
        <ele>12.1538</ele>
        <time>2014-07-08T13:02:42Z</time>
      </trkpt>
      <trkpt lat="59.8532399" lon="17.8582183">
        <ele>12.1538</ele>
        <time>2014-07-08T13:02:43Z</time>
      </trkpt>
      <trkpt lat="59.8533009" lon="17.8582936">
        <ele>12.1538</ele>
        <time>2014-07-08T13:02:44Z</time>
      </trkpt>
      <trkpt lat="59.8533633" lon="17.8583695">
        <ele>12.6344</ele>
        <time>2014-07-08T13:02:45Z</time>
      </trkpt>
      <trkpt lat="59.8534252" lon="17.8584427">
        <ele>12.6344</ele>
        <time>2014-07-08T13:02:46Z</time>
      </trkpt>
      <trkpt lat="59.8534848" lon="17.8585137">
        <ele>12.6344</ele>
        <time>2014-07-08T13:02:47Z</time>
      </trkpt>
      <trkpt lat="59.8535423" lon="17.8585837">
        <ele>12.6344</ele>
        <time>2014-07-08T13:02:48Z</time>
      </trkpt>
      <trkpt lat="59.8535984" lon="17.8586509">
        <ele>12.6344</ele>
        <time>2014-07-08T13:02:49Z</time>
      </trkpt>
      <trkpt lat="59.8536538" lon="17.8587173">
        <ele>13.1151</ele>
        <time>2014-07-08T13:02:50Z</time>
      </trkpt>
      <trkpt lat="59.8537088" lon="17.858784">
        <ele>13.1151</ele>
        <time>2014-07-08T13:02:51Z</time>
      </trkpt>
      <trkpt lat="59.8537641" lon="17.8588492">
        <ele>13.1151</ele>
        <time>2014-07-08T13:02:52Z</time>
      </trkpt>
      <trkpt lat="59.8538188" lon="17.858913">
        <ele>13.1151</ele>
        <time>2014-07-08T13:02:53Z</time>
      </trkpt>
      <trkpt lat="59.8538723" lon="17.8589753">
        <ele>13.5958</ele>
        <time>2014-07-08T13:02:54Z</time>
      </trkpt>
      <trkpt lat="59.8539225" lon="17.859036">
        <ele>14.0764</ele>
        <time>2014-07-08T13:02:55Z</time>
      </trkpt>
      <trkpt lat="59.8539691" lon="17.8590923">
        <ele>14.0764</ele>
        <time>2014-07-08T13:02:56Z</time>
      </trkpt>
      <trkpt lat="59.8540123" lon="17.8591456">
        <ele>14.0764</ele>
        <time>2014-07-08T13:02:57Z</time>
      </trkpt>
      <trkpt lat="59.8540538" lon="17.8591971">
        <ele>14.0764</ele>
        <time>2014-07-08T13:02:58Z</time>
      </trkpt>
      <trkpt lat="59.854097" lon="17.8592441">
        <ele>14.557</ele>
        <time>2014-07-08T13:02:59Z</time>
      </trkpt>
      <trkpt lat="59.8541414" lon="17.8592892">
        <ele>15.0377</ele>
        <time>2014-07-08T13:03:00Z</time>
      </trkpt>
      <trkpt lat="59.8541833" lon="17.8593337">
        <ele>15.0377</ele>
        <time>2014-07-08T13:03:01Z</time>
      </trkpt>
      <trkpt lat="59.854224" lon="17.8593736">
        <ele>15.5184</ele>
        <time>2014-07-08T13:03:02Z</time>
      </trkpt>
      <trkpt lat="59.854263" lon="17.8594079">
        <ele>15.5184</ele>
        <time>2014-07-08T13:03:03Z</time>
      </trkpt>
      <trkpt lat="59.8543028" lon="17.8594371">
        <ele>15.999</ele>
        <time>2014-07-08T13:03:04Z</time>
      </trkpt>
      <trkpt lat="59.8543416" lon="17.859461">
        <ele>15.999</ele>
        <time>2014-07-08T13:03:05Z</time>
      </trkpt>
      <trkpt lat="59.8543788" lon="17.8594839">
        <ele>15.999</ele>
        <time>2014-07-08T13:03:06Z</time>
      </trkpt>
      <trkpt lat="59.8544149" lon="17.8595067">
        <ele>16.4797</ele>
        <time>2014-07-08T13:03:07Z</time>
      </trkpt>
      <trkpt lat="59.8544522" lon="17.8595273">
        <ele>16.4797</ele>
        <time>2014-07-08T13:03:08Z</time>
      </trkpt>
      <trkpt lat="59.8544909" lon="17.8595461">
        <ele>15.999</ele>
        <time>2014-07-08T13:03:09Z</time>
      </trkpt>
      <trkpt lat="59.8545311" lon="17.8595659">
        <ele>15.999</ele>
        <time>2014-07-08T13:03:10Z</time>
      </trkpt>
      <trkpt lat="59.8545722" lon="17.8595855">
        <ele>15.5184</ele>
        <time>2014-07-08T13:03:11Z</time>
      </trkpt>
      <trkpt lat="59.8546161" lon="17.8596001">
        <ele>15.5184</ele>
        <time>2014-07-08T13:03:12Z</time>
      </trkpt>
      <trkpt lat="59.8546625" lon="17.8596109">
        <ele>15.0377</ele>
        <time>2014-07-08T13:03:13Z</time>
      </trkpt>
      <trkpt lat="59.8547111" lon="17.859621">
        <ele>15.0377</ele>
        <time>2014-07-08T13:03:14Z</time>
      </trkpt>
      <trkpt lat="59.8547617" lon="17.8596304">
        <ele>15.0377</ele>
        <time>2014-07-08T13:03:15Z</time>
      </trkpt>
      <trkpt lat="59.8548131" lon="17.8596374">
        <ele>14.557</ele>
        <time>2014-07-08T13:03:16Z</time>
      </trkpt>
      <trkpt lat="59.8548635" lon="17.8596394">
        <ele>14.557</ele>
        <time>2014-07-08T13:03:17Z</time>
      </trkpt>
      <trkpt lat="59.8549101" lon="17.8596254">
        <ele>14.0764</ele>
        <time>2014-07-08T13:03:18Z</time>
      </trkpt>
      <trkpt lat="59.8549495" lon="17.859586">
        <ele>14.0764</ele>
        <time>2014-07-08T13:03:19Z</time>
      </trkpt>
      <trkpt lat="59.8549857" lon="17.8595289">
        <ele>13.5958</ele>
        <time>2014-07-08T13:03:20Z</time>
      </trkpt>
      <trkpt lat="59.8550183" lon="17.8594574">
        <ele>13.5958</ele>
        <time>2014-07-08T13:03:21Z</time>
      </trkpt>
      <trkpt lat="59.8550452" lon="17.8593679">
        <ele>13.1151</ele>
        <time>2014-07-08T13:03:22Z</time>
      </trkpt>
      <trkpt lat="59.855069" lon="17.8592622">
        <ele>12.6344</ele>
        <time>2014-07-08T13:03:23Z</time>
      </trkpt>
      <trkpt lat="59.8550883" lon="17.8591394">
        <ele>12.6344</ele>
        <time>2014-07-08T13:03:24Z</time>
      </trkpt>
      <trkpt lat="59.8551032" lon="17.8590046">
        <ele>12.6344</ele>
        <time>2014-07-08T13:03:25Z</time>
      </trkpt>
      <trkpt lat="59.855117" lon="17.8588617">
        <ele>13.1151</ele>
        <time>2014-07-08T13:03:26Z</time>
      </trkpt>
      <trkpt lat="59.8551297" lon="17.8587134">
        <ele>13.1151</ele>
        <time>2014-07-08T13:03:27Z</time>
      </trkpt>
      <trkpt lat="59.8551421" lon="17.8585619">
        <ele>13.1151</ele>
        <time>2014-07-08T13:03:28Z</time>
      </trkpt>
      <trkpt lat="59.8551541" lon="17.8584089">
        <ele>13.1151</ele>
        <time>2014-07-08T13:03:29Z</time>
      </trkpt>
      <trkpt lat="59.8551665" lon="17.8582563">
        <ele>13.1151</ele>
        <time>2014-07-08T13:03:30Z</time>
      </trkpt>
      <trkpt lat="59.8551803" lon="17.8581046">
        <ele>13.1151</ele>
        <time>2014-07-08T13:03:31Z</time>
      </trkpt>
      <trkpt lat="59.8551939" lon="17.8579523">
        <ele>13.1151</ele>
        <time>2014-07-08T13:03:32Z</time>
      </trkpt>
      <trkpt lat="59.8552067" lon="17.8577983">
        <ele>13.1151</ele>
        <time>2014-07-08T13:03:33Z</time>
      </trkpt>
      <trkpt lat="59.8552192" lon="17.8576443">
        <ele>13.1151</ele>
        <time>2014-07-08T13:03:34Z</time>
      </trkpt>
      <trkpt lat="59.8552322" lon="17.8574913">
        <ele>13.1151</ele>
        <time>2014-07-08T13:03:35Z</time>
      </trkpt>
      <trkpt lat="59.8552452" lon="17.8573394">
        <ele>13.1151</ele>
        <time>2014-07-08T13:03:36Z</time>
      </trkpt>
      <trkpt lat="59.8552579" lon="17.8571884">
        <ele>13.1151</ele>
        <time>2014-07-08T13:03:37Z</time>
      </trkpt>
      <trkpt lat="59.8552704" lon="17.857039">
        <ele>13.1151</ele>
        <time>2014-07-08T13:03:38Z</time>
      </trkpt>
      <trkpt lat="59.8552822" lon="17.8568913">
        <ele>13.1151</ele>
        <time>2014-07-08T13:03:39Z</time>
      </trkpt>
      <trkpt lat="59.8552933" lon="17.8567447">
        <ele>13.1151</ele>
        <time>2014-07-08T13:03:40Z</time>
      </trkpt>
      <trkpt lat="59.8553047" lon="17.856598">
        <ele>13.1151</ele>
        <time>2014-07-08T13:03:41Z</time>
      </trkpt>
      <trkpt lat="59.8553167" lon="17.856451">
        <ele>13.1151</ele>
        <time>2014-07-08T13:03:42Z</time>
      </trkpt>
      <trkpt lat="59.8553285" lon="17.8563028">
        <ele>13.1151</ele>
        <time>2014-07-08T13:03:43Z</time>
      </trkpt>
      <trkpt lat="59.8553398" lon="17.8561556">
        <ele>13.1151</ele>
        <time>2014-07-08T13:03:44Z</time>
      </trkpt>
      <trkpt lat="59.8553511" lon="17.8560084">
        <ele>13.1151</ele>
        <time>2014-07-08T13:03:45Z</time>
      </trkpt>
      <trkpt lat="59.8553625" lon="17.8558613">
        <ele>13.1151</ele>
        <time>2014-07-08T13:03:46Z</time>
      </trkpt>
      <trkpt lat="59.8553736" lon="17.8557158">
        <ele>13.5958</ele>
        <time>2014-07-08T13:03:47Z</time>
      </trkpt>
      <trkpt lat="59.8553849" lon="17.8555726">
        <ele>13.5958</ele>
        <time>2014-07-08T13:03:48Z</time>
      </trkpt>
      <trkpt lat="59.8553959" lon="17.8554335">
        <ele>13.5958</ele>
        <time>2014-07-08T13:03:49Z</time>
      </trkpt>
      <trkpt lat="59.8554066" lon="17.8552969">
        <ele>14.0764</ele>
        <time>2014-07-08T13:03:50Z</time>
      </trkpt>
      <trkpt lat="59.8554164" lon="17.8551611">
        <ele>14.0764</ele>
        <time>2014-07-08T13:03:51Z</time>
      </trkpt>
      <trkpt lat="59.8554257" lon="17.8550266">
        <ele>14.0764</ele>
        <time>2014-07-08T13:03:52Z</time>
      </trkpt>
      <trkpt lat="59.8554347" lon="17.8548927">
        <ele>14.0764</ele>
        <time>2014-07-08T13:03:53Z</time>
      </trkpt>
      <trkpt lat="59.855443" lon="17.85476">
        <ele>14.557</ele>
        <time>2014-07-08T13:03:54Z</time>
      </trkpt>
      <trkpt lat="59.8554513" lon="17.8546298">
        <ele>14.557</ele>
        <time>2014-07-08T13:03:55Z</time>
      </trkpt>
      <trkpt lat="59.8554584" lon="17.8545023">
        <ele>14.557</ele>
        <time>2014-07-08T13:03:56Z</time>
      </trkpt>
      <trkpt lat="59.8554646" lon="17.8543785">
        <ele>14.557</ele>
        <time>2014-07-08T13:03:57Z</time>
      </trkpt>
      <trkpt lat="59.8554705" lon="17.8542591">
        <ele>14.557</ele>
        <time>2014-07-08T13:03:58Z</time>
      </trkpt>
      <trkpt lat="59.8554758" lon="17.8541451">
        <ele>15.0377</ele>
        <time>2014-07-08T13:03:59Z</time>
      </trkpt>
      <trkpt lat="59.8554813" lon="17.8540372">
        <ele>15.0377</ele>
        <time>2014-07-08T13:04:00Z</time>
      </trkpt>
      <trkpt lat="59.855486" lon="17.853934">
        <ele>15.0377</ele>
        <time>2014-07-08T13:04:01Z</time>
      </trkpt>
      <trkpt lat="59.8554969" lon="17.8538334">
        <ele>15.0377</ele>
        <time>2014-07-08T13:04:02Z</time>
      </trkpt>
      <trkpt lat="59.855525" lon="17.853745">
        <ele>15.0377</ele>
        <time>2014-07-08T13:04:03Z</time>
      </trkpt>
      <trkpt lat="59.8555715" lon="17.8536859">
        <ele>15.0377</ele>
        <time>2014-07-08T13:04:04Z</time>
      </trkpt>
      <trkpt lat="59.8556275" lon="17.8536575">
        <ele>15.0377</ele>
        <time>2014-07-08T13:04:05Z</time>
      </trkpt>
      <trkpt lat="59.8556869" lon="17.8536511">
        <ele>15.0377</ele>
        <time>2014-07-08T13:04:06Z</time>
      </trkpt>
      <trkpt lat="59.8557474" lon="17.8536579">
        <ele>15.0377</ele>
        <time>2014-07-08T13:04:07Z</time>
      </trkpt>
      <trkpt lat="59.8558082" lon="17.8536708">
        <ele>15.0377</ele>
        <time>2014-07-08T13:04:08Z</time>
      </trkpt>
      <trkpt lat="59.8558704" lon="17.8536837">
        <ele>15.0377</ele>
        <time>2014-07-08T13:04:09Z</time>
      </trkpt>
      <trkpt lat="59.8559336" lon="17.8536944">
        <ele>15.0377</ele>
        <time>2014-07-08T13:04:10Z</time>
      </trkpt>
      <trkpt lat="59.8559978" lon="17.853704">
        <ele>15.0377</ele>
        <time>2014-07-08T13:04:11Z</time>
      </trkpt>
      <trkpt lat="59.8560631" lon="17.8537108">
        <ele>15.5184</ele>
        <time>2014-07-08T13:04:12Z</time>
      </trkpt>
      <trkpt lat="59.8561289" lon="17.8537133">
        <ele>15.5184</ele>
        <time>2014-07-08T13:04:13Z</time>
      </trkpt>
      <trkpt lat="59.8561951" lon="17.8537152">
        <ele>15.5184</ele>
        <time>2014-07-08T13:04:14Z</time>
      </trkpt>
      <trkpt lat="59.8562607" lon="17.8537184">
        <ele>15.5184</ele>
        <time>2014-07-08T13:04:15Z</time>
      </trkpt>
      <trkpt lat="59.8563245" lon="17.8537164">
        <ele>15.999</ele>
        <time>2014-07-08T13:04:16Z</time>
      </trkpt>
      <trkpt lat="59.8563836" lon="17.8536968">
        <ele>15.999</ele>
        <time>2014-07-08T13:04:17Z</time>
      </trkpt>
      <trkpt lat="59.856435" lon="17.8536491">
        <ele>15.999</ele>
        <time>2014-07-08T13:04:18Z</time>
      </trkpt>
      <trkpt lat="59.8564755" lon="17.8535717">
        <ele>15.999</ele>
        <time>2014-07-08T13:04:19Z</time>
      </trkpt>
      <trkpt lat="59.8565044" lon="17.8534754">
        <ele>16.4797</ele>
        <time>2014-07-08T13:04:20Z</time>
      </trkpt>
      <trkpt lat="59.856527" lon="17.8533699">
        <ele>16.4797</ele>
        <time>2014-07-08T13:04:21Z</time>
      </trkpt>
      <trkpt lat="59.8565447" lon="17.8532588">
        <ele>16.4797</ele>
        <time>2014-07-08T13:04:22Z</time>
      </trkpt>
      <trkpt lat="59.8565613" lon="17.8531443">
        <ele>15.999</ele>
        <time>2014-07-08T13:04:23Z</time>
      </trkpt>
      <trkpt lat="59.8565794" lon="17.8530275">
        <ele>15.999</ele>
        <time>2014-07-08T13:04:24Z</time>
      </trkpt>
      <trkpt lat="59.8565987" lon="17.8529064">
        <ele>15.999</ele>
        <time>2014-07-08T13:04:25Z</time>
      </trkpt>
      <trkpt lat="59.8566194" lon="17.8527814">
        <ele>15.999</ele>
        <time>2014-07-08T13:04:26Z</time>
      </trkpt>
      <trkpt lat="59.8566428" lon="17.8526541">
        <ele>15.999</ele>
        <time>2014-07-08T13:04:27Z</time>
      </trkpt>
      <trkpt lat="59.8566692" lon="17.8525254">
        <ele>15.5184</ele>
        <time>2014-07-08T13:04:28Z</time>
      </trkpt>
      <trkpt lat="59.8567014" lon="17.852398">
        <ele>15.5184</ele>
        <time>2014-07-08T13:04:29Z</time>
      </trkpt>
      <trkpt lat="59.8567418" lon="17.8522751">
        <ele>15.0377</ele>
        <time>2014-07-08T13:04:30Z</time>
      </trkpt>
      <trkpt lat="59.8567905" lon="17.8521589">
        <ele>15.0377</ele>
        <time>2014-07-08T13:04:31Z</time>
      </trkpt>
      <trkpt lat="59.8568473" lon="17.8520509">
        <ele>14.557</ele>
        <time>2014-07-08T13:04:32Z</time>
      </trkpt>
      <trkpt lat="59.8569115" lon="17.8519555">
        <ele>14.0764</ele>
        <time>2014-07-08T13:04:33Z</time>
      </trkpt>
      <trkpt lat="59.8569823" lon="17.8518753">
        <ele>13.5958</ele>
        <time>2014-07-08T13:04:34Z</time>
      </trkpt>
      <trkpt lat="59.8570561" lon="17.8518049">
        <ele>13.5958</ele>
        <time>2014-07-08T13:04:35Z</time>
      </trkpt>
      <trkpt lat="59.8571317" lon="17.8517407">
        <ele>13.1151</ele>
        <time>2014-07-08T13:04:36Z</time>
      </trkpt>
      <trkpt lat="59.8572074" lon="17.8516774">
        <ele>13.1151</ele>
        <time>2014-07-08T13:04:37Z</time>
      </trkpt>
      <trkpt lat="59.8572821" lon="17.8516116">
        <ele>12.6344</ele>
        <time>2014-07-08T13:04:38Z</time>
      </trkpt>
      <trkpt lat="59.8573565" lon="17.8515465">
        <ele>12.6344</ele>
        <time>2014-07-08T13:04:39Z</time>
      </trkpt>
      <trkpt lat="59.8574312" lon="17.8514827">
        <ele>12.6344</ele>
        <time>2014-07-08T13:04:40Z</time>
      </trkpt>
      <trkpt lat="59.857506" lon="17.851417">
        <ele>12.6344</ele>
        <time>2014-07-08T13:04:41Z</time>
      </trkpt>
      <trkpt lat="59.8575809" lon="17.8513508">
        <ele>12.6344</ele>
        <time>2014-07-08T13:04:42Z</time>
      </trkpt>
      <trkpt lat="59.8576565" lon="17.8512836">
        <ele>12.1538</ele>
        <time>2014-07-08T13:04:43Z</time>
      </trkpt>
      <trkpt lat="59.857733" lon="17.8512149">
        <ele>12.1538</ele>
        <time>2014-07-08T13:04:44Z</time>
      </trkpt>
      <trkpt lat="59.8578102" lon="17.8511456">
        <ele>12.1538</ele>
        <time>2014-07-08T13:04:45Z</time>
      </trkpt>
      <trkpt lat="59.857888" lon="17.8510769">
        <ele>12.1538</ele>
        <time>2014-07-08T13:04:46Z</time>
      </trkpt>
      <trkpt lat="59.8579656" lon="17.8510075">
        <ele>12.1538</ele>
        <time>2014-07-08T13:04:47Z</time>
      </trkpt>
      <trkpt lat="59.8580425" lon="17.8509379">
        <ele>12.6344</ele>
        <time>2014-07-08T13:04:48Z</time>
      </trkpt>
      <trkpt lat="59.8581197" lon="17.8508705">
        <ele>12.6344</ele>
        <time>2014-07-08T13:04:49Z</time>
      </trkpt>
      <trkpt lat="59.8581978" lon="17.8508077">
        <ele>12.6344</ele>
        <time>2014-07-08T13:04:50Z</time>
      </trkpt>
      <trkpt lat="59.858276" lon="17.8507497">
        <ele>12.6344</ele>
        <time>2014-07-08T13:04:51Z</time>
      </trkpt>
      <trkpt lat="59.858354" lon="17.8506979">
        <ele>12.6344</ele>
        <time>2014-07-08T13:04:52Z</time>
      </trkpt>
      <trkpt lat="59.8584317" lon="17.8506538">
        <ele>13.1151</ele>
        <time>2014-07-08T13:04:53Z</time>
      </trkpt>
      <trkpt lat="59.8585086" lon="17.8506177">
        <ele>13.1151</ele>
        <time>2014-07-08T13:04:54Z</time>
      </trkpt>
      <trkpt lat="59.8585849" lon="17.850589">
        <ele>13.1151</ele>
        <time>2014-07-08T13:04:55Z</time>
      </trkpt>
      <trkpt lat="59.8586614" lon="17.8505643">
        <ele>13.1151</ele>
        <time>2014-07-08T13:04:56Z</time>
      </trkpt>
      <trkpt lat="59.8587385" lon="17.8505409">
        <ele>13.1151</ele>
        <time>2014-07-08T13:04:57Z</time>
      </trkpt>
      <trkpt lat="59.8588167" lon="17.8505188">
        <ele>13.1151</ele>
        <time>2014-07-08T13:04:58Z</time>
      </trkpt>
      <trkpt lat="59.8588962" lon="17.850497">
        <ele>13.1151</ele>
        <time>2014-07-08T13:04:59Z</time>
      </trkpt>
      <trkpt lat="59.8589772" lon="17.8504745">
        <ele>13.1151</ele>
        <time>2014-07-08T13:05:00Z</time>
      </trkpt>
      <trkpt lat="59.8590588" lon="17.8504538">
        <ele>13.1151</ele>
        <time>2014-07-08T13:05:01Z</time>
      </trkpt>
      <trkpt lat="59.8591405" lon="17.8504279">
        <ele>13.1151</ele>
        <time>2014-07-08T13:05:02Z</time>
      </trkpt>
      <trkpt lat="59.8592246" lon="17.8504005">
        <ele>13.1151</ele>
        <time>2014-07-08T13:05:03Z</time>
      </trkpt>
      <trkpt lat="59.8593063" lon="17.850379">
        <ele>13.1151</ele>
        <time>2014-07-08T13:05:04Z</time>
      </trkpt>
      <trkpt lat="59.8593877" lon="17.8503617">
        <ele>12.6344</ele>
        <time>2014-07-08T13:05:05Z</time>
      </trkpt>
      <trkpt lat="59.8594695" lon="17.8503483">
        <ele>12.6344</ele>
        <time>2014-07-08T13:05:06Z</time>
      </trkpt>
      <trkpt lat="59.8595498" lon="17.8503352">
        <ele>12.6344</ele>
        <time>2014-07-08T13:05:07Z</time>
      </trkpt>
      <trkpt lat="59.8596291" lon="17.8503215">
        <ele>12.1538</ele>
        <time>2014-07-08T13:05:08Z</time>
      </trkpt>
      <trkpt lat="59.8597088" lon="17.8503099">
        <ele>12.1538</ele>
        <time>2014-07-08T13:05:09Z</time>
      </trkpt>
      <trkpt lat="59.8597892" lon="17.8503">
        <ele>12.1538</ele>
        <time>2014-07-08T13:05:10Z</time>
      </trkpt>
      <trkpt lat="59.8598702" lon="17.8502911">
        <ele>12.1538</ele>
        <time>2014-07-08T13:05:11Z</time>
      </trkpt>
      <trkpt lat="59.8599502" lon="17.850285">
        <ele>11.6732</ele>
        <time>2014-07-08T13:05:12Z</time>
      </trkpt>
      <trkpt lat="59.8600293" lon="17.8502818">
        <ele>11.6732</ele>
        <time>2014-07-08T13:05:13Z</time>
      </trkpt>
      <trkpt lat="59.8601087" lon="17.8502805">
        <ele>11.6732</ele>
        <time>2014-07-08T13:05:14Z</time>
      </trkpt>
      <trkpt lat="59.8601911" lon="17.8502805">
        <ele>11.6732</ele>
        <time>2014-07-08T13:05:15Z</time>
      </trkpt>
      <trkpt lat="59.8602769" lon="17.8502815">
        <ele>11.1925</ele>
        <time>2014-07-08T13:05:16Z</time>
      </trkpt>
      <trkpt lat="59.8603655" lon="17.8502861">
        <ele>11.1925</ele>
        <time>2014-07-08T13:05:17Z</time>
      </trkpt>
      <trkpt lat="59.8604566" lon="17.8502966">
        <ele>11.1925</ele>
        <time>2014-07-08T13:05:18Z</time>
      </trkpt>
      <trkpt lat="59.860549" lon="17.8503141">
        <ele>11.1925</ele>
        <time>2014-07-08T13:05:19Z</time>
      </trkpt>
      <trkpt lat="59.8606434" lon="17.8503338">
        <ele>11.1925</ele>
        <time>2014-07-08T13:05:20Z</time>
      </trkpt>
      <trkpt lat="59.8607389" lon="17.850351">
        <ele>11.6732</ele>
        <time>2014-07-08T13:05:21Z</time>
      </trkpt>
      <trkpt lat="59.8608301" lon="17.8503689">
        <ele>11.6732</ele>
        <time>2014-07-08T13:05:22Z</time>
      </trkpt>
      <trkpt lat="59.86092" lon="17.8503902">
        <ele>11.1925</ele>
        <time>2014-07-08T13:05:23Z</time>
      </trkpt>
      <trkpt lat="59.8610101" lon="17.8504125">
        <ele>11.1925</ele>
        <time>2014-07-08T13:05:24Z</time>
      </trkpt>
      <trkpt lat="59.8610998" lon="17.8504328">
        <ele>11.6732</ele>
        <time>2014-07-08T13:05:25Z</time>
      </trkpt>
      <trkpt lat="59.8611888" lon="17.8504513">
        <ele>11.6732</ele>
        <time>2014-07-08T13:05:26Z</time>
      </trkpt>
      <trkpt lat="59.8612763" lon="17.8504685">
        <ele>11.6732</ele>
        <time>2014-07-08T13:05:27Z</time>
      </trkpt>
      <trkpt lat="59.8613624" lon="17.8504859">
        <ele>11.6732</ele>
        <time>2014-07-08T13:05:28Z</time>
      </trkpt>
      <trkpt lat="59.8614463" lon="17.8505025">
        <ele>12.1538</ele>
        <time>2014-07-08T13:05:29Z</time>
      </trkpt>
      <trkpt lat="59.8615277" lon="17.8505165">
        <ele>12.6344</ele>
        <time>2014-07-08T13:05:30Z</time>
      </trkpt>
      <trkpt lat="59.8616076" lon="17.8505282">
        <ele>12.6344</ele>
        <time>2014-07-08T13:05:31Z</time>
      </trkpt>
      <trkpt lat="59.861685" lon="17.8505379">
        <ele>12.6344</ele>
        <time>2014-07-08T13:05:32Z</time>
      </trkpt>
      <trkpt lat="59.8617595" lon="17.8505447">
        <ele>13.1151</ele>
        <time>2014-07-08T13:05:33Z</time>
      </trkpt>
      <trkpt lat="59.8618309" lon="17.8505499">
        <ele>13.1151</ele>
        <time>2014-07-08T13:05:34Z</time>
      </trkpt>
      <trkpt lat="59.8618995" lon="17.8505522">
        <ele>13.1151</ele>
        <time>2014-07-08T13:05:35Z</time>
      </trkpt>
      <trkpt lat="59.8619658" lon="17.8505523">
        <ele>13.1151</ele>
        <time>2014-07-08T13:05:36Z</time>
      </trkpt>
      <trkpt lat="59.8620299" lon="17.8505522">
        <ele>13.5958</ele>
        <time>2014-07-08T13:05:37Z</time>
      </trkpt>
      <trkpt lat="59.8620918" lon="17.8505506">
        <ele>13.5958</ele>
        <time>2014-07-08T13:05:38Z</time>
      </trkpt>
      <trkpt lat="59.8621531" lon="17.8505457">
        <ele>13.5958</ele>
        <time>2014-07-08T13:05:39Z</time>
      </trkpt>
      <trkpt lat="59.8622122" lon="17.8505318">
        <ele>13.5958</ele>
        <time>2014-07-08T13:05:40Z</time>
      </trkpt>
      <trkpt lat="59.8622687" lon="17.8505036">
        <ele>13.5958</ele>
        <time>2014-07-08T13:05:41Z</time>
      </trkpt>
      <trkpt lat="59.8623221" lon="17.8504607">
        <ele>13.5958</ele>
        <time>2014-07-08T13:05:42Z</time>
      </trkpt>
      <trkpt lat="59.8623701" lon="17.8504002">
        <ele>13.5958</ele>
        <time>2014-07-08T13:05:43Z</time>
      </trkpt>
      <trkpt lat="59.8624142" lon="17.8503208">
        <ele>13.5958</ele>
        <time>2014-07-08T13:05:44Z</time>
      </trkpt>
      <trkpt lat="59.8624532" lon="17.8502275">
        <ele>13.1151</ele>
        <time>2014-07-08T13:05:45Z</time>
      </trkpt>
      <trkpt lat="59.8624869" lon="17.8501245">
        <ele>13.1151</ele>
        <time>2014-07-08T13:05:46Z</time>
      </trkpt>
      <trkpt lat="59.8625164" lon="17.8500153">
        <ele>13.1151</ele>
        <time>2014-07-08T13:05:47Z</time>
      </trkpt>
      <trkpt lat="59.8625444" lon="17.8499032">
        <ele>13.1151</ele>
        <time>2014-07-08T13:05:48Z</time>
      </trkpt>
      <trkpt lat="59.8625719" lon="17.8497894">
        <ele>13.1151</ele>
        <time>2014-07-08T13:05:49Z</time>
      </trkpt>
      <trkpt lat="59.8625987" lon="17.8496733">
        <ele>13.1151</ele>
        <time>2014-07-08T13:05:50Z</time>
      </trkpt>
      <trkpt lat="59.8626253" lon="17.8495547">
        <ele>13.1151</ele>
        <time>2014-07-08T13:05:51Z</time>
      </trkpt>
      <trkpt lat="59.8626528" lon="17.8494345">
        <ele>13.1151</ele>
        <time>2014-07-08T13:05:52Z</time>
      </trkpt>
      <trkpt lat="59.8626812" lon="17.8493138">
        <ele>13.1151</ele>
        <time>2014-07-08T13:05:53Z</time>
      </trkpt>
      <trkpt lat="59.8627101" lon="17.8491922">
        <ele>13.1151</ele>
        <time>2014-07-08T13:05:54Z</time>
      </trkpt>
      <trkpt lat="59.8627398" lon="17.8490704">
        <ele>13.1151</ele>
        <time>2014-07-08T13:05:55Z</time>
      </trkpt>
      <trkpt lat="59.8627703" lon="17.8489472">
        <ele>13.5958</ele>
        <time>2014-07-08T13:05:56Z</time>
      </trkpt>
      <trkpt lat="59.8628011" lon="17.8488222">
        <ele>13.5958</ele>
        <time>2014-07-08T13:05:57Z</time>
      </trkpt>
      <trkpt lat="59.8628335" lon="17.8486965">
        <ele>13.5958</ele>
        <time>2014-07-08T13:05:58Z</time>
      </trkpt>
      <trkpt lat="59.8628677" lon="17.8485706">
        <ele>13.5958</ele>
        <time>2014-07-08T13:05:59Z</time>
      </trkpt>
      <trkpt lat="59.8629019" lon="17.8484419">
        <ele>13.5958</ele>
        <time>2014-07-08T13:06:00Z</time>
      </trkpt>
      <trkpt lat="59.8629348" lon="17.8483095">
        <ele>13.5958</ele>
        <time>2014-07-08T13:06:01Z</time>
      </trkpt>
      <trkpt lat="59.8629676" lon="17.8481742">
        <ele>13.5958</ele>
        <time>2014-07-08T13:06:02Z</time>
      </trkpt>
      <trkpt lat="59.8630016" lon="17.8480369">
        <ele>13.5958</ele>
        <time>2014-07-08T13:06:03Z</time>
      </trkpt>
      <trkpt lat="59.8630365" lon="17.8478997">
        <ele>13.5958</ele>
        <time>2014-07-08T13:06:04Z</time>
      </trkpt>
      <trkpt lat="59.8630716" lon="17.8477634">
        <ele>13.5958</ele>
        <time>2014-07-08T13:06:05Z</time>
      </trkpt>
      <trkpt lat="59.8631065" lon="17.8476277">
        <ele>13.5958</ele>
        <time>2014-07-08T13:06:06Z</time>
      </trkpt>
      <trkpt lat="59.8631427" lon="17.8474944">
        <ele>14.0764</ele>
        <time>2014-07-08T13:06:07Z</time>
      </trkpt>
      <trkpt lat="59.8631786" lon="17.8473624">
        <ele>14.0764</ele>
        <time>2014-07-08T13:06:08Z</time>
      </trkpt>
      <trkpt lat="59.8632121" lon="17.8472295">
        <ele>14.0764</ele>
        <time>2014-07-08T13:06:09Z</time>
      </trkpt>
      <trkpt lat="59.8632437" lon="17.8470967">
        <ele>14.0764</ele>
        <time>2014-07-08T13:06:10Z</time>
      </trkpt>
      <trkpt lat="59.8632748" lon="17.8469647">
        <ele>14.557</ele>
        <time>2014-07-08T13:06:11Z</time>
      </trkpt>
      <trkpt lat="59.8633059" lon="17.8468337">
        <ele>14.557</ele>
        <time>2014-07-08T13:06:12Z</time>
      </trkpt>
      <trkpt lat="59.8633368" lon="17.8467036">
        <ele>14.557</ele>
        <time>2014-07-08T13:06:13Z</time>
      </trkpt>
      <trkpt lat="59.8633656" lon="17.8465728">
        <ele>15.0377</ele>
        <time>2014-07-08T13:06:14Z</time>
      </trkpt>
      <trkpt lat="59.8633906" lon="17.8464406">
        <ele>15.0377</ele>
        <time>2014-07-08T13:06:15Z</time>
      </trkpt>
      <trkpt lat="59.8634121" lon="17.8463073">
        <ele>15.0377</ele>
        <time>2014-07-08T13:06:16Z</time>
      </trkpt>
      <trkpt lat="59.8634328" lon="17.8461719">
        <ele>15.5184</ele>
        <time>2014-07-08T13:06:17Z</time>
      </trkpt>
      <trkpt lat="59.863453" lon="17.8460354">
        <ele>15.5184</ele>
        <time>2014-07-08T13:06:18Z</time>
      </trkpt>
      <trkpt lat="59.8634737" lon="17.8458986">
        <ele>15.5184</ele>
        <time>2014-07-08T13:06:19Z</time>
      </trkpt>
      <trkpt lat="59.8634964" lon="17.8457619">
        <ele>15.999</ele>
        <time>2014-07-08T13:06:20Z</time>
      </trkpt>
      <trkpt lat="59.8635196" lon="17.8456252">
        <ele>15.999</ele>
        <time>2014-07-08T13:06:21Z</time>
      </trkpt>
      <trkpt lat="59.8635421" lon="17.8454884">
        <ele>15.999</ele>
        <time>2014-07-08T13:06:22Z</time>
      </trkpt>
      <trkpt lat="59.8635664" lon="17.8453532">
        <ele>16.4797</ele>
        <time>2014-07-08T13:06:23Z</time>
      </trkpt>
      <trkpt lat="59.8635911" lon="17.8452217">
        <ele>16.4797</ele>
        <time>2014-07-08T13:06:24Z</time>
      </trkpt>
      <trkpt lat="59.8636132" lon="17.8450932">
        <ele>16.9604</ele>
        <time>2014-07-08T13:06:25Z</time>
      </trkpt>
      <trkpt lat="59.8636372" lon="17.8449673">
        <ele>17.4412</ele>
        <time>2014-07-08T13:06:26Z</time>
      </trkpt>
      <trkpt lat="59.8636634" lon="17.8448451">
        <ele>17.4412</ele>
        <time>2014-07-08T13:06:27Z</time>
      </trkpt>
      <trkpt lat="59.8636872" lon="17.8447284">
        <ele>17.9218</ele>
        <time>2014-07-08T13:06:28Z</time>
      </trkpt>
      <trkpt lat="59.8637105" lon="17.8446171">
        <ele>17.9218</ele>
        <time>2014-07-08T13:06:29Z</time>
      </trkpt>
      <trkpt lat="59.8637323" lon="17.8445096">
        <ele>18.4023</ele>
        <time>2014-07-08T13:06:30Z</time>
      </trkpt>
      <trkpt lat="59.863754" lon="17.8444047">
        <ele>18.4023</ele>
        <time>2014-07-08T13:06:31Z</time>
      </trkpt>
      <trkpt lat="59.8637761" lon="17.8443024">
        <ele>18.4023</ele>
        <time>2014-07-08T13:06:32Z</time>
      </trkpt>
      <trkpt lat="59.863797" lon="17.8441995">
        <ele>18.4023</ele>
        <time>2014-07-08T13:06:33Z</time>
      </trkpt>
      <trkpt lat="59.8638161" lon="17.8440954">
        <ele>18.8831</ele>
        <time>2014-07-08T13:06:34Z</time>
      </trkpt>
      <trkpt lat="59.8638327" lon="17.8439908">
        <ele>18.8831</ele>
        <time>2014-07-08T13:06:35Z</time>
      </trkpt>
      <trkpt lat="59.8638468" lon="17.8438861">
        <ele>19.3638</ele>
        <time>2014-07-08T13:06:36Z</time>
      </trkpt>
      <trkpt lat="59.8638602" lon="17.843781">
        <ele>19.3638</ele>
        <time>2014-07-08T13:06:37Z</time>
      </trkpt>
      <trkpt lat="59.8638741" lon="17.8436741">
        <ele>19.8444</ele>
        <time>2014-07-08T13:06:38Z</time>
      </trkpt>
      <trkpt lat="59.8638888" lon="17.8435648">
        <ele>19.8444</ele>
        <time>2014-07-08T13:06:39Z</time>
      </trkpt>
      <trkpt lat="59.863906" lon="17.8434525">
        <ele>19.8444</ele>
        <time>2014-07-08T13:06:40Z</time>
      </trkpt>
      <trkpt lat="59.8639244" lon="17.8433374">
        <ele>19.8444</ele>
        <time>2014-07-08T13:06:41Z</time>
      </trkpt>
      <trkpt lat="59.8639437" lon="17.843219">
        <ele>19.8444</ele>
        <time>2014-07-08T13:06:42Z</time>
      </trkpt>
      <trkpt lat="59.8639638" lon="17.8430983">
        <ele>19.8444</ele>
        <time>2014-07-08T13:06:43Z</time>
      </trkpt>
      <trkpt lat="59.8639856" lon="17.8429756">
        <ele>19.8444</ele>
        <time>2014-07-08T13:06:44Z</time>
      </trkpt>
      <trkpt lat="59.8640098" lon="17.8428518">
        <ele>19.8444</ele>
        <time>2014-07-08T13:06:45Z</time>
      </trkpt>
      <trkpt lat="59.8640363" lon="17.8427275">
        <ele>19.8444</ele>
        <time>2014-07-08T13:06:46Z</time>
      </trkpt>
      <trkpt lat="59.8640637" lon="17.8426033">
        <ele>19.8444</ele>
        <time>2014-07-08T13:06:47Z</time>
      </trkpt>
      <trkpt lat="59.8640917" lon="17.8424797">
        <ele>19.8444</ele>
        <time>2014-07-08T13:06:48Z</time>
      </trkpt>
      <trkpt lat="59.8641207" lon="17.842357">
        <ele>19.8444</ele>
        <time>2014-07-08T13:06:49Z</time>
      </trkpt>
      <trkpt lat="59.8641507" lon="17.8422355">
        <ele>19.8444</ele>
        <time>2014-07-08T13:06:50Z</time>
      </trkpt>
      <trkpt lat="59.8641823" lon="17.8421156">
        <ele>19.8444</ele>
        <time>2014-07-08T13:06:51Z</time>
      </trkpt>
      <trkpt lat="59.8642144" lon="17.8419975">
        <ele>19.8444</ele>
        <time>2014-07-08T13:06:52Z</time>
      </trkpt>
      <trkpt lat="59.8642466" lon="17.8418804">
        <ele>20.325</ele>
        <time>2014-07-08T13:06:53Z</time>
      </trkpt>
      <trkpt lat="59.8642786" lon="17.8417644">
        <ele>20.325</ele>
        <time>2014-07-08T13:06:54Z</time>
      </trkpt>
      <trkpt lat="59.8643106" lon="17.8416487">
        <ele>20.325</ele>
        <time>2014-07-08T13:06:55Z</time>
      </trkpt>
      <trkpt lat="59.8643432" lon="17.8415338">
        <ele>20.325</ele>
        <time>2014-07-08T13:06:56Z</time>
      </trkpt>
      <trkpt lat="59.8643764" lon="17.8414203">
        <ele>20.8057</ele>
        <time>2014-07-08T13:06:57Z</time>
      </trkpt>
      <trkpt lat="59.8644099" lon="17.841308">
        <ele>20.8057</ele>
        <time>2014-07-08T13:06:58Z</time>
      </trkpt>
      <trkpt lat="59.8644454" lon="17.8411978">
        <ele>20.8057</ele>
        <time>2014-07-08T13:06:59Z</time>
      </trkpt>
      <trkpt lat="59.8644834" lon="17.8410895">
        <ele>20.8057</ele>
        <time>2014-07-08T13:07:00Z</time>
      </trkpt>
      <trkpt lat="59.8645235" lon="17.8409812">
        <ele>20.8057</ele>
        <time>2014-07-08T13:07:01Z</time>
      </trkpt>
      <trkpt lat="59.8645645" lon="17.840874">
        <ele>20.8057</ele>
        <time>2014-07-08T13:07:02Z</time>
      </trkpt>
      <trkpt lat="59.8646045" lon="17.8407658">
        <ele>20.325</ele>
        <time>2014-07-08T13:07:03Z</time>
      </trkpt>
      <trkpt lat="59.864646" lon="17.840658">
        <ele>20.325</ele>
        <time>2014-07-08T13:07:04Z</time>
      </trkpt>
      <trkpt lat="59.8646908" lon="17.8405556">
        <ele>20.325</ele>
        <time>2014-07-08T13:07:05Z</time>
      </trkpt>
      <trkpt lat="59.8647391" lon="17.8404574">
        <ele>20.325</ele>
        <time>2014-07-08T13:07:06Z</time>
      </trkpt>
      <trkpt lat="59.8647909" lon="17.8403638">
        <ele>19.8444</ele>
        <time>2014-07-08T13:07:07Z</time>
      </trkpt>
      <trkpt lat="59.864846" lon="17.8402752">
        <ele>19.8444</ele>
        <time>2014-07-08T13:07:08Z</time>
      </trkpt>
      <trkpt lat="59.8649038" lon="17.8401897">
        <ele>19.8444</ele>
        <time>2014-07-08T13:07:09Z</time>
      </trkpt>
      <trkpt lat="59.8649634" lon="17.8401086">
        <ele>19.8444</ele>
        <time>2014-07-08T13:07:10Z</time>
      </trkpt>
      <trkpt lat="59.8650256" lon="17.8400341">
        <ele>19.8444</ele>
        <time>2014-07-08T13:07:11Z</time>
      </trkpt>
      <trkpt lat="59.86509" lon="17.8399687">
        <ele>19.8444</ele>
        <time>2014-07-08T13:07:12Z</time>
      </trkpt>
      <trkpt lat="59.8651567" lon="17.8399134">
        <ele>19.8444</ele>
        <time>2014-07-08T13:07:13Z</time>
      </trkpt>
      <trkpt lat="59.8652261" lon="17.8398705">
        <ele>19.8444</ele>
        <time>2014-07-08T13:07:14Z</time>
      </trkpt>
      <trkpt lat="59.8652987" lon="17.8398447">
        <ele>19.8444</ele>
        <time>2014-07-08T13:07:15Z</time>
      </trkpt>
      <trkpt lat="59.8653734" lon="17.8398363">
        <ele>19.8444</ele>
        <time>2014-07-08T13:07:16Z</time>
      </trkpt>
      <trkpt lat="59.8654504" lon="17.8398427">
        <ele>19.3638</ele>
        <time>2014-07-08T13:07:17Z</time>
      </trkpt>
      <trkpt lat="59.8655291" lon="17.8398591">
        <ele>19.3638</ele>
        <time>2014-07-08T13:07:18Z</time>
      </trkpt>
      <trkpt lat="59.8656088" lon="17.8398792">
        <ele>19.3638</ele>
        <time>2014-07-08T13:07:19Z</time>
      </trkpt>
      <trkpt lat="59.8656892" lon="17.8398976">
        <ele>19.3638</ele>
        <time>2014-07-08T13:07:20Z</time>
      </trkpt>
      <trkpt lat="59.8657676" lon="17.8399107">
        <ele>18.8831</ele>
        <time>2014-07-08T13:07:21Z</time>
      </trkpt>
      <trkpt lat="59.8658444" lon="17.8399183">
        <ele>18.8831</ele>
        <time>2014-07-08T13:07:22Z</time>
      </trkpt>
      <trkpt lat="59.8659194" lon="17.8399261">
        <ele>18.8831</ele>
        <time>2014-07-08T13:07:23Z</time>
      </trkpt>
      <trkpt lat="59.8659931" lon="17.8399312">
        <ele>18.8831</ele>
        <time>2014-07-08T13:07:24Z</time>
      </trkpt>
      <trkpt lat="59.8660646" lon="17.8399278">
        <ele>18.8831</ele>
        <time>2014-07-08T13:07:25Z</time>
      </trkpt>
      <trkpt lat="59.8661343" lon="17.8399166">
        <ele>18.8831</ele>
        <time>2014-07-08T13:07:26Z</time>
      </trkpt>
      <trkpt lat="59.8662031" lon="17.8399019">
        <ele>18.8831</ele>
        <time>2014-07-08T13:07:27Z</time>
      </trkpt>
      <trkpt lat="59.8662705" lon="17.839884">
        <ele>18.8831</ele>
        <time>2014-07-08T13:07:28Z</time>
      </trkpt>
      <trkpt lat="59.8663355" lon="17.8398602">
        <ele>19.3638</ele>
        <time>2014-07-08T13:07:29Z</time>
      </trkpt>
      <trkpt lat="59.8663975" lon="17.8398287">
        <ele>19.3638</ele>
        <time>2014-07-08T13:07:30Z</time>
      </trkpt>
      <trkpt lat="59.8664554" lon="17.8397862">
        <ele>19.3638</ele>
        <time>2014-07-08T13:07:31Z</time>
      </trkpt>
      <trkpt lat="59.8665096" lon="17.839733">
        <ele>19.8444</ele>
        <time>2014-07-08T13:07:32Z</time>
      </trkpt>
      <trkpt lat="59.8665605" lon="17.8396733">
        <ele>19.8444</ele>
        <time>2014-07-08T13:07:33Z</time>
      </trkpt>
      <trkpt lat="59.8666072" lon="17.8396094">
        <ele>19.8444</ele>
        <time>2014-07-08T13:07:34Z</time>
      </trkpt>
      <trkpt lat="59.8666501" lon="17.8395407">
        <ele>19.8444</ele>
        <time>2014-07-08T13:07:35Z</time>
      </trkpt>
      <trkpt lat="59.8666905" lon="17.8394674">
        <ele>20.325</ele>
        <time>2014-07-08T13:07:36Z</time>
      </trkpt>
      <trkpt lat="59.8667285" lon="17.8393906">
        <ele>20.325</ele>
        <time>2014-07-08T13:07:37Z</time>
      </trkpt>
      <trkpt lat="59.866766" lon="17.839312">
        <ele>20.325</ele>
        <time>2014-07-08T13:07:38Z</time>
      </trkpt>
      <trkpt lat="59.8668019" lon="17.8392306">
        <ele>20.325</ele>
        <time>2014-07-08T13:07:39Z</time>
      </trkpt>
      <trkpt lat="59.8668356" lon="17.8391449">
        <ele>20.8057</ele>
        <time>2014-07-08T13:07:40Z</time>
      </trkpt>
      <trkpt lat="59.8668671" lon="17.8390552">
        <ele>20.8057</ele>
        <time>2014-07-08T13:07:41Z</time>
      </trkpt>
      <trkpt lat="59.8668957" lon="17.838962">
        <ele>20.8057</ele>
        <time>2014-07-08T13:07:42Z</time>
      </trkpt>
      <trkpt lat="59.8669221" lon="17.8388662">
        <ele>20.8057</ele>
        <time>2014-07-08T13:07:43Z</time>
      </trkpt>
      <trkpt lat="59.866947" lon="17.8387683">
        <ele>20.8057</ele>
        <time>2014-07-08T13:07:44Z</time>
      </trkpt>
      <trkpt lat="59.8669717" lon="17.8386687">
        <ele>20.8057</ele>
        <time>2014-07-08T13:07:45Z</time>
      </trkpt>
      <trkpt lat="59.8669963" lon="17.8385662">
        <ele>20.8057</ele>
        <time>2014-07-08T13:07:46Z</time>
      </trkpt>
      <trkpt lat="59.8670185" lon="17.8384606">
        <ele>20.8057</ele>
        <time>2014-07-08T13:07:47Z</time>
      </trkpt>
      <trkpt lat="59.8670406" lon="17.8383517">
        <ele>20.8057</ele>
        <time>2014-07-08T13:07:48Z</time>
      </trkpt>
      <trkpt lat="59.8670654" lon="17.838243">
        <ele>20.8057</ele>
        <time>2014-07-08T13:07:49Z</time>
      </trkpt>
      <trkpt lat="59.867094" lon="17.8381381">
        <ele>21.2864</ele>
        <time>2014-07-08T13:07:50Z</time>
      </trkpt>
      <trkpt lat="59.8671255" lon="17.8380379">
        <ele>21.2864</ele>
        <time>2014-07-08T13:07:51Z</time>
      </trkpt>
      <trkpt lat="59.8671588" lon="17.8379431">
        <ele>21.2864</ele>
        <time>2014-07-08T13:07:52Z</time>
      </trkpt>
      <trkpt lat="59.8671915" lon="17.8378529">
        <ele>21.2864</ele>
        <time>2014-07-08T13:07:53Z</time>
      </trkpt>
      <trkpt lat="59.8672307" lon="17.8377721">
        <ele>21.2864</ele>
        <time>2014-07-08T13:07:54Z</time>
      </trkpt>
      <trkpt lat="59.8672786" lon="17.8377059">
        <ele>21.767</ele>
        <time>2014-07-08T13:07:55Z</time>
      </trkpt>
      <trkpt lat="59.8673244" lon="17.8376551">
        <ele>21.767</ele>
        <time>2014-07-08T13:07:56Z</time>
      </trkpt>
      <trkpt lat="59.8673702" lon="17.8376156">
        <ele>21.767</ele>
        <time>2014-07-08T13:07:57Z</time>
      </trkpt>
      <trkpt lat="59.8674182" lon="17.837582">
        <ele>22.2476</ele>
        <time>2014-07-08T13:07:58Z</time>
      </trkpt>
      <trkpt lat="59.8674679" lon="17.8375539">
        <ele>22.2476</ele>
        <time>2014-07-08T13:07:59Z</time>
      </trkpt>
      <trkpt lat="59.8675182" lon="17.8375307">
        <ele>22.2476</ele>
        <time>2014-07-08T13:08:00Z</time>
      </trkpt>
      <trkpt lat="59.8675676" lon="17.837513">
        <ele>22.2476</ele>
        <time>2014-07-08T13:08:01Z</time>
      </trkpt>
      <trkpt lat="59.8676182" lon="17.8374968">
        <ele>22.2476</ele>
        <time>2014-07-08T13:08:02Z</time>
      </trkpt>
      <trkpt lat="59.8676697" lon="17.8374778">
        <ele>21.767</ele>
        <time>2014-07-08T13:08:03Z</time>
      </trkpt>
      <trkpt lat="59.86772" lon="17.8374515">
        <ele>21.767</ele>
        <time>2014-07-08T13:08:04Z</time>
      </trkpt>
      <trkpt lat="59.8677728" lon="17.8374197">
        <ele>21.767</ele>
        <time>2014-07-08T13:08:05Z</time>
      </trkpt>
      <trkpt lat="59.8678296" lon="17.8373854">
        <ele>21.767</ele>
        <time>2014-07-08T13:08:06Z</time>
      </trkpt>
      <trkpt lat="59.8678856" lon="17.8373462">
        <ele>21.767</ele>
        <time>2014-07-08T13:08:07Z</time>
      </trkpt>
      <trkpt lat="59.8679408" lon="17.8373026">
        <ele>21.767</ele>
        <time>2014-07-08T13:08:08Z</time>
      </trkpt>
      <trkpt lat="59.8679934" lon="17.8372545">
        <ele>21.767</ele>
        <time>2014-07-08T13:08:09Z</time>
      </trkpt>
      <trkpt lat="59.8680441" lon="17.8372017">
        <ele>22.2476</ele>
        <time>2014-07-08T13:08:10Z</time>
      </trkpt>
      <trkpt lat="59.8680906" lon="17.8371392">
        <ele>22.2476</ele>
        <time>2014-07-08T13:08:11Z</time>
      </trkpt>
      <trkpt lat="59.8681325" lon="17.8370717">
        <ele>22.2476</ele>
        <time>2014-07-08T13:08:12Z</time>
      </trkpt>
      <trkpt lat="59.8681705" lon="17.837">
        <ele>22.2476</ele>
        <time>2014-07-08T13:08:13Z</time>
      </trkpt>
      <trkpt lat="59.8682046" lon="17.8369215">
        <ele>22.2476</ele>
        <time>2014-07-08T13:08:14Z</time>
      </trkpt>
      <trkpt lat="59.8682366" lon="17.8368402">
        <ele>22.2476</ele>
        <time>2014-07-08T13:08:15Z</time>
      </trkpt>
      <trkpt lat="59.8682661" lon="17.836756">
        <ele>22.2476</ele>
        <time>2014-07-08T13:08:16Z</time>
      </trkpt>
      <trkpt lat="59.8682954" lon="17.8366702">
        <ele>22.2476</ele>
        <time>2014-07-08T13:08:17Z</time>
      </trkpt>
      <trkpt lat="59.868324" lon="17.8365823">
        <ele>22.2476</ele>
        <time>2014-07-08T13:08:18Z</time>
      </trkpt>
      <trkpt lat="59.8683543" lon="17.8364958">
        <ele>21.767</ele>
        <time>2014-07-08T13:08:19Z</time>
      </trkpt>
      <trkpt lat="59.8683896" lon="17.8363772">
        <ele>21.767</ele>
        <time>2014-07-08T13:08:20Z</time>
      </trkpt>
      <trkpt lat="59.8684307" lon="17.8362667">
        <ele>21.2864</ele>
        <time>2014-07-08T13:08:21Z</time>
      </trkpt>
      <trkpt lat="59.8684625" lon="17.8361336">
        <ele>20.8057</ele>
        <time>2014-07-08T13:08:22Z</time>
      </trkpt>
      <trkpt lat="59.8685087" lon="17.8360203">
        <ele>20.325</ele>
        <time>2014-07-08T13:08:23Z</time>
      </trkpt>
      <trkpt lat="59.8685621" lon="17.8359053">
        <ele>19.8444</ele>
        <time>2014-07-08T13:08:24Z</time>
      </trkpt>
      <trkpt lat="59.8686222" lon="17.8357787">
        <ele>18.8831</ele>
        <time>2014-07-08T13:08:25Z</time>
      </trkpt>
      <trkpt lat="59.8686834" lon="17.8356467">
        <ele>18.8831</ele>
        <time>2014-07-08T13:08:26Z</time>
      </trkpt>
      <trkpt lat="59.8687465" lon="17.835497">
        <ele>18.4023</ele>
        <time>2014-07-08T13:08:27Z</time>
      </trkpt>
      <trkpt lat="59.8688071" lon="17.8353518">
        <ele>17.9218</ele>
        <time>2014-07-08T13:08:28Z</time>
      </trkpt>
      <trkpt lat="59.8688714" lon="17.8352136">
        <ele>17.9218</ele>
        <time>2014-07-08T13:08:29Z</time>
      </trkpt>
      <trkpt lat="59.8689344" lon="17.8350712">
        <ele>17.4412</ele>
        <time>2014-07-08T13:08:30Z</time>
      </trkpt>
      <trkpt lat="59.8689955" lon="17.8349267">
        <ele>17.4412</ele>
        <time>2014-07-08T13:08:31Z</time>
      </trkpt>
      <trkpt lat="59.8690556" lon="17.834783">
        <ele>17.4412</ele>
        <time>2014-07-08T13:08:32Z</time>
      </trkpt>
      <trkpt lat="59.8691131" lon="17.834639">
        <ele>17.4412</ele>
        <time>2014-07-08T13:08:33Z</time>
      </trkpt>
      <trkpt lat="59.8691693" lon="17.8344973">
        <ele>16.9604</ele>
        <time>2014-07-08T13:08:34Z</time>
      </trkpt>
      <trkpt lat="59.8692262" lon="17.8343583">
        <ele>16.9604</ele>
        <time>2014-07-08T13:08:35Z</time>
      </trkpt>
      <trkpt lat="59.8692842" lon="17.8342216">
        <ele>16.9604</ele>
        <time>2014-07-08T13:08:36Z</time>
      </trkpt>
      <trkpt lat="59.8693447" lon="17.8340889">
        <ele>16.9604</ele>
        <time>2014-07-08T13:08:37Z</time>
      </trkpt>
      <trkpt lat="59.8694068" lon="17.8339581">
        <ele>17.4412</ele>
        <time>2014-07-08T13:08:38Z</time>
      </trkpt>
      <trkpt lat="59.86947" lon="17.8338279">
        <ele>17.4412</ele>
        <time>2014-07-08T13:08:39Z</time>
      </trkpt>
      <trkpt lat="59.869533" lon="17.8336982">
        <ele>17.4412</ele>
        <time>2014-07-08T13:08:40Z</time>
      </trkpt>
      <trkpt lat="59.8695951" lon="17.833568">
        <ele>17.4412</ele>
        <time>2014-07-08T13:08:41Z</time>
      </trkpt>
      <trkpt lat="59.869656" lon="17.8334384">
        <ele>17.4412</ele>
        <time>2014-07-08T13:08:42Z</time>
      </trkpt>
      <trkpt lat="59.8697148" lon="17.8333119">
        <ele>17.9218</ele>
        <time>2014-07-08T13:08:43Z</time>
      </trkpt>
      <trkpt lat="59.8697732" lon="17.8331882">
        <ele>17.9218</ele>
        <time>2014-07-08T13:08:44Z</time>
      </trkpt>
      <trkpt lat="59.8698313" lon="17.8330652">
        <ele>17.9218</ele>
        <time>2014-07-08T13:08:45Z</time>
      </trkpt>
      <trkpt lat="59.8698878" lon="17.8329397">
        <ele>17.9218</ele>
        <time>2014-07-08T13:08:46Z</time>
      </trkpt>
      <trkpt lat="59.869944" lon="17.8328132">
        <ele>17.9218</ele>
        <time>2014-07-08T13:08:47Z</time>
      </trkpt>
      <trkpt lat="59.8700011" lon="17.8326889">
        <ele>17.9218</ele>
        <time>2014-07-08T13:08:48Z</time>
      </trkpt>
      <trkpt lat="59.8700574" lon="17.8325655">
        <ele>18.4023</ele>
        <time>2014-07-08T13:08:49Z</time>
      </trkpt>
      <trkpt lat="59.870112" lon="17.8324423">
        <ele>18.4023</ele>
        <time>2014-07-08T13:08:50Z</time>
      </trkpt>
      <trkpt lat="59.8701673" lon="17.8323195">
        <ele>18.4023</ele>
        <time>2014-07-08T13:08:51Z</time>
      </trkpt>
      <trkpt lat="59.8702258" lon="17.8321945">
        <ele>18.8831</ele>
        <time>2014-07-08T13:08:52Z</time>
      </trkpt>
      <trkpt lat="59.8702881" lon="17.8320755">
        <ele>18.8831</ele>
        <time>2014-07-08T13:08:53Z</time>
      </trkpt>
      <trkpt lat="59.870356" lon="17.8319651">
        <ele>18.8831</ele>
        <time>2014-07-08T13:08:54Z</time>
      </trkpt>
      <trkpt lat="59.8704295" lon="17.831856">
        <ele>18.8831</ele>
        <time>2014-07-08T13:08:55Z</time>
      </trkpt>
      <trkpt lat="59.8705076" lon="17.8317486">
        <ele>18.8831</ele>
        <time>2014-07-08T13:08:56Z</time>
      </trkpt>
      <trkpt lat="59.8705875" lon="17.8316481">
        <ele>18.8831</ele>
        <time>2014-07-08T13:08:57Z</time>
      </trkpt>
      <trkpt lat="59.8706666" lon="17.8315559">
        <ele>19.3638</ele>
        <time>2014-07-08T13:08:58Z</time>
      </trkpt>
      <trkpt lat="59.8707446" lon="17.8314711">
        <ele>19.3638</ele>
        <time>2014-07-08T13:08:59Z</time>
      </trkpt>
      <trkpt lat="59.8708216" lon="17.8313928">
        <ele>19.3638</ele>
        <time>2014-07-08T13:09:00Z</time>
      </trkpt>
      <trkpt lat="59.8708973" lon="17.8313209">
        <ele>19.8444</ele>
        <time>2014-07-08T13:09:01Z</time>
      </trkpt>
      <trkpt lat="59.8709713" lon="17.8312528">
        <ele>19.8444</ele>
        <time>2014-07-08T13:09:02Z</time>
      </trkpt>
      <trkpt lat="59.8710424" lon="17.8311856">
        <ele>19.8444</ele>
        <time>2014-07-08T13:09:03Z</time>
      </trkpt>
      <trkpt lat="59.8711107" lon="17.8311209">
        <ele>20.325</ele>
        <time>2014-07-08T13:09:04Z</time>
      </trkpt>
      <trkpt lat="59.8711769" lon="17.8310606">
        <ele>20.325</ele>
        <time>2014-07-08T13:09:05Z</time>
      </trkpt>
      <trkpt lat="59.8712403" lon="17.8310043">
        <ele>20.8057</ele>
        <time>2014-07-08T13:09:06Z</time>
      </trkpt>
      <trkpt lat="59.8713024" lon="17.8309572">
        <ele>20.8057</ele>
        <time>2014-07-08T13:09:07Z</time>
      </trkpt>
      <trkpt lat="59.8713623" lon="17.830917">
        <ele>21.2864</ele>
        <time>2014-07-08T13:09:08Z</time>
      </trkpt>
      <trkpt lat="59.8714196" lon="17.8308784">
        <ele>21.2864</ele>
        <time>2014-07-08T13:09:09Z</time>
      </trkpt>
      <trkpt lat="59.8714739" lon="17.8308402">
        <ele>21.767</ele>
        <time>2014-07-08T13:09:10Z</time>
      </trkpt>
      <trkpt lat="59.8715242" lon="17.8308028">
        <ele>21.767</ele>
        <time>2014-07-08T13:09:11Z</time>
      </trkpt>
      <trkpt lat="59.8715727" lon="17.8307695">
        <ele>21.767</ele>
        <time>2014-07-08T13:09:12Z</time>
      </trkpt>
      <trkpt lat="59.8716193" lon="17.8307375">
        <ele>22.2476</ele>
        <time>2014-07-08T13:09:13Z</time>
      </trkpt>
      <trkpt lat="59.8716638" lon="17.8307059">
        <ele>22.2476</ele>
        <time>2014-07-08T13:09:14Z</time>
      </trkpt>
      <trkpt lat="59.871708" lon="17.8306748">
        <ele>22.2476</ele>
        <time>2014-07-08T13:09:15Z</time>
      </trkpt>
      <trkpt lat="59.8717518" lon="17.8306427">
        <ele>22.7283</ele>
        <time>2014-07-08T13:09:16Z</time>
      </trkpt>
      <trkpt lat="59.8717955" lon="17.8306057">
        <ele>22.7283</ele>
        <time>2014-07-08T13:09:17Z</time>
      </trkpt>
      <trkpt lat="59.8718384" lon="17.830564">
        <ele>22.7283</ele>
        <time>2014-07-08T13:09:18Z</time>
      </trkpt>
      <trkpt lat="59.8718805" lon="17.8305188">
        <ele>22.7283</ele>
        <time>2014-07-08T13:09:19Z</time>
      </trkpt>
      <trkpt lat="59.8719226" lon="17.8304712">
        <ele>22.7283</ele>
        <time>2014-07-08T13:09:20Z</time>
      </trkpt>
      <trkpt lat="59.8719632" lon="17.8304184">
        <ele>23.209</ele>
        <time>2014-07-08T13:09:21Z</time>
      </trkpt>
      <trkpt lat="59.8719992" lon="17.8303551">
        <ele>23.209</ele>
        <time>2014-07-08T13:09:22Z</time>
      </trkpt>
      <trkpt lat="59.8720345" lon="17.8302906">
        <ele>23.209</ele>
        <time>2014-07-08T13:09:23Z</time>
      </trkpt>
      <trkpt lat="59.8720742" lon="17.8302411">
        <ele>23.209</ele>
        <time>2014-07-08T13:09:24Z</time>
      </trkpt>
      <trkpt lat="59.8721179" lon="17.8302134">
        <ele>23.209</ele>
        <time>2014-07-08T13:09:25Z</time>
      </trkpt>
      <trkpt lat="59.8721636" lon="17.8302075">
        <ele>23.6896</ele>
        <time>2014-07-08T13:09:26Z</time>
      </trkpt>
      <trkpt lat="59.8722063" lon="17.8302226">
        <ele>23.6896</ele>
        <time>2014-07-08T13:09:27Z</time>
      </trkpt>
      <trkpt lat="59.8722463" lon="17.8302572">
        <ele>23.6896</ele>
        <time>2014-07-08T13:09:28Z</time>
      </trkpt>
      <trkpt lat="59.8722873" lon="17.8303013">
        <ele>23.6896</ele>
        <time>2014-07-08T13:09:29Z</time>
      </trkpt>
      <trkpt lat="59.8723302" lon="17.8303451">
        <ele>24.1703</ele>
        <time>2014-07-08T13:09:30Z</time>
      </trkpt>
      <trkpt lat="59.872375" lon="17.8303871">
        <ele>24.1703</ele>
        <time>2014-07-08T13:09:31Z</time>
      </trkpt>
      <trkpt lat="59.8724209" lon="17.8304281">
        <ele>24.651</ele>
        <time>2014-07-08T13:09:32Z</time>
      </trkpt>
      <trkpt lat="59.8724672" lon="17.8304661">
        <ele>25.1317</ele>
        <time>2014-07-08T13:09:33Z</time>
      </trkpt>
      <trkpt lat="59.8725129" lon="17.8305008">
        <ele>25.1317</ele>
        <time>2014-07-08T13:09:34Z</time>
      </trkpt>
      <trkpt lat="59.872559" lon="17.8305329">
        <ele>25.6123</ele>
        <time>2014-07-08T13:09:35Z</time>
      </trkpt>
      <trkpt lat="59.8726051" lon="17.830563">
        <ele>26.0929</ele>
        <time>2014-07-08T13:09:36Z</time>
      </trkpt>
      <trkpt lat="59.8726514" lon="17.8305915">
        <ele>26.0929</ele>
        <time>2014-07-08T13:09:37Z</time>
      </trkpt>
      <trkpt lat="59.8726982" lon="17.8306181">
        <ele>26.5736</ele>
        <time>2014-07-08T13:09:38Z</time>
      </trkpt>
      <trkpt lat="59.8727455" lon="17.8306404">
        <ele>26.5736</ele>
        <time>2014-07-08T13:09:39Z</time>
      </trkpt>
      <trkpt lat="59.8727948" lon="17.8306603">
        <ele>27.0543</ele>
        <time>2014-07-08T13:09:40Z</time>
      </trkpt>
      <trkpt lat="59.8728446" lon="17.8306811">
        <ele>27.0543</ele>
        <time>2014-07-08T13:09:41Z</time>
      </trkpt>
      <trkpt lat="59.8728931" lon="17.8307023">
        <ele>27.0543</ele>
        <time>2014-07-08T13:09:42Z</time>
      </trkpt>
      <trkpt lat="59.8729384" lon="17.8307255">
        <ele>27.5349</ele>
        <time>2014-07-08T13:09:43Z</time>
      </trkpt>
      <trkpt lat="59.8729827" lon="17.8307479">
        <ele>27.5349</ele>
        <time>2014-07-08T13:09:44Z</time>
      </trkpt>
      <trkpt lat="59.8730253" lon="17.8307712">
        <ele>27.5349</ele>
        <time>2014-07-08T13:09:45Z</time>
      </trkpt>
      <trkpt lat="59.8730663" lon="17.8307987">
        <ele>28.0155</ele>
        <time>2014-07-08T13:09:46Z</time>
      </trkpt>
      <trkpt lat="59.8731067" lon="17.8308282">
        <ele>28.0155</ele>
        <time>2014-07-08T13:09:47Z</time>
      </trkpt>
      <trkpt lat="59.8731468" lon="17.8308585">
        <ele>28.0155</ele>
        <time>2014-07-08T13:09:48Z</time>
      </trkpt>
      <trkpt lat="59.873187" lon="17.8308883">
        <ele>28.4962</ele>
        <time>2014-07-08T13:09:49Z</time>
      </trkpt>
      <trkpt lat="59.8732269" lon="17.8309192">
        <ele>28.4962</ele>
        <time>2014-07-08T13:09:50Z</time>
      </trkpt>
      <trkpt lat="59.8732677" lon="17.8309508">
        <ele>28.4962</ele>
        <time>2014-07-08T13:09:51Z</time>
      </trkpt>
      <trkpt lat="59.8733087" lon="17.8309828">
        <ele>28.4962</ele>
        <time>2014-07-08T13:09:52Z</time>
      </trkpt>
      <trkpt lat="59.8733494" lon="17.831017">
        <ele>28.9769</ele>
        <time>2014-07-08T13:09:53Z</time>
      </trkpt>
      <trkpt lat="59.87339" lon="17.8310518">
        <ele>28.9769</ele>
        <time>2014-07-08T13:09:54Z</time>
      </trkpt>
      <trkpt lat="59.8734315" lon="17.8310861">
        <ele>29.4575</ele>
        <time>2014-07-08T13:09:55Z</time>
      </trkpt>
      <trkpt lat="59.8734734" lon="17.8311217">
        <ele>29.4575</ele>
        <time>2014-07-08T13:09:56Z</time>
      </trkpt>
      <trkpt lat="59.8735134" lon="17.831161">
        <ele>29.4575</ele>
        <time>2014-07-08T13:09:57Z</time>
      </trkpt>
      <trkpt lat="59.873552" lon="17.8312014">
        <ele>29.9381</ele>
        <time>2014-07-08T13:09:58Z</time>
      </trkpt>
      <trkpt lat="59.8735889" lon="17.8312415">
        <ele>29.9381</ele>
        <time>2014-07-08T13:09:59Z</time>
      </trkpt>
      <trkpt lat="59.8736245" lon="17.8312819">
        <ele>30.4188</ele>
        <time>2014-07-08T13:10:00Z</time>
      </trkpt>
      <trkpt lat="59.8736587" lon="17.8313226">
        <ele>30.4188</ele>
        <time>2014-07-08T13:10:01Z</time>
      </trkpt>
      <trkpt lat="59.8736908" lon="17.831363">
        <ele>30.4188</ele>
        <time>2014-07-08T13:10:02Z</time>
      </trkpt>
      <trkpt lat="59.8737215" lon="17.8314019">
        <ele>30.8995</ele>
        <time>2014-07-08T13:10:03Z</time>
      </trkpt>
      <trkpt lat="59.8737511" lon="17.8314409">
        <ele>30.8995</ele>
        <time>2014-07-08T13:10:04Z</time>
      </trkpt>
      <trkpt lat="59.8737796" lon="17.8314803">
        <ele>31.3801</ele>
        <time>2014-07-08T13:10:05Z</time>
      </trkpt>
      <trkpt lat="59.8738088" lon="17.8315191">
        <ele>31.3801</ele>
        <time>2014-07-08T13:10:06Z</time>
      </trkpt>
      <trkpt lat="59.8738394" lon="17.8315585">
        <ele>31.3801</ele>
        <time>2014-07-08T13:10:07Z</time>
      </trkpt>
      <trkpt lat="59.8738715" lon="17.8315988">
        <ele>31.8607</ele>
        <time>2014-07-08T13:10:08Z</time>
      </trkpt>
      <trkpt lat="59.8739044" lon="17.8316399">
        <ele>31.8607</ele>
        <time>2014-07-08T13:10:09Z</time>
      </trkpt>
      <trkpt lat="59.8739379" lon="17.8316822">
        <ele>31.8607</ele>
        <time>2014-07-08T13:10:10Z</time>
      </trkpt>
      <trkpt lat="59.8739717" lon="17.8317239">
        <ele>32.3416</ele>
        <time>2014-07-08T13:10:11Z</time>
      </trkpt>
      <trkpt lat="59.8740059" lon="17.8317671">
        <ele>32.3416</ele>
        <time>2014-07-08T13:10:12Z</time>
      </trkpt>
      <trkpt lat="59.8740406" lon="17.8318128">
        <ele>32.3416</ele>
        <time>2014-07-08T13:10:13Z</time>
      </trkpt>
      <trkpt lat="59.8740769" lon="17.8318581">
        <ele>32.3416</ele>
        <time>2014-07-08T13:10:14Z</time>
      </trkpt>
      <trkpt lat="59.8741158" lon="17.8319015">
        <ele>32.3416</ele>
        <time>2014-07-08T13:10:15Z</time>
      </trkpt>
      <trkpt lat="59.8741556" lon="17.8319442">
        <ele>32.3416</ele>
        <time>2014-07-08T13:10:16Z</time>
      </trkpt>
      <trkpt lat="59.8741961" lon="17.8319885">
        <ele>32.3416</ele>
        <time>2014-07-08T13:10:17Z</time>
      </trkpt>
      <trkpt lat="59.8742363" lon="17.8320367">
        <ele>32.3416</ele>
        <time>2014-07-08T13:10:18Z</time>
      </trkpt>
      <trkpt lat="59.8742772" lon="17.8320843">
        <ele>32.3416</ele>
        <time>2014-07-08T13:10:19Z</time>
      </trkpt>
      <trkpt lat="59.8743203" lon="17.8321304">
        <ele>31.8607</ele>
        <time>2014-07-08T13:10:20Z</time>
      </trkpt>
      <trkpt lat="59.8743669" lon="17.8321738">
        <ele>31.8607</ele>
        <time>2014-07-08T13:10:21Z</time>
      </trkpt>
      <trkpt lat="59.8744173" lon="17.8322133">
        <ele>31.8607</ele>
        <time>2014-07-08T13:10:22Z</time>
      </trkpt>
      <trkpt lat="59.8744716" lon="17.8322491">
        <ele>31.8607</ele>
        <time>2014-07-08T13:10:23Z</time>
      </trkpt>
      <trkpt lat="59.8745301" lon="17.832279">
        <ele>31.8607</ele>
        <time>2014-07-08T13:10:24Z</time>
      </trkpt>
      <trkpt lat="59.8745885" lon="17.8323038">
        <ele>31.3801</ele>
        <time>2014-07-08T13:10:25Z</time>
      </trkpt>
      <trkpt lat="59.8746502" lon="17.832325">
        <ele>31.3801</ele>
        <time>2014-07-08T13:10:26Z</time>
      </trkpt>
      <trkpt lat="59.8747114" lon="17.8323445">
        <ele>30.8995</ele>
        <time>2014-07-08T13:10:27Z</time>
      </trkpt>
      <trkpt lat="59.8747716" lon="17.8323664">
        <ele>30.4188</ele>
        <time>2014-07-08T13:10:28Z</time>
      </trkpt>
      <trkpt lat="59.8748337" lon="17.8323858">
        <ele>30.4188</ele>
        <time>2014-07-08T13:10:29Z</time>
      </trkpt>
      <trkpt lat="59.8748975" lon="17.8324033">
        <ele>29.9381</ele>
        <time>2014-07-08T13:10:30Z</time>
      </trkpt>
      <trkpt lat="59.8749622" lon="17.8324216">
        <ele>29.9381</ele>
        <time>2014-07-08T13:10:31Z</time>
      </trkpt>
      <trkpt lat="59.8750275" lon="17.8324392">
        <ele>29.9381</ele>
        <time>2014-07-08T13:10:32Z</time>
      </trkpt>
      <trkpt lat="59.8750922" lon="17.8324568">
        <ele>29.9381</ele>
        <time>2014-07-08T13:10:33Z</time>
      </trkpt>
      <trkpt lat="59.8751565" lon="17.832476">
        <ele>29.9381</ele>
        <time>2014-07-08T13:10:34Z</time>
      </trkpt>
      <trkpt lat="59.8752213" lon="17.8324961">
        <ele>29.9381</ele>
        <time>2014-07-08T13:10:35Z</time>
      </trkpt>
      <trkpt lat="59.8752849" lon="17.832518">
        <ele>30.4188</ele>
        <time>2014-07-08T13:10:36Z</time>
      </trkpt>
      <trkpt lat="59.8753473" lon="17.8325432">
        <ele>30.4188</ele>
        <time>2014-07-08T13:10:37Z</time>
      </trkpt>
      <trkpt lat="59.8754077" lon="17.8325722">
        <ele>30.4188</ele>
        <time>2014-07-08T13:10:38Z</time>
      </trkpt>
      <trkpt lat="59.8754658" lon="17.8326074">
        <ele>30.4188</ele>
        <time>2014-07-08T13:10:39Z</time>
      </trkpt>
      <trkpt lat="59.8755209" lon="17.8326488">
        <ele>30.8995</ele>
        <time>2014-07-08T13:10:40Z</time>
      </trkpt>
      <trkpt lat="59.8755739" lon="17.8326952">
        <ele>30.8995</ele>
        <time>2014-07-08T13:10:41Z</time>
      </trkpt>
      <trkpt lat="59.8756266" lon="17.8327448">
        <ele>30.8995</ele>
        <time>2014-07-08T13:10:42Z</time>
      </trkpt>
      <trkpt lat="59.8756786" lon="17.8327954">
        <ele>30.8995</ele>
        <time>2014-07-08T13:10:43Z</time>
      </trkpt>
      <trkpt lat="59.8757293" lon="17.8328472">
        <ele>30.8995</ele>
        <time>2014-07-08T13:10:44Z</time>
      </trkpt>
      <trkpt lat="59.8757797" lon="17.8329008">
        <ele>30.8995</ele>
        <time>2014-07-08T13:10:45Z</time>
      </trkpt>
      <trkpt lat="59.8758314" lon="17.8329555">
        <ele>30.8995</ele>
        <time>2014-07-08T13:10:46Z</time>
      </trkpt>
      <trkpt lat="59.8758853" lon="17.8330088">
        <ele>30.8995</ele>
        <time>2014-07-08T13:10:47Z</time>
      </trkpt>
      <trkpt lat="59.8759411" lon="17.8330613">
        <ele>30.8995</ele>
        <time>2014-07-08T13:10:48Z</time>
      </trkpt>
      <trkpt lat="59.875998" lon="17.8331141">
        <ele>30.8995</ele>
        <time>2014-07-08T13:10:49Z</time>
      </trkpt>
      <trkpt lat="59.8760562" lon="17.8331647">
        <ele>30.8995</ele>
        <time>2014-07-08T13:10:50Z</time>
      </trkpt>
      <trkpt lat="59.8761168" lon="17.8332084">
        <ele>31.3801</ele>
        <time>2014-07-08T13:10:51Z</time>
      </trkpt>
      <trkpt lat="59.8761778" lon="17.8332519">
        <ele>31.3801</ele>
        <time>2014-07-08T13:10:52Z</time>
      </trkpt>
      <trkpt lat="59.8762381" lon="17.8332949">
        <ele>31.8607</ele>
        <time>2014-07-08T13:10:53Z</time>
      </trkpt>
      <trkpt lat="59.8762975" lon="17.833331">
        <ele>31.8607</ele>
        <time>2014-07-08T13:10:54Z</time>
      </trkpt>
      <trkpt lat="59.8763539" lon="17.8333773">
        <ele>32.3416</ele>
        <time>2014-07-08T13:10:55Z</time>
      </trkpt>
      <trkpt lat="59.876407" lon="17.8334213">
        <ele>32.3416</ele>
        <time>2014-07-08T13:10:56Z</time>
      </trkpt>
      <trkpt lat="59.87646" lon="17.8334584">
        <ele>32.8223</ele>
        <time>2014-07-08T13:10:57Z</time>
      </trkpt>
      <trkpt lat="59.876512" lon="17.8334881">
        <ele>32.8223</ele>
        <time>2014-07-08T13:10:58Z</time>
      </trkpt>
      <trkpt lat="59.8765643" lon="17.8335139">
        <ele>33.3029</ele>
        <time>2014-07-08T13:10:59Z</time>
      </trkpt>
      <trkpt lat="59.8766136" lon="17.8335398">
        <ele>33.3029</ele>
        <time>2014-07-08T13:11:00Z</time>
      </trkpt>
      <trkpt lat="59.8766648" lon="17.8335684">
        <ele>32.8223</ele>
        <time>2014-07-08T13:11:01Z</time>
      </trkpt>
      <trkpt lat="59.8767186" lon="17.8336">
        <ele>32.8223</ele>
        <time>2014-07-08T13:11:02Z</time>
      </trkpt>
      <trkpt lat="59.8767752" lon="17.8336342">
        <ele>32.3416</ele>
        <time>2014-07-08T13:11:03Z</time>
      </trkpt>
      <trkpt lat="59.8768353" lon="17.8336749">
        <ele>32.3416</ele>
        <time>2014-07-08T13:11:04Z</time>
      </trkpt>
      <trkpt lat="59.8768974" lon="17.8337236">
        <ele>31.8607</ele>
        <time>2014-07-08T13:11:05Z</time>
      </trkpt>
      <trkpt lat="59.8769604" lon="17.8337709">
        <ele>31.8607</ele>
        <time>2014-07-08T13:11:06Z</time>
      </trkpt>
      <trkpt lat="59.8770233" lon="17.8338274">
        <ele>31.8607</ele>
        <time>2014-07-08T13:11:07Z</time>
      </trkpt>
      <trkpt lat="59.8770859" lon="17.833894">
        <ele>31.3801</ele>
        <time>2014-07-08T13:11:08Z</time>
      </trkpt>
      <trkpt lat="59.8771493" lon="17.8339604">
        <ele>31.3801</ele>
        <time>2014-07-08T13:11:09Z</time>
      </trkpt>
      <trkpt lat="59.8772111" lon="17.834031">
        <ele>30.8995</ele>
        <time>2014-07-08T13:11:10Z</time>
      </trkpt>
      <trkpt lat="59.8772708" lon="17.834104">
        <ele>30.8995</ele>
        <time>2014-07-08T13:11:11Z</time>
      </trkpt>
      <trkpt lat="59.87733" lon="17.834177">
        <ele>30.8995</ele>
        <time>2014-07-08T13:11:12Z</time>
      </trkpt>
      <trkpt lat="59.8773869" lon="17.8342499">
        <ele>31.3801</ele>
        <time>2014-07-08T13:11:13Z</time>
      </trkpt>
      <trkpt lat="59.8774419" lon="17.8343216">
        <ele>31.3801</ele>
        <time>2014-07-08T13:11:14Z</time>
      </trkpt>
      <trkpt lat="59.877494" lon="17.8343946">
        <ele>31.3801</ele>
        <time>2014-07-08T13:11:15Z</time>
      </trkpt>
      <trkpt lat="59.8775458" lon="17.8344685">
        <ele>31.3801</ele>
        <time>2014-07-08T13:11:16Z</time>
      </trkpt>
      <trkpt lat="59.8775993" lon="17.8345402">
        <ele>31.3801</ele>
        <time>2014-07-08T13:11:17Z</time>
      </trkpt>
      <trkpt lat="59.8776537" lon="17.834611">
        <ele>31.3801</ele>
        <time>2014-07-08T13:11:18Z</time>
      </trkpt>
      <trkpt lat="59.8777089" lon="17.8346802">
        <ele>31.3801</ele>
        <time>2014-07-08T13:11:19Z</time>
      </trkpt>
      <trkpt lat="59.877765" lon="17.8347474">
        <ele>31.3801</ele>
        <time>2014-07-08T13:11:20Z</time>
      </trkpt>
      <trkpt lat="59.8778208" lon="17.8348146">
        <ele>31.3801</ele>
        <time>2014-07-08T13:11:21Z</time>
      </trkpt>
      <trkpt lat="59.8778789" lon="17.8348816">
        <ele>31.3801</ele>
        <time>2014-07-08T13:11:22Z</time>
      </trkpt>
      <trkpt lat="59.877939" lon="17.8349471">
        <ele>31.3801</ele>
        <time>2014-07-08T13:11:23Z</time>
      </trkpt>
      <trkpt lat="59.8780018" lon="17.8350116">
        <ele>31.3801</ele>
        <time>2014-07-08T13:11:24Z</time>
      </trkpt>
      <trkpt lat="59.8780666" lon="17.8350753">
        <ele>31.3801</ele>
        <time>2014-07-08T13:11:25Z</time>
      </trkpt>
      <trkpt lat="59.8781309" lon="17.83514">
        <ele>30.8995</ele>
        <time>2014-07-08T13:11:26Z</time>
      </trkpt>
      <trkpt lat="59.8781959" lon="17.8352043">
        <ele>30.8995</ele>
        <time>2014-07-08T13:11:27Z</time>
      </trkpt>
      <trkpt lat="59.878267" lon="17.8352598">
        <ele>30.8995</ele>
        <time>2014-07-08T13:11:28Z</time>
      </trkpt>
      <trkpt lat="59.8783287" lon="17.8353074">
        <ele>30.8995</ele>
        <time>2014-07-08T13:11:29Z</time>
      </trkpt>
      <trkpt lat="59.8783923" lon="17.8353704">
        <ele>30.8995</ele>
        <time>2014-07-08T13:11:30Z</time>
      </trkpt>
      <trkpt lat="59.8784552" lon="17.8354312">
        <ele>30.8995</ele>
        <time>2014-07-08T13:11:31Z</time>
      </trkpt>
      <trkpt lat="59.8785201" lon="17.8354893">
        <ele>30.8995</ele>
        <time>2014-07-08T13:11:32Z</time>
      </trkpt>
      <trkpt lat="59.8785859" lon="17.835542">
        <ele>30.4188</ele>
        <time>2014-07-08T13:11:33Z</time>
      </trkpt>
      <trkpt lat="59.8786508" lon="17.8355945">
        <ele>30.4188</ele>
        <time>2014-07-08T13:11:34Z</time>
      </trkpt>
      <trkpt lat="59.8787147" lon="17.8356413">
        <ele>29.9381</ele>
        <time>2014-07-08T13:11:35Z</time>
      </trkpt>
      <trkpt lat="59.8787813" lon="17.8356839">
        <ele>30.4188</ele>
        <time>2014-07-08T13:11:36Z</time>
      </trkpt>
      <trkpt lat="59.8788528" lon="17.8357156">
        <ele>30.8995</ele>
        <time>2014-07-08T13:11:37Z</time>
      </trkpt>
      <trkpt lat="59.8789172" lon="17.8357451">
        <ele>30.8995</ele>
        <time>2014-07-08T13:11:38Z</time>
      </trkpt>
      <trkpt lat="59.8789802" lon="17.8357736">
        <ele>30.8995</ele>
        <time>2014-07-08T13:11:39Z</time>
      </trkpt>
      <trkpt lat="59.8790431" lon="17.8357962">
        <ele>30.8995</ele>
        <time>2014-07-08T13:11:40Z</time>
      </trkpt>
      <trkpt lat="59.8791088" lon="17.8358136">
        <ele>30.4188</ele>
        <time>2014-07-08T13:11:41Z</time>
      </trkpt>
      <trkpt lat="59.8791767" lon="17.8358283">
        <ele>29.9381</ele>
        <time>2014-07-08T13:11:42Z</time>
      </trkpt>
      <trkpt lat="59.879247" lon="17.835839">
        <ele>29.9381</ele>
        <time>2014-07-08T13:11:43Z</time>
      </trkpt>
      <trkpt lat="59.8793202" lon="17.8358477">
        <ele>29.4575</ele>
        <time>2014-07-08T13:11:44Z</time>
      </trkpt>
      <trkpt lat="59.8793978" lon="17.835857">
        <ele>29.4575</ele>
        <time>2014-07-08T13:11:45Z</time>
      </trkpt>
      <trkpt lat="59.8794748" lon="17.8358653">
        <ele>29.4575</ele>
        <time>2014-07-08T13:11:46Z</time>
      </trkpt>
      <trkpt lat="59.8795511" lon="17.8358684">
        <ele>29.4575</ele>
        <time>2014-07-08T13:11:47Z</time>
      </trkpt>
      <trkpt lat="59.8796237" lon="17.8358705">
        <ele>29.9381</ele>
        <time>2014-07-08T13:11:48Z</time>
      </trkpt>
      <trkpt lat="59.8796869" lon="17.8358751">
        <ele>29.9381</ele>
        <time>2014-07-08T13:11:49Z</time>
      </trkpt>
      <trkpt lat="59.8797443" lon="17.8358847">
        <ele>29.9381</ele>
        <time>2014-07-08T13:11:50Z</time>
      </trkpt>
      <trkpt lat="59.8798004" lon="17.8359005">
        <ele>29.9381</ele>
        <time>2014-07-08T13:11:51Z</time>
      </trkpt>
      <trkpt lat="59.8798566" lon="17.8359181">
        <ele>29.9381</ele>
        <time>2014-07-08T13:11:52Z</time>
      </trkpt>
      <trkpt lat="59.8799128" lon="17.8359399">
        <ele>29.9381</ele>
        <time>2014-07-08T13:11:53Z</time>
      </trkpt>
      <trkpt lat="59.8799722" lon="17.8359699">
        <ele>29.9381</ele>
        <time>2014-07-08T13:11:54Z</time>
      </trkpt>
      <trkpt lat="59.8800339" lon="17.8360133">
        <ele>29.4575</ele>
        <time>2014-07-08T13:11:55Z</time>
      </trkpt>
      <trkpt lat="59.880098" lon="17.8360674">
        <ele>29.4575</ele>
        <time>2014-07-08T13:11:56Z</time>
      </trkpt>
      <trkpt lat="59.8801646" lon="17.8361295">
        <ele>28.9769</ele>
        <time>2014-07-08T13:11:57Z</time>
      </trkpt>
      <trkpt lat="59.8802338" lon="17.8361942">
        <ele>28.9769</ele>
        <time>2014-07-08T13:11:58Z</time>
      </trkpt>
      <trkpt lat="59.8803037" lon="17.83626">
        <ele>28.9769</ele>
        <time>2014-07-08T13:11:59Z</time>
      </trkpt>
      <trkpt lat="59.8803702" lon="17.8363314">
        <ele>29.4575</ele>
        <time>2014-07-08T13:12:00Z</time>
      </trkpt>
      <trkpt lat="59.8804342" lon="17.8364097">
        <ele>29.4575</ele>
        <time>2014-07-08T13:12:01Z</time>
      </trkpt>
      <trkpt lat="59.8804967" lon="17.8364906">
        <ele>29.4575</ele>
        <time>2014-07-08T13:12:02Z</time>
      </trkpt>
      <trkpt lat="59.8805593" lon="17.8365708">
        <ele>29.4575</ele>
        <time>2014-07-08T13:12:03Z</time>
      </trkpt>
      <trkpt lat="59.8806205" lon="17.8366507">
        <ele>29.9381</ele>
        <time>2014-07-08T13:12:04Z</time>
      </trkpt>
      <trkpt lat="59.8806788" lon="17.836732">
        <ele>29.9381</ele>
        <time>2014-07-08T13:12:05Z</time>
      </trkpt>
      <trkpt lat="59.8807328" lon="17.8368162">
        <ele>29.9381</ele>
        <time>2014-07-08T13:12:06Z</time>
      </trkpt>
      <trkpt lat="59.8807835" lon="17.8369018">
        <ele>30.4188</ele>
        <time>2014-07-08T13:12:07Z</time>
      </trkpt>
      <trkpt lat="59.8808322" lon="17.8369855">
        <ele>30.4188</ele>
        <time>2014-07-08T13:12:08Z</time>
      </trkpt>
      <trkpt lat="59.8808929" lon="17.8370572">
        <ele>30.8995</ele>
        <time>2014-07-08T13:12:09Z</time>
      </trkpt>
      <trkpt lat="59.8809475" lon="17.8371375">
        <ele>30.8995</ele>
        <time>2014-07-08T13:12:10Z</time>
      </trkpt>
      <trkpt lat="59.8809971" lon="17.8372362">
        <ele>30.8995</ele>
        <time>2014-07-08T13:12:11Z</time>
      </trkpt>
      <trkpt lat="59.8810481" lon="17.837325">
        <ele>31.3801</ele>
        <time>2014-07-08T13:12:12Z</time>
      </trkpt>
      <trkpt lat="59.8811014" lon="17.8374103">
        <ele>31.3801</ele>
        <time>2014-07-08T13:12:13Z</time>
      </trkpt>
      <trkpt lat="59.8811566" lon="17.837496">
        <ele>31.3801</ele>
        <time>2014-07-08T13:12:14Z</time>
      </trkpt>
      <trkpt lat="59.8812144" lon="17.83758">
        <ele>31.3801</ele>
        <time>2014-07-08T13:12:15Z</time>
      </trkpt>
      <trkpt lat="59.8812731" lon="17.8376664">
        <ele>31.3801</ele>
        <time>2014-07-08T13:12:16Z</time>
      </trkpt>
      <trkpt lat="59.8813327" lon="17.8377529">
        <ele>31.3801</ele>
        <time>2014-07-08T13:12:17Z</time>
      </trkpt>
      <trkpt lat="59.8813932" lon="17.8378403">
        <ele>31.3801</ele>
        <time>2014-07-08T13:12:18Z</time>
      </trkpt>
      <trkpt lat="59.8814542" lon="17.8379273">
        <ele>31.3801</ele>
        <time>2014-07-08T13:12:19Z</time>
      </trkpt>
      <trkpt lat="59.8815145" lon="17.8380135">
        <ele>31.3801</ele>
        <time>2014-07-08T13:12:20Z</time>
      </trkpt>
      <trkpt lat="59.8815726" lon="17.8381">
        <ele>31.3801</ele>
        <time>2014-07-08T13:12:21Z</time>
      </trkpt>
      <trkpt lat="59.8816295" lon="17.838187">
        <ele>31.3801</ele>
        <time>2014-07-08T13:12:22Z</time>
      </trkpt>
      <trkpt lat="59.8816862" lon="17.8382736">
        <ele>31.3801</ele>
        <time>2014-07-08T13:12:23Z</time>
      </trkpt>
      <trkpt lat="59.8817437" lon="17.8383616">
        <ele>31.3801</ele>
        <time>2014-07-08T13:12:24Z</time>
      </trkpt>
      <trkpt lat="59.8818017" lon="17.8384473">
        <ele>31.8607</ele>
        <time>2014-07-08T13:12:25Z</time>
      </trkpt>
      <trkpt lat="59.8818588" lon="17.8385294">
        <ele>31.8607</ele>
        <time>2014-07-08T13:12:26Z</time>
      </trkpt>
      <trkpt lat="59.8819155" lon="17.8386101">
        <ele>32.3416</ele>
        <time>2014-07-08T13:12:27Z</time>
      </trkpt>
      <trkpt lat="59.8819693" lon="17.8386878">
        <ele>32.3416</ele>
        <time>2014-07-08T13:12:28Z</time>
      </trkpt>
      <trkpt lat="59.8820225" lon="17.8387568">
        <ele>32.8223</ele>
        <time>2014-07-08T13:12:29Z</time>
      </trkpt>
      <trkpt lat="59.882075" lon="17.8388177">
        <ele>32.8223</ele>
        <time>2014-07-08T13:12:30Z</time>
      </trkpt>
      <trkpt lat="59.8821269" lon="17.8388677">
        <ele>32.8223</ele>
        <time>2014-07-08T13:12:31Z</time>
      </trkpt>
      <trkpt lat="59.8821771" lon="17.8389115">
        <ele>33.3029</ele>
        <time>2014-07-08T13:12:32Z</time>
      </trkpt>
      <trkpt lat="59.8822253" lon="17.8389547">
        <ele>33.3029</ele>
        <time>2014-07-08T13:12:33Z</time>
      </trkpt>
      <trkpt lat="59.8822745" lon="17.8389909">
        <ele>33.3029</ele>
        <time>2014-07-08T13:12:34Z</time>
      </trkpt>
      <trkpt lat="59.8823235" lon="17.8390143">
        <ele>33.3029</ele>
        <time>2014-07-08T13:12:35Z</time>
      </trkpt>
      <trkpt lat="59.8823717" lon="17.8390306">
        <ele>33.7834</ele>
        <time>2014-07-08T13:12:36Z</time>
      </trkpt>
      <trkpt lat="59.8824185" lon="17.839046">
        <ele>33.3029</ele>
        <time>2014-07-08T13:12:37Z</time>
      </trkpt>
      <trkpt lat="59.8824717" lon="17.8390598">
        <ele>34.2642</ele>
        <time>2014-07-08T13:12:38Z</time>
      </trkpt>
      <trkpt lat="59.8825189" lon="17.8390769">
        <ele>34.2642</ele>
        <time>2014-07-08T13:12:39Z</time>
      </trkpt>
      <trkpt lat="59.8825668" lon="17.8390938">
        <ele>34.2642</ele>
        <time>2014-07-08T13:12:40Z</time>
      </trkpt>
      <trkpt lat="59.8826137" lon="17.8391116">
        <ele>34.7449</ele>
        <time>2014-07-08T13:12:41Z</time>
      </trkpt>
      <trkpt lat="59.8826607" lon="17.8391303">
        <ele>34.7449</ele>
        <time>2014-07-08T13:12:42Z</time>
      </trkpt>
      <trkpt lat="59.8827073" lon="17.839151">
        <ele>35.2255</ele>
        <time>2014-07-08T13:12:43Z</time>
      </trkpt>
      <trkpt lat="59.8827541" lon="17.8391743">
        <ele>35.2255</ele>
        <time>2014-07-08T13:12:44Z</time>
      </trkpt>
      <trkpt lat="59.8827968" lon="17.8392028">
        <ele>35.7061</ele>
        <time>2014-07-08T13:12:45Z</time>
      </trkpt>
      <trkpt lat="59.8828395" lon="17.839239">
        <ele>35.7061</ele>
        <time>2014-07-08T13:12:46Z</time>
      </trkpt>
      <trkpt lat="59.882882" lon="17.83928">
        <ele>35.7061</ele>
        <time>2014-07-08T13:12:47Z</time>
      </trkpt>
      <trkpt lat="59.882926" lon="17.8393255">
        <ele>35.2255</ele>
        <time>2014-07-08T13:12:48Z</time>
      </trkpt>
      <trkpt lat="59.8829707" lon="17.8393762">
        <ele>35.2255</ele>
        <time>2014-07-08T13:12:49Z</time>
      </trkpt>
      <trkpt lat="59.8830198" lon="17.8394327">
        <ele>34.7449</ele>
        <time>2014-07-08T13:12:50Z</time>
      </trkpt>
      <trkpt lat="59.8830703" lon="17.8394981">
        <ele>34.2642</ele>
        <time>2014-07-08T13:12:51Z</time>
      </trkpt>
      <trkpt lat="59.883124" lon="17.8395669">
        <ele>33.7834</ele>
        <time>2014-07-08T13:12:52Z</time>
      </trkpt>
      <trkpt lat="59.8831813" lon="17.8396416">
        <ele>33.3029</ele>
        <time>2014-07-08T13:12:53Z</time>
      </trkpt>
      <trkpt lat="59.8832419" lon="17.8397219">
        <ele>32.8223</ele>
        <time>2014-07-08T13:12:54Z</time>
      </trkpt>
      <trkpt lat="59.8833052" lon="17.8398063">
        <ele>32.8223</ele>
        <time>2014-07-08T13:12:55Z</time>
      </trkpt>
      <trkpt lat="59.883371" lon="17.8398923">
        <ele>32.3416</ele>
        <time>2014-07-08T13:12:56Z</time>
      </trkpt>
      <trkpt lat="59.8834384" lon="17.8399804">
        <ele>31.8607</ele>
        <time>2014-07-08T13:12:57Z</time>
      </trkpt>
      <trkpt lat="59.8835063" lon="17.840071">
        <ele>31.3801</ele>
        <time>2014-07-08T13:12:58Z</time>
      </trkpt>
      <trkpt lat="59.8835741" lon="17.8401637">
        <ele>31.3801</ele>
        <time>2014-07-08T13:12:59Z</time>
      </trkpt>
      <trkpt lat="59.883642" lon="17.8402559">
        <ele>30.8995</ele>
        <time>2014-07-08T13:13:00Z</time>
      </trkpt>
      <trkpt lat="59.8837108" lon="17.8403488">
        <ele>30.8995</ele>
        <time>2014-07-08T13:13:01Z</time>
      </trkpt>
      <trkpt lat="59.8837802" lon="17.8404425">
        <ele>30.4188</ele>
        <time>2014-07-08T13:13:02Z</time>
      </trkpt>
      <trkpt lat="59.8838506" lon="17.8405346">
        <ele>30.4188</ele>
        <time>2014-07-08T13:13:03Z</time>
      </trkpt>
      <trkpt lat="59.8839212" lon="17.8406247">
        <ele>30.4188</ele>
        <time>2014-07-08T13:13:04Z</time>
      </trkpt>
      <trkpt lat="59.883992" lon="17.8407139">
        <ele>29.9381</ele>
        <time>2014-07-08T13:13:05Z</time>
      </trkpt>
      <trkpt lat="59.884062" lon="17.8408031">
        <ele>29.9381</ele>
        <time>2014-07-08T13:13:06Z</time>
      </trkpt>
      <trkpt lat="59.8841302" lon="17.8408916">
        <ele>29.9381</ele>
        <time>2014-07-08T13:13:07Z</time>
      </trkpt>
      <trkpt lat="59.8841972" lon="17.8409769">
        <ele>29.9381</ele>
        <time>2014-07-08T13:13:08Z</time>
      </trkpt>
      <trkpt lat="59.8842628" lon="17.8410579">
        <ele>29.9381</ele>
        <time>2014-07-08T13:13:09Z</time>
      </trkpt>
      <trkpt lat="59.8843273" lon="17.8411324">
        <ele>30.4188</ele>
        <time>2014-07-08T13:13:10Z</time>
      </trkpt>
      <trkpt lat="59.8843906" lon="17.8412002">
        <ele>30.4188</ele>
        <time>2014-07-08T13:13:11Z</time>
      </trkpt>
      <trkpt lat="59.8844536" lon="17.8412632">
        <ele>30.4188</ele>
        <time>2014-07-08T13:13:12Z</time>
      </trkpt>
      <trkpt lat="59.8845168" lon="17.8413204">
        <ele>30.4188</ele>
        <time>2014-07-08T13:13:13Z</time>
      </trkpt>
      <trkpt lat="59.8845821" lon="17.8413696">
        <ele>30.4188</ele>
        <time>2014-07-08T13:13:14Z</time>
      </trkpt>
      <trkpt lat="59.8846505" lon="17.8414124">
        <ele>30.4188</ele>
        <time>2014-07-08T13:13:15Z</time>
      </trkpt>
      <trkpt lat="59.8847213" lon="17.8414536">
        <ele>30.4188</ele>
        <time>2014-07-08T13:13:16Z</time>
      </trkpt>
      <trkpt lat="59.8847944" lon="17.8414907">
        <ele>30.4188</ele>
        <time>2014-07-08T13:13:17Z</time>
      </trkpt>
      <trkpt lat="59.88487" lon="17.8415183">
        <ele>30.4188</ele>
        <time>2014-07-08T13:13:18Z</time>
      </trkpt>
      <trkpt lat="59.8849473" lon="17.841534">
        <ele>30.4188</ele>
        <time>2014-07-08T13:13:19Z</time>
      </trkpt>
      <trkpt lat="59.8850244" lon="17.8415409">
        <ele>30.4188</ele>
        <time>2014-07-08T13:13:20Z</time>
      </trkpt>
      <trkpt lat="59.8851015" lon="17.8415423">
        <ele>30.4188</ele>
        <time>2014-07-08T13:13:21Z</time>
      </trkpt>
      <trkpt lat="59.8851776" lon="17.8415384">
        <ele>30.4188</ele>
        <time>2014-07-08T13:13:22Z</time>
      </trkpt>
      <trkpt lat="59.885253" lon="17.8415318">
        <ele>30.4188</ele>
        <time>2014-07-08T13:13:23Z</time>
      </trkpt>
      <trkpt lat="59.8853282" lon="17.841524">
        <ele>30.4188</ele>
        <time>2014-07-08T13:13:24Z</time>
      </trkpt>
      <trkpt lat="59.8854021" lon="17.8415168">
        <ele>30.4188</ele>
        <time>2014-07-08T13:13:25Z</time>
      </trkpt>
      <trkpt lat="59.8854753" lon="17.8415089">
        <ele>30.4188</ele>
        <time>2014-07-08T13:13:26Z</time>
      </trkpt>
      <trkpt lat="59.8855485" lon="17.8415013">
        <ele>30.4188</ele>
        <time>2014-07-08T13:13:27Z</time>
      </trkpt>
      <trkpt lat="59.8856224" lon="17.8414928">
        <ele>29.9381</ele>
        <time>2014-07-08T13:13:28Z</time>
      </trkpt>
      <trkpt lat="59.8856974" lon="17.8414845">
        <ele>29.9381</ele>
        <time>2014-07-08T13:13:29Z</time>
      </trkpt>
      <trkpt lat="59.8857721" lon="17.8414756">
        <ele>29.9381</ele>
        <time>2014-07-08T13:13:30Z</time>
      </trkpt>
      <trkpt lat="59.8858467" lon="17.8414646">
        <ele>29.9381</ele>
        <time>2014-07-08T13:13:31Z</time>
      </trkpt>
      <trkpt lat="59.8859222" lon="17.8414551">
        <ele>29.9381</ele>
        <time>2014-07-08T13:13:32Z</time>
      </trkpt>
      <trkpt lat="59.8859972" lon="17.8414458">
        <ele>29.9381</ele>
        <time>2014-07-08T13:13:33Z</time>
      </trkpt>
      <trkpt lat="59.8860719" lon="17.8414308">
        <ele>29.9381</ele>
        <time>2014-07-08T13:13:34Z</time>
      </trkpt>
      <trkpt lat="59.8861465" lon="17.8414075">
        <ele>29.9381</ele>
        <time>2014-07-08T13:13:35Z</time>
      </trkpt>
      <trkpt lat="59.886219" lon="17.8413826">
        <ele>29.9381</ele>
        <time>2014-07-08T13:13:36Z</time>
      </trkpt>
      <trkpt lat="59.8862895" lon="17.841356">
        <ele>29.9381</ele>
        <time>2014-07-08T13:13:37Z</time>
      </trkpt>
      <trkpt lat="59.8863578" lon="17.8413275">
        <ele>29.9381</ele>
        <time>2014-07-08T13:13:38Z</time>
      </trkpt>
      <trkpt lat="59.8864242" lon="17.8412992">
        <ele>29.9381</ele>
        <time>2014-07-08T13:13:39Z</time>
      </trkpt>
      <trkpt lat="59.8864893" lon="17.8412679">
        <ele>29.9381</ele>
        <time>2014-07-08T13:13:40Z</time>
      </trkpt>
      <trkpt lat="59.8865526" lon="17.8412325">
        <ele>29.9381</ele>
        <time>2014-07-08T13:13:41Z</time>
      </trkpt>
      <trkpt lat="59.8866161" lon="17.8411996">
        <ele>29.9381</ele>
        <time>2014-07-08T13:13:42Z</time>
      </trkpt>
      <trkpt lat="59.8866798" lon="17.8411739">
        <ele>29.9381</ele>
        <time>2014-07-08T13:13:43Z</time>
      </trkpt>
      <trkpt lat="59.8867438" lon="17.8411532">
        <ele>29.9381</ele>
        <time>2014-07-08T13:13:44Z</time>
      </trkpt>
      <trkpt lat="59.8868075" lon="17.841141">
        <ele>29.4575</ele>
        <time>2014-07-08T13:13:45Z</time>
      </trkpt>
      <trkpt lat="59.8868716" lon="17.8411422">
        <ele>29.4575</ele>
        <time>2014-07-08T13:13:46Z</time>
      </trkpt>
      <trkpt lat="59.8869366" lon="17.8411576">
        <ele>29.4575</ele>
        <time>2014-07-08T13:13:47Z</time>
      </trkpt>
      <trkpt lat="59.8870021" lon="17.8411873">
        <ele>29.4575</ele>
        <time>2014-07-08T13:13:48Z</time>
      </trkpt>
      <trkpt lat="59.887066" lon="17.841233">
        <ele>29.4575</ele>
        <time>2014-07-08T13:13:49Z</time>
      </trkpt>
      <trkpt lat="59.8871285" lon="17.8412931">
        <ele>29.9381</ele>
        <time>2014-07-08T13:13:50Z</time>
      </trkpt>
      <trkpt lat="59.8871872" lon="17.8413655">
        <ele>29.9381</ele>
        <time>2014-07-08T13:13:51Z</time>
      </trkpt>
      <trkpt lat="59.8872409" lon="17.8414514">
        <ele>29.9381</ele>
        <time>2014-07-08T13:13:52Z</time>
      </trkpt>
      <trkpt lat="59.8872888" lon="17.841549">
        <ele>30.4188</ele>
        <time>2014-07-08T13:13:53Z</time>
      </trkpt>
      <trkpt lat="59.8873302" lon="17.8416549">
        <ele>30.4188</ele>
        <time>2014-07-08T13:13:54Z</time>
      </trkpt>
      <trkpt lat="59.8873683" lon="17.8417606">
        <ele>30.8995</ele>
        <time>2014-07-08T13:13:55Z</time>
      </trkpt>
      <trkpt lat="59.8874053" lon="17.8418633">
        <ele>30.8995</ele>
        <time>2014-07-08T13:13:56Z</time>
      </trkpt>
      <trkpt lat="59.8874457" lon="17.8419613">
        <ele>30.8995</ele>
        <time>2014-07-08T13:13:57Z</time>
      </trkpt>
      <trkpt lat="59.8874898" lon="17.8420581">
        <ele>30.8995</ele>
        <time>2014-07-08T13:13:58Z</time>
      </trkpt>
      <trkpt lat="59.8875369" lon="17.8421442">
        <ele>30.8995</ele>
        <time>2014-07-08T13:13:59Z</time>
      </trkpt>
      <trkpt lat="59.8875856" lon="17.8422285">
        <ele>30.8995</ele>
        <time>2014-07-08T13:14:00Z</time>
      </trkpt>
      <trkpt lat="59.8876382" lon="17.8423155">
        <ele>30.8995</ele>
        <time>2014-07-08T13:14:01Z</time>
      </trkpt>
      <trkpt lat="59.8876907" lon="17.8423959">
        <ele>30.8995</ele>
        <time>2014-07-08T13:14:02Z</time>
      </trkpt>
      <trkpt lat="59.8877426" lon="17.8424694">
        <ele>31.3801</ele>
        <time>2014-07-08T13:14:03Z</time>
      </trkpt>
      <trkpt lat="59.8877952" lon="17.8425383">
        <ele>31.3801</ele>
        <time>2014-07-08T13:14:04Z</time>
      </trkpt>
      <trkpt lat="59.8878487" lon="17.842603">
        <ele>31.3801</ele>
        <time>2014-07-08T13:14:05Z</time>
      </trkpt>
      <trkpt lat="59.8879031" lon="17.8426652">
        <ele>31.3801</ele>
        <time>2014-07-08T13:14:06Z</time>
      </trkpt>
      <trkpt lat="59.887958" lon="17.8427251">
        <ele>31.8607</ele>
        <time>2014-07-08T13:14:07Z</time>
      </trkpt>
      <trkpt lat="59.8880133" lon="17.8427815">
        <ele>31.8607</ele>
        <time>2014-07-08T13:14:08Z</time>
      </trkpt>
      <trkpt lat="59.8880694" lon="17.8428347">
        <ele>31.8607</ele>
        <time>2014-07-08T13:14:09Z</time>
      </trkpt>
      <trkpt lat="59.8881267" lon="17.8428853">
        <ele>32.3416</ele>
        <time>2014-07-08T13:14:10Z</time>
      </trkpt>
      <trkpt lat="59.8881845" lon="17.8429326">
        <ele>32.3416</ele>
        <time>2014-07-08T13:14:11Z</time>
      </trkpt>
      <trkpt lat="59.8882433" lon="17.8429774">
        <ele>32.3416</ele>
        <time>2014-07-08T13:14:12Z</time>
      </trkpt>
      <trkpt lat="59.8883019" lon="17.843021">
        <ele>32.8223</ele>
        <time>2014-07-08T13:14:13Z</time>
      </trkpt>
      <trkpt lat="59.8883605" lon="17.8430616">
        <ele>32.8223</ele>
        <time>2014-07-08T13:14:14Z</time>
      </trkpt>
      <trkpt lat="59.8884195" lon="17.8430957">
        <ele>33.3029</ele>
        <time>2014-07-08T13:14:15Z</time>
      </trkpt>
      <trkpt lat="59.8884781" lon="17.8431222">
        <ele>33.3029</ele>
        <time>2014-07-08T13:14:16Z</time>
      </trkpt>
      <trkpt lat="59.8885374" lon="17.8431438">
        <ele>33.3029</ele>
        <time>2014-07-08T13:14:17Z</time>
      </trkpt>
      <trkpt lat="59.8885967" lon="17.843159">
        <ele>33.3029</ele>
        <time>2014-07-08T13:14:18Z</time>
      </trkpt>
      <trkpt lat="59.8886573" lon="17.8431692">
        <ele>33.7834</ele>
        <time>2014-07-08T13:14:19Z</time>
      </trkpt>
      <trkpt lat="59.8887187" lon="17.8431784">
        <ele>33.7834</ele>
        <time>2014-07-08T13:14:20Z</time>
      </trkpt>
      <trkpt lat="59.8887816" lon="17.8431914">
        <ele>33.7834</ele>
        <time>2014-07-08T13:14:21Z</time>
      </trkpt>
      <trkpt lat="59.8888453" lon="17.8432024">
        <ele>33.7834</ele>
        <time>2014-07-08T13:14:22Z</time>
      </trkpt>
      <trkpt lat="59.8889092" lon="17.8432152">
        <ele>33.7834</ele>
        <time>2014-07-08T13:14:23Z</time>
      </trkpt>
      <trkpt lat="59.8889705" lon="17.8432366">
        <ele>33.7834</ele>
        <time>2014-07-08T13:14:24Z</time>
      </trkpt>
      <trkpt lat="59.8890299" lon="17.8432674">
        <ele>33.7834</ele>
        <time>2014-07-08T13:14:25Z</time>
      </trkpt>
      <trkpt lat="59.8890873" lon="17.8433074">
        <ele>33.7834</ele>
        <time>2014-07-08T13:14:26Z</time>
      </trkpt>
      <trkpt lat="59.8891436" lon="17.8433521">
        <ele>34.2642</ele>
        <time>2014-07-08T13:14:27Z</time>
      </trkpt>
      <trkpt lat="59.8891994" lon="17.8433954">
        <ele>33.7834</ele>
        <time>2014-07-08T13:14:28Z</time>
      </trkpt>
      <trkpt lat="59.8892572" lon="17.8434303">
        <ele>33.7834</ele>
        <time>2014-07-08T13:14:29Z</time>
      </trkpt>
      <trkpt lat="59.8893162" lon="17.8434572">
        <ele>33.7834</ele>
        <time>2014-07-08T13:14:30Z</time>
      </trkpt>
      <trkpt lat="59.8893784" lon="17.8434604">
        <ele>33.3029</ele>
        <time>2014-07-08T13:14:31Z</time>
      </trkpt>
      <trkpt lat="59.8894429" lon="17.843461">
        <ele>33.3029</ele>
        <time>2014-07-08T13:14:32Z</time>
      </trkpt>
      <trkpt lat="59.889503" lon="17.8434386">
        <ele>33.3029</ele>
        <time>2014-07-08T13:14:33Z</time>
      </trkpt>
      <trkpt lat="59.8895654" lon="17.8433614">
        <ele>33.3029</ele>
        <time>2014-07-08T13:14:34Z</time>
      </trkpt>
      <trkpt lat="59.8896322" lon="17.8432784">
        <ele>33.3029</ele>
        <time>2014-07-08T13:14:35Z</time>
      </trkpt>
      <trkpt lat="59.8896818" lon="17.8431706">
        <ele>33.3029</ele>
        <time>2014-07-08T13:14:36Z</time>
      </trkpt>
      <trkpt lat="59.8897089" lon="17.8430319">
        <ele>33.7834</ele>
        <time>2014-07-08T13:14:37Z</time>
      </trkpt>
      <trkpt lat="59.8897473" lon="17.842925">
        <ele>33.7834</ele>
        <time>2014-07-08T13:14:38Z</time>
      </trkpt>
      <trkpt lat="59.8897726" lon="17.8428087">
        <ele>33.7834</ele>
        <time>2014-07-08T13:14:39Z</time>
      </trkpt>
      <trkpt lat="59.8897713" lon="17.8426724">
        <ele>34.2642</ele>
        <time>2014-07-08T13:14:40Z</time>
      </trkpt>
      <trkpt lat="59.8897806" lon="17.8425543">
        <ele>34.2642</ele>
        <time>2014-07-08T13:14:41Z</time>
      </trkpt>
      <trkpt lat="59.889786" lon="17.8424435">
        <ele>34.7449</ele>
        <time>2014-07-08T13:14:42Z</time>
      </trkpt>
      <trkpt lat="59.8897902" lon="17.8423443">
        <ele>35.2255</ele>
        <time>2014-07-08T13:14:43Z</time>
      </trkpt>
      <trkpt lat="59.8897948" lon="17.8422477">
        <ele>35.7061</ele>
        <time>2014-07-08T13:14:44Z</time>
      </trkpt>
      <trkpt lat="59.8898009" lon="17.842148">
        <ele>36.6675</ele>
        <time>2014-07-08T13:14:45Z</time>
      </trkpt>
      <trkpt lat="59.8898046" lon="17.8420579">
        <ele>37.1481</ele>
        <time>2014-07-08T13:14:46Z</time>
      </trkpt>
      <trkpt lat="59.8898062" lon="17.8419726">
        <ele>37.6287</ele>
        <time>2014-07-08T13:14:47Z</time>
      </trkpt>
      <trkpt lat="59.8898095" lon="17.8418861">
        <ele>38.1094</ele>
        <time>2014-07-08T13:14:48Z</time>
      </trkpt>
      <trkpt lat="59.8898133" lon="17.8417984">
        <ele>38.1094</ele>
        <time>2014-07-08T13:14:49Z</time>
      </trkpt>
      <trkpt lat="59.8898176" lon="17.8417091">
        <ele>38.1094</ele>
        <time>2014-07-08T13:14:50Z</time>
      </trkpt>
      <trkpt lat="59.8898201" lon="17.8416196">
        <ele>38.1094</ele>
        <time>2014-07-08T13:14:51Z</time>
      </trkpt>
      <trkpt lat="59.8898244" lon="17.8415261">
        <ele>38.5901</ele>
        <time>2014-07-08T13:14:52Z</time>
      </trkpt>
      <trkpt lat="59.8898335" lon="17.8414323">
        <ele>38.5901</ele>
        <time>2014-07-08T13:14:53Z</time>
      </trkpt>
      <trkpt lat="59.8898486" lon="17.8413378">
        <ele>39.0707</ele>
        <time>2014-07-08T13:14:54Z</time>
      </trkpt>
      <trkpt lat="59.8898653" lon="17.8412441">
        <ele>39.0707</ele>
        <time>2014-07-08T13:14:55Z</time>
      </trkpt>
      <trkpt lat="59.8898856" lon="17.841151">
        <ele>39.0707</ele>
        <time>2014-07-08T13:14:56Z</time>
      </trkpt>
      <trkpt lat="59.8899113" lon="17.8410578">
        <ele>39.0707</ele>
        <time>2014-07-08T13:14:57Z</time>
      </trkpt>
      <trkpt lat="59.8899431" lon="17.8409749">
        <ele>38.5901</ele>
        <time>2014-07-08T13:14:58Z</time>
      </trkpt>
      <trkpt lat="59.8899827" lon="17.840906">
        <ele>38.5901</ele>
        <time>2014-07-08T13:14:59Z</time>
      </trkpt>
      <trkpt lat="59.890031" lon="17.8408525">
        <ele>38.5901</ele>
        <time>2014-07-08T13:15:00Z</time>
      </trkpt>
      <trkpt lat="59.8900865" lon="17.8408188">
        <ele>38.1094</ele>
        <time>2014-07-08T13:15:01Z</time>
      </trkpt>
      <trkpt lat="59.890146" lon="17.8408115">
        <ele>37.6287</ele>
        <time>2014-07-08T13:15:02Z</time>
      </trkpt>
      <trkpt lat="59.8902052" lon="17.8408282">
        <ele>37.1481</ele>
        <time>2014-07-08T13:15:03Z</time>
      </trkpt>
      <trkpt lat="59.8902642" lon="17.840861">
        <ele>37.1481</ele>
        <time>2014-07-08T13:15:04Z</time>
      </trkpt>
      <trkpt lat="59.8903201" lon="17.8409122">
        <ele>37.1481</ele>
        <time>2014-07-08T13:15:05Z</time>
      </trkpt>
      <trkpt lat="59.8903703" lon="17.8409732">
        <ele>36.6675</ele>
        <time>2014-07-08T13:15:06Z</time>
      </trkpt>
      <trkpt lat="59.8904148" lon="17.8410374">
        <ele>36.6675</ele>
        <time>2014-07-08T13:15:07Z</time>
      </trkpt>
      <trkpt lat="59.8904575" lon="17.8411035">
        <ele>36.6675</ele>
        <time>2014-07-08T13:15:08Z</time>
      </trkpt>
      <trkpt lat="59.8904973" lon="17.8411728">
        <ele>36.6675</ele>
        <time>2014-07-08T13:15:09Z</time>
      </trkpt>
      <trkpt lat="59.8905349" lon="17.841242">
        <ele>36.6675</ele>
        <time>2014-07-08T13:15:10Z</time>
      </trkpt>
      <trkpt lat="59.8905718" lon="17.8413096">
        <ele>36.6675</ele>
        <time>2014-07-08T13:15:11Z</time>
      </trkpt>
      <trkpt lat="59.8906105" lon="17.8413755">
        <ele>36.6675</ele>
        <time>2014-07-08T13:15:12Z</time>
      </trkpt>
      <trkpt lat="59.8906511" lon="17.8414418">
        <ele>36.6675</ele>
        <time>2014-07-08T13:15:13Z</time>
      </trkpt>
      <trkpt lat="59.8906929" lon="17.8415094">
        <ele>36.6675</ele>
        <time>2014-07-08T13:15:14Z</time>
      </trkpt>
      <trkpt lat="59.8907361" lon="17.8415758">
        <ele>36.6675</ele>
        <time>2014-07-08T13:15:15Z</time>
      </trkpt>
      <trkpt lat="59.8907809" lon="17.841639">
        <ele>37.1481</ele>
        <time>2014-07-08T13:15:16Z</time>
      </trkpt>
      <trkpt lat="59.8908279" lon="17.8416977">
        <ele>37.1481</ele>
        <time>2014-07-08T13:15:17Z</time>
      </trkpt>
      <trkpt lat="59.8908748" lon="17.8417546">
        <ele>37.6287</ele>
        <time>2014-07-08T13:15:18Z</time>
      </trkpt>
      <trkpt lat="59.8909229" lon="17.8418094">
        <ele>37.6287</ele>
        <time>2014-07-08T13:15:19Z</time>
      </trkpt>
      <trkpt lat="59.8909717" lon="17.8418596">
        <ele>37.6287</ele>
        <time>2014-07-08T13:15:20Z</time>
      </trkpt>
      <trkpt lat="59.8910225" lon="17.8419077">
        <ele>37.6287</ele>
        <time>2014-07-08T13:15:21Z</time>
      </trkpt>
      <trkpt lat="59.8910731" lon="17.8419597">
        <ele>37.6287</ele>
        <time>2014-07-08T13:15:22Z</time>
      </trkpt>
      <trkpt lat="59.8911246" lon="17.8420115">
        <ele>37.6287</ele>
        <time>2014-07-08T13:15:23Z</time>
      </trkpt>
      <trkpt lat="59.8911769" lon="17.8420596">
        <ele>37.6287</ele>
        <time>2014-07-08T13:15:24Z</time>
      </trkpt>
      <trkpt lat="59.8912328" lon="17.8421">
        <ele>38.1094</ele>
        <time>2014-07-08T13:15:25Z</time>
      </trkpt>
      <trkpt lat="59.8912877" lon="17.8421374">
        <ele>38.1094</ele>
        <time>2014-07-08T13:15:26Z</time>
      </trkpt>
      <trkpt lat="59.8913432" lon="17.8421735">
        <ele>38.1094</ele>
        <time>2014-07-08T13:15:27Z</time>
      </trkpt>
      <trkpt lat="59.8913991" lon="17.8422057">
        <ele>38.1094</ele>
        <time>2014-07-08T13:15:28Z</time>
      </trkpt>
      <trkpt lat="59.891456" lon="17.8422337">
        <ele>38.1094</ele>
        <time>2014-07-08T13:15:29Z</time>
      </trkpt>
      <trkpt lat="59.8915131" lon="17.8422574">
        <ele>38.1094</ele>
        <time>2014-07-08T13:15:30Z</time>
      </trkpt>
      <trkpt lat="59.8915704" lon="17.8422731">
        <ele>38.1094</ele>
        <time>2014-07-08T13:15:31Z</time>
      </trkpt>
      <trkpt lat="59.8916281" lon="17.842286">
        <ele>38.1094</ele>
        <time>2014-07-08T13:15:32Z</time>
      </trkpt>
      <trkpt lat="59.8916887" lon="17.8422989">
        <ele>37.6287</ele>
        <time>2014-07-08T13:15:33Z</time>
      </trkpt>
      <trkpt lat="59.8917519" lon="17.8423105">
        <ele>37.1481</ele>
        <time>2014-07-08T13:15:34Z</time>
      </trkpt>
      <trkpt lat="59.8918172" lon="17.8423262">
        <ele>37.1481</ele>
        <time>2014-07-08T13:15:35Z</time>
      </trkpt>
      <trkpt lat="59.8918818" lon="17.842344">
        <ele>37.1481</ele>
        <time>2014-07-08T13:15:36Z</time>
      </trkpt>
      <trkpt lat="59.8919483" lon="17.8423617">
        <ele>36.6675</ele>
        <time>2014-07-08T13:15:37Z</time>
      </trkpt>
      <trkpt lat="59.892015" lon="17.8423823">
        <ele>36.6675</ele>
        <time>2014-07-08T13:15:38Z</time>
      </trkpt>
      <trkpt lat="59.8920825" lon="17.8424076">
        <ele>36.1868</ele>
        <time>2014-07-08T13:15:39Z</time>
      </trkpt>
      <trkpt lat="59.8921497" lon="17.8424357">
        <ele>36.1868</ele>
        <time>2014-07-08T13:15:40Z</time>
      </trkpt>
      <trkpt lat="59.8922176" lon="17.8424658">
        <ele>35.7061</ele>
        <time>2014-07-08T13:15:41Z</time>
      </trkpt>
      <trkpt lat="59.8922854" lon="17.8424974">
        <ele>35.7061</ele>
        <time>2014-07-08T13:15:42Z</time>
      </trkpt>
      <trkpt lat="59.8923508" lon="17.8425274">
        <ele>35.2255</ele>
        <time>2014-07-08T13:15:43Z</time>
      </trkpt>
      <trkpt lat="59.8924166" lon="17.8425538">
        <ele>34.7449</ele>
        <time>2014-07-08T13:15:44Z</time>
      </trkpt>
      <trkpt lat="59.8924827" lon="17.8425786">
        <ele>34.2642</ele>
        <time>2014-07-08T13:15:45Z</time>
      </trkpt>
      <trkpt lat="59.8925475" lon="17.8426062">
        <ele>33.7834</ele>
        <time>2014-07-08T13:15:46Z</time>
      </trkpt>
      <trkpt lat="59.8926117" lon="17.8426402">
        <ele>33.3029</ele>
        <time>2014-07-08T13:15:47Z</time>
      </trkpt>
      <trkpt lat="59.892677" lon="17.8426756">
        <ele>33.3029</ele>
        <time>2014-07-08T13:15:48Z</time>
      </trkpt>
      <trkpt lat="59.8927411" lon="17.8427096">
        <ele>32.8223</ele>
        <time>2014-07-08T13:15:49Z</time>
      </trkpt>
      <trkpt lat="59.8928072" lon="17.8427378">
        <ele>32.8223</ele>
        <time>2014-07-08T13:15:50Z</time>
      </trkpt>
      <trkpt lat="59.8928758" lon="17.8427676">
        <ele>32.8223</ele>
        <time>2014-07-08T13:15:51Z</time>
      </trkpt>
      <trkpt lat="59.8929443" lon="17.8428038">
        <ele>32.8223</ele>
        <time>2014-07-08T13:15:52Z</time>
      </trkpt>
      <trkpt lat="59.8930135" lon="17.8428409">
        <ele>32.8223</ele>
        <time>2014-07-08T13:15:53Z</time>
      </trkpt>
      <trkpt lat="59.8930819" lon="17.842875">
        <ele>32.3416</ele>
        <time>2014-07-08T13:15:54Z</time>
      </trkpt>
      <trkpt lat="59.8931511" lon="17.8429069">
        <ele>31.8607</ele>
        <time>2014-07-08T13:15:55Z</time>
      </trkpt>
      <trkpt lat="59.8932194" lon="17.8429377">
        <ele>31.8607</ele>
        <time>2014-07-08T13:15:56Z</time>
      </trkpt>
      <trkpt lat="59.8932884" lon="17.842966">
        <ele>31.3801</ele>
        <time>2014-07-08T13:15:57Z</time>
      </trkpt>
      <trkpt lat="59.8933589" lon="17.8429921">
        <ele>31.3801</ele>
        <time>2014-07-08T13:15:58Z</time>
      </trkpt>
      <trkpt lat="59.8934238" lon="17.8430126">
        <ele>31.3801</ele>
        <time>2014-07-08T13:15:59Z</time>
      </trkpt>
      <trkpt lat="59.8934906" lon="17.8430264">
        <ele>31.3801</ele>
        <time>2014-07-08T13:16:00Z</time>
      </trkpt>
      <trkpt lat="59.8935609" lon="17.843035">
        <ele>32.3416</ele>
        <time>2014-07-08T13:16:01Z</time>
      </trkpt>
      <trkpt lat="59.893617" lon="17.843049">
        <ele>31.8607</ele>
        <time>2014-07-08T13:16:02Z</time>
      </trkpt>
      <trkpt lat="59.8936726" lon="17.8430634">
        <ele>31.8607</ele>
        <time>2014-07-08T13:16:03Z</time>
      </trkpt>
      <trkpt lat="59.8937307" lon="17.843077">
        <ele>31.3801</ele>
        <time>2014-07-08T13:16:04Z</time>
      </trkpt>
      <trkpt lat="59.8938048" lon="17.843081">
        <ele>32.3416</ele>
        <time>2014-07-08T13:16:05Z</time>
      </trkpt>
      <trkpt lat="59.8938875" lon="17.8430794">
        <ele>33.7834</ele>
        <time>2014-07-08T13:16:06Z</time>
      </trkpt>
      <trkpt lat="59.8939431" lon="17.8430844">
        <ele>33.7834</ele>
        <time>2014-07-08T13:16:07Z</time>
      </trkpt>
      <trkpt lat="59.8940027" lon="17.8430867">
        <ele>33.7834</ele>
        <time>2014-07-08T13:16:08Z</time>
      </trkpt>
      <trkpt lat="59.8940789" lon="17.8430832">
        <ele>34.7449</ele>
        <time>2014-07-08T13:16:09Z</time>
      </trkpt>
      <trkpt lat="59.8941569" lon="17.8430786">
        <ele>35.7061</ele>
        <time>2014-07-08T13:16:10Z</time>
      </trkpt>
      <trkpt lat="59.8942285" lon="17.8430805">
        <ele>36.6675</ele>
        <time>2014-07-08T13:16:11Z</time>
      </trkpt>
      <trkpt lat="59.8943088" lon="17.8430868">
        <ele>37.1481</ele>
        <time>2014-07-08T13:16:12Z</time>
      </trkpt>
      <trkpt lat="59.8943885" lon="17.8430925">
        <ele>37.6287</ele>
        <time>2014-07-08T13:16:13Z</time>
      </trkpt>
      <trkpt lat="59.8944699" lon="17.8430998">
        <ele>38.5901</ele>
        <time>2014-07-08T13:16:14Z</time>
      </trkpt>
      <trkpt lat="59.8945392" lon="17.8431138">
        <ele>38.5901</ele>
        <time>2014-07-08T13:16:15Z</time>
      </trkpt>
      <trkpt lat="59.894604" lon="17.8431293">
        <ele>38.5901</ele>
        <time>2014-07-08T13:16:16Z</time>
      </trkpt>
      <trkpt lat="59.8946701" lon="17.8431455">
        <ele>38.5901</ele>
        <time>2014-07-08T13:16:17Z</time>
      </trkpt>
      <trkpt lat="59.8947383" lon="17.8431581">
        <ele>38.5901</ele>
        <time>2014-07-08T13:16:18Z</time>
      </trkpt>
      <trkpt lat="59.8947989" lon="17.8431692">
        <ele>38.1094</ele>
        <time>2014-07-08T13:16:19Z</time>
      </trkpt>
      <trkpt lat="59.8948624" lon="17.8431753">
        <ele>37.6287</ele>
        <time>2014-07-08T13:16:20Z</time>
      </trkpt>
      <trkpt lat="59.8949294" lon="17.8431728">
        <ele>37.6287</ele>
        <time>2014-07-08T13:16:21Z</time>
      </trkpt>
      <trkpt lat="59.894995" lon="17.8431602">
        <ele>37.1481</ele>
        <time>2014-07-08T13:16:22Z</time>
      </trkpt>
      <trkpt lat="59.8950598" lon="17.8431437">
        <ele>36.1868</ele>
        <time>2014-07-08T13:16:23Z</time>
      </trkpt>
      <trkpt lat="59.8951267" lon="17.8431229">
        <ele>35.7061</ele>
        <time>2014-07-08T13:16:24Z</time>
      </trkpt>
      <trkpt lat="59.8952025" lon="17.8430983">
        <ele>36.1868</ele>
        <time>2014-07-08T13:16:25Z</time>
      </trkpt>
      <trkpt lat="59.8952753" lon="17.8430693">
        <ele>36.6675</ele>
        <time>2014-07-08T13:16:26Z</time>
      </trkpt>
      <trkpt lat="59.8953356" lon="17.8430417">
        <ele>36.1868</ele>
        <time>2014-07-08T13:16:27Z</time>
      </trkpt>
      <trkpt lat="59.8954002" lon="17.8430127">
        <ele>36.1868</ele>
        <time>2014-07-08T13:16:28Z</time>
      </trkpt>
      <trkpt lat="59.8954619" lon="17.8429836">
        <ele>35.7061</ele>
        <time>2014-07-08T13:16:29Z</time>
      </trkpt>
      <trkpt lat="59.8955225" lon="17.8429517">
        <ele>36.1868</ele>
        <time>2014-07-08T13:16:30Z</time>
      </trkpt>
      <trkpt lat="59.8955832" lon="17.842918">
        <ele>36.1868</ele>
        <time>2014-07-08T13:16:31Z</time>
      </trkpt>
      <trkpt lat="59.8956385" lon="17.8428875">
        <ele>35.7061</ele>
        <time>2014-07-08T13:16:32Z</time>
      </trkpt>
      <trkpt lat="59.8957025" lon="17.8428548">
        <ele>35.7061</ele>
        <time>2014-07-08T13:16:33Z</time>
      </trkpt>
      <trkpt lat="59.895767" lon="17.8428319">
        <ele>35.7061</ele>
        <time>2014-07-08T13:16:34Z</time>
      </trkpt>
      <trkpt lat="59.8958462" lon="17.8428102">
        <ele>36.1868</ele>
        <time>2014-07-08T13:16:35Z</time>
      </trkpt>
      <trkpt lat="59.8959187" lon="17.8427982">
        <ele>36.1868</ele>
        <time>2014-07-08T13:16:36Z</time>
      </trkpt>
      <trkpt lat="59.8959877" lon="17.8427957">
        <ele>35.7061</ele>
        <time>2014-07-08T13:16:37Z</time>
      </trkpt>
      <trkpt lat="59.8960569" lon="17.8427973">
        <ele>35.7061</ele>
        <time>2014-07-08T13:16:38Z</time>
      </trkpt>
      <trkpt lat="59.8961254" lon="17.8428055">
        <ele>35.2255</ele>
        <time>2014-07-08T13:16:39Z</time>
      </trkpt>
      <trkpt lat="59.896196" lon="17.8428201">
        <ele>35.2255</ele>
        <time>2014-07-08T13:16:40Z</time>
      </trkpt>
      <trkpt lat="59.896272" lon="17.8428375">
        <ele>35.7061</ele>
        <time>2014-07-08T13:16:41Z</time>
      </trkpt>
      <trkpt lat="59.8963435" lon="17.8428596">
        <ele>36.1868</ele>
        <time>2014-07-08T13:16:42Z</time>
      </trkpt>
      <trkpt lat="59.8964138" lon="17.8428822">
        <ele>37.1481</ele>
        <time>2014-07-08T13:16:43Z</time>
      </trkpt>
      <trkpt lat="59.8964745" lon="17.8429059">
        <ele>37.1481</ele>
        <time>2014-07-08T13:16:44Z</time>
      </trkpt>
      <trkpt lat="59.8965299" lon="17.8429214">
        <ele>36.6675</ele>
        <time>2014-07-08T13:16:45Z</time>
      </trkpt>
      <trkpt lat="59.896583" lon="17.8429247">
        <ele>37.1481</ele>
        <time>2014-07-08T13:16:46Z</time>
      </trkpt>
      <trkpt lat="59.8966347" lon="17.8429204">
        <ele>37.1481</ele>
        <time>2014-07-08T13:16:47Z</time>
      </trkpt>
      <trkpt lat="59.89669" lon="17.8429108">
        <ele>37.1481</ele>
        <time>2014-07-08T13:16:48Z</time>
      </trkpt>
      <trkpt lat="59.8967456" lon="17.8428988">
        <ele>37.6287</ele>
        <time>2014-07-08T13:16:49Z</time>
      </trkpt>
      <trkpt lat="59.8967989" lon="17.8428794">
        <ele>37.6287</ele>
        <time>2014-07-08T13:16:50Z</time>
      </trkpt>
      <trkpt lat="59.8968482" lon="17.842862">
        <ele>37.6287</ele>
        <time>2014-07-08T13:16:51Z</time>
      </trkpt>
      <trkpt lat="59.896896" lon="17.8428313">
        <ele>37.6287</ele>
        <time>2014-07-08T13:16:52Z</time>
      </trkpt>
      <trkpt lat="59.8969453" lon="17.8427917">
        <ele>38.1094</ele>
        <time>2014-07-08T13:16:53Z</time>
      </trkpt>
      <trkpt lat="59.897003" lon="17.8427404">
        <ele>38.1094</ele>
        <time>2014-07-08T13:16:54Z</time>
      </trkpt>
      <trkpt lat="59.8970668" lon="17.8426894">
        <ele>39.0707</ele>
        <time>2014-07-08T13:16:55Z</time>
      </trkpt>
      <trkpt lat="59.8971387" lon="17.8426375">
        <ele>40.0321</ele>
        <time>2014-07-08T13:16:56Z</time>
      </trkpt>
      <trkpt lat="59.8972061" lon="17.8425885">
        <ele>41.474</ele>
        <time>2014-07-08T13:16:57Z</time>
      </trkpt>
      <trkpt lat="59.897267" lon="17.842542">
        <ele>41.9547</ele>
        <time>2014-07-08T13:16:58Z</time>
      </trkpt>
      <trkpt lat="59.8973198" lon="17.8424985">
        <ele>42.4354</ele>
        <time>2014-07-08T13:16:59Z</time>
      </trkpt>
      <trkpt lat="59.8973706" lon="17.8424607">
        <ele>42.4354</ele>
        <time>2014-07-08T13:17:00Z</time>
      </trkpt>
      <trkpt lat="59.897424" lon="17.8424241">
        <ele>42.916</ele>
        <time>2014-07-08T13:17:01Z</time>
      </trkpt>
      <trkpt lat="59.8974762" lon="17.8423901">
        <ele>43.3966</ele>
        <time>2014-07-08T13:17:02Z</time>
      </trkpt>
      <trkpt lat="59.8975281" lon="17.8423616">
        <ele>42.916</ele>
        <time>2014-07-08T13:17:03Z</time>
      </trkpt>
      <trkpt lat="59.8975809" lon="17.8423373">
        <ele>42.916</ele>
        <time>2014-07-08T13:17:04Z</time>
      </trkpt>
      <trkpt lat="59.8976349" lon="17.8423195">
        <ele>42.916</ele>
        <time>2014-07-08T13:17:05Z</time>
      </trkpt>
      <trkpt lat="59.8976929" lon="17.8423032">
        <ele>42.916</ele>
        <time>2014-07-08T13:17:06Z</time>
      </trkpt>
      <trkpt lat="59.8977493" lon="17.8422938">
        <ele>43.3966</ele>
        <time>2014-07-08T13:17:07Z</time>
      </trkpt>
      <trkpt lat="59.8978139" lon="17.842284">
        <ele>43.8773</ele>
        <time>2014-07-08T13:17:08Z</time>
      </trkpt>
      <trkpt lat="59.8978629" lon="17.8422849">
        <ele>43.8773</ele>
        <time>2014-07-08T13:17:09Z</time>
      </trkpt>
      <trkpt lat="59.8979178" lon="17.8422894">
        <ele>43.8773</ele>
        <time>2014-07-08T13:17:10Z</time>
      </trkpt>
      <trkpt lat="59.8979716" lon="17.8423008">
        <ele>43.3966</ele>
        <time>2014-07-08T13:17:11Z</time>
      </trkpt>
      <trkpt lat="59.8980246" lon="17.8423159">
        <ele>42.916</ele>
        <time>2014-07-08T13:17:12Z</time>
      </trkpt>
      <trkpt lat="59.8980768" lon="17.8423241">
        <ele>42.4354</ele>
        <time>2014-07-08T13:17:13Z</time>
      </trkpt>
      <trkpt lat="59.8981259" lon="17.842328">
        <ele>41.9547</ele>
        <time>2014-07-08T13:17:14Z</time>
      </trkpt>
      <trkpt lat="59.8981743" lon="17.8423309">
        <ele>41.9547</ele>
        <time>2014-07-08T13:17:15Z</time>
      </trkpt>
      <trkpt lat="59.8982232" lon="17.8423327">
        <ele>41.474</ele>
        <time>2014-07-08T13:17:16Z</time>
      </trkpt>
      <trkpt lat="59.8982708" lon="17.8423327">
        <ele>40.9934</ele>
        <time>2014-07-08T13:17:17Z</time>
      </trkpt>
      <trkpt lat="59.8983204" lon="17.8423258">
        <ele>40.9934</ele>
        <time>2014-07-08T13:17:18Z</time>
      </trkpt>
      <trkpt lat="59.8983701" lon="17.8423118">
        <ele>40.9934</ele>
        <time>2014-07-08T13:17:19Z</time>
      </trkpt>
      <trkpt lat="59.8984202" lon="17.8422933">
        <ele>40.9934</ele>
        <time>2014-07-08T13:17:20Z</time>
      </trkpt>
      <trkpt lat="59.8984802" lon="17.8422711">
        <ele>41.9547</ele>
        <time>2014-07-08T13:17:21Z</time>
      </trkpt>
      <trkpt lat="59.8985394" lon="17.8422492">
        <ele>42.4354</ele>
        <time>2014-07-08T13:17:22Z</time>
      </trkpt>
      <trkpt lat="59.8985983" lon="17.8422273">
        <ele>43.3966</ele>
        <time>2014-07-08T13:17:23Z</time>
      </trkpt>
      <trkpt lat="59.898657" lon="17.8422069">
        <ele>43.8773</ele>
        <time>2014-07-08T13:17:24Z</time>
      </trkpt>
      <trkpt lat="59.8987132" lon="17.8421808">
        <ele>44.358</ele>
        <time>2014-07-08T13:17:25Z</time>
      </trkpt>
      <trkpt lat="59.8987682" lon="17.8421551">
        <ele>44.8386</ele>
        <time>2014-07-08T13:17:26Z</time>
      </trkpt>
      <trkpt lat="59.8988217" lon="17.8421315">
        <ele>45.3192</ele>
        <time>2014-07-08T13:17:27Z</time>
      </trkpt>
      <trkpt lat="59.8988745" lon="17.8421052">
        <ele>45.7999</ele>
        <time>2014-07-08T13:17:28Z</time>
      </trkpt>
      <trkpt lat="59.8989257" lon="17.8420778">
        <ele>45.7999</ele>
        <time>2014-07-08T13:17:29Z</time>
      </trkpt>
      <trkpt lat="59.8989762" lon="17.8420501">
        <ele>45.7999</ele>
        <time>2014-07-08T13:17:30Z</time>
      </trkpt>
      <trkpt lat="59.8990294" lon="17.8420162">
        <ele>45.7999</ele>
        <time>2014-07-08T13:17:31Z</time>
      </trkpt>
      <trkpt lat="59.8990844" lon="17.8419762">
        <ele>45.7999</ele>
        <time>2014-07-08T13:17:32Z</time>
      </trkpt>
      <trkpt lat="59.8991427" lon="17.8419277">
        <ele>45.7999</ele>
        <time>2014-07-08T13:17:33Z</time>
      </trkpt>
      <trkpt lat="59.8992012" lon="17.8418633">
        <ele>45.7999</ele>
        <time>2014-07-08T13:17:34Z</time>
      </trkpt>
      <trkpt lat="59.8992584" lon="17.8417934">
        <ele>45.7999</ele>
        <time>2014-07-08T13:17:35Z</time>
      </trkpt>
      <trkpt lat="59.8993186" lon="17.8417282">
        <ele>45.7999</ele>
        <time>2014-07-08T13:17:36Z</time>
      </trkpt>
      <trkpt lat="59.8993778" lon="17.8416665">
        <ele>45.3192</ele>
        <time>2014-07-08T13:17:37Z</time>
      </trkpt>
      <trkpt lat="59.8994406" lon="17.8416105">
        <ele>45.3192</ele>
        <time>2014-07-08T13:17:38Z</time>
      </trkpt>
      <trkpt lat="59.8995044" lon="17.8415686">
        <ele>44.8386</ele>
        <time>2014-07-08T13:17:39Z</time>
      </trkpt>
      <trkpt lat="59.8995738" lon="17.8415383">
        <ele>44.8386</ele>
        <time>2014-07-08T13:17:40Z</time>
      </trkpt>
      <trkpt lat="59.8996482" lon="17.841514">
        <ele>43.8773</ele>
        <time>2014-07-08T13:17:41Z</time>
      </trkpt>
      <trkpt lat="59.8997256" lon="17.8414945">
        <ele>42.916</ele>
        <time>2014-07-08T13:17:42Z</time>
      </trkpt>
      <trkpt lat="59.8998085" lon="17.841478">
        <ele>41.9547</ele>
        <time>2014-07-08T13:17:43Z</time>
      </trkpt>
      <trkpt lat="59.8998986" lon="17.8414639">
        <ele>40.9934</ele>
        <time>2014-07-08T13:17:44Z</time>
      </trkpt>
      <trkpt lat="59.8999892" lon="17.841453">
        <ele>40.0321</ele>
        <time>2014-07-08T13:17:45Z</time>
      </trkpt>
      <trkpt lat="59.9000924" lon="17.8414306">
        <ele>38.5901</ele>
        <time>2014-07-08T13:17:46Z</time>
      </trkpt>
      <trkpt lat="59.9001937" lon="17.8414137">
        <ele>37.6287</ele>
        <time>2014-07-08T13:17:47Z</time>
      </trkpt>
      <trkpt lat="59.9002984" lon="17.8414145">
        <ele>36.6675</ele>
        <time>2014-07-08T13:17:48Z</time>
      </trkpt>
      <trkpt lat="59.9003964" lon="17.8414143">
        <ele>35.2255</ele>
        <time>2014-07-08T13:17:49Z</time>
      </trkpt>
      <trkpt lat="59.9004959" lon="17.8414194">
        <ele>34.2642</ele>
        <time>2014-07-08T13:17:50Z</time>
      </trkpt>
      <trkpt lat="59.9005928" lon="17.8414277">
        <ele>33.3029</ele>
        <time>2014-07-08T13:17:51Z</time>
      </trkpt>
      <trkpt lat="59.9006856" lon="17.8414432">
        <ele>32.3416</ele>
        <time>2014-07-08T13:17:52Z</time>
      </trkpt>
      <trkpt lat="59.9007803" lon="17.8414572">
        <ele>31.3801</ele>
        <time>2014-07-08T13:17:53Z</time>
      </trkpt>
      <trkpt lat="59.900875" lon="17.8414711">
        <ele>30.8995</ele>
        <time>2014-07-08T13:17:54Z</time>
      </trkpt>
      <trkpt lat="59.90097" lon="17.8414861">
        <ele>30.4188</ele>
        <time>2014-07-08T13:17:55Z</time>
      </trkpt>
      <trkpt lat="59.9010671" lon="17.8415001">
        <ele>29.9381</ele>
        <time>2014-07-08T13:17:56Z</time>
      </trkpt>
      <trkpt lat="59.9011653" lon="17.8415142">
        <ele>29.9381</ele>
        <time>2014-07-08T13:17:57Z</time>
      </trkpt>
      <trkpt lat="59.901261" lon="17.841528">
        <ele>29.4575</ele>
        <time>2014-07-08T13:17:58Z</time>
      </trkpt>
      <trkpt lat="59.9013536" lon="17.8415443">
        <ele>28.9769</ele>
        <time>2014-07-08T13:17:59Z</time>
      </trkpt>
      <trkpt lat="59.9014452" lon="17.8415613">
        <ele>28.4962</ele>
        <time>2014-07-08T13:18:00Z</time>
      </trkpt>
      <trkpt lat="59.9015349" lon="17.8415805">
        <ele>28.4962</ele>
        <time>2014-07-08T13:18:01Z</time>
      </trkpt>
      <trkpt lat="59.9016235" lon="17.8415953">
        <ele>28.4962</ele>
        <time>2014-07-08T13:18:02Z</time>
      </trkpt>
      <trkpt lat="59.90171" lon="17.8416096">
        <ele>28.0155</ele>
        <time>2014-07-08T13:18:03Z</time>
      </trkpt>
      <trkpt lat="59.9017966" lon="17.8416251">
        <ele>28.4962</ele>
        <time>2014-07-08T13:18:04Z</time>
      </trkpt>
      <trkpt lat="59.9018809" lon="17.8416395">
        <ele>28.4962</ele>
        <time>2014-07-08T13:18:05Z</time>
      </trkpt>
      <trkpt lat="59.9019628" lon="17.8416502">
        <ele>28.9769</ele>
        <time>2014-07-08T13:18:06Z</time>
      </trkpt>
      <trkpt lat="59.9020458" lon="17.8416602">
        <ele>28.9769</ele>
        <time>2014-07-08T13:18:07Z</time>
      </trkpt>
      <trkpt lat="59.9021262" lon="17.8416616">
        <ele>28.9769</ele>
        <time>2014-07-08T13:18:08Z</time>
      </trkpt>
      <trkpt lat="59.902211" lon="17.8416463">
        <ele>28.9769</ele>
        <time>2014-07-08T13:18:09Z</time>
      </trkpt>
      <trkpt lat="59.9022986" lon="17.8416179">
        <ele>28.4962</ele>
        <time>2014-07-08T13:18:10Z</time>
      </trkpt>
      <trkpt lat="59.90239" lon="17.8415798">
        <ele>28.4962</ele>
        <time>2014-07-08T13:18:11Z</time>
      </trkpt>
      <trkpt lat="59.9024859" lon="17.8415375">
        <ele>28.0155</ele>
        <time>2014-07-08T13:18:12Z</time>
      </trkpt>
      <trkpt lat="59.9025856" lon="17.8414919">
        <ele>28.0155</ele>
        <time>2014-07-08T13:18:13Z</time>
      </trkpt>
      <trkpt lat="59.9026879" lon="17.8414495">
        <ele>27.5349</ele>
        <time>2014-07-08T13:18:14Z</time>
      </trkpt>
      <trkpt lat="59.9027907" lon="17.8414064">
        <ele>27.5349</ele>
        <time>2014-07-08T13:18:15Z</time>
      </trkpt>
      <trkpt lat="59.9028925" lon="17.8413619">
        <ele>27.5349</ele>
        <time>2014-07-08T13:18:16Z</time>
      </trkpt>
      <trkpt lat="59.9029904" lon="17.8413218">
        <ele>27.5349</ele>
        <time>2014-07-08T13:18:17Z</time>
      </trkpt>
      <trkpt lat="59.9030845" lon="17.8413028">
        <ele>27.5349</ele>
        <time>2014-07-08T13:18:18Z</time>
      </trkpt>
      <trkpt lat="59.9031755" lon="17.8413163">
        <ele>27.5349</ele>
        <time>2014-07-08T13:18:19Z</time>
      </trkpt>
      <trkpt lat="59.9032604" lon="17.8413619">
        <ele>27.5349</ele>
        <time>2014-07-08T13:18:20Z</time>
      </trkpt>
      <trkpt lat="59.9033393" lon="17.8414314">
        <ele>27.5349</ele>
        <time>2014-07-08T13:18:21Z</time>
      </trkpt>
      <trkpt lat="59.9034153" lon="17.8415183">
        <ele>27.5349</ele>
        <time>2014-07-08T13:18:22Z</time>
      </trkpt>
      <trkpt lat="59.9034863" lon="17.8416182">
        <ele>27.5349</ele>
        <time>2014-07-08T13:18:23Z</time>
      </trkpt>
      <trkpt lat="59.9035564" lon="17.841724">
        <ele>27.0543</ele>
        <time>2014-07-08T13:18:24Z</time>
      </trkpt>
      <trkpt lat="59.9036281" lon="17.8418228">
        <ele>26.5736</ele>
        <time>2014-07-08T13:18:25Z</time>
      </trkpt>
      <trkpt lat="59.9037076" lon="17.8419082">
        <ele>26.5736</ele>
        <time>2014-07-08T13:18:26Z</time>
      </trkpt>
      <trkpt lat="59.9037902" lon="17.8419797">
        <ele>26.5736</ele>
        <time>2014-07-08T13:18:27Z</time>
      </trkpt>
      <trkpt lat="59.9038754" lon="17.8420311">
        <ele>26.5736</ele>
        <time>2014-07-08T13:18:28Z</time>
      </trkpt>
      <trkpt lat="59.9039605" lon="17.8420693">
        <ele>26.0929</ele>
        <time>2014-07-08T13:18:29Z</time>
      </trkpt>
      <trkpt lat="59.9040531" lon="17.8420912">
        <ele>27.0543</ele>
        <time>2014-07-08T13:18:30Z</time>
      </trkpt>
      <trkpt lat="59.9041333" lon="17.8420545">
        <ele>27.0543</ele>
        <time>2014-07-08T13:18:31Z</time>
      </trkpt>
      <trkpt lat="59.904214" lon="17.8420107">
        <ele>26.5736</ele>
        <time>2014-07-08T13:18:32Z</time>
      </trkpt>
      <trkpt lat="59.9042914" lon="17.8419703">
        <ele>26.0929</ele>
        <time>2014-07-08T13:18:33Z</time>
      </trkpt>
      <trkpt lat="59.9043901" lon="17.8419051">
        <ele>25.6123</ele>
        <time>2014-07-08T13:18:34Z</time>
      </trkpt>
      <trkpt lat="59.9044897" lon="17.8418287">
        <ele>25.6123</ele>
        <time>2014-07-08T13:18:35Z</time>
      </trkpt>
      <trkpt lat="59.9045815" lon="17.8417529">
        <ele>25.6123</ele>
        <time>2014-07-08T13:18:36Z</time>
      </trkpt>
      <trkpt lat="59.9046681" lon="17.841689">
        <ele>25.6123</ele>
        <time>2014-07-08T13:18:37Z</time>
      </trkpt>
      <trkpt lat="59.9047512" lon="17.8416333">
        <ele>25.6123</ele>
        <time>2014-07-08T13:18:38Z</time>
      </trkpt>
      <trkpt lat="59.9048429" lon="17.841573">
        <ele>25.1317</ele>
        <time>2014-07-08T13:18:39Z</time>
      </trkpt>
      <trkpt lat="59.9049338" lon="17.8415146">
        <ele>24.651</ele>
        <time>2014-07-08T13:18:40Z</time>
      </trkpt>
      <trkpt lat="59.9050353" lon="17.8414608">
        <ele>24.651</ele>
        <time>2014-07-08T13:18:41Z</time>
      </trkpt>
      <trkpt lat="59.9051367" lon="17.8414212">
        <ele>23.6896</ele>
        <time>2014-07-08T13:18:42Z</time>
      </trkpt>
      <trkpt lat="59.9052361" lon="17.8413867">
        <ele>22.7283</ele>
        <time>2014-07-08T13:18:43Z</time>
      </trkpt>
      <trkpt lat="59.9053336" lon="17.8413534">
        <ele>21.2864</ele>
        <time>2014-07-08T13:18:44Z</time>
      </trkpt>
      <trkpt lat="59.9054329" lon="17.8413209">
        <ele>20.325</ele>
        <time>2014-07-08T13:18:45Z</time>
      </trkpt>
      <trkpt lat="59.9055356" lon="17.8412877">
        <ele>19.3638</ele>
        <time>2014-07-08T13:18:46Z</time>
      </trkpt>
      <trkpt lat="59.9056376" lon="17.8412494">
        <ele>18.8831</ele>
        <time>2014-07-08T13:18:47Z</time>
      </trkpt>
      <trkpt lat="59.9057392" lon="17.8411966">
        <ele>18.4023</ele>
        <time>2014-07-08T13:18:48Z</time>
      </trkpt>
      <trkpt lat="59.9058359" lon="17.8411272">
        <ele>18.4023</ele>
        <time>2014-07-08T13:18:49Z</time>
      </trkpt>
      <trkpt lat="59.9059328" lon="17.8410345">
        <ele>18.4023</ele>
        <time>2014-07-08T13:18:50Z</time>
      </trkpt>
      <trkpt lat="59.906023" lon="17.840923">
        <ele>18.8831</ele>
        <time>2014-07-08T13:18:51Z</time>
      </trkpt>
      <trkpt lat="59.9061038" lon="17.8407986">
        <ele>19.3638</ele>
        <time>2014-07-08T13:18:52Z</time>
      </trkpt>
      <trkpt lat="59.9061786" lon="17.8406725">
        <ele>19.3638</ele>
        <time>2014-07-08T13:18:53Z</time>
      </trkpt>
      <trkpt lat="59.9062546" lon="17.8405544">
        <ele>19.3638</ele>
        <time>2014-07-08T13:18:54Z</time>
      </trkpt>
      <trkpt lat="59.9063322" lon="17.8404524">
        <ele>19.8444</ele>
        <time>2014-07-08T13:18:55Z</time>
      </trkpt>
      <trkpt lat="59.9064111" lon="17.8403658">
        <ele>19.8444</ele>
        <time>2014-07-08T13:18:56Z</time>
      </trkpt>
      <trkpt lat="59.9064881" lon="17.8402896">
        <ele>19.8444</ele>
        <time>2014-07-08T13:18:57Z</time>
      </trkpt>
      <trkpt lat="59.9065668" lon="17.840213">
        <ele>20.325</ele>
        <time>2014-07-08T13:18:58Z</time>
      </trkpt>
      <trkpt lat="59.9066424" lon="17.8401435">
        <ele>20.325</ele>
        <time>2014-07-08T13:18:59Z</time>
      </trkpt>
      <trkpt lat="59.9067233" lon="17.8400778">
        <ele>20.325</ele>
        <time>2014-07-08T13:19:00Z</time>
      </trkpt>
      <trkpt lat="59.9068012" lon="17.8400175">
        <ele>20.325</ele>
        <time>2014-07-08T13:19:01Z</time>
      </trkpt>
      <trkpt lat="59.9068794" lon="17.8399595">
        <ele>20.325</ele>
        <time>2014-07-08T13:19:02Z</time>
      </trkpt>
      <trkpt lat="59.9069553" lon="17.8399021">
        <ele>19.8444</ele>
        <time>2014-07-08T13:19:03Z</time>
      </trkpt>
      <trkpt lat="59.9070306" lon="17.8398477">
        <ele>19.8444</ele>
        <time>2014-07-08T13:19:04Z</time>
      </trkpt>
      <trkpt lat="59.9071079" lon="17.8397913">
        <ele>19.8444</ele>
        <time>2014-07-08T13:19:05Z</time>
      </trkpt>
      <trkpt lat="59.9071809" lon="17.839733">
        <ele>19.8444</ele>
        <time>2014-07-08T13:19:06Z</time>
      </trkpt>
      <trkpt lat="59.9072545" lon="17.8396752">
        <ele>20.8057</ele>
        <time>2014-07-08T13:19:07Z</time>
      </trkpt>
      <trkpt lat="59.9073238" lon="17.8396172">
        <ele>20.8057</ele>
        <time>2014-07-08T13:19:08Z</time>
      </trkpt>
      <trkpt lat="59.9073923" lon="17.8395576">
        <ele>21.767</ele>
        <time>2014-07-08T13:19:09Z</time>
      </trkpt>
      <trkpt lat="59.9074586" lon="17.8394944">
        <ele>22.2476</ele>
        <time>2014-07-08T13:19:10Z</time>
      </trkpt>
      <trkpt lat="59.9075194" lon="17.8394287">
        <ele>22.7283</ele>
        <time>2014-07-08T13:19:11Z</time>
      </trkpt>
      <trkpt lat="59.907576" lon="17.8393625">
        <ele>22.7283</ele>
        <time>2014-07-08T13:19:12Z</time>
      </trkpt>
      <trkpt lat="59.9076356" lon="17.8392898">
        <ele>23.209</ele>
        <time>2014-07-08T13:19:13Z</time>
      </trkpt>
      <trkpt lat="59.9076957" lon="17.8392121">
        <ele>23.6896</ele>
        <time>2014-07-08T13:19:14Z</time>
      </trkpt>
      <trkpt lat="59.9077574" lon="17.8391339">
        <ele>23.6896</ele>
        <time>2014-07-08T13:19:15Z</time>
      </trkpt>
      <trkpt lat="59.9078235" lon="17.8390574">
        <ele>23.6896</ele>
        <time>2014-07-08T13:19:16Z</time>
      </trkpt>
      <trkpt lat="59.9078916" lon="17.8389799">
        <ele>23.6896</ele>
        <time>2014-07-08T13:19:17Z</time>
      </trkpt>
      <trkpt lat="59.9079624" lon="17.8389024">
        <ele>23.6896</ele>
        <time>2014-07-08T13:19:18Z</time>
      </trkpt>
      <trkpt lat="59.908035" lon="17.8388304">
        <ele>23.6896</ele>
        <time>2014-07-08T13:19:19Z</time>
      </trkpt>
      <trkpt lat="59.9081122" lon="17.8387739">
        <ele>23.6896</ele>
        <time>2014-07-08T13:19:20Z</time>
      </trkpt>
      <trkpt lat="59.9081892" lon="17.8387341">
        <ele>23.6896</ele>
        <time>2014-07-08T13:19:21Z</time>
      </trkpt>
      <trkpt lat="59.9082676" lon="17.8387146">
        <ele>23.209</ele>
        <time>2014-07-08T13:19:22Z</time>
      </trkpt>
      <trkpt lat="59.9083472" lon="17.8387061">
        <ele>23.209</ele>
        <time>2014-07-08T13:19:23Z</time>
      </trkpt>
      <trkpt lat="59.9084273" lon="17.8387139">
        <ele>22.7283</ele>
        <time>2014-07-08T13:19:24Z</time>
      </trkpt>
      <trkpt lat="59.9085074" lon="17.8387398">
        <ele>22.2476</ele>
        <time>2014-07-08T13:19:25Z</time>
      </trkpt>
      <trkpt lat="59.9085851" lon="17.8387888">
        <ele>21.2864</ele>
        <time>2014-07-08T13:19:26Z</time>
      </trkpt>
      <trkpt lat="59.9086618" lon="17.8388614">
        <ele>20.8057</ele>
        <time>2014-07-08T13:19:27Z</time>
      </trkpt>
      <trkpt lat="59.9087389" lon="17.8389545">
        <ele>20.325</ele>
        <time>2014-07-08T13:19:28Z</time>
      </trkpt>
      <trkpt lat="59.9088141" lon="17.8390627">
        <ele>19.8444</ele>
        <time>2014-07-08T13:19:29Z</time>
      </trkpt>
      <trkpt lat="59.908883" lon="17.8391897">
        <ele>18.8831</ele>
        <time>2014-07-08T13:19:30Z</time>
      </trkpt>
      <trkpt lat="59.9089473" lon="17.8393331">
        <ele>18.4023</ele>
        <time>2014-07-08T13:19:31Z</time>
      </trkpt>
      <trkpt lat="59.9090079" lon="17.8394868">
        <ele>17.4412</ele>
        <time>2014-07-08T13:19:32Z</time>
      </trkpt>
      <trkpt lat="59.9090678" lon="17.839646">
        <ele>16.9604</ele>
        <time>2014-07-08T13:19:33Z</time>
      </trkpt>
      <trkpt lat="59.9091263" lon="17.8398084">
        <ele>16.4797</ele>
        <time>2014-07-08T13:19:34Z</time>
      </trkpt>
      <trkpt lat="59.9091854" lon="17.839971">
        <ele>16.4797</ele>
        <time>2014-07-08T13:19:35Z</time>
      </trkpt>
      <trkpt lat="59.9092452" lon="17.8401327">
        <ele>15.999</ele>
        <time>2014-07-08T13:19:36Z</time>
      </trkpt>
      <trkpt lat="59.9093051" lon="17.8402932">
        <ele>15.999</ele>
        <time>2014-07-08T13:19:37Z</time>
      </trkpt>
      <trkpt lat="59.9093642" lon="17.8404507">
        <ele>15.999</ele>
        <time>2014-07-08T13:19:38Z</time>
      </trkpt>
      <trkpt lat="59.909422" lon="17.8406043">
        <ele>15.999</ele>
        <time>2014-07-08T13:19:39Z</time>
      </trkpt>
      <trkpt lat="59.9094759" lon="17.8407574">
        <ele>15.999</ele>
        <time>2014-07-08T13:19:40Z</time>
      </trkpt>
      <trkpt lat="59.9095248" lon="17.8409122">
        <ele>15.5184</ele>
        <time>2014-07-08T13:19:41Z</time>
      </trkpt>
      <trkpt lat="59.9095676" lon="17.8410758">
        <ele>15.999</ele>
        <time>2014-07-08T13:19:42Z</time>
      </trkpt>
      <trkpt lat="59.9096007" lon="17.84125">
        <ele>15.999</ele>
        <time>2014-07-08T13:19:43Z</time>
      </trkpt>
      <trkpt lat="59.9096228" lon="17.8414285">
        <ele>15.999</ele>
        <time>2014-07-08T13:19:44Z</time>
      </trkpt>
      <trkpt lat="59.9096336" lon="17.8416082">
        <ele>16.4797</ele>
        <time>2014-07-08T13:19:45Z</time>
      </trkpt>
      <trkpt lat="59.9096351" lon="17.841783">
        <ele>16.9604</ele>
        <time>2014-07-08T13:19:46Z</time>
      </trkpt>
      <trkpt lat="59.90963" lon="17.841952">
        <ele>17.4412</ele>
        <time>2014-07-08T13:19:47Z</time>
      </trkpt>
      <trkpt lat="59.9096228" lon="17.8421134">
        <ele>17.9218</ele>
        <time>2014-07-08T13:19:48Z</time>
      </trkpt>
      <trkpt lat="59.9096129" lon="17.8422652">
        <ele>18.4023</ele>
        <time>2014-07-08T13:19:49Z</time>
      </trkpt>
      <trkpt lat="59.9096021" lon="17.8424109">
        <ele>18.4023</ele>
        <time>2014-07-08T13:19:50Z</time>
      </trkpt>
      <trkpt lat="59.9095932" lon="17.8425516">
        <ele>18.8831</ele>
        <time>2014-07-08T13:19:51Z</time>
      </trkpt>
      <trkpt lat="59.9095873" lon="17.8426814">
        <ele>18.8831</ele>
        <time>2014-07-08T13:19:52Z</time>
      </trkpt>
      <trkpt lat="59.9095854" lon="17.8427932">
        <ele>18.8831</ele>
        <time>2014-07-08T13:19:53Z</time>
      </trkpt>
      <trkpt lat="59.9095885" lon="17.8428775">
        <ele>19.3638</ele>
        <time>2014-07-08T13:19:54Z</time>
      </trkpt>
      <trkpt lat="59.9096013" lon="17.8429243">
        <ele>19.3638</ele>
        <time>2014-07-08T13:19:55Z</time>
      </trkpt>
      <trkpt lat="59.9096221" lon="17.8429553">
        <ele>19.3638</ele>
        <time>2014-07-08T13:19:56Z</time>
      </trkpt>
      <trkpt lat="59.9096408" lon="17.8429946">
        <ele>19.3638</ele>
        <time>2014-07-08T13:19:57Z</time>
      </trkpt>
      <trkpt lat="59.9096558" lon="17.8430401">
        <ele>19.3638</ele>
        <time>2014-07-08T13:19:58Z</time>
      </trkpt>
      <trkpt lat="59.9096723" lon="17.8430844">
        <ele>19.3638</ele>
        <time>2014-07-08T13:19:59Z</time>
      </trkpt>
      <trkpt lat="59.9096936" lon="17.8431188">
        <ele>19.3638</ele>
        <time>2014-07-08T13:20:00Z</time>
      </trkpt>
      <trkpt lat="59.9097201" lon="17.8431462">
        <ele>19.3638</ele>
        <time>2014-07-08T13:20:01Z</time>
      </trkpt>
      <trkpt lat="59.9097489" lon="17.8431775">
        <ele>19.3638</ele>
        <time>2014-07-08T13:20:02Z</time>
      </trkpt>
      <trkpt lat="59.9097793" lon="17.843213">
        <ele>19.3638</ele>
        <time>2014-07-08T13:20:03Z</time>
      </trkpt>
      <trkpt lat="59.9098106" lon="17.8432508">
        <ele>19.3638</ele>
        <time>2014-07-08T13:20:04Z</time>
      </trkpt>
      <trkpt lat="59.9098444" lon="17.8432885">
        <ele>18.8831</ele>
        <time>2014-07-08T13:20:05Z</time>
      </trkpt>
      <trkpt lat="59.9098796" lon="17.8433258">
        <ele>18.8831</ele>
        <time>2014-07-08T13:20:06Z</time>
      </trkpt>
      <trkpt lat="59.9099164" lon="17.8433676">
        <ele>18.4023</ele>
        <time>2014-07-08T13:20:07Z</time>
      </trkpt>
      <trkpt lat="59.9099579" lon="17.8434132">
        <ele>18.4023</ele>
        <time>2014-07-08T13:20:08Z</time>
      </trkpt>
      <trkpt lat="59.9100008" lon="17.8434558">
        <ele>18.4023</ele>
        <time>2014-07-08T13:20:09Z</time>
      </trkpt>
      <trkpt lat="59.910047" lon="17.8434998">
        <ele>18.4023</ele>
        <time>2014-07-08T13:20:10Z</time>
      </trkpt>
      <trkpt lat="59.9100972" lon="17.8435478">
        <ele>18.4023</ele>
        <time>2014-07-08T13:20:11Z</time>
      </trkpt>
      <trkpt lat="59.9101481" lon="17.8435919">
        <ele>18.4023</ele>
        <time>2014-07-08T13:20:12Z</time>
      </trkpt>
      <trkpt lat="59.9101992" lon="17.8436378">
        <ele>18.4023</ele>
        <time>2014-07-08T13:20:13Z</time>
      </trkpt>
      <trkpt lat="59.9102516" lon="17.8436814">
        <ele>18.4023</ele>
        <time>2014-07-08T13:20:14Z</time>
      </trkpt>
      <trkpt lat="59.9103048" lon="17.8437241">
        <ele>18.4023</ele>
        <time>2014-07-08T13:20:15Z</time>
      </trkpt>
      <trkpt lat="59.9103598" lon="17.8437673">
        <ele>18.4023</ele>
        <time>2014-07-08T13:20:16Z</time>
      </trkpt>
      <trkpt lat="59.9104157" lon="17.8438093">
        <ele>17.9218</ele>
        <time>2014-07-08T13:20:17Z</time>
      </trkpt>
      <trkpt lat="59.9104722" lon="17.8438535">
        <ele>17.9218</ele>
        <time>2014-07-08T13:20:18Z</time>
      </trkpt>
      <trkpt lat="59.9105301" lon="17.8438939">
        <ele>17.4412</ele>
        <time>2014-07-08T13:20:19Z</time>
      </trkpt>
      <trkpt lat="59.9105888" lon="17.8439411">
        <ele>16.9604</ele>
        <time>2014-07-08T13:20:20Z</time>
      </trkpt>
      <trkpt lat="59.9106473" lon="17.8439909">
        <ele>16.4797</ele>
        <time>2014-07-08T13:20:21Z</time>
      </trkpt>
      <trkpt lat="59.9107005" lon="17.8440444">
        <ele>15.999</ele>
        <time>2014-07-08T13:20:22Z</time>
      </trkpt>
      <trkpt lat="59.9107557" lon="17.8440997">
        <ele>15.5184</ele>
        <time>2014-07-08T13:20:23Z</time>
      </trkpt>
      <trkpt lat="59.9108156" lon="17.8441576">
        <ele>15.0377</ele>
        <time>2014-07-08T13:20:24Z</time>
      </trkpt>
      <trkpt lat="59.9108803" lon="17.8442098">
        <ele>14.557</ele>
        <time>2014-07-08T13:20:25Z</time>
      </trkpt>
      <trkpt lat="59.9109482" lon="17.8442537">
        <ele>14.0764</ele>
        <time>2014-07-08T13:20:26Z</time>
      </trkpt>
      <trkpt lat="59.9110254" lon="17.8442848">
        <ele>14.557</ele>
        <time>2014-07-08T13:20:27Z</time>
      </trkpt>
      <trkpt lat="59.9110962" lon="17.8443081">
        <ele>14.557</ele>
        <time>2014-07-08T13:20:28Z</time>
      </trkpt>
      <trkpt lat="59.9111643" lon="17.8443233">
        <ele>14.0764</ele>
        <time>2014-07-08T13:20:29Z</time>
      </trkpt>
      <trkpt lat="59.9112316" lon="17.8443319">
        <ele>14.0764</ele>
        <time>2014-07-08T13:20:30Z</time>
      </trkpt>
      <trkpt lat="59.9112959" lon="17.8443383">
        <ele>13.5958</ele>
        <time>2014-07-08T13:20:31Z</time>
      </trkpt>
      <trkpt lat="59.9113595" lon="17.8443413">
        <ele>13.5958</ele>
        <time>2014-07-08T13:20:32Z</time>
      </trkpt>
      <trkpt lat="59.9114211" lon="17.8443394">
        <ele>13.5958</ele>
        <time>2014-07-08T13:20:33Z</time>
      </trkpt>
      <trkpt lat="59.9114804" lon="17.8443346">
        <ele>13.5958</ele>
        <time>2014-07-08T13:20:34Z</time>
      </trkpt>
      <trkpt lat="59.9115378" lon="17.844327">
        <ele>13.1151</ele>
        <time>2014-07-08T13:20:35Z</time>
      </trkpt>
      <trkpt lat="59.911601" lon="17.8443162">
        <ele>13.5958</ele>
        <time>2014-07-08T13:20:36Z</time>
      </trkpt>
      <trkpt lat="59.9116636" lon="17.8443027">
        <ele>14.0764</ele>
        <time>2014-07-08T13:20:37Z</time>
      </trkpt>
      <trkpt lat="59.9117259" lon="17.8442895">
        <ele>14.557</ele>
        <time>2014-07-08T13:20:38Z</time>
      </trkpt>
      <trkpt lat="59.9117888" lon="17.8442745">
        <ele>14.557</ele>
        <time>2014-07-08T13:20:39Z</time>
      </trkpt>
      <trkpt lat="59.9118481" lon="17.8442511">
        <ele>14.557</ele>
        <time>2014-07-08T13:20:40Z</time>
      </trkpt>
      <trkpt lat="59.9119067" lon="17.8442192">
        <ele>15.0377</ele>
        <time>2014-07-08T13:20:41Z</time>
      </trkpt>
      <trkpt lat="59.9119688" lon="17.8441839">
        <ele>15.0377</ele>
        <time>2014-07-08T13:20:42Z</time>
      </trkpt>
      <trkpt lat="59.9120297" lon="17.8441451">
        <ele>15.5184</ele>
        <time>2014-07-08T13:20:43Z</time>
      </trkpt>
      <trkpt lat="59.9120888" lon="17.8441006">
        <ele>15.999</ele>
        <time>2014-07-08T13:20:44Z</time>
      </trkpt>
      <trkpt lat="59.9121457" lon="17.8440519">
        <ele>15.999</ele>
        <time>2014-07-08T13:20:45Z</time>
      </trkpt>
      <trkpt lat="59.9122014" lon="17.8439995">
        <ele>16.4797</ele>
        <time>2014-07-08T13:20:46Z</time>
      </trkpt>
      <trkpt lat="59.9122553" lon="17.8439446">
        <ele>16.9604</ele>
        <time>2014-07-08T13:20:47Z</time>
      </trkpt>
      <trkpt lat="59.9123084" lon="17.8438888">
        <ele>16.9604</ele>
        <time>2014-07-08T13:20:48Z</time>
      </trkpt>
      <trkpt lat="59.9123615" lon="17.8438323">
        <ele>17.4412</ele>
        <time>2014-07-08T13:20:49Z</time>
      </trkpt>
      <trkpt lat="59.9124152" lon="17.8437753">
        <ele>17.4412</ele>
        <time>2014-07-08T13:20:50Z</time>
      </trkpt>
      <trkpt lat="59.9124687" lon="17.8437188">
        <ele>17.4412</ele>
        <time>2014-07-08T13:20:51Z</time>
      </trkpt>
      <trkpt lat="59.9125235" lon="17.8436627">
        <ele>17.9218</ele>
        <time>2014-07-08T13:20:52Z</time>
      </trkpt>
      <trkpt lat="59.9125798" lon="17.8436085">
        <ele>17.4412</ele>
        <time>2014-07-08T13:20:53Z</time>
      </trkpt>
      <trkpt lat="59.9126378" lon="17.8435562">
        <ele>17.4412</ele>
        <time>2014-07-08T13:20:54Z</time>
      </trkpt>
      <trkpt lat="59.9126977" lon="17.8435071">
        <ele>17.4412</ele>
        <time>2014-07-08T13:20:55Z</time>
      </trkpt>
      <trkpt lat="59.9127606" lon="17.8434617">
        <ele>16.9604</ele>
        <time>2014-07-08T13:20:56Z</time>
      </trkpt>
      <trkpt lat="59.9128259" lon="17.8434241">
        <ele>16.9604</ele>
        <time>2014-07-08T13:20:57Z</time>
      </trkpt>
      <trkpt lat="59.9128929" lon="17.8433925">
        <ele>16.4797</ele>
        <time>2014-07-08T13:20:58Z</time>
      </trkpt>
      <trkpt lat="59.9129619" lon="17.8433655">
        <ele>16.4797</ele>
        <time>2014-07-08T13:20:59Z</time>
      </trkpt>
      <trkpt lat="59.9130328" lon="17.8433428">
        <ele>15.999</ele>
        <time>2014-07-08T13:21:00Z</time>
      </trkpt>
      <trkpt lat="59.9131053" lon="17.8433224">
        <ele>15.5184</ele>
        <time>2014-07-08T13:21:01Z</time>
      </trkpt>
      <trkpt lat="59.9131788" lon="17.8433038">
        <ele>15.5184</ele>
        <time>2014-07-08T13:21:02Z</time>
      </trkpt>
      <trkpt lat="59.9132532" lon="17.8432836">
        <ele>15.0377</ele>
        <time>2014-07-08T13:21:03Z</time>
      </trkpt>
      <trkpt lat="59.9133263" lon="17.8432595">
        <ele>15.0377</ele>
        <time>2014-07-08T13:21:04Z</time>
      </trkpt>
      <trkpt lat="59.913398" lon="17.843232">
        <ele>14.557</ele>
        <time>2014-07-08T13:21:05Z</time>
      </trkpt>
      <trkpt lat="59.91347" lon="17.8431998">
        <ele>15.0377</ele>
        <time>2014-07-08T13:21:06Z</time>
      </trkpt>
      <trkpt lat="59.9135402" lon="17.8431635">
        <ele>14.557</ele>
        <time>2014-07-08T13:21:07Z</time>
      </trkpt>
      <trkpt lat="59.9136091" lon="17.8431219">
        <ele>15.0377</ele>
        <time>2014-07-08T13:21:08Z</time>
      </trkpt>
      <trkpt lat="59.9136764" lon="17.8430764">
        <ele>15.0377</ele>
        <time>2014-07-08T13:21:09Z</time>
      </trkpt>
      <trkpt lat="59.9137434" lon="17.8430278">
        <ele>15.0377</ele>
        <time>2014-07-08T13:21:10Z</time>
      </trkpt>
      <trkpt lat="59.9138107" lon="17.8429754">
        <ele>15.0377</ele>
        <time>2014-07-08T13:21:11Z</time>
      </trkpt>
      <trkpt lat="59.9138783" lon="17.8429193">
        <ele>15.0377</ele>
        <time>2014-07-08T13:21:12Z</time>
      </trkpt>
      <trkpt lat="59.9139464" lon="17.8428594">
        <ele>15.0377</ele>
        <time>2014-07-08T13:21:13Z</time>
      </trkpt>
      <trkpt lat="59.9140147" lon="17.8427953">
        <ele>15.0377</ele>
        <time>2014-07-08T13:21:14Z</time>
      </trkpt>
      <trkpt lat="59.9140837" lon="17.8427278">
        <ele>15.0377</ele>
        <time>2014-07-08T13:21:15Z</time>
      </trkpt>
      <trkpt lat="59.9141531" lon="17.8426563">
        <ele>15.0377</ele>
        <time>2014-07-08T13:21:16Z</time>
      </trkpt>
      <trkpt lat="59.9142219" lon="17.84258">
        <ele>15.5184</ele>
        <time>2014-07-08T13:21:17Z</time>
      </trkpt>
      <trkpt lat="59.9142887" lon="17.8424999">
        <ele>15.5184</ele>
        <time>2014-07-08T13:21:18Z</time>
      </trkpt>
      <trkpt lat="59.914354" lon="17.8424196">
        <ele>15.5184</ele>
        <time>2014-07-08T13:21:19Z</time>
      </trkpt>
      <trkpt lat="59.9144186" lon="17.8423415">
        <ele>15.5184</ele>
        <time>2014-07-08T13:21:20Z</time>
      </trkpt>
      <trkpt lat="59.9144835" lon="17.8422641">
        <ele>15.5184</ele>
        <time>2014-07-08T13:21:21Z</time>
      </trkpt>
      <trkpt lat="59.9145496" lon="17.8421876">
        <ele>15.5184</ele>
        <time>2014-07-08T13:21:22Z</time>
      </trkpt>
      <trkpt lat="59.9146182" lon="17.8421155">
        <ele>15.5184</ele>
        <time>2014-07-08T13:21:23Z</time>
      </trkpt>
      <trkpt lat="59.9146886" lon="17.8420513">
        <ele>15.999</ele>
        <time>2014-07-08T13:21:24Z</time>
      </trkpt>
      <trkpt lat="59.9147608" lon="17.8419945">
        <ele>15.999</ele>
        <time>2014-07-08T13:21:25Z</time>
      </trkpt>
      <trkpt lat="59.9148347" lon="17.841944">
        <ele>15.999</ele>
        <time>2014-07-08T13:21:26Z</time>
      </trkpt>
      <trkpt lat="59.9149098" lon="17.8419006">
        <ele>15.999</ele>
        <time>2014-07-08T13:21:27Z</time>
      </trkpt>
      <trkpt lat="59.9149857" lon="17.8418642">
        <ele>16.4797</ele>
        <time>2014-07-08T13:21:28Z</time>
      </trkpt>
      <trkpt lat="59.9150611" lon="17.8418338">
        <ele>16.4797</ele>
        <time>2014-07-08T13:21:29Z</time>
      </trkpt>
      <trkpt lat="59.9151349" lon="17.841811">
        <ele>16.4797</ele>
        <time>2014-07-08T13:21:30Z</time>
      </trkpt>
      <trkpt lat="59.9152066" lon="17.8417976">
        <ele>16.9604</ele>
        <time>2014-07-08T13:21:31Z</time>
      </trkpt>
      <trkpt lat="59.9152763" lon="17.8417959">
        <ele>16.9604</ele>
        <time>2014-07-08T13:21:32Z</time>
      </trkpt>
      <trkpt lat="59.9153445" lon="17.8418042">
        <ele>16.9604</ele>
        <time>2014-07-08T13:21:33Z</time>
      </trkpt>
      <trkpt lat="59.9154116" lon="17.8418131">
        <ele>17.4412</ele>
        <time>2014-07-08T13:21:34Z</time>
      </trkpt>
      <trkpt lat="59.9154783" lon="17.8418198">
        <ele>17.4412</ele>
        <time>2014-07-08T13:21:35Z</time>
      </trkpt>
      <trkpt lat="59.9155449" lon="17.8418268">
        <ele>17.4412</ele>
        <time>2014-07-08T13:21:36Z</time>
      </trkpt>
      <trkpt lat="59.9156113" lon="17.8418332">
        <ele>17.9218</ele>
        <time>2014-07-08T13:21:37Z</time>
      </trkpt>
      <trkpt lat="59.9156772" lon="17.8418386">
        <ele>17.9218</ele>
        <time>2014-07-08T13:21:38Z</time>
      </trkpt>
      <trkpt lat="59.915743" lon="17.8418431">
        <ele>17.9218</ele>
        <time>2014-07-08T13:21:39Z</time>
      </trkpt>
      <trkpt lat="59.9158083" lon="17.8418478">
        <ele>17.9218</ele>
        <time>2014-07-08T13:21:40Z</time>
      </trkpt>
      <trkpt lat="59.9158741" lon="17.8418503">
        <ele>17.9218</ele>
        <time>2014-07-08T13:21:41Z</time>
      </trkpt>
      <trkpt lat="59.9159397" lon="17.8418545">
        <ele>17.9218</ele>
        <time>2014-07-08T13:21:42Z</time>
      </trkpt>
      <trkpt lat="59.9160055" lon="17.8418695">
        <ele>18.4023</ele>
        <time>2014-07-08T13:21:43Z</time>
      </trkpt>
      <trkpt lat="59.9160707" lon="17.8418986">
        <ele>18.4023</ele>
        <time>2014-07-08T13:21:44Z</time>
      </trkpt>
      <trkpt lat="59.9161337" lon="17.8419441">
        <ele>18.4023</ele>
        <time>2014-07-08T13:21:45Z</time>
      </trkpt>
      <trkpt lat="59.916193" lon="17.8420058">
        <ele>18.4023</ele>
        <time>2014-07-08T13:21:46Z</time>
      </trkpt>
      <trkpt lat="59.9162482" lon="17.8420794">
        <ele>18.8831</ele>
        <time>2014-07-08T13:21:47Z</time>
      </trkpt>
      <trkpt lat="59.916301" lon="17.8421579">
        <ele>18.8831</ele>
        <time>2014-07-08T13:21:48Z</time>
      </trkpt>
      <trkpt lat="59.9163517" lon="17.8422373">
        <ele>18.8831</ele>
        <time>2014-07-08T13:21:49Z</time>
      </trkpt>
      <trkpt lat="59.9164007" lon="17.8423145">
        <ele>19.3638</ele>
        <time>2014-07-08T13:21:50Z</time>
      </trkpt>
      <trkpt lat="59.9164496" lon="17.8423916">
        <ele>19.3638</ele>
        <time>2014-07-08T13:21:51Z</time>
      </trkpt>
      <trkpt lat="59.9164984" lon="17.8424694">
        <ele>19.3638</ele>
        <time>2014-07-08T13:21:52Z</time>
      </trkpt>
      <trkpt lat="59.9165463" lon="17.842545">
        <ele>19.3638</ele>
        <time>2014-07-08T13:21:53Z</time>
      </trkpt>
      <trkpt lat="59.916593" lon="17.8426165">
        <ele>19.8444</ele>
        <time>2014-07-08T13:21:54Z</time>
      </trkpt>
      <trkpt lat="59.9166381" lon="17.8426833">
        <ele>19.8444</ele>
        <time>2014-07-08T13:21:55Z</time>
      </trkpt>
      <trkpt lat="59.9166807" lon="17.8427429">
        <ele>20.325</ele>
        <time>2014-07-08T13:21:56Z</time>
      </trkpt>
      <trkpt lat="59.9167235" lon="17.8427955">
        <ele>20.325</ele>
        <time>2014-07-08T13:21:57Z</time>
      </trkpt>
      <trkpt lat="59.9167644" lon="17.8428478">
        <ele>20.325</ele>
        <time>2014-07-08T13:21:58Z</time>
      </trkpt>
      <trkpt lat="59.9168039" lon="17.8428992">
        <ele>20.8057</ele>
        <time>2014-07-08T13:21:59Z</time>
      </trkpt>
      <trkpt lat="59.9168432" lon="17.842946">
        <ele>20.8057</ele>
        <time>2014-07-08T13:22:00Z</time>
      </trkpt>
      <trkpt lat="59.9168831" lon="17.8429834">
        <ele>21.2864</ele>
        <time>2014-07-08T13:22:01Z</time>
      </trkpt>
      <trkpt lat="59.9169246" lon="17.8430095">
        <ele>21.2864</ele>
        <time>2014-07-08T13:22:02Z</time>
      </trkpt>
      <trkpt lat="59.9169685" lon="17.8430211">
        <ele>21.2864</ele>
        <time>2014-07-08T13:22:03Z</time>
      </trkpt>
      <trkpt lat="59.9170137" lon="17.8430178">
        <ele>21.2864</ele>
        <time>2014-07-08T13:22:04Z</time>
      </trkpt>
      <trkpt lat="59.9170601" lon="17.8430028">
        <ele>21.2864</ele>
        <time>2014-07-08T13:22:05Z</time>
      </trkpt>
      <trkpt lat="59.9171075" lon="17.8429795">
        <ele>21.2864</ele>
        <time>2014-07-08T13:22:06Z</time>
      </trkpt>
      <trkpt lat="59.9171567" lon="17.8429504">
        <ele>21.2864</ele>
        <time>2014-07-08T13:22:07Z</time>
      </trkpt>
      <trkpt lat="59.9172074" lon="17.8429157">
        <ele>21.767</ele>
        <time>2014-07-08T13:22:08Z</time>
      </trkpt>
      <trkpt lat="59.9172588" lon="17.8428782">
        <ele>21.767</ele>
        <time>2014-07-08T13:22:09Z</time>
      </trkpt>
      <trkpt lat="59.9173105" lon="17.8428386">
        <ele>21.767</ele>
        <time>2014-07-08T13:22:10Z</time>
      </trkpt>
      <trkpt lat="59.9173626" lon="17.8427952">
        <ele>21.767</ele>
        <time>2014-07-08T13:22:11Z</time>
      </trkpt>
      <trkpt lat="59.9174146" lon="17.8427495">
        <ele>22.2476</ele>
        <time>2014-07-08T13:22:12Z</time>
      </trkpt>
      <trkpt lat="59.917466" lon="17.8427031">
        <ele>22.2476</ele>
        <time>2014-07-08T13:22:13Z</time>
      </trkpt>
      <trkpt lat="59.9175166" lon="17.8426605">
        <ele>22.7283</ele>
        <time>2014-07-08T13:22:14Z</time>
      </trkpt>
      <trkpt lat="59.9175669" lon="17.8426225">
        <ele>22.7283</ele>
        <time>2014-07-08T13:22:15Z</time>
      </trkpt>
      <trkpt lat="59.9176149" lon="17.8425828">
        <ele>22.7283</ele>
        <time>2014-07-08T13:22:16Z</time>
      </trkpt>
      <trkpt lat="59.9176638" lon="17.8425393">
        <ele>23.209</ele>
        <time>2014-07-08T13:22:17Z</time>
      </trkpt>
      <trkpt lat="59.9177125" lon="17.8424956">
        <ele>22.7283</ele>
        <time>2014-07-08T13:22:18Z</time>
      </trkpt>
      <trkpt lat="59.9177621" lon="17.8424487">
        <ele>22.7283</ele>
        <time>2014-07-08T13:22:19Z</time>
      </trkpt>
      <trkpt lat="59.9178118" lon="17.8423948">
        <ele>22.7283</ele>
        <time>2014-07-08T13:22:20Z</time>
      </trkpt>
      <trkpt lat="59.9178631" lon="17.8423369">
        <ele>22.7283</ele>
        <time>2014-07-08T13:22:21Z</time>
      </trkpt>
      <trkpt lat="59.9179155" lon="17.8422763">
        <ele>22.7283</ele>
        <time>2014-07-08T13:22:22Z</time>
      </trkpt>
      <trkpt lat="59.9179689" lon="17.842216">
        <ele>22.2476</ele>
        <time>2014-07-08T13:22:23Z</time>
      </trkpt>
      <trkpt lat="59.9180238" lon="17.8421576">
        <ele>22.7283</ele>
        <time>2014-07-08T13:22:24Z</time>
      </trkpt>
      <trkpt lat="59.9180783" lon="17.8420998">
        <ele>22.7283</ele>
        <time>2014-07-08T13:22:25Z</time>
      </trkpt>
      <trkpt lat="59.9181336" lon="17.8420441">
        <ele>22.7283</ele>
        <time>2014-07-08T13:22:26Z</time>
      </trkpt>
      <trkpt lat="59.9181917" lon="17.8419877">
        <ele>22.7283</ele>
        <time>2014-07-08T13:22:27Z</time>
      </trkpt>
      <trkpt lat="59.9182521" lon="17.8419291">
        <ele>22.2476</ele>
        <time>2014-07-08T13:22:28Z</time>
      </trkpt>
      <trkpt lat="59.9183147" lon="17.8418704">
        <ele>22.2476</ele>
        <time>2014-07-08T13:22:29Z</time>
      </trkpt>
      <trkpt lat="59.9183792" lon="17.841812">
        <ele>22.2476</ele>
        <time>2014-07-08T13:22:30Z</time>
      </trkpt>
      <trkpt lat="59.9184452" lon="17.8417518">
        <ele>22.2476</ele>
        <time>2014-07-08T13:22:31Z</time>
      </trkpt>
      <trkpt lat="59.9185116" lon="17.8416888">
        <ele>22.2476</ele>
        <time>2014-07-08T13:22:32Z</time>
      </trkpt>
      <trkpt lat="59.9185781" lon="17.841627">
        <ele>22.2476</ele>
        <time>2014-07-08T13:22:33Z</time>
      </trkpt>
      <trkpt lat="59.9186439" lon="17.8415713">
        <ele>22.2476</ele>
        <time>2014-07-08T13:22:34Z</time>
      </trkpt>
      <trkpt lat="59.9187086" lon="17.8415214">
        <ele>22.2476</ele>
        <time>2014-07-08T13:22:35Z</time>
      </trkpt>
      <trkpt lat="59.9187724" lon="17.8414741">
        <ele>22.7283</ele>
        <time>2014-07-08T13:22:36Z</time>
      </trkpt>
      <trkpt lat="59.9188363" lon="17.8414277">
        <ele>22.7283</ele>
        <time>2014-07-08T13:22:37Z</time>
      </trkpt>
      <trkpt lat="59.9189002" lon="17.8413812">
        <ele>22.7283</ele>
        <time>2014-07-08T13:22:38Z</time>
      </trkpt>
      <trkpt lat="59.918964" lon="17.8413354">
        <ele>22.7283</ele>
        <time>2014-07-08T13:22:39Z</time>
      </trkpt>
      <trkpt lat="59.919028" lon="17.8412888">
        <ele>22.7283</ele>
        <time>2014-07-08T13:22:40Z</time>
      </trkpt>
      <trkpt lat="59.9190919" lon="17.8412416">
        <ele>23.209</ele>
        <time>2014-07-08T13:22:41Z</time>
      </trkpt>
      <trkpt lat="59.9191572" lon="17.8411967">
        <ele>23.209</ele>
        <time>2014-07-08T13:22:42Z</time>
      </trkpt>
      <trkpt lat="59.9192228" lon="17.8411536">
        <ele>23.209</ele>
        <time>2014-07-08T13:22:43Z</time>
      </trkpt>
      <trkpt lat="59.9192888" lon="17.8411076">
        <ele>23.209</ele>
        <time>2014-07-08T13:22:44Z</time>
      </trkpt>
      <trkpt lat="59.9193557" lon="17.8410593">
        <ele>23.209</ele>
        <time>2014-07-08T13:22:45Z</time>
      </trkpt>
      <trkpt lat="59.9194239" lon="17.8410137">
        <ele>23.6896</ele>
        <time>2014-07-08T13:22:46Z</time>
      </trkpt>
      <trkpt lat="59.9194929" lon="17.8409711">
        <ele>23.6896</ele>
        <time>2014-07-08T13:22:47Z</time>
      </trkpt>
      <trkpt lat="59.9195632" lon="17.8409308">
        <ele>23.6896</ele>
        <time>2014-07-08T13:22:48Z</time>
      </trkpt>
      <trkpt lat="59.9196342" lon="17.8408927">
        <ele>23.6896</ele>
        <time>2014-07-08T13:22:49Z</time>
      </trkpt>
      <trkpt lat="59.9197059" lon="17.8408593">
        <ele>23.6896</ele>
        <time>2014-07-08T13:22:50Z</time>
      </trkpt>
      <trkpt lat="59.9197784" lon="17.8408324">
        <ele>24.1703</ele>
        <time>2014-07-08T13:22:51Z</time>
      </trkpt>
      <trkpt lat="59.9198514" lon="17.8408118">
        <ele>24.1703</ele>
        <time>2014-07-08T13:22:52Z</time>
      </trkpt>
      <trkpt lat="59.9199255" lon="17.8407971">
        <ele>24.1703</ele>
        <time>2014-07-08T13:22:53Z</time>
      </trkpt>
      <trkpt lat="59.9200006" lon="17.8407891">
        <ele>24.1703</ele>
        <time>2014-07-08T13:22:54Z</time>
      </trkpt>
      <trkpt lat="59.9200762" lon="17.8407874">
        <ele>24.651</ele>
        <time>2014-07-08T13:22:55Z</time>
      </trkpt>
      <trkpt lat="59.9201518" lon="17.8407888">
        <ele>24.651</ele>
        <time>2014-07-08T13:22:56Z</time>
      </trkpt>
      <trkpt lat="59.9202267" lon="17.8407883">
        <ele>24.651</ele>
        <time>2014-07-08T13:22:57Z</time>
      </trkpt>
      <trkpt lat="59.9203019" lon="17.8407867">
        <ele>24.651</ele>
        <time>2014-07-08T13:22:58Z</time>
      </trkpt>
      <trkpt lat="59.9203777" lon="17.8407859">
        <ele>24.651</ele>
        <time>2014-07-08T13:22:59Z</time>
      </trkpt>
      <trkpt lat="59.9204558" lon="17.8407838">
        <ele>24.651</ele>
        <time>2014-07-08T13:23:00Z</time>
      </trkpt>
      <trkpt lat="59.9205339" lon="17.8407806">
        <ele>24.1703</ele>
        <time>2014-07-08T13:23:01Z</time>
      </trkpt>
      <trkpt lat="59.9206133" lon="17.840775">
        <ele>24.1703</ele>
        <time>2014-07-08T13:23:02Z</time>
      </trkpt>
      <trkpt lat="59.9206932" lon="17.8407701">
        <ele>23.6896</ele>
        <time>2014-07-08T13:23:03Z</time>
      </trkpt>
      <trkpt lat="59.9207734" lon="17.8407654">
        <ele>23.6896</ele>
        <time>2014-07-08T13:23:04Z</time>
      </trkpt>
      <trkpt lat="59.9208522" lon="17.8407597">
        <ele>23.209</ele>
        <time>2014-07-08T13:23:05Z</time>
      </trkpt>
      <trkpt lat="59.9209304" lon="17.8407563">
        <ele>23.209</ele>
        <time>2014-07-08T13:23:06Z</time>
      </trkpt>
      <trkpt lat="59.921009" lon="17.840754">
        <ele>23.209</ele>
        <time>2014-07-08T13:23:07Z</time>
      </trkpt>
      <trkpt lat="59.9210878" lon="17.8407516">
        <ele>22.7283</ele>
        <time>2014-07-08T13:23:08Z</time>
      </trkpt>
      <trkpt lat="59.9211676" lon="17.8407489">
        <ele>22.7283</ele>
        <time>2014-07-08T13:23:09Z</time>
      </trkpt>
      <trkpt lat="59.9212474" lon="17.8407444">
        <ele>22.7283</ele>
        <time>2014-07-08T13:23:10Z</time>
      </trkpt>
      <trkpt lat="59.9213271" lon="17.8407365">
        <ele>22.7283</ele>
        <time>2014-07-08T13:23:11Z</time>
      </trkpt>
      <trkpt lat="59.9214067" lon="17.8407253">
        <ele>22.7283</ele>
        <time>2014-07-08T13:23:12Z</time>
      </trkpt>
      <trkpt lat="59.9214861" lon="17.8407136">
        <ele>22.7283</ele>
        <time>2014-07-08T13:23:13Z</time>
      </trkpt>
      <trkpt lat="59.9215652" lon="17.8406983">
        <ele>22.7283</ele>
        <time>2014-07-08T13:23:14Z</time>
      </trkpt>
      <trkpt lat="59.9216436" lon="17.8406791">
        <ele>22.7283</ele>
        <time>2014-07-08T13:23:15Z</time>
      </trkpt>
      <trkpt lat="59.9217207" lon="17.8406583">
        <ele>22.7283</ele>
        <time>2014-07-08T13:23:16Z</time>
      </trkpt>
      <trkpt lat="59.9217959" lon="17.8406385">
        <ele>22.7283</ele>
        <time>2014-07-08T13:23:17Z</time>
      </trkpt>
      <trkpt lat="59.9218694" lon="17.8406209">
        <ele>22.7283</ele>
        <time>2014-07-08T13:23:18Z</time>
      </trkpt>
      <trkpt lat="59.9219415" lon="17.8406025">
        <ele>22.7283</ele>
        <time>2014-07-08T13:23:19Z</time>
      </trkpt>
      <trkpt lat="59.9220128" lon="17.8405836">
        <ele>22.7283</ele>
        <time>2014-07-08T13:23:20Z</time>
      </trkpt>
      <trkpt lat="59.9220834" lon="17.8405636">
        <ele>22.7283</ele>
        <time>2014-07-08T13:23:21Z</time>
      </trkpt>
      <trkpt lat="59.9221538" lon="17.8405428">
        <ele>22.7283</ele>
        <time>2014-07-08T13:23:22Z</time>
      </trkpt>
      <trkpt lat="59.9222242" lon="17.8405212">
        <ele>22.7283</ele>
        <time>2014-07-08T13:23:23Z</time>
      </trkpt>
      <trkpt lat="59.9222942" lon="17.8404979">
        <ele>22.7283</ele>
        <time>2014-07-08T13:23:24Z</time>
      </trkpt>
      <trkpt lat="59.9223637" lon="17.8404688">
        <ele>22.7283</ele>
        <time>2014-07-08T13:23:25Z</time>
      </trkpt>
      <trkpt lat="59.9224332" lon="17.8404373">
        <ele>22.7283</ele>
        <time>2014-07-08T13:23:26Z</time>
      </trkpt>
      <trkpt lat="59.9225029" lon="17.8404067">
        <ele>22.7283</ele>
        <time>2014-07-08T13:23:27Z</time>
      </trkpt>
      <trkpt lat="59.9225717" lon="17.8403747">
        <ele>23.209</ele>
        <time>2014-07-08T13:23:28Z</time>
      </trkpt>
      <trkpt lat="59.9226399" lon="17.8403408">
        <ele>23.209</ele>
        <time>2014-07-08T13:23:29Z</time>
      </trkpt>
      <trkpt lat="59.9227078" lon="17.8403049">
        <ele>23.209</ele>
        <time>2014-07-08T13:23:30Z</time>
      </trkpt>
      <trkpt lat="59.922776" lon="17.8402672">
        <ele>23.209</ele>
        <time>2014-07-08T13:23:31Z</time>
      </trkpt>
      <trkpt lat="59.922845" lon="17.8402285">
        <ele>23.209</ele>
        <time>2014-07-08T13:23:32Z</time>
      </trkpt>
      <trkpt lat="59.9229155" lon="17.8401901">
        <ele>23.209</ele>
        <time>2014-07-08T13:23:33Z</time>
      </trkpt>
      <trkpt lat="59.9229877" lon="17.8401522">
        <ele>23.209</ele>
        <time>2014-07-08T13:23:34Z</time>
      </trkpt>
      <trkpt lat="59.9230609" lon="17.8401131">
        <ele>23.209</ele>
        <time>2014-07-08T13:23:35Z</time>
      </trkpt>
      <trkpt lat="59.9231348" lon="17.8400721">
        <ele>23.209</ele>
        <time>2014-07-08T13:23:36Z</time>
      </trkpt>
      <trkpt lat="59.9232096" lon="17.8400294">
        <ele>23.209</ele>
        <time>2014-07-08T13:23:37Z</time>
      </trkpt>
      <trkpt lat="59.9232857" lon="17.8399855">
        <ele>23.209</ele>
        <time>2014-07-08T13:23:38Z</time>
      </trkpt>
      <trkpt lat="59.9233622" lon="17.8399414">
        <ele>23.209</ele>
        <time>2014-07-08T13:23:39Z</time>
      </trkpt>
      <trkpt lat="59.9234386" lon="17.8398967">
        <ele>23.209</ele>
        <time>2014-07-08T13:23:40Z</time>
      </trkpt>
      <trkpt lat="59.923516" lon="17.8398551">
        <ele>23.209</ele>
        <time>2014-07-08T13:23:41Z</time>
      </trkpt>
      <trkpt lat="59.9235937" lon="17.8398172">
        <ele>23.209</ele>
        <time>2014-07-08T13:23:42Z</time>
      </trkpt>
      <trkpt lat="59.9236709" lon="17.8397802">
        <ele>23.209</ele>
        <time>2014-07-08T13:23:43Z</time>
      </trkpt>
      <trkpt lat="59.9237478" lon="17.8397447">
        <ele>23.209</ele>
        <time>2014-07-08T13:23:44Z</time>
      </trkpt>
      <trkpt lat="59.9238239" lon="17.8397098">
        <ele>23.209</ele>
        <time>2014-07-08T13:23:45Z</time>
      </trkpt>
      <trkpt lat="59.9238994" lon="17.8396764">
        <ele>23.209</ele>
        <time>2014-07-08T13:23:46Z</time>
      </trkpt>
      <trkpt lat="59.9239748" lon="17.8396452">
        <ele>23.209</ele>
        <time>2014-07-08T13:23:47Z</time>
      </trkpt>
      <trkpt lat="59.9240508" lon="17.839614">
        <ele>23.209</ele>
        <time>2014-07-08T13:23:48Z</time>
      </trkpt>
      <trkpt lat="59.9241271" lon="17.8395859">
        <ele>23.209</ele>
        <time>2014-07-08T13:23:49Z</time>
      </trkpt>
      <trkpt lat="59.9242042" lon="17.8395603">
        <ele>23.209</ele>
        <time>2014-07-08T13:23:50Z</time>
      </trkpt>
      <trkpt lat="59.9242809" lon="17.8395343">
        <ele>23.6896</ele>
        <time>2014-07-08T13:23:51Z</time>
      </trkpt>
      <trkpt lat="59.9243566" lon="17.8395108">
        <ele>23.6896</ele>
        <time>2014-07-08T13:23:52Z</time>
      </trkpt>
      <trkpt lat="59.9244321" lon="17.8394908">
        <ele>23.6896</ele>
        <time>2014-07-08T13:23:53Z</time>
      </trkpt>
      <trkpt lat="59.9245073" lon="17.8394711">
        <ele>23.6896</ele>
        <time>2014-07-08T13:23:54Z</time>
      </trkpt>
      <trkpt lat="59.9246574" lon="17.8394383">
        <ele>23.6896</ele>
        <time>2014-07-08T13:23:55Z</time>
      </trkpt>
      <trkpt lat="59.9247325" lon="17.8394308">
        <ele>23.6896</ele>
        <time>2014-07-08T13:23:56Z</time>
      </trkpt>
      <trkpt lat="59.9248071" lon="17.8394259">
        <ele>24.1703</ele>
        <time>2014-07-08T13:23:57Z</time>
      </trkpt>
      <trkpt lat="59.9248812" lon="17.8394198">
        <ele>24.1703</ele>
        <time>2014-07-08T13:23:58Z</time>
      </trkpt>
      <trkpt lat="59.9249548" lon="17.8394134">
        <ele>24.1703</ele>
        <time>2014-07-08T13:23:59Z</time>
      </trkpt>
      <trkpt lat="59.9250278" lon="17.8394073">
        <ele>24.1703</ele>
        <time>2014-07-08T13:24:00Z</time>
      </trkpt>
      <trkpt lat="59.9251004" lon="17.8394033">
        <ele>24.1703</ele>
        <time>2014-07-08T13:24:01Z</time>
      </trkpt>
      <trkpt lat="59.9251719" lon="17.8394022">
        <ele>24.1703</ele>
        <time>2014-07-08T13:24:02Z</time>
      </trkpt>
      <trkpt lat="59.9252416" lon="17.8394028">
        <ele>24.1703</ele>
        <time>2014-07-08T13:24:03Z</time>
      </trkpt>
      <trkpt lat="59.9253095" lon="17.8394049">
        <ele>24.1703</ele>
        <time>2014-07-08T13:24:04Z</time>
      </trkpt>
      <trkpt lat="59.9253757" lon="17.8394115">
        <ele>24.1703</ele>
        <time>2014-07-08T13:24:05Z</time>
      </trkpt>
      <trkpt lat="59.9254411" lon="17.8394214">
        <ele>24.1703</ele>
        <time>2014-07-08T13:24:06Z</time>
      </trkpt>
      <trkpt lat="59.925507" lon="17.8394297">
        <ele>24.1703</ele>
        <time>2014-07-08T13:24:07Z</time>
      </trkpt>
      <trkpt lat="59.9255739" lon="17.8394358">
        <ele>24.1703</ele>
        <time>2014-07-08T13:24:08Z</time>
      </trkpt>
      <trkpt lat="59.9256417" lon="17.8394385">
        <ele>24.1703</ele>
        <time>2014-07-08T13:24:09Z</time>
      </trkpt>
      <trkpt lat="59.9257095" lon="17.8394283">
        <ele>24.1703</ele>
        <time>2014-07-08T13:24:10Z</time>
      </trkpt>
      <trkpt lat="59.9257764" lon="17.8393979">
        <ele>24.1703</ele>
        <time>2014-07-08T13:24:11Z</time>
      </trkpt>
      <trkpt lat="59.9258411" lon="17.8393473">
        <ele>23.6896</ele>
        <time>2014-07-08T13:24:12Z</time>
      </trkpt>
      <trkpt lat="59.9259021" lon="17.8392789">
        <ele>23.6896</ele>
        <time>2014-07-08T13:24:13Z</time>
      </trkpt>
      <trkpt lat="59.9259591" lon="17.839197">
        <ele>23.6896</ele>
        <time>2014-07-08T13:24:14Z</time>
      </trkpt>
      <trkpt lat="59.9260123" lon="17.8391053">
        <ele>24.1703</ele>
        <time>2014-07-08T13:24:15Z</time>
      </trkpt>
      <trkpt lat="59.9260617" lon="17.8390056">
        <ele>24.1703</ele>
        <time>2014-07-08T13:24:16Z</time>
      </trkpt>
      <trkpt lat="59.9261083" lon="17.8389034">
        <ele>24.1703</ele>
        <time>2014-07-08T13:24:17Z</time>
      </trkpt>
      <trkpt lat="59.9261538" lon="17.8388038">
        <ele>24.1703</ele>
        <time>2014-07-08T13:24:18Z</time>
      </trkpt>
      <trkpt lat="59.9261993" lon="17.8387066">
        <ele>24.651</ele>
        <time>2014-07-08T13:24:19Z</time>
      </trkpt>
      <trkpt lat="59.9262447" lon="17.8386095">
        <ele>24.651</ele>
        <time>2014-07-08T13:24:20Z</time>
      </trkpt>
      <trkpt lat="59.9262897" lon="17.8385111">
        <ele>24.651</ele>
        <time>2014-07-08T13:24:21Z</time>
      </trkpt>
      <trkpt lat="59.9263342" lon="17.838413">
        <ele>25.1317</ele>
        <time>2014-07-08T13:24:22Z</time>
      </trkpt>
      <trkpt lat="59.9263793" lon="17.8383185">
        <ele>25.1317</ele>
        <time>2014-07-08T13:24:23Z</time>
      </trkpt>
      <trkpt lat="59.926424" lon="17.838227">
        <ele>25.1317</ele>
        <time>2014-07-08T13:24:24Z</time>
      </trkpt>
      <trkpt lat="59.9264688" lon="17.83814">
        <ele>25.6123</ele>
        <time>2014-07-08T13:24:25Z</time>
      </trkpt>
      <trkpt lat="59.9265138" lon="17.838057">
        <ele>25.6123</ele>
        <time>2014-07-08T13:24:26Z</time>
      </trkpt>
      <trkpt lat="59.9265606" lon="17.8379817">
        <ele>26.0929</ele>
        <time>2014-07-08T13:24:27Z</time>
      </trkpt>
      <trkpt lat="59.9266097" lon="17.8379182">
        <ele>26.5736</ele>
        <time>2014-07-08T13:24:28Z</time>
      </trkpt>
      <trkpt lat="59.9266601" lon="17.8378653">
        <ele>26.5736</ele>
        <time>2014-07-08T13:24:29Z</time>
      </trkpt>
      <trkpt lat="59.9267124" lon="17.8378217">
        <ele>27.0543</ele>
        <time>2014-07-08T13:24:30Z</time>
      </trkpt>
      <trkpt lat="59.926765" lon="17.8377831">
        <ele>27.5349</ele>
        <time>2014-07-08T13:24:31Z</time>
      </trkpt>
      <trkpt lat="59.9268166" lon="17.837745">
        <ele>27.5349</ele>
        <time>2014-07-08T13:24:32Z</time>
      </trkpt>
      <trkpt lat="59.9268678" lon="17.837709">
        <ele>28.0155</ele>
        <time>2014-07-08T13:24:33Z</time>
      </trkpt>
      <trkpt lat="59.9269195" lon="17.8376729">
        <ele>28.0155</ele>
        <time>2014-07-08T13:24:34Z</time>
      </trkpt>
      <trkpt lat="59.9269696" lon="17.8376311">
        <ele>28.4962</ele>
        <time>2014-07-08T13:24:35Z</time>
      </trkpt>
      <trkpt lat="59.9270201" lon="17.837585">
        <ele>28.0155</ele>
        <time>2014-07-08T13:24:36Z</time>
      </trkpt>
      <trkpt lat="59.927074" lon="17.8375299">
        <ele>28.0155</ele>
        <time>2014-07-08T13:24:37Z</time>
      </trkpt>
      <trkpt lat="59.9271276" lon="17.8374619">
        <ele>28.0155</ele>
        <time>2014-07-08T13:24:38Z</time>
      </trkpt>
      <trkpt lat="59.9271791" lon="17.8373862">
        <ele>28.0155</ele>
        <time>2014-07-08T13:24:39Z</time>
      </trkpt>
      <trkpt lat="59.9272314" lon="17.8373085">
        <ele>28.0155</ele>
        <time>2014-07-08T13:24:40Z</time>
      </trkpt>
      <trkpt lat="59.9272851" lon="17.8372329">
        <ele>28.4962</ele>
        <time>2014-07-08T13:24:41Z</time>
      </trkpt>
      <trkpt lat="59.9273384" lon="17.8371633">
        <ele>28.0155</ele>
        <time>2014-07-08T13:24:42Z</time>
      </trkpt>
      <trkpt lat="59.9273921" lon="17.837095">
        <ele>28.4962</ele>
        <time>2014-07-08T13:24:43Z</time>
      </trkpt>
      <trkpt lat="59.9274448" lon="17.8370266">
        <ele>28.4962</ele>
        <time>2014-07-08T13:24:44Z</time>
      </trkpt>
      <trkpt lat="59.9274966" lon="17.8369593">
        <ele>28.4962</ele>
        <time>2014-07-08T13:24:45Z</time>
      </trkpt>
      <trkpt lat="59.9275458" lon="17.8368924">
        <ele>28.9769</ele>
        <time>2014-07-08T13:24:46Z</time>
      </trkpt>
      <trkpt lat="59.9275936" lon="17.8368225">
        <ele>28.9769</ele>
        <time>2014-07-08T13:24:47Z</time>
      </trkpt>
      <trkpt lat="59.927642" lon="17.8367527">
        <ele>28.9769</ele>
        <time>2014-07-08T13:24:48Z</time>
      </trkpt>
      <trkpt lat="59.92769" lon="17.8366806">
        <ele>28.9769</ele>
        <time>2014-07-08T13:24:49Z</time>
      </trkpt>
      <trkpt lat="59.9277385" lon="17.8366032">
        <ele>28.4962</ele>
        <time>2014-07-08T13:24:50Z</time>
      </trkpt>
      <trkpt lat="59.9277876" lon="17.8365222">
        <ele>28.4962</ele>
        <time>2014-07-08T13:24:51Z</time>
      </trkpt>
      <trkpt lat="59.927838" lon="17.8364371">
        <ele>28.4962</ele>
        <time>2014-07-08T13:24:52Z</time>
      </trkpt>
      <trkpt lat="59.9278903" lon="17.8363508">
        <ele>28.4962</ele>
        <time>2014-07-08T13:24:53Z</time>
      </trkpt>
      <trkpt lat="59.9279437" lon="17.8362615">
        <ele>28.4962</ele>
        <time>2014-07-08T13:24:54Z</time>
      </trkpt>
      <trkpt lat="59.927998" lon="17.8361709">
        <ele>28.0155</ele>
        <time>2014-07-08T13:24:55Z</time>
      </trkpt>
      <trkpt lat="59.928053" lon="17.8360816">
        <ele>28.4962</ele>
        <time>2014-07-08T13:24:56Z</time>
      </trkpt>
      <trkpt lat="59.9281083" lon="17.835994">
        <ele>28.4962</ele>
        <time>2014-07-08T13:24:57Z</time>
      </trkpt>
      <trkpt lat="59.9281642" lon="17.8359093">
        <ele>28.4962</ele>
        <time>2014-07-08T13:24:58Z</time>
      </trkpt>
      <trkpt lat="59.9282209" lon="17.8358276">
        <ele>28.4962</ele>
        <time>2014-07-08T13:24:59Z</time>
      </trkpt>
      <trkpt lat="59.9282778" lon="17.8357461">
        <ele>28.4962</ele>
        <time>2014-07-08T13:25:00Z</time>
      </trkpt>
      <trkpt lat="59.9283342" lon="17.8356617">
        <ele>28.4962</ele>
        <time>2014-07-08T13:25:01Z</time>
      </trkpt>
      <trkpt lat="59.9283907" lon="17.8355763">
        <ele>28.4962</ele>
        <time>2014-07-08T13:25:02Z</time>
      </trkpt>
      <trkpt lat="59.9284481" lon="17.8354901">
        <ele>28.4962</ele>
        <time>2014-07-08T13:25:03Z</time>
      </trkpt>
      <trkpt lat="59.9285058" lon="17.8354023">
        <ele>28.4962</ele>
        <time>2014-07-08T13:25:04Z</time>
      </trkpt>
      <trkpt lat="59.9285646" lon="17.8353136">
        <ele>28.4962</ele>
        <time>2014-07-08T13:25:05Z</time>
      </trkpt>
      <trkpt lat="59.9286238" lon="17.8352236">
        <ele>28.4962</ele>
        <time>2014-07-08T13:25:06Z</time>
      </trkpt>
      <trkpt lat="59.9286837" lon="17.835134">
        <ele>28.4962</ele>
        <time>2014-07-08T13:25:07Z</time>
      </trkpt>
      <trkpt lat="59.9287446" lon="17.8350452">
        <ele>28.4962</ele>
        <time>2014-07-08T13:25:08Z</time>
      </trkpt>
      <trkpt lat="59.9288062" lon="17.8349578">
        <ele>28.4962</ele>
        <time>2014-07-08T13:25:09Z</time>
      </trkpt>
      <trkpt lat="59.9288688" lon="17.8348739">
        <ele>28.4962</ele>
        <time>2014-07-08T13:25:10Z</time>
      </trkpt>
      <trkpt lat="59.9289326" lon="17.8347938">
        <ele>28.4962</ele>
        <time>2014-07-08T13:25:11Z</time>
      </trkpt>
      <trkpt lat="59.9289968" lon="17.8347149">
        <ele>28.9769</ele>
        <time>2014-07-08T13:25:12Z</time>
      </trkpt>
      <trkpt lat="59.9290603" lon="17.8346369">
        <ele>28.9769</ele>
        <time>2014-07-08T13:25:13Z</time>
      </trkpt>
      <trkpt lat="59.9291232" lon="17.8345595">
        <ele>28.9769</ele>
        <time>2014-07-08T13:25:14Z</time>
      </trkpt>
      <trkpt lat="59.9291848" lon="17.8344813">
        <ele>28.9769</ele>
        <time>2014-07-08T13:25:15Z</time>
      </trkpt>
      <trkpt lat="59.9292453" lon="17.8344017">
        <ele>29.4575</ele>
        <time>2014-07-08T13:25:16Z</time>
      </trkpt>
      <trkpt lat="59.9293051" lon="17.8343211">
        <ele>29.4575</ele>
        <time>2014-07-08T13:25:17Z</time>
      </trkpt>
      <trkpt lat="59.9293636" lon="17.8342381">
        <ele>29.4575</ele>
        <time>2014-07-08T13:25:18Z</time>
      </trkpt>
      <trkpt lat="59.9294208" lon="17.8341542">
        <ele>29.4575</ele>
        <time>2014-07-08T13:25:19Z</time>
      </trkpt>
      <trkpt lat="59.929478" lon="17.8340717">
        <ele>29.9381</ele>
        <time>2014-07-08T13:25:20Z</time>
      </trkpt>
      <trkpt lat="59.9295359" lon="17.8339885">
        <ele>29.9381</ele>
        <time>2014-07-08T13:25:21Z</time>
      </trkpt>
      <trkpt lat="59.9295936" lon="17.8339005">
        <ele>29.9381</ele>
        <time>2014-07-08T13:25:22Z</time>
      </trkpt>
      <trkpt lat="59.9296514" lon="17.8338045">
        <ele>29.4575</ele>
        <time>2014-07-08T13:25:23Z</time>
      </trkpt>
      <trkpt lat="59.9297101" lon="17.8337011">
        <ele>29.4575</ele>
        <time>2014-07-08T13:25:24Z</time>
      </trkpt>
      <trkpt lat="59.9297711" lon="17.8335948">
        <ele>28.9769</ele>
        <time>2014-07-08T13:25:25Z</time>
      </trkpt>
      <trkpt lat="59.9298348" lon="17.8334867">
        <ele>28.9769</ele>
        <time>2014-07-08T13:25:26Z</time>
      </trkpt>
      <trkpt lat="59.9299008" lon="17.8333771">
        <ele>28.9769</ele>
        <time>2014-07-08T13:25:27Z</time>
      </trkpt>
      <trkpt lat="59.9299685" lon="17.8332654">
        <ele>28.4962</ele>
        <time>2014-07-08T13:25:28Z</time>
      </trkpt>
      <trkpt lat="59.9300365" lon="17.8331539">
        <ele>28.4962</ele>
        <time>2014-07-08T13:25:29Z</time>
      </trkpt>
      <trkpt lat="59.9301043" lon="17.8330445">
        <ele>28.4962</ele>
        <time>2014-07-08T13:25:30Z</time>
      </trkpt>
      <trkpt lat="59.9301712" lon="17.8329388">
        <ele>28.4962</ele>
        <time>2014-07-08T13:25:31Z</time>
      </trkpt>
      <trkpt lat="59.9302373" lon="17.8328375">
        <ele>28.4962</ele>
        <time>2014-07-08T13:25:32Z</time>
      </trkpt>
      <trkpt lat="59.9303027" lon="17.8327397">
        <ele>28.9769</ele>
        <time>2014-07-08T13:25:33Z</time>
      </trkpt>
      <trkpt lat="59.9303675" lon="17.8326434">
        <ele>28.9769</ele>
        <time>2014-07-08T13:25:34Z</time>
      </trkpt>
      <trkpt lat="59.9304312" lon="17.8325483">
        <ele>28.9769</ele>
        <time>2014-07-08T13:25:35Z</time>
      </trkpt>
      <trkpt lat="59.9304943" lon="17.8324534">
        <ele>28.9769</ele>
        <time>2014-07-08T13:25:36Z</time>
      </trkpt>
      <trkpt lat="59.9305577" lon="17.8323584">
        <ele>28.9769</ele>
        <time>2014-07-08T13:25:37Z</time>
      </trkpt>
      <trkpt lat="59.9306224" lon="17.8322634">
        <ele>28.9769</ele>
        <time>2014-07-08T13:25:38Z</time>
      </trkpt>
      <trkpt lat="59.9306887" lon="17.8321668">
        <ele>28.9769</ele>
        <time>2014-07-08T13:25:39Z</time>
      </trkpt>
      <trkpt lat="59.9307564" lon="17.832067">
        <ele>28.9769</ele>
        <time>2014-07-08T13:25:40Z</time>
      </trkpt>
      <trkpt lat="59.9308249" lon="17.8319645">
        <ele>28.4962</ele>
        <time>2014-07-08T13:25:41Z</time>
      </trkpt>
      <trkpt lat="59.9308941" lon="17.8318579">
        <ele>28.4962</ele>
        <time>2014-07-08T13:25:42Z</time>
      </trkpt>
      <trkpt lat="59.9309641" lon="17.8317476">
        <ele>28.4962</ele>
        <time>2014-07-08T13:25:43Z</time>
      </trkpt>
      <trkpt lat="59.9310347" lon="17.8316338">
        <ele>28.4962</ele>
        <time>2014-07-08T13:25:44Z</time>
      </trkpt>
      <trkpt lat="59.9311051" lon="17.8315153">
        <ele>28.4962</ele>
        <time>2014-07-08T13:25:45Z</time>
      </trkpt>
      <trkpt lat="59.9311746" lon="17.8313916">
        <ele>28.0155</ele>
        <time>2014-07-08T13:25:46Z</time>
      </trkpt>
      <trkpt lat="59.931243" lon="17.8312628">
        <ele>28.0155</ele>
        <time>2014-07-08T13:25:47Z</time>
      </trkpt>
      <trkpt lat="59.93131" lon="17.8311295">
        <ele>28.0155</ele>
        <time>2014-07-08T13:25:48Z</time>
      </trkpt>
      <trkpt lat="59.9313748" lon="17.8309918">
        <ele>28.4962</ele>
        <time>2014-07-08T13:25:49Z</time>
      </trkpt>
      <trkpt lat="59.9314357" lon="17.8308513">
        <ele>28.4962</ele>
        <time>2014-07-08T13:25:50Z</time>
      </trkpt>
      <trkpt lat="59.9314935" lon="17.8307095">
        <ele>28.4962</ele>
        <time>2014-07-08T13:25:51Z</time>
      </trkpt>
      <trkpt lat="59.9315475" lon="17.8305665">
        <ele>28.9769</ele>
        <time>2014-07-08T13:25:52Z</time>
      </trkpt>
      <trkpt lat="59.9315984" lon="17.8304227">
        <ele>28.9769</ele>
        <time>2014-07-08T13:25:53Z</time>
      </trkpt>
      <trkpt lat="59.9316454" lon="17.8302752">
        <ele>28.9769</ele>
        <time>2014-07-08T13:25:54Z</time>
      </trkpt>
      <trkpt lat="59.9316877" lon="17.83012">
        <ele>28.4962</ele>
        <time>2014-07-08T13:25:55Z</time>
      </trkpt>
      <trkpt lat="59.9317293" lon="17.829959">
        <ele>28.4962</ele>
        <time>2014-07-08T13:25:56Z</time>
      </trkpt>
      <trkpt lat="59.9317738" lon="17.829795">
        <ele>28.0155</ele>
        <time>2014-07-08T13:25:57Z</time>
      </trkpt>
      <trkpt lat="59.93182" lon="17.8296288">
        <ele>27.5349</ele>
        <time>2014-07-08T13:25:58Z</time>
      </trkpt>
      <trkpt lat="59.9318651" lon="17.8294594">
        <ele>27.0543</ele>
        <time>2014-07-08T13:25:59Z</time>
      </trkpt>
      <trkpt lat="59.9319089" lon="17.8292863">
        <ele>27.0543</ele>
        <time>2014-07-08T13:26:00Z</time>
      </trkpt>
      <trkpt lat="59.9319521" lon="17.8291097">
        <ele>26.5736</ele>
        <time>2014-07-08T13:26:01Z</time>
      </trkpt>
      <trkpt lat="59.9319967" lon="17.828932">
        <ele>26.0929</ele>
        <time>2014-07-08T13:26:02Z</time>
      </trkpt>
      <trkpt lat="59.9320448" lon="17.8287577">
        <ele>26.0929</ele>
        <time>2014-07-08T13:26:03Z</time>
      </trkpt>
      <trkpt lat="59.9320972" lon="17.8285893">
        <ele>25.6123</ele>
        <time>2014-07-08T13:26:04Z</time>
      </trkpt>
      <trkpt lat="59.9321544" lon="17.8284285">
        <ele>25.6123</ele>
        <time>2014-07-08T13:26:05Z</time>
      </trkpt>
      <trkpt lat="59.9322161" lon="17.8282754">
        <ele>25.6123</ele>
        <time>2014-07-08T13:26:06Z</time>
      </trkpt>
      <trkpt lat="59.9322813" lon="17.8281291">
        <ele>25.1317</ele>
        <time>2014-07-08T13:26:07Z</time>
      </trkpt>
      <trkpt lat="59.9323492" lon="17.8279864">
        <ele>25.1317</ele>
        <time>2014-07-08T13:26:08Z</time>
      </trkpt>
      <trkpt lat="59.9324199" lon="17.8278473">
        <ele>25.1317</ele>
        <time>2014-07-08T13:26:09Z</time>
      </trkpt>
      <trkpt lat="59.9324932" lon="17.82771">
        <ele>25.1317</ele>
        <time>2014-07-08T13:26:10Z</time>
      </trkpt>
      <trkpt lat="59.9325684" lon="17.8275745">
        <ele>24.651</ele>
        <time>2014-07-08T13:26:11Z</time>
      </trkpt>
      <trkpt lat="59.9326446" lon="17.8274404">
        <ele>24.651</ele>
        <time>2014-07-08T13:26:12Z</time>
      </trkpt>
      <trkpt lat="59.9327201" lon="17.8273073">
        <ele>24.651</ele>
        <time>2014-07-08T13:26:13Z</time>
      </trkpt>
      <trkpt lat="59.9327939" lon="17.8271754">
        <ele>24.651</ele>
        <time>2014-07-08T13:26:14Z</time>
      </trkpt>
      <trkpt lat="59.9328669" lon="17.8270456">
        <ele>24.1703</ele>
        <time>2014-07-08T13:26:15Z</time>
      </trkpt>
      <trkpt lat="59.93294" lon="17.8269198">
        <ele>24.1703</ele>
        <time>2014-07-08T13:26:16Z</time>
      </trkpt>
      <trkpt lat="59.9330149" lon="17.8268004">
        <ele>24.1703</ele>
        <time>2014-07-08T13:26:17Z</time>
      </trkpt>
      <trkpt lat="59.9330921" lon="17.8266882">
        <ele>24.1703</ele>
        <time>2014-07-08T13:26:18Z</time>
      </trkpt>
      <trkpt lat="59.9331708" lon="17.8265794">
        <ele>24.1703</ele>
        <time>2014-07-08T13:26:19Z</time>
      </trkpt>
      <trkpt lat="59.9332502" lon="17.8264722">
        <ele>24.651</ele>
        <time>2014-07-08T13:26:20Z</time>
      </trkpt>
      <trkpt lat="59.9333318" lon="17.8263712">
        <ele>24.651</ele>
        <time>2014-07-08T13:26:21Z</time>
      </trkpt>
      <trkpt lat="59.9334157" lon="17.8262817">
        <ele>24.651</ele>
        <time>2014-07-08T13:26:22Z</time>
      </trkpt>
      <trkpt lat="59.9335009" lon="17.8262039">
        <ele>25.1317</ele>
        <time>2014-07-08T13:26:23Z</time>
      </trkpt>
      <trkpt lat="59.9335883" lon="17.8261361">
        <ele>25.1317</ele>
        <time>2014-07-08T13:26:24Z</time>
      </trkpt>
      <trkpt lat="59.933677" lon="17.8260744">
        <ele>25.1317</ele>
        <time>2014-07-08T13:26:25Z</time>
      </trkpt>
      <trkpt lat="59.9337665" lon="17.8260173">
        <ele>25.1317</ele>
        <time>2014-07-08T13:26:26Z</time>
      </trkpt>
      <trkpt lat="59.9338566" lon="17.8259656">
        <ele>25.1317</ele>
        <time>2014-07-08T13:26:27Z</time>
      </trkpt>
      <trkpt lat="59.9339477" lon="17.8259173">
        <ele>25.1317</ele>
        <time>2014-07-08T13:26:28Z</time>
      </trkpt>
      <trkpt lat="59.9340401" lon="17.8258725">
        <ele>24.651</ele>
        <time>2014-07-08T13:26:29Z</time>
      </trkpt>
      <trkpt lat="59.9341339" lon="17.8258305">
        <ele>24.651</ele>
        <time>2014-07-08T13:26:30Z</time>
      </trkpt>
      <trkpt lat="59.934229" lon="17.8257887">
        <ele>24.1703</ele>
        <time>2014-07-08T13:26:31Z</time>
      </trkpt>
      <trkpt lat="59.9343246" lon="17.8257465">
        <ele>24.1703</ele>
        <time>2014-07-08T13:26:32Z</time>
      </trkpt>
      <trkpt lat="59.9344209" lon="17.8257054">
        <ele>23.6896</ele>
        <time>2014-07-08T13:26:33Z</time>
      </trkpt>
      <trkpt lat="59.9345179" lon="17.8256637">
        <ele>23.6896</ele>
        <time>2014-07-08T13:26:34Z</time>
      </trkpt>
      <trkpt lat="59.9346156" lon="17.8256205">
        <ele>23.6896</ele>
        <time>2014-07-08T13:26:35Z</time>
      </trkpt>
      <trkpt lat="59.9347135" lon="17.8255759">
        <ele>23.209</ele>
        <time>2014-07-08T13:26:36Z</time>
      </trkpt>
      <trkpt lat="59.9348116" lon="17.825532">
        <ele>23.209</ele>
        <time>2014-07-08T13:26:37Z</time>
      </trkpt>
      <trkpt lat="59.9349099" lon="17.82549">
        <ele>23.209</ele>
        <time>2014-07-08T13:26:38Z</time>
      </trkpt>
      <trkpt lat="59.9350069" lon="17.825448">
        <ele>23.209</ele>
        <time>2014-07-08T13:26:39Z</time>
      </trkpt>
      <trkpt lat="59.9351016" lon="17.8254052">
        <ele>23.209</ele>
        <time>2014-07-08T13:26:40Z</time>
      </trkpt>
      <trkpt lat="59.9351942" lon="17.8253648">
        <ele>22.7283</ele>
        <time>2014-07-08T13:26:41Z</time>
      </trkpt>
      <trkpt lat="59.9352847" lon="17.8253274">
        <ele>22.7283</ele>
        <time>2014-07-08T13:26:42Z</time>
      </trkpt>
      <trkpt lat="59.9353725" lon="17.8252909">
        <ele>22.7283</ele>
        <time>2014-07-08T13:26:43Z</time>
      </trkpt>
      <trkpt lat="59.9354577" lon="17.8252542">
        <ele>22.7283</ele>
        <time>2014-07-08T13:26:44Z</time>
      </trkpt>
      <trkpt lat="59.9355408" lon="17.825218">
        <ele>22.7283</ele>
        <time>2014-07-08T13:26:45Z</time>
      </trkpt>
      <trkpt lat="59.9356222" lon="17.8251844">
        <ele>23.209</ele>
        <time>2014-07-08T13:26:46Z</time>
      </trkpt>
      <trkpt lat="59.9357024" lon="17.8251519">
        <ele>23.209</ele>
        <time>2014-07-08T13:26:47Z</time>
      </trkpt>
      <trkpt lat="59.9357816" lon="17.8251179">
        <ele>23.209</ele>
        <time>2014-07-08T13:26:48Z</time>
      </trkpt>
      <trkpt lat="59.9358589" lon="17.8250842">
        <ele>23.209</ele>
        <time>2014-07-08T13:26:49Z</time>
      </trkpt>
      <trkpt lat="59.9359343" lon="17.8250516">
        <ele>23.209</ele>
        <time>2014-07-08T13:26:50Z</time>
      </trkpt>
      <trkpt lat="59.9360071" lon="17.8250207">
        <ele>23.209</ele>
        <time>2014-07-08T13:26:51Z</time>
      </trkpt>
      <trkpt lat="59.9360766" lon="17.8249933">
        <ele>23.209</ele>
        <time>2014-07-08T13:26:52Z</time>
      </trkpt>
      <trkpt lat="59.9361444" lon="17.8249664">
        <ele>23.209</ele>
        <time>2014-07-08T13:26:53Z</time>
      </trkpt>
      <trkpt lat="59.936209" lon="17.8249398">
        <ele>23.6896</ele>
        <time>2014-07-08T13:26:54Z</time>
      </trkpt>
      <trkpt lat="59.9362695" lon="17.8249154">
        <ele>23.6896</ele>
        <time>2014-07-08T13:26:55Z</time>
      </trkpt>
      <trkpt lat="59.9363277" lon="17.8248896">
        <ele>23.209</ele>
        <time>2014-07-08T13:26:56Z</time>
      </trkpt>
      <trkpt lat="59.9363874" lon="17.8248605">
        <ele>23.209</ele>
        <time>2014-07-08T13:26:57Z</time>
      </trkpt>
      <trkpt lat="59.9364502" lon="17.8248274">
        <ele>23.209</ele>
        <time>2014-07-08T13:26:58Z</time>
      </trkpt>
      <trkpt lat="59.9365131" lon="17.8247885">
        <ele>23.209</ele>
        <time>2014-07-08T13:26:59Z</time>
      </trkpt>
      <trkpt lat="59.9365761" lon="17.8247416">
        <ele>23.209</ele>
        <time>2014-07-08T13:27:00Z</time>
      </trkpt>
      <trkpt lat="59.9366394" lon="17.8246814">
        <ele>22.7283</ele>
        <time>2014-07-08T13:27:01Z</time>
      </trkpt>
      <trkpt lat="59.9367" lon="17.8246099">
        <ele>22.7283</ele>
        <time>2014-07-08T13:27:02Z</time>
      </trkpt>
      <trkpt lat="59.9367597" lon="17.8245276">
        <ele>23.209</ele>
        <time>2014-07-08T13:27:03Z</time>
      </trkpt>
      <trkpt lat="59.9368144" lon="17.824437">
        <ele>23.209</ele>
        <time>2014-07-08T13:27:04Z</time>
      </trkpt>
      <trkpt lat="59.9368654" lon="17.8243437">
        <ele>23.6896</ele>
        <time>2014-07-08T13:27:05Z</time>
      </trkpt>
      <trkpt lat="59.9369147" lon="17.824254">
        <ele>23.6896</ele>
        <time>2014-07-08T13:27:06Z</time>
      </trkpt>
      <trkpt lat="59.9369612" lon="17.8241634">
        <ele>24.1703</ele>
        <time>2014-07-08T13:27:07Z</time>
      </trkpt>
      <trkpt lat="59.9370043" lon="17.8240666">
        <ele>24.1703</ele>
        <time>2014-07-08T13:27:08Z</time>
      </trkpt>
      <trkpt lat="59.9370425" lon="17.8239661">
        <ele>24.1703</ele>
        <time>2014-07-08T13:27:09Z</time>
      </trkpt>
      <trkpt lat="59.937077" lon="17.8238672">
        <ele>24.651</ele>
        <time>2014-07-08T13:27:10Z</time>
      </trkpt>
      <trkpt lat="59.9371125" lon="17.8237749">
        <ele>24.651</ele>
        <time>2014-07-08T13:27:11Z</time>
      </trkpt>
      <trkpt lat="59.9371461" lon="17.8236874">
        <ele>24.651</ele>
        <time>2014-07-08T13:27:12Z</time>
      </trkpt>
      <trkpt lat="59.9371772" lon="17.8236014">
        <ele>24.651</ele>
        <time>2014-07-08T13:27:13Z</time>
      </trkpt>
      <trkpt lat="59.937205" lon="17.8235134">
        <ele>24.651</ele>
        <time>2014-07-08T13:27:14Z</time>
      </trkpt>
      <trkpt lat="59.9372228" lon="17.8234199">
        <ele>24.651</ele>
        <time>2014-07-08T13:27:15Z</time>
      </trkpt>
      <trkpt lat="59.9372293" lon="17.8233191">
        <ele>24.1703</ele>
        <time>2014-07-08T13:27:16Z</time>
      </trkpt>
      <trkpt lat="59.9372345" lon="17.823213">
        <ele>24.1703</ele>
        <time>2014-07-08T13:27:17Z</time>
      </trkpt>
      <trkpt lat="59.9372464" lon="17.8231049">
        <ele>24.1703</ele>
        <time>2014-07-08T13:27:18Z</time>
      </trkpt>
      <trkpt lat="59.9372679" lon="17.8230008">
        <ele>24.1703</ele>
        <time>2014-07-08T13:27:19Z</time>
      </trkpt>
      <trkpt lat="59.9372974" lon="17.8229013">
        <ele>23.6896</ele>
        <time>2014-07-08T13:27:20Z</time>
      </trkpt>
      <trkpt lat="59.9373284" lon="17.8228019">
        <ele>23.6896</ele>
        <time>2014-07-08T13:27:21Z</time>
      </trkpt>
      <trkpt lat="59.9373596" lon="17.8226988">
        <ele>23.209</ele>
        <time>2014-07-08T13:27:22Z</time>
      </trkpt>
      <trkpt lat="59.9373902" lon="17.8225908">
        <ele>23.209</ele>
        <time>2014-07-08T13:27:23Z</time>
      </trkpt>
      <trkpt lat="59.9374156" lon="17.8224738">
        <ele>23.209</ele>
        <time>2014-07-08T13:27:24Z</time>
      </trkpt>
      <trkpt lat="59.9374284" lon="17.8223481">
        <ele>22.7283</ele>
        <time>2014-07-08T13:27:25Z</time>
      </trkpt>
      <trkpt lat="59.9374229" lon="17.8222147">
        <ele>22.2476</ele>
        <time>2014-07-08T13:27:26Z</time>
      </trkpt>
      <trkpt lat="59.9374087" lon="17.8220787">
        <ele>22.2476</ele>
        <time>2014-07-08T13:27:27Z</time>
      </trkpt>
      <trkpt lat="59.9374016" lon="17.821939">
        <ele>22.2476</ele>
        <time>2014-07-08T13:27:28Z</time>
      </trkpt>
      <trkpt lat="59.9374123" lon="17.8217976">
        <ele>21.767</ele>
        <time>2014-07-08T13:27:29Z</time>
      </trkpt>
      <trkpt lat="59.9374424" lon="17.8216651">
        <ele>21.767</ele>
        <time>2014-07-08T13:27:30Z</time>
      </trkpt>
      <trkpt lat="59.9374824" lon="17.8215453">
        <ele>21.767</ele>
        <time>2014-07-08T13:27:31Z</time>
      </trkpt>
      <trkpt lat="59.9375251" lon="17.8214253">
        <ele>21.767</ele>
        <time>2014-07-08T13:27:32Z</time>
      </trkpt>
      <trkpt lat="59.9375766" lon="17.8213247">
        <ele>21.2864</ele>
        <time>2014-07-08T13:27:33Z</time>
      </trkpt>
      <trkpt lat="59.9376351" lon="17.8212386">
        <ele>21.767</ele>
        <time>2014-07-08T13:27:34Z</time>
      </trkpt>
      <trkpt lat="59.9376911" lon="17.8211569">
        <ele>22.2476</ele>
        <time>2014-07-08T13:27:35Z</time>
      </trkpt>
      <trkpt lat="59.9377497" lon="17.8210803">
        <ele>22.7283</ele>
        <time>2014-07-08T13:27:36Z</time>
      </trkpt>
      <trkpt lat="59.9378113" lon="17.8210155">
        <ele>23.209</ele>
        <time>2014-07-08T13:27:37Z</time>
      </trkpt>
      <trkpt lat="59.9378744" lon="17.820957">
        <ele>23.209</ele>
        <time>2014-07-08T13:27:38Z</time>
      </trkpt>
      <trkpt lat="59.9379356" lon="17.8208958">
        <ele>23.6896</ele>
        <time>2014-07-08T13:27:39Z</time>
      </trkpt>
      <trkpt lat="59.9379926" lon="17.8208238">
        <ele>24.1703</ele>
        <time>2014-07-08T13:27:40Z</time>
      </trkpt>
      <trkpt lat="59.9380444" lon="17.8207419">
        <ele>24.1703</ele>
        <time>2014-07-08T13:27:41Z</time>
      </trkpt>
      <trkpt lat="59.9380932" lon="17.8206555">
        <ele>24.651</ele>
        <time>2014-07-08T13:27:42Z</time>
      </trkpt>
      <trkpt lat="59.9381421" lon="17.8205721">
        <ele>25.1317</ele>
        <time>2014-07-08T13:27:43Z</time>
      </trkpt>
      <trkpt lat="59.938189" lon="17.8204892">
        <ele>25.6123</ele>
        <time>2014-07-08T13:27:44Z</time>
      </trkpt>
      <trkpt lat="59.9382359" lon="17.8204089">
        <ele>25.6123</ele>
        <time>2014-07-08T13:27:45Z</time>
      </trkpt>
      <trkpt lat="59.9382833" lon="17.8203311">
        <ele>26.0929</ele>
        <time>2014-07-08T13:27:46Z</time>
      </trkpt>
      <trkpt lat="59.9383318" lon="17.8202566">
        <ele>26.5736</ele>
        <time>2014-07-08T13:27:47Z</time>
      </trkpt>
      <trkpt lat="59.9383794" lon="17.8201808">
        <ele>27.0543</ele>
        <time>2014-07-08T13:27:48Z</time>
      </trkpt>
      <trkpt lat="59.9384251" lon="17.8201007">
        <ele>27.0543</ele>
        <time>2014-07-08T13:27:49Z</time>
      </trkpt>
      <trkpt lat="59.9384707" lon="17.8200172">
        <ele>27.0543</ele>
        <time>2014-07-08T13:27:50Z</time>
      </trkpt>
      <trkpt lat="59.9385166" lon="17.8199317">
        <ele>27.5349</ele>
        <time>2014-07-08T13:27:51Z</time>
      </trkpt>
      <trkpt lat="59.9385591" lon="17.8198451">
        <ele>27.5349</ele>
        <time>2014-07-08T13:27:52Z</time>
      </trkpt>
      <trkpt lat="59.9385971" lon="17.8197591">
        <ele>28.0155</ele>
        <time>2014-07-08T13:27:53Z</time>
      </trkpt>
      <trkpt lat="59.9386333" lon="17.8196765">
        <ele>28.0155</ele>
        <time>2014-07-08T13:27:54Z</time>
      </trkpt>
      <trkpt lat="59.9386681" lon="17.819598">
        <ele>28.0155</ele>
        <time>2014-07-08T13:27:55Z</time>
      </trkpt>
      <trkpt lat="59.9387017" lon="17.8195231">
        <ele>28.0155</ele>
        <time>2014-07-08T13:27:56Z</time>
      </trkpt>
      <trkpt lat="59.9387349" lon="17.8194514">
        <ele>28.0155</ele>
        <time>2014-07-08T13:27:57Z</time>
      </trkpt>
      <trkpt lat="59.9387694" lon="17.8193768">
        <ele>28.4962</ele>
        <time>2014-07-08T13:27:58Z</time>
      </trkpt>
      <trkpt lat="59.9388052" lon="17.819301">
        <ele>28.0155</ele>
        <time>2014-07-08T13:27:59Z</time>
      </trkpt>
      <trkpt lat="59.9388407" lon="17.8192257">
        <ele>28.0155</ele>
        <time>2014-07-08T13:28:00Z</time>
      </trkpt>
      <trkpt lat="59.9388748" lon="17.8191486">
        <ele>28.0155</ele>
        <time>2014-07-08T13:28:01Z</time>
      </trkpt>
      <trkpt lat="59.9389094" lon="17.8190727">
        <ele>28.4962</ele>
        <time>2014-07-08T13:28:02Z</time>
      </trkpt>
      <trkpt lat="59.9389452" lon="17.8190005">
        <ele>28.4962</ele>
        <time>2014-07-08T13:28:03Z</time>
      </trkpt>
      <trkpt lat="59.9389804" lon="17.8189295">
        <ele>28.4962</ele>
        <time>2014-07-08T13:28:04Z</time>
      </trkpt>
      <trkpt lat="59.9390154" lon="17.8188595">
        <ele>28.4962</ele>
        <time>2014-07-08T13:28:05Z</time>
      </trkpt>
      <trkpt lat="59.9390508" lon="17.8187933">
        <ele>28.4962</ele>
        <time>2014-07-08T13:28:06Z</time>
      </trkpt>
      <trkpt lat="59.9390849" lon="17.8187277">
        <ele>28.4962</ele>
        <time>2014-07-08T13:28:07Z</time>
      </trkpt>
      <trkpt lat="59.9391186" lon="17.818664">
        <ele>28.4962</ele>
        <time>2014-07-08T13:28:08Z</time>
      </trkpt>
      <trkpt lat="59.9391528" lon="17.8186067">
        <ele>28.4962</ele>
        <time>2014-07-08T13:28:09Z</time>
      </trkpt>
      <trkpt lat="59.9391856" lon="17.8185553">
        <ele>28.9769</ele>
        <time>2014-07-08T13:28:10Z</time>
      </trkpt>
      <trkpt lat="59.9392186" lon="17.8185131">
        <ele>28.9769</ele>
        <time>2014-07-08T13:28:11Z</time>
      </trkpt>
      <trkpt lat="59.9392529" lon="17.8184841">
        <ele>28.9769</ele>
        <time>2014-07-08T13:28:12Z</time>
      </trkpt>
      <trkpt lat="59.9392865" lon="17.818461">
        <ele>28.9769</ele>
        <time>2014-07-08T13:28:13Z</time>
      </trkpt>
      <trkpt lat="59.9393169" lon="17.8184394">
        <ele>28.9769</ele>
        <time>2014-07-08T13:28:14Z</time>
      </trkpt>
      <trkpt lat="59.939342" lon="17.8184218">
        <ele>28.9769</ele>
        <time>2014-07-08T13:28:15Z</time>
      </trkpt>
      <trkpt lat="59.9393592" lon="17.8184102">
        <ele>28.9769</ele>
        <time>2014-07-08T13:28:16Z</time>
      </trkpt>
      <trkpt lat="59.9393662" lon="17.8184042">
        <ele>28.9769</ele>
        <time>2014-07-08T13:28:17Z</time>
      </trkpt>
      <trkpt lat="59.9393668" lon="17.8184004">
        <ele>28.9769</ele>
        <time>2014-07-08T13:28:18Z</time>
      </trkpt>
      <trkpt lat="59.9393666" lon="17.8184011">
        <ele>28.9769</ele>
        <time>2014-07-08T13:28:19Z</time>
      </trkpt>
      <trkpt lat="59.9394045" lon="17.8184423">
        <ele>28.0155</ele>
        <time>2014-07-08T13:29:13Z</time>
      </trkpt>
      <trkpt lat="59.939428" lon="17.8184436">
        <ele>28.0155</ele>
        <time>2014-07-08T13:29:14Z</time>
      </trkpt>
      <trkpt lat="59.9394516" lon="17.8184455">
        <ele>28.0155</ele>
        <time>2014-07-08T13:29:15Z</time>
      </trkpt>
      <trkpt lat="59.9394778" lon="17.8184518">
        <ele>27.5349</ele>
        <time>2014-07-08T13:29:16Z</time>
      </trkpt>
      <trkpt lat="59.9395087" lon="17.8184649">
        <ele>27.5349</ele>
        <time>2014-07-08T13:29:17Z</time>
      </trkpt>
      <trkpt lat="59.9395433" lon="17.8184804">
        <ele>27.5349</ele>
        <time>2014-07-08T13:29:18Z</time>
      </trkpt>
      <trkpt lat="59.9395817" lon="17.8184962">
        <ele>27.5349</ele>
        <time>2014-07-08T13:29:19Z</time>
      </trkpt>
      <trkpt lat="59.9396251" lon="17.8185069">
        <ele>27.5349</ele>
        <time>2014-07-08T13:29:20Z</time>
      </trkpt>
      <trkpt lat="59.939672" lon="17.8185128">
        <ele>27.5349</ele>
        <time>2014-07-08T13:29:21Z</time>
      </trkpt>
      <trkpt lat="59.9397197" lon="17.8185186">
        <ele>28.0155</ele>
        <time>2014-07-08T13:29:22Z</time>
      </trkpt>
      <trkpt lat="59.9397667" lon="17.8185273">
        <ele>28.0155</ele>
        <time>2014-07-08T13:29:23Z</time>
      </trkpt>
      <trkpt lat="59.9398149" lon="17.8185379">
        <ele>28.0155</ele>
        <time>2014-07-08T13:29:24Z</time>
      </trkpt>
      <trkpt lat="59.9398652" lon="17.8185514">
        <ele>28.0155</ele>
        <time>2014-07-08T13:29:25Z</time>
      </trkpt>
      <trkpt lat="59.9399175" lon="17.8185709">
        <ele>28.0155</ele>
        <time>2014-07-08T13:29:26Z</time>
      </trkpt>
      <trkpt lat="59.9399715" lon="17.818597">
        <ele>28.0155</ele>
        <time>2014-07-08T13:29:27Z</time>
      </trkpt>
      <trkpt lat="59.9400263" lon="17.81863">
        <ele>28.0155</ele>
        <time>2014-07-08T13:29:28Z</time>
      </trkpt>
      <trkpt lat="59.9400801" lon="17.81867">
        <ele>28.0155</ele>
        <time>2014-07-08T13:29:29Z</time>
      </trkpt>
      <trkpt lat="59.9401326" lon="17.8187165">
        <ele>27.5349</ele>
        <time>2014-07-08T13:29:30Z</time>
      </trkpt>
      <trkpt lat="59.9401838" lon="17.8187681">
        <ele>27.5349</ele>
        <time>2014-07-08T13:29:31Z</time>
      </trkpt>
      <trkpt lat="59.9402334" lon="17.8188238">
        <ele>27.5349</ele>
        <time>2014-07-08T13:29:32Z</time>
      </trkpt>
      <trkpt lat="59.9402817" lon="17.8188813">
        <ele>27.5349</ele>
        <time>2014-07-08T13:29:33Z</time>
      </trkpt>
      <trkpt lat="59.9403298" lon="17.8189388">
        <ele>27.5349</ele>
        <time>2014-07-08T13:29:34Z</time>
      </trkpt>
      <trkpt lat="59.9403778" lon="17.8189968">
        <ele>27.0543</ele>
        <time>2014-07-08T13:29:35Z</time>
      </trkpt>
      <trkpt lat="59.9404252" lon="17.8190569">
        <ele>27.0543</ele>
        <time>2014-07-08T13:29:36Z</time>
      </trkpt>
      <trkpt lat="59.9404717" lon="17.819121">
        <ele>27.0543</ele>
        <time>2014-07-08T13:29:37Z</time>
      </trkpt>
      <trkpt lat="59.9405182" lon="17.8191859">
        <ele>26.5736</ele>
        <time>2014-07-08T13:29:38Z</time>
      </trkpt>
      <trkpt lat="59.9405666" lon="17.8192466">
        <ele>26.5736</ele>
        <time>2014-07-08T13:29:39Z</time>
      </trkpt>
      <trkpt lat="59.9406166" lon="17.8193049">
        <ele>26.5736</ele>
        <time>2014-07-08T13:29:40Z</time>
      </trkpt>
      <trkpt lat="59.9406655" lon="17.8193676">
        <ele>26.5736</ele>
        <time>2014-07-08T13:29:41Z</time>
      </trkpt>
      <trkpt lat="59.9407141" lon="17.8194355">
        <ele>26.0929</ele>
        <time>2014-07-08T13:29:42Z</time>
      </trkpt>
      <trkpt lat="59.9407654" lon="17.8195063">
        <ele>26.0929</ele>
        <time>2014-07-08T13:29:43Z</time>
      </trkpt>
      <trkpt lat="59.9408202" lon="17.8195774">
        <ele>25.6123</ele>
        <time>2014-07-08T13:29:44Z</time>
      </trkpt>
      <trkpt lat="59.9408783" lon="17.8196479">
        <ele>25.6123</ele>
        <time>2014-07-08T13:29:45Z</time>
      </trkpt>
      <trkpt lat="59.9409381" lon="17.8197215">
        <ele>25.6123</ele>
        <time>2014-07-08T13:29:46Z</time>
      </trkpt>
      <trkpt lat="59.9409987" lon="17.8197987">
        <ele>25.1317</ele>
        <time>2014-07-08T13:29:47Z</time>
      </trkpt>
      <trkpt lat="59.9410595" lon="17.8198767">
        <ele>25.1317</ele>
        <time>2014-07-08T13:29:48Z</time>
      </trkpt>
      <trkpt lat="59.9411206" lon="17.8199532">
        <ele>24.651</ele>
        <time>2014-07-08T13:29:49Z</time>
      </trkpt>
      <trkpt lat="59.941183" lon="17.8200298">
        <ele>24.651</ele>
        <time>2014-07-08T13:29:50Z</time>
      </trkpt>
      <trkpt lat="59.9412467" lon="17.8201103">
        <ele>24.1703</ele>
        <time>2014-07-08T13:29:51Z</time>
      </trkpt>
      <trkpt lat="59.9413109" lon="17.8201944">
        <ele>24.1703</ele>
        <time>2014-07-08T13:29:52Z</time>
      </trkpt>
      <trkpt lat="59.9413772" lon="17.8202768">
        <ele>23.6896</ele>
        <time>2014-07-08T13:29:53Z</time>
      </trkpt>
      <trkpt lat="59.9414446" lon="17.8203586">
        <ele>23.6896</ele>
        <time>2014-07-08T13:29:54Z</time>
      </trkpt>
      <trkpt lat="59.9415126" lon="17.820442">
        <ele>23.6896</ele>
        <time>2014-07-08T13:29:55Z</time>
      </trkpt>
      <trkpt lat="59.9415808" lon="17.8205254">
        <ele>23.6896</ele>
        <time>2014-07-08T13:29:56Z</time>
      </trkpt>
      <trkpt lat="59.9416483" lon="17.8206078">
        <ele>23.6896</ele>
        <time>2014-07-08T13:29:57Z</time>
      </trkpt>
      <trkpt lat="59.9417145" lon="17.8206885">
        <ele>23.6896</ele>
        <time>2014-07-08T13:29:58Z</time>
      </trkpt>
      <trkpt lat="59.9417786" lon="17.820768">
        <ele>23.6896</ele>
        <time>2014-07-08T13:29:59Z</time>
      </trkpt>
      <trkpt lat="59.9418403" lon="17.820847">
        <ele>23.6896</ele>
        <time>2014-07-08T13:30:00Z</time>
      </trkpt>
      <trkpt lat="59.9418997" lon="17.8209238">
        <ele>23.6896</ele>
        <time>2014-07-08T13:30:01Z</time>
      </trkpt>
      <trkpt lat="59.9419575" lon="17.8209984">
        <ele>23.6896</ele>
        <time>2014-07-08T13:30:02Z</time>
      </trkpt>
      <trkpt lat="59.9420154" lon="17.8210709">
        <ele>23.6896</ele>
        <time>2014-07-08T13:30:03Z</time>
      </trkpt>
      <trkpt lat="59.9420729" lon="17.8211419">
        <ele>24.1703</ele>
        <time>2014-07-08T13:30:04Z</time>
      </trkpt>
      <trkpt lat="59.9421292" lon="17.8212128">
        <ele>24.1703</ele>
        <time>2014-07-08T13:30:05Z</time>
      </trkpt>
      <trkpt lat="59.9421836" lon="17.821282">
        <ele>24.1703</ele>
        <time>2014-07-08T13:30:06Z</time>
      </trkpt>
      <trkpt lat="59.942236" lon="17.8213481">
        <ele>24.651</ele>
        <time>2014-07-08T13:30:07Z</time>
      </trkpt>
      <trkpt lat="59.9422879" lon="17.8214123">
        <ele>24.651</ele>
        <time>2014-07-08T13:30:08Z</time>
      </trkpt>
      <trkpt lat="59.9423397" lon="17.8214754">
        <ele>24.651</ele>
        <time>2014-07-08T13:30:09Z</time>
      </trkpt>
      <trkpt lat="59.9423903" lon="17.8215396">
        <ele>25.1317</ele>
        <time>2014-07-08T13:30:10Z</time>
      </trkpt>
      <trkpt lat="59.9424403" lon="17.8216038">
        <ele>25.1317</ele>
        <time>2014-07-08T13:30:11Z</time>
      </trkpt>
      <trkpt lat="59.9424904" lon="17.8216666">
        <ele>25.1317</ele>
        <time>2014-07-08T13:30:12Z</time>
      </trkpt>
      <trkpt lat="59.942541" lon="17.8217279">
        <ele>25.6123</ele>
        <time>2014-07-08T13:30:13Z</time>
      </trkpt>
      <trkpt lat="59.9425915" lon="17.8217889">
        <ele>25.6123</ele>
        <time>2014-07-08T13:30:14Z</time>
      </trkpt>
      <trkpt lat="59.9426416" lon="17.8218495">
        <ele>25.6123</ele>
        <time>2014-07-08T13:30:15Z</time>
      </trkpt>
      <trkpt lat="59.9426915" lon="17.8219086">
        <ele>26.0929</ele>
        <time>2014-07-08T13:30:16Z</time>
      </trkpt>
      <trkpt lat="59.9427406" lon="17.8219691">
        <ele>26.0929</ele>
        <time>2014-07-08T13:30:17Z</time>
      </trkpt>
      <trkpt lat="59.9427883" lon="17.8220306">
        <ele>26.0929</ele>
        <time>2014-07-08T13:30:18Z</time>
      </trkpt>
      <trkpt lat="59.9428353" lon="17.8220901">
        <ele>26.5736</ele>
        <time>2014-07-08T13:30:19Z</time>
      </trkpt>
      <trkpt lat="59.9428815" lon="17.8221484">
        <ele>26.5736</ele>
        <time>2014-07-08T13:30:20Z</time>
      </trkpt>
      <trkpt lat="59.9429271" lon="17.8222049">
        <ele>26.5736</ele>
        <time>2014-07-08T13:30:21Z</time>
      </trkpt>
      <trkpt lat="59.9429721" lon="17.8222602">
        <ele>27.0543</ele>
        <time>2014-07-08T13:30:22Z</time>
      </trkpt>
      <trkpt lat="59.9430163" lon="17.8223165">
        <ele>27.0543</ele>
        <time>2014-07-08T13:30:23Z</time>
      </trkpt>
      <trkpt lat="59.9430603" lon="17.8223733">
        <ele>27.0543</ele>
        <time>2014-07-08T13:30:24Z</time>
      </trkpt>
      <trkpt lat="59.9431042" lon="17.8224291">
        <ele>27.0543</ele>
        <time>2014-07-08T13:30:25Z</time>
      </trkpt>
      <trkpt lat="59.9431476" lon="17.8224831">
        <ele>27.0543</ele>
        <time>2014-07-08T13:30:26Z</time>
      </trkpt>
      <trkpt lat="59.9431908" lon="17.8225351">
        <ele>27.5349</ele>
        <time>2014-07-08T13:30:27Z</time>
      </trkpt>
      <trkpt lat="59.9432333" lon="17.8225866">
        <ele>27.5349</ele>
        <time>2014-07-08T13:30:28Z</time>
      </trkpt>
      <trkpt lat="59.9432752" lon="17.8226387">
        <ele>27.5349</ele>
        <time>2014-07-08T13:30:29Z</time>
      </trkpt>
      <trkpt lat="59.9433166" lon="17.8226911">
        <ele>27.5349</ele>
        <time>2014-07-08T13:30:30Z</time>
      </trkpt>
      <trkpt lat="59.9433577" lon="17.8227431">
        <ele>28.0155</ele>
        <time>2014-07-08T13:30:31Z</time>
      </trkpt>
      <trkpt lat="59.9433996" lon="17.8227947">
        <ele>28.0155</ele>
        <time>2014-07-08T13:30:32Z</time>
      </trkpt>
      <trkpt lat="59.9434418" lon="17.8228456">
        <ele>28.0155</ele>
        <time>2014-07-08T13:30:33Z</time>
      </trkpt>
      <trkpt lat="59.943484" lon="17.8228974">
        <ele>28.4962</ele>
        <time>2014-07-08T13:30:34Z</time>
      </trkpt>
      <trkpt lat="59.9435263" lon="17.8229493">
        <ele>28.4962</ele>
        <time>2014-07-08T13:30:35Z</time>
      </trkpt>
      <trkpt lat="59.9435687" lon="17.8230003">
        <ele>28.4962</ele>
        <time>2014-07-08T13:30:36Z</time>
      </trkpt>
      <trkpt lat="59.9436109" lon="17.8230522">
        <ele>28.4962</ele>
        <time>2014-07-08T13:30:37Z</time>
      </trkpt>
      <trkpt lat="59.9436522" lon="17.8231052">
        <ele>28.9769</ele>
        <time>2014-07-08T13:30:38Z</time>
      </trkpt>
      <trkpt lat="59.9436933" lon="17.823158">
        <ele>28.9769</ele>
        <time>2014-07-08T13:30:39Z</time>
      </trkpt>
      <trkpt lat="59.9437347" lon="17.8232098">
        <ele>28.9769</ele>
        <time>2014-07-08T13:30:40Z</time>
      </trkpt>
      <trkpt lat="59.9437761" lon="17.8232614">
        <ele>28.9769</ele>
        <time>2014-07-08T13:30:41Z</time>
      </trkpt>
      <trkpt lat="59.9438177" lon="17.8233121">
        <ele>29.4575</ele>
        <time>2014-07-08T13:30:42Z</time>
      </trkpt>
      <trkpt lat="59.9438595" lon="17.8233622">
        <ele>29.4575</ele>
        <time>2014-07-08T13:30:43Z</time>
      </trkpt>
      <trkpt lat="59.9439009" lon="17.8234138">
        <ele>29.4575</ele>
        <time>2014-07-08T13:30:44Z</time>
      </trkpt>
      <trkpt lat="59.9439419" lon="17.8234634">
        <ele>29.9381</ele>
        <time>2014-07-08T13:30:45Z</time>
      </trkpt>
      <trkpt lat="59.9439832" lon="17.8235128">
        <ele>29.9381</ele>
        <time>2014-07-08T13:30:46Z</time>
      </trkpt>
      <trkpt lat="59.9440233" lon="17.8235688">
        <ele>29.9381</ele>
        <time>2014-07-08T13:30:47Z</time>
      </trkpt>
      <trkpt lat="59.9440622" lon="17.8236295">
        <ele>29.9381</ele>
        <time>2014-07-08T13:30:48Z</time>
      </trkpt>
      <trkpt lat="59.9441026" lon="17.8236878">
        <ele>29.9381</ele>
        <time>2014-07-08T13:30:49Z</time>
      </trkpt>
      <trkpt lat="59.9441445" lon="17.8237407">
        <ele>29.9381</ele>
        <time>2014-07-08T13:30:50Z</time>
      </trkpt>
      <trkpt lat="59.9441878" lon="17.8237909">
        <ele>29.9381</ele>
        <time>2014-07-08T13:30:51Z</time>
      </trkpt>
      <trkpt lat="59.9442325" lon="17.8238403">
        <ele>30.4188</ele>
        <time>2014-07-08T13:30:52Z</time>
      </trkpt>
      <trkpt lat="59.9442771" lon="17.8238915">
        <ele>30.8995</ele>
        <time>2014-07-08T13:30:53Z</time>
      </trkpt>
      <trkpt lat="59.9443193" lon="17.8239437">
        <ele>30.8995</ele>
        <time>2014-07-08T13:30:54Z</time>
      </trkpt>
      <trkpt lat="59.9443644" lon="17.8239907">
        <ele>30.8995</ele>
        <time>2014-07-08T13:30:55Z</time>
      </trkpt>
      <trkpt lat="59.9444108" lon="17.8240334">
        <ele>30.8995</ele>
        <time>2014-07-08T13:30:56Z</time>
      </trkpt>
      <trkpt lat="59.9444578" lon="17.8240762">
        <ele>30.8995</ele>
        <time>2014-07-08T13:30:57Z</time>
      </trkpt>
      <trkpt lat="59.9445045" lon="17.824122">
        <ele>30.8995</ele>
        <time>2014-07-08T13:30:58Z</time>
      </trkpt>
      <trkpt lat="59.9445509" lon="17.8241706">
        <ele>30.8995</ele>
        <time>2014-07-08T13:30:59Z</time>
      </trkpt>
      <trkpt lat="59.9445977" lon="17.8242204">
        <ele>30.8995</ele>
        <time>2014-07-08T13:31:00Z</time>
      </trkpt>
      <trkpt lat="59.9446454" lon="17.8242716">
        <ele>30.8995</ele>
        <time>2014-07-08T13:31:01Z</time>
      </trkpt>
      <trkpt lat="59.9446947" lon="17.8243234">
        <ele>30.8995</ele>
        <time>2014-07-08T13:31:02Z</time>
      </trkpt>
      <trkpt lat="59.9447452" lon="17.8243758">
        <ele>30.8995</ele>
        <time>2014-07-08T13:31:03Z</time>
      </trkpt>
      <trkpt lat="59.9447967" lon="17.8244286">
        <ele>30.4188</ele>
        <time>2014-07-08T13:31:04Z</time>
      </trkpt>
      <trkpt lat="59.9448487" lon="17.8244828">
        <ele>30.4188</ele>
        <time>2014-07-08T13:31:05Z</time>
      </trkpt>
      <trkpt lat="59.9449014" lon="17.8245404">
        <ele>30.4188</ele>
        <time>2014-07-08T13:31:06Z</time>
      </trkpt>
      <trkpt lat="59.9449562" lon="17.8245994">
        <ele>30.4188</ele>
        <time>2014-07-08T13:31:07Z</time>
      </trkpt>
      <trkpt lat="59.9450132" lon="17.8246588">
        <ele>30.4188</ele>
        <time>2014-07-08T13:31:08Z</time>
      </trkpt>
      <trkpt lat="59.9450718" lon="17.8247177">
        <ele>29.9381</ele>
        <time>2014-07-08T13:31:09Z</time>
      </trkpt>
      <trkpt lat="59.9451319" lon="17.8247757">
        <ele>29.9381</ele>
        <time>2014-07-08T13:31:10Z</time>
      </trkpt>
      <trkpt lat="59.9451924" lon="17.8248367">
        <ele>29.9381</ele>
        <time>2014-07-08T13:31:11Z</time>
      </trkpt>
      <trkpt lat="59.9452535" lon="17.8249021">
        <ele>29.9381</ele>
        <time>2014-07-08T13:31:12Z</time>
      </trkpt>
      <trkpt lat="59.9453156" lon="17.8249684">
        <ele>29.4575</ele>
        <time>2014-07-08T13:31:13Z</time>
      </trkpt>
      <trkpt lat="59.9453789" lon="17.8250337">
        <ele>29.4575</ele>
        <time>2014-07-08T13:31:14Z</time>
      </trkpt>
      <trkpt lat="59.9454435" lon="17.8250979">
        <ele>29.4575</ele>
        <time>2014-07-08T13:31:15Z</time>
      </trkpt>
      <trkpt lat="59.9455073" lon="17.8251642">
        <ele>28.9769</ele>
        <time>2014-07-08T13:31:16Z</time>
      </trkpt>
      <trkpt lat="59.9455705" lon="17.8252311">
        <ele>28.9769</ele>
        <time>2014-07-08T13:31:17Z</time>
      </trkpt>
      <trkpt lat="59.9456323" lon="17.8252959">
        <ele>28.9769</ele>
        <time>2014-07-08T13:31:18Z</time>
      </trkpt>
      <trkpt lat="59.9456944" lon="17.8253604">
        <ele>28.9769</ele>
        <time>2014-07-08T13:31:19Z</time>
      </trkpt>
      <trkpt lat="59.9457566" lon="17.8254237">
        <ele>28.9769</ele>
        <time>2014-07-08T13:31:20Z</time>
      </trkpt>
      <trkpt lat="59.9458171" lon="17.8254855">
        <ele>28.4962</ele>
        <time>2014-07-08T13:31:21Z</time>
      </trkpt>
      <trkpt lat="59.9458766" lon="17.8255433">
        <ele>28.4962</ele>
        <time>2014-07-08T13:31:22Z</time>
      </trkpt>
      <trkpt lat="59.9459357" lon="17.8255964">
        <ele>28.4962</ele>
        <time>2014-07-08T13:31:23Z</time>
      </trkpt>
      <trkpt lat="59.9459928" lon="17.8256512">
        <ele>28.0155</ele>
        <time>2014-07-08T13:31:24Z</time>
      </trkpt>
      <trkpt lat="59.9460484" lon="17.8257105">
        <ele>27.5349</ele>
        <time>2014-07-08T13:31:25Z</time>
      </trkpt>
      <trkpt lat="59.9461036" lon="17.8257708">
        <ele>27.5349</ele>
        <time>2014-07-08T13:31:26Z</time>
      </trkpt>
      <trkpt lat="59.946158" lon="17.8258319">
        <ele>27.5349</ele>
        <time>2014-07-08T13:31:27Z</time>
      </trkpt>
      <trkpt lat="59.9462139" lon="17.8258924">
        <ele>27.5349</ele>
        <time>2014-07-08T13:31:28Z</time>
      </trkpt>
      <trkpt lat="59.946271" lon="17.8259535">
        <ele>27.0543</ele>
        <time>2014-07-08T13:31:29Z</time>
      </trkpt>
      <trkpt lat="59.946328" lon="17.8260164">
        <ele>27.0543</ele>
        <time>2014-07-08T13:31:30Z</time>
      </trkpt>
      <trkpt lat="59.9463855" lon="17.8260783">
        <ele>27.0543</ele>
        <time>2014-07-08T13:31:31Z</time>
      </trkpt>
      <trkpt lat="59.9464439" lon="17.8261386">
        <ele>27.0543</ele>
        <time>2014-07-08T13:31:32Z</time>
      </trkpt>
      <trkpt lat="59.9465025" lon="17.8261992">
        <ele>26.5736</ele>
        <time>2014-07-08T13:31:33Z</time>
      </trkpt>
      <trkpt lat="59.9465619" lon="17.8262588">
        <ele>26.5736</ele>
        <time>2014-07-08T13:31:34Z</time>
      </trkpt>
      <trkpt lat="59.9466216" lon="17.8263198">
        <ele>26.5736</ele>
        <time>2014-07-08T13:31:35Z</time>
      </trkpt>
      <trkpt lat="59.946682" lon="17.8263825">
        <ele>26.5736</ele>
        <time>2014-07-08T13:31:36Z</time>
      </trkpt>
      <trkpt lat="59.9467438" lon="17.8264445">
        <ele>26.5736</ele>
        <time>2014-07-08T13:31:37Z</time>
      </trkpt>
      <trkpt lat="59.9468066" lon="17.8265086">
        <ele>26.5736</ele>
        <time>2014-07-08T13:31:38Z</time>
      </trkpt>
      <trkpt lat="59.9468696" lon="17.8265762">
        <ele>26.5736</ele>
        <time>2014-07-08T13:31:39Z</time>
      </trkpt>
      <trkpt lat="59.9469333" lon="17.8266432">
        <ele>26.5736</ele>
        <time>2014-07-08T13:31:40Z</time>
      </trkpt>
      <trkpt lat="59.9469977" lon="17.8267088">
        <ele>26.5736</ele>
        <time>2014-07-08T13:31:41Z</time>
      </trkpt>
      <trkpt lat="59.9470624" lon="17.8267751">
        <ele>26.5736</ele>
        <time>2014-07-08T13:31:42Z</time>
      </trkpt>
      <trkpt lat="59.9471264" lon="17.8268422">
        <ele>26.5736</ele>
        <time>2014-07-08T13:31:43Z</time>
      </trkpt>
      <trkpt lat="59.947191" lon="17.8269077">
        <ele>26.5736</ele>
        <time>2014-07-08T13:31:44Z</time>
      </trkpt>
      <trkpt lat="59.9472559" lon="17.8269727">
        <ele>26.5736</ele>
        <time>2014-07-08T13:31:45Z</time>
      </trkpt>
      <trkpt lat="59.9473199" lon="17.8270398">
        <ele>26.5736</ele>
        <time>2014-07-08T13:31:46Z</time>
      </trkpt>
      <trkpt lat="59.9473839" lon="17.8271066">
        <ele>26.5736</ele>
        <time>2014-07-08T13:31:47Z</time>
      </trkpt>
      <trkpt lat="59.9474478" lon="17.8271727">
        <ele>26.5736</ele>
        <time>2014-07-08T13:31:48Z</time>
      </trkpt>
      <trkpt lat="59.9475114" lon="17.8272393">
        <ele>26.5736</ele>
        <time>2014-07-08T13:31:49Z</time>
      </trkpt>
      <trkpt lat="59.947575" lon="17.8273055">
        <ele>26.5736</ele>
        <time>2014-07-08T13:31:50Z</time>
      </trkpt>
      <trkpt lat="59.9476389" lon="17.8273715">
        <ele>26.5736</ele>
        <time>2014-07-08T13:31:51Z</time>
      </trkpt>
      <trkpt lat="59.9477033" lon="17.8274381">
        <ele>26.5736</ele>
        <time>2014-07-08T13:31:52Z</time>
      </trkpt>
      <trkpt lat="59.9477684" lon="17.8275047">
        <ele>26.5736</ele>
        <time>2014-07-08T13:31:53Z</time>
      </trkpt>
      <trkpt lat="59.9478341" lon="17.8275708">
        <ele>26.5736</ele>
        <time>2014-07-08T13:31:54Z</time>
      </trkpt>
      <trkpt lat="59.9479001" lon="17.8276366">
        <ele>26.5736</ele>
        <time>2014-07-08T13:31:55Z</time>
      </trkpt>
      <trkpt lat="59.9479666" lon="17.8277036">
        <ele>27.0543</ele>
        <time>2014-07-08T13:31:56Z</time>
      </trkpt>
      <trkpt lat="59.9480325" lon="17.8277723">
        <ele>27.0543</ele>
        <time>2014-07-08T13:31:57Z</time>
      </trkpt>
      <trkpt lat="59.9480963" lon="17.8278403">
        <ele>27.0543</ele>
        <time>2014-07-08T13:31:58Z</time>
      </trkpt>
      <trkpt lat="59.9481589" lon="17.8279043">
        <ele>27.0543</ele>
        <time>2014-07-08T13:31:59Z</time>
      </trkpt>
      <trkpt lat="59.9482215" lon="17.8279675">
        <ele>27.0543</ele>
        <time>2014-07-08T13:32:00Z</time>
      </trkpt>
      <trkpt lat="59.9482839" lon="17.8280312">
        <ele>27.0543</ele>
        <time>2014-07-08T13:32:01Z</time>
      </trkpt>
      <trkpt lat="59.9483463" lon="17.828096">
        <ele>27.0543</ele>
        <time>2014-07-08T13:32:02Z</time>
      </trkpt>
      <trkpt lat="59.9484077" lon="17.8281619">
        <ele>27.0543</ele>
        <time>2014-07-08T13:32:03Z</time>
      </trkpt>
      <trkpt lat="59.9484688" lon="17.8282292">
        <ele>27.0543</ele>
        <time>2014-07-08T13:32:04Z</time>
      </trkpt>
      <trkpt lat="59.9485303" lon="17.828294">
        <ele>27.0543</ele>
        <time>2014-07-08T13:32:05Z</time>
      </trkpt>
      <trkpt lat="59.9485921" lon="17.8283566">
        <ele>27.0543</ele>
        <time>2014-07-08T13:32:06Z</time>
      </trkpt>
      <trkpt lat="59.9486537" lon="17.8284199">
        <ele>27.0543</ele>
        <time>2014-07-08T13:32:07Z</time>
      </trkpt>
      <trkpt lat="59.9487153" lon="17.8284841">
        <ele>26.5736</ele>
        <time>2014-07-08T13:32:08Z</time>
      </trkpt>
      <trkpt lat="59.9487765" lon="17.8285493">
        <ele>26.5736</ele>
        <time>2014-07-08T13:32:09Z</time>
      </trkpt>
      <trkpt lat="59.9488371" lon="17.8286153">
        <ele>26.5736</ele>
        <time>2014-07-08T13:32:10Z</time>
      </trkpt>
      <trkpt lat="59.9488968" lon="17.8286808">
        <ele>26.5736</ele>
        <time>2014-07-08T13:32:11Z</time>
      </trkpt>
      <trkpt lat="59.9489555" lon="17.8287443">
        <ele>26.5736</ele>
        <time>2014-07-08T13:32:12Z</time>
      </trkpt>
      <trkpt lat="59.9490132" lon="17.8288052">
        <ele>26.5736</ele>
        <time>2014-07-08T13:32:13Z</time>
      </trkpt>
      <trkpt lat="59.9490697" lon="17.8288664">
        <ele>26.5736</ele>
        <time>2014-07-08T13:32:14Z</time>
      </trkpt>
      <trkpt lat="59.9491249" lon="17.8289307">
        <ele>26.5736</ele>
        <time>2014-07-08T13:32:15Z</time>
      </trkpt>
      <trkpt lat="59.9491785" lon="17.8289974">
        <ele>26.5736</ele>
        <time>2014-07-08T13:32:16Z</time>
      </trkpt>
      <trkpt lat="59.9492313" lon="17.8290638">
        <ele>26.5736</ele>
        <time>2014-07-08T13:32:17Z</time>
      </trkpt>
      <trkpt lat="59.9492841" lon="17.8291285">
        <ele>27.0543</ele>
        <time>2014-07-08T13:32:18Z</time>
      </trkpt>
      <trkpt lat="59.9493359" lon="17.8291926">
        <ele>27.0543</ele>
        <time>2014-07-08T13:32:19Z</time>
      </trkpt>
      <trkpt lat="59.9493863" lon="17.8292586">
        <ele>27.0543</ele>
        <time>2014-07-08T13:32:20Z</time>
      </trkpt>
      <trkpt lat="59.9494363" lon="17.8293223">
        <ele>27.0543</ele>
        <time>2014-07-08T13:32:21Z</time>
      </trkpt>
      <trkpt lat="59.949487" lon="17.8293735">
        <ele>27.0543</ele>
        <time>2014-07-08T13:32:22Z</time>
      </trkpt>
      <trkpt lat="59.9495374" lon="17.829412">
        <ele>27.5349</ele>
        <time>2014-07-08T13:32:23Z</time>
      </trkpt>
      <trkpt lat="59.949586" lon="17.8294496">
        <ele>27.5349</ele>
        <time>2014-07-08T13:32:24Z</time>
      </trkpt>
      <trkpt lat="59.9496328" lon="17.8294918">
        <ele>27.5349</ele>
        <time>2014-07-08T13:32:25Z</time>
      </trkpt>
      <trkpt lat="59.9496779" lon="17.8295388">
        <ele>28.0155</ele>
        <time>2014-07-08T13:32:26Z</time>
      </trkpt>
      <trkpt lat="59.9497219" lon="17.8295905">
        <ele>28.0155</ele>
        <time>2014-07-08T13:32:27Z</time>
      </trkpt>
      <trkpt lat="59.9497645" lon="17.8296481">
        <ele>28.0155</ele>
        <time>2014-07-08T13:32:28Z</time>
      </trkpt>
      <trkpt lat="59.9498046" lon="17.8297092">
        <ele>27.5349</ele>
        <time>2014-07-08T13:32:29Z</time>
      </trkpt>
      <trkpt lat="59.9498488" lon="17.8297603">
        <ele>28.0155</ele>
        <time>2014-07-08T13:32:30Z</time>
      </trkpt>
      <trkpt lat="59.9498985" lon="17.8297802">
        <ele>27.5349</ele>
        <time>2014-07-08T13:32:31Z</time>
      </trkpt>
      <trkpt lat="59.9499472" lon="17.829757">
        <ele>27.5349</ele>
        <time>2014-07-08T13:32:32Z</time>
      </trkpt>
      <trkpt lat="59.9499905" lon="17.8296966">
        <ele>27.0543</ele>
        <time>2014-07-08T13:32:33Z</time>
      </trkpt>
      <trkpt lat="59.9500265" lon="17.8296091">
        <ele>27.0543</ele>
        <time>2014-07-08T13:32:34Z</time>
      </trkpt>
      <trkpt lat="59.9500544" lon="17.8295018">
        <ele>26.5736</ele>
        <time>2014-07-08T13:32:35Z</time>
      </trkpt>
      <trkpt lat="59.9500745" lon="17.8293812">
        <ele>26.5736</ele>
        <time>2014-07-08T13:32:36Z</time>
      </trkpt>
      <trkpt lat="59.9500889" lon="17.8292518">
        <ele>26.0929</ele>
        <time>2014-07-08T13:32:37Z</time>
      </trkpt>
      <trkpt lat="59.9500977" lon="17.8291183">
        <ele>26.0929</ele>
        <time>2014-07-08T13:32:38Z</time>
      </trkpt>
      <trkpt lat="59.9501003" lon="17.828981">
        <ele>26.0929</ele>
        <time>2014-07-08T13:32:39Z</time>
      </trkpt>
      <trkpt lat="59.9500989" lon="17.8288405">
        <ele>26.0929</ele>
        <time>2014-07-08T13:32:40Z</time>
      </trkpt>
      <trkpt lat="59.9500959" lon="17.8286976">
        <ele>25.6123</ele>
        <time>2014-07-08T13:32:41Z</time>
      </trkpt>
      <trkpt lat="59.9500913" lon="17.8285559">
        <ele>25.6123</ele>
        <time>2014-07-08T13:32:42Z</time>
      </trkpt>
      <trkpt lat="59.9500867" lon="17.8284158">
        <ele>25.6123</ele>
        <time>2014-07-08T13:32:43Z</time>
      </trkpt>
      <trkpt lat="59.9500825" lon="17.8282764">
        <ele>25.6123</ele>
        <time>2014-07-08T13:32:44Z</time>
      </trkpt>
      <trkpt lat="59.9500792" lon="17.8281371">
        <ele>25.6123</ele>
        <time>2014-07-08T13:32:45Z</time>
      </trkpt>
      <trkpt lat="59.9500766" lon="17.8279972">
        <ele>25.6123</ele>
        <time>2014-07-08T13:32:46Z</time>
      </trkpt>
      <trkpt lat="59.9500744" lon="17.8278559">
        <ele>25.6123</ele>
        <time>2014-07-08T13:32:47Z</time>
      </trkpt>
      <trkpt lat="59.950072" lon="17.827715">
        <ele>25.6123</ele>
        <time>2014-07-08T13:32:48Z</time>
      </trkpt>
      <trkpt lat="59.9500715" lon="17.8275725">
        <ele>25.6123</ele>
        <time>2014-07-08T13:32:49Z</time>
      </trkpt>
      <trkpt lat="59.9500725" lon="17.8274313">
        <ele>25.6123</ele>
        <time>2014-07-08T13:32:50Z</time>
      </trkpt>
      <trkpt lat="59.9500746" lon="17.8272917">
        <ele>25.6123</ele>
        <time>2014-07-08T13:32:51Z</time>
      </trkpt>
      <trkpt lat="59.9500772" lon="17.8271471">
        <ele>25.6123</ele>
        <time>2014-07-08T13:32:52Z</time>
      </trkpt>
      <trkpt lat="59.9500814" lon="17.8270004">
        <ele>25.6123</ele>
        <time>2014-07-08T13:32:53Z</time>
      </trkpt>
      <trkpt lat="59.9500879" lon="17.8268543">
        <ele>25.6123</ele>
        <time>2014-07-08T13:32:54Z</time>
      </trkpt>
      <trkpt lat="59.9500965" lon="17.826707">
        <ele>25.6123</ele>
        <time>2014-07-08T13:32:55Z</time>
      </trkpt>
      <trkpt lat="59.9501084" lon="17.8265592">
        <ele>26.0929</ele>
        <time>2014-07-08T13:32:56Z</time>
      </trkpt>
      <trkpt lat="59.9501244" lon="17.8264111">
        <ele>26.0929</ele>
        <time>2014-07-08T13:32:57Z</time>
      </trkpt>
      <trkpt lat="59.950144" lon="17.826264">
        <ele>26.0929</ele>
        <time>2014-07-08T13:32:58Z</time>
      </trkpt>
      <trkpt lat="59.9501672" lon="17.8261197">
        <ele>26.0929</ele>
        <time>2014-07-08T13:32:59Z</time>
      </trkpt>
      <trkpt lat="59.9501939" lon="17.8259806">
        <ele>26.0929</ele>
        <time>2014-07-08T13:33:00Z</time>
      </trkpt>
      <trkpt lat="59.9502239" lon="17.8258468">
        <ele>26.0929</ele>
        <time>2014-07-08T13:33:01Z</time>
      </trkpt>
      <trkpt lat="59.950255" lon="17.8257149">
        <ele>26.5736</ele>
        <time>2014-07-08T13:33:02Z</time>
      </trkpt>
      <trkpt lat="59.9502842" lon="17.8255827">
        <ele>26.5736</ele>
        <time>2014-07-08T13:33:03Z</time>
      </trkpt>
      <trkpt lat="59.9503113" lon="17.8254496">
        <ele>26.5736</ele>
        <time>2014-07-08T13:33:04Z</time>
      </trkpt>
      <trkpt lat="59.9503396" lon="17.8253174">
        <ele>26.5736</ele>
        <time>2014-07-08T13:33:05Z</time>
      </trkpt>
      <trkpt lat="59.9503702" lon="17.8251861">
        <ele>26.5736</ele>
        <time>2014-07-08T13:33:06Z</time>
      </trkpt>
      <trkpt lat="59.9504004" lon="17.8250537">
        <ele>27.0543</ele>
        <time>2014-07-08T13:33:07Z</time>
      </trkpt>
      <trkpt lat="59.9504293" lon="17.8249197">
        <ele>27.0543</ele>
        <time>2014-07-08T13:33:08Z</time>
      </trkpt>
      <trkpt lat="59.950458" lon="17.8247859">
        <ele>27.0543</ele>
        <time>2014-07-08T13:33:09Z</time>
      </trkpt>
      <trkpt lat="59.9504874" lon="17.8246524">
        <ele>27.0543</ele>
        <time>2014-07-08T13:33:10Z</time>
      </trkpt>
      <trkpt lat="59.9505175" lon="17.8245186">
        <ele>27.0543</ele>
        <time>2014-07-08T13:33:11Z</time>
      </trkpt>
      <trkpt lat="59.9505469" lon="17.8243834">
        <ele>27.5349</ele>
        <time>2014-07-08T13:33:12Z</time>
      </trkpt>
      <trkpt lat="59.9505754" lon="17.8242473">
        <ele>27.5349</ele>
        <time>2014-07-08T13:33:13Z</time>
      </trkpt>
      <trkpt lat="59.950604" lon="17.8241116">
        <ele>27.5349</ele>
        <time>2014-07-08T13:33:14Z</time>
      </trkpt>
      <trkpt lat="59.9506318" lon="17.8239759">
        <ele>27.5349</ele>
        <time>2014-07-08T13:33:15Z</time>
      </trkpt>
      <trkpt lat="59.9506559" lon="17.8238381">
        <ele>28.0155</ele>
        <time>2014-07-08T13:33:16Z</time>
      </trkpt>
      <trkpt lat="59.9506769" lon="17.8236981">
        <ele>28.0155</ele>
        <time>2014-07-08T13:33:17Z</time>
      </trkpt>
      <trkpt lat="59.9506957" lon="17.8235571">
        <ele>28.0155</ele>
        <time>2014-07-08T13:33:18Z</time>
      </trkpt>
      <trkpt lat="59.9507107" lon="17.8234171">
        <ele>28.0155</ele>
        <time>2014-07-08T13:33:19Z</time>
      </trkpt>
      <trkpt lat="59.9507253" lon="17.82328">
        <ele>28.0155</ele>
        <time>2014-07-08T13:33:20Z</time>
      </trkpt>
      <trkpt lat="59.9507407" lon="17.823144">
        <ele>28.0155</ele>
        <time>2014-07-08T13:33:21Z</time>
      </trkpt>
      <trkpt lat="59.9507548" lon="17.8230063">
        <ele>28.0155</ele>
        <time>2014-07-08T13:33:22Z</time>
      </trkpt>
      <trkpt lat="59.9507684" lon="17.8228663">
        <ele>28.0155</ele>
        <time>2014-07-08T13:33:23Z</time>
      </trkpt>
      <trkpt lat="59.9507837" lon="17.8227239">
        <ele>28.0155</ele>
        <time>2014-07-08T13:33:24Z</time>
      </trkpt>
      <trkpt lat="59.9507996" lon="17.8225791">
        <ele>28.0155</ele>
        <time>2014-07-08T13:33:25Z</time>
      </trkpt>
      <trkpt lat="59.9508147" lon="17.8224328">
        <ele>28.0155</ele>
        <time>2014-07-08T13:33:26Z</time>
      </trkpt>
      <trkpt lat="59.9508299" lon="17.8222877">
        <ele>28.0155</ele>
        <time>2014-07-08T13:33:27Z</time>
      </trkpt>
      <trkpt lat="59.9508454" lon="17.822143">
        <ele>28.0155</ele>
        <time>2014-07-08T13:33:28Z</time>
      </trkpt>
      <trkpt lat="59.9508605" lon="17.8219982">
        <ele>28.0155</ele>
        <time>2014-07-08T13:33:29Z</time>
      </trkpt>
      <trkpt lat="59.9508756" lon="17.8218551">
        <ele>28.0155</ele>
        <time>2014-07-08T13:33:30Z</time>
      </trkpt>
      <trkpt lat="59.950891" lon="17.8217138">
        <ele>28.4962</ele>
        <time>2014-07-08T13:33:31Z</time>
      </trkpt>
      <trkpt lat="59.9509049" lon="17.8215729">
        <ele>28.4962</ele>
        <time>2014-07-08T13:33:32Z</time>
      </trkpt>
      <trkpt lat="59.9509179" lon="17.8214319">
        <ele>28.4962</ele>
        <time>2014-07-08T13:33:33Z</time>
      </trkpt>
      <trkpt lat="59.9509309" lon="17.8212906">
        <ele>28.4962</ele>
        <time>2014-07-08T13:33:34Z</time>
      </trkpt>
      <trkpt lat="59.9509432" lon="17.821149">
        <ele>28.4962</ele>
        <time>2014-07-08T13:33:35Z</time>
      </trkpt>
      <trkpt lat="59.9509543" lon="17.8210071">
        <ele>28.4962</ele>
        <time>2014-07-08T13:33:36Z</time>
      </trkpt>
      <trkpt lat="59.9509659" lon="17.8208653">
        <ele>28.4962</ele>
        <time>2014-07-08T13:33:37Z</time>
      </trkpt>
      <trkpt lat="59.950977" lon="17.8207231">
        <ele>28.9769</ele>
        <time>2014-07-08T13:33:38Z</time>
      </trkpt>
      <trkpt lat="59.9509866" lon="17.8205798">
        <ele>28.9769</ele>
        <time>2014-07-08T13:33:39Z</time>
      </trkpt>
      <trkpt lat="59.9509951" lon="17.8204352">
        <ele>28.9769</ele>
        <time>2014-07-08T13:33:40Z</time>
      </trkpt>
      <trkpt lat="59.9510025" lon="17.8202903">
        <ele>28.9769</ele>
        <time>2014-07-08T13:33:41Z</time>
      </trkpt>
      <trkpt lat="59.9510089" lon="17.8201453">
        <ele>28.9769</ele>
        <time>2014-07-08T13:33:42Z</time>
      </trkpt>
      <trkpt lat="59.9510151" lon="17.8199996">
        <ele>29.4575</ele>
        <time>2014-07-08T13:33:43Z</time>
      </trkpt>
      <trkpt lat="59.95102" lon="17.8198544">
        <ele>29.4575</ele>
        <time>2014-07-08T13:33:44Z</time>
      </trkpt>
      <trkpt lat="59.9510234" lon="17.8197109">
        <ele>29.4575</ele>
        <time>2014-07-08T13:33:45Z</time>
      </trkpt>
      <trkpt lat="59.9510265" lon="17.8195692">
        <ele>29.4575</ele>
        <time>2014-07-08T13:33:46Z</time>
      </trkpt>
      <trkpt lat="59.9510288" lon="17.8194281">
        <ele>29.9381</ele>
        <time>2014-07-08T13:33:47Z</time>
      </trkpt>
      <trkpt lat="59.9510293" lon="17.8192878">
        <ele>29.9381</ele>
        <time>2014-07-08T13:33:48Z</time>
      </trkpt>
      <trkpt lat="59.9510297" lon="17.8191478">
        <ele>29.9381</ele>
        <time>2014-07-08T13:33:49Z</time>
      </trkpt>
      <trkpt lat="59.9510329" lon="17.8190083">
        <ele>29.9381</ele>
        <time>2014-07-08T13:33:50Z</time>
      </trkpt>
      <trkpt lat="59.9510403" lon="17.8188705">
        <ele>29.9381</ele>
        <time>2014-07-08T13:33:51Z</time>
      </trkpt>
      <trkpt lat="59.951051" lon="17.8187353">
        <ele>29.9381</ele>
        <time>2014-07-08T13:33:52Z</time>
      </trkpt>
      <trkpt lat="59.9510634" lon="17.8186025">
        <ele>30.4188</ele>
        <time>2014-07-08T13:33:53Z</time>
      </trkpt>
      <trkpt lat="59.9510765" lon="17.8184709">
        <ele>30.4188</ele>
        <time>2014-07-08T13:33:54Z</time>
      </trkpt>
      <trkpt lat="59.9510903" lon="17.8183394">
        <ele>30.4188</ele>
        <time>2014-07-08T13:33:55Z</time>
      </trkpt>
      <trkpt lat="59.9511048" lon="17.8182066">
        <ele>30.4188</ele>
        <time>2014-07-08T13:33:56Z</time>
      </trkpt>
      <trkpt lat="59.9511189" lon="17.8180699">
        <ele>30.4188</ele>
        <time>2014-07-08T13:33:57Z</time>
      </trkpt>
      <trkpt lat="59.9511325" lon="17.8179296">
        <ele>30.4188</ele>
        <time>2014-07-08T13:33:58Z</time>
      </trkpt>
      <trkpt lat="59.9511474" lon="17.8177872">
        <ele>29.9381</ele>
        <time>2014-07-08T13:33:59Z</time>
      </trkpt>
      <trkpt lat="59.9511626" lon="17.8176452">
        <ele>29.9381</ele>
        <time>2014-07-08T13:34:00Z</time>
      </trkpt>
      <trkpt lat="59.9511759" lon="17.8175045">
        <ele>29.9381</ele>
        <time>2014-07-08T13:34:01Z</time>
      </trkpt>
      <trkpt lat="59.9511889" lon="17.8173654">
        <ele>29.9381</ele>
        <time>2014-07-08T13:34:02Z</time>
      </trkpt>
      <trkpt lat="59.9512024" lon="17.8172288">
        <ele>29.9381</ele>
        <time>2014-07-08T13:34:03Z</time>
      </trkpt>
      <trkpt lat="59.9512153" lon="17.8170939">
        <ele>29.9381</ele>
        <time>2014-07-08T13:34:04Z</time>
      </trkpt>
      <trkpt lat="59.9512291" lon="17.816959">
        <ele>29.9381</ele>
        <time>2014-07-08T13:34:05Z</time>
      </trkpt>
      <trkpt lat="59.9512436" lon="17.8168228">
        <ele>29.9381</ele>
        <time>2014-07-08T13:34:06Z</time>
      </trkpt>
      <trkpt lat="59.9512571" lon="17.8166845">
        <ele>29.9381</ele>
        <time>2014-07-08T13:34:07Z</time>
      </trkpt>
      <trkpt lat="59.9512695" lon="17.8165435">
        <ele>29.9381</ele>
        <time>2014-07-08T13:34:08Z</time>
      </trkpt>
      <trkpt lat="59.9512822" lon="17.8163995">
        <ele>29.9381</ele>
        <time>2014-07-08T13:34:09Z</time>
      </trkpt>
      <trkpt lat="59.9512959" lon="17.816253">
        <ele>29.9381</ele>
        <time>2014-07-08T13:34:10Z</time>
      </trkpt>
      <trkpt lat="59.9513086" lon="17.8161041">
        <ele>29.9381</ele>
        <time>2014-07-08T13:34:11Z</time>
      </trkpt>
      <trkpt lat="59.9513204" lon="17.8159526">
        <ele>29.9381</ele>
        <time>2014-07-08T13:34:12Z</time>
      </trkpt>
      <trkpt lat="59.9513306" lon="17.815799">
        <ele>29.9381</ele>
        <time>2014-07-08T13:34:13Z</time>
      </trkpt>
      <trkpt lat="59.9513391" lon="17.8156433">
        <ele>29.9381</ele>
        <time>2014-07-08T13:34:14Z</time>
      </trkpt>
      <trkpt lat="59.9513469" lon="17.8154853">
        <ele>29.9381</ele>
        <time>2014-07-08T13:34:15Z</time>
      </trkpt>
      <trkpt lat="59.9513541" lon="17.815325">
        <ele>29.9381</ele>
        <time>2014-07-08T13:34:16Z</time>
      </trkpt>
      <trkpt lat="59.9513604" lon="17.815162">
        <ele>29.9381</ele>
        <time>2014-07-08T13:34:17Z</time>
      </trkpt>
      <trkpt lat="59.9513658" lon="17.8149961">
        <ele>29.9381</ele>
        <time>2014-07-08T13:34:18Z</time>
      </trkpt>
      <trkpt lat="59.9513697" lon="17.8148279">
        <ele>29.9381</ele>
        <time>2014-07-08T13:34:19Z</time>
      </trkpt>
      <trkpt lat="59.9513724" lon="17.8146586">
        <ele>29.9381</ele>
        <time>2014-07-08T13:34:20Z</time>
      </trkpt>
      <trkpt lat="59.9513744" lon="17.8144899">
        <ele>29.9381</ele>
        <time>2014-07-08T13:34:21Z</time>
      </trkpt>
      <trkpt lat="59.9513755" lon="17.8143223">
        <ele>30.4188</ele>
        <time>2014-07-08T13:34:22Z</time>
      </trkpt>
      <trkpt lat="59.9513772" lon="17.8141575">
        <ele>30.4188</ele>
        <time>2014-07-08T13:34:23Z</time>
      </trkpt>
      <trkpt lat="59.9513789" lon="17.8139964">
        <ele>30.4188</ele>
        <time>2014-07-08T13:34:24Z</time>
      </trkpt>
      <trkpt lat="59.9513805" lon="17.8138385">
        <ele>30.4188</ele>
        <time>2014-07-08T13:34:25Z</time>
      </trkpt>
      <trkpt lat="59.9513814" lon="17.813684">
        <ele>30.4188</ele>
        <time>2014-07-08T13:34:26Z</time>
      </trkpt>
      <trkpt lat="59.9513811" lon="17.8135317">
        <ele>30.4188</ele>
        <time>2014-07-08T13:34:27Z</time>
      </trkpt>
      <trkpt lat="59.9513808" lon="17.8133796">
        <ele>30.4188</ele>
        <time>2014-07-08T13:34:28Z</time>
      </trkpt>
      <trkpt lat="59.951381" lon="17.8132278">
        <ele>30.4188</ele>
        <time>2014-07-08T13:34:29Z</time>
      </trkpt>
      <trkpt lat="59.9513814" lon="17.8130788">
        <ele>30.4188</ele>
        <time>2014-07-08T13:34:30Z</time>
      </trkpt>
      <trkpt lat="59.9513811" lon="17.8129318">
        <ele>30.8995</ele>
        <time>2014-07-08T13:34:31Z</time>
      </trkpt>
      <trkpt lat="59.9513811" lon="17.8127857">
        <ele>30.8995</ele>
        <time>2014-07-08T13:34:32Z</time>
      </trkpt>
      <trkpt lat="59.9513831" lon="17.8126409">
        <ele>30.8995</ele>
        <time>2014-07-08T13:34:33Z</time>
      </trkpt>
      <trkpt lat="59.9513848" lon="17.8124963">
        <ele>30.8995</ele>
        <time>2014-07-08T13:34:34Z</time>
      </trkpt>
      <trkpt lat="59.9513861" lon="17.8123519">
        <ele>30.8995</ele>
        <time>2014-07-08T13:34:35Z</time>
      </trkpt>
      <trkpt lat="59.9513882" lon="17.8122086">
        <ele>30.8995</ele>
        <time>2014-07-08T13:34:36Z</time>
      </trkpt>
      <trkpt lat="59.9513918" lon="17.8120653">
        <ele>31.3801</ele>
        <time>2014-07-08T13:34:37Z</time>
      </trkpt>
      <trkpt lat="59.9513977" lon="17.8119217">
        <ele>31.3801</ele>
        <time>2014-07-08T13:34:38Z</time>
      </trkpt>
      <trkpt lat="59.9514073" lon="17.8117788">
        <ele>31.3801</ele>
        <time>2014-07-08T13:34:39Z</time>
      </trkpt>
      <trkpt lat="59.95142" lon="17.8116364">
        <ele>31.3801</ele>
        <time>2014-07-08T13:34:40Z</time>
      </trkpt>
      <trkpt lat="59.951436" lon="17.8114949">
        <ele>31.3801</ele>
        <time>2014-07-08T13:34:41Z</time>
      </trkpt>
      <trkpt lat="59.9514537" lon="17.8113537">
        <ele>31.3801</ele>
        <time>2014-07-08T13:34:42Z</time>
      </trkpt>
      <trkpt lat="59.9514727" lon="17.8112122">
        <ele>31.3801</ele>
        <time>2014-07-08T13:34:43Z</time>
      </trkpt>
      <trkpt lat="59.9514935" lon="17.8110706">
        <ele>31.3801</ele>
        <time>2014-07-08T13:34:44Z</time>
      </trkpt>
      <trkpt lat="59.951516" lon="17.8109279">
        <ele>31.3801</ele>
        <time>2014-07-08T13:34:45Z</time>
      </trkpt>
      <trkpt lat="59.95154" lon="17.8107857">
        <ele>31.3801</ele>
        <time>2014-07-08T13:34:46Z</time>
      </trkpt>
      <trkpt lat="59.9515913" lon="17.8105137">
        <ele>31.8607</ele>
        <time>2014-07-08T13:34:47Z</time>
      </trkpt>
      <trkpt lat="59.9516173" lon="17.8103812">
        <ele>31.8607</ele>
        <time>2014-07-08T13:34:48Z</time>
      </trkpt>
      <trkpt lat="59.9516438" lon="17.8102526">
        <ele>31.3801</ele>
        <time>2014-07-08T13:34:49Z</time>
      </trkpt>
      <trkpt lat="59.9516721" lon="17.8101279">
        <ele>31.3801</ele>
        <time>2014-07-08T13:34:50Z</time>
      </trkpt>
      <trkpt lat="59.9517038" lon="17.8100073">
        <ele>31.3801</ele>
        <time>2014-07-08T13:34:51Z</time>
      </trkpt>
      <trkpt lat="59.9517381" lon="17.8098901">
        <ele>31.3801</ele>
        <time>2014-07-08T13:34:52Z</time>
      </trkpt>
      <trkpt lat="59.9517727" lon="17.8097716">
        <ele>31.3801</ele>
        <time>2014-07-08T13:34:53Z</time>
      </trkpt>
      <trkpt lat="59.9518066" lon="17.8096509">
        <ele>31.3801</ele>
        <time>2014-07-08T13:34:54Z</time>
      </trkpt>
      <trkpt lat="59.9518395" lon="17.8095277">
        <ele>31.3801</ele>
        <time>2014-07-08T13:34:55Z</time>
      </trkpt>
      <trkpt lat="59.9518733" lon="17.809403">
        <ele>31.3801</ele>
        <time>2014-07-08T13:34:56Z</time>
      </trkpt>
      <trkpt lat="59.9519087" lon="17.8092773">
        <ele>31.3801</ele>
        <time>2014-07-08T13:34:57Z</time>
      </trkpt>
      <trkpt lat="59.9519441" lon="17.8091505">
        <ele>31.3801</ele>
        <time>2014-07-08T13:34:58Z</time>
      </trkpt>
      <trkpt lat="59.9519787" lon="17.8090216">
        <ele>31.3801</ele>
        <time>2014-07-08T13:34:59Z</time>
      </trkpt>
      <trkpt lat="59.9520121" lon="17.8088915">
        <ele>31.3801</ele>
        <time>2014-07-08T13:35:00Z</time>
      </trkpt>
      <trkpt lat="59.9520467" lon="17.8087618">
        <ele>31.3801</ele>
        <time>2014-07-08T13:35:01Z</time>
      </trkpt>
      <trkpt lat="59.9520815" lon="17.808632">
        <ele>31.3801</ele>
        <time>2014-07-08T13:35:02Z</time>
      </trkpt>
      <trkpt lat="59.9521157" lon="17.8085008">
        <ele>31.8607</ele>
        <time>2014-07-08T13:35:03Z</time>
      </trkpt>
      <trkpt lat="59.9521499" lon="17.8083687">
        <ele>31.8607</ele>
        <time>2014-07-08T13:35:04Z</time>
      </trkpt>
      <trkpt lat="59.9521845" lon="17.8082382">
        <ele>31.8607</ele>
        <time>2014-07-08T13:35:05Z</time>
      </trkpt>
      <trkpt lat="59.9522187" lon="17.8081092">
        <ele>31.8607</ele>
        <time>2014-07-08T13:35:06Z</time>
      </trkpt>
      <trkpt lat="59.9522523" lon="17.8079811">
        <ele>32.3416</ele>
        <time>2014-07-08T13:35:07Z</time>
      </trkpt>
      <trkpt lat="59.9522855" lon="17.8078547">
        <ele>32.3416</ele>
        <time>2014-07-08T13:35:08Z</time>
      </trkpt>
      <trkpt lat="59.9523187" lon="17.80773">
        <ele>32.3416</ele>
        <time>2014-07-08T13:35:09Z</time>
      </trkpt>
      <trkpt lat="59.9523517" lon="17.8076058">
        <ele>32.3416</ele>
        <time>2014-07-08T13:35:10Z</time>
      </trkpt>
      <trkpt lat="59.9523839" lon="17.8074825">
        <ele>32.8223</ele>
        <time>2014-07-08T13:35:11Z</time>
      </trkpt>
      <trkpt lat="59.9524154" lon="17.8073616">
        <ele>32.8223</ele>
        <time>2014-07-08T13:35:12Z</time>
      </trkpt>
      <trkpt lat="59.9524462" lon="17.8072437">
        <ele>32.8223</ele>
        <time>2014-07-08T13:35:13Z</time>
      </trkpt>
      <trkpt lat="59.9524756" lon="17.8071292">
        <ele>33.3029</ele>
        <time>2014-07-08T13:35:14Z</time>
      </trkpt>
      <trkpt lat="59.9525031" lon="17.8070178">
        <ele>33.7834</ele>
        <time>2014-07-08T13:35:15Z</time>
      </trkpt>
      <trkpt lat="59.9525289" lon="17.8069101">
        <ele>33.7834</ele>
        <time>2014-07-08T13:35:16Z</time>
      </trkpt>
      <trkpt lat="59.9525533" lon="17.8068059">
        <ele>33.7834</ele>
        <time>2014-07-08T13:35:17Z</time>
      </trkpt>
      <trkpt lat="59.9525764" lon="17.8067043">
        <ele>34.2642</ele>
        <time>2014-07-08T13:35:18Z</time>
      </trkpt>
      <trkpt lat="59.9525985" lon="17.806604">
        <ele>34.2642</ele>
        <time>2014-07-08T13:35:19Z</time>
      </trkpt>
      <trkpt lat="59.9526201" lon="17.8065069">
        <ele>34.2642</ele>
        <time>2014-07-08T13:35:20Z</time>
      </trkpt>
      <trkpt lat="59.9526406" lon="17.8064107">
        <ele>34.2642</ele>
        <time>2014-07-08T13:35:21Z</time>
      </trkpt>
      <trkpt lat="59.9526585" lon="17.8063138">
        <ele>34.7449</ele>
        <time>2014-07-08T13:35:22Z</time>
      </trkpt>
      <trkpt lat="59.9526746" lon="17.8062152">
        <ele>34.7449</ele>
        <time>2014-07-08T13:35:23Z</time>
      </trkpt>
      <trkpt lat="59.9526895" lon="17.8061153">
        <ele>34.7449</ele>
        <time>2014-07-08T13:35:24Z</time>
      </trkpt>
      <trkpt lat="59.952704" lon="17.8060156">
        <ele>34.7449</ele>
        <time>2014-07-08T13:35:25Z</time>
      </trkpt>
      <trkpt lat="59.9527175" lon="17.8059179">
        <ele>34.7449</ele>
        <time>2014-07-08T13:35:26Z</time>
      </trkpt>
      <trkpt lat="59.9527318" lon="17.8058251">
        <ele>34.7449</ele>
        <time>2014-07-08T13:35:27Z</time>
      </trkpt>
      <trkpt lat="59.9527471" lon="17.8057371">
        <ele>34.7449</ele>
        <time>2014-07-08T13:35:28Z</time>
      </trkpt>
      <trkpt lat="59.9527626" lon="17.8056507">
        <ele>34.7449</ele>
        <time>2014-07-08T13:35:29Z</time>
      </trkpt>
      <trkpt lat="59.9527766" lon="17.8055634">
        <ele>34.7449</ele>
        <time>2014-07-08T13:35:30Z</time>
      </trkpt>
      <trkpt lat="59.9527879" lon="17.8054736">
        <ele>34.7449</ele>
        <time>2014-07-08T13:35:31Z</time>
      </trkpt>
      <trkpt lat="59.9527983" lon="17.8053828">
        <ele>34.7449</ele>
        <time>2014-07-08T13:35:32Z</time>
      </trkpt>
      <trkpt lat="59.9528092" lon="17.8052895">
        <ele>34.7449</ele>
        <time>2014-07-08T13:35:33Z</time>
      </trkpt>
      <trkpt lat="59.952819" lon="17.8051949">
        <ele>34.7449</ele>
        <time>2014-07-08T13:35:34Z</time>
      </trkpt>
      <trkpt lat="59.9528279" lon="17.8050992">
        <ele>34.2642</ele>
        <time>2014-07-08T13:35:35Z</time>
      </trkpt>
      <trkpt lat="59.9528372" lon="17.8050028">
        <ele>34.2642</ele>
        <time>2014-07-08T13:35:36Z</time>
      </trkpt>
      <trkpt lat="59.952846" lon="17.8049054">
        <ele>34.2642</ele>
        <time>2014-07-08T13:35:37Z</time>
      </trkpt>
      <trkpt lat="59.9528567" lon="17.8048069">
        <ele>33.7834</ele>
        <time>2014-07-08T13:35:38Z</time>
      </trkpt>
      <trkpt lat="59.9528698" lon="17.8047081">
        <ele>33.7834</ele>
        <time>2014-07-08T13:35:39Z</time>
      </trkpt>
      <trkpt lat="59.9528844" lon="17.8046116">
        <ele>33.7834</ele>
        <time>2014-07-08T13:35:40Z</time>
      </trkpt>
      <trkpt lat="59.9529045" lon="17.8045174">
        <ele>33.7834</ele>
        <time>2014-07-08T13:35:41Z</time>
      </trkpt>
      <trkpt lat="59.9529294" lon="17.8044289">
        <ele>33.7834</ele>
        <time>2014-07-08T13:35:42Z</time>
      </trkpt>
      <trkpt lat="59.9529572" lon="17.8043464">
        <ele>33.7834</ele>
        <time>2014-07-08T13:35:43Z</time>
      </trkpt>
      <trkpt lat="59.9529848" lon="17.8042699">
        <ele>33.7834</ele>
        <time>2014-07-08T13:35:44Z</time>
      </trkpt>
      <trkpt lat="59.9530134" lon="17.8042012">
        <ele>33.7834</ele>
        <time>2014-07-08T13:35:45Z</time>
      </trkpt>
      <trkpt lat="59.9530439" lon="17.8041383">
        <ele>33.7834</ele>
        <time>2014-07-08T13:35:46Z</time>
      </trkpt>
      <trkpt lat="59.9530734" lon="17.8040781">
        <ele>33.3029</ele>
        <time>2014-07-08T13:35:47Z</time>
      </trkpt>
      <trkpt lat="59.953103" lon="17.8040181">
        <ele>33.3029</ele>
        <time>2014-07-08T13:35:48Z</time>
      </trkpt>
      <trkpt lat="59.9531328" lon="17.8039595">
        <ele>33.3029</ele>
        <time>2014-07-08T13:35:49Z</time>
      </trkpt>
      <trkpt lat="59.9531608" lon="17.8039003">
        <ele>32.8223</ele>
        <time>2014-07-08T13:35:50Z</time>
      </trkpt>
      <trkpt lat="59.9531904" lon="17.8038409">
        <ele>32.8223</ele>
        <time>2014-07-08T13:35:51Z</time>
      </trkpt>
      <trkpt lat="59.953221" lon="17.8037798">
        <ele>32.3416</ele>
        <time>2014-07-08T13:35:52Z</time>
      </trkpt>
      <trkpt lat="59.9532495" lon="17.8037139">
        <ele>32.3416</ele>
        <time>2014-07-08T13:35:53Z</time>
      </trkpt>
      <trkpt lat="59.953278" lon="17.8036436">
        <ele>32.3416</ele>
        <time>2014-07-08T13:35:54Z</time>
      </trkpt>
      <trkpt lat="59.9533074" lon="17.8035697">
        <ele>32.3416</ele>
        <time>2014-07-08T13:35:55Z</time>
      </trkpt>
      <trkpt lat="59.9533327" lon="17.8034943">
        <ele>31.8607</ele>
        <time>2014-07-08T13:35:56Z</time>
      </trkpt>
      <trkpt lat="59.9533599" lon="17.8034165">
        <ele>32.3416</ele>
        <time>2014-07-08T13:35:57Z</time>
      </trkpt>
      <trkpt lat="59.9533858" lon="17.8033332">
        <ele>31.8607</ele>
        <time>2014-07-08T13:35:58Z</time>
      </trkpt>
      <trkpt lat="59.9534133" lon="17.8032425">
        <ele>31.8607</ele>
        <time>2014-07-08T13:35:59Z</time>
      </trkpt>
      <trkpt lat="59.9534406" lon="17.803146">
        <ele>31.8607</ele>
        <time>2014-07-08T13:36:00Z</time>
      </trkpt>
      <trkpt lat="59.9534691" lon="17.8030412">
        <ele>32.3416</ele>
        <time>2014-07-08T13:36:01Z</time>
      </trkpt>
      <trkpt lat="59.9534944" lon="17.8029319">
        <ele>32.3416</ele>
        <time>2014-07-08T13:36:02Z</time>
      </trkpt>
      <trkpt lat="59.9535209" lon="17.8028188">
        <ele>32.8223</ele>
        <time>2014-07-08T13:36:03Z</time>
      </trkpt>
      <trkpt lat="59.9535442" lon="17.8027067">
        <ele>32.8223</ele>
        <time>2014-07-08T13:36:04Z</time>
      </trkpt>
      <trkpt lat="59.9535672" lon="17.8025919">
        <ele>32.8223</ele>
        <time>2014-07-08T13:36:05Z</time>
      </trkpt>
      <trkpt lat="59.9535924" lon="17.8024718">
        <ele>32.8223</ele>
        <time>2014-07-08T13:36:06Z</time>
      </trkpt>
      <trkpt lat="59.9536199" lon="17.802345">
        <ele>32.8223</ele>
        <time>2014-07-08T13:36:07Z</time>
      </trkpt>
      <trkpt lat="59.953648" lon="17.8022169">
        <ele>32.8223</ele>
        <time>2014-07-08T13:36:08Z</time>
      </trkpt>
      <trkpt lat="59.9536912" lon="17.8020532">
        <ele>32.8223</ele>
        <time>2014-07-08T13:36:09Z</time>
      </trkpt>
      <trkpt lat="59.9537328" lon="17.8019071">
        <ele>32.8223</ele>
        <time>2014-07-08T13:36:10Z</time>
      </trkpt>
      <trkpt lat="59.9537726" lon="17.8017744">
        <ele>32.8223</ele>
        <time>2014-07-08T13:36:11Z</time>
      </trkpt>
      <trkpt lat="59.9538161" lon="17.8016352">
        <ele>32.3416</ele>
        <time>2014-07-08T13:36:12Z</time>
      </trkpt>
      <trkpt lat="59.9538601" lon="17.8015185">
        <ele>32.3416</ele>
        <time>2014-07-08T13:36:13Z</time>
      </trkpt>
      <trkpt lat="59.95391" lon="17.8013965">
        <ele>32.3416</ele>
        <time>2014-07-08T13:36:14Z</time>
      </trkpt>
      <trkpt lat="59.9539612" lon="17.8012736">
        <ele>31.8607</ele>
        <time>2014-07-08T13:36:15Z</time>
      </trkpt>
      <trkpt lat="59.9540111" lon="17.8011488">
        <ele>31.8607</ele>
        <time>2014-07-08T13:36:16Z</time>
      </trkpt>
      <trkpt lat="59.9540622" lon="17.801024">
        <ele>31.3801</ele>
        <time>2014-07-08T13:36:17Z</time>
      </trkpt>
      <trkpt lat="59.9541126" lon="17.8009">
        <ele>31.3801</ele>
        <time>2014-07-08T13:36:18Z</time>
      </trkpt>
      <trkpt lat="59.9541594" lon="17.8007699">
        <ele>30.8995</ele>
        <time>2014-07-08T13:36:19Z</time>
      </trkpt>
      <trkpt lat="59.9542067" lon="17.8006483">
        <ele>30.8995</ele>
        <time>2014-07-08T13:36:20Z</time>
      </trkpt>
      <trkpt lat="59.9542533" lon="17.8005303">
        <ele>30.4188</ele>
        <time>2014-07-08T13:36:21Z</time>
      </trkpt>
      <trkpt lat="59.9543006" lon="17.8004141">
        <ele>30.4188</ele>
        <time>2014-07-08T13:36:22Z</time>
      </trkpt>
      <trkpt lat="59.9543481" lon="17.8002995">
        <ele>30.4188</ele>
        <time>2014-07-08T13:36:23Z</time>
      </trkpt>
      <trkpt lat="59.9543952" lon="17.8001858">
        <ele>29.9381</ele>
        <time>2014-07-08T13:36:24Z</time>
      </trkpt>
      <trkpt lat="59.9544431" lon="17.8000704">
        <ele>29.9381</ele>
        <time>2014-07-08T13:36:25Z</time>
      </trkpt>
      <trkpt lat="59.9544917" lon="17.7999545">
        <ele>29.9381</ele>
        <time>2014-07-08T13:36:26Z</time>
      </trkpt>
      <trkpt lat="59.9545418" lon="17.7998377">
        <ele>29.9381</ele>
        <time>2014-07-08T13:36:27Z</time>
      </trkpt>
      <trkpt lat="59.9545927" lon="17.7997206">
        <ele>29.9381</ele>
        <time>2014-07-08T13:36:28Z</time>
      </trkpt>
      <trkpt lat="59.9546448" lon="17.7996054">
        <ele>29.9381</ele>
        <time>2014-07-08T13:36:29Z</time>
      </trkpt>
      <trkpt lat="59.9546972" lon="17.7994951">
        <ele>30.4188</ele>
        <time>2014-07-08T13:36:30Z</time>
      </trkpt>
      <trkpt lat="59.9547484" lon="17.7993902">
        <ele>30.4188</ele>
        <time>2014-07-08T13:36:31Z</time>
      </trkpt>
      <trkpt lat="59.9547984" lon="17.7992907">
        <ele>30.8995</ele>
        <time>2014-07-08T13:36:32Z</time>
      </trkpt>
      <trkpt lat="59.9548477" lon="17.7991964">
        <ele>30.8995</ele>
        <time>2014-07-08T13:36:33Z</time>
      </trkpt>
      <trkpt lat="59.9548971" lon="17.7991056">
        <ele>31.3801</ele>
        <time>2014-07-08T13:36:34Z</time>
      </trkpt>
      <trkpt lat="59.9549461" lon="17.7990183">
        <ele>31.3801</ele>
        <time>2014-07-08T13:36:35Z</time>
      </trkpt>
      <trkpt lat="59.9549943" lon="17.7989312">
        <ele>31.8607</ele>
        <time>2014-07-08T13:36:36Z</time>
      </trkpt>
      <trkpt lat="59.9550413" lon="17.7988401">
        <ele>31.8607</ele>
        <time>2014-07-08T13:36:37Z</time>
      </trkpt>
      <trkpt lat="59.9550872" lon="17.7987437">
        <ele>31.8607</ele>
        <time>2014-07-08T13:36:38Z</time>
      </trkpt>
      <trkpt lat="59.9551335" lon="17.7986422">
        <ele>31.3801</ele>
        <time>2014-07-08T13:36:39Z</time>
      </trkpt>
      <trkpt lat="59.9551805" lon="17.7985354">
        <ele>31.3801</ele>
        <time>2014-07-08T13:36:40Z</time>
      </trkpt>
      <trkpt lat="59.9552266" lon="17.7984213">
        <ele>31.3801</ele>
        <time>2014-07-08T13:36:41Z</time>
      </trkpt>
      <trkpt lat="59.9552714" lon="17.7983009">
        <ele>31.3801</ele>
        <time>2014-07-08T13:36:42Z</time>
      </trkpt>
      <trkpt lat="59.9553148" lon="17.7981763">
        <ele>31.3801</ele>
        <time>2014-07-08T13:36:43Z</time>
      </trkpt>
      <trkpt lat="59.9553573" lon="17.7980459">
        <ele>31.3801</ele>
        <time>2014-07-08T13:36:44Z</time>
      </trkpt>
      <trkpt lat="59.9553978" lon="17.7979142">
        <ele>30.8995</ele>
        <time>2014-07-08T13:36:45Z</time>
      </trkpt>
      <trkpt lat="59.9554379" lon="17.7977791">
        <ele>30.8995</ele>
        <time>2014-07-08T13:36:46Z</time>
      </trkpt>
      <trkpt lat="59.9554776" lon="17.7976439">
        <ele>30.8995</ele>
        <time>2014-07-08T13:36:47Z</time>
      </trkpt>
      <trkpt lat="59.9555182" lon="17.7975081">
        <ele>30.8995</ele>
        <time>2014-07-08T13:36:48Z</time>
      </trkpt>
      <trkpt lat="59.9555596" lon="17.7973712">
        <ele>30.8995</ele>
        <time>2014-07-08T13:36:49Z</time>
      </trkpt>
      <trkpt lat="59.9556008" lon="17.7972324">
        <ele>30.8995</ele>
        <time>2014-07-08T13:36:50Z</time>
      </trkpt>
      <trkpt lat="59.9556397" lon="17.7970906">
        <ele>30.4188</ele>
        <time>2014-07-08T13:36:51Z</time>
      </trkpt>
      <trkpt lat="59.9556757" lon="17.7969459">
        <ele>30.4188</ele>
        <time>2014-07-08T13:36:52Z</time>
      </trkpt>
      <trkpt lat="59.9557083" lon="17.7967994">
        <ele>30.4188</ele>
        <time>2014-07-08T13:36:53Z</time>
      </trkpt>
      <trkpt lat="59.9557392" lon="17.7966539">
        <ele>30.4188</ele>
        <time>2014-07-08T13:36:54Z</time>
      </trkpt>
      <trkpt lat="59.955769" lon="17.7965109">
        <ele>30.8995</ele>
        <time>2014-07-08T13:36:55Z</time>
      </trkpt>
      <trkpt lat="59.9557956" lon="17.7963705">
        <ele>30.8995</ele>
        <time>2014-07-08T13:36:56Z</time>
      </trkpt>
      <trkpt lat="59.9558194" lon="17.7962328">
        <ele>30.8995</ele>
        <time>2014-07-08T13:36:57Z</time>
      </trkpt>
      <trkpt lat="59.9558428" lon="17.796099">
        <ele>30.8995</ele>
        <time>2014-07-08T13:36:58Z</time>
      </trkpt>
      <trkpt lat="59.9558658" lon="17.7959687">
        <ele>30.8995</ele>
        <time>2014-07-08T13:36:59Z</time>
      </trkpt>
      <trkpt lat="59.9558888" lon="17.7958386">
        <ele>30.8995</ele>
        <time>2014-07-08T13:37:00Z</time>
      </trkpt>
      <trkpt lat="59.9559126" lon="17.7957054">
        <ele>31.3801</ele>
        <time>2014-07-08T13:37:01Z</time>
      </trkpt>
      <trkpt lat="59.955937" lon="17.7955688">
        <ele>31.3801</ele>
        <time>2014-07-08T13:37:02Z</time>
      </trkpt>
      <trkpt lat="59.9559638" lon="17.7954303">
        <ele>31.3801</ele>
        <time>2014-07-08T13:37:03Z</time>
      </trkpt>
      <trkpt lat="59.9559939" lon="17.7952901">
        <ele>31.3801</ele>
        <time>2014-07-08T13:37:04Z</time>
      </trkpt>
      <trkpt lat="59.9560272" lon="17.7951466">
        <ele>31.3801</ele>
        <time>2014-07-08T13:37:05Z</time>
      </trkpt>
      <trkpt lat="59.9560618" lon="17.7949982">
        <ele>31.3801</ele>
        <time>2014-07-08T13:37:06Z</time>
      </trkpt>
      <trkpt lat="59.9560975" lon="17.7948502">
        <ele>31.8607</ele>
        <time>2014-07-08T13:37:07Z</time>
      </trkpt>
      <trkpt lat="59.9561328" lon="17.7947058">
        <ele>31.8607</ele>
        <time>2014-07-08T13:37:08Z</time>
      </trkpt>
      <trkpt lat="59.9561681" lon="17.7945628">
        <ele>31.8607</ele>
        <time>2014-07-08T13:37:09Z</time>
      </trkpt>
      <trkpt lat="59.9562026" lon="17.7944209">
        <ele>31.8607</ele>
        <time>2014-07-08T13:37:10Z</time>
      </trkpt>
      <trkpt lat="59.9562349" lon="17.7942797">
        <ele>31.8607</ele>
        <time>2014-07-08T13:37:11Z</time>
      </trkpt>
      <trkpt lat="59.9562664" lon="17.7941391">
        <ele>31.8607</ele>
        <time>2014-07-08T13:37:12Z</time>
      </trkpt>
      <trkpt lat="59.956297" lon="17.7939993">
        <ele>32.3416</ele>
        <time>2014-07-08T13:37:13Z</time>
      </trkpt>
      <trkpt lat="59.9563274" lon="17.7938605">
        <ele>32.3416</ele>
        <time>2014-07-08T13:37:14Z</time>
      </trkpt>
      <trkpt lat="59.9563571" lon="17.7937231">
        <ele>32.3416</ele>
        <time>2014-07-08T13:37:15Z</time>
      </trkpt>
      <trkpt lat="59.956386" lon="17.7935869">
        <ele>32.8223</ele>
        <time>2014-07-08T13:37:16Z</time>
      </trkpt>
      <trkpt lat="59.9564135" lon="17.793452">
        <ele>32.8223</ele>
        <time>2014-07-08T13:37:17Z</time>
      </trkpt>
      <trkpt lat="59.9564404" lon="17.7933174">
        <ele>33.3029</ele>
        <time>2014-07-08T13:37:18Z</time>
      </trkpt>
      <trkpt lat="59.9564679" lon="17.7931836">
        <ele>33.3029</ele>
        <time>2014-07-08T13:37:19Z</time>
      </trkpt>
      <trkpt lat="59.9564955" lon="17.793049">
        <ele>33.3029</ele>
        <time>2014-07-08T13:37:20Z</time>
      </trkpt>
      <trkpt lat="59.9565224" lon="17.7929114">
        <ele>33.3029</ele>
        <time>2014-07-08T13:37:21Z</time>
      </trkpt>
      <trkpt lat="59.9565487" lon="17.7927716">
        <ele>33.3029</ele>
        <time>2014-07-08T13:37:22Z</time>
      </trkpt>
      <trkpt lat="59.9565735" lon="17.7926291">
        <ele>33.3029</ele>
        <time>2014-07-08T13:37:23Z</time>
      </trkpt>
      <trkpt lat="59.9565982" lon="17.7924845">
        <ele>33.3029</ele>
        <time>2014-07-08T13:37:24Z</time>
      </trkpt>
      <trkpt lat="59.9566233" lon="17.792338">
        <ele>33.7834</ele>
        <time>2014-07-08T13:37:25Z</time>
      </trkpt>
      <trkpt lat="59.9566481" lon="17.7921914">
        <ele>33.7834</ele>
        <time>2014-07-08T13:37:26Z</time>
      </trkpt>
      <trkpt lat="59.9566719" lon="17.7920447">
        <ele>33.3029</ele>
        <time>2014-07-08T13:37:27Z</time>
      </trkpt>
      <trkpt lat="59.9566961" lon="17.7918981">
        <ele>33.3029</ele>
        <time>2014-07-08T13:37:28Z</time>
      </trkpt>
      <trkpt lat="59.9567197" lon="17.7917531">
        <ele>33.3029</ele>
        <time>2014-07-08T13:37:29Z</time>
      </trkpt>
      <trkpt lat="59.9567414" lon="17.7916086">
        <ele>33.3029</ele>
        <time>2014-07-08T13:37:30Z</time>
      </trkpt>
      <trkpt lat="59.9567609" lon="17.7914651">
        <ele>33.7834</ele>
        <time>2014-07-08T13:37:31Z</time>
      </trkpt>
      <trkpt lat="59.9567741" lon="17.7913241">
        <ele>33.7834</ele>
        <time>2014-07-08T13:37:32Z</time>
      </trkpt>
      <trkpt lat="59.9567772" lon="17.7911864">
        <ele>33.7834</ele>
        <time>2014-07-08T13:37:33Z</time>
      </trkpt>
      <trkpt lat="59.9567704" lon="17.7910528">
        <ele>33.7834</ele>
        <time>2014-07-08T13:37:34Z</time>
      </trkpt>
      <trkpt lat="59.9567578" lon="17.7909225">
        <ele>33.7834</ele>
        <time>2014-07-08T13:37:35Z</time>
      </trkpt>
      <trkpt lat="59.9567388" lon="17.7907947">
        <ele>33.3029</ele>
        <time>2014-07-08T13:37:36Z</time>
      </trkpt>
      <trkpt lat="59.9567128" lon="17.790668">
        <ele>33.3029</ele>
        <time>2014-07-08T13:37:37Z</time>
      </trkpt>
      <trkpt lat="59.9566838" lon="17.7905373">
        <ele>32.8223</ele>
        <time>2014-07-08T13:37:38Z</time>
      </trkpt>
      <trkpt lat="59.9566537" lon="17.7904015">
        <ele>32.3416</ele>
        <time>2014-07-08T13:37:39Z</time>
      </trkpt>
      <trkpt lat="59.956625" lon="17.7902602">
        <ele>31.8607</ele>
        <time>2014-07-08T13:37:40Z</time>
      </trkpt>
      <trkpt lat="59.9566036" lon="17.7901099">
        <ele>31.8607</ele>
        <time>2014-07-08T13:37:41Z</time>
      </trkpt>
      <trkpt lat="59.9565964" lon="17.7899516">
        <ele>31.3801</ele>
        <time>2014-07-08T13:37:42Z</time>
      </trkpt>
      <trkpt lat="59.9566065" lon="17.7897777">
        <ele>31.3801</ele>
        <time>2014-07-08T13:37:43Z</time>
      </trkpt>
      <trkpt lat="59.9566342" lon="17.7896329">
        <ele>30.8995</ele>
        <time>2014-07-08T13:37:44Z</time>
      </trkpt>
      <trkpt lat="59.9566794" lon="17.7895117">
        <ele>30.4188</ele>
        <time>2014-07-08T13:37:45Z</time>
      </trkpt>
      <trkpt lat="59.9567395" lon="17.7894184">
        <ele>29.9381</ele>
        <time>2014-07-08T13:37:46Z</time>
      </trkpt>
      <trkpt lat="59.9568094" lon="17.7893407">
        <ele>29.4575</ele>
        <time>2014-07-08T13:37:47Z</time>
      </trkpt>
      <trkpt lat="59.9568782" lon="17.7892657">
        <ele>28.9769</ele>
        <time>2014-07-08T13:37:48Z</time>
      </trkpt>
      <trkpt lat="59.9569446" lon="17.7891859">
        <ele>28.4962</ele>
        <time>2014-07-08T13:37:49Z</time>
      </trkpt>
      <trkpt lat="59.9570123" lon="17.7891064">
        <ele>28.9769</ele>
        <time>2014-07-08T13:37:50Z</time>
      </trkpt>
      <trkpt lat="59.9570761" lon="17.789017">
        <ele>28.9769</ele>
        <time>2014-07-08T13:37:51Z</time>
      </trkpt>
      <trkpt lat="59.957133" lon="17.7889184">
        <ele>28.9769</ele>
        <time>2014-07-08T13:37:52Z</time>
      </trkpt>
      <trkpt lat="59.9571848" lon="17.7888103">
        <ele>28.9769</ele>
        <time>2014-07-08T13:37:53Z</time>
      </trkpt>
      <trkpt lat="59.957233" lon="17.7886962">
        <ele>28.9769</ele>
        <time>2014-07-08T13:37:54Z</time>
      </trkpt>
      <trkpt lat="59.957279" lon="17.7885764">
        <ele>28.9769</ele>
        <time>2014-07-08T13:37:55Z</time>
      </trkpt>
      <trkpt lat="59.9573217" lon="17.7884518">
        <ele>28.9769</ele>
        <time>2014-07-08T13:37:56Z</time>
      </trkpt>
      <trkpt lat="59.9573608" lon="17.7883254">
        <ele>29.4575</ele>
        <time>2014-07-08T13:37:57Z</time>
      </trkpt>
      <trkpt lat="59.9573952" lon="17.7881944">
        <ele>29.4575</ele>
        <time>2014-07-08T13:37:58Z</time>
      </trkpt>
      <trkpt lat="59.9574294" lon="17.7880647">
        <ele>29.4575</ele>
        <time>2014-07-08T13:37:59Z</time>
      </trkpt>
      <trkpt lat="59.957463" lon="17.7879375">
        <ele>29.4575</ele>
        <time>2014-07-08T13:38:00Z</time>
      </trkpt>
      <trkpt lat="59.9574971" lon="17.787811">
        <ele>28.9769</ele>
        <time>2014-07-08T13:38:01Z</time>
      </trkpt>
      <trkpt lat="59.9575324" lon="17.7876861">
        <ele>28.9769</ele>
        <time>2014-07-08T13:38:02Z</time>
      </trkpt>
      <trkpt lat="59.9575662" lon="17.7875602">
        <ele>29.4575</ele>
        <time>2014-07-08T13:38:03Z</time>
      </trkpt>
      <trkpt lat="59.9575977" lon="17.7874313">
        <ele>29.4575</ele>
        <time>2014-07-08T13:38:04Z</time>
      </trkpt>
      <trkpt lat="59.9576253" lon="17.7873014">
        <ele>29.4575</ele>
        <time>2014-07-08T13:38:05Z</time>
      </trkpt>
      <trkpt lat="59.9576515" lon="17.7871732">
        <ele>29.9381</ele>
        <time>2014-07-08T13:38:06Z</time>
      </trkpt>
      <trkpt lat="59.9576784" lon="17.7870454">
        <ele>29.9381</ele>
        <time>2014-07-08T13:38:07Z</time>
      </trkpt>
      <trkpt lat="59.957707" lon="17.7869171">
        <ele>29.9381</ele>
        <time>2014-07-08T13:38:08Z</time>
      </trkpt>
      <trkpt lat="59.9577407" lon="17.7867885">
        <ele>29.9381</ele>
        <time>2014-07-08T13:38:09Z</time>
      </trkpt>
      <trkpt lat="59.9577848" lon="17.7866647">
        <ele>29.4575</ele>
        <time>2014-07-08T13:38:10Z</time>
      </trkpt>
      <trkpt lat="59.9578392" lon="17.7865492">
        <ele>29.4575</ele>
        <time>2014-07-08T13:38:11Z</time>
      </trkpt>
      <trkpt lat="59.9579018" lon="17.7864435">
        <ele>29.4575</ele>
        <time>2014-07-08T13:38:12Z</time>
      </trkpt>
      <trkpt lat="59.9579697" lon="17.7863482">
        <ele>29.4575</ele>
        <time>2014-07-08T13:38:13Z</time>
      </trkpt>
      <trkpt lat="59.9580399" lon="17.7862636">
        <ele>29.4575</ele>
        <time>2014-07-08T13:38:14Z</time>
      </trkpt>
      <trkpt lat="59.9581098" lon="17.7861836">
        <ele>29.4575</ele>
        <time>2014-07-08T13:38:15Z</time>
      </trkpt>
      <trkpt lat="59.958179" lon="17.7861046">
        <ele>29.4575</ele>
        <time>2014-07-08T13:38:16Z</time>
      </trkpt>
      <trkpt lat="59.9582488" lon="17.7860259">
        <ele>29.4575</ele>
        <time>2014-07-08T13:38:17Z</time>
      </trkpt>
      <trkpt lat="59.9583183" lon="17.7859472">
        <ele>29.4575</ele>
        <time>2014-07-08T13:38:18Z</time>
      </trkpt>
      <trkpt lat="59.9583871" lon="17.785867">
        <ele>29.9381</ele>
        <time>2014-07-08T13:38:19Z</time>
      </trkpt>
      <trkpt lat="59.9584551" lon="17.7857875">
        <ele>29.9381</ele>
        <time>2014-07-08T13:38:20Z</time>
      </trkpt>
      <trkpt lat="59.9585208" lon="17.7857131">
        <ele>30.4188</ele>
        <time>2014-07-08T13:38:21Z</time>
      </trkpt>
      <trkpt lat="59.9585856" lon="17.7856428">
        <ele>30.4188</ele>
        <time>2014-07-08T13:38:22Z</time>
      </trkpt>
      <trkpt lat="59.9586503" lon="17.785579">
        <ele>30.4188</ele>
        <time>2014-07-08T13:38:23Z</time>
      </trkpt>
      <trkpt lat="59.958714" lon="17.7855233">
        <ele>30.4188</ele>
        <time>2014-07-08T13:38:24Z</time>
      </trkpt>
      <trkpt lat="59.9587782" lon="17.7854696">
        <ele>30.4188</ele>
        <time>2014-07-08T13:38:25Z</time>
      </trkpt>
      <trkpt lat="59.9588435" lon="17.7854172">
        <ele>30.4188</ele>
        <time>2014-07-08T13:38:26Z</time>
      </trkpt>
      <trkpt lat="59.9589104" lon="17.7853634">
        <ele>30.4188</ele>
        <time>2014-07-08T13:38:27Z</time>
      </trkpt>
      <trkpt lat="59.9589781" lon="17.7853101">
        <ele>30.4188</ele>
        <time>2014-07-08T13:38:28Z</time>
      </trkpt>
      <trkpt lat="59.9590455" lon="17.7852574">
        <ele>30.4188</ele>
        <time>2014-07-08T13:38:29Z</time>
      </trkpt>
      <trkpt lat="59.9591107" lon="17.7852037">
        <ele>30.4188</ele>
        <time>2014-07-08T13:38:30Z</time>
      </trkpt>
      <trkpt lat="59.9591735" lon="17.7851496">
        <ele>30.8995</ele>
        <time>2014-07-08T13:38:31Z</time>
      </trkpt>
      <trkpt lat="59.9592346" lon="17.7850951">
        <ele>30.8995</ele>
        <time>2014-07-08T13:38:32Z</time>
      </trkpt>
      <trkpt lat="59.9592937" lon="17.7850356">
        <ele>30.8995</ele>
        <time>2014-07-08T13:38:33Z</time>
      </trkpt>
      <trkpt lat="59.9593515" lon="17.7849697">
        <ele>31.3801</ele>
        <time>2014-07-08T13:38:34Z</time>
      </trkpt>
      <trkpt lat="59.9594075" lon="17.7848962">
        <ele>31.3801</ele>
        <time>2014-07-08T13:38:35Z</time>
      </trkpt>
      <trkpt lat="59.959461" lon="17.7848152">
        <ele>31.8607</ele>
        <time>2014-07-08T13:38:36Z</time>
      </trkpt>
      <trkpt lat="59.9595122" lon="17.7847289">
        <ele>31.8607</ele>
        <time>2014-07-08T13:38:37Z</time>
      </trkpt>
      <trkpt lat="59.9595633" lon="17.784642">
        <ele>31.8607</ele>
        <time>2014-07-08T13:38:38Z</time>
      </trkpt>
      <trkpt lat="59.9596152" lon="17.7845562">
        <ele>31.8607</ele>
        <time>2014-07-08T13:38:39Z</time>
      </trkpt>
      <trkpt lat="59.9596685" lon="17.7844697">
        <ele>31.8607</ele>
        <time>2014-07-08T13:38:40Z</time>
      </trkpt>
      <trkpt lat="59.9597236" lon="17.7843812">
        <ele>31.8607</ele>
        <time>2014-07-08T13:38:41Z</time>
      </trkpt>
      <trkpt lat="59.9597793" lon="17.7842879">
        <ele>31.8607</ele>
        <time>2014-07-08T13:38:42Z</time>
      </trkpt>
      <trkpt lat="59.9598333" lon="17.7841886">
        <ele>31.8607</ele>
        <time>2014-07-08T13:38:43Z</time>
      </trkpt>
      <trkpt lat="59.9598842" lon="17.7840824">
        <ele>31.8607</ele>
        <time>2014-07-08T13:38:44Z</time>
      </trkpt>
      <trkpt lat="59.9599327" lon="17.7839715">
        <ele>31.8607</ele>
        <time>2014-07-08T13:38:45Z</time>
      </trkpt>
      <trkpt lat="59.9599785" lon="17.7838586">
        <ele>31.8607</ele>
        <time>2014-07-08T13:38:46Z</time>
      </trkpt>
      <trkpt lat="59.9600225" lon="17.7837465">
        <ele>32.3416</ele>
        <time>2014-07-08T13:38:47Z</time>
      </trkpt>
      <trkpt lat="59.9600643" lon="17.7836349">
        <ele>32.3416</ele>
        <time>2014-07-08T13:38:48Z</time>
      </trkpt>
      <trkpt lat="59.9601038" lon="17.7835209">
        <ele>32.3416</ele>
        <time>2014-07-08T13:38:49Z</time>
      </trkpt>
      <trkpt lat="59.9601425" lon="17.7834055">
        <ele>32.3416</ele>
        <time>2014-07-08T13:38:50Z</time>
      </trkpt>
      <trkpt lat="59.96018" lon="17.7832902">
        <ele>32.3416</ele>
        <time>2014-07-08T13:38:51Z</time>
      </trkpt>
      <trkpt lat="59.9602174" lon="17.7831764">
        <ele>32.8223</ele>
        <time>2014-07-08T13:38:52Z</time>
      </trkpt>
      <trkpt lat="59.9602559" lon="17.7830671">
        <ele>32.8223</ele>
        <time>2014-07-08T13:38:53Z</time>
      </trkpt>
      <trkpt lat="59.9602937" lon="17.7829607">
        <ele>32.8223</ele>
        <time>2014-07-08T13:38:54Z</time>
      </trkpt>
      <trkpt lat="59.960331" lon="17.7828548">
        <ele>32.8223</ele>
        <time>2014-07-08T13:38:55Z</time>
      </trkpt>
      <trkpt lat="59.9603675" lon="17.7827476">
        <ele>33.3029</ele>
        <time>2014-07-08T13:38:56Z</time>
      </trkpt>
      <trkpt lat="59.9604048" lon="17.7826398">
        <ele>33.3029</ele>
        <time>2014-07-08T13:38:57Z</time>
      </trkpt>
      <trkpt lat="59.9604416" lon="17.7825299">
        <ele>33.3029</ele>
        <time>2014-07-08T13:38:58Z</time>
      </trkpt>
      <trkpt lat="59.9604763" lon="17.7824138">
        <ele>32.8223</ele>
        <time>2014-07-08T13:38:59Z</time>
      </trkpt>
      <trkpt lat="59.9605095" lon="17.7822923">
        <ele>32.8223</ele>
        <time>2014-07-08T13:39:00Z</time>
      </trkpt>
      <trkpt lat="59.960545" lon="17.7821716">
        <ele>32.8223</ele>
        <time>2014-07-08T13:39:01Z</time>
      </trkpt>
      <trkpt lat="59.9605857" lon="17.7820549">
        <ele>32.8223</ele>
        <time>2014-07-08T13:39:02Z</time>
      </trkpt>
      <trkpt lat="59.9606318" lon="17.7819436">
        <ele>32.3416</ele>
        <time>2014-07-08T13:39:03Z</time>
      </trkpt>
      <trkpt lat="59.9606808" lon="17.7818373">
        <ele>32.3416</ele>
        <time>2014-07-08T13:39:04Z</time>
      </trkpt>
      <trkpt lat="59.9607317" lon="17.7817363">
        <ele>32.3416</ele>
        <time>2014-07-08T13:39:05Z</time>
      </trkpt>
      <trkpt lat="59.9607858" lon="17.7816408">
        <ele>32.3416</ele>
        <time>2014-07-08T13:39:06Z</time>
      </trkpt>
      <trkpt lat="59.9608413" lon="17.7815479">
        <ele>32.3416</ele>
        <time>2014-07-08T13:39:07Z</time>
      </trkpt>
      <trkpt lat="59.9608965" lon="17.7814554">
        <ele>32.3416</ele>
        <time>2014-07-08T13:39:08Z</time>
      </trkpt>
      <trkpt lat="59.9609501" lon="17.7813612">
        <ele>32.3416</ele>
        <time>2014-07-08T13:39:09Z</time>
      </trkpt>
      <trkpt lat="59.9610032" lon="17.7812639">
        <ele>32.3416</ele>
        <time>2014-07-08T13:39:10Z</time>
      </trkpt>
      <trkpt lat="59.9610585" lon="17.7811633">
        <ele>32.3416</ele>
        <time>2014-07-08T13:39:11Z</time>
      </trkpt>
      <trkpt lat="59.961115" lon="17.7810596">
        <ele>32.3416</ele>
        <time>2014-07-08T13:39:12Z</time>
      </trkpt>
      <trkpt lat="59.9611734" lon="17.7809517">
        <ele>32.3416</ele>
        <time>2014-07-08T13:39:13Z</time>
      </trkpt>
      <trkpt lat="59.9612339" lon="17.7808398">
        <ele>32.3416</ele>
        <time>2014-07-08T13:39:14Z</time>
      </trkpt>
      <trkpt lat="59.9612947" lon="17.7807271">
        <ele>32.3416</ele>
        <time>2014-07-08T13:39:15Z</time>
      </trkpt>
      <trkpt lat="59.9613547" lon="17.7806165">
        <ele>32.8223</ele>
        <time>2014-07-08T13:39:16Z</time>
      </trkpt>
      <trkpt lat="59.9614144" lon="17.7805086">
        <ele>32.8223</ele>
        <time>2014-07-08T13:39:17Z</time>
      </trkpt>
      <trkpt lat="59.961474" lon="17.7804012">
        <ele>32.8223</ele>
        <time>2014-07-08T13:39:18Z</time>
      </trkpt>
      <trkpt lat="59.9615328" lon="17.7802907">
        <ele>32.8223</ele>
        <time>2014-07-08T13:39:19Z</time>
      </trkpt>
      <trkpt lat="59.9615899" lon="17.7801756">
        <ele>32.8223</ele>
        <time>2014-07-08T13:39:20Z</time>
      </trkpt>
      <trkpt lat="59.9616459" lon="17.7800564">
        <ele>32.8223</ele>
        <time>2014-07-08T13:39:21Z</time>
      </trkpt>
      <trkpt lat="59.9617009" lon="17.7799335">
        <ele>32.8223</ele>
        <time>2014-07-08T13:39:22Z</time>
      </trkpt>
      <trkpt lat="59.9617548" lon="17.7798078">
        <ele>32.8223</ele>
        <time>2014-07-08T13:39:23Z</time>
      </trkpt>
      <trkpt lat="59.9618082" lon="17.7796822">
        <ele>32.8223</ele>
        <time>2014-07-08T13:39:24Z</time>
      </trkpt>
      <trkpt lat="59.9618625" lon="17.7795563">
        <ele>32.8223</ele>
        <time>2014-07-08T13:39:25Z</time>
      </trkpt>
      <trkpt lat="59.9619174" lon="17.7794312">
        <ele>32.8223</ele>
        <time>2014-07-08T13:39:26Z</time>
      </trkpt>
      <trkpt lat="59.9619728" lon="17.7793089">
        <ele>32.8223</ele>
        <time>2014-07-08T13:39:27Z</time>
      </trkpt>
      <trkpt lat="59.9620282" lon="17.779188">
        <ele>32.8223</ele>
        <time>2014-07-08T13:39:28Z</time>
      </trkpt>
      <trkpt lat="59.962084" lon="17.7790656">
        <ele>32.8223</ele>
        <time>2014-07-08T13:39:29Z</time>
      </trkpt>
      <trkpt lat="59.9621386" lon="17.7789427">
        <ele>32.8223</ele>
        <time>2014-07-08T13:39:30Z</time>
      </trkpt>
      <trkpt lat="59.962192" lon="17.7788177">
        <ele>32.3416</ele>
        <time>2014-07-08T13:39:31Z</time>
      </trkpt>
      <trkpt lat="59.9622457" lon="17.7786909">
        <ele>32.3416</ele>
        <time>2014-07-08T13:39:32Z</time>
      </trkpt>
      <trkpt lat="59.9623001" lon="17.7785623">
        <ele>32.3416</ele>
        <time>2014-07-08T13:39:33Z</time>
      </trkpt>
      <trkpt lat="59.9623554" lon="17.7784326">
        <ele>32.3416</ele>
        <time>2014-07-08T13:39:34Z</time>
      </trkpt>
      <trkpt lat="59.9624113" lon="17.7783028">
        <ele>32.3416</ele>
        <time>2014-07-08T13:39:35Z</time>
      </trkpt>
      <trkpt lat="59.9624688" lon="17.7781735">
        <ele>32.3416</ele>
        <time>2014-07-08T13:39:36Z</time>
      </trkpt>
      <trkpt lat="59.9625281" lon="17.778045">
        <ele>32.3416</ele>
        <time>2014-07-08T13:39:37Z</time>
      </trkpt>
      <trkpt lat="59.9625881" lon="17.7779174">
        <ele>32.3416</ele>
        <time>2014-07-08T13:39:38Z</time>
      </trkpt>
      <trkpt lat="59.9626473" lon="17.7777927">
        <ele>32.3416</ele>
        <time>2014-07-08T13:39:39Z</time>
      </trkpt>
      <trkpt lat="59.9627048" lon="17.777672">
        <ele>32.3416</ele>
        <time>2014-07-08T13:39:40Z</time>
      </trkpt>
      <trkpt lat="59.9627612" lon="17.7775563">
        <ele>32.3416</ele>
        <time>2014-07-08T13:39:41Z</time>
      </trkpt>
      <trkpt lat="59.9628162" lon="17.7774436">
        <ele>32.8223</ele>
        <time>2014-07-08T13:39:42Z</time>
      </trkpt>
      <trkpt lat="59.9628693" lon="17.7773301">
        <ele>32.8223</ele>
        <time>2014-07-08T13:39:43Z</time>
      </trkpt>
      <trkpt lat="59.9629198" lon="17.7772145">
        <ele>32.8223</ele>
        <time>2014-07-08T13:39:44Z</time>
      </trkpt>
      <trkpt lat="59.9629684" lon="17.7770961">
        <ele>32.8223</ele>
        <time>2014-07-08T13:39:45Z</time>
      </trkpt>
      <trkpt lat="59.963015" lon="17.7769756">
        <ele>32.8223</ele>
        <time>2014-07-08T13:39:46Z</time>
      </trkpt>
      <trkpt lat="59.9630585" lon="17.7768525">
        <ele>32.8223</ele>
        <time>2014-07-08T13:39:47Z</time>
      </trkpt>
      <trkpt lat="59.9630983" lon="17.7767271">
        <ele>33.3029</ele>
        <time>2014-07-08T13:39:48Z</time>
      </trkpt>
      <trkpt lat="59.9631357" lon="17.7766013">
        <ele>33.3029</ele>
        <time>2014-07-08T13:39:49Z</time>
      </trkpt>
      <trkpt lat="59.9631735" lon="17.7764769">
        <ele>33.3029</ele>
        <time>2014-07-08T13:39:50Z</time>
      </trkpt>
      <trkpt lat="59.9632119" lon="17.776353">
        <ele>33.3029</ele>
        <time>2014-07-08T13:39:51Z</time>
      </trkpt>
      <trkpt lat="59.9632516" lon="17.7762286">
        <ele>33.3029</ele>
        <time>2014-07-08T13:39:52Z</time>
      </trkpt>
      <trkpt lat="59.9632915" lon="17.7761018">
        <ele>33.3029</ele>
        <time>2014-07-08T13:39:53Z</time>
      </trkpt>
      <trkpt lat="59.963332" lon="17.7759724">
        <ele>33.3029</ele>
        <time>2014-07-08T13:39:54Z</time>
      </trkpt>
      <trkpt lat="59.9633733" lon="17.7758398">
        <ele>33.3029</ele>
        <time>2014-07-08T13:39:55Z</time>
      </trkpt>
      <trkpt lat="59.9634152" lon="17.7757051">
        <ele>32.8223</ele>
        <time>2014-07-08T13:39:56Z</time>
      </trkpt>
      <trkpt lat="59.9634574" lon="17.7755689">
        <ele>32.8223</ele>
        <time>2014-07-08T13:39:57Z</time>
      </trkpt>
      <trkpt lat="59.9635004" lon="17.775432">
        <ele>32.8223</ele>
        <time>2014-07-08T13:39:58Z</time>
      </trkpt>
      <trkpt lat="59.963543" lon="17.7752943">
        <ele>32.3416</ele>
        <time>2014-07-08T13:39:59Z</time>
      </trkpt>
      <trkpt lat="59.9635824" lon="17.775154">
        <ele>32.3416</ele>
        <time>2014-07-08T13:40:00Z</time>
      </trkpt>
      <trkpt lat="59.9636176" lon="17.7750099">
        <ele>32.3416</ele>
        <time>2014-07-08T13:40:01Z</time>
      </trkpt>
      <trkpt lat="59.9636486" lon="17.7748617">
        <ele>32.3416</ele>
        <time>2014-07-08T13:40:02Z</time>
      </trkpt>
      <trkpt lat="59.9636755" lon="17.7747106">
        <ele>32.3416</ele>
        <time>2014-07-08T13:40:03Z</time>
      </trkpt>
      <trkpt lat="59.9636998" lon="17.7745594">
        <ele>32.8223</ele>
        <time>2014-07-08T13:40:04Z</time>
      </trkpt>
      <trkpt lat="59.9637238" lon="17.7744101">
        <ele>32.8223</ele>
        <time>2014-07-08T13:40:05Z</time>
      </trkpt>
      <trkpt lat="59.963748" lon="17.7742615">
        <ele>32.8223</ele>
        <time>2014-07-08T13:40:06Z</time>
      </trkpt>
      <trkpt lat="59.9637725" lon="17.7741119">
        <ele>32.8223</ele>
        <time>2014-07-08T13:40:07Z</time>
      </trkpt>
      <trkpt lat="59.9637983" lon="17.7739615">
        <ele>32.8223</ele>
        <time>2014-07-08T13:40:08Z</time>
      </trkpt>
      <trkpt lat="59.963825" lon="17.7738096">
        <ele>32.8223</ele>
        <time>2014-07-08T13:40:09Z</time>
      </trkpt>
      <trkpt lat="59.9638504" lon="17.7736559">
        <ele>32.8223</ele>
        <time>2014-07-08T13:40:10Z</time>
      </trkpt>
      <trkpt lat="59.9638733" lon="17.7735001">
        <ele>32.8223</ele>
        <time>2014-07-08T13:40:11Z</time>
      </trkpt>
      <trkpt lat="59.9638931" lon="17.7733419">
        <ele>32.8223</ele>
        <time>2014-07-08T13:40:12Z</time>
      </trkpt>
      <trkpt lat="59.9639094" lon="17.7731822">
        <ele>32.8223</ele>
        <time>2014-07-08T13:40:13Z</time>
      </trkpt>
      <trkpt lat="59.9639198" lon="17.7730214">
        <ele>32.8223</ele>
        <time>2014-07-08T13:40:14Z</time>
      </trkpt>
      <trkpt lat="59.9639215" lon="17.7728571">
        <ele>32.3416</ele>
        <time>2014-07-08T13:40:15Z</time>
      </trkpt>
      <trkpt lat="59.9639142" lon="17.7726888">
        <ele>32.3416</ele>
        <time>2014-07-08T13:40:16Z</time>
      </trkpt>
      <trkpt lat="59.9638982" lon="17.7725189">
        <ele>32.3416</ele>
        <time>2014-07-08T13:40:17Z</time>
      </trkpt>
      <trkpt lat="59.9638754" lon="17.772351">
        <ele>32.3416</ele>
        <time>2014-07-08T13:40:18Z</time>
      </trkpt>
      <trkpt lat="59.9638474" lon="17.7721911">
        <ele>32.3416</ele>
        <time>2014-07-08T13:40:19Z</time>
      </trkpt>
      <trkpt lat="59.9638159" lon="17.7720416">
        <ele>32.8223</ele>
        <time>2014-07-08T13:40:20Z</time>
      </trkpt>
      <trkpt lat="59.9637837" lon="17.7719002">
        <ele>32.8223</ele>
        <time>2014-07-08T13:40:21Z</time>
      </trkpt>
      <trkpt lat="59.963752" lon="17.7717646">
        <ele>32.8223</ele>
        <time>2014-07-08T13:40:22Z</time>
      </trkpt>
      <trkpt lat="59.963721" lon="17.77163">
        <ele>32.8223</ele>
        <time>2014-07-08T13:40:23Z</time>
      </trkpt>
      <trkpt lat="59.9636903" lon="17.7714948">
        <ele>33.3029</ele>
        <time>2014-07-08T13:40:24Z</time>
      </trkpt>
      <trkpt lat="59.9636594" lon="17.7713614">
        <ele>33.3029</ele>
        <time>2014-07-08T13:40:25Z</time>
      </trkpt>
      <trkpt lat="59.963628" lon="17.771228">
        <ele>33.3029</ele>
        <time>2014-07-08T13:40:26Z</time>
      </trkpt>
      <trkpt lat="59.9635973" lon="17.7710938">
        <ele>33.3029</ele>
        <time>2014-07-08T13:40:27Z</time>
      </trkpt>
      <trkpt lat="59.9635691" lon="17.770958">
        <ele>33.3029</ele>
        <time>2014-07-08T13:40:28Z</time>
      </trkpt>
      <trkpt lat="59.9635446" lon="17.7708217">
        <ele>33.3029</ele>
        <time>2014-07-08T13:40:29Z</time>
      </trkpt>
      <trkpt lat="59.9635246" lon="17.7706863">
        <ele>33.3029</ele>
        <time>2014-07-08T13:40:30Z</time>
      </trkpt>
      <trkpt lat="59.9635096" lon="17.7705523">
        <ele>33.7834</ele>
        <time>2014-07-08T13:40:31Z</time>
      </trkpt>
      <trkpt lat="59.9634997" lon="17.7704203">
        <ele>33.7834</ele>
        <time>2014-07-08T13:40:32Z</time>
      </trkpt>
      <trkpt lat="59.9634928" lon="17.7702894">
        <ele>33.7834</ele>
        <time>2014-07-08T13:40:33Z</time>
      </trkpt>
      <trkpt lat="59.9634885" lon="17.7701584">
        <ele>33.7834</ele>
        <time>2014-07-08T13:40:34Z</time>
      </trkpt>
      <trkpt lat="59.9634869" lon="17.7700266">
        <ele>33.7834</ele>
        <time>2014-07-08T13:40:35Z</time>
      </trkpt>
      <trkpt lat="59.9634863" lon="17.7698942">
        <ele>33.7834</ele>
        <time>2014-07-08T13:40:36Z</time>
      </trkpt>
      <trkpt lat="59.963488" lon="17.7697628">
        <ele>33.7834</ele>
        <time>2014-07-08T13:40:37Z</time>
      </trkpt>
      <trkpt lat="59.9634952" lon="17.7696315">
        <ele>33.7834</ele>
        <time>2014-07-08T13:40:38Z</time>
      </trkpt>
      <trkpt lat="59.9635138" lon="17.769504">
        <ele>33.7834</ele>
        <time>2014-07-08T13:40:39Z</time>
      </trkpt>
      <trkpt lat="59.9635414" lon="17.7693826">
        <ele>33.7834</ele>
        <time>2014-07-08T13:40:40Z</time>
      </trkpt>
      <trkpt lat="59.9635719" lon="17.7692646">
        <ele>33.7834</ele>
        <time>2014-07-08T13:40:41Z</time>
      </trkpt>
      <trkpt lat="59.9636017" lon="17.7691469">
        <ele>33.3029</ele>
        <time>2014-07-08T13:40:42Z</time>
      </trkpt>
      <trkpt lat="59.9636336" lon="17.7690323">
        <ele>33.3029</ele>
        <time>2014-07-08T13:40:43Z</time>
      </trkpt>
      <trkpt lat="59.9636692" lon="17.7689234">
        <ele>33.3029</ele>
        <time>2014-07-08T13:40:44Z</time>
      </trkpt>
      <trkpt lat="59.9637044" lon="17.7688139">
        <ele>33.3029</ele>
        <time>2014-07-08T13:40:45Z</time>
      </trkpt>
      <trkpt lat="59.9637373" lon="17.7687005">
        <ele>33.3029</ele>
        <time>2014-07-08T13:40:46Z</time>
      </trkpt>
      <trkpt lat="59.9637698" lon="17.7685876">
        <ele>33.3029</ele>
        <time>2014-07-08T13:40:47Z</time>
      </trkpt>
      <trkpt lat="59.9638013" lon="17.7684772">
        <ele>33.7834</ele>
        <time>2014-07-08T13:40:48Z</time>
      </trkpt>
      <trkpt lat="59.9638315" lon="17.7683686">
        <ele>33.7834</ele>
        <time>2014-07-08T13:40:49Z</time>
      </trkpt>
      <trkpt lat="59.9638614" lon="17.7682628">
        <ele>33.7834</ele>
        <time>2014-07-08T13:40:50Z</time>
      </trkpt>
      <trkpt lat="59.9638889" lon="17.7681603">
        <ele>34.2642</ele>
        <time>2014-07-08T13:40:51Z</time>
      </trkpt>
      <trkpt lat="59.9639128" lon="17.7680574">
        <ele>34.2642</ele>
        <time>2014-07-08T13:40:52Z</time>
      </trkpt>
      <trkpt lat="59.9639344" lon="17.7679538">
        <ele>34.7449</ele>
        <time>2014-07-08T13:40:53Z</time>
      </trkpt>
      <trkpt lat="59.9639562" lon="17.7678517">
        <ele>34.7449</ele>
        <time>2014-07-08T13:40:54Z</time>
      </trkpt>
      <trkpt lat="59.9639781" lon="17.7677494">
        <ele>34.7449</ele>
        <time>2014-07-08T13:40:55Z</time>
      </trkpt>
      <trkpt lat="59.9639986" lon="17.7676445">
        <ele>35.2255</ele>
        <time>2014-07-08T13:40:56Z</time>
      </trkpt>
      <trkpt lat="59.9640175" lon="17.7675372">
        <ele>35.2255</ele>
        <time>2014-07-08T13:40:57Z</time>
      </trkpt>
      <trkpt lat="59.9640351" lon="17.7674268">
        <ele>35.2255</ele>
        <time>2014-07-08T13:40:58Z</time>
      </trkpt>
      <trkpt lat="59.9640508" lon="17.7673123">
        <ele>35.2255</ele>
        <time>2014-07-08T13:40:59Z</time>
      </trkpt>
      <trkpt lat="59.9640638" lon="17.7671942">
        <ele>35.2255</ele>
        <time>2014-07-08T13:41:00Z</time>
      </trkpt>
      <trkpt lat="59.9640734" lon="17.7670714">
        <ele>35.2255</ele>
        <time>2014-07-08T13:41:01Z</time>
      </trkpt>
      <trkpt lat="59.96408" lon="17.7669451">
        <ele>35.2255</ele>
        <time>2014-07-08T13:41:02Z</time>
      </trkpt>
      <trkpt lat="59.9640826" lon="17.7668185">
        <ele>34.7449</ele>
        <time>2014-07-08T13:41:03Z</time>
      </trkpt>
      <trkpt lat="59.9640817" lon="17.7666918">
        <ele>34.7449</ele>
        <time>2014-07-08T13:41:04Z</time>
      </trkpt>
      <trkpt lat="59.9640786" lon="17.7665647">
        <ele>34.2642</ele>
        <time>2014-07-08T13:41:05Z</time>
      </trkpt>
      <trkpt lat="59.9640722" lon="17.7664347">
        <ele>34.2642</ele>
        <time>2014-07-08T13:41:06Z</time>
      </trkpt>
      <trkpt lat="59.964066" lon="17.7663011">
        <ele>34.2642</ele>
        <time>2014-07-08T13:41:07Z</time>
      </trkpt>
      <trkpt lat="59.9640628" lon="17.7661602">
        <ele>33.7834</ele>
        <time>2014-07-08T13:41:08Z</time>
      </trkpt>
      <trkpt lat="59.9640602" lon="17.7660132">
        <ele>33.3029</ele>
        <time>2014-07-08T13:41:09Z</time>
      </trkpt>
      <trkpt lat="59.9640603" lon="17.7658598">
        <ele>32.8223</ele>
        <time>2014-07-08T13:41:10Z</time>
      </trkpt>
      <trkpt lat="59.9640651" lon="17.765696">
        <ele>32.3416</ele>
        <time>2014-07-08T13:41:11Z</time>
      </trkpt>
      <trkpt lat="59.9640723" lon="17.7655233">
        <ele>32.3416</ele>
        <time>2014-07-08T13:41:12Z</time>
      </trkpt>
      <trkpt lat="59.9640832" lon="17.765347">
        <ele>31.8607</ele>
        <time>2014-07-08T13:41:13Z</time>
      </trkpt>
      <trkpt lat="59.9641008" lon="17.7651678">
        <ele>31.3801</ele>
        <time>2014-07-08T13:41:14Z</time>
      </trkpt>
      <trkpt lat="59.9641277" lon="17.764987">
        <ele>30.8995</ele>
        <time>2014-07-08T13:41:15Z</time>
      </trkpt>
      <trkpt lat="59.9641635" lon="17.764805">
        <ele>30.4188</ele>
        <time>2014-07-08T13:41:16Z</time>
      </trkpt>
      <trkpt lat="59.9642044" lon="17.7646268">
        <ele>30.4188</ele>
        <time>2014-07-08T13:41:17Z</time>
      </trkpt>
      <trkpt lat="59.9642482" lon="17.7644529">
        <ele>30.4188</ele>
        <time>2014-07-08T13:41:18Z</time>
      </trkpt>
      <trkpt lat="59.9642931" lon="17.7642835">
        <ele>29.9381</ele>
        <time>2014-07-08T13:41:19Z</time>
      </trkpt>
      <trkpt lat="59.9643385" lon="17.7641186">
        <ele>29.9381</ele>
        <time>2014-07-08T13:41:20Z</time>
      </trkpt>
      <trkpt lat="59.9643822" lon="17.7639561">
        <ele>29.9381</ele>
        <time>2014-07-08T13:41:21Z</time>
      </trkpt>
      <trkpt lat="59.9644238" lon="17.7637954">
        <ele>29.9381</ele>
        <time>2014-07-08T13:41:22Z</time>
      </trkpt>
      <trkpt lat="59.9644633" lon="17.763635">
        <ele>29.9381</ele>
        <time>2014-07-08T13:41:23Z</time>
      </trkpt>
      <trkpt lat="59.9645008" lon="17.7634753">
        <ele>29.9381</ele>
        <time>2014-07-08T13:41:24Z</time>
      </trkpt>
      <trkpt lat="59.9645381" lon="17.7633173">
        <ele>29.9381</ele>
        <time>2014-07-08T13:41:25Z</time>
      </trkpt>
      <trkpt lat="59.964578" lon="17.7631634">
        <ele>29.4575</ele>
        <time>2014-07-08T13:41:26Z</time>
      </trkpt>
      <trkpt lat="59.9646193" lon="17.7630134">
        <ele>29.4575</ele>
        <time>2014-07-08T13:41:27Z</time>
      </trkpt>
      <trkpt lat="59.9646608" lon="17.7628663">
        <ele>29.4575</ele>
        <time>2014-07-08T13:41:28Z</time>
      </trkpt>
      <trkpt lat="59.9647044" lon="17.7627226">
        <ele>29.4575</ele>
        <time>2014-07-08T13:41:29Z</time>
      </trkpt>
      <trkpt lat="59.9647509" lon="17.7625834">
        <ele>28.9769</ele>
        <time>2014-07-08T13:41:30Z</time>
      </trkpt>
      <trkpt lat="59.9647986" lon="17.7624477">
        <ele>28.9769</ele>
        <time>2014-07-08T13:41:31Z</time>
      </trkpt>
      <trkpt lat="59.9648473" lon="17.7623156">
        <ele>28.9769</ele>
        <time>2014-07-08T13:41:32Z</time>
      </trkpt>
      <trkpt lat="59.9648969" lon="17.7621877">
        <ele>28.9769</ele>
        <time>2014-07-08T13:41:33Z</time>
      </trkpt>
      <trkpt lat="59.9649472" lon="17.7620628">
        <ele>28.9769</ele>
        <time>2014-07-08T13:41:34Z</time>
      </trkpt>
      <trkpt lat="59.964998" lon="17.761939">
        <ele>28.9769</ele>
        <time>2014-07-08T13:41:35Z</time>
      </trkpt>
      <trkpt lat="59.9650496" lon="17.7618158">
        <ele>28.9769</ele>
        <time>2014-07-08T13:41:36Z</time>
      </trkpt>
      <trkpt lat="59.9650999" lon="17.76169">
        <ele>29.4575</ele>
        <time>2014-07-08T13:41:37Z</time>
      </trkpt>
      <trkpt lat="59.9651493" lon="17.7615613">
        <ele>29.4575</ele>
        <time>2014-07-08T13:41:38Z</time>
      </trkpt>
      <trkpt lat="59.9651986" lon="17.7614293">
        <ele>28.9769</ele>
        <time>2014-07-08T13:41:39Z</time>
      </trkpt>
      <trkpt lat="59.965248" lon="17.7612941">
        <ele>28.9769</ele>
        <time>2014-07-08T13:41:40Z</time>
      </trkpt>
      <trkpt lat="59.9652979" lon="17.7611578">
        <ele>28.9769</ele>
        <time>2014-07-08T13:41:41Z</time>
      </trkpt>
      <trkpt lat="59.96535" lon="17.7610233">
        <ele>28.4962</ele>
        <time>2014-07-08T13:41:42Z</time>
      </trkpt>
      <trkpt lat="59.9654049" lon="17.7608959">
        <ele>28.4962</ele>
        <time>2014-07-08T13:41:43Z</time>
      </trkpt>
      <trkpt lat="59.9654626" lon="17.7607796">
        <ele>28.4962</ele>
        <time>2014-07-08T13:41:44Z</time>
      </trkpt>
      <trkpt lat="59.9655231" lon="17.760672">
        <ele>28.0155</ele>
        <time>2014-07-08T13:41:45Z</time>
      </trkpt>
      <trkpt lat="59.9655864" lon="17.7605723">
        <ele>28.4962</ele>
        <time>2014-07-08T13:41:46Z</time>
      </trkpt>
      <trkpt lat="59.9656506" lon="17.7604762">
        <ele>28.0155</ele>
        <time>2014-07-08T13:41:47Z</time>
      </trkpt>
      <trkpt lat="59.9657131" lon="17.7603735">
        <ele>28.0155</ele>
        <time>2014-07-08T13:41:48Z</time>
      </trkpt>
      <trkpt lat="59.9657746" lon="17.7602632">
        <ele>28.0155</ele>
        <time>2014-07-08T13:41:49Z</time>
      </trkpt>
      <trkpt lat="59.9658373" lon="17.7601513">
        <ele>28.0155</ele>
        <time>2014-07-08T13:41:50Z</time>
      </trkpt>
      <trkpt lat="59.9659009" lon="17.7600388">
        <ele>27.5349</ele>
        <time>2014-07-08T13:41:51Z</time>
      </trkpt>
      <trkpt lat="59.9659651" lon="17.7599245">
        <ele>27.5349</ele>
        <time>2014-07-08T13:41:52Z</time>
      </trkpt>
      <trkpt lat="59.9660302" lon="17.7598089">
        <ele>28.0155</ele>
        <time>2014-07-08T13:41:53Z</time>
      </trkpt>
      <trkpt lat="59.9660961" lon="17.7596924">
        <ele>28.0155</ele>
        <time>2014-07-08T13:41:54Z</time>
      </trkpt>
      <trkpt lat="59.9661633" lon="17.7595773">
        <ele>28.0155</ele>
        <time>2014-07-08T13:41:55Z</time>
      </trkpt>
      <trkpt lat="59.9662309" lon="17.759465">
        <ele>28.0155</ele>
        <time>2014-07-08T13:41:56Z</time>
      </trkpt>
      <trkpt lat="59.9662985" lon="17.7593568">
        <ele>28.0155</ele>
        <time>2014-07-08T13:41:57Z</time>
      </trkpt>
      <trkpt lat="59.9663662" lon="17.7592537">
        <ele>28.4962</ele>
        <time>2014-07-08T13:41:58Z</time>
      </trkpt>
      <trkpt lat="59.9664353" lon="17.7591551">
        <ele>28.4962</ele>
        <time>2014-07-08T13:41:59Z</time>
      </trkpt>
      <trkpt lat="59.9665064" lon="17.7590598">
        <ele>28.4962</ele>
        <time>2014-07-08T13:42:00Z</time>
      </trkpt>
      <trkpt lat="59.9665801" lon="17.7589677">
        <ele>28.4962</ele>
        <time>2014-07-08T13:42:01Z</time>
      </trkpt>
      <trkpt lat="59.9666561" lon="17.7588811">
        <ele>28.4962</ele>
        <time>2014-07-08T13:42:02Z</time>
      </trkpt>
      <trkpt lat="59.9667339" lon="17.7587995">
        <ele>28.4962</ele>
        <time>2014-07-08T13:42:03Z</time>
      </trkpt>
      <trkpt lat="59.9668125" lon="17.7587228">
        <ele>28.4962</ele>
        <time>2014-07-08T13:42:04Z</time>
      </trkpt>
      <trkpt lat="59.9668913" lon="17.758651">
        <ele>28.4962</ele>
        <time>2014-07-08T13:42:05Z</time>
      </trkpt>
      <trkpt lat="59.9669701" lon="17.7585843">
        <ele>28.4962</ele>
        <time>2014-07-08T13:42:06Z</time>
      </trkpt>
      <trkpt lat="59.9670483" lon="17.7585208">
        <ele>28.9769</ele>
        <time>2014-07-08T13:42:07Z</time>
      </trkpt>
      <trkpt lat="59.9671249" lon="17.7584579">
        <ele>28.9769</ele>
        <time>2014-07-08T13:42:08Z</time>
      </trkpt>
      <trkpt lat="59.9672006" lon="17.7583933">
        <ele>28.9769</ele>
        <time>2014-07-08T13:42:09Z</time>
      </trkpt>
      <trkpt lat="59.9672757" lon="17.758329">
        <ele>29.4575</ele>
        <time>2014-07-08T13:42:10Z</time>
      </trkpt>
      <trkpt lat="59.9673503" lon="17.7582622">
        <ele>29.4575</ele>
        <time>2014-07-08T13:42:11Z</time>
      </trkpt>
      <trkpt lat="59.9674237" lon="17.7581933">
        <ele>29.4575</ele>
        <time>2014-07-08T13:42:12Z</time>
      </trkpt>
      <trkpt lat="59.9674959" lon="17.7581239">
        <ele>29.4575</ele>
        <time>2014-07-08T13:42:13Z</time>
      </trkpt>
      <trkpt lat="59.9675682" lon="17.7580524">
        <ele>29.4575</ele>
        <time>2014-07-08T13:42:14Z</time>
      </trkpt>
      <trkpt lat="59.9676407" lon="17.7579774">
        <ele>29.4575</ele>
        <time>2014-07-08T13:42:15Z</time>
      </trkpt>
      <trkpt lat="59.9677133" lon="17.7579013">
        <ele>29.9381</ele>
        <time>2014-07-08T13:42:16Z</time>
      </trkpt>
      <trkpt lat="59.967785" lon="17.7578229">
        <ele>29.9381</ele>
        <time>2014-07-08T13:42:17Z</time>
      </trkpt>
      <trkpt lat="59.9678553" lon="17.7577429">
        <ele>30.4188</ele>
        <time>2014-07-08T13:42:18Z</time>
      </trkpt>
      <trkpt lat="59.9679232" lon="17.7576613">
        <ele>30.4188</ele>
        <time>2014-07-08T13:42:19Z</time>
      </trkpt>
      <trkpt lat="59.9679905" lon="17.7575822">
        <ele>30.8995</ele>
        <time>2014-07-08T13:42:20Z</time>
      </trkpt>
      <trkpt lat="59.9680553" lon="17.7575027">
        <ele>31.3801</ele>
        <time>2014-07-08T13:42:21Z</time>
      </trkpt>
      <trkpt lat="59.9681173" lon="17.7574245">
        <ele>31.8607</ele>
        <time>2014-07-08T13:42:22Z</time>
      </trkpt>
      <trkpt lat="59.9681763" lon="17.7573461">
        <ele>31.8607</ele>
        <time>2014-07-08T13:42:23Z</time>
      </trkpt>
      <trkpt lat="59.968234" lon="17.7572687">
        <ele>32.3416</ele>
        <time>2014-07-08T13:42:24Z</time>
      </trkpt>
      <trkpt lat="59.9682915" lon="17.7571956">
        <ele>32.3416</ele>
        <time>2014-07-08T13:42:25Z</time>
      </trkpt>
      <trkpt lat="59.9683464" lon="17.7571218">
        <ele>32.3416</ele>
        <time>2014-07-08T13:42:26Z</time>
      </trkpt>
      <trkpt lat="59.9683991" lon="17.7570452">
        <ele>32.3416</ele>
        <time>2014-07-08T13:42:27Z</time>
      </trkpt>
      <trkpt lat="59.968452" lon="17.7569703">
        <ele>32.3416</ele>
        <time>2014-07-08T13:42:28Z</time>
      </trkpt>
      <trkpt lat="59.9685049" lon="17.7568952">
        <ele>32.3416</ele>
        <time>2014-07-08T13:42:29Z</time>
      </trkpt>
      <trkpt lat="59.9685563" lon="17.7568195">
        <ele>32.8223</ele>
        <time>2014-07-08T13:42:30Z</time>
      </trkpt>
      <trkpt lat="59.9686058" lon="17.7567433">
        <ele>32.8223</ele>
        <time>2014-07-08T13:42:31Z</time>
      </trkpt>
      <trkpt lat="59.9686531" lon="17.7566665">
        <ele>32.8223</ele>
        <time>2014-07-08T13:42:32Z</time>
      </trkpt>
      <trkpt lat="59.9686993" lon="17.7565907">
        <ele>32.8223</ele>
        <time>2014-07-08T13:42:33Z</time>
      </trkpt>
      <trkpt lat="59.9687447" lon="17.7565147">
        <ele>33.3029</ele>
        <time>2014-07-08T13:42:34Z</time>
      </trkpt>
      <trkpt lat="59.9687886" lon="17.7564355">
        <ele>33.3029</ele>
        <time>2014-07-08T13:42:35Z</time>
      </trkpt>
      <trkpt lat="59.9688319" lon="17.7563522">
        <ele>32.8223</ele>
        <time>2014-07-08T13:42:36Z</time>
      </trkpt>
      <trkpt lat="59.9688764" lon="17.7562667">
        <ele>32.8223</ele>
        <time>2014-07-08T13:42:37Z</time>
      </trkpt>
      <trkpt lat="59.968922" lon="17.7561772">
        <ele>32.8223</ele>
        <time>2014-07-08T13:42:38Z</time>
      </trkpt>
      <trkpt lat="59.9689678" lon="17.7560829">
        <ele>32.8223</ele>
        <time>2014-07-08T13:42:39Z</time>
      </trkpt>
      <trkpt lat="59.9690137" lon="17.755985">
        <ele>32.3416</ele>
        <time>2014-07-08T13:42:40Z</time>
      </trkpt>
      <trkpt lat="59.9690602" lon="17.7558855">
        <ele>32.3416</ele>
        <time>2014-07-08T13:42:41Z</time>
      </trkpt>
      <trkpt lat="59.9691068" lon="17.7557862">
        <ele>32.3416</ele>
        <time>2014-07-08T13:42:42Z</time>
      </trkpt>
      <trkpt lat="59.9691535" lon="17.7556885">
        <ele>32.3416</ele>
        <time>2014-07-08T13:42:43Z</time>
      </trkpt>
      <trkpt lat="59.9691996" lon="17.7555913">
        <ele>32.3416</ele>
        <time>2014-07-08T13:42:44Z</time>
      </trkpt>
      <trkpt lat="59.969245" lon="17.7554938">
        <ele>31.8607</ele>
        <time>2014-07-08T13:42:45Z</time>
      </trkpt>
      <trkpt lat="59.9692892" lon="17.755395">
        <ele>31.8607</ele>
        <time>2014-07-08T13:42:46Z</time>
      </trkpt>
      <trkpt lat="59.9693332" lon="17.755296">
        <ele>31.8607</ele>
        <time>2014-07-08T13:42:47Z</time>
      </trkpt>
      <trkpt lat="59.9693789" lon="17.7551998">
        <ele>31.8607</ele>
        <time>2014-07-08T13:42:48Z</time>
      </trkpt>
      <trkpt lat="59.9694258" lon="17.7551048">
        <ele>31.8607</ele>
        <time>2014-07-08T13:42:49Z</time>
      </trkpt>
      <trkpt lat="59.9694731" lon="17.7550087">
        <ele>31.8607</ele>
        <time>2014-07-08T13:42:50Z</time>
      </trkpt>
      <trkpt lat="59.9695206" lon="17.7549116">
        <ele>31.8607</ele>
        <time>2014-07-08T13:42:51Z</time>
      </trkpt>
      <trkpt lat="59.9695684" lon="17.7548129">
        <ele>31.8607</ele>
        <time>2014-07-08T13:42:52Z</time>
      </trkpt>
      <trkpt lat="59.9696171" lon="17.7547137">
        <ele>31.8607</ele>
        <time>2014-07-08T13:42:53Z</time>
      </trkpt>
      <trkpt lat="59.9696657" lon="17.7546112">
        <ele>32.3416</ele>
        <time>2014-07-08T13:42:54Z</time>
      </trkpt>
      <trkpt lat="59.9697151" lon="17.7545097">
        <ele>32.3416</ele>
        <time>2014-07-08T13:42:55Z</time>
      </trkpt>
      <trkpt lat="59.9697646" lon="17.7544067">
        <ele>32.3416</ele>
        <time>2014-07-08T13:42:56Z</time>
      </trkpt>
      <trkpt lat="59.9698148" lon="17.754302">
        <ele>32.3416</ele>
        <time>2014-07-08T13:42:57Z</time>
      </trkpt>
      <trkpt lat="59.9698662" lon="17.7541942">
        <ele>31.8607</ele>
        <time>2014-07-08T13:42:58Z</time>
      </trkpt>
      <trkpt lat="59.969917" lon="17.7540834">
        <ele>31.8607</ele>
        <time>2014-07-08T13:42:59Z</time>
      </trkpt>
      <trkpt lat="59.9699673" lon="17.7539725">
        <ele>31.8607</ele>
        <time>2014-07-08T13:43:00Z</time>
      </trkpt>
      <trkpt lat="59.9700166" lon="17.7538607">
        <ele>31.8607</ele>
        <time>2014-07-08T13:43:01Z</time>
      </trkpt>
      <trkpt lat="59.9700646" lon="17.7537466">
        <ele>31.8607</ele>
        <time>2014-07-08T13:43:02Z</time>
      </trkpt>
      <trkpt lat="59.9701112" lon="17.7536295">
        <ele>31.3801</ele>
        <time>2014-07-08T13:43:03Z</time>
      </trkpt>
      <trkpt lat="59.9701562" lon="17.7535099">
        <ele>31.3801</ele>
        <time>2014-07-08T13:43:04Z</time>
      </trkpt>
      <trkpt lat="59.9701989" lon="17.7533885">
        <ele>31.3801</ele>
        <time>2014-07-08T13:43:05Z</time>
      </trkpt>
      <trkpt lat="59.9702402" lon="17.7532659">
        <ele>31.3801</ele>
        <time>2014-07-08T13:43:06Z</time>
      </trkpt>
      <trkpt lat="59.9702816" lon="17.7531422">
        <ele>31.3801</ele>
        <time>2014-07-08T13:43:07Z</time>
      </trkpt>
      <trkpt lat="59.9703243" lon="17.7530197">
        <ele>31.3801</ele>
        <time>2014-07-08T13:43:08Z</time>
      </trkpt>
      <trkpt lat="59.9703683" lon="17.7528985">
        <ele>31.3801</ele>
        <time>2014-07-08T13:43:09Z</time>
      </trkpt>
      <trkpt lat="59.9704122" lon="17.7527765">
        <ele>31.3801</ele>
        <time>2014-07-08T13:43:10Z</time>
      </trkpt>
      <trkpt lat="59.9704583" lon="17.7526564">
        <ele>31.3801</ele>
        <time>2014-07-08T13:43:11Z</time>
      </trkpt>
      <trkpt lat="59.9705084" lon="17.7525397">
        <ele>31.3801</ele>
        <time>2014-07-08T13:43:12Z</time>
      </trkpt>
      <trkpt lat="59.9705599" lon="17.7524237">
        <ele>31.3801</ele>
        <time>2014-07-08T13:43:13Z</time>
      </trkpt>
      <trkpt lat="59.9706128" lon="17.7523075">
        <ele>31.3801</ele>
        <time>2014-07-08T13:43:14Z</time>
      </trkpt>
      <trkpt lat="59.9706671" lon="17.7521917">
        <ele>31.3801</ele>
        <time>2014-07-08T13:43:15Z</time>
      </trkpt>
      <trkpt lat="59.9707244" lon="17.7520821">
        <ele>31.3801</ele>
        <time>2014-07-08T13:43:16Z</time>
      </trkpt>
      <trkpt lat="59.9707848" lon="17.7519818">
        <ele>31.8607</ele>
        <time>2014-07-08T13:43:17Z</time>
      </trkpt>
      <trkpt lat="59.9708461" lon="17.751886">
        <ele>31.8607</ele>
        <time>2014-07-08T13:43:18Z</time>
      </trkpt>
      <trkpt lat="59.970908" lon="17.7517923">
        <ele>31.8607</ele>
        <time>2014-07-08T13:43:19Z</time>
      </trkpt>
      <trkpt lat="59.9709696" lon="17.7516999">
        <ele>31.8607</ele>
        <time>2014-07-08T13:43:20Z</time>
      </trkpt>
      <trkpt lat="59.9710328" lon="17.751613">
        <ele>31.8607</ele>
        <time>2014-07-08T13:43:21Z</time>
      </trkpt>
      <trkpt lat="59.9710968" lon="17.751532">
        <ele>31.8607</ele>
        <time>2014-07-08T13:43:22Z</time>
      </trkpt>
      <trkpt lat="59.97116" lon="17.751456">
        <ele>31.8607</ele>
        <time>2014-07-08T13:43:23Z</time>
      </trkpt>
      <trkpt lat="59.9712206" lon="17.7513837">
        <ele>32.3416</ele>
        <time>2014-07-08T13:43:24Z</time>
      </trkpt>
      <trkpt lat="59.9712781" lon="17.7513134">
        <ele>32.3416</ele>
        <time>2014-07-08T13:43:25Z</time>
      </trkpt>
      <trkpt lat="59.9713348" lon="17.7512483">
        <ele>32.3416</ele>
        <time>2014-07-08T13:43:26Z</time>
      </trkpt>
      <trkpt lat="59.9713891" lon="17.7511856">
        <ele>32.3416</ele>
        <time>2014-07-08T13:43:27Z</time>
      </trkpt>
      <trkpt lat="59.9714411" lon="17.7511259">
        <ele>32.3416</ele>
        <time>2014-07-08T13:43:28Z</time>
      </trkpt>
      <trkpt lat="59.9714903" lon="17.7510679">
        <ele>32.8223</ele>
        <time>2014-07-08T13:43:29Z</time>
      </trkpt>
      <trkpt lat="59.9715371" lon="17.7510073">
        <ele>32.8223</ele>
        <time>2014-07-08T13:43:30Z</time>
      </trkpt>
      <trkpt lat="59.971583" lon="17.7509417">
        <ele>32.8223</ele>
        <time>2014-07-08T13:43:31Z</time>
      </trkpt>
      <trkpt lat="59.9716285" lon="17.7508743">
        <ele>33.3029</ele>
        <time>2014-07-08T13:43:32Z</time>
      </trkpt>
      <trkpt lat="59.9716749" lon="17.7508065">
        <ele>33.3029</ele>
        <time>2014-07-08T13:43:33Z</time>
      </trkpt>
      <trkpt lat="59.9717197" lon="17.7507343">
        <ele>33.3029</ele>
        <time>2014-07-08T13:43:34Z</time>
      </trkpt>
      <trkpt lat="59.9717627" lon="17.7506558">
        <ele>33.3029</ele>
        <time>2014-07-08T13:43:35Z</time>
      </trkpt>
      <trkpt lat="59.9718066" lon="17.7505769">
        <ele>33.3029</ele>
        <time>2014-07-08T13:43:36Z</time>
      </trkpt>
      <trkpt lat="59.9718506" lon="17.7504962">
        <ele>33.7834</ele>
        <time>2014-07-08T13:43:37Z</time>
      </trkpt>
      <trkpt lat="59.9718951" lon="17.7504122">
        <ele>33.7834</ele>
        <time>2014-07-08T13:43:38Z</time>
      </trkpt>
      <trkpt lat="59.9719372" lon="17.7503087">
        <ele>34.2642</ele>
        <time>2014-07-08T13:43:39Z</time>
      </trkpt>
      <trkpt lat="59.9719772" lon="17.7502212">
        <ele>34.2642</ele>
        <time>2014-07-08T13:43:40Z</time>
      </trkpt>
      <trkpt lat="59.972016" lon="17.7501251">
        <ele>34.2642</ele>
        <time>2014-07-08T13:43:41Z</time>
      </trkpt>
      <trkpt lat="59.9720568" lon="17.7500324">
        <ele>34.7449</ele>
        <time>2014-07-08T13:43:42Z</time>
      </trkpt>
      <trkpt lat="59.9720995" lon="17.7499438">
        <ele>34.7449</ele>
        <time>2014-07-08T13:43:43Z</time>
      </trkpt>
      <trkpt lat="59.9721424" lon="17.7498476">
        <ele>34.7449</ele>
        <time>2014-07-08T13:43:44Z</time>
      </trkpt>
      <trkpt lat="59.9721849" lon="17.7497539">
        <ele>34.7449</ele>
        <time>2014-07-08T13:43:45Z</time>
      </trkpt>
      <trkpt lat="59.9722225" lon="17.7496602">
        <ele>34.7449</ele>
        <time>2014-07-08T13:43:46Z</time>
      </trkpt>
      <trkpt lat="59.9722584" lon="17.7495636">
        <ele>34.7449</ele>
        <time>2014-07-08T13:43:47Z</time>
      </trkpt>
      <trkpt lat="59.9722967" lon="17.7494771">
        <ele>34.2642</ele>
        <time>2014-07-08T13:43:48Z</time>
      </trkpt>
      <trkpt lat="59.972336" lon="17.7493933">
        <ele>34.2642</ele>
        <time>2014-07-08T13:43:49Z</time>
      </trkpt>
      <trkpt lat="59.9723753" lon="17.7493129">
        <ele>33.7834</ele>
        <time>2014-07-08T13:43:50Z</time>
      </trkpt>
      <trkpt lat="59.9724159" lon="17.7492323">
        <ele>33.7834</ele>
        <time>2014-07-08T13:43:51Z</time>
      </trkpt>
      <trkpt lat="59.9724553" lon="17.7491481">
        <ele>33.7834</ele>
        <time>2014-07-08T13:43:52Z</time>
      </trkpt>
      <trkpt lat="59.9724942" lon="17.7490619">
        <ele>33.7834</ele>
        <time>2014-07-08T13:43:53Z</time>
      </trkpt>
      <trkpt lat="59.9725355" lon="17.7489782">
        <ele>33.3029</ele>
        <time>2014-07-08T13:43:54Z</time>
      </trkpt>
      <trkpt lat="59.9725768" lon="17.7488929">
        <ele>32.8223</ele>
        <time>2014-07-08T13:43:55Z</time>
      </trkpt>
      <trkpt lat="59.972619" lon="17.7488042">
        <ele>32.8223</ele>
        <time>2014-07-08T13:43:56Z</time>
      </trkpt>
      <trkpt lat="59.9726605" lon="17.7487158">
        <ele>32.3416</ele>
        <time>2014-07-08T13:43:57Z</time>
      </trkpt>
      <trkpt lat="59.9727002" lon="17.7486146">
        <ele>31.3801</ele>
        <time>2014-07-08T13:43:58Z</time>
      </trkpt>
      <trkpt lat="59.9727438" lon="17.748507">
        <ele>31.3801</ele>
        <time>2014-07-08T13:43:59Z</time>
      </trkpt>
      <trkpt lat="59.9727868" lon="17.748405">
        <ele>30.8995</ele>
        <time>2014-07-08T13:44:00Z</time>
      </trkpt>
      <trkpt lat="59.9728345" lon="17.748308">
        <ele>30.4188</ele>
        <time>2014-07-08T13:44:01Z</time>
      </trkpt>
      <trkpt lat="59.9728857" lon="17.7482169">
        <ele>30.4188</ele>
        <time>2014-07-08T13:44:02Z</time>
      </trkpt>
      <trkpt lat="59.9729395" lon="17.7481189">
        <ele>29.9381</ele>
        <time>2014-07-08T13:44:03Z</time>
      </trkpt>
      <trkpt lat="59.9729969" lon="17.7480298">
        <ele>29.9381</ele>
        <time>2014-07-08T13:44:04Z</time>
      </trkpt>
      <trkpt lat="59.9730563" lon="17.7479496">
        <ele>29.9381</ele>
        <time>2014-07-08T13:44:05Z</time>
      </trkpt>
      <trkpt lat="59.9731174" lon="17.7478767">
        <ele>29.9381</ele>
        <time>2014-07-08T13:44:06Z</time>
      </trkpt>
      <trkpt lat="59.973179" lon="17.7478067">
        <ele>29.9381</ele>
        <time>2014-07-08T13:44:07Z</time>
      </trkpt>
      <trkpt lat="59.9732406" lon="17.7477361">
        <ele>29.9381</ele>
        <time>2014-07-08T13:44:08Z</time>
      </trkpt>
      <trkpt lat="59.9733022" lon="17.7476676">
        <ele>30.4188</ele>
        <time>2014-07-08T13:44:09Z</time>
      </trkpt>
      <trkpt lat="59.9733637" lon="17.7476026">
        <ele>30.4188</ele>
        <time>2014-07-08T13:44:10Z</time>
      </trkpt>
      <trkpt lat="59.9734254" lon="17.7475382">
        <ele>30.8995</ele>
        <time>2014-07-08T13:44:11Z</time>
      </trkpt>
      <trkpt lat="59.9734872" lon="17.7474719">
        <ele>30.8995</ele>
        <time>2014-07-08T13:44:12Z</time>
      </trkpt>
      <trkpt lat="59.9735489" lon="17.7474066">
        <ele>31.3801</ele>
        <time>2014-07-08T13:44:13Z</time>
      </trkpt>
      <trkpt lat="59.97361" lon="17.7473416">
        <ele>31.3801</ele>
        <time>2014-07-08T13:44:14Z</time>
      </trkpt>
      <trkpt lat="59.9736698" lon="17.7472721">
        <ele>31.8607</ele>
        <time>2014-07-08T13:44:15Z</time>
      </trkpt>
      <trkpt lat="59.973731" lon="17.7472046">
        <ele>32.3416</ele>
        <time>2014-07-08T13:44:16Z</time>
      </trkpt>
      <trkpt lat="59.9737921" lon="17.7471368">
        <ele>32.3416</ele>
        <time>2014-07-08T13:44:17Z</time>
      </trkpt>
      <trkpt lat="59.973853" lon="17.7470627">
        <ele>32.3416</ele>
        <time>2014-07-08T13:44:18Z</time>
      </trkpt>
      <trkpt lat="59.9739149" lon="17.746987">
        <ele>32.3416</ele>
        <time>2014-07-08T13:44:19Z</time>
      </trkpt>
      <trkpt lat="59.9739777" lon="17.7469109">
        <ele>32.3416</ele>
        <time>2014-07-08T13:44:20Z</time>
      </trkpt>
      <trkpt lat="59.9740409" lon="17.7468308">
        <ele>32.3416</ele>
        <time>2014-07-08T13:44:21Z</time>
      </trkpt>
      <trkpt lat="59.9741044" lon="17.746748">
        <ele>32.3416</ele>
        <time>2014-07-08T13:44:22Z</time>
      </trkpt>
      <trkpt lat="59.9741686" lon="17.7466646">
        <ele>32.3416</ele>
        <time>2014-07-08T13:44:23Z</time>
      </trkpt>
      <trkpt lat="59.9742334" lon="17.7465809">
        <ele>32.3416</ele>
        <time>2014-07-08T13:44:24Z</time>
      </trkpt>
      <trkpt lat="59.9742968" lon="17.7464935">
        <ele>32.8223</ele>
        <time>2014-07-08T13:44:25Z</time>
      </trkpt>
      <trkpt lat="59.9743594" lon="17.7464068">
        <ele>32.8223</ele>
        <time>2014-07-08T13:44:26Z</time>
      </trkpt>
      <trkpt lat="59.9744212" lon="17.7463196">
        <ele>33.3029</ele>
        <time>2014-07-08T13:44:27Z</time>
      </trkpt>
      <trkpt lat="59.9744818" lon="17.7462328">
        <ele>33.3029</ele>
        <time>2014-07-08T13:44:28Z</time>
      </trkpt>
      <trkpt lat="59.9745396" lon="17.7461442">
        <ele>33.7834</ele>
        <time>2014-07-08T13:44:29Z</time>
      </trkpt>
      <trkpt lat="59.974595" lon="17.7460561">
        <ele>34.2642</ele>
        <time>2014-07-08T13:44:30Z</time>
      </trkpt>
      <trkpt lat="59.9746455" lon="17.745966">
        <ele>34.2642</ele>
        <time>2014-07-08T13:44:31Z</time>
      </trkpt>
      <trkpt lat="59.9746967" lon="17.7458626">
        <ele>34.2642</ele>
        <time>2014-07-08T13:44:32Z</time>
      </trkpt>
      <trkpt lat="59.9747447" lon="17.7457645">
        <ele>34.2642</ele>
        <time>2014-07-08T13:44:33Z</time>
      </trkpt>
      <trkpt lat="59.9747913" lon="17.7456669">
        <ele>34.2642</ele>
        <time>2014-07-08T13:44:34Z</time>
      </trkpt>
      <trkpt lat="59.9748355" lon="17.7455666">
        <ele>34.2642</ele>
        <time>2014-07-08T13:44:35Z</time>
      </trkpt>
      <trkpt lat="59.9748763" lon="17.7454585">
        <ele>34.2642</ele>
        <time>2014-07-08T13:44:36Z</time>
      </trkpt>
      <trkpt lat="59.9749162" lon="17.7453465">
        <ele>33.7834</ele>
        <time>2014-07-08T13:44:37Z</time>
      </trkpt>
      <trkpt lat="59.9749562" lon="17.7452342">
        <ele>33.7834</ele>
        <time>2014-07-08T13:44:38Z</time>
      </trkpt>
      <trkpt lat="59.9749966" lon="17.7451207">
        <ele>33.7834</ele>
        <time>2014-07-08T13:44:39Z</time>
      </trkpt>
      <trkpt lat="59.9750335" lon="17.7450011">
        <ele>33.7834</ele>
        <time>2014-07-08T13:44:40Z</time>
      </trkpt>
      <trkpt lat="59.9750711" lon="17.7448809">
        <ele>33.7834</ele>
        <time>2014-07-08T13:44:41Z</time>
      </trkpt>
      <trkpt lat="59.9751086" lon="17.744758">
        <ele>33.7834</ele>
        <time>2014-07-08T13:44:42Z</time>
      </trkpt>
      <trkpt lat="59.9751442" lon="17.7446308">
        <ele>33.7834</ele>
        <time>2014-07-08T13:44:43Z</time>
      </trkpt>
      <trkpt lat="59.9751782" lon="17.7445012">
        <ele>33.7834</ele>
        <time>2014-07-08T13:44:44Z</time>
      </trkpt>
      <trkpt lat="59.975209" lon="17.7443701">
        <ele>33.7834</ele>
        <time>2014-07-08T13:44:45Z</time>
      </trkpt>
      <trkpt lat="59.975237" lon="17.7442381">
        <ele>33.7834</ele>
        <time>2014-07-08T13:44:46Z</time>
      </trkpt>
      <trkpt lat="59.9752652" lon="17.7441054">
        <ele>33.7834</ele>
        <time>2014-07-08T13:44:47Z</time>
      </trkpt>
      <trkpt lat="59.9752924" lon="17.7439713">
        <ele>34.2642</ele>
        <time>2014-07-08T13:44:48Z</time>
      </trkpt>
      <trkpt lat="59.9753191" lon="17.7438383">
        <ele>34.2642</ele>
        <time>2014-07-08T13:44:49Z</time>
      </trkpt>
      <trkpt lat="59.9753432" lon="17.7437028">
        <ele>34.2642</ele>
        <time>2014-07-08T13:44:50Z</time>
      </trkpt>
      <trkpt lat="59.975367" lon="17.7435663">
        <ele>34.2642</ele>
        <time>2014-07-08T13:44:51Z</time>
      </trkpt>
      <trkpt lat="59.9753914" lon="17.743429">
        <ele>34.2642</ele>
        <time>2014-07-08T13:44:52Z</time>
      </trkpt>
      <trkpt lat="59.9754177" lon="17.7432902">
        <ele>34.2642</ele>
        <time>2014-07-08T13:44:53Z</time>
      </trkpt>
      <trkpt lat="59.9754482" lon="17.7431524">
        <ele>34.2642</ele>
        <time>2014-07-08T13:44:54Z</time>
      </trkpt>
      <trkpt lat="59.9754836" lon="17.7430172">
        <ele>34.2642</ele>
        <time>2014-07-08T13:44:55Z</time>
      </trkpt>
      <trkpt lat="59.9755219" lon="17.742883">
        <ele>34.2642</ele>
        <time>2014-07-08T13:44:56Z</time>
      </trkpt>
      <trkpt lat="59.9755611" lon="17.7427494">
        <ele>34.2642</ele>
        <time>2014-07-08T13:44:57Z</time>
      </trkpt>
      <trkpt lat="59.9756002" lon="17.7426155">
        <ele>34.2642</ele>
        <time>2014-07-08T13:44:58Z</time>
      </trkpt>
      <trkpt lat="59.9756375" lon="17.7424796">
        <ele>34.2642</ele>
        <time>2014-07-08T13:44:59Z</time>
      </trkpt>
      <trkpt lat="59.9756727" lon="17.7423432">
        <ele>34.2642</ele>
        <time>2014-07-08T13:45:00Z</time>
      </trkpt>
      <trkpt lat="59.9757069" lon="17.7422063">
        <ele>34.2642</ele>
        <time>2014-07-08T13:45:01Z</time>
      </trkpt>
      <trkpt lat="59.9757405" lon="17.7420693">
        <ele>33.7834</ele>
        <time>2014-07-08T13:45:02Z</time>
      </trkpt>
      <trkpt lat="59.9757744" lon="17.7419325">
        <ele>33.7834</ele>
        <time>2014-07-08T13:45:03Z</time>
      </trkpt>
      <trkpt lat="59.9758082" lon="17.7417957">
        <ele>33.7834</ele>
        <time>2014-07-08T13:45:04Z</time>
      </trkpt>
      <trkpt lat="59.9758411" lon="17.7416574">
        <ele>33.7834</ele>
        <time>2014-07-08T13:45:05Z</time>
      </trkpt>
      <trkpt lat="59.9758732" lon="17.7415173">
        <ele>33.3029</ele>
        <time>2014-07-08T13:45:06Z</time>
      </trkpt>
      <trkpt lat="59.9759061" lon="17.7413773">
        <ele>33.3029</ele>
        <time>2014-07-08T13:45:07Z</time>
      </trkpt>
      <trkpt lat="59.9759397" lon="17.7412374">
        <ele>32.8223</ele>
        <time>2014-07-08T13:45:08Z</time>
      </trkpt>
      <trkpt lat="59.975975" lon="17.7411003">
        <ele>32.8223</ele>
        <time>2014-07-08T13:45:09Z</time>
      </trkpt>
      <trkpt lat="59.9760122" lon="17.7409638">
        <ele>32.8223</ele>
        <time>2014-07-08T13:45:10Z</time>
      </trkpt>
      <trkpt lat="59.9760495" lon="17.7408256">
        <ele>32.8223</ele>
        <time>2014-07-08T13:45:11Z</time>
      </trkpt>
      <trkpt lat="59.9760886" lon="17.7406876">
        <ele>32.8223</ele>
        <time>2014-07-08T13:45:12Z</time>
      </trkpt>
      <trkpt lat="59.9761305" lon="17.7405508">
        <ele>32.8223</ele>
        <time>2014-07-08T13:45:13Z</time>
      </trkpt>
      <trkpt lat="59.9761744" lon="17.7404157">
        <ele>32.8223</ele>
        <time>2014-07-08T13:45:14Z</time>
      </trkpt>
      <trkpt lat="59.9762191" lon="17.7402811">
        <ele>32.8223</ele>
        <time>2014-07-08T13:45:15Z</time>
      </trkpt>
      <trkpt lat="59.9762643" lon="17.7401446">
        <ele>32.3416</ele>
        <time>2014-07-08T13:45:16Z</time>
      </trkpt>
      <trkpt lat="59.9763121" lon="17.7400052">
        <ele>32.3416</ele>
        <time>2014-07-08T13:45:17Z</time>
      </trkpt>
      <trkpt lat="59.9763642" lon="17.7398644">
        <ele>32.3416</ele>
        <time>2014-07-08T13:45:18Z</time>
      </trkpt>
      <trkpt lat="59.9764237" lon="17.7397304">
        <ele>32.3416</ele>
        <time>2014-07-08T13:45:19Z</time>
      </trkpt>
      <trkpt lat="59.9764925" lon="17.7396134">
        <ele>31.8607</ele>
        <time>2014-07-08T13:45:20Z</time>
      </trkpt>
      <trkpt lat="59.9765701" lon="17.7395154">
        <ele>32.3416</ele>
        <time>2014-07-08T13:45:21Z</time>
      </trkpt>
      <trkpt lat="59.9766525" lon="17.7394386">
        <ele>32.3416</ele>
        <time>2014-07-08T13:45:22Z</time>
      </trkpt>
      <trkpt lat="59.9767371" lon="17.7393833">
        <ele>32.8223</ele>
        <time>2014-07-08T13:45:23Z</time>
      </trkpt>
      <trkpt lat="59.9768213" lon="17.7393434">
        <ele>32.8223</ele>
        <time>2014-07-08T13:45:24Z</time>
      </trkpt>
      <trkpt lat="59.9769038" lon="17.7393106">
        <ele>33.3029</ele>
        <time>2014-07-08T13:45:25Z</time>
      </trkpt>
      <trkpt lat="59.9769848" lon="17.7392782">
        <ele>33.3029</ele>
        <time>2014-07-08T13:45:26Z</time>
      </trkpt>
      <trkpt lat="59.9770654" lon="17.7392419">
        <ele>33.7834</ele>
        <time>2014-07-08T13:45:27Z</time>
      </trkpt>
      <trkpt lat="59.9771443" lon="17.7392029">
        <ele>33.3029</ele>
        <time>2014-07-08T13:45:28Z</time>
      </trkpt>
      <trkpt lat="59.9772225" lon="17.7391596">
        <ele>33.7834</ele>
        <time>2014-07-08T13:45:29Z</time>
      </trkpt>
      <trkpt lat="59.9773018" lon="17.7391164">
        <ele>34.2642</ele>
        <time>2014-07-08T13:45:30Z</time>
      </trkpt>
      <trkpt lat="59.9773818" lon="17.7390746">
        <ele>34.2642</ele>
        <time>2014-07-08T13:45:31Z</time>
      </trkpt>
      <trkpt lat="59.9774608" lon="17.7390421">
        <ele>34.7449</ele>
        <time>2014-07-08T13:45:32Z</time>
      </trkpt>
      <trkpt lat="59.9775358" lon="17.7390218">
        <ele>34.7449</ele>
        <time>2014-07-08T13:45:33Z</time>
      </trkpt>
      <trkpt lat="59.9776084" lon="17.7390135">
        <ele>35.2255</ele>
        <time>2014-07-08T13:45:34Z</time>
      </trkpt>
      <trkpt lat="59.977679" lon="17.7390171">
        <ele>35.2255</ele>
        <time>2014-07-08T13:45:35Z</time>
      </trkpt>
      <trkpt lat="59.9777482" lon="17.7390305">
        <ele>35.7061</ele>
        <time>2014-07-08T13:45:36Z</time>
      </trkpt>
      <trkpt lat="59.9778149" lon="17.739054">
        <ele>36.1868</ele>
        <time>2014-07-08T13:45:37Z</time>
      </trkpt>
      <trkpt lat="59.9778783" lon="17.7390839">
        <ele>36.1868</ele>
        <time>2014-07-08T13:45:38Z</time>
      </trkpt>
      <trkpt lat="59.9779431" lon="17.739115">
        <ele>36.1868</ele>
        <time>2014-07-08T13:45:39Z</time>
      </trkpt>
      <trkpt lat="59.9780083" lon="17.7391474">
        <ele>36.1868</ele>
        <time>2014-07-08T13:45:40Z</time>
      </trkpt>
      <trkpt lat="59.978072" lon="17.7391771">
        <ele>36.6675</ele>
        <time>2014-07-08T13:45:41Z</time>
      </trkpt>
      <trkpt lat="59.9781356" lon="17.739201">
        <ele>36.6675</ele>
        <time>2014-07-08T13:45:42Z</time>
      </trkpt>
      <trkpt lat="59.9781994" lon="17.7392186">
        <ele>36.6675</ele>
        <time>2014-07-08T13:45:43Z</time>
      </trkpt>
      <trkpt lat="59.9782606" lon="17.7392303">
        <ele>37.1481</ele>
        <time>2014-07-08T13:45:44Z</time>
      </trkpt>
      <trkpt lat="59.9783186" lon="17.7392496">
        <ele>37.1481</ele>
        <time>2014-07-08T13:45:45Z</time>
      </trkpt>
      <trkpt lat="59.9783754" lon="17.7392683">
        <ele>37.1481</ele>
        <time>2014-07-08T13:45:46Z</time>
      </trkpt>
      <trkpt lat="59.9784313" lon="17.7392849">
        <ele>36.6675</ele>
        <time>2014-07-08T13:45:47Z</time>
      </trkpt>
      <trkpt lat="59.978487" lon="17.7392999">
        <ele>36.6675</ele>
        <time>2014-07-08T13:45:48Z</time>
      </trkpt>
      <trkpt lat="59.978544" lon="17.7393135">
        <ele>36.6675</ele>
        <time>2014-07-08T13:45:49Z</time>
      </trkpt>
      <trkpt lat="59.9788708" lon="17.7393339">
        <ele>39.5513</ele>
        <time>2014-07-08T14:16:58Z</time>
      </trkpt>
      <trkpt lat="59.9788545" lon="17.7393294">
        <ele>40.0321</ele>
        <time>2014-07-08T14:16:59Z</time>
      </trkpt>
      <trkpt lat="59.9788362" lon="17.7393253">
        <ele>39.5513</ele>
        <time>2014-07-08T14:17:00Z</time>
      </trkpt>
      <trkpt lat="59.9788148" lon="17.7393196">
        <ele>39.5513</ele>
        <time>2014-07-08T14:17:01Z</time>
      </trkpt>
      <trkpt lat="59.9787924" lon="17.7393165">
        <ele>39.0707</ele>
        <time>2014-07-08T14:17:02Z</time>
      </trkpt>
      <trkpt lat="59.9787692" lon="17.7393116">
        <ele>38.1094</ele>
        <time>2014-07-08T14:17:03Z</time>
      </trkpt>
      <trkpt lat="59.9787403" lon="17.7392998">
        <ele>38.1094</ele>
        <time>2014-07-08T14:17:04Z</time>
      </trkpt>
      <trkpt lat="59.9787108" lon="17.7392844">
        <ele>37.6287</ele>
        <time>2014-07-08T14:17:05Z</time>
      </trkpt>
      <trkpt lat="59.978674" lon="17.739275">
        <ele>37.1481</ele>
        <time>2014-07-08T14:17:06Z</time>
      </trkpt>
      <trkpt lat="59.9786362" lon="17.7392616">
        <ele>37.1481</ele>
        <time>2014-07-08T14:17:07Z</time>
      </trkpt>
      <trkpt lat="59.9785953" lon="17.7392543">
        <ele>36.1868</ele>
        <time>2014-07-08T14:17:08Z</time>
      </trkpt>
      <trkpt lat="59.9785583" lon="17.7392427">
        <ele>35.7061</ele>
        <time>2014-07-08T14:17:09Z</time>
      </trkpt>
      <trkpt lat="59.9785181" lon="17.739234">
        <ele>35.2255</ele>
        <time>2014-07-08T14:17:10Z</time>
      </trkpt>
      <trkpt lat="59.9784728" lon="17.7392284">
        <ele>35.7061</ele>
        <time>2014-07-08T14:17:11Z</time>
      </trkpt>
      <trkpt lat="59.9784279" lon="17.7392233">
        <ele>35.7061</ele>
        <time>2014-07-08T14:17:12Z</time>
      </trkpt>
      <trkpt lat="59.978386" lon="17.7392146">
        <ele>36.1868</ele>
        <time>2014-07-08T14:17:13Z</time>
      </trkpt>
      <trkpt lat="59.9783384" lon="17.7392187">
        <ele>36.1868</ele>
        <time>2014-07-08T14:17:14Z</time>
      </trkpt>
      <trkpt lat="59.9782994" lon="17.7392092">
        <ele>35.7061</ele>
        <time>2014-07-08T14:17:15Z</time>
      </trkpt>
      <trkpt lat="59.9782554" lon="17.7391979">
        <ele>36.1868</ele>
        <time>2014-07-08T14:17:16Z</time>
      </trkpt>
      <trkpt lat="59.9782066" lon="17.7391835">
        <ele>36.1868</ele>
        <time>2014-07-08T14:17:17Z</time>
      </trkpt>
      <trkpt lat="59.9781583" lon="17.7391663">
        <ele>36.1868</ele>
        <time>2014-07-08T14:17:18Z</time>
      </trkpt>
      <trkpt lat="59.9781124" lon="17.7391414">
        <ele>36.1868</ele>
        <time>2014-07-08T14:17:19Z</time>
      </trkpt>
      <trkpt lat="59.9780657" lon="17.7391103">
        <ele>36.1868</ele>
        <time>2014-07-08T14:17:20Z</time>
      </trkpt>
      <trkpt lat="59.9780186" lon="17.7390797">
        <ele>36.1868</ele>
        <time>2014-07-08T14:17:21Z</time>
      </trkpt>
      <trkpt lat="59.9779689" lon="17.7390533">
        <ele>35.7061</ele>
        <time>2014-07-08T14:17:22Z</time>
      </trkpt>
      <trkpt lat="59.9779191" lon="17.7390288">
        <ele>35.2255</ele>
        <time>2014-07-08T14:17:23Z</time>
      </trkpt>
      <trkpt lat="59.9778657" lon="17.7390052">
        <ele>35.2255</ele>
        <time>2014-07-08T14:17:24Z</time>
      </trkpt>
      <trkpt lat="59.9778111" lon="17.7389809">
        <ele>35.2255</ele>
        <time>2014-07-08T14:17:25Z</time>
      </trkpt>
      <trkpt lat="59.9777545" lon="17.7389647">
        <ele>35.2255</ele>
        <time>2014-07-08T14:17:26Z</time>
      </trkpt>
      <trkpt lat="59.9776949" lon="17.7389594">
        <ele>34.7449</ele>
        <time>2014-07-08T14:17:27Z</time>
      </trkpt>
      <trkpt lat="59.9776324" lon="17.7389641">
        <ele>34.2642</ele>
        <time>2014-07-08T14:17:28Z</time>
      </trkpt>
      <trkpt lat="59.9775666" lon="17.7389761">
        <ele>34.2642</ele>
        <time>2014-07-08T14:17:29Z</time>
      </trkpt>
      <trkpt lat="59.977499" lon="17.7389956">
        <ele>33.7834</ele>
        <time>2014-07-08T14:17:30Z</time>
      </trkpt>
      <trkpt lat="59.9774283" lon="17.7390213">
        <ele>33.7834</ele>
        <time>2014-07-08T14:17:31Z</time>
      </trkpt>
      <trkpt lat="59.9773551" lon="17.7390522">
        <ele>33.3029</ele>
        <time>2014-07-08T14:17:32Z</time>
      </trkpt>
      <trkpt lat="59.977282" lon="17.739087">
        <ele>32.8223</ele>
        <time>2014-07-08T14:17:33Z</time>
      </trkpt>
      <trkpt lat="59.9772095" lon="17.7391258">
        <ele>32.3416</ele>
        <time>2014-07-08T14:17:34Z</time>
      </trkpt>
      <trkpt lat="59.977137" lon="17.7391672">
        <ele>31.8607</ele>
        <time>2014-07-08T14:17:35Z</time>
      </trkpt>
      <trkpt lat="59.9770655" lon="17.7392097">
        <ele>31.3801</ele>
        <time>2014-07-08T14:17:36Z</time>
      </trkpt>
      <trkpt lat="59.9769951" lon="17.7392472">
        <ele>30.8995</ele>
        <time>2014-07-08T14:17:37Z</time>
      </trkpt>
      <trkpt lat="59.9769237" lon="17.7392802">
        <ele>30.4188</ele>
        <time>2014-07-08T14:17:38Z</time>
      </trkpt>
      <trkpt lat="59.9768525" lon="17.7393112">
        <ele>29.4575</ele>
        <time>2014-07-08T14:17:39Z</time>
      </trkpt>
      <trkpt lat="59.9767821" lon="17.7393406">
        <ele>28.9769</ele>
        <time>2014-07-08T14:17:40Z</time>
      </trkpt>
      <trkpt lat="59.9767124" lon="17.7393738">
        <ele>28.4962</ele>
        <time>2014-07-08T14:17:41Z</time>
      </trkpt>
      <trkpt lat="59.9766458" lon="17.7394163">
        <ele>28.0155</ele>
        <time>2014-07-08T14:17:42Z</time>
      </trkpt>
      <trkpt lat="59.9765789" lon="17.7394756">
        <ele>28.0155</ele>
        <time>2014-07-08T14:17:43Z</time>
      </trkpt>
      <trkpt lat="59.9765206" lon="17.7395485">
        <ele>27.5349</ele>
        <time>2014-07-08T14:17:44Z</time>
      </trkpt>
      <trkpt lat="59.976461" lon="17.7396222">
        <ele>28.0155</ele>
        <time>2014-07-08T14:17:45Z</time>
      </trkpt>
      <trkpt lat="59.976401" lon="17.7396837">
        <ele>28.4962</ele>
        <time>2014-07-08T14:17:46Z</time>
      </trkpt>
      <trkpt lat="59.9763408" lon="17.7397232">
        <ele>28.4962</ele>
        <time>2014-07-08T14:17:47Z</time>
      </trkpt>
      <trkpt lat="59.9762813" lon="17.7397309">
        <ele>28.0155</ele>
        <time>2014-07-08T14:17:48Z</time>
      </trkpt>
      <trkpt lat="59.9762231" lon="17.7396993">
        <ele>27.5349</ele>
        <time>2014-07-08T14:17:49Z</time>
      </trkpt>
      <trkpt lat="59.9761678" lon="17.739635">
        <ele>27.0543</ele>
        <time>2014-07-08T14:17:50Z</time>
      </trkpt>
      <trkpt lat="59.976114" lon="17.7395491">
        <ele>26.5736</ele>
        <time>2014-07-08T14:17:51Z</time>
      </trkpt>
      <trkpt lat="59.9760595" lon="17.7394517">
        <ele>26.0929</ele>
        <time>2014-07-08T14:17:52Z</time>
      </trkpt>
      <trkpt lat="59.9760034" lon="17.7393497">
        <ele>25.6123</ele>
        <time>2014-07-08T14:17:53Z</time>
      </trkpt>
      <trkpt lat="59.9759456" lon="17.739246">
        <ele>25.1317</ele>
        <time>2014-07-08T14:17:54Z</time>
      </trkpt>
      <trkpt lat="59.9758866" lon="17.7391425">
        <ele>24.651</ele>
        <time>2014-07-08T14:17:55Z</time>
      </trkpt>
      <trkpt lat="59.975828" lon="17.739039">
        <ele>24.651</ele>
        <time>2014-07-08T14:17:56Z</time>
      </trkpt>
      <trkpt lat="59.97577" lon="17.7389341">
        <ele>24.1703</ele>
        <time>2014-07-08T14:17:57Z</time>
      </trkpt>
      <trkpt lat="59.9757124" lon="17.7388302">
        <ele>24.1703</ele>
        <time>2014-07-08T14:17:58Z</time>
      </trkpt>
      <trkpt lat="59.975655" lon="17.7387292">
        <ele>23.6896</ele>
        <time>2014-07-08T14:17:59Z</time>
      </trkpt>
      <trkpt lat="59.9755979" lon="17.7386302">
        <ele>23.6896</ele>
        <time>2014-07-08T14:18:00Z</time>
      </trkpt>
      <trkpt lat="59.9755416" lon="17.7385326">
        <ele>23.6896</ele>
        <time>2014-07-08T14:18:01Z</time>
      </trkpt>
      <trkpt lat="59.9754856" lon="17.7384346">
        <ele>23.6896</ele>
        <time>2014-07-08T14:18:02Z</time>
      </trkpt>
      <trkpt lat="59.9754296" lon="17.7383334">
        <ele>23.6896</ele>
        <time>2014-07-08T14:18:03Z</time>
      </trkpt>
      <trkpt lat="59.9753725" lon="17.7382313">
        <ele>23.6896</ele>
        <time>2014-07-08T14:18:04Z</time>
      </trkpt>
      <trkpt lat="59.9753161" lon="17.7381304">
        <ele>23.6896</ele>
        <time>2014-07-08T14:18:05Z</time>
      </trkpt>
      <trkpt lat="59.9752621" lon="17.7380306">
        <ele>23.6896</ele>
        <time>2014-07-08T14:18:06Z</time>
      </trkpt>
      <trkpt lat="59.9752094" lon="17.737934">
        <ele>23.6896</ele>
        <time>2014-07-08T14:18:07Z</time>
      </trkpt>
      <trkpt lat="59.9751571" lon="17.7378424">
        <ele>23.6896</ele>
        <time>2014-07-08T14:18:08Z</time>
      </trkpt>
      <trkpt lat="59.9751055" lon="17.7377526">
        <ele>23.6896</ele>
        <time>2014-07-08T14:18:09Z</time>
      </trkpt>
      <trkpt lat="59.9750553" lon="17.7376626">
        <ele>23.6896</ele>
        <time>2014-07-08T14:18:10Z</time>
      </trkpt>
      <trkpt lat="59.9750059" lon="17.7375742">
        <ele>23.6896</ele>
        <time>2014-07-08T14:18:11Z</time>
      </trkpt>
      <trkpt lat="59.9749576" lon="17.737487">
        <ele>23.6896</ele>
        <time>2014-07-08T14:18:12Z</time>
      </trkpt>
      <trkpt lat="59.9749106" lon="17.7373983">
        <ele>23.6896</ele>
        <time>2014-07-08T14:18:13Z</time>
      </trkpt>
      <trkpt lat="59.974865" lon="17.7373043">
        <ele>23.209</ele>
        <time>2014-07-08T14:18:14Z</time>
      </trkpt>
      <trkpt lat="59.9748205" lon="17.7372015">
        <ele>23.209</ele>
        <time>2014-07-08T14:18:15Z</time>
      </trkpt>
      <trkpt lat="59.9747755" lon="17.7370922">
        <ele>23.209</ele>
        <time>2014-07-08T14:18:16Z</time>
      </trkpt>
      <trkpt lat="59.9747305" lon="17.7369787">
        <ele>23.209</ele>
        <time>2014-07-08T14:18:17Z</time>
      </trkpt>
      <trkpt lat="59.974689" lon="17.7368616">
        <ele>23.209</ele>
        <time>2014-07-08T14:18:18Z</time>
      </trkpt>
      <trkpt lat="59.9746506" lon="17.736744">
        <ele>23.209</ele>
        <time>2014-07-08T14:18:19Z</time>
      </trkpt>
      <trkpt lat="59.9746142" lon="17.7366274">
        <ele>23.209</ele>
        <time>2014-07-08T14:18:20Z</time>
      </trkpt>
      <trkpt lat="59.9745786" lon="17.7365115">
        <ele>23.209</ele>
        <time>2014-07-08T14:18:21Z</time>
      </trkpt>
      <trkpt lat="59.9745439" lon="17.7363978">
        <ele>23.209</ele>
        <time>2014-07-08T14:18:22Z</time>
      </trkpt>
      <trkpt lat="59.9745143" lon="17.7362813">
        <ele>23.209</ele>
        <time>2014-07-08T14:18:23Z</time>
      </trkpt>
      <trkpt lat="59.974488" lon="17.7361597">
        <ele>23.209</ele>
        <time>2014-07-08T14:18:24Z</time>
      </trkpt>
      <trkpt lat="59.9744616" lon="17.7360335">
        <ele>23.209</ele>
        <time>2014-07-08T14:18:25Z</time>
      </trkpt>
      <trkpt lat="59.974436" lon="17.7359016">
        <ele>23.209</ele>
        <time>2014-07-08T14:18:26Z</time>
      </trkpt>
      <trkpt lat="59.9744111" lon="17.7357633">
        <ele>23.209</ele>
        <time>2014-07-08T14:18:27Z</time>
      </trkpt>
      <trkpt lat="59.9743872" lon="17.7356189">
        <ele>23.209</ele>
        <time>2014-07-08T14:18:28Z</time>
      </trkpt>
      <trkpt lat="59.9743657" lon="17.7354685">
        <ele>23.209</ele>
        <time>2014-07-08T14:18:29Z</time>
      </trkpt>
      <trkpt lat="59.9743469" lon="17.7353123">
        <ele>23.209</ele>
        <time>2014-07-08T14:18:30Z</time>
      </trkpt>
      <trkpt lat="59.9743303" lon="17.7351533">
        <ele>22.7283</ele>
        <time>2014-07-08T14:18:31Z</time>
      </trkpt>
      <trkpt lat="59.9743161" lon="17.7349935">
        <ele>22.7283</ele>
        <time>2014-07-08T14:18:32Z</time>
      </trkpt>
      <trkpt lat="59.9743049" lon="17.7348337">
        <ele>22.7283</ele>
        <time>2014-07-08T14:18:33Z</time>
      </trkpt>
      <trkpt lat="59.9742971" lon="17.7346751">
        <ele>22.7283</ele>
        <time>2014-07-08T14:18:34Z</time>
      </trkpt>
      <trkpt lat="59.9742921" lon="17.7345182">
        <ele>22.7283</ele>
        <time>2014-07-08T14:18:35Z</time>
      </trkpt>
      <trkpt lat="59.974291" lon="17.7343634">
        <ele>22.7283</ele>
        <time>2014-07-08T14:18:36Z</time>
      </trkpt>
      <trkpt lat="59.9742937" lon="17.7342114">
        <ele>22.7283</ele>
        <time>2014-07-08T14:18:37Z</time>
      </trkpt>
      <trkpt lat="59.9742974" lon="17.7340619">
        <ele>22.7283</ele>
        <time>2014-07-08T14:18:38Z</time>
      </trkpt>
      <trkpt lat="59.9743035" lon="17.7339131">
        <ele>22.7283</ele>
        <time>2014-07-08T14:18:39Z</time>
      </trkpt>
      <trkpt lat="59.9743128" lon="17.7337624">
        <ele>22.7283</ele>
        <time>2014-07-08T14:18:40Z</time>
      </trkpt>
      <trkpt lat="59.974323" lon="17.7336079">
        <ele>22.7283</ele>
        <time>2014-07-08T14:18:41Z</time>
      </trkpt>
      <trkpt lat="59.9743314" lon="17.7334511">
        <ele>22.7283</ele>
        <time>2014-07-08T14:18:42Z</time>
      </trkpt>
      <trkpt lat="59.9743377" lon="17.7332941">
        <ele>22.7283</ele>
        <time>2014-07-08T14:18:43Z</time>
      </trkpt>
      <trkpt lat="59.9743429" lon="17.7331395">
        <ele>22.7283</ele>
        <time>2014-07-08T14:18:44Z</time>
      </trkpt>
      <trkpt lat="59.9743469" lon="17.7329862">
        <ele>22.7283</ele>
        <time>2014-07-08T14:18:45Z</time>
      </trkpt>
      <trkpt lat="59.9743495" lon="17.7328358">
        <ele>22.7283</ele>
        <time>2014-07-08T14:18:46Z</time>
      </trkpt>
      <trkpt lat="59.9743523" lon="17.7326896">
        <ele>23.209</ele>
        <time>2014-07-08T14:18:47Z</time>
      </trkpt>
      <trkpt lat="59.9743517" lon="17.7325438">
        <ele>23.209</ele>
        <time>2014-07-08T14:18:48Z</time>
      </trkpt>
      <trkpt lat="59.9743486" lon="17.7324006">
        <ele>23.209</ele>
        <time>2014-07-08T14:18:49Z</time>
      </trkpt>
      <trkpt lat="59.974346" lon="17.7322594">
        <ele>23.209</ele>
        <time>2014-07-08T14:18:50Z</time>
      </trkpt>
      <trkpt lat="59.9743438" lon="17.7321197">
        <ele>23.209</ele>
        <time>2014-07-08T14:18:51Z</time>
      </trkpt>
      <trkpt lat="59.9743418" lon="17.7319808">
        <ele>23.209</ele>
        <time>2014-07-08T14:18:52Z</time>
      </trkpt>
      <trkpt lat="59.9743399" lon="17.7318411">
        <ele>23.209</ele>
        <time>2014-07-08T14:18:53Z</time>
      </trkpt>
      <trkpt lat="59.9743372" lon="17.7316981">
        <ele>23.209</ele>
        <time>2014-07-08T14:18:54Z</time>
      </trkpt>
      <trkpt lat="59.9743367" lon="17.7315508">
        <ele>23.209</ele>
        <time>2014-07-08T14:18:55Z</time>
      </trkpt>
      <trkpt lat="59.9743397" lon="17.7313999">
        <ele>23.209</ele>
        <time>2014-07-08T14:18:56Z</time>
      </trkpt>
      <trkpt lat="59.9743434" lon="17.7312459">
        <ele>23.209</ele>
        <time>2014-07-08T14:18:57Z</time>
      </trkpt>
      <trkpt lat="59.9743489" lon="17.7310882">
        <ele>23.209</ele>
        <time>2014-07-08T14:18:58Z</time>
      </trkpt>
      <trkpt lat="59.9743572" lon="17.7309299">
        <ele>23.209</ele>
        <time>2014-07-08T14:18:59Z</time>
      </trkpt>
      <trkpt lat="59.974367" lon="17.7307743">
        <ele>23.209</ele>
        <time>2014-07-08T14:19:00Z</time>
      </trkpt>
      <trkpt lat="59.9743772" lon="17.7306208">
        <ele>23.209</ele>
        <time>2014-07-08T14:19:01Z</time>
      </trkpt>
      <trkpt lat="59.9743888" lon="17.730471">
        <ele>23.209</ele>
        <time>2014-07-08T14:19:02Z</time>
      </trkpt>
      <trkpt lat="59.9744015" lon="17.7303248">
        <ele>23.209</ele>
        <time>2014-07-08T14:19:03Z</time>
      </trkpt>
      <trkpt lat="59.9744142" lon="17.7301815">
        <ele>23.6896</ele>
        <time>2014-07-08T14:19:04Z</time>
      </trkpt>
      <trkpt lat="59.9744251" lon="17.7300413">
        <ele>23.6896</ele>
        <time>2014-07-08T14:19:05Z</time>
      </trkpt>
      <trkpt lat="59.9744345" lon="17.7299012">
        <ele>23.6896</ele>
        <time>2014-07-08T14:19:06Z</time>
      </trkpt>
      <trkpt lat="59.9744444" lon="17.7297591">
        <ele>23.6896</ele>
        <time>2014-07-08T14:19:07Z</time>
      </trkpt>
      <trkpt lat="59.974454" lon="17.7296134">
        <ele>23.6896</ele>
        <time>2014-07-08T14:19:08Z</time>
      </trkpt>
      <trkpt lat="59.9744605" lon="17.7294638">
        <ele>23.6896</ele>
        <time>2014-07-08T14:19:09Z</time>
      </trkpt>
      <trkpt lat="59.9744631" lon="17.7293102">
        <ele>23.6896</ele>
        <time>2014-07-08T14:19:10Z</time>
      </trkpt>
      <trkpt lat="59.9744626" lon="17.7291527">
        <ele>23.6896</ele>
        <time>2014-07-08T14:19:11Z</time>
      </trkpt>
      <trkpt lat="59.9744604" lon="17.7289915">
        <ele>23.6896</ele>
        <time>2014-07-08T14:19:12Z</time>
      </trkpt>
      <trkpt lat="59.9744558" lon="17.7288258">
        <ele>23.6896</ele>
        <time>2014-07-08T14:19:13Z</time>
      </trkpt>
      <trkpt lat="59.9744504" lon="17.7286582">
        <ele>23.6896</ele>
        <time>2014-07-08T14:19:14Z</time>
      </trkpt>
      <trkpt lat="59.9744449" lon="17.728492">
        <ele>23.6896</ele>
        <time>2014-07-08T14:19:15Z</time>
      </trkpt>
      <trkpt lat="59.9744399" lon="17.7283281">
        <ele>23.209</ele>
        <time>2014-07-08T14:19:16Z</time>
      </trkpt>
      <trkpt lat="59.9744355" lon="17.7281672">
        <ele>23.6896</ele>
        <time>2014-07-08T14:19:17Z</time>
      </trkpt>
      <trkpt lat="59.9744304" lon="17.7280094">
        <ele>23.6896</ele>
        <time>2014-07-08T14:19:18Z</time>
      </trkpt>
      <trkpt lat="59.9744272" lon="17.7278558">
        <ele>23.6896</ele>
        <time>2014-07-08T14:19:19Z</time>
      </trkpt>
      <trkpt lat="59.9744262" lon="17.7277074">
        <ele>23.6896</ele>
        <time>2014-07-08T14:19:20Z</time>
      </trkpt>
      <trkpt lat="59.9744246" lon="17.7275649">
        <ele>23.6896</ele>
        <time>2014-07-08T14:19:21Z</time>
      </trkpt>
      <trkpt lat="59.9744217" lon="17.7274275">
        <ele>23.6896</ele>
        <time>2014-07-08T14:19:22Z</time>
      </trkpt>
      <trkpt lat="59.9744191" lon="17.727296">
        <ele>24.1703</ele>
        <time>2014-07-08T14:19:23Z</time>
      </trkpt>
      <trkpt lat="59.9744168" lon="17.7271651">
        <ele>24.1703</ele>
        <time>2014-07-08T14:19:24Z</time>
      </trkpt>
      <trkpt lat="59.9744126" lon="17.7270329">
        <ele>24.651</ele>
        <time>2014-07-08T14:19:25Z</time>
      </trkpt>
      <trkpt lat="59.9744086" lon="17.7269008">
        <ele>24.651</ele>
        <time>2014-07-08T14:19:26Z</time>
      </trkpt>
      <trkpt lat="59.974406" lon="17.7267661">
        <ele>25.1317</ele>
        <time>2014-07-08T14:19:27Z</time>
      </trkpt>
      <trkpt lat="59.9744035" lon="17.7266294">
        <ele>25.1317</ele>
        <time>2014-07-08T14:19:28Z</time>
      </trkpt>
      <trkpt lat="59.9744017" lon="17.7264901">
        <ele>25.1317</ele>
        <time>2014-07-08T14:19:29Z</time>
      </trkpt>
      <trkpt lat="59.9743977" lon="17.7263481">
        <ele>25.1317</ele>
        <time>2014-07-08T14:19:30Z</time>
      </trkpt>
      <trkpt lat="59.9743919" lon="17.7262029">
        <ele>24.651</ele>
        <time>2014-07-08T14:19:31Z</time>
      </trkpt>
      <trkpt lat="59.9743839" lon="17.7260524">
        <ele>24.651</ele>
        <time>2014-07-08T14:19:32Z</time>
      </trkpt>
      <trkpt lat="59.9743734" lon="17.7259004">
        <ele>24.651</ele>
        <time>2014-07-08T14:19:33Z</time>
      </trkpt>
      <trkpt lat="59.9743614" lon="17.7257533">
        <ele>24.651</ele>
        <time>2014-07-08T14:19:34Z</time>
      </trkpt>
      <trkpt lat="59.9743506" lon="17.7256089">
        <ele>24.651</ele>
        <time>2014-07-08T14:19:35Z</time>
      </trkpt>
      <trkpt lat="59.9743391" lon="17.7254645">
        <ele>24.651</ele>
        <time>2014-07-08T14:19:36Z</time>
      </trkpt>
      <trkpt lat="59.9743273" lon="17.725322">
        <ele>24.651</ele>
        <time>2014-07-08T14:19:37Z</time>
      </trkpt>
      <trkpt lat="59.9743139" lon="17.7251843">
        <ele>24.651</ele>
        <time>2014-07-08T14:19:38Z</time>
      </trkpt>
      <trkpt lat="59.9742973" lon="17.7250505">
        <ele>24.1703</ele>
        <time>2014-07-08T14:19:39Z</time>
      </trkpt>
      <trkpt lat="59.9742792" lon="17.724918">
        <ele>24.1703</ele>
        <time>2014-07-08T14:19:40Z</time>
      </trkpt>
      <trkpt lat="59.9742595" lon="17.7247837">
        <ele>24.1703</ele>
        <time>2014-07-08T14:19:41Z</time>
      </trkpt>
      <trkpt lat="59.9742393" lon="17.7246444">
        <ele>24.1703</ele>
        <time>2014-07-08T14:19:42Z</time>
      </trkpt>
      <trkpt lat="59.9742191" lon="17.7245026">
        <ele>24.1703</ele>
        <time>2014-07-08T14:19:43Z</time>
      </trkpt>
      <trkpt lat="59.9741982" lon="17.7243584">
        <ele>24.1703</ele>
        <time>2014-07-08T14:19:44Z</time>
      </trkpt>
      <trkpt lat="59.9741761" lon="17.7242104">
        <ele>24.1703</ele>
        <time>2014-07-08T14:19:45Z</time>
      </trkpt>
      <trkpt lat="59.9741538" lon="17.7240594">
        <ele>24.1703</ele>
        <time>2014-07-08T14:19:46Z</time>
      </trkpt>
      <trkpt lat="59.9741315" lon="17.7239082">
        <ele>24.1703</ele>
        <time>2014-07-08T14:19:47Z</time>
      </trkpt>
      <trkpt lat="59.9741093" lon="17.7237591">
        <ele>24.1703</ele>
        <time>2014-07-08T14:19:48Z</time>
      </trkpt>
      <trkpt lat="59.9740875" lon="17.7236113">
        <ele>23.6896</ele>
        <time>2014-07-08T14:19:49Z</time>
      </trkpt>
      <trkpt lat="59.9740652" lon="17.7234654">
        <ele>23.6896</ele>
        <time>2014-07-08T14:19:50Z</time>
      </trkpt>
      <trkpt lat="59.9740419" lon="17.7233222">
        <ele>24.1703</ele>
        <time>2014-07-08T14:19:51Z</time>
      </trkpt>
      <trkpt lat="59.9740168" lon="17.723183">
        <ele>23.6896</ele>
        <time>2014-07-08T14:19:52Z</time>
      </trkpt>
      <trkpt lat="59.973989" lon="17.7230484">
        <ele>24.1703</ele>
        <time>2014-07-08T14:19:53Z</time>
      </trkpt>
      <trkpt lat="59.9739597" lon="17.7229169">
        <ele>24.1703</ele>
        <time>2014-07-08T14:19:54Z</time>
      </trkpt>
      <trkpt lat="59.9739305" lon="17.7227854">
        <ele>24.1703</ele>
        <time>2014-07-08T14:19:55Z</time>
      </trkpt>
      <trkpt lat="59.9739004" lon="17.7226532">
        <ele>23.6896</ele>
        <time>2014-07-08T14:19:56Z</time>
      </trkpt>
      <trkpt lat="59.9738664" lon="17.7225237">
        <ele>23.6896</ele>
        <time>2014-07-08T14:19:57Z</time>
      </trkpt>
      <trkpt lat="59.9738284" lon="17.7223983">
        <ele>23.6896</ele>
        <time>2014-07-08T14:19:58Z</time>
      </trkpt>
      <trkpt lat="59.97379" lon="17.7222771">
        <ele>24.1703</ele>
        <time>2014-07-08T14:19:59Z</time>
      </trkpt>
      <trkpt lat="59.9737523" lon="17.7221605">
        <ele>24.1703</ele>
        <time>2014-07-08T14:20:00Z</time>
      </trkpt>
      <trkpt lat="59.9737143" lon="17.7220476">
        <ele>24.1703</ele>
        <time>2014-07-08T14:20:01Z</time>
      </trkpt>
      <trkpt lat="59.9736752" lon="17.7219415">
        <ele>23.6896</ele>
        <time>2014-07-08T14:20:02Z</time>
      </trkpt>
      <trkpt lat="59.9736353" lon="17.7218424">
        <ele>23.6896</ele>
        <time>2014-07-08T14:20:03Z</time>
      </trkpt>
      <trkpt lat="59.9735958" lon="17.7217461">
        <ele>23.6896</ele>
        <time>2014-07-08T14:20:04Z</time>
      </trkpt>
      <trkpt lat="59.9735572" lon="17.7216487">
        <ele>24.1703</ele>
        <time>2014-07-08T14:20:05Z</time>
      </trkpt>
      <trkpt lat="59.9735172" lon="17.7215534">
        <ele>24.1703</ele>
        <time>2014-07-08T14:20:06Z</time>
      </trkpt>
      <trkpt lat="59.973474" lon="17.7214634">
        <ele>24.1703</ele>
        <time>2014-07-08T14:20:07Z</time>
      </trkpt>
      <trkpt lat="59.9734307" lon="17.7213722">
        <ele>24.1703</ele>
        <time>2014-07-08T14:20:08Z</time>
      </trkpt>
      <trkpt lat="59.9733877" lon="17.7212793">
        <ele>24.1703</ele>
        <time>2014-07-08T14:20:09Z</time>
      </trkpt>
      <trkpt lat="59.9733431" lon="17.721188">
        <ele>24.1703</ele>
        <time>2014-07-08T14:20:10Z</time>
      </trkpt>
      <trkpt lat="59.9732956" lon="17.7210996">
        <ele>24.1703</ele>
        <time>2014-07-08T14:20:11Z</time>
      </trkpt>
      <trkpt lat="59.9732455" lon="17.7210155">
        <ele>24.1703</ele>
        <time>2014-07-08T14:20:12Z</time>
      </trkpt>
      <trkpt lat="59.973193" lon="17.7209334">
        <ele>24.1703</ele>
        <time>2014-07-08T14:20:13Z</time>
      </trkpt>
      <trkpt lat="59.9731391" lon="17.7208521">
        <ele>24.1703</ele>
        <time>2014-07-08T14:20:14Z</time>
      </trkpt>
      <trkpt lat="59.9730851" lon="17.72077">
        <ele>24.1703</ele>
        <time>2014-07-08T14:20:15Z</time>
      </trkpt>
      <trkpt lat="59.9730307" lon="17.720689">
        <ele>24.651</ele>
        <time>2014-07-08T14:20:16Z</time>
      </trkpt>
      <trkpt lat="59.9729748" lon="17.7206122">
        <ele>24.651</ele>
        <time>2014-07-08T14:20:17Z</time>
      </trkpt>
      <trkpt lat="59.9729174" lon="17.7205389">
        <ele>24.651</ele>
        <time>2014-07-08T14:20:18Z</time>
      </trkpt>
      <trkpt lat="59.9728588" lon="17.720469">
        <ele>24.651</ele>
        <time>2014-07-08T14:20:19Z</time>
      </trkpt>
      <trkpt lat="59.9727992" lon="17.7204019">
        <ele>24.651</ele>
        <time>2014-07-08T14:20:20Z</time>
      </trkpt>
      <trkpt lat="59.9727386" lon="17.720337">
        <ele>24.651</ele>
        <time>2014-07-08T14:20:21Z</time>
      </trkpt>
      <trkpt lat="59.972677" lon="17.7202734">
        <ele>24.651</ele>
        <time>2014-07-08T14:20:22Z</time>
      </trkpt>
      <trkpt lat="59.9726137" lon="17.7202127">
        <ele>24.651</ele>
        <time>2014-07-08T14:20:23Z</time>
      </trkpt>
      <trkpt lat="59.9725489" lon="17.7201546">
        <ele>24.651</ele>
        <time>2014-07-08T14:20:24Z</time>
      </trkpt>
      <trkpt lat="59.9724841" lon="17.7200978">
        <ele>24.651</ele>
        <time>2014-07-08T14:20:25Z</time>
      </trkpt>
      <trkpt lat="59.9724207" lon="17.7200422">
        <ele>24.651</ele>
        <time>2014-07-08T14:20:26Z</time>
      </trkpt>
      <trkpt lat="59.972359" lon="17.7199879">
        <ele>25.1317</ele>
        <time>2014-07-08T14:20:27Z</time>
      </trkpt>
      <trkpt lat="59.9722993" lon="17.7199351">
        <ele>25.1317</ele>
        <time>2014-07-08T14:20:28Z</time>
      </trkpt>
      <trkpt lat="59.9722413" lon="17.7198839">
        <ele>25.1317</ele>
        <time>2014-07-08T14:20:29Z</time>
      </trkpt>
      <trkpt lat="59.9721841" lon="17.7198326">
        <ele>25.1317</ele>
        <time>2014-07-08T14:20:30Z</time>
      </trkpt>
      <trkpt lat="59.9721274" lon="17.7197783">
        <ele>25.1317</ele>
        <time>2014-07-08T14:20:31Z</time>
      </trkpt>
      <trkpt lat="59.9720704" lon="17.7197246">
        <ele>25.1317</ele>
        <time>2014-07-08T14:20:32Z</time>
      </trkpt>
      <trkpt lat="59.9720127" lon="17.7196725">
        <ele>25.1317</ele>
        <time>2014-07-08T14:20:33Z</time>
      </trkpt>
      <trkpt lat="59.9719543" lon="17.7196198">
        <ele>25.6123</ele>
        <time>2014-07-08T14:20:34Z</time>
      </trkpt>
      <trkpt lat="59.9718953" lon="17.7195669">
        <ele>25.6123</ele>
        <time>2014-07-08T14:20:35Z</time>
      </trkpt>
      <trkpt lat="59.9718355" lon="17.719514">
        <ele>25.6123</ele>
        <time>2014-07-08T14:20:36Z</time>
      </trkpt>
      <trkpt lat="59.9717747" lon="17.7194616">
        <ele>25.6123</ele>
        <time>2014-07-08T14:20:37Z</time>
      </trkpt>
      <trkpt lat="59.9717139" lon="17.7194082">
        <ele>25.6123</ele>
        <time>2014-07-08T14:20:38Z</time>
      </trkpt>
      <trkpt lat="59.9716539" lon="17.7193534">
        <ele>25.6123</ele>
        <time>2014-07-08T14:20:39Z</time>
      </trkpt>
      <trkpt lat="59.9715957" lon="17.7193009">
        <ele>25.6123</ele>
        <time>2014-07-08T14:20:40Z</time>
      </trkpt>
      <trkpt lat="59.971539" lon="17.7192517">
        <ele>25.6123</ele>
        <time>2014-07-08T14:20:41Z</time>
      </trkpt>
      <trkpt lat="59.9714845" lon="17.7192037">
        <ele>25.6123</ele>
        <time>2014-07-08T14:20:42Z</time>
      </trkpt>
      <trkpt lat="59.971431" lon="17.7191579">
        <ele>26.0929</ele>
        <time>2014-07-08T14:20:43Z</time>
      </trkpt>
      <trkpt lat="59.9713789" lon="17.7191135">
        <ele>26.0929</ele>
        <time>2014-07-08T14:20:44Z</time>
      </trkpt>
      <trkpt lat="59.971328" lon="17.7190676">
        <ele>26.0929</ele>
        <time>2014-07-08T14:20:45Z</time>
      </trkpt>
      <trkpt lat="59.9712768" lon="17.7190214">
        <ele>26.0929</ele>
        <time>2014-07-08T14:20:46Z</time>
      </trkpt>
      <trkpt lat="59.971226" lon="17.7189728">
        <ele>26.0929</ele>
        <time>2014-07-08T14:20:47Z</time>
      </trkpt>
      <trkpt lat="59.971174" lon="17.7189235">
        <ele>26.0929</ele>
        <time>2014-07-08T14:20:48Z</time>
      </trkpt>
      <trkpt lat="59.9711202" lon="17.7188763">
        <ele>26.0929</ele>
        <time>2014-07-08T14:20:49Z</time>
      </trkpt>
      <trkpt lat="59.9710654" lon="17.7188282">
        <ele>26.0929</ele>
        <time>2014-07-08T14:20:50Z</time>
      </trkpt>
      <trkpt lat="59.9710101" lon="17.718776">
        <ele>26.0929</ele>
        <time>2014-07-08T14:20:51Z</time>
      </trkpt>
      <trkpt lat="59.9709541" lon="17.7187228">
        <ele>26.0929</ele>
        <time>2014-07-08T14:20:52Z</time>
      </trkpt>
      <trkpt lat="59.9708969" lon="17.7186712">
        <ele>26.0929</ele>
        <time>2014-07-08T14:20:53Z</time>
      </trkpt>
      <trkpt lat="59.970838" lon="17.7186205">
        <ele>26.0929</ele>
        <time>2014-07-08T14:20:54Z</time>
      </trkpt>
      <trkpt lat="59.9707779" lon="17.7185692">
        <ele>26.0929</ele>
        <time>2014-07-08T14:20:55Z</time>
      </trkpt>
      <trkpt lat="59.9707172" lon="17.7185164">
        <ele>26.0929</ele>
        <time>2014-07-08T14:20:56Z</time>
      </trkpt>
      <trkpt lat="59.970656" lon="17.718461">
        <ele>26.0929</ele>
        <time>2014-07-08T14:20:57Z</time>
      </trkpt>
      <trkpt lat="59.9705944" lon="17.7184012">
        <ele>26.0929</ele>
        <time>2014-07-08T14:20:58Z</time>
      </trkpt>
      <trkpt lat="59.9705322" lon="17.7183423">
        <ele>26.0929</ele>
        <time>2014-07-08T14:20:59Z</time>
      </trkpt>
      <trkpt lat="59.9704708" lon="17.7182868">
        <ele>26.0929</ele>
        <time>2014-07-08T14:21:00Z</time>
      </trkpt>
      <trkpt lat="59.9704107" lon="17.7182325">
        <ele>26.0929</ele>
        <time>2014-07-08T14:21:01Z</time>
      </trkpt>
      <trkpt lat="59.9703515" lon="17.7181802">
        <ele>26.0929</ele>
        <time>2014-07-08T14:21:02Z</time>
      </trkpt>
      <trkpt lat="59.970292" lon="17.7181284">
        <ele>26.0929</ele>
        <time>2014-07-08T14:21:03Z</time>
      </trkpt>
      <trkpt lat="59.9702331" lon="17.7180753">
        <ele>26.5736</ele>
        <time>2014-07-08T14:21:04Z</time>
      </trkpt>
      <trkpt lat="59.9701746" lon="17.7180231">
        <ele>26.5736</ele>
        <time>2014-07-08T14:21:05Z</time>
      </trkpt>
      <trkpt lat="59.9701155" lon="17.7179715">
        <ele>26.5736</ele>
        <time>2014-07-08T14:21:06Z</time>
      </trkpt>
      <trkpt lat="59.9700588" lon="17.7179185">
        <ele>26.5736</ele>
        <time>2014-07-08T14:21:07Z</time>
      </trkpt>
      <trkpt lat="59.970004" lon="17.7178665">
        <ele>26.5736</ele>
        <time>2014-07-08T14:21:08Z</time>
      </trkpt>
      <trkpt lat="59.969949" lon="17.7178186">
        <ele>26.5736</ele>
        <time>2014-07-08T14:21:09Z</time>
      </trkpt>
      <trkpt lat="59.9698933" lon="17.7177717">
        <ele>26.5736</ele>
        <time>2014-07-08T14:21:10Z</time>
      </trkpt>
      <trkpt lat="59.9698378" lon="17.7177239">
        <ele>27.0543</ele>
        <time>2014-07-08T14:21:11Z</time>
      </trkpt>
      <trkpt lat="59.9697843" lon="17.717677">
        <ele>27.0543</ele>
        <time>2014-07-08T14:21:12Z</time>
      </trkpt>
      <trkpt lat="59.9697319" lon="17.7176342">
        <ele>27.0543</ele>
        <time>2014-07-08T14:21:13Z</time>
      </trkpt>
      <trkpt lat="59.9696807" lon="17.7175961">
        <ele>27.0543</ele>
        <time>2014-07-08T14:21:14Z</time>
      </trkpt>
      <trkpt lat="59.9696315" lon="17.7175609">
        <ele>27.0543</ele>
        <time>2014-07-08T14:21:15Z</time>
      </trkpt>
      <trkpt lat="59.9695845" lon="17.7175293">
        <ele>27.0543</ele>
        <time>2014-07-08T14:21:16Z</time>
      </trkpt>
      <trkpt lat="59.9695394" lon="17.717499">
        <ele>27.0543</ele>
        <time>2014-07-08T14:21:17Z</time>
      </trkpt>
      <trkpt lat="59.9694942" lon="17.717472">
        <ele>27.5349</ele>
        <time>2014-07-08T14:21:18Z</time>
      </trkpt>
      <trkpt lat="59.9694483" lon="17.7174472">
        <ele>27.5349</ele>
        <time>2014-07-08T14:21:19Z</time>
      </trkpt>
      <trkpt lat="59.9694019" lon="17.7174222">
        <ele>27.5349</ele>
        <time>2014-07-08T14:21:20Z</time>
      </trkpt>
      <trkpt lat="59.9693543" lon="17.7173975">
        <ele>27.5349</ele>
        <time>2014-07-08T14:21:21Z</time>
      </trkpt>
      <trkpt lat="59.9693061" lon="17.7173721">
        <ele>27.5349</ele>
        <time>2014-07-08T14:21:22Z</time>
      </trkpt>
      <trkpt lat="59.9692571" lon="17.717349">
        <ele>27.5349</ele>
        <time>2014-07-08T14:21:23Z</time>
      </trkpt>
      <trkpt lat="59.9692077" lon="17.7173291">
        <ele>27.5349</ele>
        <time>2014-07-08T14:21:24Z</time>
      </trkpt>
      <trkpt lat="59.9691587" lon="17.7173103">
        <ele>28.0155</ele>
        <time>2014-07-08T14:21:25Z</time>
      </trkpt>
      <trkpt lat="59.9691104" lon="17.7172897">
        <ele>28.0155</ele>
        <time>2014-07-08T14:21:26Z</time>
      </trkpt>
      <trkpt lat="59.9690608" lon="17.717269">
        <ele>28.0155</ele>
        <time>2014-07-08T14:21:27Z</time>
      </trkpt>
      <trkpt lat="59.96901" lon="17.7172498">
        <ele>28.0155</ele>
        <time>2014-07-08T14:21:28Z</time>
      </trkpt>
      <trkpt lat="59.9689591" lon="17.7172315">
        <ele>28.0155</ele>
        <time>2014-07-08T14:21:29Z</time>
      </trkpt>
      <trkpt lat="59.9689079" lon="17.7172124">
        <ele>28.0155</ele>
        <time>2014-07-08T14:21:30Z</time>
      </trkpt>
      <trkpt lat="59.9688567" lon="17.7171916">
        <ele>28.0155</ele>
        <time>2014-07-08T14:21:31Z</time>
      </trkpt>
      <trkpt lat="59.968806" lon="17.7171709">
        <ele>28.0155</ele>
        <time>2014-07-08T14:21:32Z</time>
      </trkpt>
      <trkpt lat="59.968756" lon="17.7171492">
        <ele>27.5349</ele>
        <time>2014-07-08T14:21:33Z</time>
      </trkpt>
      <trkpt lat="59.9687058" lon="17.7171275">
        <ele>27.5349</ele>
        <time>2014-07-08T14:21:34Z</time>
      </trkpt>
      <trkpt lat="59.9686551" lon="17.7171049">
        <ele>27.5349</ele>
        <time>2014-07-08T14:21:35Z</time>
      </trkpt>
      <trkpt lat="59.9686034" lon="17.7170813">
        <ele>27.5349</ele>
        <time>2014-07-08T14:21:36Z</time>
      </trkpt>
      <trkpt lat="59.968551" lon="17.717058">
        <ele>27.0543</ele>
        <time>2014-07-08T14:21:37Z</time>
      </trkpt>
      <trkpt lat="59.9684982" lon="17.7170334">
        <ele>27.0543</ele>
        <time>2014-07-08T14:21:38Z</time>
      </trkpt>
      <trkpt lat="59.9684449" lon="17.7170053">
        <ele>27.0543</ele>
        <time>2014-07-08T14:21:39Z</time>
      </trkpt>
      <trkpt lat="59.9683919" lon="17.7169681">
        <ele>26.5736</ele>
        <time>2014-07-08T14:21:40Z</time>
      </trkpt>
      <trkpt lat="59.9683381" lon="17.7169241">
        <ele>26.5736</ele>
        <time>2014-07-08T14:21:41Z</time>
      </trkpt>
      <trkpt lat="59.9682828" lon="17.7168766">
        <ele>26.0929</ele>
        <time>2014-07-08T14:21:42Z</time>
      </trkpt>
      <trkpt lat="59.9682267" lon="17.7168217">
        <ele>25.6123</ele>
        <time>2014-07-08T14:21:43Z</time>
      </trkpt>
      <trkpt lat="59.9681692" lon="17.7167592">
        <ele>25.1317</ele>
        <time>2014-07-08T14:21:44Z</time>
      </trkpt>
      <trkpt lat="59.9681112" lon="17.7166872">
        <ele>25.1317</ele>
        <time>2014-07-08T14:21:45Z</time>
      </trkpt>
      <trkpt lat="59.9680527" lon="17.7166045">
        <ele>24.651</ele>
        <time>2014-07-08T14:21:46Z</time>
      </trkpt>
      <trkpt lat="59.9679936" lon="17.716514">
        <ele>24.1703</ele>
        <time>2014-07-08T14:21:47Z</time>
      </trkpt>
      <trkpt lat="59.9679341" lon="17.7164143">
        <ele>23.6896</ele>
        <time>2014-07-08T14:21:48Z</time>
      </trkpt>
      <trkpt lat="59.967875" lon="17.7163032">
        <ele>22.7283</ele>
        <time>2014-07-08T14:21:49Z</time>
      </trkpt>
      <trkpt lat="59.9678183" lon="17.7161792">
        <ele>22.2476</ele>
        <time>2014-07-08T14:21:50Z</time>
      </trkpt>
      <trkpt lat="59.9677643" lon="17.7160429">
        <ele>21.767</ele>
        <time>2014-07-08T14:21:51Z</time>
      </trkpt>
      <trkpt lat="59.9677128" lon="17.7158971">
        <ele>21.2864</ele>
        <time>2014-07-08T14:21:52Z</time>
      </trkpt>
      <trkpt lat="59.9676652" lon="17.7157419">
        <ele>20.8057</ele>
        <time>2014-07-08T14:21:53Z</time>
      </trkpt>
      <trkpt lat="59.9676218" lon="17.7155806">
        <ele>20.325</ele>
        <time>2014-07-08T14:21:54Z</time>
      </trkpt>
      <trkpt lat="59.9675818" lon="17.7154182">
        <ele>19.8444</ele>
        <time>2014-07-08T14:21:55Z</time>
      </trkpt>
      <trkpt lat="59.9675521" lon="17.7152506">
        <ele>19.3638</ele>
        <time>2014-07-08T14:21:56Z</time>
      </trkpt>
      <trkpt lat="59.9675263" lon="17.7150876">
        <ele>19.3638</ele>
        <time>2014-07-08T14:21:57Z</time>
      </trkpt>
      <trkpt lat="59.9675037" lon="17.7149353">
        <ele>18.8831</ele>
        <time>2014-07-08T14:21:58Z</time>
      </trkpt>
      <trkpt lat="59.9674834" lon="17.7147797">
        <ele>18.8831</ele>
        <time>2014-07-08T14:21:59Z</time>
      </trkpt>
      <trkpt lat="59.9674631" lon="17.7146297">
        <ele>19.3638</ele>
        <time>2014-07-08T14:22:00Z</time>
      </trkpt>
      <trkpt lat="59.9674433" lon="17.7144881">
        <ele>19.8444</ele>
        <time>2014-07-08T14:22:01Z</time>
      </trkpt>
      <trkpt lat="59.9674257" lon="17.714352">
        <ele>20.325</ele>
        <time>2014-07-08T14:22:02Z</time>
      </trkpt>
      <trkpt lat="59.9674088" lon="17.7142241">
        <ele>20.8057</ele>
        <time>2014-07-08T14:22:03Z</time>
      </trkpt>
      <trkpt lat="59.9673915" lon="17.7141022">
        <ele>21.2864</ele>
        <time>2014-07-08T14:22:04Z</time>
      </trkpt>
      <trkpt lat="59.9673749" lon="17.7139832">
        <ele>21.767</ele>
        <time>2014-07-08T14:22:05Z</time>
      </trkpt>
      <trkpt lat="59.9673587" lon="17.7138667">
        <ele>21.767</ele>
        <time>2014-07-08T14:22:06Z</time>
      </trkpt>
      <trkpt lat="59.9673426" lon="17.7137536">
        <ele>22.7283</ele>
        <time>2014-07-08T14:22:07Z</time>
      </trkpt>
      <trkpt lat="59.967327" lon="17.7136429">
        <ele>22.7283</ele>
        <time>2014-07-08T14:22:08Z</time>
      </trkpt>
      <trkpt lat="59.9673119" lon="17.7135339">
        <ele>23.209</ele>
        <time>2014-07-08T14:22:09Z</time>
      </trkpt>
      <trkpt lat="59.967296" lon="17.7134335">
        <ele>23.209</ele>
        <time>2014-07-08T14:22:10Z</time>
      </trkpt>
      <trkpt lat="59.9672798" lon="17.7133441">
        <ele>23.6896</ele>
        <time>2014-07-08T14:22:11Z</time>
      </trkpt>
      <trkpt lat="59.9672638" lon="17.7132599">
        <ele>23.6896</ele>
        <time>2014-07-08T14:22:12Z</time>
      </trkpt>
      <trkpt lat="59.9672471" lon="17.7131734">
        <ele>24.1703</ele>
        <time>2014-07-08T14:22:13Z</time>
      </trkpt>
      <trkpt lat="59.9672273" lon="17.7130854">
        <ele>24.1703</ele>
        <time>2014-07-08T14:22:14Z</time>
      </trkpt>
      <trkpt lat="59.9672043" lon="17.7129959">
        <ele>24.651</ele>
        <time>2014-07-08T14:22:15Z</time>
      </trkpt>
      <trkpt lat="59.9671808" lon="17.7129001">
        <ele>24.651</ele>
        <time>2014-07-08T14:22:16Z</time>
      </trkpt>
      <trkpt lat="59.9671558" lon="17.7127988">
        <ele>24.651</ele>
        <time>2014-07-08T14:22:17Z</time>
      </trkpt>
      <trkpt lat="59.96713" lon="17.7126955">
        <ele>25.1317</ele>
        <time>2014-07-08T14:22:18Z</time>
      </trkpt>
      <trkpt lat="59.9671032" lon="17.712596">
        <ele>25.1317</ele>
        <time>2014-07-08T14:22:19Z</time>
      </trkpt>
      <trkpt lat="59.967073" lon="17.7125027">
        <ele>25.1317</ele>
        <time>2014-07-08T14:22:20Z</time>
      </trkpt>
      <trkpt lat="59.9670396" lon="17.712412">
        <ele>25.1317</ele>
        <time>2014-07-08T14:22:21Z</time>
      </trkpt>
      <trkpt lat="59.9670053" lon="17.712322">
        <ele>25.1317</ele>
        <time>2014-07-08T14:22:22Z</time>
      </trkpt>
      <trkpt lat="59.9669724" lon="17.7122313">
        <ele>25.6123</ele>
        <time>2014-07-08T14:22:23Z</time>
      </trkpt>
      <trkpt lat="59.9669405" lon="17.7121408">
        <ele>25.1317</ele>
        <time>2014-07-08T14:22:24Z</time>
      </trkpt>
      <trkpt lat="59.9669077" lon="17.7120531">
        <ele>25.6123</ele>
        <time>2014-07-08T14:22:25Z</time>
      </trkpt>
      <trkpt lat="59.9668736" lon="17.7119651">
        <ele>25.6123</ele>
        <time>2014-07-08T14:22:26Z</time>
      </trkpt>
      <trkpt lat="59.9668386" lon="17.7118729">
        <ele>25.1317</ele>
        <time>2014-07-08T14:22:27Z</time>
      </trkpt>
      <trkpt lat="59.9668027" lon="17.7117761">
        <ele>25.1317</ele>
        <time>2014-07-08T14:22:28Z</time>
      </trkpt>
      <trkpt lat="59.9667657" lon="17.7116759">
        <ele>25.1317</ele>
        <time>2014-07-08T14:22:29Z</time>
      </trkpt>
      <trkpt lat="59.9667272" lon="17.7115729">
        <ele>25.1317</ele>
        <time>2014-07-08T14:22:30Z</time>
      </trkpt>
      <trkpt lat="59.9666894" lon="17.7114688">
        <ele>25.1317</ele>
        <time>2014-07-08T14:22:31Z</time>
      </trkpt>
      <trkpt lat="59.9666538" lon="17.7113655">
        <ele>25.1317</ele>
        <time>2014-07-08T14:22:32Z</time>
      </trkpt>
      <trkpt lat="59.9666215" lon="17.7112606">
        <ele>25.1317</ele>
        <time>2014-07-08T14:22:33Z</time>
      </trkpt>
      <trkpt lat="59.9665914" lon="17.7111542">
        <ele>25.1317</ele>
        <time>2014-07-08T14:22:34Z</time>
      </trkpt>
      <trkpt lat="59.9665618" lon="17.7110482">
        <ele>25.1317</ele>
        <time>2014-07-08T14:22:35Z</time>
      </trkpt>
      <trkpt lat="59.9665317" lon="17.7109441">
        <ele>25.1317</ele>
        <time>2014-07-08T14:22:36Z</time>
      </trkpt>
      <trkpt lat="59.9665017" lon="17.7108398">
        <ele>24.651</ele>
        <time>2014-07-08T14:22:37Z</time>
      </trkpt>
      <trkpt lat="59.966471" lon="17.7107321">
        <ele>24.651</ele>
        <time>2014-07-08T14:22:38Z</time>
      </trkpt>
      <trkpt lat="59.9664389" lon="17.7106192">
        <ele>24.651</ele>
        <time>2014-07-08T14:22:39Z</time>
      </trkpt>
      <trkpt lat="59.9664059" lon="17.7105001">
        <ele>24.651</ele>
        <time>2014-07-08T14:22:40Z</time>
      </trkpt>
      <trkpt lat="59.9663708" lon="17.7103767">
        <ele>24.651</ele>
        <time>2014-07-08T14:22:41Z</time>
      </trkpt>
      <trkpt lat="59.9663342" lon="17.7102504">
        <ele>24.1703</ele>
        <time>2014-07-08T14:22:42Z</time>
      </trkpt>
      <trkpt lat="59.9662973" lon="17.710122">
        <ele>24.1703</ele>
        <time>2014-07-08T14:22:43Z</time>
      </trkpt>
      <trkpt lat="59.9662612" lon="17.7099925">
        <ele>24.1703</ele>
        <time>2014-07-08T14:22:44Z</time>
      </trkpt>
      <trkpt lat="59.9662249" lon="17.7098614">
        <ele>24.1703</ele>
        <time>2014-07-08T14:22:45Z</time>
      </trkpt>
      <trkpt lat="59.9661882" lon="17.7097298">
        <ele>24.1703</ele>
        <time>2014-07-08T14:22:46Z</time>
      </trkpt>
      <trkpt lat="59.9661519" lon="17.7095998">
        <ele>24.1703</ele>
        <time>2014-07-08T14:22:47Z</time>
      </trkpt>
      <trkpt lat="59.9661156" lon="17.7094719">
        <ele>24.1703</ele>
        <time>2014-07-08T14:22:48Z</time>
      </trkpt>
      <trkpt lat="59.9660792" lon="17.7093468">
        <ele>24.1703</ele>
        <time>2014-07-08T14:22:49Z</time>
      </trkpt>
      <trkpt lat="59.9660428" lon="17.7092241">
        <ele>24.1703</ele>
        <time>2014-07-08T14:22:50Z</time>
      </trkpt>
      <trkpt lat="59.966006" lon="17.7091034">
        <ele>24.1703</ele>
        <time>2014-07-08T14:22:51Z</time>
      </trkpt>
      <trkpt lat="59.9659691" lon="17.7089832">
        <ele>24.1703</ele>
        <time>2014-07-08T14:22:52Z</time>
      </trkpt>
      <trkpt lat="59.9659305" lon="17.7088633">
        <ele>24.1703</ele>
        <time>2014-07-08T14:22:53Z</time>
      </trkpt>
      <trkpt lat="59.9658898" lon="17.7087456">
        <ele>24.1703</ele>
        <time>2014-07-08T14:22:54Z</time>
      </trkpt>
      <trkpt lat="59.965847" lon="17.7086301">
        <ele>24.1703</ele>
        <time>2014-07-08T14:22:55Z</time>
      </trkpt>
      <trkpt lat="59.9658019" lon="17.7085156">
        <ele>24.1703</ele>
        <time>2014-07-08T14:22:56Z</time>
      </trkpt>
      <trkpt lat="59.9657535" lon="17.7084056">
        <ele>24.1703</ele>
        <time>2014-07-08T14:22:57Z</time>
      </trkpt>
      <trkpt lat="59.9657015" lon="17.7083047">
        <ele>24.1703</ele>
        <time>2014-07-08T14:22:58Z</time>
      </trkpt>
      <trkpt lat="59.965647" lon="17.708214">
        <ele>24.1703</ele>
        <time>2014-07-08T14:22:59Z</time>
      </trkpt>
      <trkpt lat="59.9655905" lon="17.7081329">
        <ele>24.1703</ele>
        <time>2014-07-08T14:23:00Z</time>
      </trkpt>
      <trkpt lat="59.965532" lon="17.7080616">
        <ele>24.1703</ele>
        <time>2014-07-08T14:23:01Z</time>
      </trkpt>
      <trkpt lat="59.9654728" lon="17.7079987">
        <ele>24.651</ele>
        <time>2014-07-08T14:23:02Z</time>
      </trkpt>
      <trkpt lat="59.9654127" lon="17.7079418">
        <ele>24.651</ele>
        <time>2014-07-08T14:23:03Z</time>
      </trkpt>
      <trkpt lat="59.9653529" lon="17.7078894">
        <ele>25.1317</ele>
        <time>2014-07-08T14:23:04Z</time>
      </trkpt>
      <trkpt lat="59.9652944" lon="17.7078394">
        <ele>25.1317</ele>
        <time>2014-07-08T14:23:05Z</time>
      </trkpt>
      <trkpt lat="59.9652373" lon="17.7077909">
        <ele>25.1317</ele>
        <time>2014-07-08T14:23:06Z</time>
      </trkpt>
      <trkpt lat="59.9651811" lon="17.7077453">
        <ele>25.6123</ele>
        <time>2014-07-08T14:23:07Z</time>
      </trkpt>
      <trkpt lat="59.965126" lon="17.7077018">
        <ele>25.6123</ele>
        <time>2014-07-08T14:23:08Z</time>
      </trkpt>
      <trkpt lat="59.9650721" lon="17.7076583">
        <ele>25.6123</ele>
        <time>2014-07-08T14:23:09Z</time>
      </trkpt>
      <trkpt lat="59.9650166" lon="17.7076137">
        <ele>25.6123</ele>
        <time>2014-07-08T14:23:10Z</time>
      </trkpt>
      <trkpt lat="59.9649577" lon="17.7075683">
        <ele>25.6123</ele>
        <time>2014-07-08T14:23:11Z</time>
      </trkpt>
      <trkpt lat="59.9648949" lon="17.7075251">
        <ele>26.0929</ele>
        <time>2014-07-08T14:23:12Z</time>
      </trkpt>
      <trkpt lat="59.9648308" lon="17.7074836">
        <ele>26.0929</ele>
        <time>2014-07-08T14:23:13Z</time>
      </trkpt>
      <trkpt lat="59.9647691" lon="17.7074435">
        <ele>26.0929</ele>
        <time>2014-07-08T14:23:14Z</time>
      </trkpt>
      <trkpt lat="59.96471" lon="17.7074032">
        <ele>26.5736</ele>
        <time>2014-07-08T14:23:15Z</time>
      </trkpt>
      <trkpt lat="59.9646525" lon="17.7073641">
        <ele>26.5736</ele>
        <time>2014-07-08T14:23:16Z</time>
      </trkpt>
      <trkpt lat="59.9645965" lon="17.7073279">
        <ele>26.5736</ele>
        <time>2014-07-08T14:23:17Z</time>
      </trkpt>
      <trkpt lat="59.9645398" lon="17.707292">
        <ele>26.5736</ele>
        <time>2014-07-08T14:23:18Z</time>
      </trkpt>
      <trkpt lat="59.9644799" lon="17.707261">
        <ele>26.5736</ele>
        <time>2014-07-08T14:23:19Z</time>
      </trkpt>
      <trkpt lat="59.9644183" lon="17.7072356">
        <ele>26.5736</ele>
        <time>2014-07-08T14:23:20Z</time>
      </trkpt>
      <trkpt lat="59.964355" lon="17.7072139">
        <ele>27.0543</ele>
        <time>2014-07-08T14:23:21Z</time>
      </trkpt>
      <trkpt lat="59.9642928" lon="17.7071916">
        <ele>27.0543</ele>
        <time>2014-07-08T14:23:22Z</time>
      </trkpt>
      <trkpt lat="59.9642312" lon="17.7071713">
        <ele>27.0543</ele>
        <time>2014-07-08T14:23:23Z</time>
      </trkpt>
      <trkpt lat="59.9641707" lon="17.7071549">
        <ele>27.0543</ele>
        <time>2014-07-08T14:23:24Z</time>
      </trkpt>
      <trkpt lat="59.9641106" lon="17.7071429">
        <ele>27.5349</ele>
        <time>2014-07-08T14:23:25Z</time>
      </trkpt>
      <trkpt lat="59.9640508" lon="17.7071325">
        <ele>27.5349</ele>
        <time>2014-07-08T14:23:26Z</time>
      </trkpt>
      <trkpt lat="59.9639906" lon="17.7071197">
        <ele>27.5349</ele>
        <time>2014-07-08T14:23:27Z</time>
      </trkpt>
      <trkpt lat="59.9639293" lon="17.7071085">
        <ele>27.5349</ele>
        <time>2014-07-08T14:23:28Z</time>
      </trkpt>
      <trkpt lat="59.9638661" lon="17.7071005">
        <ele>27.5349</ele>
        <time>2014-07-08T14:23:29Z</time>
      </trkpt>
      <trkpt lat="59.9638012" lon="17.7070922">
        <ele>27.5349</ele>
        <time>2014-07-08T14:23:30Z</time>
      </trkpt>
      <trkpt lat="59.9637362" lon="17.7070836">
        <ele>27.5349</ele>
        <time>2014-07-08T14:23:31Z</time>
      </trkpt>
      <trkpt lat="59.963672" lon="17.707078">
        <ele>27.5349</ele>
        <time>2014-07-08T14:23:32Z</time>
      </trkpt>
      <trkpt lat="59.9636092" lon="17.7070736">
        <ele>27.5349</ele>
        <time>2014-07-08T14:23:33Z</time>
      </trkpt>
      <trkpt lat="59.9635479" lon="17.7070684">
        <ele>27.5349</ele>
        <time>2014-07-08T14:23:34Z</time>
      </trkpt>
      <trkpt lat="59.9634879" lon="17.7070643">
        <ele>27.5349</ele>
        <time>2014-07-08T14:23:35Z</time>
      </trkpt>
      <trkpt lat="59.9634292" lon="17.70706">
        <ele>27.5349</ele>
        <time>2014-07-08T14:23:36Z</time>
      </trkpt>
      <trkpt lat="59.9633708" lon="17.7070568">
        <ele>27.5349</ele>
        <time>2014-07-08T14:23:37Z</time>
      </trkpt>
      <trkpt lat="59.9633118" lon="17.7070572">
        <ele>28.0155</ele>
        <time>2014-07-08T14:23:38Z</time>
      </trkpt>
      <trkpt lat="59.9632524" lon="17.7070596">
        <ele>28.0155</ele>
        <time>2014-07-08T14:23:39Z</time>
      </trkpt>
      <trkpt lat="59.9631932" lon="17.7070619">
        <ele>28.0155</ele>
        <time>2014-07-08T14:23:40Z</time>
      </trkpt>
      <trkpt lat="59.9631331" lon="17.7070635">
        <ele>28.0155</ele>
        <time>2014-07-08T14:23:41Z</time>
      </trkpt>
      <trkpt lat="59.9630724" lon="17.7070651">
        <ele>28.0155</ele>
        <time>2014-07-08T14:23:42Z</time>
      </trkpt>
      <trkpt lat="59.9630117" lon="17.7070669">
        <ele>28.4962</ele>
        <time>2014-07-08T14:23:43Z</time>
      </trkpt>
      <trkpt lat="59.9629509" lon="17.7070688">
        <ele>28.4962</ele>
        <time>2014-07-08T14:23:44Z</time>
      </trkpt>
      <trkpt lat="59.9628897" lon="17.7070704">
        <ele>28.4962</ele>
        <time>2014-07-08T14:23:45Z</time>
      </trkpt>
      <trkpt lat="59.9628286" lon="17.7070682">
        <ele>28.4962</ele>
        <time>2014-07-08T14:23:46Z</time>
      </trkpt>
      <trkpt lat="59.9627677" lon="17.7070604">
        <ele>28.4962</ele>
        <time>2014-07-08T14:23:47Z</time>
      </trkpt>
      <trkpt lat="59.9627063" lon="17.7070484">
        <ele>28.9769</ele>
        <time>2014-07-08T14:23:48Z</time>
      </trkpt>
      <trkpt lat="59.9626463" lon="17.7070306">
        <ele>28.9769</ele>
        <time>2014-07-08T14:23:49Z</time>
      </trkpt>
      <trkpt lat="59.9625849" lon="17.7070104">
        <ele>28.9769</ele>
        <time>2014-07-08T14:23:50Z</time>
      </trkpt>
      <trkpt lat="59.9625227" lon="17.7069904">
        <ele>28.9769</ele>
        <time>2014-07-08T14:23:51Z</time>
      </trkpt>
      <trkpt lat="59.9624603" lon="17.7069688">
        <ele>28.9769</ele>
        <time>2014-07-08T14:23:52Z</time>
      </trkpt>
      <trkpt lat="59.9623971" lon="17.7069446">
        <ele>28.9769</ele>
        <time>2014-07-08T14:23:53Z</time>
      </trkpt>
      <trkpt lat="59.9623338" lon="17.7069169">
        <ele>29.4575</ele>
        <time>2014-07-08T14:23:54Z</time>
      </trkpt>
      <trkpt lat="59.9622723" lon="17.7068858">
        <ele>29.4575</ele>
        <time>2014-07-08T14:23:55Z</time>
      </trkpt>
      <trkpt lat="59.9622131" lon="17.706855">
        <ele>29.4575</ele>
        <time>2014-07-08T14:23:56Z</time>
      </trkpt>
      <trkpt lat="59.9621547" lon="17.706826">
        <ele>29.4575</ele>
        <time>2014-07-08T14:23:57Z</time>
      </trkpt>
      <trkpt lat="59.9620982" lon="17.706793">
        <ele>29.4575</ele>
        <time>2014-07-08T14:23:58Z</time>
      </trkpt>
      <trkpt lat="59.9620438" lon="17.7067561">
        <ele>29.4575</ele>
        <time>2014-07-08T14:23:59Z</time>
      </trkpt>
      <trkpt lat="59.96199" lon="17.7067191">
        <ele>29.4575</ele>
        <time>2014-07-08T14:24:00Z</time>
      </trkpt>
      <trkpt lat="59.9619356" lon="17.7066808">
        <ele>29.4575</ele>
        <time>2014-07-08T14:24:01Z</time>
      </trkpt>
      <trkpt lat="59.9618805" lon="17.7066403">
        <ele>28.9769</ele>
        <time>2014-07-08T14:24:02Z</time>
      </trkpt>
      <trkpt lat="59.9618247" lon="17.7065954">
        <ele>28.9769</ele>
        <time>2014-07-08T14:24:03Z</time>
      </trkpt>
      <trkpt lat="59.9617692" lon="17.7065451">
        <ele>28.9769</ele>
        <time>2014-07-08T14:24:04Z</time>
      </trkpt>
      <trkpt lat="59.9617131" lon="17.7064891">
        <ele>28.9769</ele>
        <time>2014-07-08T14:24:05Z</time>
      </trkpt>
      <trkpt lat="59.9616573" lon="17.7064266">
        <ele>28.9769</ele>
        <time>2014-07-08T14:24:06Z</time>
      </trkpt>
      <trkpt lat="59.9616022" lon="17.706358">
        <ele>28.9769</ele>
        <time>2014-07-08T14:24:07Z</time>
      </trkpt>
      <trkpt lat="59.9615478" lon="17.7062814">
        <ele>28.9769</ele>
        <time>2014-07-08T14:24:08Z</time>
      </trkpt>
      <trkpt lat="59.9614943" lon="17.7061978">
        <ele>28.9769</ele>
        <time>2014-07-08T14:24:09Z</time>
      </trkpt>
      <trkpt lat="59.9614423" lon="17.7061075">
        <ele>28.4962</ele>
        <time>2014-07-08T14:24:10Z</time>
      </trkpt>
      <trkpt lat="59.9613906" lon="17.7060119">
        <ele>28.4962</ele>
        <time>2014-07-08T14:24:11Z</time>
      </trkpt>
      <trkpt lat="59.9613385" lon="17.7059126">
        <ele>28.4962</ele>
        <time>2014-07-08T14:24:12Z</time>
      </trkpt>
      <trkpt lat="59.9612849" lon="17.7058125">
        <ele>28.4962</ele>
        <time>2014-07-08T14:24:13Z</time>
      </trkpt>
      <trkpt lat="59.9612325" lon="17.7057131">
        <ele>28.4962</ele>
        <time>2014-07-08T14:24:14Z</time>
      </trkpt>
      <trkpt lat="59.9611808" lon="17.7056164">
        <ele>28.4962</ele>
        <time>2014-07-08T14:24:15Z</time>
      </trkpt>
      <trkpt lat="59.9611295" lon="17.7055239">
        <ele>28.4962</ele>
        <time>2014-07-08T14:24:16Z</time>
      </trkpt>
      <trkpt lat="59.961079" lon="17.7054354">
        <ele>28.4962</ele>
        <time>2014-07-08T14:24:17Z</time>
      </trkpt>
      <trkpt lat="59.9610285" lon="17.7053527">
        <ele>28.4962</ele>
        <time>2014-07-08T14:24:18Z</time>
      </trkpt>
      <trkpt lat="59.9609782" lon="17.7052744">
        <ele>28.4962</ele>
        <time>2014-07-08T14:24:19Z</time>
      </trkpt>
      <trkpt lat="59.9609276" lon="17.7051991">
        <ele>28.4962</ele>
        <time>2014-07-08T14:24:20Z</time>
      </trkpt>
      <trkpt lat="59.9608767" lon="17.7051252">
        <ele>28.4962</ele>
        <time>2014-07-08T14:24:21Z</time>
      </trkpt>
      <trkpt lat="59.9608248" lon="17.7050501">
        <ele>28.4962</ele>
        <time>2014-07-08T14:24:22Z</time>
      </trkpt>
      <trkpt lat="59.9607718" lon="17.7049754">
        <ele>28.4962</ele>
        <time>2014-07-08T14:24:23Z</time>
      </trkpt>
      <trkpt lat="59.960717" lon="17.7049026">
        <ele>28.4962</ele>
        <time>2014-07-08T14:24:24Z</time>
      </trkpt>
      <trkpt lat="59.9606594" lon="17.7048311">
        <ele>28.4962</ele>
        <time>2014-07-08T14:24:25Z</time>
      </trkpt>
      <trkpt lat="59.9606015" lon="17.7047611">
        <ele>28.4962</ele>
        <time>2014-07-08T14:24:26Z</time>
      </trkpt>
      <trkpt lat="59.9605457" lon="17.7046953">
        <ele>28.9769</ele>
        <time>2014-07-08T14:24:27Z</time>
      </trkpt>
      <trkpt lat="59.9604876" lon="17.704633">
        <ele>28.4962</ele>
        <time>2014-07-08T14:24:28Z</time>
      </trkpt>
      <trkpt lat="59.960431" lon="17.7045682">
        <ele>28.4962</ele>
        <time>2014-07-08T14:24:29Z</time>
      </trkpt>
      <trkpt lat="59.9603756" lon="17.7045034">
        <ele>28.4962</ele>
        <time>2014-07-08T14:24:30Z</time>
      </trkpt>
      <trkpt lat="59.960321" lon="17.7044398">
        <ele>28.4962</ele>
        <time>2014-07-08T14:24:31Z</time>
      </trkpt>
      <trkpt lat="59.9602675" lon="17.7043793">
        <ele>28.4962</ele>
        <time>2014-07-08T14:24:32Z</time>
      </trkpt>
      <trkpt lat="59.9602151" lon="17.704316">
        <ele>28.4962</ele>
        <time>2014-07-08T14:24:33Z</time>
      </trkpt>
      <trkpt lat="59.9601656" lon="17.7042418">
        <ele>28.4962</ele>
        <time>2014-07-08T14:24:34Z</time>
      </trkpt>
      <trkpt lat="59.9601199" lon="17.7041586">
        <ele>28.4962</ele>
        <time>2014-07-08T14:24:35Z</time>
      </trkpt>
      <trkpt lat="59.9600696" lon="17.7040524">
        <ele>28.4962</ele>
        <time>2014-07-08T14:24:36Z</time>
      </trkpt>
      <trkpt lat="59.9600225" lon="17.7039432">
        <ele>28.4962</ele>
        <time>2014-07-08T14:24:37Z</time>
      </trkpt>
      <trkpt lat="59.9599808" lon="17.7038312">
        <ele>28.4962</ele>
        <time>2014-07-08T14:24:38Z</time>
      </trkpt>
      <trkpt lat="59.9599427" lon="17.7037131">
        <ele>28.4962</ele>
        <time>2014-07-08T14:24:39Z</time>
      </trkpt>
      <trkpt lat="59.9599075" lon="17.703597">
        <ele>28.0155</ele>
        <time>2014-07-08T14:24:40Z</time>
      </trkpt>
      <trkpt lat="59.9598733" lon="17.7034877">
        <ele>28.0155</ele>
        <time>2014-07-08T14:24:41Z</time>
      </trkpt>
      <trkpt lat="59.9598422" lon="17.7033853">
        <ele>28.0155</ele>
        <time>2014-07-08T14:24:42Z</time>
      </trkpt>
      <trkpt lat="59.9598132" lon="17.7032863">
        <ele>28.0155</ele>
        <time>2014-07-08T14:24:43Z</time>
      </trkpt>
      <trkpt lat="59.9597845" lon="17.7031898">
        <ele>28.4962</ele>
        <time>2014-07-08T14:24:44Z</time>
      </trkpt>
      <trkpt lat="59.9597547" lon="17.7030955">
        <ele>28.4962</ele>
        <time>2014-07-08T14:24:45Z</time>
      </trkpt>
      <trkpt lat="59.9597231" lon="17.7030024">
        <ele>28.4962</ele>
        <time>2014-07-08T14:24:46Z</time>
      </trkpt>
      <trkpt lat="59.9596908" lon="17.7029076">
        <ele>28.0155</ele>
        <time>2014-07-08T14:24:47Z</time>
      </trkpt>
      <trkpt lat="59.9596595" lon="17.7028082">
        <ele>28.0155</ele>
        <time>2014-07-08T14:24:48Z</time>
      </trkpt>
      <trkpt lat="59.9596287" lon="17.7027065">
        <ele>28.0155</ele>
        <time>2014-07-08T14:24:49Z</time>
      </trkpt>
      <trkpt lat="59.9595976" lon="17.7026039">
        <ele>28.0155</ele>
        <time>2014-07-08T14:24:50Z</time>
      </trkpt>
      <trkpt lat="59.9595672" lon="17.7024989">
        <ele>28.0155</ele>
        <time>2014-07-08T14:24:51Z</time>
      </trkpt>
      <trkpt lat="59.9595375" lon="17.7023901">
        <ele>27.5349</ele>
        <time>2014-07-08T14:24:52Z</time>
      </trkpt>
      <trkpt lat="59.9595064" lon="17.7022766">
        <ele>27.5349</ele>
        <time>2014-07-08T14:24:53Z</time>
      </trkpt>
      <trkpt lat="59.9594722" lon="17.7021608">
        <ele>27.5349</ele>
        <time>2014-07-08T14:24:54Z</time>
      </trkpt>
      <trkpt lat="59.9594391" lon="17.7020425">
        <ele>27.5349</ele>
        <time>2014-07-08T14:24:55Z</time>
      </trkpt>
      <trkpt lat="59.959408" lon="17.7019227">
        <ele>27.0543</ele>
        <time>2014-07-08T14:24:56Z</time>
      </trkpt>
      <trkpt lat="59.9593791" lon="17.7018018">
        <ele>27.0543</ele>
        <time>2014-07-08T14:24:57Z</time>
      </trkpt>
      <trkpt lat="59.959351" lon="17.7016806">
        <ele>27.0543</ele>
        <time>2014-07-08T14:24:58Z</time>
      </trkpt>
      <trkpt lat="59.959323" lon="17.7015578">
        <ele>27.0543</ele>
        <time>2014-07-08T14:24:59Z</time>
      </trkpt>
      <trkpt lat="59.9592988" lon="17.7014302">
        <ele>27.0543</ele>
        <time>2014-07-08T14:25:00Z</time>
      </trkpt>
      <trkpt lat="59.9592781" lon="17.701298">
        <ele>26.5736</ele>
        <time>2014-07-08T14:25:01Z</time>
      </trkpt>
      <trkpt lat="59.9592589" lon="17.7011643">
        <ele>26.5736</ele>
        <time>2014-07-08T14:25:02Z</time>
      </trkpt>
      <trkpt lat="59.9592394" lon="17.7010298">
        <ele>26.0929</ele>
        <time>2014-07-08T14:25:03Z</time>
      </trkpt>
      <trkpt lat="59.9592218" lon="17.7008931">
        <ele>26.0929</ele>
        <time>2014-07-08T14:25:04Z</time>
      </trkpt>
      <trkpt lat="59.959207" lon="17.7007544">
        <ele>26.0929</ele>
        <time>2014-07-08T14:25:05Z</time>
      </trkpt>
      <trkpt lat="59.9591929" lon="17.7006149">
        <ele>26.0929</ele>
        <time>2014-07-08T14:25:06Z</time>
      </trkpt>
      <trkpt lat="59.9591792" lon="17.7004752">
        <ele>25.6123</ele>
        <time>2014-07-08T14:25:07Z</time>
      </trkpt>
      <trkpt lat="59.9591662" lon="17.7003358">
        <ele>25.6123</ele>
        <time>2014-07-08T14:25:08Z</time>
      </trkpt>
      <trkpt lat="59.9591527" lon="17.7001973">
        <ele>25.6123</ele>
        <time>2014-07-08T14:25:09Z</time>
      </trkpt>
      <trkpt lat="59.9591384" lon="17.7000615">
        <ele>25.6123</ele>
        <time>2014-07-08T14:25:10Z</time>
      </trkpt>
      <trkpt lat="59.9591243" lon="17.6999278">
        <ele>25.1317</ele>
        <time>2014-07-08T14:25:11Z</time>
      </trkpt>
      <trkpt lat="59.9591122" lon="17.6997921">
        <ele>25.1317</ele>
        <time>2014-07-08T14:25:12Z</time>
      </trkpt>
      <trkpt lat="59.9591019" lon="17.699654">
        <ele>25.1317</ele>
        <time>2014-07-08T14:25:13Z</time>
      </trkpt>
      <trkpt lat="59.9590922" lon="17.6995137">
        <ele>25.1317</ele>
        <time>2014-07-08T14:25:14Z</time>
      </trkpt>
      <trkpt lat="59.9590839" lon="17.6993712">
        <ele>25.6123</ele>
        <time>2014-07-08T14:25:15Z</time>
      </trkpt>
      <trkpt lat="59.9590762" lon="17.6992278">
        <ele>25.6123</ele>
        <time>2014-07-08T14:25:16Z</time>
      </trkpt>
      <trkpt lat="59.9590691" lon="17.6990848">
        <ele>25.6123</ele>
        <time>2014-07-08T14:25:17Z</time>
      </trkpt>
      <trkpt lat="59.959064" lon="17.6989428">
        <ele>25.6123</ele>
        <time>2014-07-08T14:25:18Z</time>
      </trkpt>
      <trkpt lat="59.959061" lon="17.6988018">
        <ele>25.6123</ele>
        <time>2014-07-08T14:25:19Z</time>
      </trkpt>
      <trkpt lat="59.9590589" lon="17.6986615">
        <ele>25.6123</ele>
        <time>2014-07-08T14:25:20Z</time>
      </trkpt>
      <trkpt lat="59.9590563" lon="17.6985235">
        <ele>25.6123</ele>
        <time>2014-07-08T14:25:21Z</time>
      </trkpt>
      <trkpt lat="59.9590523" lon="17.6983865">
        <ele>25.6123</ele>
        <time>2014-07-08T14:25:22Z</time>
      </trkpt>
      <trkpt lat="59.9590479" lon="17.6982487">
        <ele>25.6123</ele>
        <time>2014-07-08T14:25:23Z</time>
      </trkpt>
      <trkpt lat="59.9590415" lon="17.6981108">
        <ele>25.6123</ele>
        <time>2014-07-08T14:25:24Z</time>
      </trkpt>
      <trkpt lat="59.9590304" lon="17.697973">
        <ele>25.1317</ele>
        <time>2014-07-08T14:25:25Z</time>
      </trkpt>
      <trkpt lat="59.9590158" lon="17.6978338">
        <ele>25.1317</ele>
        <time>2014-07-08T14:25:26Z</time>
      </trkpt>
      <trkpt lat="59.9589994" lon="17.6976918">
        <ele>24.651</ele>
        <time>2014-07-08T14:25:27Z</time>
      </trkpt>
      <trkpt lat="59.9589808" lon="17.6975473">
        <ele>24.1703</ele>
        <time>2014-07-08T14:25:28Z</time>
      </trkpt>
      <trkpt lat="59.958959" lon="17.6973998">
        <ele>24.1703</ele>
        <time>2014-07-08T14:25:29Z</time>
      </trkpt>
      <trkpt lat="59.9589337" lon="17.6972516">
        <ele>23.6896</ele>
        <time>2014-07-08T14:25:30Z</time>
      </trkpt>
      <trkpt lat="59.9589052" lon="17.6971045">
        <ele>23.6896</ele>
        <time>2014-07-08T14:25:31Z</time>
      </trkpt>
      <trkpt lat="59.9588746" lon="17.6969574">
        <ele>23.209</ele>
        <time>2014-07-08T14:25:32Z</time>
      </trkpt>
      <trkpt lat="59.9588413" lon="17.6968111">
        <ele>23.209</ele>
        <time>2014-07-08T14:25:33Z</time>
      </trkpt>
      <trkpt lat="59.9588048" lon="17.6966667">
        <ele>23.209</ele>
        <time>2014-07-08T14:25:34Z</time>
      </trkpt>
      <trkpt lat="59.9587646" lon="17.6965237">
        <ele>23.209</ele>
        <time>2014-07-08T14:25:35Z</time>
      </trkpt>
      <trkpt lat="59.9587197" lon="17.6963832">
        <ele>23.209</ele>
        <time>2014-07-08T14:25:36Z</time>
      </trkpt>
      <trkpt lat="59.9586721" lon="17.6962466">
        <ele>23.209</ele>
        <time>2014-07-08T14:25:37Z</time>
      </trkpt>
      <trkpt lat="59.9586235" lon="17.6961149">
        <ele>22.7283</ele>
        <time>2014-07-08T14:25:38Z</time>
      </trkpt>
      <trkpt lat="59.9585736" lon="17.6959881">
        <ele>22.7283</ele>
        <time>2014-07-08T14:25:39Z</time>
      </trkpt>
      <trkpt lat="59.9584721" lon="17.6957444">
        <ele>22.7283</ele>
        <time>2014-07-08T14:25:40Z</time>
      </trkpt>
      <trkpt lat="59.9584229" lon="17.6956229">
        <ele>22.7283</ele>
        <time>2014-07-08T14:25:41Z</time>
      </trkpt>
      <trkpt lat="59.9583751" lon="17.6955017">
        <ele>22.7283</ele>
        <time>2014-07-08T14:25:42Z</time>
      </trkpt>
      <trkpt lat="59.9583281" lon="17.6953794">
        <ele>22.7283</ele>
        <time>2014-07-08T14:25:43Z</time>
      </trkpt>
      <trkpt lat="59.958281" lon="17.6952542">
        <ele>22.7283</ele>
        <time>2014-07-08T14:25:44Z</time>
      </trkpt>
      <trkpt lat="59.9582333" lon="17.695128">
        <ele>22.7283</ele>
        <time>2014-07-08T14:25:45Z</time>
      </trkpt>
      <trkpt lat="59.9581859" lon="17.6950026">
        <ele>22.7283</ele>
        <time>2014-07-08T14:25:46Z</time>
      </trkpt>
      <trkpt lat="59.9581399" lon="17.6948779">
        <ele>22.7283</ele>
        <time>2014-07-08T14:25:47Z</time>
      </trkpt>
      <trkpt lat="59.958095" lon="17.6947541">
        <ele>22.7283</ele>
        <time>2014-07-08T14:25:48Z</time>
      </trkpt>
      <trkpt lat="59.958051" lon="17.6946319">
        <ele>22.7283</ele>
        <time>2014-07-08T14:25:49Z</time>
      </trkpt>
      <trkpt lat="59.958008" lon="17.6945096">
        <ele>22.7283</ele>
        <time>2014-07-08T14:25:50Z</time>
      </trkpt>
      <trkpt lat="59.9579649" lon="17.6943864">
        <ele>22.7283</ele>
        <time>2014-07-08T14:25:51Z</time>
      </trkpt>
      <trkpt lat="59.9579213" lon="17.6942613">
        <ele>22.2476</ele>
        <time>2014-07-08T14:25:52Z</time>
      </trkpt>
      <trkpt lat="59.957877" lon="17.6941335">
        <ele>22.7283</ele>
        <time>2014-07-08T14:25:53Z</time>
      </trkpt>
      <trkpt lat="59.9578317" lon="17.6940041">
        <ele>22.7283</ele>
        <time>2014-07-08T14:25:54Z</time>
      </trkpt>
      <trkpt lat="59.9577851" lon="17.6938735">
        <ele>22.2476</ele>
        <time>2014-07-08T14:25:55Z</time>
      </trkpt>
      <trkpt lat="59.9577375" lon="17.693741">
        <ele>22.2476</ele>
        <time>2014-07-08T14:25:56Z</time>
      </trkpt>
      <trkpt lat="59.9576895" lon="17.6936077">
        <ele>22.2476</ele>
        <time>2014-07-08T14:25:57Z</time>
      </trkpt>
      <trkpt lat="59.957642" lon="17.6934753">
        <ele>22.2476</ele>
        <time>2014-07-08T14:25:58Z</time>
      </trkpt>
      <trkpt lat="59.9575895" lon="17.6933362">
        <ele>22.2476</ele>
        <time>2014-07-08T14:25:59Z</time>
      </trkpt>
      <trkpt lat="59.9575413" lon="17.6932049">
        <ele>22.2476</ele>
        <time>2014-07-08T14:26:00Z</time>
      </trkpt>
      <trkpt lat="59.9574946" lon="17.6930754">
        <ele>22.2476</ele>
        <time>2014-07-08T14:26:01Z</time>
      </trkpt>
      <trkpt lat="59.9574493" lon="17.6929484">
        <ele>22.2476</ele>
        <time>2014-07-08T14:26:02Z</time>
      </trkpt>
      <trkpt lat="59.957405" lon="17.6928235">
        <ele>22.2476</ele>
        <time>2014-07-08T14:26:03Z</time>
      </trkpt>
      <trkpt lat="59.9573625" lon="17.6926995">
        <ele>22.2476</ele>
        <time>2014-07-08T14:26:04Z</time>
      </trkpt>
      <trkpt lat="59.9573207" lon="17.6925771">
        <ele>22.2476</ele>
        <time>2014-07-08T14:26:05Z</time>
      </trkpt>
      <trkpt lat="59.9572807" lon="17.6924556">
        <ele>22.2476</ele>
        <time>2014-07-08T14:26:06Z</time>
      </trkpt>
      <trkpt lat="59.9572434" lon="17.6923334">
        <ele>22.2476</ele>
        <time>2014-07-08T14:26:07Z</time>
      </trkpt>
      <trkpt lat="59.9572069" lon="17.6922109">
        <ele>22.2476</ele>
        <time>2014-07-08T14:26:08Z</time>
      </trkpt>
      <trkpt lat="59.9571668" lon="17.6920907">
        <ele>22.2476</ele>
        <time>2014-07-08T14:26:09Z</time>
      </trkpt>
      <trkpt lat="59.9571267" lon="17.6919702">
        <ele>22.2476</ele>
        <time>2014-07-08T14:26:10Z</time>
      </trkpt>
      <trkpt lat="59.9570867" lon="17.69185">
        <ele>22.2476</ele>
        <time>2014-07-08T14:26:11Z</time>
      </trkpt>
      <trkpt lat="59.9570471" lon="17.6917306">
        <ele>22.2476</ele>
        <time>2014-07-08T14:26:12Z</time>
      </trkpt>
      <trkpt lat="59.9570073" lon="17.6916126">
        <ele>22.2476</ele>
        <time>2014-07-08T14:26:13Z</time>
      </trkpt>
      <trkpt lat="59.9569668" lon="17.6914958">
        <ele>22.2476</ele>
        <time>2014-07-08T14:26:14Z</time>
      </trkpt>
      <trkpt lat="59.9569268" lon="17.6913799">
        <ele>22.7283</ele>
        <time>2014-07-08T14:26:15Z</time>
      </trkpt>
      <trkpt lat="59.9568885" lon="17.6912659">
        <ele>22.7283</ele>
        <time>2014-07-08T14:26:16Z</time>
      </trkpt>
      <trkpt lat="59.9568511" lon="17.6911564">
        <ele>23.209</ele>
        <time>2014-07-08T14:26:17Z</time>
      </trkpt>
      <trkpt lat="59.9568148" lon="17.691052">
        <ele>23.6896</ele>
        <time>2014-07-08T14:26:18Z</time>
      </trkpt>
      <trkpt lat="59.9567798" lon="17.6909533">
        <ele>23.6896</ele>
        <time>2014-07-08T14:26:19Z</time>
      </trkpt>
      <trkpt lat="59.9567456" lon="17.6908582">
        <ele>24.1703</ele>
        <time>2014-07-08T14:26:20Z</time>
      </trkpt>
      <trkpt lat="59.9567117" lon="17.6907649">
        <ele>24.651</ele>
        <time>2014-07-08T14:26:21Z</time>
      </trkpt>
      <trkpt lat="59.9566767" lon="17.6906733">
        <ele>25.1317</ele>
        <time>2014-07-08T14:26:22Z</time>
      </trkpt>
      <trkpt lat="59.9566383" lon="17.6905868">
        <ele>25.1317</ele>
        <time>2014-07-08T14:26:23Z</time>
      </trkpt>
      <trkpt lat="59.956597" lon="17.6905056">
        <ele>25.6123</ele>
        <time>2014-07-08T14:26:24Z</time>
      </trkpt>
      <trkpt lat="59.9565545" lon="17.6904253">
        <ele>26.0929</ele>
        <time>2014-07-08T14:26:25Z</time>
      </trkpt>
      <trkpt lat="59.9565145" lon="17.6903403">
        <ele>26.0929</ele>
        <time>2014-07-08T14:26:26Z</time>
      </trkpt>
      <trkpt lat="59.9564777" lon="17.6902511">
        <ele>26.5736</ele>
        <time>2014-07-08T14:26:27Z</time>
      </trkpt>
      <trkpt lat="59.9564441" lon="17.6901554">
        <ele>26.5736</ele>
        <time>2014-07-08T14:26:28Z</time>
      </trkpt>
      <trkpt lat="59.9564129" lon="17.6900564">
        <ele>26.5736</ele>
        <time>2014-07-08T14:26:29Z</time>
      </trkpt>
      <trkpt lat="59.9563798" lon="17.6899572">
        <ele>26.5736</ele>
        <time>2014-07-08T14:26:30Z</time>
      </trkpt>
      <trkpt lat="59.9563458" lon="17.6898554">
        <ele>26.5736</ele>
        <time>2014-07-08T14:26:31Z</time>
      </trkpt>
      <trkpt lat="59.9563134" lon="17.6897495">
        <ele>26.0929</ele>
        <time>2014-07-08T14:26:32Z</time>
      </trkpt>
      <trkpt lat="59.956283" lon="17.6896404">
        <ele>26.0929</ele>
        <time>2014-07-08T14:26:33Z</time>
      </trkpt>
      <trkpt lat="59.9562524" lon="17.6895312">
        <ele>26.0929</ele>
        <time>2014-07-08T14:26:34Z</time>
      </trkpt>
      <trkpt lat="59.956218" lon="17.689426">
        <ele>25.6123</ele>
        <time>2014-07-08T14:26:35Z</time>
      </trkpt>
      <trkpt lat="59.9561797" lon="17.6893169">
        <ele>25.6123</ele>
        <time>2014-07-08T14:26:36Z</time>
      </trkpt>
      <trkpt lat="59.9561458" lon="17.6891971">
        <ele>25.6123</ele>
        <time>2014-07-08T14:26:37Z</time>
      </trkpt>
      <trkpt lat="59.9561181" lon="17.689073">
        <ele>25.6123</ele>
        <time>2014-07-08T14:26:38Z</time>
      </trkpt>
      <trkpt lat="59.9560939" lon="17.6889509">
        <ele>25.6123</ele>
        <time>2014-07-08T14:26:39Z</time>
      </trkpt>
      <trkpt lat="59.9560746" lon="17.6888307">
        <ele>25.6123</ele>
        <time>2014-07-08T14:26:40Z</time>
      </trkpt>
      <trkpt lat="59.956057" lon="17.6887069">
        <ele>25.1317</ele>
        <time>2014-07-08T14:26:41Z</time>
      </trkpt>
      <trkpt lat="59.9560374" lon="17.6885768">
        <ele>25.1317</ele>
        <time>2014-07-08T14:26:42Z</time>
      </trkpt>
      <trkpt lat="59.9560172" lon="17.6884417">
        <ele>25.1317</ele>
        <time>2014-07-08T14:26:43Z</time>
      </trkpt>
      <trkpt lat="59.955998" lon="17.6883044">
        <ele>24.651</ele>
        <time>2014-07-08T14:26:44Z</time>
      </trkpt>
      <trkpt lat="59.9559789" lon="17.6881662">
        <ele>24.651</ele>
        <time>2014-07-08T14:26:45Z</time>
      </trkpt>
      <trkpt lat="59.9559577" lon="17.6880274">
        <ele>24.651</ele>
        <time>2014-07-08T14:26:46Z</time>
      </trkpt>
      <trkpt lat="59.9559353" lon="17.6878878">
        <ele>24.651</ele>
        <time>2014-07-08T14:26:47Z</time>
      </trkpt>
      <trkpt lat="59.9559139" lon="17.6877465">
        <ele>24.651</ele>
        <time>2014-07-08T14:26:48Z</time>
      </trkpt>
      <trkpt lat="59.9558918" lon="17.6876041">
        <ele>24.651</ele>
        <time>2014-07-08T14:26:49Z</time>
      </trkpt>
      <trkpt lat="59.9558696" lon="17.6874683">
        <ele>24.651</ele>
        <time>2014-07-08T14:26:50Z</time>
      </trkpt>
      <trkpt lat="59.9558508" lon="17.6873333">
        <ele>24.651</ele>
        <time>2014-07-08T14:26:51Z</time>
      </trkpt>
      <trkpt lat="59.9558318" lon="17.6871967">
        <ele>24.651</ele>
        <time>2014-07-08T14:26:52Z</time>
      </trkpt>
      <trkpt lat="59.9558131" lon="17.6870617">
        <ele>24.651</ele>
        <time>2014-07-08T14:26:53Z</time>
      </trkpt>
      <trkpt lat="59.9557954" lon="17.6869255">
        <ele>24.651</ele>
        <time>2014-07-08T14:26:54Z</time>
      </trkpt>
      <trkpt lat="59.9557767" lon="17.6867845">
        <ele>24.651</ele>
        <time>2014-07-08T14:26:55Z</time>
      </trkpt>
      <trkpt lat="59.9557568" lon="17.6866411">
        <ele>24.651</ele>
        <time>2014-07-08T14:26:56Z</time>
      </trkpt>
      <trkpt lat="59.9557356" lon="17.6864964">
        <ele>24.651</ele>
        <time>2014-07-08T14:26:57Z</time>
      </trkpt>
      <trkpt lat="59.955714" lon="17.6863484">
        <ele>24.1703</ele>
        <time>2014-07-08T14:26:58Z</time>
      </trkpt>
      <trkpt lat="59.9556931" lon="17.686197">
        <ele>24.1703</ele>
        <time>2014-07-08T14:26:59Z</time>
      </trkpt>
      <trkpt lat="59.9556721" lon="17.6860428">
        <ele>24.1703</ele>
        <time>2014-07-08T14:27:00Z</time>
      </trkpt>
      <trkpt lat="59.9556505" lon="17.6858862">
        <ele>23.6896</ele>
        <time>2014-07-08T14:27:01Z</time>
      </trkpt>
      <trkpt lat="59.9556282" lon="17.685729">
        <ele>23.6896</ele>
        <time>2014-07-08T14:27:02Z</time>
      </trkpt>
      <trkpt lat="59.9556054" lon="17.6855736">
        <ele>23.6896</ele>
        <time>2014-07-08T14:27:03Z</time>
      </trkpt>
      <trkpt lat="59.9555837" lon="17.6854182">
        <ele>23.209</ele>
        <time>2014-07-08T14:27:04Z</time>
      </trkpt>
      <trkpt lat="59.9555627" lon="17.6852625">
        <ele>23.209</ele>
        <time>2014-07-08T14:27:05Z</time>
      </trkpt>
      <trkpt lat="59.9555406" lon="17.6851078">
        <ele>23.209</ele>
        <time>2014-07-08T14:27:06Z</time>
      </trkpt>
      <trkpt lat="59.9555167" lon="17.6849553">
        <ele>23.209</ele>
        <time>2014-07-08T14:27:07Z</time>
      </trkpt>
      <trkpt lat="59.9554915" lon="17.6848041">
        <ele>22.7283</ele>
        <time>2014-07-08T14:27:08Z</time>
      </trkpt>
      <trkpt lat="59.9554661" lon="17.6846536">
        <ele>22.7283</ele>
        <time>2014-07-08T14:27:09Z</time>
      </trkpt>
      <trkpt lat="59.9554401" lon="17.6845038">
        <ele>22.7283</ele>
        <time>2014-07-08T14:27:10Z</time>
      </trkpt>
      <trkpt lat="59.9554141" lon="17.6843549">
        <ele>22.7283</ele>
        <time>2014-07-08T14:27:11Z</time>
      </trkpt>
      <trkpt lat="59.955388" lon="17.6842044">
        <ele>22.2476</ele>
        <time>2014-07-08T14:27:12Z</time>
      </trkpt>
      <trkpt lat="59.9553604" lon="17.6840524">
        <ele>22.2476</ele>
        <time>2014-07-08T14:27:13Z</time>
      </trkpt>
      <trkpt lat="59.9553304" lon="17.6838988">
        <ele>22.2476</ele>
        <time>2014-07-08T14:27:14Z</time>
      </trkpt>
      <trkpt lat="59.9552984" lon="17.6837437">
        <ele>21.767</ele>
        <time>2014-07-08T14:27:15Z</time>
      </trkpt>
      <trkpt lat="59.9552647" lon="17.6835874">
        <ele>21.767</ele>
        <time>2014-07-08T14:27:16Z</time>
      </trkpt>
      <trkpt lat="59.9552289" lon="17.6834315">
        <ele>21.767</ele>
        <time>2014-07-08T14:27:17Z</time>
      </trkpt>
      <trkpt lat="59.955191" lon="17.6832787">
        <ele>21.767</ele>
        <time>2014-07-08T14:27:18Z</time>
      </trkpt>
      <trkpt lat="59.9551532" lon="17.6831284">
        <ele>21.767</ele>
        <time>2014-07-08T14:27:19Z</time>
      </trkpt>
      <trkpt lat="59.9551138" lon="17.6829804">
        <ele>21.767</ele>
        <time>2014-07-08T14:27:20Z</time>
      </trkpt>
      <trkpt lat="59.955073" lon="17.6828374">
        <ele>21.767</ele>
        <time>2014-07-08T14:27:21Z</time>
      </trkpt>
      <trkpt lat="59.9550319" lon="17.6826975">
        <ele>21.767</ele>
        <time>2014-07-08T14:27:22Z</time>
      </trkpt>
      <trkpt lat="59.9549916" lon="17.6825601">
        <ele>21.767</ele>
        <time>2014-07-08T14:27:23Z</time>
      </trkpt>
      <trkpt lat="59.9549517" lon="17.6824258">
        <ele>21.767</ele>
        <time>2014-07-08T14:27:24Z</time>
      </trkpt>
      <trkpt lat="59.9549116" lon="17.6822934">
        <ele>21.2864</ele>
        <time>2014-07-08T14:27:25Z</time>
      </trkpt>
      <trkpt lat="59.9548704" lon="17.6821655">
        <ele>21.2864</ele>
        <time>2014-07-08T14:27:26Z</time>
      </trkpt>
      <trkpt lat="59.9548256" lon="17.6820498">
        <ele>21.2864</ele>
        <time>2014-07-08T14:27:27Z</time>
      </trkpt>
      <trkpt lat="59.9547712" lon="17.6819546">
        <ele>21.2864</ele>
        <time>2014-07-08T14:27:28Z</time>
      </trkpt>
      <trkpt lat="59.9547092" lon="17.681874">
        <ele>21.2864</ele>
        <time>2014-07-08T14:27:29Z</time>
      </trkpt>
      <trkpt lat="59.9546521" lon="17.6817812">
        <ele>21.2864</ele>
        <time>2014-07-08T14:27:30Z</time>
      </trkpt>
      <trkpt lat="59.9546046" lon="17.6816675">
        <ele>21.2864</ele>
        <time>2014-07-08T14:27:31Z</time>
      </trkpt>
      <trkpt lat="59.9545616" lon="17.6815437">
        <ele>21.2864</ele>
        <time>2014-07-08T14:27:32Z</time>
      </trkpt>
      <trkpt lat="59.9545195" lon="17.6814155">
        <ele>21.2864</ele>
        <time>2014-07-08T14:27:33Z</time>
      </trkpt>
      <trkpt lat="59.9544767" lon="17.6812828">
        <ele>20.8057</ele>
        <time>2014-07-08T14:27:34Z</time>
      </trkpt>
      <trkpt lat="59.9544332" lon="17.681145">
        <ele>20.8057</ele>
        <time>2014-07-08T14:27:35Z</time>
      </trkpt>
      <trkpt lat="59.9543886" lon="17.6810032">
        <ele>20.8057</ele>
        <time>2014-07-08T14:27:36Z</time>
      </trkpt>
      <trkpt lat="59.9543435" lon="17.6808617">
        <ele>20.8057</ele>
        <time>2014-07-08T14:27:37Z</time>
      </trkpt>
      <trkpt lat="59.954298" lon="17.6807231">
        <ele>20.8057</ele>
        <time>2014-07-08T14:27:38Z</time>
      </trkpt>
      <trkpt lat="59.9542514" lon="17.6805885">
        <ele>20.8057</ele>
        <time>2014-07-08T14:27:39Z</time>
      </trkpt>
      <trkpt lat="59.954205" lon="17.6804575">
        <ele>20.8057</ele>
        <time>2014-07-08T14:27:40Z</time>
      </trkpt>
      <trkpt lat="59.9541594" lon="17.6803293">
        <ele>20.8057</ele>
        <time>2014-07-08T14:27:41Z</time>
      </trkpt>
      <trkpt lat="59.9541152" lon="17.6802027">
        <ele>20.8057</ele>
        <time>2014-07-08T14:27:42Z</time>
      </trkpt>
      <trkpt lat="59.9540727" lon="17.6800748">
        <ele>21.2864</ele>
        <time>2014-07-08T14:27:43Z</time>
      </trkpt>
      <trkpt lat="59.9540305" lon="17.6799463">
        <ele>21.2864</ele>
        <time>2014-07-08T14:27:44Z</time>
      </trkpt>
      <trkpt lat="59.9539875" lon="17.6798168">
        <ele>21.2864</ele>
        <time>2014-07-08T14:27:45Z</time>
      </trkpt>
      <trkpt lat="59.9539443" lon="17.6796858">
        <ele>21.2864</ele>
        <time>2014-07-08T14:27:46Z</time>
      </trkpt>
      <trkpt lat="59.9539018" lon="17.6795561">
        <ele>21.2864</ele>
        <time>2014-07-08T14:27:47Z</time>
      </trkpt>
      <trkpt lat="59.9538603" lon="17.6794292">
        <ele>21.2864</ele>
        <time>2014-07-08T14:27:48Z</time>
      </trkpt>
      <trkpt lat="59.9538193" lon="17.679303">
        <ele>21.2864</ele>
        <time>2014-07-08T14:27:49Z</time>
      </trkpt>
      <trkpt lat="59.9537778" lon="17.6791751">
        <ele>21.767</ele>
        <time>2014-07-08T14:27:50Z</time>
      </trkpt>
      <trkpt lat="59.9537352" lon="17.6790482">
        <ele>21.767</ele>
        <time>2014-07-08T14:27:51Z</time>
      </trkpt>
      <trkpt lat="59.9536919" lon="17.6789259">
        <ele>21.767</ele>
        <time>2014-07-08T14:27:52Z</time>
      </trkpt>
      <trkpt lat="59.9536489" lon="17.6788044">
        <ele>21.767</ele>
        <time>2014-07-08T14:27:53Z</time>
      </trkpt>
      <trkpt lat="59.9536072" lon="17.6786814">
        <ele>21.767</ele>
        <time>2014-07-08T14:27:54Z</time>
      </trkpt>
      <trkpt lat="59.9535665" lon="17.6785576">
        <ele>22.2476</ele>
        <time>2014-07-08T14:27:55Z</time>
      </trkpt>
      <trkpt lat="59.9535272" lon="17.6784363">
        <ele>22.2476</ele>
        <time>2014-07-08T14:27:56Z</time>
      </trkpt>
      <trkpt lat="59.9534897" lon="17.6783187">
        <ele>22.2476</ele>
        <time>2014-07-08T14:27:57Z</time>
      </trkpt>
      <trkpt lat="59.9534541" lon="17.6782043">
        <ele>22.2476</ele>
        <time>2014-07-08T14:27:58Z</time>
      </trkpt>
      <trkpt lat="59.9534188" lon="17.6780917">
        <ele>22.2476</ele>
        <time>2014-07-08T14:27:59Z</time>
      </trkpt>
      <trkpt lat="59.9533814" lon="17.67798">
        <ele>22.2476</ele>
        <time>2014-07-08T14:28:00Z</time>
      </trkpt>
      <trkpt lat="59.9533433" lon="17.6778681">
        <ele>22.2476</ele>
        <time>2014-07-08T14:28:01Z</time>
      </trkpt>
      <trkpt lat="59.953306" lon="17.6777562">
        <ele>22.2476</ele>
        <time>2014-07-08T14:28:02Z</time>
      </trkpt>
      <trkpt lat="59.9532671" lon="17.6776462">
        <ele>22.2476</ele>
        <time>2014-07-08T14:28:03Z</time>
      </trkpt>
      <trkpt lat="59.9532272" lon="17.6775374">
        <ele>22.2476</ele>
        <time>2014-07-08T14:28:04Z</time>
      </trkpt>
      <trkpt lat="59.9531871" lon="17.6774282">
        <ele>22.2476</ele>
        <time>2014-07-08T14:28:05Z</time>
      </trkpt>
      <trkpt lat="59.9531464" lon="17.6773184">
        <ele>22.7283</ele>
        <time>2014-07-08T14:28:06Z</time>
      </trkpt>
      <trkpt lat="59.9531051" lon="17.6772076">
        <ele>22.7283</ele>
        <time>2014-07-08T14:28:07Z</time>
      </trkpt>
      <trkpt lat="59.9530628" lon="17.6770952">
        <ele>22.7283</ele>
        <time>2014-07-08T14:28:08Z</time>
      </trkpt>
      <trkpt lat="59.9530186" lon="17.6769828">
        <ele>22.7283</ele>
        <time>2014-07-08T14:28:09Z</time>
      </trkpt>
      <trkpt lat="59.9529686" lon="17.6768574">
        <ele>22.7283</ele>
        <time>2014-07-08T14:28:10Z</time>
      </trkpt>
      <trkpt lat="59.9529209" lon="17.6767436">
        <ele>22.7283</ele>
        <time>2014-07-08T14:28:11Z</time>
      </trkpt>
      <trkpt lat="59.9528759" lon="17.6766347">
        <ele>22.7283</ele>
        <time>2014-07-08T14:28:12Z</time>
      </trkpt>
      <trkpt lat="59.9528303" lon="17.6765285">
        <ele>22.7283</ele>
        <time>2014-07-08T14:28:13Z</time>
      </trkpt>
      <trkpt lat="59.9527852" lon="17.6764224">
        <ele>23.209</ele>
        <time>2014-07-08T14:28:14Z</time>
      </trkpt>
      <trkpt lat="59.952744" lon="17.6763133">
        <ele>23.209</ele>
        <time>2014-07-08T14:28:15Z</time>
      </trkpt>
      <trkpt lat="59.952707" lon="17.6761996">
        <ele>23.209</ele>
        <time>2014-07-08T14:28:16Z</time>
      </trkpt>
      <trkpt lat="59.9526695" lon="17.676085">
        <ele>23.209</ele>
        <time>2014-07-08T14:28:17Z</time>
      </trkpt>
      <trkpt lat="59.95263" lon="17.6759733">
        <ele>23.6896</ele>
        <time>2014-07-08T14:28:18Z</time>
      </trkpt>
      <trkpt lat="59.95259" lon="17.6758661">
        <ele>23.6896</ele>
        <time>2014-07-08T14:28:19Z</time>
      </trkpt>
      <trkpt lat="59.9525498" lon="17.6757646">
        <ele>24.1703</ele>
        <time>2014-07-08T14:28:20Z</time>
      </trkpt>
      <trkpt lat="59.9525108" lon="17.6756676">
        <ele>24.1703</ele>
        <time>2014-07-08T14:28:21Z</time>
      </trkpt>
      <trkpt lat="59.9524728" lon="17.6755739">
        <ele>24.651</ele>
        <time>2014-07-08T14:28:22Z</time>
      </trkpt>
      <trkpt lat="59.9524373" lon="17.675483">
        <ele>25.1317</ele>
        <time>2014-07-08T14:28:23Z</time>
      </trkpt>
      <trkpt lat="59.9524057" lon="17.675392">
        <ele>25.1317</ele>
        <time>2014-07-08T14:28:24Z</time>
      </trkpt>
      <trkpt lat="59.9523754" lon="17.6753025">
        <ele>25.6123</ele>
        <time>2014-07-08T14:28:25Z</time>
      </trkpt>
      <trkpt lat="59.9523459" lon="17.6752142">
        <ele>25.6123</ele>
        <time>2014-07-08T14:28:26Z</time>
      </trkpt>
      <trkpt lat="59.9523184" lon="17.6751257">
        <ele>25.6123</ele>
        <time>2014-07-08T14:28:27Z</time>
      </trkpt>
      <trkpt lat="59.9522939" lon="17.675034">
        <ele>26.0929</ele>
        <time>2014-07-08T14:28:28Z</time>
      </trkpt>
      <trkpt lat="59.9522741" lon="17.674933">
        <ele>25.6123</ele>
        <time>2014-07-08T14:28:29Z</time>
      </trkpt>
      <trkpt lat="59.952256" lon="17.6748269">
        <ele>25.6123</ele>
        <time>2014-07-08T14:28:30Z</time>
      </trkpt>
      <trkpt lat="59.9522394" lon="17.6747094">
        <ele>25.1317</ele>
        <time>2014-07-08T14:28:31Z</time>
      </trkpt>
      <trkpt lat="59.9522216" lon="17.6745804">
        <ele>24.651</ele>
        <time>2014-07-08T14:28:32Z</time>
      </trkpt>
      <trkpt lat="59.9521995" lon="17.6744462">
        <ele>24.651</ele>
        <time>2014-07-08T14:28:33Z</time>
      </trkpt>
      <trkpt lat="59.9521756" lon="17.6743099">
        <ele>24.1703</ele>
        <time>2014-07-08T14:28:34Z</time>
      </trkpt>
      <trkpt lat="59.9521488" lon="17.6741774">
        <ele>24.1703</ele>
        <time>2014-07-08T14:28:35Z</time>
      </trkpt>
      <trkpt lat="59.9521213" lon="17.6740473">
        <ele>23.6896</ele>
        <time>2014-07-08T14:28:36Z</time>
      </trkpt>
      <trkpt lat="59.9520698" lon="17.6737823">
        <ele>23.209</ele>
        <time>2014-07-08T14:28:38Z</time>
      </trkpt>
      <trkpt lat="59.9520444" lon="17.6736452">
        <ele>22.7283</ele>
        <time>2014-07-08T14:28:39Z</time>
      </trkpt>
      <trkpt lat="59.9520181" lon="17.673509">
        <ele>22.7283</ele>
        <time>2014-07-08T14:28:40Z</time>
      </trkpt>
      <trkpt lat="59.9519933" lon="17.6733724">
        <ele>22.7283</ele>
        <time>2014-07-08T14:28:41Z</time>
      </trkpt>
      <trkpt lat="59.9519695" lon="17.673234">
        <ele>22.2476</ele>
        <time>2014-07-08T14:28:42Z</time>
      </trkpt>
      <trkpt lat="59.9519467" lon="17.6730936">
        <ele>22.2476</ele>
        <time>2014-07-08T14:28:43Z</time>
      </trkpt>
      <trkpt lat="59.9519273" lon="17.6729515">
        <ele>22.2476</ele>
        <time>2014-07-08T14:28:44Z</time>
      </trkpt>
      <trkpt lat="59.9519089" lon="17.672809">
        <ele>21.767</ele>
        <time>2014-07-08T14:28:45Z</time>
      </trkpt>
      <trkpt lat="59.9518901" lon="17.6726656">
        <ele>21.767</ele>
        <time>2014-07-08T14:28:46Z</time>
      </trkpt>
      <trkpt lat="59.951873" lon="17.6725174">
        <ele>21.767</ele>
        <time>2014-07-08T14:28:47Z</time>
      </trkpt>
      <trkpt lat="59.9518576" lon="17.6723621">
        <ele>21.2864</ele>
        <time>2014-07-08T14:28:48Z</time>
      </trkpt>
      <trkpt lat="59.9518434" lon="17.6722021">
        <ele>21.2864</ele>
        <time>2014-07-08T14:28:49Z</time>
      </trkpt>
      <trkpt lat="59.9518281" lon="17.6720418">
        <ele>21.2864</ele>
        <time>2014-07-08T14:28:50Z</time>
      </trkpt>
      <trkpt lat="59.9518172" lon="17.671883">
        <ele>21.2864</ele>
        <time>2014-07-08T14:28:51Z</time>
      </trkpt>
      <trkpt lat="59.9518126" lon="17.6717258">
        <ele>20.8057</ele>
        <time>2014-07-08T14:28:52Z</time>
      </trkpt>
      <trkpt lat="59.9518082" lon="17.6715681">
        <ele>20.8057</ele>
        <time>2014-07-08T14:28:53Z</time>
      </trkpt>
      <trkpt lat="59.9517992" lon="17.6714003">
        <ele>20.325</ele>
        <time>2014-07-08T14:28:54Z</time>
      </trkpt>
      <trkpt lat="59.9517782" lon="17.6712389">
        <ele>19.8444</ele>
        <time>2014-07-08T14:28:55Z</time>
      </trkpt>
      <trkpt lat="59.9517478" lon="17.6710749">
        <ele>19.3638</ele>
        <time>2014-07-08T14:28:56Z</time>
      </trkpt>
      <trkpt lat="59.9517236" lon="17.6708994">
        <ele>18.8831</ele>
        <time>2014-07-08T14:28:57Z</time>
      </trkpt>
      <trkpt lat="59.9517163" lon="17.670715">
        <ele>18.4023</ele>
        <time>2014-07-08T14:28:58Z</time>
      </trkpt>
      <trkpt lat="59.9517245" lon="17.6705294">
        <ele>18.4023</ele>
        <time>2014-07-08T14:28:59Z</time>
      </trkpt>
      <trkpt lat="59.951739" lon="17.6703464">
        <ele>17.9218</ele>
        <time>2014-07-08T14:29:00Z</time>
      </trkpt>
      <trkpt lat="59.9517555" lon="17.6701662">
        <ele>17.9218</ele>
        <time>2014-07-08T14:29:01Z</time>
      </trkpt>
      <trkpt lat="59.9517683" lon="17.669985">
        <ele>17.4412</ele>
        <time>2014-07-08T14:29:02Z</time>
      </trkpt>
      <trkpt lat="59.9517782" lon="17.6698042">
        <ele>17.4412</ele>
        <time>2014-07-08T14:29:03Z</time>
      </trkpt>
      <trkpt lat="59.9517856" lon="17.6696254">
        <ele>17.4412</ele>
        <time>2014-07-08T14:29:04Z</time>
      </trkpt>
      <trkpt lat="59.9517917" lon="17.6694526">
        <ele>17.4412</ele>
        <time>2014-07-08T14:29:05Z</time>
      </trkpt>
      <trkpt lat="59.9517976" lon="17.6692857">
        <ele>17.4412</ele>
        <time>2014-07-08T14:29:06Z</time>
      </trkpt>
      <trkpt lat="59.9518056" lon="17.6691236">
        <ele>17.4412</ele>
        <time>2014-07-08T14:29:07Z</time>
      </trkpt>
      <trkpt lat="59.9518134" lon="17.6689672">
        <ele>16.9604</ele>
        <time>2014-07-08T14:29:08Z</time>
      </trkpt>
      <trkpt lat="59.9518131" lon="17.6688115">
        <ele>16.9604</ele>
        <time>2014-07-08T14:29:09Z</time>
      </trkpt>
      <trkpt lat="59.9518001" lon="17.6686553">
        <ele>16.4797</ele>
        <time>2014-07-08T14:29:10Z</time>
      </trkpt>
      <trkpt lat="59.9517747" lon="17.6685019">
        <ele>16.4797</ele>
        <time>2014-07-08T14:29:11Z</time>
      </trkpt>
      <trkpt lat="59.9517404" lon="17.6683538">
        <ele>16.4797</ele>
        <time>2014-07-08T14:29:12Z</time>
      </trkpt>
      <trkpt lat="59.9516982" lon="17.6682163">
        <ele>16.4797</ele>
        <time>2014-07-08T14:29:13Z</time>
      </trkpt>
      <trkpt lat="59.951645" lon="17.6681032">
        <ele>16.4797</ele>
        <time>2014-07-08T14:29:14Z</time>
      </trkpt>
      <trkpt lat="59.9515779" lon="17.6680299">
        <ele>16.4797</ele>
        <time>2014-07-08T14:29:15Z</time>
      </trkpt>
      <trkpt lat="59.9515054" lon="17.6680021">
        <ele>16.9604</ele>
        <time>2014-07-08T14:29:16Z</time>
      </trkpt>
      <trkpt lat="59.9514329" lon="17.6680013">
        <ele>17.4412</ele>
        <time>2014-07-08T14:29:17Z</time>
      </trkpt>
      <trkpt lat="59.9513612" lon="17.6680092">
        <ele>17.4412</ele>
        <time>2014-07-08T14:29:18Z</time>
      </trkpt>
      <trkpt lat="59.9512888" lon="17.6680224">
        <ele>17.9218</ele>
        <time>2014-07-08T14:29:19Z</time>
      </trkpt>
      <trkpt lat="59.9512178" lon="17.6680435">
        <ele>18.4023</ele>
        <time>2014-07-08T14:29:20Z</time>
      </trkpt>
      <trkpt lat="59.9511478" lon="17.6680678">
        <ele>18.8831</ele>
        <time>2014-07-08T14:29:21Z</time>
      </trkpt>
      <trkpt lat="59.9510785" lon="17.6680907">
        <ele>18.8831</ele>
        <time>2014-07-08T14:29:22Z</time>
      </trkpt>
      <trkpt lat="59.9510103" lon="17.6681133">
        <ele>19.3638</ele>
        <time>2014-07-08T14:29:23Z</time>
      </trkpt>
      <trkpt lat="59.9509436" lon="17.6681365">
        <ele>19.8444</ele>
        <time>2014-07-08T14:29:24Z</time>
      </trkpt>
      <trkpt lat="59.9508775" lon="17.668158">
        <ele>20.325</ele>
        <time>2014-07-08T14:29:25Z</time>
      </trkpt>
      <trkpt lat="59.9508118" lon="17.6681762">
        <ele>20.325</ele>
        <time>2014-07-08T14:29:26Z</time>
      </trkpt>
      <trkpt lat="59.9507461" lon="17.6681923">
        <ele>20.8057</ele>
        <time>2014-07-08T14:29:27Z</time>
      </trkpt>
      <trkpt lat="59.9506802" lon="17.6682068">
        <ele>21.2864</ele>
        <time>2014-07-08T14:29:28Z</time>
      </trkpt>
      <trkpt lat="59.9506139" lon="17.6682177">
        <ele>21.2864</ele>
        <time>2014-07-08T14:29:29Z</time>
      </trkpt>
      <trkpt lat="59.9505475" lon="17.6682225">
        <ele>21.767</ele>
        <time>2014-07-08T14:29:30Z</time>
      </trkpt>
      <trkpt lat="59.9504807" lon="17.6682234">
        <ele>21.767</ele>
        <time>2014-07-08T14:29:31Z</time>
      </trkpt>
      <trkpt lat="59.9504135" lon="17.6682223">
        <ele>21.767</ele>
        <time>2014-07-08T14:29:32Z</time>
      </trkpt>
      <trkpt lat="59.9503459" lon="17.6682177">
        <ele>22.2476</ele>
        <time>2014-07-08T14:29:33Z</time>
      </trkpt>
      <trkpt lat="59.9502776" lon="17.6682098">
        <ele>22.2476</ele>
        <time>2014-07-08T14:29:34Z</time>
      </trkpt>
      <trkpt lat="59.9502088" lon="17.6681982">
        <ele>22.7283</ele>
        <time>2014-07-08T14:29:35Z</time>
      </trkpt>
      <trkpt lat="59.9501398" lon="17.6681828">
        <ele>22.7283</ele>
        <time>2014-07-08T14:29:36Z</time>
      </trkpt>
      <trkpt lat="59.9500701" lon="17.6681652">
        <ele>22.7283</ele>
        <time>2014-07-08T14:29:37Z</time>
      </trkpt>
      <trkpt lat="59.95" lon="17.6681445">
        <ele>22.7283</ele>
        <time>2014-07-08T14:29:38Z</time>
      </trkpt>
      <trkpt lat="59.9499291" lon="17.6681202">
        <ele>23.209</ele>
        <time>2014-07-08T14:29:39Z</time>
      </trkpt>
      <trkpt lat="59.9498579" lon="17.6680917">
        <ele>23.209</ele>
        <time>2014-07-08T14:29:40Z</time>
      </trkpt>
      <trkpt lat="59.9497875" lon="17.6680611">
        <ele>23.209</ele>
        <time>2014-07-08T14:29:41Z</time>
      </trkpt>
      <trkpt lat="59.949718" lon="17.6680294">
        <ele>23.209</ele>
        <time>2014-07-08T14:29:42Z</time>
      </trkpt>
      <trkpt lat="59.9496486" lon="17.6679957">
        <ele>23.209</ele>
        <time>2014-07-08T14:29:43Z</time>
      </trkpt>
      <trkpt lat="59.9495782" lon="17.6679617">
        <ele>23.209</ele>
        <time>2014-07-08T14:29:44Z</time>
      </trkpt>
      <trkpt lat="59.9495075" lon="17.667926">
        <ele>23.209</ele>
        <time>2014-07-08T14:29:45Z</time>
      </trkpt>
      <trkpt lat="59.9494374" lon="17.6678885">
        <ele>23.209</ele>
        <time>2014-07-08T14:29:46Z</time>
      </trkpt>
      <trkpt lat="59.9493675" lon="17.6678503">
        <ele>23.209</ele>
        <time>2014-07-08T14:29:47Z</time>
      </trkpt>
      <trkpt lat="59.9492981" lon="17.667812">
        <ele>23.6896</ele>
        <time>2014-07-08T14:29:48Z</time>
      </trkpt>
      <trkpt lat="59.9492295" lon="17.6677753">
        <ele>23.6896</ele>
        <time>2014-07-08T14:29:49Z</time>
      </trkpt>
      <trkpt lat="59.9491615" lon="17.6677394">
        <ele>23.6896</ele>
        <time>2014-07-08T14:29:50Z</time>
      </trkpt>
      <trkpt lat="59.9490939" lon="17.6677027">
        <ele>23.6896</ele>
        <time>2014-07-08T14:29:51Z</time>
      </trkpt>
      <trkpt lat="59.9490262" lon="17.6676648">
        <ele>23.6896</ele>
        <time>2014-07-08T14:29:52Z</time>
      </trkpt>
      <trkpt lat="59.9489583" lon="17.6676256">
        <ele>23.6896</ele>
        <time>2014-07-08T14:29:53Z</time>
      </trkpt>
      <trkpt lat="59.9488902" lon="17.6675877">
        <ele>23.6896</ele>
        <time>2014-07-08T14:29:54Z</time>
      </trkpt>
      <trkpt lat="59.9488221" lon="17.6675515">
        <ele>23.6896</ele>
        <time>2014-07-08T14:29:55Z</time>
      </trkpt>
      <trkpt lat="59.9487547" lon="17.6675157">
        <ele>23.6896</ele>
        <time>2014-07-08T14:29:56Z</time>
      </trkpt>
      <trkpt lat="59.9486874" lon="17.6674787">
        <ele>23.6896</ele>
        <time>2014-07-08T14:29:57Z</time>
      </trkpt>
      <trkpt lat="59.9486198" lon="17.6674398">
        <ele>23.6896</ele>
        <time>2014-07-08T14:29:58Z</time>
      </trkpt>
      <trkpt lat="59.9485515" lon="17.6674015">
        <ele>23.6896</ele>
        <time>2014-07-08T14:29:59Z</time>
      </trkpt>
      <trkpt lat="59.9484829" lon="17.6673628">
        <ele>23.6896</ele>
        <time>2014-07-08T14:30:00Z</time>
      </trkpt>
      <trkpt lat="59.9484143" lon="17.6673244">
        <ele>23.6896</ele>
        <time>2014-07-08T14:30:01Z</time>
      </trkpt>
      <trkpt lat="59.9483454" lon="17.667287">
        <ele>24.1703</ele>
        <time>2014-07-08T14:30:02Z</time>
      </trkpt>
      <trkpt lat="59.9482764" lon="17.6672489">
        <ele>24.1703</ele>
        <time>2014-07-08T14:30:03Z</time>
      </trkpt>
      <trkpt lat="59.948207" lon="17.6672093">
        <ele>24.1703</ele>
        <time>2014-07-08T14:30:04Z</time>
      </trkpt>
      <trkpt lat="59.9481367" lon="17.6671679">
        <ele>24.1703</ele>
        <time>2014-07-08T14:30:05Z</time>
      </trkpt>
      <trkpt lat="59.9480652" lon="17.667127">
        <ele>24.1703</ele>
        <time>2014-07-08T14:30:06Z</time>
      </trkpt>
      <trkpt lat="59.9479922" lon="17.6670876">
        <ele>24.1703</ele>
        <time>2014-07-08T14:30:07Z</time>
      </trkpt>
      <trkpt lat="59.9479187" lon="17.6670483">
        <ele>24.651</ele>
        <time>2014-07-08T14:30:08Z</time>
      </trkpt>
      <trkpt lat="59.9478456" lon="17.6670094">
        <ele>24.651</ele>
        <time>2014-07-08T14:30:09Z</time>
      </trkpt>
      <trkpt lat="59.9477736" lon="17.6669728">
        <ele>24.651</ele>
        <time>2014-07-08T14:30:10Z</time>
      </trkpt>
      <trkpt lat="59.9477026" lon="17.6669394">
        <ele>24.651</ele>
        <time>2014-07-08T14:30:11Z</time>
      </trkpt>
      <trkpt lat="59.9476323" lon="17.6669064">
        <ele>24.651</ele>
        <time>2014-07-08T14:30:12Z</time>
      </trkpt>
      <trkpt lat="59.9475628" lon="17.6668717">
        <ele>24.651</ele>
        <time>2014-07-08T14:30:13Z</time>
      </trkpt>
      <trkpt lat="59.9474933" lon="17.6668358">
        <ele>24.651</ele>
        <time>2014-07-08T14:30:14Z</time>
      </trkpt>
      <trkpt lat="59.9474234" lon="17.6668008">
        <ele>24.651</ele>
        <time>2014-07-08T14:30:15Z</time>
      </trkpt>
      <trkpt lat="59.947353" lon="17.6667667">
        <ele>25.1317</ele>
        <time>2014-07-08T14:30:16Z</time>
      </trkpt>
      <trkpt lat="59.9472823" lon="17.6667329">
        <ele>25.1317</ele>
        <time>2014-07-08T14:30:17Z</time>
      </trkpt>
      <trkpt lat="59.9472111" lon="17.6667007">
        <ele>25.1317</ele>
        <time>2014-07-08T14:30:18Z</time>
      </trkpt>
      <trkpt lat="59.9471401" lon="17.6666687">
        <ele>25.1317</ele>
        <time>2014-07-08T14:30:19Z</time>
      </trkpt>
      <trkpt lat="59.9470697" lon="17.6666361">
        <ele>25.1317</ele>
        <time>2014-07-08T14:30:20Z</time>
      </trkpt>
      <trkpt lat="59.947" lon="17.6666043">
        <ele>25.1317</ele>
        <time>2014-07-08T14:30:21Z</time>
      </trkpt>
      <trkpt lat="59.9469307" lon="17.6665728">
        <ele>25.1317</ele>
        <time>2014-07-08T14:30:22Z</time>
      </trkpt>
      <trkpt lat="59.9468612" lon="17.6665418">
        <ele>25.1317</ele>
        <time>2014-07-08T14:30:23Z</time>
      </trkpt>
      <trkpt lat="59.946791" lon="17.6665138">
        <ele>25.6123</ele>
        <time>2014-07-08T14:30:24Z</time>
      </trkpt>
      <trkpt lat="59.9467201" lon="17.6664965">
        <ele>25.6123</ele>
        <time>2014-07-08T14:30:25Z</time>
      </trkpt>
      <trkpt lat="59.9466486" lon="17.6664936">
        <ele>25.6123</ele>
        <time>2014-07-08T14:30:26Z</time>
      </trkpt>
      <trkpt lat="59.9465769" lon="17.6664947">
        <ele>25.6123</ele>
        <time>2014-07-08T14:30:27Z</time>
      </trkpt>
      <trkpt lat="59.946505" lon="17.6664853">
        <ele>25.6123</ele>
        <time>2014-07-08T14:30:28Z</time>
      </trkpt>
      <trkpt lat="59.9464336" lon="17.66646">
        <ele>25.6123</ele>
        <time>2014-07-08T14:30:29Z</time>
      </trkpt>
      <trkpt lat="59.946363" lon="17.6664226">
        <ele>25.6123</ele>
        <time>2014-07-08T14:30:30Z</time>
      </trkpt>
      <trkpt lat="59.9462935" lon="17.6663749">
        <ele>25.6123</ele>
        <time>2014-07-08T14:30:31Z</time>
      </trkpt>
      <trkpt lat="59.9462243" lon="17.6663253">
        <ele>25.6123</ele>
        <time>2014-07-08T14:30:32Z</time>
      </trkpt>
      <trkpt lat="59.9461536" lon="17.6662852">
        <ele>25.6123</ele>
        <time>2014-07-08T14:30:33Z</time>
      </trkpt>
      <trkpt lat="59.9460816" lon="17.6662543">
        <ele>25.6123</ele>
        <time>2014-07-08T14:30:34Z</time>
      </trkpt>
      <trkpt lat="59.9460103" lon="17.6662247">
        <ele>26.0929</ele>
        <time>2014-07-08T14:30:35Z</time>
      </trkpt>
      <trkpt lat="59.9459399" lon="17.6661969">
        <ele>26.0929</ele>
        <time>2014-07-08T14:30:36Z</time>
      </trkpt>
      <trkpt lat="59.9458689" lon="17.666172">
        <ele>26.0929</ele>
        <time>2014-07-08T14:30:37Z</time>
      </trkpt>
      <trkpt lat="59.945798" lon="17.6661466">
        <ele>26.0929</ele>
        <time>2014-07-08T14:30:38Z</time>
      </trkpt>
      <trkpt lat="59.9457275" lon="17.6661191">
        <ele>26.0929</ele>
        <time>2014-07-08T14:30:39Z</time>
      </trkpt>
      <trkpt lat="59.9456574" lon="17.6660915">
        <ele>26.0929</ele>
        <time>2014-07-08T14:30:40Z</time>
      </trkpt>
      <trkpt lat="59.9455871" lon="17.6660637">
        <ele>26.0929</ele>
        <time>2014-07-08T14:30:41Z</time>
      </trkpt>
      <trkpt lat="59.945517" lon="17.6660347">
        <ele>26.5736</ele>
        <time>2014-07-08T14:30:42Z</time>
      </trkpt>
      <trkpt lat="59.9454467" lon="17.6660063">
        <ele>26.5736</ele>
        <time>2014-07-08T14:30:43Z</time>
      </trkpt>
      <trkpt lat="59.9453762" lon="17.6659796">
        <ele>26.5736</ele>
        <time>2014-07-08T14:30:44Z</time>
      </trkpt>
      <trkpt lat="59.9453057" lon="17.6659523">
        <ele>26.5736</ele>
        <time>2014-07-08T14:30:45Z</time>
      </trkpt>
      <trkpt lat="59.9452349" lon="17.6659228">
        <ele>26.5736</ele>
        <time>2014-07-08T14:30:46Z</time>
      </trkpt>
      <trkpt lat="59.9451629" lon="17.6658933">
        <ele>26.5736</ele>
        <time>2014-07-08T14:30:47Z</time>
      </trkpt>
      <trkpt lat="59.9450902" lon="17.6658658">
        <ele>27.0543</ele>
        <time>2014-07-08T14:30:48Z</time>
      </trkpt>
      <trkpt lat="59.9450168" lon="17.6658384">
        <ele>27.0543</ele>
        <time>2014-07-08T14:30:49Z</time>
      </trkpt>
      <trkpt lat="59.9449432" lon="17.6658107">
        <ele>27.0543</ele>
        <time>2014-07-08T14:30:50Z</time>
      </trkpt>
      <trkpt lat="59.9448697" lon="17.6657829">
        <ele>27.0543</ele>
        <time>2014-07-08T14:30:51Z</time>
      </trkpt>
      <trkpt lat="59.9447973" lon="17.6657549">
        <ele>27.0543</ele>
        <time>2014-07-08T14:30:52Z</time>
      </trkpt>
      <trkpt lat="59.944725" lon="17.6657269">
        <ele>27.0543</ele>
        <time>2014-07-08T14:30:53Z</time>
      </trkpt>
      <trkpt lat="59.9446521" lon="17.665699">
        <ele>27.5349</ele>
        <time>2014-07-08T14:30:54Z</time>
      </trkpt>
      <trkpt lat="59.9445786" lon="17.6656708">
        <ele>27.5349</ele>
        <time>2014-07-08T14:30:55Z</time>
      </trkpt>
      <trkpt lat="59.9445048" lon="17.665643">
        <ele>27.5349</ele>
        <time>2014-07-08T14:30:56Z</time>
      </trkpt>
      <trkpt lat="59.9444307" lon="17.6656151">
        <ele>27.5349</ele>
        <time>2014-07-08T14:30:57Z</time>
      </trkpt>
      <trkpt lat="59.9443568" lon="17.6655867">
        <ele>27.5349</ele>
        <time>2014-07-08T14:30:58Z</time>
      </trkpt>
      <trkpt lat="59.9442838" lon="17.665558">
        <ele>28.0155</ele>
        <time>2014-07-08T14:30:59Z</time>
      </trkpt>
      <trkpt lat="59.9442116" lon="17.665529">
        <ele>28.0155</ele>
        <time>2014-07-08T14:31:00Z</time>
      </trkpt>
      <trkpt lat="59.9441394" lon="17.665498">
        <ele>28.0155</ele>
        <time>2014-07-08T14:31:01Z</time>
      </trkpt>
      <trkpt lat="59.9440678" lon="17.6654637">
        <ele>28.0155</ele>
        <time>2014-07-08T14:31:02Z</time>
      </trkpt>
      <trkpt lat="59.9439963" lon="17.6654274">
        <ele>28.4962</ele>
        <time>2014-07-08T14:31:03Z</time>
      </trkpt>
      <trkpt lat="59.9439247" lon="17.6653895">
        <ele>28.4962</ele>
        <time>2014-07-08T14:31:04Z</time>
      </trkpt>
      <trkpt lat="59.9437829" lon="17.6653073">
        <ele>28.9769</ele>
        <time>2014-07-08T14:31:06Z</time>
      </trkpt>
      <trkpt lat="59.9437129" lon="17.6652628">
        <ele>28.9769</ele>
        <time>2014-07-08T14:31:07Z</time>
      </trkpt>
      <trkpt lat="59.9436435" lon="17.6652165">
        <ele>28.9769</ele>
        <time>2014-07-08T14:31:08Z</time>
      </trkpt>
      <trkpt lat="59.9435749" lon="17.6651686">
        <ele>29.4575</ele>
        <time>2014-07-08T14:31:09Z</time>
      </trkpt>
      <trkpt lat="59.9435083" lon="17.6651199">
        <ele>29.4575</ele>
        <time>2014-07-08T14:31:10Z</time>
      </trkpt>
      <trkpt lat="59.9434446" lon="17.6650722">
        <ele>29.4575</ele>
        <time>2014-07-08T14:31:11Z</time>
      </trkpt>
      <trkpt lat="59.9433807" lon="17.6650264">
        <ele>29.4575</ele>
        <time>2014-07-08T14:31:12Z</time>
      </trkpt>
      <trkpt lat="59.9433167" lon="17.6649768">
        <ele>29.4575</ele>
        <time>2014-07-08T14:31:13Z</time>
      </trkpt>
      <trkpt lat="59.943253" lon="17.6649235">
        <ele>29.9381</ele>
        <time>2014-07-08T14:31:14Z</time>
      </trkpt>
      <trkpt lat="59.9431893" lon="17.6648689">
        <ele>29.9381</ele>
        <time>2014-07-08T14:31:15Z</time>
      </trkpt>
      <trkpt lat="59.943126" lon="17.6648109">
        <ele>29.9381</ele>
        <time>2014-07-08T14:31:16Z</time>
      </trkpt>
      <trkpt lat="59.9430633" lon="17.6647511">
        <ele>29.9381</ele>
        <time>2014-07-08T14:31:17Z</time>
      </trkpt>
      <trkpt lat="59.9430007" lon="17.664692">
        <ele>30.4188</ele>
        <time>2014-07-08T14:31:18Z</time>
      </trkpt>
      <trkpt lat="59.9429386" lon="17.6646324">
        <ele>30.4188</ele>
        <time>2014-07-08T14:31:19Z</time>
      </trkpt>
      <trkpt lat="59.9428779" lon="17.6645721">
        <ele>30.4188</ele>
        <time>2014-07-08T14:31:20Z</time>
      </trkpt>
      <trkpt lat="59.9428182" lon="17.6645096">
        <ele>30.8995</ele>
        <time>2014-07-08T14:31:21Z</time>
      </trkpt>
      <trkpt lat="59.9427596" lon="17.6644449">
        <ele>30.8995</ele>
        <time>2014-07-08T14:31:22Z</time>
      </trkpt>
      <trkpt lat="59.9427013" lon="17.6643796">
        <ele>30.8995</ele>
        <time>2014-07-08T14:31:23Z</time>
      </trkpt>
      <trkpt lat="59.9426431" lon="17.6643144">
        <ele>31.3801</ele>
        <time>2014-07-08T14:31:24Z</time>
      </trkpt>
      <trkpt lat="59.9425856" lon="17.6642469">
        <ele>31.3801</ele>
        <time>2014-07-08T14:31:25Z</time>
      </trkpt>
      <trkpt lat="59.9425289" lon="17.6641774">
        <ele>31.3801</ele>
        <time>2014-07-08T14:31:26Z</time>
      </trkpt>
      <trkpt lat="59.9424728" lon="17.664109">
        <ele>31.8607</ele>
        <time>2014-07-08T14:31:27Z</time>
      </trkpt>
      <trkpt lat="59.9424174" lon="17.6640398">
        <ele>31.8607</ele>
        <time>2014-07-08T14:31:28Z</time>
      </trkpt>
      <trkpt lat="59.9423628" lon="17.6639678">
        <ele>31.8607</ele>
        <time>2014-07-08T14:31:29Z</time>
      </trkpt>
      <trkpt lat="59.9423081" lon="17.6638947">
        <ele>31.8607</ele>
        <time>2014-07-08T14:31:30Z</time>
      </trkpt>
      <trkpt lat="59.9422536" lon="17.6638212">
        <ele>32.3416</ele>
        <time>2014-07-08T14:31:31Z</time>
      </trkpt>
      <trkpt lat="59.9421993" lon="17.6637456">
        <ele>32.3416</ele>
        <time>2014-07-08T14:31:32Z</time>
      </trkpt>
      <trkpt lat="59.942146" lon="17.6636664">
        <ele>32.3416</ele>
        <time>2014-07-08T14:31:33Z</time>
      </trkpt>
      <trkpt lat="59.942093" lon="17.663584">
        <ele>32.3416</ele>
        <time>2014-07-08T14:31:34Z</time>
      </trkpt>
      <trkpt lat="59.9420394" lon="17.6634998">
        <ele>32.3416</ele>
        <time>2014-07-08T14:31:35Z</time>
      </trkpt>
      <trkpt lat="59.9419853" lon="17.6634152">
        <ele>32.3416</ele>
        <time>2014-07-08T14:31:36Z</time>
      </trkpt>
      <trkpt lat="59.941931" lon="17.6633296">
        <ele>32.3416</ele>
        <time>2014-07-08T14:31:37Z</time>
      </trkpt>
      <trkpt lat="59.9418771" lon="17.663241">
        <ele>32.3416</ele>
        <time>2014-07-08T14:31:38Z</time>
      </trkpt>
      <trkpt lat="59.9418232" lon="17.6631509">
        <ele>32.3416</ele>
        <time>2014-07-08T14:31:39Z</time>
      </trkpt>
      <trkpt lat="59.9417698" lon="17.6630611">
        <ele>32.3416</ele>
        <time>2014-07-08T14:31:40Z</time>
      </trkpt>
      <trkpt lat="59.9417168" lon="17.6629717">
        <ele>32.3416</ele>
        <time>2014-07-08T14:31:41Z</time>
      </trkpt>
      <trkpt lat="59.9416643" lon="17.6628815">
        <ele>32.3416</ele>
        <time>2014-07-08T14:31:42Z</time>
      </trkpt>
      <trkpt lat="59.9416135" lon="17.6627878">
        <ele>31.8607</ele>
        <time>2014-07-08T14:31:43Z</time>
      </trkpt>
      <trkpt lat="59.9415615" lon="17.662694">
        <ele>31.8607</ele>
        <time>2014-07-08T14:31:44Z</time>
      </trkpt>
      <trkpt lat="59.9415057" lon="17.6626047">
        <ele>31.8607</ele>
        <time>2014-07-08T14:31:45Z</time>
      </trkpt>
      <trkpt lat="59.9414462" lon="17.6625201">
        <ele>31.8607</ele>
        <time>2014-07-08T14:31:46Z</time>
      </trkpt>
      <trkpt lat="59.9413824" lon="17.6624433">
        <ele>31.8607</ele>
        <time>2014-07-08T14:31:47Z</time>
      </trkpt>
      <trkpt lat="59.9413152" lon="17.6623734">
        <ele>31.8607</ele>
        <time>2014-07-08T14:31:48Z</time>
      </trkpt>
      <trkpt lat="59.9412468" lon="17.6623091">
        <ele>31.3801</ele>
        <time>2014-07-08T14:31:49Z</time>
      </trkpt>
      <trkpt lat="59.9411776" lon="17.6622538">
        <ele>31.3801</ele>
        <time>2014-07-08T14:31:50Z</time>
      </trkpt>
      <trkpt lat="59.9411074" lon="17.662207">
        <ele>31.3801</ele>
        <time>2014-07-08T14:31:51Z</time>
      </trkpt>
      <trkpt lat="59.9410367" lon="17.662166">
        <ele>31.3801</ele>
        <time>2014-07-08T14:31:52Z</time>
      </trkpt>
      <trkpt lat="59.9409645" lon="17.6621325">
        <ele>31.3801</ele>
        <time>2014-07-08T14:31:53Z</time>
      </trkpt>
      <trkpt lat="59.9408906" lon="17.6621092">
        <ele>31.3801</ele>
        <time>2014-07-08T14:31:54Z</time>
      </trkpt>
      <trkpt lat="59.9408157" lon="17.6620951">
        <ele>31.3801</ele>
        <time>2014-07-08T14:31:55Z</time>
      </trkpt>
      <trkpt lat="59.940741" lon="17.6620829">
        <ele>30.8995</ele>
        <time>2014-07-08T14:31:56Z</time>
      </trkpt>
      <trkpt lat="59.9406671" lon="17.6620579">
        <ele>30.8995</ele>
        <time>2014-07-08T14:31:57Z</time>
      </trkpt>
      <trkpt lat="59.9405966" lon="17.6620077">
        <ele>30.8995</ele>
        <time>2014-07-08T14:31:58Z</time>
      </trkpt>
      <trkpt lat="59.9405323" lon="17.6619294">
        <ele>30.4188</ele>
        <time>2014-07-08T14:31:59Z</time>
      </trkpt>
      <trkpt lat="59.9404775" lon="17.6618238">
        <ele>29.9381</ele>
        <time>2014-07-08T14:32:00Z</time>
      </trkpt>
      <trkpt lat="59.940436" lon="17.6616937">
        <ele>29.9381</ele>
        <time>2014-07-08T14:32:01Z</time>
      </trkpt>
      <trkpt lat="59.9404099" lon="17.6615464">
        <ele>29.4575</ele>
        <time>2014-07-08T14:32:02Z</time>
      </trkpt>
      <trkpt lat="59.9403972" lon="17.6613896">
        <ele>29.4575</ele>
        <time>2014-07-08T14:32:03Z</time>
      </trkpt>
      <trkpt lat="59.9403916" lon="17.661228">
        <ele>29.4575</ele>
        <time>2014-07-08T14:32:04Z</time>
      </trkpt>
      <trkpt lat="59.9403957" lon="17.6610652">
        <ele>29.4575</ele>
        <time>2014-07-08T14:32:05Z</time>
      </trkpt>
      <trkpt lat="59.9404153" lon="17.6609105">
        <ele>29.4575</ele>
        <time>2014-07-08T14:32:06Z</time>
      </trkpt>
      <trkpt lat="59.9404503" lon="17.6607692">
        <ele>29.4575</ele>
        <time>2014-07-08T14:32:07Z</time>
      </trkpt>
      <trkpt lat="59.9404866" lon="17.6606342">
        <ele>29.4575</ele>
        <time>2014-07-08T14:32:08Z</time>
      </trkpt>
      <trkpt lat="59.9405116" lon="17.6604941">
        <ele>29.9381</ele>
        <time>2014-07-08T14:32:09Z</time>
      </trkpt>
      <trkpt lat="59.9405219" lon="17.6603547">
        <ele>29.9381</ele>
        <time>2014-07-08T14:32:10Z</time>
      </trkpt>
      <trkpt lat="59.940522" lon="17.6602151">
        <ele>29.9381</ele>
        <time>2014-07-08T14:32:11Z</time>
      </trkpt>
      <trkpt lat="59.9405117" lon="17.6600808">
        <ele>30.8995</ele>
        <time>2014-07-08T14:32:12Z</time>
      </trkpt>
      <trkpt lat="59.9404894" lon="17.6599471">
        <ele>30.4188</ele>
        <time>2014-07-08T14:32:13Z</time>
      </trkpt>
      <trkpt lat="59.9404659" lon="17.6598451">
        <ele>30.4188</ele>
        <time>2014-07-08T14:32:14Z</time>
      </trkpt>
      <trkpt lat="59.9404346" lon="17.6596888">
        <ele>30.4188</ele>
        <time>2014-07-08T14:32:15Z</time>
      </trkpt>
      <trkpt lat="59.9403965" lon="17.6595595">
        <ele>29.9381</ele>
        <time>2014-07-08T14:32:16Z</time>
      </trkpt>
      <trkpt lat="59.9403561" lon="17.6594109">
        <ele>29.9381</ele>
        <time>2014-07-08T14:32:17Z</time>
      </trkpt>
      <trkpt lat="59.9403258" lon="17.6592682">
        <ele>29.4575</ele>
        <time>2014-07-08T14:32:18Z</time>
      </trkpt>
      <trkpt lat="59.9402982" lon="17.6591253">
        <ele>28.9769</ele>
        <time>2014-07-08T14:32:19Z</time>
      </trkpt>
      <trkpt lat="59.9402697" lon="17.6589812">
        <ele>28.4962</ele>
        <time>2014-07-08T14:32:20Z</time>
      </trkpt>
      <trkpt lat="59.9402362" lon="17.6588354">
        <ele>28.4962</ele>
        <time>2014-07-08T14:32:21Z</time>
      </trkpt>
      <trkpt lat="59.9402039" lon="17.6587073">
        <ele>28.4962</ele>
        <time>2014-07-08T14:32:22Z</time>
      </trkpt>
      <trkpt lat="59.940174" lon="17.6585768">
        <ele>28.4962</ele>
        <time>2014-07-08T14:32:23Z</time>
      </trkpt>
      <trkpt lat="59.9401459" lon="17.6584495">
        <ele>28.0155</ele>
        <time>2014-07-08T14:32:24Z</time>
      </trkpt>
      <trkpt lat="59.940119" lon="17.6583252">
        <ele>28.0155</ele>
        <time>2014-07-08T14:32:25Z</time>
      </trkpt>
      <trkpt lat="59.9400931" lon="17.6582006">
        <ele>28.0155</ele>
        <time>2014-07-08T14:32:26Z</time>
      </trkpt>
      <trkpt lat="59.940068" lon="17.6580754">
        <ele>28.4962</ele>
        <time>2014-07-08T14:32:27Z</time>
      </trkpt>
      <trkpt lat="59.9400433" lon="17.6579521">
        <ele>28.4962</ele>
        <time>2014-07-08T14:32:28Z</time>
      </trkpt>
      <trkpt lat="59.940018" lon="17.6578307">
        <ele>28.9769</ele>
        <time>2014-07-08T14:32:29Z</time>
      </trkpt>
      <trkpt lat="59.9399921" lon="17.6577082">
        <ele>28.9769</ele>
        <time>2014-07-08T14:32:30Z</time>
      </trkpt>
      <trkpt lat="59.9399673" lon="17.6575849">
        <ele>28.9769</ele>
        <time>2014-07-08T14:32:31Z</time>
      </trkpt>
      <trkpt lat="59.9399427" lon="17.6574612">
        <ele>29.4575</ele>
        <time>2014-07-08T14:32:32Z</time>
      </trkpt>
      <trkpt lat="59.9399176" lon="17.6573369">
        <ele>29.4575</ele>
        <time>2014-07-08T14:32:33Z</time>
      </trkpt>
      <trkpt lat="59.9398927" lon="17.6572115">
        <ele>29.9381</ele>
        <time>2014-07-08T14:32:34Z</time>
      </trkpt>
      <trkpt lat="59.9398673" lon="17.6570855">
        <ele>29.9381</ele>
        <time>2014-07-08T14:32:35Z</time>
      </trkpt>
      <trkpt lat="59.9398413" lon="17.6569591">
        <ele>29.9381</ele>
        <time>2014-07-08T14:32:36Z</time>
      </trkpt>
      <trkpt lat="59.9398149" lon="17.6568325">
        <ele>30.4188</ele>
        <time>2014-07-08T14:32:37Z</time>
      </trkpt>
      <trkpt lat="59.9397891" lon="17.6567049">
        <ele>30.4188</ele>
        <time>2014-07-08T14:32:38Z</time>
      </trkpt>
      <trkpt lat="59.9397645" lon="17.6565762">
        <ele>30.4188</ele>
        <time>2014-07-08T14:32:39Z</time>
      </trkpt>
      <trkpt lat="59.9397397" lon="17.6564471">
        <ele>30.4188</ele>
        <time>2014-07-08T14:32:40Z</time>
      </trkpt>
      <trkpt lat="59.9397134" lon="17.656319">
        <ele>30.8995</ele>
        <time>2014-07-08T14:32:41Z</time>
      </trkpt>
      <trkpt lat="59.9396866" lon="17.6561915">
        <ele>30.8995</ele>
        <time>2014-07-08T14:32:42Z</time>
      </trkpt>
      <trkpt lat="59.9396593" lon="17.6560645">
        <ele>30.8995</ele>
        <time>2014-07-08T14:32:43Z</time>
      </trkpt>
      <trkpt lat="59.9396326" lon="17.65594">
        <ele>30.8995</ele>
        <time>2014-07-08T14:32:44Z</time>
      </trkpt>
      <trkpt lat="59.939608" lon="17.6558189">
        <ele>30.8995</ele>
        <time>2014-07-08T14:32:45Z</time>
      </trkpt>
      <trkpt lat="59.9395844" lon="17.6556999">
        <ele>30.8995</ele>
        <time>2014-07-08T14:32:46Z</time>
      </trkpt>
      <trkpt lat="59.9395607" lon="17.6555813">
        <ele>30.8995</ele>
        <time>2014-07-08T14:32:47Z</time>
      </trkpt>
      <trkpt lat="59.9395363" lon="17.6554626">
        <ele>30.8995</ele>
        <time>2014-07-08T14:32:48Z</time>
      </trkpt>
      <trkpt lat="59.9395112" lon="17.6553438">
        <ele>31.3801</ele>
        <time>2014-07-08T14:32:49Z</time>
      </trkpt>
      <trkpt lat="59.939486" lon="17.6552242">
        <ele>31.3801</ele>
        <time>2014-07-08T14:32:50Z</time>
      </trkpt>
      <trkpt lat="59.9394616" lon="17.6551022">
        <ele>31.3801</ele>
        <time>2014-07-08T14:32:51Z</time>
      </trkpt>
      <trkpt lat="59.9394353" lon="17.6549793">
        <ele>31.3801</ele>
        <time>2014-07-08T14:32:52Z</time>
      </trkpt>
      <trkpt lat="59.9394074" lon="17.6548551">
        <ele>31.3801</ele>
        <time>2014-07-08T14:32:53Z</time>
      </trkpt>
      <trkpt lat="59.9393798" lon="17.6547275">
        <ele>31.3801</ele>
        <time>2014-07-08T14:32:54Z</time>
      </trkpt>
      <trkpt lat="59.9393528" lon="17.6545958">
        <ele>31.3801</ele>
        <time>2014-07-08T14:32:55Z</time>
      </trkpt>
      <trkpt lat="59.939326" lon="17.6544622">
        <ele>31.3801</ele>
        <time>2014-07-08T14:32:56Z</time>
      </trkpt>
      <trkpt lat="59.9392995" lon="17.654328">
        <ele>31.3801</ele>
        <time>2014-07-08T14:32:57Z</time>
      </trkpt>
      <trkpt lat="59.9392727" lon="17.6541922">
        <ele>31.3801</ele>
        <time>2014-07-08T14:32:58Z</time>
      </trkpt>
      <trkpt lat="59.9392456" lon="17.6540535">
        <ele>31.3801</ele>
        <time>2014-07-08T14:32:59Z</time>
      </trkpt>
      <trkpt lat="59.9392181" lon="17.6539125">
        <ele>31.3801</ele>
        <time>2014-07-08T14:33:00Z</time>
      </trkpt>
      <trkpt lat="59.9391893" lon="17.6537703">
        <ele>31.3801</ele>
        <time>2014-07-08T14:33:01Z</time>
      </trkpt>
      <trkpt lat="59.939159" lon="17.6536276">
        <ele>30.8995</ele>
        <time>2014-07-08T14:33:02Z</time>
      </trkpt>
      <trkpt lat="59.9391274" lon="17.6534843">
        <ele>30.8995</ele>
        <time>2014-07-08T14:33:03Z</time>
      </trkpt>
      <trkpt lat="59.9390947" lon="17.6533411">
        <ele>30.8995</ele>
        <time>2014-07-08T14:33:04Z</time>
      </trkpt>
      <trkpt lat="59.9390607" lon="17.6531997">
        <ele>30.8995</ele>
        <time>2014-07-08T14:33:05Z</time>
      </trkpt>
      <trkpt lat="59.9390265" lon="17.6530606">
        <ele>30.8995</ele>
        <time>2014-07-08T14:33:06Z</time>
      </trkpt>
      <trkpt lat="59.9389928" lon="17.6529234">
        <ele>30.8995</ele>
        <time>2014-07-08T14:33:07Z</time>
      </trkpt>
      <trkpt lat="59.9389582" lon="17.6527891">
        <ele>30.8995</ele>
        <time>2014-07-08T14:33:08Z</time>
      </trkpt>
      <trkpt lat="59.9389232" lon="17.6526565">
        <ele>30.8995</ele>
        <time>2014-07-08T14:33:09Z</time>
      </trkpt>
      <trkpt lat="59.9388881" lon="17.6525232">
        <ele>30.8995</ele>
        <time>2014-07-08T14:33:10Z</time>
      </trkpt>
      <trkpt lat="59.938852" lon="17.6523888">
        <ele>30.8995</ele>
        <time>2014-07-08T14:33:11Z</time>
      </trkpt>
      <trkpt lat="59.9388146" lon="17.6522556">
        <ele>30.8995</ele>
        <time>2014-07-08T14:33:12Z</time>
      </trkpt>
      <trkpt lat="59.9387767" lon="17.6521246">
        <ele>30.8995</ele>
        <time>2014-07-08T14:33:13Z</time>
      </trkpt>
      <trkpt lat="59.9387391" lon="17.6519959">
        <ele>30.8995</ele>
        <time>2014-07-08T14:33:14Z</time>
      </trkpt>
      <trkpt lat="59.9387026" lon="17.6518685">
        <ele>30.4188</ele>
        <time>2014-07-08T14:33:15Z</time>
      </trkpt>
      <trkpt lat="59.938666" lon="17.6517417">
        <ele>30.4188</ele>
        <time>2014-07-08T14:33:16Z</time>
      </trkpt>
      <trkpt lat="59.9386287" lon="17.6516164">
        <ele>30.4188</ele>
        <time>2014-07-08T14:33:17Z</time>
      </trkpt>
      <trkpt lat="59.9385898" lon="17.6514935">
        <ele>30.4188</ele>
        <time>2014-07-08T14:33:18Z</time>
      </trkpt>
      <trkpt lat="59.9385499" lon="17.6513713">
        <ele>30.4188</ele>
        <time>2014-07-08T14:33:19Z</time>
      </trkpt>
      <trkpt lat="59.9385098" lon="17.6512485">
        <ele>30.4188</ele>
        <time>2014-07-08T14:33:20Z</time>
      </trkpt>
      <trkpt lat="59.9384681" lon="17.6511262">
        <ele>30.4188</ele>
        <time>2014-07-08T14:33:21Z</time>
      </trkpt>
      <trkpt lat="59.9384231" lon="17.6510063">
        <ele>30.4188</ele>
        <time>2014-07-08T14:33:22Z</time>
      </trkpt>
      <trkpt lat="59.9383729" lon="17.6508933">
        <ele>30.4188</ele>
        <time>2014-07-08T14:33:23Z</time>
      </trkpt>
      <trkpt lat="59.9383189" lon="17.650785">
        <ele>30.4188</ele>
        <time>2014-07-08T14:33:24Z</time>
      </trkpt>
      <trkpt lat="59.9382671" lon="17.6506741">
        <ele>30.4188</ele>
        <time>2014-07-08T14:33:25Z</time>
      </trkpt>
      <trkpt lat="59.93822" lon="17.650559">
        <ele>30.4188</ele>
        <time>2014-07-08T14:33:26Z</time>
      </trkpt>
      <trkpt lat="59.9381774" lon="17.650441">
        <ele>30.4188</ele>
        <time>2014-07-08T14:33:27Z</time>
      </trkpt>
      <trkpt lat="59.9381379" lon="17.6503229">
        <ele>29.9381</ele>
        <time>2014-07-08T14:33:28Z</time>
      </trkpt>
      <trkpt lat="59.9380987" lon="17.6502093">
        <ele>29.9381</ele>
        <time>2014-07-08T14:33:29Z</time>
      </trkpt>
      <trkpt lat="59.9380594" lon="17.6501013">
        <ele>29.9381</ele>
        <time>2014-07-08T14:33:30Z</time>
      </trkpt>
      <trkpt lat="59.9380203" lon="17.6499992">
        <ele>30.4188</ele>
        <time>2014-07-08T14:33:31Z</time>
      </trkpt>
      <trkpt lat="59.9379817" lon="17.6499026">
        <ele>30.4188</ele>
        <time>2014-07-08T14:33:32Z</time>
      </trkpt>
      <trkpt lat="59.9379427" lon="17.6498096">
        <ele>30.4188</ele>
        <time>2014-07-08T14:33:33Z</time>
      </trkpt>
      <trkpt lat="59.9379031" lon="17.6497173">
        <ele>30.4188</ele>
        <time>2014-07-08T14:33:34Z</time>
      </trkpt>
      <trkpt lat="59.9378645" lon="17.6496216">
        <ele>30.4188</ele>
        <time>2014-07-08T14:33:35Z</time>
      </trkpt>
      <trkpt lat="59.9378262" lon="17.6495226">
        <ele>30.4188</ele>
        <time>2014-07-08T14:33:36Z</time>
      </trkpt>
      <trkpt lat="59.9377895" lon="17.6494164">
        <ele>30.4188</ele>
        <time>2014-07-08T14:33:37Z</time>
      </trkpt>
      <trkpt lat="59.9377538" lon="17.6493064">
        <ele>30.4188</ele>
        <time>2014-07-08T14:33:38Z</time>
      </trkpt>
      <trkpt lat="59.9377155" lon="17.6491982">
        <ele>30.4188</ele>
        <time>2014-07-08T14:33:39Z</time>
      </trkpt>
      <trkpt lat="59.9376781" lon="17.6490864">
        <ele>30.4188</ele>
        <time>2014-07-08T14:33:40Z</time>
      </trkpt>
      <trkpt lat="59.9376435" lon="17.6489704">
        <ele>30.4188</ele>
        <time>2014-07-08T14:33:41Z</time>
      </trkpt>
      <trkpt lat="59.9376059" lon="17.648859">
        <ele>30.8995</ele>
        <time>2014-07-08T14:33:42Z</time>
      </trkpt>
      <trkpt lat="59.937562" lon="17.648757">
        <ele>30.8995</ele>
        <time>2014-07-08T14:33:43Z</time>
      </trkpt>
      <trkpt lat="59.9375145" lon="17.6486618">
        <ele>30.8995</ele>
        <time>2014-07-08T14:33:44Z</time>
      </trkpt>
      <trkpt lat="59.9374671" lon="17.6485674">
        <ele>30.8995</ele>
        <time>2014-07-08T14:33:45Z</time>
      </trkpt>
      <trkpt lat="59.9374227" lon="17.6484682">
        <ele>31.3801</ele>
        <time>2014-07-08T14:33:46Z</time>
      </trkpt>
      <trkpt lat="59.9373802" lon="17.6483684">
        <ele>30.8995</ele>
        <time>2014-07-08T14:33:47Z</time>
      </trkpt>
      <trkpt lat="59.937332" lon="17.6482743">
        <ele>30.8995</ele>
        <time>2014-07-08T14:33:48Z</time>
      </trkpt>
      <trkpt lat="59.9372787" lon="17.6481867">
        <ele>30.8995</ele>
        <time>2014-07-08T14:33:49Z</time>
      </trkpt>
      <trkpt lat="59.9372263" lon="17.6481084">
        <ele>31.3801</ele>
        <time>2014-07-08T14:33:50Z</time>
      </trkpt>
      <trkpt lat="59.9371771" lon="17.6480415">
        <ele>31.3801</ele>
        <time>2014-07-08T14:33:51Z</time>
      </trkpt>
      <trkpt lat="59.9371295" lon="17.6479799">
        <ele>31.3801</ele>
        <time>2014-07-08T14:33:52Z</time>
      </trkpt>
      <trkpt lat="59.9370819" lon="17.6479204">
        <ele>31.3801</ele>
        <time>2014-07-08T14:33:53Z</time>
      </trkpt>
      <trkpt lat="59.9370332" lon="17.6478634">
        <ele>31.3801</ele>
        <time>2014-07-08T14:33:54Z</time>
      </trkpt>
      <trkpt lat="59.936983" lon="17.647807">
        <ele>31.3801</ele>
        <time>2014-07-08T14:33:55Z</time>
      </trkpt>
      <trkpt lat="59.9369327" lon="17.6477489">
        <ele>31.3801</ele>
        <time>2014-07-08T14:33:56Z</time>
      </trkpt>
      <trkpt lat="59.9368819" lon="17.6476888">
        <ele>31.8607</ele>
        <time>2014-07-08T14:33:57Z</time>
      </trkpt>
      <trkpt lat="59.9368312" lon="17.6476262">
        <ele>31.8607</ele>
        <time>2014-07-08T14:33:58Z</time>
      </trkpt>
      <trkpt lat="59.9367809" lon="17.6475636">
        <ele>31.8607</ele>
        <time>2014-07-08T14:33:59Z</time>
      </trkpt>
      <trkpt lat="59.9367308" lon="17.6475007">
        <ele>31.8607</ele>
        <time>2014-07-08T14:34:00Z</time>
      </trkpt>
      <trkpt lat="59.9366821" lon="17.6474328">
        <ele>31.8607</ele>
        <time>2014-07-08T14:34:01Z</time>
      </trkpt>
      <trkpt lat="59.9366324" lon="17.6473619">
        <ele>31.8607</ele>
        <time>2014-07-08T14:34:02Z</time>
      </trkpt>
      <trkpt lat="59.9365815" lon="17.6472915">
        <ele>31.3801</ele>
        <time>2014-07-08T14:34:03Z</time>
      </trkpt>
      <trkpt lat="59.9365312" lon="17.647223">
        <ele>31.8607</ele>
        <time>2014-07-08T14:34:04Z</time>
      </trkpt>
      <trkpt lat="59.9364824" lon="17.6471582">
        <ele>31.8607</ele>
        <time>2014-07-08T14:34:05Z</time>
      </trkpt>
      <trkpt lat="59.9364349" lon="17.6470979">
        <ele>31.8607</ele>
        <time>2014-07-08T14:34:06Z</time>
      </trkpt>
      <trkpt lat="59.936391" lon="17.6470408">
        <ele>31.8607</ele>
        <time>2014-07-08T14:34:07Z</time>
      </trkpt>
      <trkpt lat="59.9363511" lon="17.6469987">
        <ele>32.3416</ele>
        <time>2014-07-08T14:34:08Z</time>
      </trkpt>
      <trkpt lat="59.9363198" lon="17.6469811">
        <ele>32.3416</ele>
        <time>2014-07-08T14:34:09Z</time>
      </trkpt>
      <trkpt lat="59.9362995" lon="17.6469786">
        <ele>32.3416</ele>
        <time>2014-07-08T14:34:10Z</time>
      </trkpt>
      <trkpt lat="59.9362811" lon="17.6469841">
        <ele>32.3416</ele>
        <time>2014-07-08T14:34:11Z</time>
      </trkpt>
      <trkpt lat="59.9362561" lon="17.6469874">
        <ele>32.8223</ele>
        <time>2014-07-08T14:34:12Z</time>
      </trkpt>
      <trkpt lat="59.9362236" lon="17.6469765">
        <ele>32.8223</ele>
        <time>2014-07-08T14:34:13Z</time>
      </trkpt>
      <trkpt lat="59.9361887" lon="17.6469444">
        <ele>32.8223</ele>
        <time>2014-07-08T14:34:14Z</time>
      </trkpt>
      <trkpt lat="59.9361504" lon="17.6468964">
        <ele>33.3029</ele>
        <time>2014-07-08T14:34:15Z</time>
      </trkpt>
      <trkpt lat="59.9361068" lon="17.6468418">
        <ele>33.3029</ele>
        <time>2014-07-08T14:34:16Z</time>
      </trkpt>
      <trkpt lat="59.9360602" lon="17.6467854">
        <ele>33.3029</ele>
        <time>2014-07-08T14:34:17Z</time>
      </trkpt>
      <trkpt lat="59.936012" lon="17.6467258">
        <ele>33.3029</ele>
        <time>2014-07-08T14:34:18Z</time>
      </trkpt>
      <trkpt lat="59.9359618" lon="17.6466626">
        <ele>33.3029</ele>
        <time>2014-07-08T14:34:19Z</time>
      </trkpt>
      <trkpt lat="59.9359095" lon="17.6465963">
        <ele>33.7834</ele>
        <time>2014-07-08T14:34:20Z</time>
      </trkpt>
      <trkpt lat="59.9358545" lon="17.6465269">
        <ele>33.7834</ele>
        <time>2014-07-08T14:34:21Z</time>
      </trkpt>
      <trkpt lat="59.9357976" lon="17.6464561">
        <ele>33.7834</ele>
        <time>2014-07-08T14:34:22Z</time>
      </trkpt>
      <trkpt lat="59.9357398" lon="17.6463844">
        <ele>33.7834</ele>
        <time>2014-07-08T14:34:23Z</time>
      </trkpt>
      <trkpt lat="59.9356826" lon="17.6463125">
        <ele>33.7834</ele>
        <time>2014-07-08T14:34:24Z</time>
      </trkpt>
      <trkpt lat="59.9356257" lon="17.6462421">
        <ele>33.7834</ele>
        <time>2014-07-08T14:34:25Z</time>
      </trkpt>
      <trkpt lat="59.9355696" lon="17.6461724">
        <ele>33.7834</ele>
        <time>2014-07-08T14:34:26Z</time>
      </trkpt>
      <trkpt lat="59.9355144" lon="17.6461027">
        <ele>33.7834</ele>
        <time>2014-07-08T14:34:27Z</time>
      </trkpt>
      <trkpt lat="59.9354595" lon="17.6460336">
        <ele>33.3029</ele>
        <time>2014-07-08T14:34:28Z</time>
      </trkpt>
      <trkpt lat="59.9354047" lon="17.6459649">
        <ele>33.3029</ele>
        <time>2014-07-08T14:34:29Z</time>
      </trkpt>
      <trkpt lat="59.9353495" lon="17.645895">
        <ele>33.3029</ele>
        <time>2014-07-08T14:34:30Z</time>
      </trkpt>
      <trkpt lat="59.9352937" lon="17.6458192">
        <ele>33.3029</ele>
        <time>2014-07-08T14:34:31Z</time>
      </trkpt>
      <trkpt lat="59.9352392" lon="17.6457338">
        <ele>33.3029</ele>
        <time>2014-07-08T14:34:32Z</time>
      </trkpt>
      <trkpt lat="59.9351861" lon="17.6456417">
        <ele>33.3029</ele>
        <time>2014-07-08T14:34:33Z</time>
      </trkpt>
      <trkpt lat="59.9351322" lon="17.6455515">
        <ele>33.3029</ele>
        <time>2014-07-08T14:34:34Z</time>
      </trkpt>
      <trkpt lat="59.9350762" lon="17.6454679">
        <ele>33.3029</ele>
        <time>2014-07-08T14:34:35Z</time>
      </trkpt>
      <trkpt lat="59.9350174" lon="17.6453921">
        <ele>33.3029</ele>
        <time>2014-07-08T14:34:36Z</time>
      </trkpt>
      <trkpt lat="59.9349564" lon="17.6453247">
        <ele>33.7834</ele>
        <time>2014-07-08T14:34:37Z</time>
      </trkpt>
      <trkpt lat="59.934896" lon="17.6452659">
        <ele>33.3029</ele>
        <time>2014-07-08T14:34:38Z</time>
      </trkpt>
      <trkpt lat="59.9348362" lon="17.6452058">
        <ele>33.3029</ele>
        <time>2014-07-08T14:34:39Z</time>
      </trkpt>
      <trkpt lat="59.9347752" lon="17.6451376">
        <ele>33.3029</ele>
        <time>2014-07-08T14:34:40Z</time>
      </trkpt>
      <trkpt lat="59.9347161" lon="17.645064">
        <ele>32.8223</ele>
        <time>2014-07-08T14:34:41Z</time>
      </trkpt>
      <trkpt lat="59.9346593" lon="17.6449825">
        <ele>32.8223</ele>
        <time>2014-07-08T14:34:42Z</time>
      </trkpt>
      <trkpt lat="59.9346012" lon="17.6449023">
        <ele>32.3416</ele>
        <time>2014-07-08T14:34:43Z</time>
      </trkpt>
      <trkpt lat="59.9345426" lon="17.6448231">
        <ele>32.3416</ele>
        <time>2014-07-08T14:34:44Z</time>
      </trkpt>
      <trkpt lat="59.9344835" lon="17.6447394">
        <ele>31.8607</ele>
        <time>2014-07-08T14:34:45Z</time>
      </trkpt>
      <trkpt lat="59.9344255" lon="17.6446467">
        <ele>31.3801</ele>
        <time>2014-07-08T14:34:46Z</time>
      </trkpt>
      <trkpt lat="59.9343664" lon="17.6445435">
        <ele>30.4188</ele>
        <time>2014-07-08T14:34:47Z</time>
      </trkpt>
      <trkpt lat="59.9343015" lon="17.6444381">
        <ele>29.9381</ele>
        <time>2014-07-08T14:34:48Z</time>
      </trkpt>
      <trkpt lat="59.9342309" lon="17.6443384">
        <ele>29.4575</ele>
        <time>2014-07-08T14:34:49Z</time>
      </trkpt>
      <trkpt lat="59.9341577" lon="17.6442449">
        <ele>29.4575</ele>
        <time>2014-07-08T14:34:50Z</time>
      </trkpt>
      <trkpt lat="59.9340837" lon="17.6441544">
        <ele>28.9769</ele>
        <time>2014-07-08T14:34:51Z</time>
      </trkpt>
      <trkpt lat="59.9340104" lon="17.6440638">
        <ele>28.9769</ele>
        <time>2014-07-08T14:34:52Z</time>
      </trkpt>
      <trkpt lat="59.9339374" lon="17.6439741">
        <ele>28.9769</ele>
        <time>2014-07-08T14:34:53Z</time>
      </trkpt>
      <trkpt lat="59.9338633" lon="17.6438916">
        <ele>28.9769</ele>
        <time>2014-07-08T14:34:54Z</time>
      </trkpt>
      <trkpt lat="59.9337874" lon="17.6438173">
        <ele>28.4962</ele>
        <time>2014-07-08T14:34:55Z</time>
      </trkpt>
      <trkpt lat="59.9337111" lon="17.6437469">
        <ele>28.4962</ele>
        <time>2014-07-08T14:34:56Z</time>
      </trkpt>
      <trkpt lat="59.9336349" lon="17.643674">
        <ele>28.4962</ele>
        <time>2014-07-08T14:34:57Z</time>
      </trkpt>
      <trkpt lat="59.9335603" lon="17.6435941">
        <ele>28.4962</ele>
        <time>2014-07-08T14:34:58Z</time>
      </trkpt>
      <trkpt lat="59.9334853" lon="17.6435049">
        <ele>28.0155</ele>
        <time>2014-07-08T14:34:59Z</time>
      </trkpt>
      <trkpt lat="59.9334121" lon="17.6434048">
        <ele>27.5349</ele>
        <time>2014-07-08T14:35:00Z</time>
      </trkpt>
      <trkpt lat="59.9333413" lon="17.6432924">
        <ele>27.0543</ele>
        <time>2014-07-08T14:35:01Z</time>
      </trkpt>
      <trkpt lat="59.9332698" lon="17.6431717">
        <ele>26.0929</ele>
        <time>2014-07-08T14:35:02Z</time>
      </trkpt>
      <trkpt lat="59.933194" lon="17.6430507">
        <ele>25.6123</ele>
        <time>2014-07-08T14:35:03Z</time>
      </trkpt>
      <trkpt lat="59.9331129" lon="17.6429333">
        <ele>24.651</ele>
        <time>2014-07-08T14:35:04Z</time>
      </trkpt>
      <trkpt lat="59.9330294" lon="17.642819">
        <ele>24.1703</ele>
        <time>2014-07-08T14:35:05Z</time>
      </trkpt>
      <trkpt lat="59.9329451" lon="17.6427074">
        <ele>23.6896</ele>
        <time>2014-07-08T14:35:06Z</time>
      </trkpt>
      <trkpt lat="59.9328625" lon="17.6425932">
        <ele>23.6896</ele>
        <time>2014-07-08T14:35:07Z</time>
      </trkpt>
      <trkpt lat="59.9327871" lon="17.6424668">
        <ele>23.209</ele>
        <time>2014-07-08T14:35:08Z</time>
      </trkpt>
      <trkpt lat="59.9327152" lon="17.6423365">
        <ele>23.209</ele>
        <time>2014-07-08T14:35:09Z</time>
      </trkpt>
      <trkpt lat="59.9326387" lon="17.6422197">
        <ele>22.7283</ele>
        <time>2014-07-08T14:35:10Z</time>
      </trkpt>
      <trkpt lat="59.932557" lon="17.6421187">
        <ele>22.7283</ele>
        <time>2014-07-08T14:35:11Z</time>
      </trkpt>
      <trkpt lat="59.9324742" lon="17.6420284">
        <ele>22.7283</ele>
        <time>2014-07-08T14:35:12Z</time>
      </trkpt>
      <trkpt lat="59.9323898" lon="17.6419456">
        <ele>22.2476</ele>
        <time>2014-07-08T14:35:13Z</time>
      </trkpt>
      <trkpt lat="59.9323047" lon="17.6418679">
        <ele>22.2476</ele>
        <time>2014-07-08T14:35:14Z</time>
      </trkpt>
      <trkpt lat="59.9322203" lon="17.6417937">
        <ele>22.2476</ele>
        <time>2014-07-08T14:35:15Z</time>
      </trkpt>
      <trkpt lat="59.9321375" lon="17.6417213">
        <ele>22.7283</ele>
        <time>2014-07-08T14:35:16Z</time>
      </trkpt>
      <trkpt lat="59.9320591" lon="17.6416487">
        <ele>22.7283</ele>
        <time>2014-07-08T14:35:17Z</time>
      </trkpt>
      <trkpt lat="59.9319834" lon="17.641579">
        <ele>22.7283</ele>
        <time>2014-07-08T14:35:18Z</time>
      </trkpt>
      <trkpt lat="59.9319053" lon="17.6415191">
        <ele>22.2476</ele>
        <time>2014-07-08T14:35:19Z</time>
      </trkpt>
      <trkpt lat="59.9318213" lon="17.6414666">
        <ele>21.767</ele>
        <time>2014-07-08T14:35:20Z</time>
      </trkpt>
      <trkpt lat="59.9317361" lon="17.6414157">
        <ele>21.767</ele>
        <time>2014-07-08T14:35:21Z</time>
      </trkpt>
      <trkpt lat="59.9316526" lon="17.6413608">
        <ele>21.767</ele>
        <time>2014-07-08T14:35:22Z</time>
      </trkpt>
      <trkpt lat="59.9315717" lon="17.6413016">
        <ele>21.767</ele>
        <time>2014-07-08T14:35:23Z</time>
      </trkpt>
      <trkpt lat="59.931492" lon="17.6412437">
        <ele>21.767</ele>
        <time>2014-07-08T14:35:24Z</time>
      </trkpt>
      <trkpt lat="59.9314131" lon="17.6411914">
        <ele>21.767</ele>
        <time>2014-07-08T14:35:25Z</time>
      </trkpt>
      <trkpt lat="59.9313362" lon="17.6411391">
        <ele>21.2864</ele>
        <time>2014-07-08T14:35:26Z</time>
      </trkpt>
      <trkpt lat="59.9312605" lon="17.6410799">
        <ele>20.8057</ele>
        <time>2014-07-08T14:35:27Z</time>
      </trkpt>
      <trkpt lat="59.9311823" lon="17.6410154">
        <ele>20.325</ele>
        <time>2014-07-08T14:35:28Z</time>
      </trkpt>
      <trkpt lat="59.9310998" lon="17.6409524">
        <ele>19.8444</ele>
        <time>2014-07-08T14:35:29Z</time>
      </trkpt>
      <trkpt lat="59.9310143" lon="17.6408925">
        <ele>19.3638</ele>
        <time>2014-07-08T14:35:30Z</time>
      </trkpt>
      <trkpt lat="59.9309277" lon="17.6408419">
        <ele>19.3638</ele>
        <time>2014-07-08T14:35:31Z</time>
      </trkpt>
      <trkpt lat="59.9308408" lon="17.6408082">
        <ele>19.3638</ele>
        <time>2014-07-08T14:35:32Z</time>
      </trkpt>
      <trkpt lat="59.9307555" lon="17.6407906">
        <ele>19.3638</ele>
        <time>2014-07-08T14:35:33Z</time>
      </trkpt>
      <trkpt lat="59.9306737" lon="17.6407895">
        <ele>19.3638</ele>
        <time>2014-07-08T14:35:34Z</time>
      </trkpt>
      <trkpt lat="59.9305938" lon="17.6408023">
        <ele>19.3638</ele>
        <time>2014-07-08T14:35:35Z</time>
      </trkpt>
      <trkpt lat="59.9305129" lon="17.6408174">
        <ele>18.8831</ele>
        <time>2014-07-08T14:35:36Z</time>
      </trkpt>
      <trkpt lat="59.9304296" lon="17.6408257">
        <ele>18.8831</ele>
        <time>2014-07-08T14:35:37Z</time>
      </trkpt>
      <trkpt lat="59.9303447" lon="17.6408253">
        <ele>18.4023</ele>
        <time>2014-07-08T14:35:38Z</time>
      </trkpt>
      <trkpt lat="59.9302579" lon="17.6408215">
        <ele>18.4023</ele>
        <time>2014-07-08T14:35:39Z</time>
      </trkpt>
      <trkpt lat="59.9301701" lon="17.6408185">
        <ele>18.4023</ele>
        <time>2014-07-08T14:35:40Z</time>
      </trkpt>
      <trkpt lat="59.9300831" lon="17.6408169">
        <ele>17.9218</ele>
        <time>2014-07-08T14:35:41Z</time>
      </trkpt>
      <trkpt lat="59.9299976" lon="17.6408162">
        <ele>17.9218</ele>
        <time>2014-07-08T14:35:42Z</time>
      </trkpt>
      <trkpt lat="59.9299142" lon="17.6408162">
        <ele>17.9218</ele>
        <time>2014-07-08T14:35:43Z</time>
      </trkpt>
      <trkpt lat="59.9298327" lon="17.6408193">
        <ele>18.4023</ele>
        <time>2014-07-08T14:35:44Z</time>
      </trkpt>
      <trkpt lat="59.9297539" lon="17.6408256">
        <ele>18.4023</ele>
        <time>2014-07-08T14:35:45Z</time>
      </trkpt>
      <trkpt lat="59.929675" lon="17.6408396">
        <ele>18.4023</ele>
        <time>2014-07-08T14:35:46Z</time>
      </trkpt>
      <trkpt lat="59.9295946" lon="17.6408589">
        <ele>17.9218</ele>
        <time>2014-07-08T14:35:47Z</time>
      </trkpt>
      <trkpt lat="59.9295126" lon="17.6408785">
        <ele>17.9218</ele>
        <time>2014-07-08T14:35:48Z</time>
      </trkpt>
      <trkpt lat="59.9294294" lon="17.6408961">
        <ele>17.9218</ele>
        <time>2014-07-08T14:35:49Z</time>
      </trkpt>
      <trkpt lat="59.9293457" lon="17.6409099">
        <ele>17.9218</ele>
        <time>2014-07-08T14:35:50Z</time>
      </trkpt>
      <trkpt lat="59.9292619" lon="17.6409194">
        <ele>17.9218</ele>
        <time>2014-07-08T14:35:51Z</time>
      </trkpt>
      <trkpt lat="59.9291797" lon="17.6409241">
        <ele>17.9218</ele>
        <time>2014-07-08T14:35:52Z</time>
      </trkpt>
      <trkpt lat="59.9290997" lon="17.6409247">
        <ele>17.9218</ele>
        <time>2014-07-08T14:35:53Z</time>
      </trkpt>
      <trkpt lat="59.9290225" lon="17.6409257">
        <ele>17.9218</ele>
        <time>2014-07-08T14:35:54Z</time>
      </trkpt>
      <trkpt lat="59.9289479" lon="17.6409301">
        <ele>17.9218</ele>
        <time>2014-07-08T14:35:55Z</time>
      </trkpt>
      <trkpt lat="59.9288745" lon="17.6409392">
        <ele>17.9218</ele>
        <time>2014-07-08T14:35:56Z</time>
      </trkpt>
      <trkpt lat="59.9288024" lon="17.6409541">
        <ele>17.9218</ele>
        <time>2014-07-08T14:35:57Z</time>
      </trkpt>
      <trkpt lat="59.928731" lon="17.6409733">
        <ele>17.9218</ele>
        <time>2014-07-08T14:35:58Z</time>
      </trkpt>
      <trkpt lat="59.9286601" lon="17.640991">
        <ele>17.9218</ele>
        <time>2014-07-08T14:35:59Z</time>
      </trkpt>
      <trkpt lat="59.9285896" lon="17.6410061">
        <ele>17.9218</ele>
        <time>2014-07-08T14:36:00Z</time>
      </trkpt>
      <trkpt lat="59.9285187" lon="17.6410193">
        <ele>17.9218</ele>
        <time>2014-07-08T14:36:01Z</time>
      </trkpt>
      <trkpt lat="59.9284468" lon="17.6410317">
        <ele>17.9218</ele>
        <time>2014-07-08T14:36:02Z</time>
      </trkpt>
      <trkpt lat="59.9283742" lon="17.6410438">
        <ele>17.9218</ele>
        <time>2014-07-08T14:36:03Z</time>
      </trkpt>
      <trkpt lat="59.9283006" lon="17.6410548">
        <ele>17.9218</ele>
        <time>2014-07-08T14:36:04Z</time>
      </trkpt>
      <trkpt lat="59.9282265" lon="17.6410655">
        <ele>17.9218</ele>
        <time>2014-07-08T14:36:05Z</time>
      </trkpt>
      <trkpt lat="59.9281524" lon="17.641078">
        <ele>17.9218</ele>
        <time>2014-07-08T14:36:06Z</time>
      </trkpt>
      <trkpt lat="59.9280782" lon="17.6410898">
        <ele>17.9218</ele>
        <time>2014-07-08T14:36:07Z</time>
      </trkpt>
      <trkpt lat="59.9280043" lon="17.6410981">
        <ele>17.4412</ele>
        <time>2014-07-08T14:36:08Z</time>
      </trkpt>
      <trkpt lat="59.9279313" lon="17.6411063">
        <ele>17.4412</ele>
        <time>2014-07-08T14:36:09Z</time>
      </trkpt>
      <trkpt lat="59.9278593" lon="17.6411169">
        <ele>17.4412</ele>
        <time>2014-07-08T14:36:10Z</time>
      </trkpt>
      <trkpt lat="59.9277887" lon="17.6411288">
        <ele>17.4412</ele>
        <time>2014-07-08T14:36:11Z</time>
      </trkpt>
      <trkpt lat="59.9277197" lon="17.6411348">
        <ele>17.4412</ele>
        <time>2014-07-08T14:36:12Z</time>
      </trkpt>
      <trkpt lat="59.9276515" lon="17.6411348">
        <ele>17.4412</ele>
        <time>2014-07-08T14:36:13Z</time>
      </trkpt>
      <trkpt lat="59.927583" lon="17.6411368">
        <ele>17.4412</ele>
        <time>2014-07-08T14:36:14Z</time>
      </trkpt>
      <trkpt lat="59.927514" lon="17.6411432">
        <ele>17.4412</ele>
        <time>2014-07-08T14:36:15Z</time>
      </trkpt>
      <trkpt lat="59.9274443" lon="17.6411522">
        <ele>17.4412</ele>
        <time>2014-07-08T14:36:16Z</time>
      </trkpt>
      <trkpt lat="59.9273737" lon="17.6411597">
        <ele>17.4412</ele>
        <time>2014-07-08T14:36:17Z</time>
      </trkpt>
      <trkpt lat="59.9273022" lon="17.641165">
        <ele>17.4412</ele>
        <time>2014-07-08T14:36:18Z</time>
      </trkpt>
      <trkpt lat="59.9272302" lon="17.6411693">
        <ele>17.4412</ele>
        <time>2014-07-08T14:36:19Z</time>
      </trkpt>
      <trkpt lat="59.9271579" lon="17.6411724">
        <ele>17.4412</ele>
        <time>2014-07-08T14:36:20Z</time>
      </trkpt>
      <trkpt lat="59.9270852" lon="17.6411758">
        <ele>17.4412</ele>
        <time>2014-07-08T14:36:21Z</time>
      </trkpt>
      <trkpt lat="59.9270121" lon="17.6411827">
        <ele>17.4412</ele>
        <time>2014-07-08T14:36:22Z</time>
      </trkpt>
      <trkpt lat="59.9269386" lon="17.641192">
        <ele>17.4412</ele>
        <time>2014-07-08T14:36:23Z</time>
      </trkpt>
      <trkpt lat="59.9268652" lon="17.6412016">
        <ele>17.4412</ele>
        <time>2014-07-08T14:36:24Z</time>
      </trkpt>
      <trkpt lat="59.9267928" lon="17.6412091">
        <ele>17.4412</ele>
        <time>2014-07-08T14:36:25Z</time>
      </trkpt>
      <trkpt lat="59.9267222" lon="17.6412164">
        <ele>17.4412</ele>
        <time>2014-07-08T14:36:26Z</time>
      </trkpt>
      <trkpt lat="59.9266513" lon="17.6412272">
        <ele>17.4412</ele>
        <time>2014-07-08T14:36:27Z</time>
      </trkpt>
      <trkpt lat="59.9265821" lon="17.6412374">
        <ele>17.4412</ele>
        <time>2014-07-08T14:36:28Z</time>
      </trkpt>
      <trkpt lat="59.9265135" lon="17.6412437">
        <ele>17.4412</ele>
        <time>2014-07-08T14:36:29Z</time>
      </trkpt>
      <trkpt lat="59.9264451" lon="17.6412505">
        <ele>17.4412</ele>
        <time>2014-07-08T14:36:30Z</time>
      </trkpt>
      <trkpt lat="59.9263071" lon="17.6412722">
        <ele>17.4412</ele>
        <time>2014-07-08T14:36:32Z</time>
      </trkpt>
      <trkpt lat="59.9262372" lon="17.6412834">
        <ele>17.4412</ele>
        <time>2014-07-08T14:36:33Z</time>
      </trkpt>
      <trkpt lat="59.9261664" lon="17.6412933">
        <ele>17.4412</ele>
        <time>2014-07-08T14:36:34Z</time>
      </trkpt>
      <trkpt lat="59.926095" lon="17.6413043">
        <ele>17.4412</ele>
        <time>2014-07-08T14:36:35Z</time>
      </trkpt>
      <trkpt lat="59.9260232" lon="17.6413163">
        <ele>17.9218</ele>
        <time>2014-07-08T14:36:36Z</time>
      </trkpt>
      <trkpt lat="59.9259512" lon="17.6413285">
        <ele>17.9218</ele>
        <time>2014-07-08T14:36:37Z</time>
      </trkpt>
      <trkpt lat="59.925879" lon="17.6413396">
        <ele>17.9218</ele>
        <time>2014-07-08T14:36:38Z</time>
      </trkpt>
      <trkpt lat="59.9258069" lon="17.6413508">
        <ele>18.4023</ele>
        <time>2014-07-08T14:36:39Z</time>
      </trkpt>
      <trkpt lat="59.9257354" lon="17.6413624">
        <ele>18.4023</ele>
        <time>2014-07-08T14:36:40Z</time>
      </trkpt>
      <trkpt lat="59.9256655" lon="17.6413723">
        <ele>18.4023</ele>
        <time>2014-07-08T14:36:41Z</time>
      </trkpt>
      <trkpt lat="59.9255976" lon="17.64138">
        <ele>18.4023</ele>
        <time>2014-07-08T14:36:42Z</time>
      </trkpt>
      <trkpt lat="59.9255314" lon="17.6413866">
        <ele>18.8831</ele>
        <time>2014-07-08T14:36:43Z</time>
      </trkpt>
      <trkpt lat="59.9254658" lon="17.6413912">
        <ele>18.8831</ele>
        <time>2014-07-08T14:36:44Z</time>
      </trkpt>
      <trkpt lat="59.9253996" lon="17.6413954">
        <ele>18.8831</ele>
        <time>2014-07-08T14:36:45Z</time>
      </trkpt>
      <trkpt lat="59.9253332" lon="17.6413997">
        <ele>19.3638</ele>
        <time>2014-07-08T14:36:46Z</time>
      </trkpt>
      <trkpt lat="59.9252665" lon="17.6414033">
        <ele>19.3638</ele>
        <time>2014-07-08T14:36:47Z</time>
      </trkpt>
      <trkpt lat="59.9251988" lon="17.6414054">
        <ele>19.3638</ele>
        <time>2014-07-08T14:36:48Z</time>
      </trkpt>
      <trkpt lat="59.9251298" lon="17.6414058">
        <ele>19.3638</ele>
        <time>2014-07-08T14:36:49Z</time>
      </trkpt>
      <trkpt lat="59.9250595" lon="17.6414043">
        <ele>19.3638</ele>
        <time>2014-07-08T14:36:50Z</time>
      </trkpt>
      <trkpt lat="59.9249888" lon="17.6414049">
        <ele>19.8444</ele>
        <time>2014-07-08T14:36:51Z</time>
      </trkpt>
      <trkpt lat="59.9249176" lon="17.6414101">
        <ele>19.8444</ele>
        <time>2014-07-08T14:36:52Z</time>
      </trkpt>
      <trkpt lat="59.9248463" lon="17.6414188">
        <ele>19.8444</ele>
        <time>2014-07-08T14:36:53Z</time>
      </trkpt>
      <trkpt lat="59.9247745" lon="17.6414314">
        <ele>19.8444</ele>
        <time>2014-07-08T14:36:54Z</time>
      </trkpt>
      <trkpt lat="59.9247024" lon="17.6414479">
        <ele>20.325</ele>
        <time>2014-07-08T14:36:55Z</time>
      </trkpt>
      <trkpt lat="59.9246295" lon="17.6414656">
        <ele>20.325</ele>
        <time>2014-07-08T14:36:56Z</time>
      </trkpt>
      <trkpt lat="59.924556" lon="17.6414827">
        <ele>20.325</ele>
        <time>2014-07-08T14:36:57Z</time>
      </trkpt>
      <trkpt lat="59.9244818" lon="17.641498">
        <ele>20.325</ele>
        <time>2014-07-08T14:36:58Z</time>
      </trkpt>
      <trkpt lat="59.9244067" lon="17.6415115">
        <ele>20.325</ele>
        <time>2014-07-08T14:36:59Z</time>
      </trkpt>
      <trkpt lat="59.9243307" lon="17.6415203">
        <ele>20.325</ele>
        <time>2014-07-08T14:37:00Z</time>
      </trkpt>
      <trkpt lat="59.9242549" lon="17.6415266">
        <ele>20.325</ele>
        <time>2014-07-08T14:37:01Z</time>
      </trkpt>
      <trkpt lat="59.9241803" lon="17.6415354">
        <ele>20.8057</ele>
        <time>2014-07-08T14:37:02Z</time>
      </trkpt>
      <trkpt lat="59.9241073" lon="17.6415436">
        <ele>20.8057</ele>
        <time>2014-07-08T14:37:03Z</time>
      </trkpt>
      <trkpt lat="59.9240358" lon="17.6415504">
        <ele>20.8057</ele>
        <time>2014-07-08T14:37:04Z</time>
      </trkpt>
      <trkpt lat="59.9239663" lon="17.641556">
        <ele>20.8057</ele>
        <time>2014-07-08T14:37:05Z</time>
      </trkpt>
      <trkpt lat="59.9238989" lon="17.6415619">
        <ele>20.8057</ele>
        <time>2014-07-08T14:37:06Z</time>
      </trkpt>
      <trkpt lat="59.9238327" lon="17.6415675">
        <ele>21.2864</ele>
        <time>2014-07-08T14:37:07Z</time>
      </trkpt>
      <trkpt lat="59.9237669" lon="17.6415747">
        <ele>21.2864</ele>
        <time>2014-07-08T14:37:08Z</time>
      </trkpt>
      <trkpt lat="59.9237011" lon="17.6415839">
        <ele>21.2864</ele>
        <time>2014-07-08T14:37:09Z</time>
      </trkpt>
      <trkpt lat="59.9236355" lon="17.6415916">
        <ele>21.767</ele>
        <time>2014-07-08T14:37:10Z</time>
      </trkpt>
      <trkpt lat="59.9235716" lon="17.6416005">
        <ele>21.767</ele>
        <time>2014-07-08T14:37:11Z</time>
      </trkpt>
      <trkpt lat="59.923509" lon="17.6416103">
        <ele>22.2476</ele>
        <time>2014-07-08T14:37:12Z</time>
      </trkpt>
      <trkpt lat="59.9234479" lon="17.6416201">
        <ele>22.2476</ele>
        <time>2014-07-08T14:37:13Z</time>
      </trkpt>
      <trkpt lat="59.9233883" lon="17.6416292">
        <ele>22.7283</ele>
        <time>2014-07-08T14:37:14Z</time>
      </trkpt>
      <trkpt lat="59.9233303" lon="17.6416372">
        <ele>22.7283</ele>
        <time>2014-07-08T14:37:15Z</time>
      </trkpt>
      <trkpt lat="59.9232737" lon="17.6416473">
        <ele>22.7283</ele>
        <time>2014-07-08T14:37:16Z</time>
      </trkpt>
      <trkpt lat="59.9232174" lon="17.6416592">
        <ele>23.209</ele>
        <time>2014-07-08T14:37:17Z</time>
      </trkpt>
      <trkpt lat="59.9231603" lon="17.6416674">
        <ele>23.209</ele>
        <time>2014-07-08T14:37:18Z</time>
      </trkpt>
      <trkpt lat="59.9231029" lon="17.6416726">
        <ele>23.209</ele>
        <time>2014-07-08T14:37:19Z</time>
      </trkpt>
      <trkpt lat="59.923045" lon="17.6416767">
        <ele>23.209</ele>
        <time>2014-07-08T14:37:20Z</time>
      </trkpt>
      <trkpt lat="59.9229874" lon="17.6416805">
        <ele>23.6896</ele>
        <time>2014-07-08T14:37:21Z</time>
      </trkpt>
      <trkpt lat="59.9229297" lon="17.6416845">
        <ele>23.6896</ele>
        <time>2014-07-08T14:37:22Z</time>
      </trkpt>
      <trkpt lat="59.9228729" lon="17.6416885">
        <ele>23.6896</ele>
        <time>2014-07-08T14:37:23Z</time>
      </trkpt>
      <trkpt lat="59.922817" lon="17.6416948">
        <ele>24.1703</ele>
        <time>2014-07-08T14:37:24Z</time>
      </trkpt>
      <trkpt lat="59.9227619" lon="17.6417037">
        <ele>24.1703</ele>
        <time>2014-07-08T14:37:25Z</time>
      </trkpt>
      <trkpt lat="59.9227075" lon="17.64171">
        <ele>24.1703</ele>
        <time>2014-07-08T14:37:26Z</time>
      </trkpt>
      <trkpt lat="59.9226521" lon="17.6417158">
        <ele>24.1703</ele>
        <time>2014-07-08T14:37:27Z</time>
      </trkpt>
      <trkpt lat="59.9225952" lon="17.6417242">
        <ele>24.1703</ele>
        <time>2014-07-08T14:37:28Z</time>
      </trkpt>
      <trkpt lat="59.9225371" lon="17.6417327">
        <ele>24.1703</ele>
        <time>2014-07-08T14:37:29Z</time>
      </trkpt>
      <trkpt lat="59.922478" lon="17.6417421">
        <ele>24.651</ele>
        <time>2014-07-08T14:37:30Z</time>
      </trkpt>
      <trkpt lat="59.9224184" lon="17.6417522">
        <ele>24.651</ele>
        <time>2014-07-08T14:37:31Z</time>
      </trkpt>
      <trkpt lat="59.9223576" lon="17.6417612">
        <ele>24.651</ele>
        <time>2014-07-08T14:37:32Z</time>
      </trkpt>
      <trkpt lat="59.9222964" lon="17.6417699">
        <ele>24.651</ele>
        <time>2014-07-08T14:37:33Z</time>
      </trkpt>
      <trkpt lat="59.9222348" lon="17.6417788">
        <ele>24.651</ele>
        <time>2014-07-08T14:37:34Z</time>
      </trkpt>
      <trkpt lat="59.9221726" lon="17.6417861">
        <ele>24.651</ele>
        <time>2014-07-08T14:37:35Z</time>
      </trkpt>
      <trkpt lat="59.9221095" lon="17.6417923">
        <ele>24.651</ele>
        <time>2014-07-08T14:37:36Z</time>
      </trkpt>
      <trkpt lat="59.9220457" lon="17.641798">
        <ele>24.651</ele>
        <time>2014-07-08T14:37:37Z</time>
      </trkpt>
      <trkpt lat="59.9219814" lon="17.6418054">
        <ele>24.651</ele>
        <time>2014-07-08T14:37:38Z</time>
      </trkpt>
      <trkpt lat="59.9219177" lon="17.6418182">
        <ele>24.651</ele>
        <time>2014-07-08T14:37:39Z</time>
      </trkpt>
      <trkpt lat="59.9218543" lon="17.6418326">
        <ele>24.651</ele>
        <time>2014-07-08T14:37:40Z</time>
      </trkpt>
      <trkpt lat="59.9217907" lon="17.6418404">
        <ele>24.651</ele>
        <time>2014-07-08T14:37:41Z</time>
      </trkpt>
      <trkpt lat="59.9217281" lon="17.6418441">
        <ele>24.651</ele>
        <time>2014-07-08T14:37:42Z</time>
      </trkpt>
      <trkpt lat="59.9216659" lon="17.6418529">
        <ele>24.651</ele>
        <time>2014-07-08T14:37:43Z</time>
      </trkpt>
      <trkpt lat="59.9216064" lon="17.6418627">
        <ele>24.651</ele>
        <time>2014-07-08T14:37:44Z</time>
      </trkpt>
      <trkpt lat="59.9215478" lon="17.6418716">
        <ele>24.651</ele>
        <time>2014-07-08T14:37:45Z</time>
      </trkpt>
      <trkpt lat="59.9214894" lon="17.6418796">
        <ele>24.651</ele>
        <time>2014-07-08T14:37:46Z</time>
      </trkpt>
      <trkpt lat="59.9214302" lon="17.6418862">
        <ele>24.1703</ele>
        <time>2014-07-08T14:37:47Z</time>
      </trkpt>
      <trkpt lat="59.9213701" lon="17.6418928">
        <ele>24.1703</ele>
        <time>2014-07-08T14:37:48Z</time>
      </trkpt>
      <trkpt lat="59.9213098" lon="17.6418998">
        <ele>24.1703</ele>
        <time>2014-07-08T14:37:49Z</time>
      </trkpt>
      <trkpt lat="59.9212484" lon="17.6419052">
        <ele>24.1703</ele>
        <time>2014-07-08T14:37:50Z</time>
      </trkpt>
      <trkpt lat="59.9211861" lon="17.6419114">
        <ele>23.6896</ele>
        <time>2014-07-08T14:37:51Z</time>
      </trkpt>
      <trkpt lat="59.9211224" lon="17.6419171">
        <ele>23.6896</ele>
        <time>2014-07-08T14:37:52Z</time>
      </trkpt>
      <trkpt lat="59.9210588" lon="17.6419218">
        <ele>23.6896</ele>
        <time>2014-07-08T14:37:53Z</time>
      </trkpt>
      <trkpt lat="59.9209957" lon="17.6419252">
        <ele>23.6896</ele>
        <time>2014-07-08T14:37:54Z</time>
      </trkpt>
      <trkpt lat="59.9209338" lon="17.641925">
        <ele>23.6896</ele>
        <time>2014-07-08T14:37:55Z</time>
      </trkpt>
      <trkpt lat="59.9208719" lon="17.6419232">
        <ele>23.6896</ele>
        <time>2014-07-08T14:37:56Z</time>
      </trkpt>
      <trkpt lat="59.920808" lon="17.6419233">
        <ele>23.6896</ele>
        <time>2014-07-08T14:37:57Z</time>
      </trkpt>
      <trkpt lat="59.9207421" lon="17.6419273">
        <ele>23.6896</ele>
        <time>2014-07-08T14:37:58Z</time>
      </trkpt>
      <trkpt lat="59.920675" lon="17.6419306">
        <ele>23.6896</ele>
        <time>2014-07-08T14:37:59Z</time>
      </trkpt>
      <trkpt lat="59.920606" lon="17.6419317">
        <ele>23.6896</ele>
        <time>2014-07-08T14:38:00Z</time>
      </trkpt>
      <trkpt lat="59.9205356" lon="17.6419327">
        <ele>23.6896</ele>
        <time>2014-07-08T14:38:01Z</time>
      </trkpt>
      <trkpt lat="59.9204656" lon="17.6419336">
        <ele>23.6896</ele>
        <time>2014-07-08T14:38:02Z</time>
      </trkpt>
      <trkpt lat="59.9203952" lon="17.6419349">
        <ele>23.6896</ele>
        <time>2014-07-08T14:38:03Z</time>
      </trkpt>
      <trkpt lat="59.9203256" lon="17.641938">
        <ele>23.6896</ele>
        <time>2014-07-08T14:38:04Z</time>
      </trkpt>
      <trkpt lat="59.9202565" lon="17.6419399">
        <ele>23.6896</ele>
        <time>2014-07-08T14:38:05Z</time>
      </trkpt>
      <trkpt lat="59.9201886" lon="17.6419395">
        <ele>24.1703</ele>
        <time>2014-07-08T14:38:06Z</time>
      </trkpt>
      <trkpt lat="59.9201215" lon="17.6419439">
        <ele>24.1703</ele>
        <time>2014-07-08T14:38:07Z</time>
      </trkpt>
      <trkpt lat="59.9200535" lon="17.6419528">
        <ele>23.6896</ele>
        <time>2014-07-08T14:38:08Z</time>
      </trkpt>
      <trkpt lat="59.9199839" lon="17.6419617">
        <ele>23.6896</ele>
        <time>2014-07-08T14:38:09Z</time>
      </trkpt>
      <trkpt lat="59.9199134" lon="17.6419716">
        <ele>23.6896</ele>
        <time>2014-07-08T14:38:10Z</time>
      </trkpt>
      <trkpt lat="59.9198437" lon="17.6419866">
        <ele>23.6896</ele>
        <time>2014-07-08T14:38:11Z</time>
      </trkpt>
      <trkpt lat="59.919775" lon="17.6420061">
        <ele>24.1703</ele>
        <time>2014-07-08T14:38:12Z</time>
      </trkpt>
      <trkpt lat="59.9197058" lon="17.6420257">
        <ele>24.1703</ele>
        <time>2014-07-08T14:38:13Z</time>
      </trkpt>
      <trkpt lat="59.9196358" lon="17.6420405">
        <ele>24.1703</ele>
        <time>2014-07-08T14:38:14Z</time>
      </trkpt>
      <trkpt lat="59.9195654" lon="17.6420506">
        <ele>24.1703</ele>
        <time>2014-07-08T14:38:15Z</time>
      </trkpt>
      <trkpt lat="59.9194945" lon="17.6420594">
        <ele>24.1703</ele>
        <time>2014-07-08T14:38:16Z</time>
      </trkpt>
      <trkpt lat="59.9194234" lon="17.6420674">
        <ele>24.1703</ele>
        <time>2014-07-08T14:38:17Z</time>
      </trkpt>
      <trkpt lat="59.9193531" lon="17.6420753">
        <ele>24.1703</ele>
        <time>2014-07-08T14:38:18Z</time>
      </trkpt>
      <trkpt lat="59.9192873" lon="17.6420876">
        <ele>24.1703</ele>
        <time>2014-07-08T14:38:19Z</time>
      </trkpt>
      <trkpt lat="59.9192225" lon="17.6420983">
        <ele>24.1703</ele>
        <time>2014-07-08T14:38:20Z</time>
      </trkpt>
      <trkpt lat="59.9191577" lon="17.6421047">
        <ele>24.1703</ele>
        <time>2014-07-08T14:38:21Z</time>
      </trkpt>
      <trkpt lat="59.9190965" lon="17.6421108">
        <ele>24.1703</ele>
        <time>2014-07-08T14:38:22Z</time>
      </trkpt>
      <trkpt lat="59.919037" lon="17.6421135">
        <ele>24.1703</ele>
        <time>2014-07-08T14:38:23Z</time>
      </trkpt>
      <trkpt lat="59.9189773" lon="17.6421184">
        <ele>24.1703</ele>
        <time>2014-07-08T14:38:24Z</time>
      </trkpt>
      <trkpt lat="59.9189172" lon="17.6421269">
        <ele>24.1703</ele>
        <time>2014-07-08T14:38:25Z</time>
      </trkpt>
      <trkpt lat="59.9188568" lon="17.642134">
        <ele>24.1703</ele>
        <time>2014-07-08T14:38:26Z</time>
      </trkpt>
      <trkpt lat="59.9187962" lon="17.6421419">
        <ele>24.1703</ele>
        <time>2014-07-08T14:38:27Z</time>
      </trkpt>
      <trkpt lat="59.9187361" lon="17.6421522">
        <ele>24.1703</ele>
        <time>2014-07-08T14:38:28Z</time>
      </trkpt>
      <trkpt lat="59.9186766" lon="17.6421596">
        <ele>24.651</ele>
        <time>2014-07-08T14:38:29Z</time>
      </trkpt>
      <trkpt lat="59.9186178" lon="17.6421656">
        <ele>24.651</ele>
        <time>2014-07-08T14:38:30Z</time>
      </trkpt>
      <trkpt lat="59.9185611" lon="17.6421742">
        <ele>24.651</ele>
        <time>2014-07-08T14:38:31Z</time>
      </trkpt>
      <trkpt lat="59.9185114" lon="17.642186">
        <ele>24.651</ele>
        <time>2014-07-08T14:38:32Z</time>
      </trkpt>
      <trkpt lat="59.9184703" lon="17.6421964">
        <ele>24.651</ele>
        <time>2014-07-08T14:38:33Z</time>
      </trkpt>
      <trkpt lat="59.9184378" lon="17.6422048">
        <ele>24.651</ele>
        <time>2014-07-08T14:38:34Z</time>
      </trkpt>
      <trkpt lat="59.9184162" lon="17.6422115">
        <ele>24.651</ele>
        <time>2014-07-08T14:38:35Z</time>
      </trkpt>
      <trkpt lat="59.9184033" lon="17.6422089">
        <ele>24.651</ele>
        <time>2014-07-08T14:38:36Z</time>
      </trkpt>
      <trkpt lat="59.9183906" lon="17.6422046">
        <ele>24.651</ele>
        <time>2014-07-08T14:38:37Z</time>
      </trkpt>
      <trkpt lat="59.918373" lon="17.6422084">
        <ele>24.651</ele>
        <time>2014-07-08T14:38:38Z</time>
      </trkpt>
      <trkpt lat="59.9183503" lon="17.6422143">
        <ele>24.651</ele>
        <time>2014-07-08T14:38:39Z</time>
      </trkpt>
      <trkpt lat="59.9183235" lon="17.6422162">
        <ele>24.651</ele>
        <time>2014-07-08T14:38:40Z</time>
      </trkpt>
      <trkpt lat="59.9182942" lon="17.6422146">
        <ele>24.651</ele>
        <time>2014-07-08T14:38:41Z</time>
      </trkpt>
      <trkpt lat="59.9182669" lon="17.6422138">
        <ele>24.651</ele>
        <time>2014-07-08T14:38:42Z</time>
      </trkpt>
      <trkpt lat="59.9182465" lon="17.6422307">
        <ele>24.651</ele>
        <time>2014-07-08T14:38:43Z</time>
      </trkpt>
      <trkpt lat="59.9182366" lon="17.6422704">
        <ele>25.1317</ele>
        <time>2014-07-08T14:38:44Z</time>
      </trkpt>
      <trkpt lat="59.9182318" lon="17.642316">
        <ele>25.1317</ele>
        <time>2014-07-08T14:38:45Z</time>
      </trkpt>
      <trkpt lat="59.9182169" lon="17.6423497">
        <ele>25.1317</ele>
        <time>2014-07-08T14:38:46Z</time>
      </trkpt>
      <trkpt lat="59.918189" lon="17.6423604">
        <ele>24.651</ele>
        <time>2014-07-08T14:38:47Z</time>
      </trkpt>
      <trkpt lat="59.9181543" lon="17.642356">
        <ele>24.651</ele>
        <time>2014-07-08T14:38:48Z</time>
      </trkpt>
      <trkpt lat="59.9181137" lon="17.6423538">
        <ele>24.651</ele>
        <time>2014-07-08T14:38:49Z</time>
      </trkpt>
      <trkpt lat="59.9180676" lon="17.6423565">
        <ele>24.651</ele>
        <time>2014-07-08T14:38:50Z</time>
      </trkpt>
      <trkpt lat="59.9180171" lon="17.6423606">
        <ele>24.1703</ele>
        <time>2014-07-08T14:38:51Z</time>
      </trkpt>
      <trkpt lat="59.9179635" lon="17.6423669">
        <ele>24.1703</ele>
        <time>2014-07-08T14:38:52Z</time>
      </trkpt>
      <trkpt lat="59.9179062" lon="17.6423735">
        <ele>24.1703</ele>
        <time>2014-07-08T14:38:53Z</time>
      </trkpt>
      <trkpt lat="59.9178459" lon="17.6423773">
        <ele>24.1703</ele>
        <time>2014-07-08T14:38:54Z</time>
      </trkpt>
      <trkpt lat="59.9177829" lon="17.6423834">
        <ele>23.6896</ele>
        <time>2014-07-08T14:38:55Z</time>
      </trkpt>
      <trkpt lat="59.9177181" lon="17.6423921">
        <ele>23.6896</ele>
        <time>2014-07-08T14:38:56Z</time>
      </trkpt>
      <trkpt lat="59.9176514" lon="17.6423995">
        <ele>23.6896</ele>
        <time>2014-07-08T14:38:57Z</time>
      </trkpt>
      <trkpt lat="59.9175834" lon="17.6424055">
        <ele>23.6896</ele>
        <time>2014-07-08T14:38:58Z</time>
      </trkpt>
      <trkpt lat="59.9175155" lon="17.6424118">
        <ele>23.6896</ele>
        <time>2014-07-08T14:38:59Z</time>
      </trkpt>
      <trkpt lat="59.9174488" lon="17.6424195">
        <ele>23.6896</ele>
        <time>2014-07-08T14:39:00Z</time>
      </trkpt>
      <trkpt lat="59.9173838" lon="17.6424267">
        <ele>23.6896</ele>
        <time>2014-07-08T14:39:01Z</time>
      </trkpt>
      <trkpt lat="59.9173209" lon="17.6424327">
        <ele>23.6896</ele>
        <time>2014-07-08T14:39:02Z</time>
      </trkpt>
      <trkpt lat="59.9172606" lon="17.6424401">
        <ele>23.6896</ele>
        <time>2014-07-08T14:39:03Z</time>
      </trkpt>
      <trkpt lat="59.9172023" lon="17.6424471">
        <ele>23.6896</ele>
        <time>2014-07-08T14:39:04Z</time>
      </trkpt>
      <trkpt lat="59.9171462" lon="17.6424521">
        <ele>23.6896</ele>
        <time>2014-07-08T14:39:05Z</time>
      </trkpt>
      <trkpt lat="59.9170914" lon="17.6424572">
        <ele>23.6896</ele>
        <time>2014-07-08T14:39:06Z</time>
      </trkpt>
      <trkpt lat="59.9170374" lon="17.6424632">
        <ele>23.6896</ele>
        <time>2014-07-08T14:39:07Z</time>
      </trkpt>
      <trkpt lat="59.9169832" lon="17.6424695">
        <ele>23.6896</ele>
        <time>2014-07-08T14:39:08Z</time>
      </trkpt>
      <trkpt lat="59.9169287" lon="17.6424761">
        <ele>23.6896</ele>
        <time>2014-07-08T14:39:09Z</time>
      </trkpt>
      <trkpt lat="59.9168737" lon="17.6424831">
        <ele>23.6896</ele>
        <time>2014-07-08T14:39:10Z</time>
      </trkpt>
      <trkpt lat="59.9168179" lon="17.6424911">
        <ele>23.6896</ele>
        <time>2014-07-08T14:39:11Z</time>
      </trkpt>
      <trkpt lat="59.9167626" lon="17.6424994">
        <ele>23.6896</ele>
        <time>2014-07-08T14:39:12Z</time>
      </trkpt>
      <trkpt lat="59.9167091" lon="17.6425071">
        <ele>23.6896</ele>
        <time>2014-07-08T14:39:13Z</time>
      </trkpt>
      <trkpt lat="59.9166587" lon="17.6425149">
        <ele>23.6896</ele>
        <time>2014-07-08T14:39:14Z</time>
      </trkpt>
      <trkpt lat="59.9166142" lon="17.6425139">
        <ele>23.6896</ele>
        <time>2014-07-08T14:39:15Z</time>
      </trkpt>
      <trkpt lat="59.9165785" lon="17.6424885">
        <ele>23.6896</ele>
        <time>2014-07-08T14:39:16Z</time>
      </trkpt>
      <trkpt lat="59.9165516" lon="17.6424401">
        <ele>23.209</ele>
        <time>2014-07-08T14:39:17Z</time>
      </trkpt>
      <trkpt lat="59.9165256" lon="17.6423954">
        <ele>23.209</ele>
        <time>2014-07-08T14:39:18Z</time>
      </trkpt>
      <trkpt lat="59.916493" lon="17.6423759">
        <ele>23.209</ele>
        <time>2014-07-08T14:39:19Z</time>
      </trkpt>
      <trkpt lat="59.9164545" lon="17.6423756">
        <ele>23.209</ele>
        <time>2014-07-08T14:39:20Z</time>
      </trkpt>
      <trkpt lat="59.9164132" lon="17.6423834">
        <ele>23.209</ele>
        <time>2014-07-08T14:39:21Z</time>
      </trkpt>
      <trkpt lat="59.9163698" lon="17.6423927">
        <ele>23.209</ele>
        <time>2014-07-08T14:39:22Z</time>
      </trkpt>
      <trkpt lat="59.9163243" lon="17.6424004">
        <ele>23.6896</ele>
        <time>2014-07-08T14:39:23Z</time>
      </trkpt>
      <trkpt lat="59.9162771" lon="17.6424054">
        <ele>23.6896</ele>
        <time>2014-07-08T14:39:24Z</time>
      </trkpt>
      <trkpt lat="59.9162278" lon="17.6424097">
        <ele>23.6896</ele>
        <time>2014-07-08T14:39:25Z</time>
      </trkpt>
      <trkpt lat="59.9161758" lon="17.6424139">
        <ele>23.209</ele>
        <time>2014-07-08T14:39:26Z</time>
      </trkpt>
      <trkpt lat="59.916121" lon="17.6424165">
        <ele>23.209</ele>
        <time>2014-07-08T14:39:27Z</time>
      </trkpt>
      <trkpt lat="59.9160631" lon="17.6424181">
        <ele>23.209</ele>
        <time>2014-07-08T14:39:28Z</time>
      </trkpt>
      <trkpt lat="59.9160028" lon="17.6424192">
        <ele>23.209</ele>
        <time>2014-07-08T14:39:29Z</time>
      </trkpt>
      <trkpt lat="59.9159396" lon="17.6424194">
        <ele>23.209</ele>
        <time>2014-07-08T14:39:30Z</time>
      </trkpt>
      <trkpt lat="59.9158736" lon="17.6424206">
        <ele>22.7283</ele>
        <time>2014-07-08T14:39:31Z</time>
      </trkpt>
      <trkpt lat="59.915807" lon="17.6424223">
        <ele>22.7283</ele>
        <time>2014-07-08T14:39:32Z</time>
      </trkpt>
      <trkpt lat="59.9157407" lon="17.6424253">
        <ele>22.7283</ele>
        <time>2014-07-08T14:39:33Z</time>
      </trkpt>
      <trkpt lat="59.9156752" lon="17.6424311">
        <ele>22.7283</ele>
        <time>2014-07-08T14:39:34Z</time>
      </trkpt>
      <trkpt lat="59.9156113" lon="17.6424401">
        <ele>22.7283</ele>
        <time>2014-07-08T14:39:35Z</time>
      </trkpt>
      <trkpt lat="59.9155481" lon="17.6424513">
        <ele>22.7283</ele>
        <time>2014-07-08T14:39:36Z</time>
      </trkpt>
      <trkpt lat="59.915486" lon="17.6424643">
        <ele>22.7283</ele>
        <time>2014-07-08T14:39:37Z</time>
      </trkpt>
      <trkpt lat="59.9154245" lon="17.6424777">
        <ele>22.7283</ele>
        <time>2014-07-08T14:39:38Z</time>
      </trkpt>
      <trkpt lat="59.9153642" lon="17.6424931">
        <ele>22.7283</ele>
        <time>2014-07-08T14:39:39Z</time>
      </trkpt>
      <trkpt lat="59.9153056" lon="17.6425196">
        <ele>22.7283</ele>
        <time>2014-07-08T14:39:40Z</time>
      </trkpt>
      <trkpt lat="59.9152518" lon="17.6425579">
        <ele>23.209</ele>
        <time>2014-07-08T14:39:41Z</time>
      </trkpt>
      <trkpt lat="59.9152066" lon="17.6425966">
        <ele>23.6896</ele>
        <time>2014-07-08T14:39:42Z</time>
      </trkpt>
      <trkpt lat="59.9151675" lon="17.6426277">
        <ele>24.1703</ele>
        <time>2014-07-08T14:39:43Z</time>
      </trkpt>
      <trkpt lat="59.9151298" lon="17.642653">
        <ele>24.1703</ele>
        <time>2014-07-08T14:39:44Z</time>
      </trkpt>
      <trkpt lat="59.915092" lon="17.6426724">
        <ele>24.1703</ele>
        <time>2014-07-08T14:39:45Z</time>
      </trkpt>
      <trkpt lat="59.9150519" lon="17.6426842">
        <ele>24.1703</ele>
        <time>2014-07-08T14:39:46Z</time>
      </trkpt>
      <trkpt lat="59.9150085" lon="17.642689">
        <ele>24.1703</ele>
        <time>2014-07-08T14:39:47Z</time>
      </trkpt>
      <trkpt lat="59.914964" lon="17.64269">
        <ele>24.1703</ele>
        <time>2014-07-08T14:39:48Z</time>
      </trkpt>
      <trkpt lat="59.9149192" lon="17.6426927">
        <ele>24.651</ele>
        <time>2014-07-08T14:39:49Z</time>
      </trkpt>
      <trkpt lat="59.9148738" lon="17.6427025">
        <ele>24.651</ele>
        <time>2014-07-08T14:39:50Z</time>
      </trkpt>
      <trkpt lat="59.914827" lon="17.6427148">
        <ele>24.651</ele>
        <time>2014-07-08T14:39:51Z</time>
      </trkpt>
      <trkpt lat="59.9147791" lon="17.6427237">
        <ele>24.651</ele>
        <time>2014-07-08T14:39:52Z</time>
      </trkpt>
      <trkpt lat="59.9147304" lon="17.6427309">
        <ele>25.1317</ele>
        <time>2014-07-08T14:39:53Z</time>
      </trkpt>
      <trkpt lat="59.9146811" lon="17.6427378">
        <ele>25.1317</ele>
        <time>2014-07-08T14:39:54Z</time>
      </trkpt>
      <trkpt lat="59.9146311" lon="17.6427465">
        <ele>25.1317</ele>
        <time>2014-07-08T14:39:55Z</time>
      </trkpt>
      <trkpt lat="59.9145797" lon="17.642757">
        <ele>25.6123</ele>
        <time>2014-07-08T14:39:56Z</time>
      </trkpt>
      <trkpt lat="59.9145277" lon="17.6427677">
        <ele>25.6123</ele>
        <time>2014-07-08T14:39:57Z</time>
      </trkpt>
      <trkpt lat="59.9144755" lon="17.6427781">
        <ele>25.6123</ele>
        <time>2014-07-08T14:39:58Z</time>
      </trkpt>
      <trkpt lat="59.9144231" lon="17.6427877">
        <ele>25.6123</ele>
        <time>2014-07-08T14:39:59Z</time>
      </trkpt>
      <trkpt lat="59.9143708" lon="17.6427952">
        <ele>26.0929</ele>
        <time>2014-07-08T14:40:00Z</time>
      </trkpt>
      <trkpt lat="59.914319" lon="17.642802">
        <ele>26.0929</ele>
        <time>2014-07-08T14:40:01Z</time>
      </trkpt>
      <trkpt lat="59.9142681" lon="17.6428112">
        <ele>26.0929</ele>
        <time>2014-07-08T14:40:02Z</time>
      </trkpt>
      <trkpt lat="59.9142181" lon="17.6428225">
        <ele>26.5736</ele>
        <time>2014-07-08T14:40:03Z</time>
      </trkpt>
      <trkpt lat="59.9141698" lon="17.6428345">
        <ele>26.5736</ele>
        <time>2014-07-08T14:40:04Z</time>
      </trkpt>
      <trkpt lat="59.9141225" lon="17.6428479">
        <ele>26.5736</ele>
        <time>2014-07-08T14:40:05Z</time>
      </trkpt>
      <trkpt lat="59.914075" lon="17.6428587">
        <ele>26.5736</ele>
        <time>2014-07-08T14:40:06Z</time>
      </trkpt>
      <trkpt lat="59.9140278" lon="17.6428656">
        <ele>27.0543</ele>
        <time>2014-07-08T14:40:07Z</time>
      </trkpt>
      <trkpt lat="59.9139811" lon="17.6428734">
        <ele>27.0543</ele>
        <time>2014-07-08T14:40:08Z</time>
      </trkpt>
      <trkpt lat="59.9139347" lon="17.6428807">
        <ele>27.0543</ele>
        <time>2014-07-08T14:40:09Z</time>
      </trkpt>
      <trkpt lat="59.9138888" lon="17.6428879">
        <ele>27.0543</ele>
        <time>2014-07-08T14:40:10Z</time>
      </trkpt>
      <trkpt lat="59.9138427" lon="17.642896">
        <ele>27.5349</ele>
        <time>2014-07-08T14:40:11Z</time>
      </trkpt>
      <trkpt lat="59.9137963" lon="17.642905">
        <ele>27.5349</ele>
        <time>2014-07-08T14:40:12Z</time>
      </trkpt>
      <trkpt lat="59.91375" lon="17.6429139">
        <ele>27.5349</ele>
        <time>2014-07-08T14:40:13Z</time>
      </trkpt>
      <trkpt lat="59.9137036" lon="17.6429222">
        <ele>28.0155</ele>
        <time>2014-07-08T14:40:14Z</time>
      </trkpt>
      <trkpt lat="59.9136575" lon="17.6429315">
        <ele>28.0155</ele>
        <time>2014-07-08T14:40:15Z</time>
      </trkpt>
      <trkpt lat="59.9136105" lon="17.6429418">
        <ele>28.0155</ele>
        <time>2014-07-08T14:40:16Z</time>
      </trkpt>
      <trkpt lat="59.9135623" lon="17.6429528">
        <ele>28.0155</ele>
        <time>2014-07-08T14:40:17Z</time>
      </trkpt>
      <trkpt lat="59.913513" lon="17.642964">
        <ele>28.4962</ele>
        <time>2014-07-08T14:40:18Z</time>
      </trkpt>
      <trkpt lat="59.9134623" lon="17.6429716">
        <ele>28.4962</ele>
        <time>2014-07-08T14:40:19Z</time>
      </trkpt>
      <trkpt lat="59.9134105" lon="17.6429785">
        <ele>28.4962</ele>
        <time>2014-07-08T14:40:20Z</time>
      </trkpt>
      <trkpt lat="59.9133584" lon="17.6429895">
        <ele>28.4962</ele>
        <time>2014-07-08T14:40:21Z</time>
      </trkpt>
      <trkpt lat="59.9133053" lon="17.6430034">
        <ele>28.4962</ele>
        <time>2014-07-08T14:40:22Z</time>
      </trkpt>
      <trkpt lat="59.9132514" lon="17.6430184">
        <ele>28.4962</ele>
        <time>2014-07-08T14:40:23Z</time>
      </trkpt>
      <trkpt lat="59.913198" lon="17.6430324">
        <ele>28.4962</ele>
        <time>2014-07-08T14:40:24Z</time>
      </trkpt>
      <trkpt lat="59.9131451" lon="17.6430449">
        <ele>28.4962</ele>
        <time>2014-07-08T14:40:25Z</time>
      </trkpt>
      <trkpt lat="59.9130921" lon="17.6430577">
        <ele>28.4962</ele>
        <time>2014-07-08T14:40:26Z</time>
      </trkpt>
      <trkpt lat="59.9130386" lon="17.6430711">
        <ele>28.4962</ele>
        <time>2014-07-08T14:40:27Z</time>
      </trkpt>
      <trkpt lat="59.9129846" lon="17.6430838">
        <ele>28.9769</ele>
        <time>2014-07-08T14:40:28Z</time>
      </trkpt>
      <trkpt lat="59.912929" lon="17.6430954">
        <ele>28.9769</ele>
        <time>2014-07-08T14:40:29Z</time>
      </trkpt>
      <trkpt lat="59.9128737" lon="17.6431049">
        <ele>28.4962</ele>
        <time>2014-07-08T14:40:30Z</time>
      </trkpt>
      <trkpt lat="59.9128178" lon="17.6431096">
        <ele>28.4962</ele>
        <time>2014-07-08T14:40:31Z</time>
      </trkpt>
      <trkpt lat="59.9127602" lon="17.6431065">
        <ele>28.4962</ele>
        <time>2014-07-08T14:40:32Z</time>
      </trkpt>
      <trkpt lat="59.9126992" lon="17.6430899">
        <ele>28.0155</ele>
        <time>2014-07-08T14:40:33Z</time>
      </trkpt>
      <trkpt lat="59.9126333" lon="17.6430628">
        <ele>27.5349</ele>
        <time>2014-07-08T14:40:34Z</time>
      </trkpt>
      <trkpt lat="59.9125617" lon="17.6430413">
        <ele>27.0543</ele>
        <time>2014-07-08T14:40:35Z</time>
      </trkpt>
      <trkpt lat="59.9124883" lon="17.6430361">
        <ele>27.0543</ele>
        <time>2014-07-08T14:40:36Z</time>
      </trkpt>
      <trkpt lat="59.9124164" lon="17.6430441">
        <ele>27.0543</ele>
        <time>2014-07-08T14:40:37Z</time>
      </trkpt>
      <trkpt lat="59.9123464" lon="17.6430577">
        <ele>27.0543</ele>
        <time>2014-07-08T14:40:38Z</time>
      </trkpt>
      <trkpt lat="59.912278" lon="17.6430743">
        <ele>27.0543</ele>
        <time>2014-07-08T14:40:39Z</time>
      </trkpt>
      <trkpt lat="59.9122107" lon="17.643094">
        <ele>27.0543</ele>
        <time>2014-07-08T14:40:40Z</time>
      </trkpt>
      <trkpt lat="59.9121449" lon="17.6431132">
        <ele>27.0543</ele>
        <time>2014-07-08T14:40:41Z</time>
      </trkpt>
      <trkpt lat="59.9120807" lon="17.6431301">
        <ele>27.5349</ele>
        <time>2014-07-08T14:40:42Z</time>
      </trkpt>
      <trkpt lat="59.9120185" lon="17.6431458">
        <ele>27.5349</ele>
        <time>2014-07-08T14:40:43Z</time>
      </trkpt>
      <trkpt lat="59.9119585" lon="17.6431619">
        <ele>27.5349</ele>
        <time>2014-07-08T14:40:44Z</time>
      </trkpt>
      <trkpt lat="59.9118983" lon="17.6431791">
        <ele>27.5349</ele>
        <time>2014-07-08T14:40:45Z</time>
      </trkpt>
      <trkpt lat="59.911838" lon="17.6431946">
        <ele>27.5349</ele>
        <time>2014-07-08T14:40:46Z</time>
      </trkpt>
      <trkpt lat="59.9117764" lon="17.643207">
        <ele>27.5349</ele>
        <time>2014-07-08T14:40:47Z</time>
      </trkpt>
      <trkpt lat="59.9117132" lon="17.6432205">
        <ele>27.5349</ele>
        <time>2014-07-08T14:40:48Z</time>
      </trkpt>
      <trkpt lat="59.9116482" lon="17.6432334">
        <ele>27.5349</ele>
        <time>2014-07-08T14:40:49Z</time>
      </trkpt>
      <trkpt lat="59.9115843" lon="17.6432405">
        <ele>27.5349</ele>
        <time>2014-07-08T14:40:50Z</time>
      </trkpt>
      <trkpt lat="59.9115213" lon="17.6432487">
        <ele>27.5349</ele>
        <time>2014-07-08T14:40:51Z</time>
      </trkpt>
      <trkpt lat="59.9114612" lon="17.6432588">
        <ele>27.5349</ele>
        <time>2014-07-08T14:40:52Z</time>
      </trkpt>
      <trkpt lat="59.9114025" lon="17.6432682">
        <ele>27.5349</ele>
        <time>2014-07-08T14:40:53Z</time>
      </trkpt>
      <trkpt lat="59.9113441" lon="17.6432819">
        <ele>27.5349</ele>
        <time>2014-07-08T14:40:54Z</time>
      </trkpt>
      <trkpt lat="59.9112855" lon="17.6433033">
        <ele>27.5349</ele>
        <time>2014-07-08T14:40:55Z</time>
      </trkpt>
      <trkpt lat="59.9112249" lon="17.6433303">
        <ele>27.0543</ele>
        <time>2014-07-08T14:40:56Z</time>
      </trkpt>
      <trkpt lat="59.9111631" lon="17.6433488">
        <ele>27.0543</ele>
        <time>2014-07-08T14:40:57Z</time>
      </trkpt>
      <trkpt lat="59.9111002" lon="17.6433601">
        <ele>27.0543</ele>
        <time>2014-07-08T14:40:58Z</time>
      </trkpt>
      <trkpt lat="59.9110364" lon="17.6433728">
        <ele>27.0543</ele>
        <time>2014-07-08T14:40:59Z</time>
      </trkpt>
      <trkpt lat="59.910971" lon="17.6433839">
        <ele>26.5736</ele>
        <time>2014-07-08T14:41:00Z</time>
      </trkpt>
      <trkpt lat="59.9109035" lon="17.643394">
        <ele>26.5736</ele>
        <time>2014-07-08T14:41:01Z</time>
      </trkpt>
      <trkpt lat="59.9108349" lon="17.643408">
        <ele>26.0929</ele>
        <time>2014-07-08T14:41:02Z</time>
      </trkpt>
      <trkpt lat="59.9107654" lon="17.6434225">
        <ele>26.0929</ele>
        <time>2014-07-08T14:41:03Z</time>
      </trkpt>
      <trkpt lat="59.9106946" lon="17.6434329">
        <ele>26.0929</ele>
        <time>2014-07-08T14:41:04Z</time>
      </trkpt>
      <trkpt lat="59.9106235" lon="17.6434463">
        <ele>25.6123</ele>
        <time>2014-07-08T14:41:05Z</time>
      </trkpt>
      <trkpt lat="59.9105539" lon="17.6434749">
        <ele>26.0929</ele>
        <time>2014-07-08T14:41:06Z</time>
      </trkpt>
      <trkpt lat="59.9104866" lon="17.6435137">
        <ele>26.0929</ele>
        <time>2014-07-08T14:41:07Z</time>
      </trkpt>
      <trkpt lat="59.9104223" lon="17.6435489">
        <ele>26.0929</ele>
        <time>2014-07-08T14:41:08Z</time>
      </trkpt>
      <trkpt lat="59.9103581" lon="17.6435727">
        <ele>25.6123</ele>
        <time>2014-07-08T14:41:09Z</time>
      </trkpt>
      <trkpt lat="59.9102925" lon="17.6435832">
        <ele>25.6123</ele>
        <time>2014-07-08T14:41:10Z</time>
      </trkpt>
      <trkpt lat="59.9102257" lon="17.6435888">
        <ele>25.6123</ele>
        <time>2014-07-08T14:41:11Z</time>
      </trkpt>
      <trkpt lat="59.9101578" lon="17.643594">
        <ele>25.6123</ele>
        <time>2014-07-08T14:41:12Z</time>
      </trkpt>
      <trkpt lat="59.91009" lon="17.6435924">
        <ele>25.1317</ele>
        <time>2014-07-08T14:41:13Z</time>
      </trkpt>
      <trkpt lat="59.9100201" lon="17.64358">
        <ele>24.651</ele>
        <time>2014-07-08T14:41:14Z</time>
      </trkpt>
      <trkpt lat="59.9099473" lon="17.6435583">
        <ele>24.651</ele>
        <time>2014-07-08T14:41:15Z</time>
      </trkpt>
      <trkpt lat="59.9098718" lon="17.6435342">
        <ele>24.1703</ele>
        <time>2014-07-08T14:41:16Z</time>
      </trkpt>
      <trkpt lat="59.9097961" lon="17.6435198">
        <ele>24.1703</ele>
        <time>2014-07-08T14:41:17Z</time>
      </trkpt>
      <trkpt lat="59.9097196" lon="17.6435213">
        <ele>23.6896</ele>
        <time>2014-07-08T14:41:18Z</time>
      </trkpt>
      <trkpt lat="59.9096432" lon="17.643536">
        <ele>24.1703</ele>
        <time>2014-07-08T14:41:19Z</time>
      </trkpt>
      <trkpt lat="59.9095655" lon="17.6435544">
        <ele>24.1703</ele>
        <time>2014-07-08T14:41:20Z</time>
      </trkpt>
      <trkpt lat="59.9094878" lon="17.6435707">
        <ele>24.1703</ele>
        <time>2014-07-08T14:41:21Z</time>
      </trkpt>
      <trkpt lat="59.9094098" lon="17.6435852">
        <ele>24.1703</ele>
        <time>2014-07-08T14:41:22Z</time>
      </trkpt>
      <trkpt lat="59.9093325" lon="17.6435991">
        <ele>24.1703</ele>
        <time>2014-07-08T14:41:23Z</time>
      </trkpt>
      <trkpt lat="59.9092555" lon="17.643613">
        <ele>24.1703</ele>
        <time>2014-07-08T14:41:24Z</time>
      </trkpt>
      <trkpt lat="59.9091788" lon="17.6436262">
        <ele>24.1703</ele>
        <time>2014-07-08T14:41:25Z</time>
      </trkpt>
      <trkpt lat="59.9091021" lon="17.6436389">
        <ele>24.651</ele>
        <time>2014-07-08T14:41:26Z</time>
      </trkpt>
      <trkpt lat="59.909025" lon="17.64365">
        <ele>24.651</ele>
        <time>2014-07-08T14:41:27Z</time>
      </trkpt>
      <trkpt lat="59.9089472" lon="17.6436613">
        <ele>24.651</ele>
        <time>2014-07-08T14:41:28Z</time>
      </trkpt>
      <trkpt lat="59.9088683" lon="17.6436751">
        <ele>24.651</ele>
        <time>2014-07-08T14:41:29Z</time>
      </trkpt>
      <trkpt lat="59.9087876" lon="17.6436912">
        <ele>24.651</ele>
        <time>2014-07-08T14:41:30Z</time>
      </trkpt>
      <trkpt lat="59.9087052" lon="17.6437046">
        <ele>24.651</ele>
        <time>2014-07-08T14:41:31Z</time>
      </trkpt>
      <trkpt lat="59.9086223" lon="17.6437104">
        <ele>24.651</ele>
        <time>2014-07-08T14:41:32Z</time>
      </trkpt>
      <trkpt lat="59.9085396" lon="17.6437108">
        <ele>24.651</ele>
        <time>2014-07-08T14:41:33Z</time>
      </trkpt>
      <trkpt lat="59.9084575" lon="17.6437069">
        <ele>24.651</ele>
        <time>2014-07-08T14:41:34Z</time>
      </trkpt>
      <trkpt lat="59.9083774" lon="17.6436971">
        <ele>24.651</ele>
        <time>2014-07-08T14:41:35Z</time>
      </trkpt>
      <trkpt lat="59.9082992" lon="17.6436844">
        <ele>24.651</ele>
        <time>2014-07-08T14:41:36Z</time>
      </trkpt>
      <trkpt lat="59.9082215" lon="17.6436711">
        <ele>24.651</ele>
        <time>2014-07-08T14:41:37Z</time>
      </trkpt>
      <trkpt lat="59.9081433" lon="17.6436604">
        <ele>24.651</ele>
        <time>2014-07-08T14:41:38Z</time>
      </trkpt>
      <trkpt lat="59.9080655" lon="17.6436489">
        <ele>24.651</ele>
        <time>2014-07-08T14:41:39Z</time>
      </trkpt>
      <trkpt lat="59.9079873" lon="17.6436364">
        <ele>24.651</ele>
        <time>2014-07-08T14:41:40Z</time>
      </trkpt>
      <trkpt lat="59.9079101" lon="17.643624">
        <ele>24.1703</ele>
        <time>2014-07-08T14:41:41Z</time>
      </trkpt>
      <trkpt lat="59.907834" lon="17.6436112">
        <ele>24.1703</ele>
        <time>2014-07-08T14:41:42Z</time>
      </trkpt>
      <trkpt lat="59.9077589" lon="17.6435984">
        <ele>24.1703</ele>
        <time>2014-07-08T14:41:43Z</time>
      </trkpt>
      <trkpt lat="59.9076847" lon="17.643586">
        <ele>24.1703</ele>
        <time>2014-07-08T14:41:44Z</time>
      </trkpt>
      <trkpt lat="59.9076106" lon="17.6435726">
        <ele>24.1703</ele>
        <time>2014-07-08T14:41:45Z</time>
      </trkpt>
      <trkpt lat="59.9075362" lon="17.643559">
        <ele>23.6896</ele>
        <time>2014-07-08T14:41:46Z</time>
      </trkpt>
      <trkpt lat="59.9074616" lon="17.6435432">
        <ele>23.6896</ele>
        <time>2014-07-08T14:41:47Z</time>
      </trkpt>
      <trkpt lat="59.907387" lon="17.6435262">
        <ele>23.6896</ele>
        <time>2014-07-08T14:41:48Z</time>
      </trkpt>
      <trkpt lat="59.9073127" lon="17.6435106">
        <ele>23.6896</ele>
        <time>2014-07-08T14:41:49Z</time>
      </trkpt>
      <trkpt lat="59.9072391" lon="17.6434941">
        <ele>23.6896</ele>
        <time>2014-07-08T14:41:50Z</time>
      </trkpt>
      <trkpt lat="59.9071656" lon="17.64348">
        <ele>23.6896</ele>
        <time>2014-07-08T14:41:51Z</time>
      </trkpt>
      <trkpt lat="59.9070922" lon="17.643467">
        <ele>23.6896</ele>
        <time>2014-07-08T14:41:52Z</time>
      </trkpt>
      <trkpt lat="59.9070195" lon="17.643452">
        <ele>23.6896</ele>
        <time>2014-07-08T14:41:53Z</time>
      </trkpt>
      <trkpt lat="59.9069499" lon="17.6434422">
        <ele>23.6896</ele>
        <time>2014-07-08T14:41:54Z</time>
      </trkpt>
      <trkpt lat="59.9068809" lon="17.6434302">
        <ele>23.6896</ele>
        <time>2014-07-08T14:41:55Z</time>
      </trkpt>
      <trkpt lat="59.9068103" lon="17.6434126">
        <ele>23.6896</ele>
        <time>2014-07-08T14:41:56Z</time>
      </trkpt>
      <trkpt lat="59.9067413" lon="17.6433943">
        <ele>23.6896</ele>
        <time>2014-07-08T14:41:57Z</time>
      </trkpt>
      <trkpt lat="59.9066732" lon="17.6433731">
        <ele>23.209</ele>
        <time>2014-07-08T14:41:58Z</time>
      </trkpt>
      <trkpt lat="59.9066058" lon="17.6433526">
        <ele>23.209</ele>
        <time>2014-07-08T14:41:59Z</time>
      </trkpt>
      <trkpt lat="59.9065384" lon="17.643336">
        <ele>23.209</ele>
        <time>2014-07-08T14:42:00Z</time>
      </trkpt>
      <trkpt lat="59.9064707" lon="17.6433169">
        <ele>23.209</ele>
        <time>2014-07-08T14:42:01Z</time>
      </trkpt>
      <trkpt lat="59.9064044" lon="17.6432894">
        <ele>22.7283</ele>
        <time>2014-07-08T14:42:02Z</time>
      </trkpt>
      <trkpt lat="59.906338" lon="17.6432608">
        <ele>22.7283</ele>
        <time>2014-07-08T14:42:03Z</time>
      </trkpt>
      <trkpt lat="59.906271" lon="17.643232">
        <ele>22.7283</ele>
        <time>2014-07-08T14:42:04Z</time>
      </trkpt>
      <trkpt lat="59.9062034" lon="17.6432027">
        <ele>22.2476</ele>
        <time>2014-07-08T14:42:05Z</time>
      </trkpt>
      <trkpt lat="59.9061358" lon="17.6431731">
        <ele>22.2476</ele>
        <time>2014-07-08T14:42:06Z</time>
      </trkpt>
      <trkpt lat="59.9060681" lon="17.6431428">
        <ele>21.767</ele>
        <time>2014-07-08T14:42:07Z</time>
      </trkpt>
      <trkpt lat="59.9060011" lon="17.643111">
        <ele>21.767</ele>
        <time>2014-07-08T14:42:08Z</time>
      </trkpt>
      <trkpt lat="59.905935" lon="17.6430776">
        <ele>21.767</ele>
        <time>2014-07-08T14:42:09Z</time>
      </trkpt>
      <trkpt lat="59.9058703" lon="17.6430432">
        <ele>21.2864</ele>
        <time>2014-07-08T14:42:10Z</time>
      </trkpt>
      <trkpt lat="59.9058075" lon="17.6430102">
        <ele>21.2864</ele>
        <time>2014-07-08T14:42:11Z</time>
      </trkpt>
      <trkpt lat="59.9057457" lon="17.642981">
        <ele>21.2864</ele>
        <time>2014-07-08T14:42:12Z</time>
      </trkpt>
      <trkpt lat="59.9056858" lon="17.6429537">
        <ele>21.2864</ele>
        <time>2014-07-08T14:42:13Z</time>
      </trkpt>
      <trkpt lat="59.9056283" lon="17.6429308">
        <ele>21.2864</ele>
        <time>2014-07-08T14:42:14Z</time>
      </trkpt>
      <trkpt lat="59.9055745" lon="17.6429128">
        <ele>21.2864</ele>
        <time>2014-07-08T14:42:15Z</time>
      </trkpt>
      <trkpt lat="59.9055283" lon="17.6428972">
        <ele>21.2864</ele>
        <time>2014-07-08T14:42:16Z</time>
      </trkpt>
      <trkpt lat="59.9054961" lon="17.6428965">
        <ele>21.2864</ele>
        <time>2014-07-08T14:42:17Z</time>
      </trkpt>
      <trkpt lat="59.9054785" lon="17.6429194">
        <ele>21.2864</ele>
        <time>2014-07-08T14:42:18Z</time>
      </trkpt>
      <trkpt lat="59.9054684" lon="17.6429546">
        <ele>21.2864</ele>
        <time>2014-07-08T14:42:19Z</time>
      </trkpt>
      <trkpt lat="59.9054641" lon="17.642996">
        <ele>21.2864</ele>
        <time>2014-07-08T14:42:20Z</time>
      </trkpt>
      <trkpt lat="59.9054704" lon="17.6430402">
        <ele>21.2864</ele>
        <time>2014-07-08T14:42:21Z</time>
      </trkpt>
      <trkpt lat="59.9054867" lon="17.6430809">
        <ele>21.2864</ele>
        <time>2014-07-08T14:42:22Z</time>
      </trkpt>
      <trkpt lat="59.9055114" lon="17.6431126">
        <ele>21.2864</ele>
        <time>2014-07-08T14:42:23Z</time>
      </trkpt>
      <trkpt lat="59.9055419" lon="17.6431355">
        <ele>21.2864</ele>
        <time>2014-07-08T14:42:24Z</time>
      </trkpt>
      <trkpt lat="59.9055755" lon="17.6431592">
        <ele>21.2864</ele>
        <time>2014-07-08T14:42:25Z</time>
      </trkpt>
      <trkpt lat="59.9056114" lon="17.6431856">
        <ele>21.767</ele>
        <time>2014-07-08T14:42:26Z</time>
      </trkpt>
      <trkpt lat="59.9056501" lon="17.6432078">
        <ele>21.767</ele>
        <time>2014-07-08T14:42:27Z</time>
      </trkpt>
      <trkpt lat="59.9056911" lon="17.6432258">
        <ele>21.767</ele>
        <time>2014-07-08T14:42:28Z</time>
      </trkpt>
      <trkpt lat="59.9057335" lon="17.6432442">
        <ele>21.767</ele>
        <time>2014-07-08T14:42:29Z</time>
      </trkpt>
      <trkpt lat="59.9057759" lon="17.6432684">
        <ele>21.767</ele>
        <time>2014-07-08T14:42:30Z</time>
      </trkpt>
      <trkpt lat="59.9058143" lon="17.643307">
        <ele>21.767</ele>
        <time>2014-07-08T14:42:31Z</time>
      </trkpt>
      <trkpt lat="59.9058419" lon="17.6433578">
        <ele>21.767</ele>
        <time>2014-07-08T14:42:32Z</time>
      </trkpt>
      <trkpt lat="59.9058588" lon="17.6434059">
        <ele>21.767</ele>
        <time>2014-07-08T14:42:33Z</time>
      </trkpt>
      <trkpt lat="59.9058677" lon="17.6434509">
        <ele>21.767</ele>
        <time>2014-07-08T14:42:34Z</time>
      </trkpt>
      <trkpt lat="59.9058707" lon="17.6435043">
        <ele>21.767</ele>
        <time>2014-07-08T14:42:35Z</time>
      </trkpt>
      <trkpt lat="59.9058718" lon="17.6435687">
        <ele>21.2864</ele>
        <time>2014-07-08T14:42:36Z</time>
      </trkpt>
      <trkpt lat="59.9058761" lon="17.6436424">
        <ele>21.2864</ele>
        <time>2014-07-08T14:42:37Z</time>
      </trkpt>
      <trkpt lat="59.9058849" lon="17.6437214">
        <ele>21.2864</ele>
        <time>2014-07-08T14:42:38Z</time>
      </trkpt>
      <trkpt lat="59.9058996" lon="17.6438037">
        <ele>21.2864</ele>
        <time>2014-07-08T14:42:39Z</time>
      </trkpt>
      <trkpt lat="59.9059185" lon="17.6438871">
        <ele>21.2864</ele>
        <time>2014-07-08T14:42:40Z</time>
      </trkpt>
      <trkpt lat="59.9059393" lon="17.6439717">
        <ele>21.2864</ele>
        <time>2014-07-08T14:42:41Z</time>
      </trkpt>
      <trkpt lat="59.9059614" lon="17.6440589">
        <ele>21.2864</ele>
        <time>2014-07-08T14:42:42Z</time>
      </trkpt>
      <trkpt lat="59.9059842" lon="17.6441468">
        <ele>21.2864</ele>
        <time>2014-07-08T14:42:43Z</time>
      </trkpt>
      <trkpt lat="59.9060085" lon="17.6442356">
        <ele>21.2864</ele>
        <time>2014-07-08T14:42:44Z</time>
      </trkpt>
      <trkpt lat="59.9060335" lon="17.6443252">
        <ele>21.2864</ele>
        <time>2014-07-08T14:42:45Z</time>
      </trkpt>
      <trkpt lat="59.9060591" lon="17.6444143">
        <ele>21.2864</ele>
        <time>2014-07-08T14:42:46Z</time>
      </trkpt>
      <trkpt lat="59.9060836" lon="17.6445051">
        <ele>21.2864</ele>
        <time>2014-07-08T14:42:47Z</time>
      </trkpt>
      <trkpt lat="59.9061075" lon="17.6445992">
        <ele>21.2864</ele>
        <time>2014-07-08T14:42:48Z</time>
      </trkpt>
      <trkpt lat="59.9061287" lon="17.6446958">
        <ele>21.2864</ele>
        <time>2014-07-08T14:42:49Z</time>
      </trkpt>
      <trkpt lat="59.9061468" lon="17.6447938">
        <ele>21.2864</ele>
        <time>2014-07-08T14:42:50Z</time>
      </trkpt>
      <trkpt lat="59.9061624" lon="17.6448936">
        <ele>21.2864</ele>
        <time>2014-07-08T14:42:51Z</time>
      </trkpt>
      <trkpt lat="59.9061733" lon="17.644996">
        <ele>21.767</ele>
        <time>2014-07-08T14:42:52Z</time>
      </trkpt>
      <trkpt lat="59.9061763" lon="17.6450998">
        <ele>21.767</ele>
        <time>2014-07-08T14:42:53Z</time>
      </trkpt>
      <trkpt lat="59.9061702" lon="17.6452025">
        <ele>21.767</ele>
        <time>2014-07-08T14:42:54Z</time>
      </trkpt>
      <trkpt lat="59.9061588" lon="17.6453022">
        <ele>21.767</ele>
        <time>2014-07-08T14:42:55Z</time>
      </trkpt>
      <trkpt lat="59.9061453" lon="17.6453993">
        <ele>22.2476</ele>
        <time>2014-07-08T14:42:56Z</time>
      </trkpt>
      <trkpt lat="59.9061316" lon="17.6454954">
        <ele>22.2476</ele>
        <time>2014-07-08T14:42:57Z</time>
      </trkpt>
      <trkpt lat="59.9061187" lon="17.6455914">
        <ele>22.2476</ele>
        <time>2014-07-08T14:42:58Z</time>
      </trkpt>
      <trkpt lat="59.9061073" lon="17.6456887">
        <ele>22.2476</ele>
        <time>2014-07-08T14:42:59Z</time>
      </trkpt>
      <trkpt lat="59.9060951" lon="17.6457858">
        <ele>22.2476</ele>
        <time>2014-07-08T14:43:00Z</time>
      </trkpt>
      <trkpt lat="59.9060806" lon="17.645881">
        <ele>22.2476</ele>
        <time>2014-07-08T14:43:01Z</time>
      </trkpt>
      <trkpt lat="59.9060658" lon="17.6459731">
        <ele>22.2476</ele>
        <time>2014-07-08T14:43:02Z</time>
      </trkpt>
      <trkpt lat="59.9060514" lon="17.6460607">
        <ele>22.2476</ele>
        <time>2014-07-08T14:43:03Z</time>
      </trkpt>
      <trkpt lat="59.9060372" lon="17.6461436">
        <ele>22.2476</ele>
        <time>2014-07-08T14:43:04Z</time>
      </trkpt>
      <trkpt lat="59.9060251" lon="17.6462253">
        <ele>22.2476</ele>
        <time>2014-07-08T14:43:05Z</time>
      </trkpt>
      <trkpt lat="59.9060148" lon="17.6463104">
        <ele>22.2476</ele>
        <time>2014-07-08T14:43:06Z</time>
      </trkpt>
      <trkpt lat="59.9060042" lon="17.6463996">
        <ele>22.2476</ele>
        <time>2014-07-08T14:43:07Z</time>
      </trkpt>
      <trkpt lat="59.9059935" lon="17.6464922">
        <ele>22.2476</ele>
        <time>2014-07-08T14:43:08Z</time>
      </trkpt>
      <trkpt lat="59.9059832" lon="17.6465873">
        <ele>22.2476</ele>
        <time>2014-07-08T14:43:09Z</time>
      </trkpt>
      <trkpt lat="59.9059717" lon="17.6466827">
        <ele>22.2476</ele>
        <time>2014-07-08T14:43:10Z</time>
      </trkpt>
      <trkpt lat="59.9059583" lon="17.6467775">
        <ele>22.2476</ele>
        <time>2014-07-08T14:43:11Z</time>
      </trkpt>
      <trkpt lat="59.9059457" lon="17.646873">
        <ele>22.2476</ele>
        <time>2014-07-08T14:43:12Z</time>
      </trkpt>
      <trkpt lat="59.9059372" lon="17.646971">
        <ele>22.2476</ele>
        <time>2014-07-08T14:43:13Z</time>
      </trkpt>
      <trkpt lat="59.9059324" lon="17.6470712">
        <ele>22.2476</ele>
        <time>2014-07-08T14:43:14Z</time>
      </trkpt>
      <trkpt lat="59.9059288" lon="17.6471723">
        <ele>22.2476</ele>
        <time>2014-07-08T14:43:15Z</time>
      </trkpt>
      <trkpt lat="59.905926" lon="17.6472735">
        <ele>21.767</ele>
        <time>2014-07-08T14:43:16Z</time>
      </trkpt>
      <trkpt lat="59.9059263" lon="17.6473759">
        <ele>21.767</ele>
        <time>2014-07-08T14:43:17Z</time>
      </trkpt>
      <trkpt lat="59.9059313" lon="17.6474784">
        <ele>21.767</ele>
        <time>2014-07-08T14:43:18Z</time>
      </trkpt>
      <trkpt lat="59.9059391" lon="17.6475825">
        <ele>21.767</ele>
        <time>2014-07-08T14:43:19Z</time>
      </trkpt>
      <trkpt lat="59.9059479" lon="17.6476867">
        <ele>21.767</ele>
        <time>2014-07-08T14:43:20Z</time>
      </trkpt>
      <trkpt lat="59.9059599" lon="17.6477905">
        <ele>21.767</ele>
        <time>2014-07-08T14:43:21Z</time>
      </trkpt>
      <trkpt lat="59.905975" lon="17.6478944">
        <ele>21.767</ele>
        <time>2014-07-08T14:43:22Z</time>
      </trkpt>
      <trkpt lat="59.9059938" lon="17.6479991">
        <ele>21.2864</ele>
        <time>2014-07-08T14:43:23Z</time>
      </trkpt>
      <trkpt lat="59.9060158" lon="17.6481026">
        <ele>21.2864</ele>
        <time>2014-07-08T14:43:24Z</time>
      </trkpt>
      <trkpt lat="59.9060417" lon="17.6482022">
        <ele>21.2864</ele>
        <time>2014-07-08T14:43:25Z</time>
      </trkpt>
      <trkpt lat="59.9060706" lon="17.6482993">
        <ele>21.2864</ele>
        <time>2014-07-08T14:43:26Z</time>
      </trkpt>
      <trkpt lat="59.9061001" lon="17.6483881">
        <ele>21.2864</ele>
        <time>2014-07-08T14:43:27Z</time>
      </trkpt>
      <trkpt lat="59.9061313" lon="17.6484755">
        <ele>20.8057</ele>
        <time>2014-07-08T14:43:28Z</time>
      </trkpt>
      <trkpt lat="59.9061645" lon="17.6485641">
        <ele>20.8057</ele>
        <time>2014-07-08T14:43:29Z</time>
      </trkpt>
      <trkpt lat="59.9061971" lon="17.6486447">
        <ele>20.8057</ele>
        <time>2014-07-08T14:43:30Z</time>
      </trkpt>
      <trkpt lat="59.9062308" lon="17.6487248">
        <ele>20.8057</ele>
        <time>2014-07-08T14:43:31Z</time>
      </trkpt>
      <trkpt lat="59.9062648" lon="17.6488081">
        <ele>20.8057</ele>
        <time>2014-07-08T14:43:32Z</time>
      </trkpt>
      <trkpt lat="59.9062993" lon="17.6488928">
        <ele>20.8057</ele>
        <time>2014-07-08T14:43:33Z</time>
      </trkpt>
      <trkpt lat="59.9063334" lon="17.6489787">
        <ele>20.8057</ele>
        <time>2014-07-08T14:43:34Z</time>
      </trkpt>
      <trkpt lat="59.9063661" lon="17.649066">
        <ele>21.2864</ele>
        <time>2014-07-08T14:43:35Z</time>
      </trkpt>
      <trkpt lat="59.9063971" lon="17.6491543">
        <ele>21.2864</ele>
        <time>2014-07-08T14:43:36Z</time>
      </trkpt>
      <trkpt lat="59.9064254" lon="17.6492442">
        <ele>21.2864</ele>
        <time>2014-07-08T14:43:37Z</time>
      </trkpt>
      <trkpt lat="59.9064513" lon="17.649334">
        <ele>21.2864</ele>
        <time>2014-07-08T14:43:38Z</time>
      </trkpt>
      <trkpt lat="59.9064753" lon="17.6494237">
        <ele>21.2864</ele>
        <time>2014-07-08T14:43:39Z</time>
      </trkpt>
      <trkpt lat="59.906498" lon="17.6495132">
        <ele>21.767</ele>
        <time>2014-07-08T14:43:40Z</time>
      </trkpt>
      <trkpt lat="59.9065197" lon="17.6496018">
        <ele>21.767</ele>
        <time>2014-07-08T14:43:41Z</time>
      </trkpt>
      <trkpt lat="59.9065411" lon="17.6496892">
        <ele>21.767</ele>
        <time>2014-07-08T14:43:42Z</time>
      </trkpt>
      <trkpt lat="59.9065612" lon="17.6497749">
        <ele>21.767</ele>
        <time>2014-07-08T14:43:43Z</time>
      </trkpt>
      <trkpt lat="59.9065799" lon="17.6498611">
        <ele>22.2476</ele>
        <time>2014-07-08T14:43:44Z</time>
      </trkpt>
      <trkpt lat="59.9065981" lon="17.6499471">
        <ele>22.2476</ele>
        <time>2014-07-08T14:43:45Z</time>
      </trkpt>
      <trkpt lat="59.9066167" lon="17.6500314">
        <ele>22.2476</ele>
        <time>2014-07-08T14:43:46Z</time>
      </trkpt>
      <trkpt lat="59.9066373" lon="17.6501156">
        <ele>22.2476</ele>
        <time>2014-07-08T14:43:47Z</time>
      </trkpt>
      <trkpt lat="59.9066577" lon="17.6502012">
        <ele>22.2476</ele>
        <time>2014-07-08T14:43:48Z</time>
      </trkpt>
      <trkpt lat="59.9066783" lon="17.6502899">
        <ele>22.2476</ele>
        <time>2014-07-08T14:43:49Z</time>
      </trkpt>
      <trkpt lat="59.9066985" lon="17.6503814">
        <ele>22.2476</ele>
        <time>2014-07-08T14:43:50Z</time>
      </trkpt>
      <trkpt lat="59.9067192" lon="17.650475">
        <ele>22.7283</ele>
        <time>2014-07-08T14:43:51Z</time>
      </trkpt>
      <trkpt lat="59.9067411" lon="17.6505694">
        <ele>22.7283</ele>
        <time>2014-07-08T14:43:52Z</time>
      </trkpt>
      <trkpt lat="59.9067644" lon="17.6506638">
        <ele>22.7283</ele>
        <time>2014-07-08T14:43:53Z</time>
      </trkpt>
      <trkpt lat="59.9067871" lon="17.6507601">
        <ele>22.7283</ele>
        <time>2014-07-08T14:43:54Z</time>
      </trkpt>
      <trkpt lat="59.9068097" lon="17.6508585">
        <ele>22.7283</ele>
        <time>2014-07-08T14:43:55Z</time>
      </trkpt>
      <trkpt lat="59.9068328" lon="17.6509573">
        <ele>22.7283</ele>
        <time>2014-07-08T14:43:56Z</time>
      </trkpt>
      <trkpt lat="59.9068561" lon="17.6510569">
        <ele>22.7283</ele>
        <time>2014-07-08T14:43:57Z</time>
      </trkpt>
      <trkpt lat="59.9068794" lon="17.6511572">
        <ele>22.7283</ele>
        <time>2014-07-08T14:43:58Z</time>
      </trkpt>
      <trkpt lat="59.9069022" lon="17.6512578">
        <ele>22.7283</ele>
        <time>2014-07-08T14:43:59Z</time>
      </trkpt>
      <trkpt lat="59.9069247" lon="17.6513584">
        <ele>22.7283</ele>
        <time>2014-07-08T14:44:00Z</time>
      </trkpt>
      <trkpt lat="59.9069452" lon="17.6514579">
        <ele>22.7283</ele>
        <time>2014-07-08T14:44:01Z</time>
      </trkpt>
      <trkpt lat="59.9069631" lon="17.6515545">
        <ele>23.209</ele>
        <time>2014-07-08T14:44:02Z</time>
      </trkpt>
      <trkpt lat="59.9069793" lon="17.6516476">
        <ele>23.209</ele>
        <time>2014-07-08T14:44:03Z</time>
      </trkpt>
      <trkpt lat="59.9069947" lon="17.651737">
        <ele>23.209</ele>
        <time>2014-07-08T14:44:04Z</time>
      </trkpt>
      <trkpt lat="59.9070091" lon="17.6518234">
        <ele>23.209</ele>
        <time>2014-07-08T14:44:05Z</time>
      </trkpt>
      <trkpt lat="59.9070226" lon="17.6519096">
        <ele>23.6896</ele>
        <time>2014-07-08T14:44:06Z</time>
      </trkpt>
      <trkpt lat="59.9070356" lon="17.6519976">
        <ele>23.6896</ele>
        <time>2014-07-08T14:44:07Z</time>
      </trkpt>
      <trkpt lat="59.9070464" lon="17.6520887">
        <ele>23.6896</ele>
        <time>2014-07-08T14:44:08Z</time>
      </trkpt>
      <trkpt lat="59.9070544" lon="17.6521819">
        <ele>23.6896</ele>
        <time>2014-07-08T14:44:09Z</time>
      </trkpt>
      <trkpt lat="59.9070621" lon="17.6522753">
        <ele>23.6896</ele>
        <time>2014-07-08T14:44:10Z</time>
      </trkpt>
      <trkpt lat="59.9070697" lon="17.6523665">
        <ele>23.6896</ele>
        <time>2014-07-08T14:44:11Z</time>
      </trkpt>
      <trkpt lat="59.9070729" lon="17.652456">
        <ele>23.6896</ele>
        <time>2014-07-08T14:44:12Z</time>
      </trkpt>
      <trkpt lat="59.9070715" lon="17.6525455">
        <ele>23.6896</ele>
        <time>2014-07-08T14:44:13Z</time>
      </trkpt>
      <trkpt lat="59.90707" lon="17.6526363">
        <ele>23.6896</ele>
        <time>2014-07-08T14:44:14Z</time>
      </trkpt>
      <trkpt lat="59.9070694" lon="17.6527289">
        <ele>23.6896</ele>
        <time>2014-07-08T14:44:15Z</time>
      </trkpt>
      <trkpt lat="59.9070683" lon="17.6528229">
        <ele>23.6896</ele>
        <time>2014-07-08T14:44:16Z</time>
      </trkpt>
      <trkpt lat="59.9070659" lon="17.6529185">
        <ele>23.6896</ele>
        <time>2014-07-08T14:44:17Z</time>
      </trkpt>
      <trkpt lat="59.9070627" lon="17.653015">
        <ele>23.6896</ele>
        <time>2014-07-08T14:44:18Z</time>
      </trkpt>
      <trkpt lat="59.9070602" lon="17.6531133">
        <ele>23.6896</ele>
        <time>2014-07-08T14:44:19Z</time>
      </trkpt>
      <trkpt lat="59.907058" lon="17.6532139">
        <ele>23.6896</ele>
        <time>2014-07-08T14:44:20Z</time>
      </trkpt>
      <trkpt lat="59.9070544" lon="17.6533165">
        <ele>23.6896</ele>
        <time>2014-07-08T14:44:21Z</time>
      </trkpt>
      <trkpt lat="59.9070503" lon="17.6534211">
        <ele>23.6896</ele>
        <time>2014-07-08T14:44:22Z</time>
      </trkpt>
      <trkpt lat="59.9070461" lon="17.6535278">
        <ele>23.209</ele>
        <time>2014-07-08T14:44:23Z</time>
      </trkpt>
      <trkpt lat="59.907043" lon="17.6536375">
        <ele>23.209</ele>
        <time>2014-07-08T14:44:24Z</time>
      </trkpt>
      <trkpt lat="59.9070394" lon="17.653749">
        <ele>23.209</ele>
        <time>2014-07-08T14:44:25Z</time>
      </trkpt>
      <trkpt lat="59.9070354" lon="17.6538615">
        <ele>23.209</ele>
        <time>2014-07-08T14:44:26Z</time>
      </trkpt>
      <trkpt lat="59.9070314" lon="17.6539754">
        <ele>23.209</ele>
        <time>2014-07-08T14:44:27Z</time>
      </trkpt>
      <trkpt lat="59.9070279" lon="17.6540905">
        <ele>23.209</ele>
        <time>2014-07-08T14:44:28Z</time>
      </trkpt>
      <trkpt lat="59.9070245" lon="17.6542069">
        <ele>22.7283</ele>
        <time>2014-07-08T14:44:29Z</time>
      </trkpt>
      <trkpt lat="59.9070213" lon="17.6543245">
        <ele>22.7283</ele>
        <time>2014-07-08T14:44:30Z</time>
      </trkpt>
      <trkpt lat="59.9070177" lon="17.6544432">
        <ele>22.7283</ele>
        <time>2014-07-08T14:44:31Z</time>
      </trkpt>
      <trkpt lat="59.9070138" lon="17.6545623">
        <ele>22.7283</ele>
        <time>2014-07-08T14:44:32Z</time>
      </trkpt>
      <trkpt lat="59.9070109" lon="17.6546809">
        <ele>22.7283</ele>
        <time>2014-07-08T14:44:33Z</time>
      </trkpt>
      <trkpt lat="59.9070091" lon="17.6547997">
        <ele>22.7283</ele>
        <time>2014-07-08T14:44:34Z</time>
      </trkpt>
      <trkpt lat="59.9070061" lon="17.6549185">
        <ele>22.7283</ele>
        <time>2014-07-08T14:44:35Z</time>
      </trkpt>
      <trkpt lat="59.9070038" lon="17.6550363">
        <ele>22.7283</ele>
        <time>2014-07-08T14:44:36Z</time>
      </trkpt>
      <trkpt lat="59.9070045" lon="17.6551542">
        <ele>22.7283</ele>
        <time>2014-07-08T14:44:37Z</time>
      </trkpt>
      <trkpt lat="59.9070062" lon="17.655272">
        <ele>22.7283</ele>
        <time>2014-07-08T14:44:38Z</time>
      </trkpt>
      <trkpt lat="59.9070088" lon="17.6553893">
        <ele>22.7283</ele>
        <time>2014-07-08T14:44:39Z</time>
      </trkpt>
      <trkpt lat="59.9070119" lon="17.6555043">
        <ele>22.7283</ele>
        <time>2014-07-08T14:44:40Z</time>
      </trkpt>
      <trkpt lat="59.9070134" lon="17.6556173">
        <ele>23.209</ele>
        <time>2014-07-08T14:44:41Z</time>
      </trkpt>
      <trkpt lat="59.907014" lon="17.6557278">
        <ele>23.209</ele>
        <time>2014-07-08T14:44:42Z</time>
      </trkpt>
      <trkpt lat="59.9070144" lon="17.655835">
        <ele>23.209</ele>
        <time>2014-07-08T14:44:43Z</time>
      </trkpt>
      <trkpt lat="59.9070159" lon="17.6559376">
        <ele>23.6896</ele>
        <time>2014-07-08T14:44:44Z</time>
      </trkpt>
      <trkpt lat="59.9070197" lon="17.6560339">
        <ele>24.1703</ele>
        <time>2014-07-08T14:44:45Z</time>
      </trkpt>
      <trkpt lat="59.9070233" lon="17.6561246">
        <ele>24.1703</ele>
        <time>2014-07-08T14:44:46Z</time>
      </trkpt>
      <trkpt lat="59.9070245" lon="17.656211">
        <ele>24.1703</ele>
        <time>2014-07-08T14:44:47Z</time>
      </trkpt>
      <trkpt lat="59.9070243" lon="17.6562939">
        <ele>24.651</ele>
        <time>2014-07-08T14:44:48Z</time>
      </trkpt>
      <trkpt lat="59.9070257" lon="17.6563733">
        <ele>24.651</ele>
        <time>2014-07-08T14:44:49Z</time>
      </trkpt>
      <trkpt lat="59.907029" lon="17.6564525">
        <ele>24.651</ele>
        <time>2014-07-08T14:44:50Z</time>
      </trkpt>
      <trkpt lat="59.9070332" lon="17.6565323">
        <ele>24.651</ele>
        <time>2014-07-08T14:44:51Z</time>
      </trkpt>
      <trkpt lat="59.9070397" lon="17.6566111">
        <ele>25.1317</ele>
        <time>2014-07-08T14:44:52Z</time>
      </trkpt>
      <trkpt lat="59.9070475" lon="17.6566911">
        <ele>25.1317</ele>
        <time>2014-07-08T14:44:53Z</time>
      </trkpt>
      <trkpt lat="59.9070555" lon="17.6567736">
        <ele>25.1317</ele>
        <time>2014-07-08T14:44:54Z</time>
      </trkpt>
      <trkpt lat="59.9070641" lon="17.6568593">
        <ele>25.1317</ele>
        <time>2014-07-08T14:44:55Z</time>
      </trkpt>
      <trkpt lat="59.9070736" lon="17.6569482">
        <ele>25.1317</ele>
        <time>2014-07-08T14:44:56Z</time>
      </trkpt>
      <trkpt lat="59.9070845" lon="17.6570393">
        <ele>25.1317</ele>
        <time>2014-07-08T14:44:57Z</time>
      </trkpt>
      <trkpt lat="59.9070974" lon="17.6571317">
        <ele>25.1317</ele>
        <time>2014-07-08T14:44:58Z</time>
      </trkpt>
      <trkpt lat="59.9071133" lon="17.6572247">
        <ele>25.1317</ele>
        <time>2014-07-08T14:44:59Z</time>
      </trkpt>
      <trkpt lat="59.907131" lon="17.6573181">
        <ele>25.1317</ele>
        <time>2014-07-08T14:45:00Z</time>
      </trkpt>
      <trkpt lat="59.907149" lon="17.6574137">
        <ele>25.6123</ele>
        <time>2014-07-08T14:45:01Z</time>
      </trkpt>
      <trkpt lat="59.9071673" lon="17.6575108">
        <ele>25.6123</ele>
        <time>2014-07-08T14:45:02Z</time>
      </trkpt>
      <trkpt lat="59.907186" lon="17.6576096">
        <ele>25.6123</ele>
        <time>2014-07-08T14:45:03Z</time>
      </trkpt>
      <trkpt lat="59.9072042" lon="17.6577087">
        <ele>25.6123</ele>
        <time>2014-07-08T14:45:04Z</time>
      </trkpt>
      <trkpt lat="59.9072212" lon="17.6578087">
        <ele>25.6123</ele>
        <time>2014-07-08T14:45:05Z</time>
      </trkpt>
      <trkpt lat="59.9072371" lon="17.6579097">
        <ele>25.6123</ele>
        <time>2014-07-08T14:45:06Z</time>
      </trkpt>
      <trkpt lat="59.9072523" lon="17.6580112">
        <ele>25.6123</ele>
        <time>2014-07-08T14:45:07Z</time>
      </trkpt>
      <trkpt lat="59.9072672" lon="17.6581125">
        <ele>26.0929</ele>
        <time>2014-07-08T14:45:08Z</time>
      </trkpt>
      <trkpt lat="59.9072817" lon="17.658212">
        <ele>26.0929</ele>
        <time>2014-07-08T14:45:09Z</time>
      </trkpt>
      <trkpt lat="59.9072957" lon="17.6583091">
        <ele>26.0929</ele>
        <time>2014-07-08T14:45:10Z</time>
      </trkpt>
      <trkpt lat="59.9073087" lon="17.6584036">
        <ele>26.5736</ele>
        <time>2014-07-08T14:45:11Z</time>
      </trkpt>
      <trkpt lat="59.9073202" lon="17.6584927">
        <ele>26.5736</ele>
        <time>2014-07-08T14:45:12Z</time>
      </trkpt>
      <trkpt lat="59.9073317" lon="17.6585751">
        <ele>26.5736</ele>
        <time>2014-07-08T14:45:13Z</time>
      </trkpt>
      <trkpt lat="59.9073428" lon="17.6586536">
        <ele>26.5736</ele>
        <time>2014-07-08T14:45:14Z</time>
      </trkpt>
      <trkpt lat="59.9073503" lon="17.6587256">
        <ele>26.5736</ele>
        <time>2014-07-08T14:45:15Z</time>
      </trkpt>
      <trkpt lat="59.9073544" lon="17.6587881">
        <ele>26.5736</ele>
        <time>2014-07-08T14:45:16Z</time>
      </trkpt>
      <trkpt lat="59.9073565" lon="17.6588316">
        <ele>26.5736</ele>
        <time>2014-07-08T14:45:17Z</time>
      </trkpt>
      <trkpt lat="59.9073594" lon="17.6588554">
        <ele>27.0543</ele>
        <time>2014-07-08T14:45:18Z</time>
      </trkpt>
      <trkpt lat="59.9073611" lon="17.6588623">
        <ele>27.0543</ele>
        <time>2014-07-08T14:45:19Z</time>
      </trkpt>
      <trkpt lat="59.9073615" lon="17.6588614">
        <ele>27.0543</ele>
        <time>2014-07-08T14:45:20Z</time>
      </trkpt>
      <trkpt lat="59.9074666" lon="17.6590275">
        <ele>44.8386</ele>
        <time>2014-07-08T14:46:00Z</time>
      </trkpt>
      <trkpt lat="59.9074699" lon="17.6590805">
        <ele>44.8386</ele>
        <time>2014-07-08T14:46:01Z</time>
      </trkpt>
      <trkpt lat="59.9074749" lon="17.6591442">
        <ele>44.8386</ele>
        <time>2014-07-08T14:46:02Z</time>
      </trkpt>
      <trkpt lat="59.9074807" lon="17.6592205">
        <ele>44.358</ele>
        <time>2014-07-08T14:46:03Z</time>
      </trkpt>
      <trkpt lat="59.907488" lon="17.6593091">
        <ele>44.358</ele>
        <time>2014-07-08T14:46:04Z</time>
      </trkpt>
      <trkpt lat="59.9074959" lon="17.6594093">
        <ele>44.358</ele>
        <time>2014-07-08T14:46:05Z</time>
      </trkpt>
      <trkpt lat="59.9074982" lon="17.6595082">
        <ele>42.916</ele>
        <time>2014-07-08T14:46:06Z</time>
      </trkpt>
      <trkpt lat="59.9075059" lon="17.659605">
        <ele>42.4354</ele>
        <time>2014-07-08T14:46:07Z</time>
      </trkpt>
      <trkpt lat="59.9075155" lon="17.6597004">
        <ele>41.9547</ele>
        <time>2014-07-08T14:46:08Z</time>
      </trkpt>
      <trkpt lat="59.9075231" lon="17.6597953">
        <ele>40.9934</ele>
        <time>2014-07-08T14:46:09Z</time>
      </trkpt>
      <trkpt lat="59.9075305" lon="17.6598925">
        <ele>40.5128</ele>
        <time>2014-07-08T14:46:10Z</time>
      </trkpt>
      <trkpt lat="59.9075385" lon="17.6599921">
        <ele>40.0321</ele>
        <time>2014-07-08T14:46:11Z</time>
      </trkpt>
      <trkpt lat="59.9075486" lon="17.6600924">
        <ele>39.5513</ele>
        <time>2014-07-08T14:46:12Z</time>
      </trkpt>
      <trkpt lat="59.9075619" lon="17.660192">
        <ele>39.0707</ele>
        <time>2014-07-08T14:46:13Z</time>
      </trkpt>
      <trkpt lat="59.9075758" lon="17.6602915">
        <ele>38.5901</ele>
        <time>2014-07-08T14:46:14Z</time>
      </trkpt>
      <trkpt lat="59.907589" lon="17.660392">
        <ele>38.1094</ele>
        <time>2014-07-08T14:46:15Z</time>
      </trkpt>
      <trkpt lat="59.9076025" lon="17.6604928">
        <ele>38.1094</ele>
        <time>2014-07-08T14:46:16Z</time>
      </trkpt>
      <trkpt lat="59.9076176" lon="17.6605951">
        <ele>37.6287</ele>
        <time>2014-07-08T14:46:17Z</time>
      </trkpt>
      <trkpt lat="59.9076329" lon="17.6606986">
        <ele>37.6287</ele>
        <time>2014-07-08T14:46:18Z</time>
      </trkpt>
      <trkpt lat="59.9076458" lon="17.6607992">
        <ele>37.1481</ele>
        <time>2014-07-08T14:46:19Z</time>
      </trkpt>
      <trkpt lat="59.9076583" lon="17.6608995">
        <ele>37.1481</ele>
        <time>2014-07-08T14:46:20Z</time>
      </trkpt>
      <trkpt lat="59.9076698" lon="17.6610025">
        <ele>37.1481</ele>
        <time>2014-07-08T14:46:21Z</time>
      </trkpt>
      <trkpt lat="59.9076802" lon="17.661108">
        <ele>37.1481</ele>
        <time>2014-07-08T14:46:22Z</time>
      </trkpt>
      <trkpt lat="59.9076891" lon="17.6612161">
        <ele>36.6675</ele>
        <time>2014-07-08T14:46:23Z</time>
      </trkpt>
      <trkpt lat="59.9076986" lon="17.6613309">
        <ele>36.1868</ele>
        <time>2014-07-08T14:46:24Z</time>
      </trkpt>
      <trkpt lat="59.9077083" lon="17.6614516">
        <ele>36.1868</ele>
        <time>2014-07-08T14:46:25Z</time>
      </trkpt>
      <trkpt lat="59.9077175" lon="17.6615756">
        <ele>35.7061</ele>
        <time>2014-07-08T14:46:26Z</time>
      </trkpt>
      <trkpt lat="59.9077278" lon="17.6617037">
        <ele>35.2255</ele>
        <time>2014-07-08T14:46:27Z</time>
      </trkpt>
      <trkpt lat="59.9077377" lon="17.6618346">
        <ele>34.7449</ele>
        <time>2014-07-08T14:46:28Z</time>
      </trkpt>
      <trkpt lat="59.9077475" lon="17.661965">
        <ele>34.2642</ele>
        <time>2014-07-08T14:46:29Z</time>
      </trkpt>
      <trkpt lat="59.9077585" lon="17.6620926">
        <ele>34.2642</ele>
        <time>2014-07-08T14:46:30Z</time>
      </trkpt>
      <trkpt lat="59.9077714" lon="17.6622178">
        <ele>33.7834</ele>
        <time>2014-07-08T14:46:31Z</time>
      </trkpt>
      <trkpt lat="59.9077858" lon="17.6623403">
        <ele>33.7834</ele>
        <time>2014-07-08T14:46:32Z</time>
      </trkpt>
      <trkpt lat="59.9078005" lon="17.6624609">
        <ele>33.3029</ele>
        <time>2014-07-08T14:46:33Z</time>
      </trkpt>
      <trkpt lat="59.9078154" lon="17.6625817">
        <ele>33.3029</ele>
        <time>2014-07-08T14:46:34Z</time>
      </trkpt>
      <trkpt lat="59.9078317" lon="17.6627033">
        <ele>33.3029</ele>
        <time>2014-07-08T14:46:35Z</time>
      </trkpt>
      <trkpt lat="59.907849" lon="17.6628246">
        <ele>33.3029</ele>
        <time>2014-07-08T14:46:36Z</time>
      </trkpt>
      <trkpt lat="59.907867" lon="17.6629459">
        <ele>33.3029</ele>
        <time>2014-07-08T14:46:37Z</time>
      </trkpt>
      <trkpt lat="59.9078838" lon="17.6630664">
        <ele>32.8223</ele>
        <time>2014-07-08T14:46:38Z</time>
      </trkpt>
      <trkpt lat="59.9078997" lon="17.6631871">
        <ele>32.8223</ele>
        <time>2014-07-08T14:46:39Z</time>
      </trkpt>
      <trkpt lat="59.9079149" lon="17.6633079">
        <ele>32.8223</ele>
        <time>2014-07-08T14:46:40Z</time>
      </trkpt>
      <trkpt lat="59.9079317" lon="17.66343">
        <ele>32.8223</ele>
        <time>2014-07-08T14:46:41Z</time>
      </trkpt>
      <trkpt lat="59.907947" lon="17.6635554">
        <ele>32.8223</ele>
        <time>2014-07-08T14:46:42Z</time>
      </trkpt>
      <trkpt lat="59.9079577" lon="17.663685">
        <ele>32.8223</ele>
        <time>2014-07-08T14:46:43Z</time>
      </trkpt>
      <trkpt lat="59.9079645" lon="17.6638169">
        <ele>32.3416</ele>
        <time>2014-07-08T14:46:44Z</time>
      </trkpt>
      <trkpt lat="59.9079711" lon="17.6639512">
        <ele>32.3416</ele>
        <time>2014-07-08T14:46:45Z</time>
      </trkpt>
      <trkpt lat="59.907978" lon="17.6640859">
        <ele>32.3416</ele>
        <time>2014-07-08T14:46:46Z</time>
      </trkpt>
      <trkpt lat="59.9079851" lon="17.6642166">
        <ele>32.3416</ele>
        <time>2014-07-08T14:46:47Z</time>
      </trkpt>
      <trkpt lat="59.9079899" lon="17.6643429">
        <ele>32.3416</ele>
        <time>2014-07-08T14:46:48Z</time>
      </trkpt>
      <trkpt lat="59.9079905" lon="17.6644651">
        <ele>32.3416</ele>
        <time>2014-07-08T14:46:49Z</time>
      </trkpt>
      <trkpt lat="59.9079878" lon="17.6645848">
        <ele>32.3416</ele>
        <time>2014-07-08T14:46:50Z</time>
      </trkpt>
      <trkpt lat="59.90798" lon="17.6647039">
        <ele>32.3416</ele>
        <time>2014-07-08T14:46:51Z</time>
      </trkpt>
      <trkpt lat="59.9079714" lon="17.6648246">
        <ele>32.8223</ele>
        <time>2014-07-08T14:46:52Z</time>
      </trkpt>
      <trkpt lat="59.907965" lon="17.6649472">
        <ele>33.7834</ele>
        <time>2014-07-08T14:46:53Z</time>
      </trkpt>
      <trkpt lat="59.9079561" lon="17.6650708">
        <ele>34.7449</ele>
        <time>2014-07-08T14:46:54Z</time>
      </trkpt>
      <trkpt lat="59.9079443" lon="17.6651948">
        <ele>35.7061</ele>
        <time>2014-07-08T14:46:55Z</time>
      </trkpt>
      <trkpt lat="59.9079322" lon="17.665321">
        <ele>36.1868</ele>
        <time>2014-07-08T14:46:56Z</time>
      </trkpt>
      <trkpt lat="59.9079189" lon="17.6654478">
        <ele>36.6675</ele>
        <time>2014-07-08T14:46:57Z</time>
      </trkpt>
      <trkpt lat="59.9079096" lon="17.6655778">
        <ele>37.1481</ele>
        <time>2014-07-08T14:46:58Z</time>
      </trkpt>
      <trkpt lat="59.9078987" lon="17.6657057">
        <ele>37.6287</ele>
        <time>2014-07-08T14:46:59Z</time>
      </trkpt>
      <trkpt lat="59.9078889" lon="17.6658364">
        <ele>38.1094</ele>
        <time>2014-07-08T14:47:00Z</time>
      </trkpt>
      <trkpt lat="59.9078822" lon="17.6659729">
        <ele>39.0707</ele>
        <time>2014-07-08T14:47:01Z</time>
      </trkpt>
      <trkpt lat="59.9078683" lon="17.6661077">
        <ele>39.0707</ele>
        <time>2014-07-08T14:47:02Z</time>
      </trkpt>
      <trkpt lat="59.9078548" lon="17.6662434">
        <ele>39.5513</ele>
        <time>2014-07-08T14:47:03Z</time>
      </trkpt>
      <trkpt lat="59.9078406" lon="17.6663767">
        <ele>39.0707</ele>
        <time>2014-07-08T14:47:04Z</time>
      </trkpt>
      <trkpt lat="59.9078263" lon="17.6665082">
        <ele>39.5513</ele>
        <time>2014-07-08T14:47:05Z</time>
      </trkpt>
      <trkpt lat="59.9078123" lon="17.6666374">
        <ele>39.0707</ele>
        <time>2014-07-08T14:47:06Z</time>
      </trkpt>
      <trkpt lat="59.9077994" lon="17.6667643">
        <ele>38.5901</ele>
        <time>2014-07-08T14:47:07Z</time>
      </trkpt>
      <trkpt lat="59.90779" lon="17.6668899">
        <ele>38.5901</ele>
        <time>2014-07-08T14:47:08Z</time>
      </trkpt>
      <trkpt lat="59.9077832" lon="17.6670158">
        <ele>38.1094</ele>
        <time>2014-07-08T14:47:09Z</time>
      </trkpt>
      <trkpt lat="59.9077791" lon="17.6671442">
        <ele>38.1094</ele>
        <time>2014-07-08T14:47:10Z</time>
      </trkpt>
      <trkpt lat="59.9077748" lon="17.6672778">
        <ele>37.6287</ele>
        <time>2014-07-08T14:47:11Z</time>
      </trkpt>
      <trkpt lat="59.9077683" lon="17.6674157">
        <ele>37.1481</ele>
        <time>2014-07-08T14:47:12Z</time>
      </trkpt>
      <trkpt lat="59.9077604" lon="17.6675544">
        <ele>36.6675</ele>
        <time>2014-07-08T14:47:13Z</time>
      </trkpt>
      <trkpt lat="59.9077502" lon="17.6676907">
        <ele>36.6675</ele>
        <time>2014-07-08T14:47:14Z</time>
      </trkpt>
      <trkpt lat="59.9077329" lon="17.6678219">
        <ele>36.1868</ele>
        <time>2014-07-08T14:47:15Z</time>
      </trkpt>
      <trkpt lat="59.9077049" lon="17.6679444">
        <ele>35.7061</ele>
        <time>2014-07-08T14:47:16Z</time>
      </trkpt>
      <trkpt lat="59.9076651" lon="17.6680534">
        <ele>35.2255</ele>
        <time>2014-07-08T14:47:17Z</time>
      </trkpt>
      <trkpt lat="59.9076113" lon="17.6681388">
        <ele>34.7449</ele>
        <time>2014-07-08T14:47:18Z</time>
      </trkpt>
      <trkpt lat="59.9075491" lon="17.6682015">
        <ele>33.7834</ele>
        <time>2014-07-08T14:47:19Z</time>
      </trkpt>
      <trkpt lat="59.9074847" lon="17.6682466">
        <ele>32.8223</ele>
        <time>2014-07-08T14:47:20Z</time>
      </trkpt>
      <trkpt lat="59.9074195" lon="17.6682801">
        <ele>32.8223</ele>
        <time>2014-07-08T14:47:21Z</time>
      </trkpt>
      <trkpt lat="59.9073532" lon="17.668305">
        <ele>32.3416</ele>
        <time>2014-07-08T14:47:22Z</time>
      </trkpt>
      <trkpt lat="59.9072866" lon="17.6683249">
        <ele>31.8607</ele>
        <time>2014-07-08T14:47:23Z</time>
      </trkpt>
      <trkpt lat="59.9072205" lon="17.6683437">
        <ele>31.8607</ele>
        <time>2014-07-08T14:47:24Z</time>
      </trkpt>
      <trkpt lat="59.9071554" lon="17.6683609">
        <ele>31.8607</ele>
        <time>2014-07-08T14:47:25Z</time>
      </trkpt>
      <trkpt lat="59.9070922" lon="17.6683759">
        <ele>31.8607</ele>
        <time>2014-07-08T14:47:26Z</time>
      </trkpt>
      <trkpt lat="59.9070306" lon="17.6683885">
        <ele>31.3801</ele>
        <time>2014-07-08T14:47:27Z</time>
      </trkpt>
      <trkpt lat="59.9069708" lon="17.6684085">
        <ele>31.8607</ele>
        <time>2014-07-08T14:47:28Z</time>
      </trkpt>
      <trkpt lat="59.9069131" lon="17.6684324">
        <ele>31.8607</ele>
        <time>2014-07-08T14:47:29Z</time>
      </trkpt>
      <trkpt lat="59.9068595" lon="17.6684542">
        <ele>32.3416</ele>
        <time>2014-07-08T14:47:30Z</time>
      </trkpt>
      <trkpt lat="59.9068071" lon="17.6684745">
        <ele>32.3416</ele>
        <time>2014-07-08T14:47:31Z</time>
      </trkpt>
      <trkpt lat="59.9067566" lon="17.6684942">
        <ele>31.8607</ele>
        <time>2014-07-08T14:47:32Z</time>
      </trkpt>
      <trkpt lat="59.9067056" lon="17.6685128">
        <ele>31.8607</ele>
        <time>2014-07-08T14:47:33Z</time>
      </trkpt>
      <trkpt lat="59.9066524" lon="17.6685274">
        <ele>31.8607</ele>
        <time>2014-07-08T14:47:34Z</time>
      </trkpt>
      <trkpt lat="59.9065982" lon="17.6685373">
        <ele>31.3801</ele>
        <time>2014-07-08T14:47:35Z</time>
      </trkpt>
      <trkpt lat="59.9065441" lon="17.6685465">
        <ele>31.3801</ele>
        <time>2014-07-08T14:47:36Z</time>
      </trkpt>
      <trkpt lat="59.9064851" lon="17.6685552">
        <ele>31.3801</ele>
        <time>2014-07-08T14:47:37Z</time>
      </trkpt>
      <trkpt lat="59.9064224" lon="17.6685572">
        <ele>30.8995</ele>
        <time>2014-07-08T14:47:38Z</time>
      </trkpt>
      <trkpt lat="59.906359" lon="17.6685532">
        <ele>30.8995</ele>
        <time>2014-07-08T14:47:39Z</time>
      </trkpt>
      <trkpt lat="59.906293" lon="17.6685422">
        <ele>30.4188</ele>
        <time>2014-07-08T14:47:40Z</time>
      </trkpt>
      <trkpt lat="59.9062255" lon="17.6685232">
        <ele>29.9381</ele>
        <time>2014-07-08T14:47:41Z</time>
      </trkpt>
      <trkpt lat="59.9061577" lon="17.6685">
        <ele>29.9381</ele>
        <time>2014-07-08T14:47:42Z</time>
      </trkpt>
      <trkpt lat="59.9060893" lon="17.6684761">
        <ele>29.4575</ele>
        <time>2014-07-08T14:47:43Z</time>
      </trkpt>
      <trkpt lat="59.9060213" lon="17.66845">
        <ele>28.9769</ele>
        <time>2014-07-08T14:47:44Z</time>
      </trkpt>
      <trkpt lat="59.9059526" lon="17.6684226">
        <ele>28.9769</ele>
        <time>2014-07-08T14:47:45Z</time>
      </trkpt>
      <trkpt lat="59.9058837" lon="17.6683933">
        <ele>28.9769</ele>
        <time>2014-07-08T14:47:46Z</time>
      </trkpt>
      <trkpt lat="59.9058153" lon="17.6683629">
        <ele>28.9769</ele>
        <time>2014-07-08T14:47:47Z</time>
      </trkpt>
      <trkpt lat="59.9057459" lon="17.6683332">
        <ele>28.9769</ele>
        <time>2014-07-08T14:47:48Z</time>
      </trkpt>
      <trkpt lat="59.9056747" lon="17.6683015">
        <ele>28.4962</ele>
        <time>2014-07-08T14:47:49Z</time>
      </trkpt>
      <trkpt lat="59.9056028" lon="17.6682677">
        <ele>28.4962</ele>
        <time>2014-07-08T14:47:50Z</time>
      </trkpt>
      <trkpt lat="59.9055287" lon="17.6682331">
        <ele>28.4962</ele>
        <time>2014-07-08T14:47:51Z</time>
      </trkpt>
      <trkpt lat="59.9054532" lon="17.6681984">
        <ele>28.0155</ele>
        <time>2014-07-08T14:47:52Z</time>
      </trkpt>
      <trkpt lat="59.9053784" lon="17.6681646">
        <ele>28.0155</ele>
        <time>2014-07-08T14:47:53Z</time>
      </trkpt>
      <trkpt lat="59.9053056" lon="17.668127">
        <ele>27.5349</ele>
        <time>2014-07-08T14:47:54Z</time>
      </trkpt>
      <trkpt lat="59.9052342" lon="17.6680847">
        <ele>27.0543</ele>
        <time>2014-07-08T14:47:55Z</time>
      </trkpt>
      <trkpt lat="59.9051643" lon="17.668042">
        <ele>27.0543</ele>
        <time>2014-07-08T14:47:56Z</time>
      </trkpt>
      <trkpt lat="59.9050953" lon="17.6679973">
        <ele>27.0543</ele>
        <time>2014-07-08T14:47:57Z</time>
      </trkpt>
      <trkpt lat="59.9050273" lon="17.6679538">
        <ele>27.5349</ele>
        <time>2014-07-08T14:47:58Z</time>
      </trkpt>
      <trkpt lat="59.9049611" lon="17.6679157">
        <ele>27.5349</ele>
        <time>2014-07-08T14:47:59Z</time>
      </trkpt>
      <trkpt lat="59.9048967" lon="17.6678845">
        <ele>28.0155</ele>
        <time>2014-07-08T14:48:00Z</time>
      </trkpt>
      <trkpt lat="59.9048346" lon="17.6678643">
        <ele>28.0155</ele>
        <time>2014-07-08T14:48:01Z</time>
      </trkpt>
      <trkpt lat="59.9047755" lon="17.6678559">
        <ele>28.4962</ele>
        <time>2014-07-08T14:48:02Z</time>
      </trkpt>
      <trkpt lat="59.9047203" lon="17.6678549">
        <ele>28.9769</ele>
        <time>2014-07-08T14:48:03Z</time>
      </trkpt>
      <trkpt lat="59.9046683" lon="17.6678553">
        <ele>29.4575</ele>
        <time>2014-07-08T14:48:04Z</time>
      </trkpt>
      <trkpt lat="59.9046173" lon="17.6678589">
        <ele>29.4575</ele>
        <time>2014-07-08T14:48:05Z</time>
      </trkpt>
      <trkpt lat="59.9045669" lon="17.6678632">
        <ele>29.9381</ele>
        <time>2014-07-08T14:48:06Z</time>
      </trkpt>
      <trkpt lat="59.9045167" lon="17.6678677">
        <ele>29.9381</ele>
        <time>2014-07-08T14:48:07Z</time>
      </trkpt>
      <trkpt lat="59.904467" lon="17.6678749">
        <ele>30.4188</ele>
        <time>2014-07-08T14:48:08Z</time>
      </trkpt>
      <trkpt lat="59.9044162" lon="17.6678855">
        <ele>30.4188</ele>
        <time>2014-07-08T14:48:09Z</time>
      </trkpt>
      <trkpt lat="59.9043676" lon="17.6678968">
        <ele>30.8995</ele>
        <time>2014-07-08T14:48:10Z</time>
      </trkpt>
      <trkpt lat="59.9043191" lon="17.6679104">
        <ele>31.3801</ele>
        <time>2014-07-08T14:48:11Z</time>
      </trkpt>
      <trkpt lat="59.9042712" lon="17.6679265">
        <ele>31.3801</ele>
        <time>2014-07-08T14:48:12Z</time>
      </trkpt>
      <trkpt lat="59.9042244" lon="17.6679485">
        <ele>31.8607</ele>
        <time>2014-07-08T14:48:13Z</time>
      </trkpt>
      <trkpt lat="59.904178" lon="17.6679756">
        <ele>31.8607</ele>
        <time>2014-07-08T14:48:14Z</time>
      </trkpt>
      <trkpt lat="59.9041333" lon="17.668007">
        <ele>31.8607</ele>
        <time>2014-07-08T14:48:15Z</time>
      </trkpt>
      <trkpt lat="59.9040876" lon="17.6680469">
        <ele>31.8607</ele>
        <time>2014-07-08T14:48:16Z</time>
      </trkpt>
      <trkpt lat="59.9040417" lon="17.6680953">
        <ele>31.8607</ele>
        <time>2014-07-08T14:48:17Z</time>
      </trkpt>
      <trkpt lat="59.903996" lon="17.6681526">
        <ele>31.3801</ele>
        <time>2014-07-08T14:48:18Z</time>
      </trkpt>
      <trkpt lat="59.9039495" lon="17.6682213">
        <ele>31.3801</ele>
        <time>2014-07-08T14:48:19Z</time>
      </trkpt>
      <trkpt lat="59.9039024" lon="17.6682988">
        <ele>30.8995</ele>
        <time>2014-07-08T14:48:20Z</time>
      </trkpt>
      <trkpt lat="59.9038563" lon="17.6683852">
        <ele>30.4188</ele>
        <time>2014-07-08T14:48:21Z</time>
      </trkpt>
      <trkpt lat="59.9038107" lon="17.6684776">
        <ele>30.4188</ele>
        <time>2014-07-08T14:48:22Z</time>
      </trkpt>
      <trkpt lat="59.9037671" lon="17.6685758">
        <ele>29.9381</ele>
        <time>2014-07-08T14:48:23Z</time>
      </trkpt>
      <trkpt lat="59.9037263" lon="17.6686773">
        <ele>29.9381</ele>
        <time>2014-07-08T14:48:24Z</time>
      </trkpt>
      <trkpt lat="59.9036873" lon="17.66878">
        <ele>29.4575</ele>
        <time>2014-07-08T14:48:25Z</time>
      </trkpt>
      <trkpt lat="59.9036504" lon="17.6688848">
        <ele>29.4575</ele>
        <time>2014-07-08T14:48:26Z</time>
      </trkpt>
      <trkpt lat="59.9036127" lon="17.6689949">
        <ele>28.9769</ele>
        <time>2014-07-08T14:48:27Z</time>
      </trkpt>
      <trkpt lat="59.9035729" lon="17.6691028">
        <ele>28.0155</ele>
        <time>2014-07-08T14:48:28Z</time>
      </trkpt>
      <trkpt lat="59.903538" lon="17.6692178">
        <ele>28.0155</ele>
        <time>2014-07-08T14:48:29Z</time>
      </trkpt>
      <trkpt lat="59.9035081" lon="17.6693343">
        <ele>28.4962</ele>
        <time>2014-07-08T14:48:30Z</time>
      </trkpt>
      <trkpt lat="59.9034812" lon="17.6694513">
        <ele>28.4962</ele>
        <time>2014-07-08T14:48:31Z</time>
      </trkpt>
      <trkpt lat="59.9034522" lon="17.6695627">
        <ele>28.4962</ele>
        <time>2014-07-08T14:48:32Z</time>
      </trkpt>
      <trkpt lat="59.9034171" lon="17.6696637">
        <ele>28.0155</ele>
        <time>2014-07-08T14:48:33Z</time>
      </trkpt>
      <trkpt lat="59.9033774" lon="17.6697498">
        <ele>27.5349</ele>
        <time>2014-07-08T14:48:34Z</time>
      </trkpt>
      <trkpt lat="59.9033382" lon="17.6698213">
        <ele>27.5349</ele>
        <time>2014-07-08T14:48:35Z</time>
      </trkpt>
      <trkpt lat="59.9032863" lon="17.6698641">
        <ele>27.5349</ele>
        <time>2014-07-08T14:48:36Z</time>
      </trkpt>
      <trkpt lat="59.9032274" lon="17.6698822">
        <ele>27.0543</ele>
        <time>2014-07-08T14:48:37Z</time>
      </trkpt>
      <trkpt lat="59.9031697" lon="17.6698714">
        <ele>26.5736</ele>
        <time>2014-07-08T14:48:38Z</time>
      </trkpt>
      <trkpt lat="59.9031113" lon="17.6698496">
        <ele>27.5349</ele>
        <time>2014-07-08T14:48:39Z</time>
      </trkpt>
      <trkpt lat="59.9030559" lon="17.669817">
        <ele>28.0155</ele>
        <time>2014-07-08T14:48:40Z</time>
      </trkpt>
      <trkpt lat="59.9030026" lon="17.6697843">
        <ele>28.4962</ele>
        <time>2014-07-08T14:48:41Z</time>
      </trkpt>
      <trkpt lat="59.9029476" lon="17.6697562">
        <ele>28.4962</ele>
        <time>2014-07-08T14:48:42Z</time>
      </trkpt>
      <trkpt lat="59.902892" lon="17.6697436">
        <ele>28.4962</ele>
        <time>2014-07-08T14:48:43Z</time>
      </trkpt>
      <trkpt lat="59.9028374" lon="17.6697493">
        <ele>28.4962</ele>
        <time>2014-07-08T14:48:44Z</time>
      </trkpt>
      <trkpt lat="59.902782" lon="17.6697681">
        <ele>28.4962</ele>
        <time>2014-07-08T14:48:45Z</time>
      </trkpt>
      <trkpt lat="59.9027249" lon="17.6697929">
        <ele>28.4962</ele>
        <time>2014-07-08T14:48:46Z</time>
      </trkpt>
      <trkpt lat="59.9026658" lon="17.6698186">
        <ele>28.0155</ele>
        <time>2014-07-08T14:48:47Z</time>
      </trkpt>
      <trkpt lat="59.9026006" lon="17.6698524">
        <ele>28.0155</ele>
        <time>2014-07-08T14:48:48Z</time>
      </trkpt>
      <trkpt lat="59.9025349" lon="17.6698923">
        <ele>28.0155</ele>
        <time>2014-07-08T14:48:49Z</time>
      </trkpt>
      <trkpt lat="59.9024648" lon="17.6699187">
        <ele>28.0155</ele>
        <time>2014-07-08T14:48:50Z</time>
      </trkpt>
      <trkpt lat="59.9023928" lon="17.669934">
        <ele>28.0155</ele>
        <time>2014-07-08T14:48:51Z</time>
      </trkpt>
      <trkpt lat="59.9023239" lon="17.6699393">
        <ele>28.0155</ele>
        <time>2014-07-08T14:48:52Z</time>
      </trkpt>
      <trkpt lat="59.9022555" lon="17.6699309">
        <ele>28.0155</ele>
        <time>2014-07-08T14:48:53Z</time>
      </trkpt>
      <trkpt lat="59.9021883" lon="17.6699064">
        <ele>28.4962</ele>
        <time>2014-07-08T14:48:54Z</time>
      </trkpt>
      <trkpt lat="59.902123" lon="17.669871">
        <ele>28.4962</ele>
        <time>2014-07-08T14:48:55Z</time>
      </trkpt>
      <trkpt lat="59.9020592" lon="17.6698289">
        <ele>28.9769</ele>
        <time>2014-07-08T14:48:56Z</time>
      </trkpt>
      <trkpt lat="59.9019948" lon="17.6697831">
        <ele>28.9769</ele>
        <time>2014-07-08T14:48:57Z</time>
      </trkpt>
      <trkpt lat="59.9019288" lon="17.6697427">
        <ele>28.9769</ele>
        <time>2014-07-08T14:48:58Z</time>
      </trkpt>
      <trkpt lat="59.9018658" lon="17.6696968">
        <ele>28.9769</ele>
        <time>2014-07-08T14:48:59Z</time>
      </trkpt>
      <trkpt lat="59.9018023" lon="17.6696579">
        <ele>29.4575</ele>
        <time>2014-07-08T14:49:00Z</time>
      </trkpt>
      <trkpt lat="59.9017353" lon="17.6696203">
        <ele>29.4575</ele>
        <time>2014-07-08T14:49:01Z</time>
      </trkpt>
      <trkpt lat="59.9016665" lon="17.6695841">
        <ele>29.4575</ele>
        <time>2014-07-08T14:49:02Z</time>
      </trkpt>
      <trkpt lat="59.9015957" lon="17.6695559">
        <ele>29.4575</ele>
        <time>2014-07-08T14:49:03Z</time>
      </trkpt>
      <trkpt lat="59.9015241" lon="17.66954">
        <ele>29.4575</ele>
        <time>2014-07-08T14:49:04Z</time>
      </trkpt>
      <trkpt lat="59.9014515" lon="17.6695399">
        <ele>29.4575</ele>
        <time>2014-07-08T14:49:05Z</time>
      </trkpt>
      <trkpt lat="59.9013733" lon="17.6695451">
        <ele>28.9769</ele>
        <time>2014-07-08T14:49:06Z</time>
      </trkpt>
      <trkpt lat="59.9012951" lon="17.669566">
        <ele>29.4575</ele>
        <time>2014-07-08T14:49:07Z</time>
      </trkpt>
      <trkpt lat="59.9012237" lon="17.6695835">
        <ele>29.4575</ele>
        <time>2014-07-08T14:49:08Z</time>
      </trkpt>
      <trkpt lat="59.9011525" lon="17.6696022">
        <ele>29.9381</ele>
        <time>2014-07-08T14:49:09Z</time>
      </trkpt>
      <trkpt lat="59.9010832" lon="17.6696157">
        <ele>30.4188</ele>
        <time>2014-07-08T14:49:10Z</time>
      </trkpt>
      <trkpt lat="59.9010179" lon="17.6696308">
        <ele>30.4188</ele>
        <time>2014-07-08T14:49:11Z</time>
      </trkpt>
      <trkpt lat="59.9009668" lon="17.6696389">
        <ele>30.8995</ele>
        <time>2014-07-08T14:49:12Z</time>
      </trkpt>
      <trkpt lat="59.9009154" lon="17.6696473">
        <ele>30.8995</ele>
        <time>2014-07-08T14:49:13Z</time>
      </trkpt>
      <trkpt lat="59.9008568" lon="17.6696626">
        <ele>30.8995</ele>
        <time>2014-07-08T14:49:14Z</time>
      </trkpt>
      <trkpt lat="59.9007957" lon="17.669682">
        <ele>30.8995</ele>
        <time>2014-07-08T14:49:15Z</time>
      </trkpt>
      <trkpt lat="59.900735" lon="17.6697016">
        <ele>30.4188</ele>
        <time>2014-07-08T14:49:16Z</time>
      </trkpt>
      <trkpt lat="59.9006706" lon="17.6697162">
        <ele>30.4188</ele>
        <time>2014-07-08T14:49:17Z</time>
      </trkpt>
      <trkpt lat="59.9005968" lon="17.6697377">
        <ele>29.4575</ele>
        <time>2014-07-08T14:49:18Z</time>
      </trkpt>
      <trkpt lat="59.9005183" lon="17.6697638">
        <ele>29.4575</ele>
        <time>2014-07-08T14:49:19Z</time>
      </trkpt>
      <trkpt lat="59.9004409" lon="17.6697864">
        <ele>28.9769</ele>
        <time>2014-07-08T14:49:20Z</time>
      </trkpt>
      <trkpt lat="59.9003638" lon="17.6698109">
        <ele>28.9769</ele>
        <time>2014-07-08T14:49:21Z</time>
      </trkpt>
      <trkpt lat="59.9002877" lon="17.6698366">
        <ele>29.4575</ele>
        <time>2014-07-08T14:49:22Z</time>
      </trkpt>
      <trkpt lat="59.9002146" lon="17.669861">
        <ele>29.4575</ele>
        <time>2014-07-08T14:49:23Z</time>
      </trkpt>
      <trkpt lat="59.9001447" lon="17.6698841">
        <ele>29.4575</ele>
        <time>2014-07-08T14:49:24Z</time>
      </trkpt>
      <trkpt lat="59.9000806" lon="17.6699045">
        <ele>29.9381</ele>
        <time>2014-07-08T14:49:25Z</time>
      </trkpt>
      <trkpt lat="59.9000244" lon="17.6699207">
        <ele>29.9381</ele>
        <time>2014-07-08T14:49:26Z</time>
      </trkpt>
      <trkpt lat="59.8999721" lon="17.6699362">
        <ele>29.9381</ele>
        <time>2014-07-08T14:49:27Z</time>
      </trkpt>
      <trkpt lat="59.8999202" lon="17.6699553">
        <ele>29.9381</ele>
        <time>2014-07-08T14:49:28Z</time>
      </trkpt>
      <trkpt lat="59.8998668" lon="17.6699804">
        <ele>29.9381</ele>
        <time>2014-07-08T14:49:29Z</time>
      </trkpt>
      <trkpt lat="59.8998126" lon="17.6700062">
        <ele>29.9381</ele>
        <time>2014-07-08T14:49:30Z</time>
      </trkpt>
      <trkpt lat="59.899757" lon="17.6700343">
        <ele>29.9381</ele>
        <time>2014-07-08T14:49:31Z</time>
      </trkpt>
      <trkpt lat="59.899699" lon="17.6700636">
        <ele>29.9381</ele>
        <time>2014-07-08T14:49:32Z</time>
      </trkpt>
      <trkpt lat="59.8996394" lon="17.6700962">
        <ele>29.9381</ele>
        <time>2014-07-08T14:49:33Z</time>
      </trkpt>
      <trkpt lat="59.8995786" lon="17.6701322">
        <ele>29.9381</ele>
        <time>2014-07-08T14:49:34Z</time>
      </trkpt>
      <trkpt lat="59.8995177" lon="17.6701715">
        <ele>29.9381</ele>
        <time>2014-07-08T14:49:35Z</time>
      </trkpt>
      <trkpt lat="59.8994573" lon="17.6702259">
        <ele>29.9381</ele>
        <time>2014-07-08T14:49:36Z</time>
      </trkpt>
      <trkpt lat="59.8994016" lon="17.6703013">
        <ele>29.9381</ele>
        <time>2014-07-08T14:49:37Z</time>
      </trkpt>
      <trkpt lat="59.8993545" lon="17.6703963">
        <ele>29.9381</ele>
        <time>2014-07-08T14:49:38Z</time>
      </trkpt>
      <trkpt lat="59.899321" lon="17.6705041">
        <ele>30.4188</ele>
        <time>2014-07-08T14:49:39Z</time>
      </trkpt>
      <trkpt lat="59.8992941" lon="17.6706283">
        <ele>30.8995</ele>
        <time>2014-07-08T14:49:40Z</time>
      </trkpt>
      <trkpt lat="59.8992691" lon="17.670759">
        <ele>30.4188</ele>
        <time>2014-07-08T14:49:41Z</time>
      </trkpt>
      <trkpt lat="59.8992491" lon="17.670898">
        <ele>29.9381</ele>
        <time>2014-07-08T14:49:42Z</time>
      </trkpt>
      <trkpt lat="59.8992424" lon="17.6710453">
        <ele>29.4575</ele>
        <time>2014-07-08T14:49:43Z</time>
      </trkpt>
      <trkpt lat="59.899246" lon="17.6711988">
        <ele>29.4575</ele>
        <time>2014-07-08T14:49:44Z</time>
      </trkpt>
      <trkpt lat="59.8992525" lon="17.6713509">
        <ele>28.9769</ele>
        <time>2014-07-08T14:49:45Z</time>
      </trkpt>
      <trkpt lat="59.8992594" lon="17.6715034">
        <ele>28.9769</ele>
        <time>2014-07-08T14:49:46Z</time>
      </trkpt>
      <trkpt lat="59.8992649" lon="17.671652">
        <ele>29.4575</ele>
        <time>2014-07-08T14:49:47Z</time>
      </trkpt>
      <trkpt lat="59.8992677" lon="17.6717986">
        <ele>29.9381</ele>
        <time>2014-07-08T14:49:48Z</time>
      </trkpt>
      <trkpt lat="59.8992654" lon="17.6719388">
        <ele>29.9381</ele>
        <time>2014-07-08T14:49:49Z</time>
      </trkpt>
      <trkpt lat="59.8992578" lon="17.6720701">
        <ele>29.4575</ele>
        <time>2014-07-08T14:49:50Z</time>
      </trkpt>
      <trkpt lat="59.8992398" lon="17.6721993">
        <ele>28.9769</ele>
        <time>2014-07-08T14:49:51Z</time>
      </trkpt>
      <trkpt lat="59.8992173" lon="17.6723265">
        <ele>28.9769</ele>
        <time>2014-07-08T14:49:52Z</time>
      </trkpt>
      <trkpt lat="59.899195" lon="17.6724492">
        <ele>28.9769</ele>
        <time>2014-07-08T14:49:53Z</time>
      </trkpt>
      <trkpt lat="59.8991719" lon="17.6725695">
        <ele>28.9769</ele>
        <time>2014-07-08T14:49:54Z</time>
      </trkpt>
      <trkpt lat="59.8991491" lon="17.6726906">
        <ele>29.4575</ele>
        <time>2014-07-08T14:49:55Z</time>
      </trkpt>
      <trkpt lat="59.8991258" lon="17.6728114">
        <ele>29.4575</ele>
        <time>2014-07-08T14:49:56Z</time>
      </trkpt>
      <trkpt lat="59.8991041" lon="17.6729315">
        <ele>29.9381</ele>
        <time>2014-07-08T14:49:57Z</time>
      </trkpt>
      <trkpt lat="59.8990858" lon="17.6730488">
        <ele>29.9381</ele>
        <time>2014-07-08T14:49:58Z</time>
      </trkpt>
      <trkpt lat="59.8990735" lon="17.6731609">
        <ele>30.4188</ele>
        <time>2014-07-08T14:49:59Z</time>
      </trkpt>
      <trkpt lat="59.8990681" lon="17.673277">
        <ele>29.9381</ele>
        <time>2014-07-08T14:50:00Z</time>
      </trkpt>
      <trkpt lat="59.8990652" lon="17.673393">
        <ele>29.4575</ele>
        <time>2014-07-08T14:50:01Z</time>
      </trkpt>
      <trkpt lat="59.899065" lon="17.6735121">
        <ele>29.4575</ele>
        <time>2014-07-08T14:50:02Z</time>
      </trkpt>
      <trkpt lat="59.899062" lon="17.6736401">
        <ele>28.9769</ele>
        <time>2014-07-08T14:50:03Z</time>
      </trkpt>
      <trkpt lat="59.8990557" lon="17.6737756">
        <ele>28.9769</ele>
        <time>2014-07-08T14:50:04Z</time>
      </trkpt>
      <trkpt lat="59.8990422" lon="17.673911">
        <ele>28.9769</ele>
        <time>2014-07-08T14:50:05Z</time>
      </trkpt>
      <trkpt lat="59.8990211" lon="17.67404">
        <ele>28.4962</ele>
        <time>2014-07-08T14:50:06Z</time>
      </trkpt>
      <trkpt lat="59.8989925" lon="17.6741568">
        <ele>28.4962</ele>
        <time>2014-07-08T14:50:07Z</time>
      </trkpt>
      <trkpt lat="59.8989529" lon="17.6742533">
        <ele>28.0155</ele>
        <time>2014-07-08T14:50:08Z</time>
      </trkpt>
      <trkpt lat="59.8989139" lon="17.6743379">
        <ele>28.4962</ele>
        <time>2014-07-08T14:50:09Z</time>
      </trkpt>
      <trkpt lat="59.898872" lon="17.6744097">
        <ele>28.9769</ele>
        <time>2014-07-08T14:50:10Z</time>
      </trkpt>
      <trkpt lat="59.8988241" lon="17.6744772">
        <ele>28.4962</ele>
        <time>2014-07-08T14:50:11Z</time>
      </trkpt>
      <trkpt lat="59.8987738" lon="17.6745475">
        <ele>28.9769</ele>
        <time>2014-07-08T14:50:12Z</time>
      </trkpt>
      <trkpt lat="59.8987217" lon="17.6746139">
        <ele>28.9769</ele>
        <time>2014-07-08T14:50:13Z</time>
      </trkpt>
      <trkpt lat="59.8986719" lon="17.6746865">
        <ele>29.4575</ele>
        <time>2014-07-08T14:50:14Z</time>
      </trkpt>
      <trkpt lat="59.8986191" lon="17.6747629">
        <ele>29.4575</ele>
        <time>2014-07-08T14:50:15Z</time>
      </trkpt>
      <trkpt lat="59.8985705" lon="17.6748512">
        <ele>29.4575</ele>
        <time>2014-07-08T14:50:16Z</time>
      </trkpt>
      <trkpt lat="59.8985263" lon="17.674952">
        <ele>28.9769</ele>
        <time>2014-07-08T14:50:17Z</time>
      </trkpt>
      <trkpt lat="59.8984882" lon="17.6750654">
        <ele>28.9769</ele>
        <time>2014-07-08T14:50:18Z</time>
      </trkpt>
      <trkpt lat="59.8984651" lon="17.6751977">
        <ele>28.4962</ele>
        <time>2014-07-08T14:50:19Z</time>
      </trkpt>
      <trkpt lat="59.8984388" lon="17.6753209">
        <ele>28.4962</ele>
        <time>2014-07-08T14:50:20Z</time>
      </trkpt>
      <trkpt lat="59.8984202" lon="17.67545">
        <ele>28.0155</ele>
        <time>2014-07-08T14:50:21Z</time>
      </trkpt>
      <trkpt lat="59.8983968" lon="17.6757194">
        <ele>27.0543</ele>
        <time>2014-07-08T14:50:22Z</time>
      </trkpt>
      <trkpt lat="59.8983902" lon="17.6758591">
        <ele>26.5736</ele>
        <time>2014-07-08T14:50:23Z</time>
      </trkpt>
      <trkpt lat="59.8983848" lon="17.6760026">
        <ele>26.0929</ele>
        <time>2014-07-08T14:50:24Z</time>
      </trkpt>
      <trkpt lat="59.8983772" lon="17.6761478">
        <ele>26.0929</ele>
        <time>2014-07-08T14:50:25Z</time>
      </trkpt>
      <trkpt lat="59.8983674" lon="17.6762938">
        <ele>25.6123</ele>
        <time>2014-07-08T14:50:26Z</time>
      </trkpt>
      <trkpt lat="59.898356" lon="17.6764404">
        <ele>25.1317</ele>
        <time>2014-07-08T14:50:27Z</time>
      </trkpt>
      <trkpt lat="59.8983421" lon="17.6765884">
        <ele>25.1317</ele>
        <time>2014-07-08T14:50:28Z</time>
      </trkpt>
      <trkpt lat="59.898327" lon="17.6767368">
        <ele>25.1317</ele>
        <time>2014-07-08T14:50:29Z</time>
      </trkpt>
      <trkpt lat="59.8983104" lon="17.6768865">
        <ele>24.651</ele>
        <time>2014-07-08T14:50:30Z</time>
      </trkpt>
      <trkpt lat="59.8982927" lon="17.6770371">
        <ele>24.651</ele>
        <time>2014-07-08T14:50:31Z</time>
      </trkpt>
      <trkpt lat="59.8982736" lon="17.6771869">
        <ele>24.651</ele>
        <time>2014-07-08T14:50:32Z</time>
      </trkpt>
      <trkpt lat="59.8982539" lon="17.6773348">
        <ele>24.651</ele>
        <time>2014-07-08T14:50:33Z</time>
      </trkpt>
      <trkpt lat="59.8982317" lon="17.6774785">
        <ele>24.651</ele>
        <time>2014-07-08T14:50:34Z</time>
      </trkpt>
      <trkpt lat="59.8982053" lon="17.6776153">
        <ele>24.651</ele>
        <time>2014-07-08T14:50:35Z</time>
      </trkpt>
      <trkpt lat="59.8981761" lon="17.6777456">
        <ele>24.651</ele>
        <time>2014-07-08T14:50:36Z</time>
      </trkpt>
      <trkpt lat="59.8981451" lon="17.6778725">
        <ele>24.651</ele>
        <time>2014-07-08T14:50:37Z</time>
      </trkpt>
      <trkpt lat="59.8981116" lon="17.6779979">
        <ele>24.651</ele>
        <time>2014-07-08T14:50:38Z</time>
      </trkpt>
      <trkpt lat="59.8980758" lon="17.6781235">
        <ele>24.651</ele>
        <time>2014-07-08T14:50:39Z</time>
      </trkpt>
      <trkpt lat="59.8980393" lon="17.6782508">
        <ele>24.651</ele>
        <time>2014-07-08T14:50:40Z</time>
      </trkpt>
      <trkpt lat="59.8980017" lon="17.6783768">
        <ele>24.651</ele>
        <time>2014-07-08T14:50:41Z</time>
      </trkpt>
      <trkpt lat="59.8979612" lon="17.6784983">
        <ele>25.1317</ele>
        <time>2014-07-08T14:50:42Z</time>
      </trkpt>
      <trkpt lat="59.8979184" lon="17.6786181">
        <ele>25.1317</ele>
        <time>2014-07-08T14:50:43Z</time>
      </trkpt>
      <trkpt lat="59.8978757" lon="17.6787357">
        <ele>25.1317</ele>
        <time>2014-07-08T14:50:44Z</time>
      </trkpt>
      <trkpt lat="59.8978318" lon="17.6788477">
        <ele>24.651</ele>
        <time>2014-07-08T14:50:45Z</time>
      </trkpt>
      <trkpt lat="59.8977906" lon="17.678958">
        <ele>24.651</ele>
        <time>2014-07-08T14:50:46Z</time>
      </trkpt>
      <trkpt lat="59.8977498" lon="17.6790647">
        <ele>24.651</ele>
        <time>2014-07-08T14:50:47Z</time>
      </trkpt>
      <trkpt lat="59.8977076" lon="17.6791673">
        <ele>24.651</ele>
        <time>2014-07-08T14:50:48Z</time>
      </trkpt>
      <trkpt lat="59.8976659" lon="17.6792714">
        <ele>24.1703</ele>
        <time>2014-07-08T14:50:49Z</time>
      </trkpt>
      <trkpt lat="59.8976251" lon="17.6793771">
        <ele>24.651</ele>
        <time>2014-07-08T14:50:50Z</time>
      </trkpt>
      <trkpt lat="59.8975842" lon="17.6794836">
        <ele>24.1703</ele>
        <time>2014-07-08T14:50:51Z</time>
      </trkpt>
      <trkpt lat="59.8975432" lon="17.6795911">
        <ele>24.651</ele>
        <time>2014-07-08T14:50:52Z</time>
      </trkpt>
      <trkpt lat="59.8975023" lon="17.6796997">
        <ele>24.651</ele>
        <time>2014-07-08T14:50:53Z</time>
      </trkpt>
      <trkpt lat="59.8974614" lon="17.6798096">
        <ele>24.651</ele>
        <time>2014-07-08T14:50:54Z</time>
      </trkpt>
      <trkpt lat="59.8974206" lon="17.6799209">
        <ele>24.651</ele>
        <time>2014-07-08T14:50:55Z</time>
      </trkpt>
      <trkpt lat="59.8973804" lon="17.6800314">
        <ele>24.651</ele>
        <time>2014-07-08T14:50:56Z</time>
      </trkpt>
      <trkpt lat="59.8973401" lon="17.6801388">
        <ele>24.651</ele>
        <time>2014-07-08T14:50:57Z</time>
      </trkpt>
      <trkpt lat="59.8972998" lon="17.6802416">
        <ele>24.651</ele>
        <time>2014-07-08T14:50:58Z</time>
      </trkpt>
      <trkpt lat="59.8972582" lon="17.680343">
        <ele>24.651</ele>
        <time>2014-07-08T14:50:59Z</time>
      </trkpt>
      <trkpt lat="59.8972148" lon="17.6804448">
        <ele>24.651</ele>
        <time>2014-07-08T14:51:00Z</time>
      </trkpt>
      <trkpt lat="59.8971716" lon="17.6805513">
        <ele>24.651</ele>
        <time>2014-07-08T14:51:01Z</time>
      </trkpt>
      <trkpt lat="59.8971288" lon="17.6806627">
        <ele>24.651</ele>
        <time>2014-07-08T14:51:02Z</time>
      </trkpt>
      <trkpt lat="59.8970849" lon="17.6807752">
        <ele>24.651</ele>
        <time>2014-07-08T14:51:03Z</time>
      </trkpt>
      <trkpt lat="59.8970392" lon="17.680887">
        <ele>24.651</ele>
        <time>2014-07-08T14:51:04Z</time>
      </trkpt>
      <trkpt lat="59.8969926" lon="17.6809974">
        <ele>24.651</ele>
        <time>2014-07-08T14:51:05Z</time>
      </trkpt>
      <trkpt lat="59.8969455" lon="17.6811052">
        <ele>24.651</ele>
        <time>2014-07-08T14:51:06Z</time>
      </trkpt>
      <trkpt lat="59.8968968" lon="17.6812104">
        <ele>24.651</ele>
        <time>2014-07-08T14:51:07Z</time>
      </trkpt>
      <trkpt lat="59.896846" lon="17.6813132">
        <ele>24.651</ele>
        <time>2014-07-08T14:51:08Z</time>
      </trkpt>
      <trkpt lat="59.8967921" lon="17.6814113">
        <ele>25.1317</ele>
        <time>2014-07-08T14:51:09Z</time>
      </trkpt>
      <trkpt lat="59.8967378" lon="17.6815024">
        <ele>25.1317</ele>
        <time>2014-07-08T14:51:10Z</time>
      </trkpt>
      <trkpt lat="59.8966822" lon="17.6815904">
        <ele>25.1317</ele>
        <time>2014-07-08T14:51:11Z</time>
      </trkpt>
      <trkpt lat="59.8966273" lon="17.6816732">
        <ele>25.1317</ele>
        <time>2014-07-08T14:51:12Z</time>
      </trkpt>
      <trkpt lat="59.8965735" lon="17.681752">
        <ele>25.1317</ele>
        <time>2014-07-08T14:51:13Z</time>
      </trkpt>
      <trkpt lat="59.8965205" lon="17.6818293">
        <ele>25.1317</ele>
        <time>2014-07-08T14:51:14Z</time>
      </trkpt>
      <trkpt lat="59.8964666" lon="17.6819047">
        <ele>25.1317</ele>
        <time>2014-07-08T14:51:15Z</time>
      </trkpt>
      <trkpt lat="59.8964089" lon="17.6819763">
        <ele>25.1317</ele>
        <time>2014-07-08T14:51:16Z</time>
      </trkpt>
      <trkpt lat="59.8963514" lon="17.6820444">
        <ele>25.1317</ele>
        <time>2014-07-08T14:51:17Z</time>
      </trkpt>
      <trkpt lat="59.8962948" lon="17.6821127">
        <ele>25.6123</ele>
        <time>2014-07-08T14:51:18Z</time>
      </trkpt>
      <trkpt lat="59.8962389" lon="17.6821791">
        <ele>26.0929</ele>
        <time>2014-07-08T14:51:19Z</time>
      </trkpt>
      <trkpt lat="59.896185" lon="17.6822396">
        <ele>26.0929</ele>
        <time>2014-07-08T14:51:20Z</time>
      </trkpt>
      <trkpt lat="59.8961322" lon="17.6822976">
        <ele>26.0929</ele>
        <time>2014-07-08T14:51:21Z</time>
      </trkpt>
      <trkpt lat="59.8960799" lon="17.682352">
        <ele>26.5736</ele>
        <time>2014-07-08T14:51:22Z</time>
      </trkpt>
      <trkpt lat="59.8960296" lon="17.6824053">
        <ele>26.5736</ele>
        <time>2014-07-08T14:51:23Z</time>
      </trkpt>
      <trkpt lat="59.8959804" lon="17.6824566">
        <ele>27.0543</ele>
        <time>2014-07-08T14:51:24Z</time>
      </trkpt>
      <trkpt lat="59.89593" lon="17.6825037">
        <ele>27.0543</ele>
        <time>2014-07-08T14:51:25Z</time>
      </trkpt>
      <trkpt lat="59.8958808" lon="17.682544">
        <ele>27.5349</ele>
        <time>2014-07-08T14:51:26Z</time>
      </trkpt>
      <trkpt lat="59.8958313" lon="17.6825779">
        <ele>27.5349</ele>
        <time>2014-07-08T14:51:27Z</time>
      </trkpt>
      <trkpt lat="59.8957825" lon="17.682608">
        <ele>27.5349</ele>
        <time>2014-07-08T14:51:28Z</time>
      </trkpt>
      <trkpt lat="59.8957353" lon="17.6826431">
        <ele>27.0543</ele>
        <time>2014-07-08T14:51:29Z</time>
      </trkpt>
      <trkpt lat="59.8956844" lon="17.6826857">
        <ele>27.0543</ele>
        <time>2014-07-08T14:51:30Z</time>
      </trkpt>
      <trkpt lat="59.8956287" lon="17.6827275">
        <ele>26.5736</ele>
        <time>2014-07-08T14:51:31Z</time>
      </trkpt>
      <trkpt lat="59.895573" lon="17.6827706">
        <ele>26.0929</ele>
        <time>2014-07-08T14:51:32Z</time>
      </trkpt>
      <trkpt lat="59.8955178" lon="17.6828237">
        <ele>26.0929</ele>
        <time>2014-07-08T14:51:33Z</time>
      </trkpt>
      <trkpt lat="59.8954629" lon="17.6828841">
        <ele>25.6123</ele>
        <time>2014-07-08T14:51:34Z</time>
      </trkpt>
      <trkpt lat="59.8954085" lon="17.682948">
        <ele>25.6123</ele>
        <time>2014-07-08T14:51:35Z</time>
      </trkpt>
      <trkpt lat="59.8953542" lon="17.6830134">
        <ele>25.6123</ele>
        <time>2014-07-08T14:51:36Z</time>
      </trkpt>
      <trkpt lat="59.8953002" lon="17.6830839">
        <ele>25.1317</ele>
        <time>2014-07-08T14:51:37Z</time>
      </trkpt>
      <trkpt lat="59.895247" lon="17.6831576">
        <ele>25.1317</ele>
        <time>2014-07-08T14:51:38Z</time>
      </trkpt>
      <trkpt lat="59.8951919" lon="17.6832289">
        <ele>25.1317</ele>
        <time>2014-07-08T14:51:39Z</time>
      </trkpt>
      <trkpt lat="59.8951345" lon="17.683302">
        <ele>24.651</ele>
        <time>2014-07-08T14:51:40Z</time>
      </trkpt>
      <trkpt lat="59.8950748" lon="17.6833822">
        <ele>24.1703</ele>
        <time>2014-07-08T14:51:41Z</time>
      </trkpt>
      <trkpt lat="59.895019" lon="17.6834636">
        <ele>23.6896</ele>
        <time>2014-07-08T14:51:42Z</time>
      </trkpt>
      <trkpt lat="59.8949706" lon="17.6835532">
        <ele>23.6896</ele>
        <time>2014-07-08T14:51:43Z</time>
      </trkpt>
      <trkpt lat="59.8949288" lon="17.6836535">
        <ele>23.6896</ele>
        <time>2014-07-08T14:51:44Z</time>
      </trkpt>
      <trkpt lat="59.8948936" lon="17.6837614">
        <ele>23.6896</ele>
        <time>2014-07-08T14:51:45Z</time>
      </trkpt>
      <trkpt lat="59.8948662" lon="17.6838729">
        <ele>23.6896</ele>
        <time>2014-07-08T14:51:46Z</time>
      </trkpt>
      <trkpt lat="59.8948454" lon="17.6839868">
        <ele>23.6896</ele>
        <time>2014-07-08T14:51:47Z</time>
      </trkpt>
      <trkpt lat="59.8948276" lon="17.6841033">
        <ele>23.6896</ele>
        <time>2014-07-08T14:51:48Z</time>
      </trkpt>
      <trkpt lat="59.894814" lon="17.6842215">
        <ele>23.6896</ele>
        <time>2014-07-08T14:51:49Z</time>
      </trkpt>
      <trkpt lat="59.8948026" lon="17.6843461">
        <ele>23.6896</ele>
        <time>2014-07-08T14:51:50Z</time>
      </trkpt>
      <trkpt lat="59.8947916" lon="17.6844805">
        <ele>24.1703</ele>
        <time>2014-07-08T14:51:51Z</time>
      </trkpt>
      <trkpt lat="59.8947791" lon="17.6846188">
        <ele>23.6896</ele>
        <time>2014-07-08T14:51:52Z</time>
      </trkpt>
      <trkpt lat="59.8947682" lon="17.6847612">
        <ele>23.6896</ele>
        <time>2014-07-08T14:51:53Z</time>
      </trkpt>
      <trkpt lat="59.8947567" lon="17.6849068">
        <ele>23.6896</ele>
        <time>2014-07-08T14:51:54Z</time>
      </trkpt>
      <trkpt lat="59.8947444" lon="17.6850465">
        <ele>23.6896</ele>
        <time>2014-07-08T14:51:55Z</time>
      </trkpt>
      <trkpt lat="59.8947349" lon="17.685185">
        <ele>23.6896</ele>
        <time>2014-07-08T14:51:56Z</time>
      </trkpt>
      <trkpt lat="59.8947264" lon="17.6853215">
        <ele>23.6896</ele>
        <time>2014-07-08T14:51:57Z</time>
      </trkpt>
      <trkpt lat="59.8947197" lon="17.6854583">
        <ele>24.1703</ele>
        <time>2014-07-08T14:51:58Z</time>
      </trkpt>
      <trkpt lat="59.8947127" lon="17.6855955">
        <ele>24.1703</ele>
        <time>2014-07-08T14:51:59Z</time>
      </trkpt>
      <trkpt lat="59.8947041" lon="17.6857349">
        <ele>24.1703</ele>
        <time>2014-07-08T14:52:00Z</time>
      </trkpt>
      <trkpt lat="59.8946952" lon="17.6858787">
        <ele>23.6896</ele>
        <time>2014-07-08T14:52:01Z</time>
      </trkpt>
      <trkpt lat="59.8946853" lon="17.6860261">
        <ele>24.1703</ele>
        <time>2014-07-08T14:52:02Z</time>
      </trkpt>
      <trkpt lat="59.8946724" lon="17.6861763">
        <ele>24.1703</ele>
        <time>2014-07-08T14:52:03Z</time>
      </trkpt>
      <trkpt lat="59.8946565" lon="17.6863247">
        <ele>24.1703</ele>
        <time>2014-07-08T14:52:04Z</time>
      </trkpt>
      <trkpt lat="59.8946398" lon="17.686469">
        <ele>24.1703</ele>
        <time>2014-07-08T14:52:05Z</time>
      </trkpt>
      <trkpt lat="59.8946241" lon="17.6866091">
        <ele>24.1703</ele>
        <time>2014-07-08T14:52:06Z</time>
      </trkpt>
      <trkpt lat="59.8946067" lon="17.6867431">
        <ele>24.1703</ele>
        <time>2014-07-08T14:52:07Z</time>
      </trkpt>
      <trkpt lat="59.894587" lon="17.6868706">
        <ele>24.651</ele>
        <time>2014-07-08T14:52:08Z</time>
      </trkpt>
      <trkpt lat="59.8945666" lon="17.6869938">
        <ele>24.651</ele>
        <time>2014-07-08T14:52:09Z</time>
      </trkpt>
      <trkpt lat="59.8945454" lon="17.6871147">
        <ele>25.1317</ele>
        <time>2014-07-08T14:52:10Z</time>
      </trkpt>
      <trkpt lat="59.8945235" lon="17.6872342">
        <ele>25.1317</ele>
        <time>2014-07-08T14:52:11Z</time>
      </trkpt>
      <trkpt lat="59.8945005" lon="17.6873518">
        <ele>25.1317</ele>
        <time>2014-07-08T14:52:12Z</time>
      </trkpt>
      <trkpt lat="59.8944777" lon="17.6874676">
        <ele>25.1317</ele>
        <time>2014-07-08T14:52:13Z</time>
      </trkpt>
      <trkpt lat="59.8944554" lon="17.6875795">
        <ele>25.6123</ele>
        <time>2014-07-08T14:52:14Z</time>
      </trkpt>
      <trkpt lat="59.8944322" lon="17.6876844">
        <ele>25.6123</ele>
        <time>2014-07-08T14:52:15Z</time>
      </trkpt>
      <trkpt lat="59.8944089" lon="17.6877838">
        <ele>25.6123</ele>
        <time>2014-07-08T14:52:16Z</time>
      </trkpt>
      <trkpt lat="59.8943865" lon="17.6878812">
        <ele>25.6123</ele>
        <time>2014-07-08T14:52:17Z</time>
      </trkpt>
      <trkpt lat="59.8943632" lon="17.6879781">
        <ele>25.6123</ele>
        <time>2014-07-08T14:52:18Z</time>
      </trkpt>
      <trkpt lat="59.89434" lon="17.6880749">
        <ele>25.6123</ele>
        <time>2014-07-08T14:52:19Z</time>
      </trkpt>
      <trkpt lat="59.8943174" lon="17.6881713">
        <ele>25.6123</ele>
        <time>2014-07-08T14:52:20Z</time>
      </trkpt>
      <trkpt lat="59.8942954" lon="17.6882665">
        <ele>25.6123</ele>
        <time>2014-07-08T14:52:21Z</time>
      </trkpt>
      <trkpt lat="59.8942759" lon="17.68836">
        <ele>26.0929</ele>
        <time>2014-07-08T14:52:22Z</time>
      </trkpt>
      <trkpt lat="59.894259" lon="17.6884524">
        <ele>26.0929</ele>
        <time>2014-07-08T14:52:23Z</time>
      </trkpt>
      <trkpt lat="59.894243" lon="17.6885417">
        <ele>26.0929</ele>
        <time>2014-07-08T14:52:24Z</time>
      </trkpt>
      <trkpt lat="59.8942288" lon="17.6886313">
        <ele>26.5736</ele>
        <time>2014-07-08T14:52:25Z</time>
      </trkpt>
      <trkpt lat="59.8942191" lon="17.688724">
        <ele>26.5736</ele>
        <time>2014-07-08T14:52:26Z</time>
      </trkpt>
      <trkpt lat="59.8942074" lon="17.6888165">
        <ele>26.5736</ele>
        <time>2014-07-08T14:52:27Z</time>
      </trkpt>
      <trkpt lat="59.8941937" lon="17.68891">
        <ele>26.5736</ele>
        <time>2014-07-08T14:52:28Z</time>
      </trkpt>
      <trkpt lat="59.8941799" lon="17.6890066">
        <ele>26.5736</ele>
        <time>2014-07-08T14:52:29Z</time>
      </trkpt>
      <trkpt lat="59.8941673" lon="17.6891041">
        <ele>26.5736</ele>
        <time>2014-07-08T14:52:30Z</time>
      </trkpt>
      <trkpt lat="59.894156" lon="17.6892011">
        <ele>26.5736</ele>
        <time>2014-07-08T14:52:31Z</time>
      </trkpt>
      <trkpt lat="59.8941444" lon="17.6892981">
        <ele>27.0543</ele>
        <time>2014-07-08T14:52:32Z</time>
      </trkpt>
      <trkpt lat="59.8941326" lon="17.6893964">
        <ele>27.0543</ele>
        <time>2014-07-08T14:52:33Z</time>
      </trkpt>
      <trkpt lat="59.8941205" lon="17.6894956">
        <ele>27.0543</ele>
        <time>2014-07-08T14:52:34Z</time>
      </trkpt>
      <trkpt lat="59.8941091" lon="17.6895952">
        <ele>27.0543</ele>
        <time>2014-07-08T14:52:35Z</time>
      </trkpt>
      <trkpt lat="59.8941" lon="17.6896927">
        <ele>27.0543</ele>
        <time>2014-07-08T14:52:36Z</time>
      </trkpt>
      <trkpt lat="59.8940912" lon="17.6897896">
        <ele>27.0543</ele>
        <time>2014-07-08T14:52:37Z</time>
      </trkpt>
      <trkpt lat="59.8940804" lon="17.6898859">
        <ele>27.0543</ele>
        <time>2014-07-08T14:52:38Z</time>
      </trkpt>
      <trkpt lat="59.8940684" lon="17.6899836">
        <ele>27.0543</ele>
        <time>2014-07-08T14:52:39Z</time>
      </trkpt>
      <trkpt lat="59.894055" lon="17.6900847">
        <ele>27.0543</ele>
        <time>2014-07-08T14:52:40Z</time>
      </trkpt>
      <trkpt lat="59.8940379" lon="17.690186">
        <ele>26.5736</ele>
        <time>2014-07-08T14:52:41Z</time>
      </trkpt>
      <trkpt lat="59.8940213" lon="17.6902936">
        <ele>26.5736</ele>
        <time>2014-07-08T14:52:42Z</time>
      </trkpt>
      <trkpt lat="59.8940083" lon="17.6904111">
        <ele>26.0929</ele>
        <time>2014-07-08T14:52:43Z</time>
      </trkpt>
      <trkpt lat="59.8939924" lon="17.690532">
        <ele>25.6123</ele>
        <time>2014-07-08T14:52:44Z</time>
      </trkpt>
      <trkpt lat="59.8939734" lon="17.6906541">
        <ele>25.6123</ele>
        <time>2014-07-08T14:52:45Z</time>
      </trkpt>
      <trkpt lat="59.8939545" lon="17.6907784">
        <ele>25.1317</ele>
        <time>2014-07-08T14:52:46Z</time>
      </trkpt>
      <trkpt lat="59.8939354" lon="17.6909022">
        <ele>25.1317</ele>
        <time>2014-07-08T14:52:47Z</time>
      </trkpt>
      <trkpt lat="59.8939156" lon="17.6910245">
        <ele>24.651</ele>
        <time>2014-07-08T14:52:48Z</time>
      </trkpt>
      <trkpt lat="59.8938994" lon="17.6911432">
        <ele>24.651</ele>
        <time>2014-07-08T14:52:49Z</time>
      </trkpt>
      <trkpt lat="59.8938876" lon="17.6912626">
        <ele>24.651</ele>
        <time>2014-07-08T14:52:50Z</time>
      </trkpt>
      <trkpt lat="59.8938792" lon="17.6913887">
        <ele>24.651</ele>
        <time>2014-07-08T14:52:51Z</time>
      </trkpt>
      <trkpt lat="59.8938716" lon="17.6915198">
        <ele>24.651</ele>
        <time>2014-07-08T14:52:52Z</time>
      </trkpt>
      <trkpt lat="59.8938693" lon="17.6916555">
        <ele>24.651</ele>
        <time>2014-07-08T14:52:53Z</time>
      </trkpt>
      <trkpt lat="59.8938685" lon="17.6917962">
        <ele>24.651</ele>
        <time>2014-07-08T14:52:54Z</time>
      </trkpt>
      <trkpt lat="59.893869" lon="17.6919394">
        <ele>25.1317</ele>
        <time>2014-07-08T14:52:55Z</time>
      </trkpt>
      <trkpt lat="59.893869" lon="17.6920838">
        <ele>24.651</ele>
        <time>2014-07-08T14:52:56Z</time>
      </trkpt>
      <trkpt lat="59.8938691" lon="17.6922367">
        <ele>24.651</ele>
        <time>2014-07-08T14:52:57Z</time>
      </trkpt>
      <trkpt lat="59.8938695" lon="17.69239">
        <ele>24.651</ele>
        <time>2014-07-08T14:52:58Z</time>
      </trkpt>
      <trkpt lat="59.8938685" lon="17.6925412">
        <ele>24.651</ele>
        <time>2014-07-08T14:52:59Z</time>
      </trkpt>
      <trkpt lat="59.8938665" lon="17.6926935">
        <ele>24.651</ele>
        <time>2014-07-08T14:53:00Z</time>
      </trkpt>
      <trkpt lat="59.8938626" lon="17.6928452">
        <ele>24.651</ele>
        <time>2014-07-08T14:53:01Z</time>
      </trkpt>
      <trkpt lat="59.8938572" lon="17.6929962">
        <ele>25.1317</ele>
        <time>2014-07-08T14:53:02Z</time>
      </trkpt>
      <trkpt lat="59.8938501" lon="17.6931432">
        <ele>25.1317</ele>
        <time>2014-07-08T14:53:03Z</time>
      </trkpt>
      <trkpt lat="59.8938432" lon="17.6932854">
        <ele>25.1317</ele>
        <time>2014-07-08T14:53:04Z</time>
      </trkpt>
      <trkpt lat="59.8938373" lon="17.6934225">
        <ele>25.1317</ele>
        <time>2014-07-08T14:53:05Z</time>
      </trkpt>
      <trkpt lat="59.893832" lon="17.6935586">
        <ele>25.1317</ele>
        <time>2014-07-08T14:53:06Z</time>
      </trkpt>
      <trkpt lat="59.8938265" lon="17.6936908">
        <ele>24.651</ele>
        <time>2014-07-08T14:53:07Z</time>
      </trkpt>
      <trkpt lat="59.8938207" lon="17.69382">
        <ele>24.651</ele>
        <time>2014-07-08T14:53:08Z</time>
      </trkpt>
      <trkpt lat="59.8938155" lon="17.6939503">
        <ele>24.651</ele>
        <time>2014-07-08T14:53:09Z</time>
      </trkpt>
      <trkpt lat="59.8938106" lon="17.6940829">
        <ele>24.651</ele>
        <time>2014-07-08T14:53:10Z</time>
      </trkpt>
      <trkpt lat="59.8938061" lon="17.6942176">
        <ele>24.651</ele>
        <time>2014-07-08T14:53:11Z</time>
      </trkpt>
      <trkpt lat="59.8938016" lon="17.6943543">
        <ele>24.651</ele>
        <time>2014-07-08T14:53:12Z</time>
      </trkpt>
      <trkpt lat="59.8937975" lon="17.6944929">
        <ele>24.651</ele>
        <time>2014-07-08T14:53:13Z</time>
      </trkpt>
      <trkpt lat="59.8937929" lon="17.6946334">
        <ele>24.651</ele>
        <time>2014-07-08T14:53:14Z</time>
      </trkpt>
      <trkpt lat="59.893788" lon="17.6947749">
        <ele>24.651</ele>
        <time>2014-07-08T14:53:15Z</time>
      </trkpt>
      <trkpt lat="59.893784" lon="17.6949174">
        <ele>24.651</ele>
        <time>2014-07-08T14:53:16Z</time>
      </trkpt>
      <trkpt lat="59.8937809" lon="17.6950619">
        <ele>24.651</ele>
        <time>2014-07-08T14:53:17Z</time>
      </trkpt>
      <trkpt lat="59.8937767" lon="17.695207">
        <ele>24.651</ele>
        <time>2014-07-08T14:53:18Z</time>
      </trkpt>
      <trkpt lat="59.8937722" lon="17.6953521">
        <ele>24.651</ele>
        <time>2014-07-08T14:53:19Z</time>
      </trkpt>
      <trkpt lat="59.8937664" lon="17.6954961">
        <ele>24.651</ele>
        <time>2014-07-08T14:53:20Z</time>
      </trkpt>
      <trkpt lat="59.8937608" lon="17.6956385">
        <ele>24.651</ele>
        <time>2014-07-08T14:53:21Z</time>
      </trkpt>
      <trkpt lat="59.8937555" lon="17.6957766">
        <ele>25.1317</ele>
        <time>2014-07-08T14:53:22Z</time>
      </trkpt>
      <trkpt lat="59.8937512" lon="17.6959102">
        <ele>25.1317</ele>
        <time>2014-07-08T14:53:23Z</time>
      </trkpt>
      <trkpt lat="59.8937467" lon="17.6960418">
        <ele>25.1317</ele>
        <time>2014-07-08T14:53:24Z</time>
      </trkpt>
      <trkpt lat="59.8937419" lon="17.6961677">
        <ele>25.1317</ele>
        <time>2014-07-08T14:53:25Z</time>
      </trkpt>
      <trkpt lat="59.8937401" lon="17.6962902">
        <ele>25.1317</ele>
        <time>2014-07-08T14:53:26Z</time>
      </trkpt>
      <trkpt lat="59.8937405" lon="17.6964133">
        <ele>25.1317</ele>
        <time>2014-07-08T14:53:27Z</time>
      </trkpt>
      <trkpt lat="59.8937405" lon="17.6965372">
        <ele>25.1317</ele>
        <time>2014-07-08T14:53:28Z</time>
      </trkpt>
      <trkpt lat="59.8937395" lon="17.6966659">
        <ele>24.651</ele>
        <time>2014-07-08T14:53:29Z</time>
      </trkpt>
      <trkpt lat="59.8937348" lon="17.6968008">
        <ele>24.1703</ele>
        <time>2014-07-08T14:53:30Z</time>
      </trkpt>
      <trkpt lat="59.8937284" lon="17.6969417">
        <ele>23.6896</ele>
        <time>2014-07-08T14:53:31Z</time>
      </trkpt>
      <trkpt lat="59.8937183" lon="17.6970831">
        <ele>23.209</ele>
        <time>2014-07-08T14:53:32Z</time>
      </trkpt>
      <trkpt lat="59.8937049" lon="17.6972235">
        <ele>22.7283</ele>
        <time>2014-07-08T14:53:33Z</time>
      </trkpt>
      <trkpt lat="59.8936878" lon="17.6973606">
        <ele>22.7283</ele>
        <time>2014-07-08T14:53:34Z</time>
      </trkpt>
      <trkpt lat="59.8936668" lon="17.6974929">
        <ele>22.7283</ele>
        <time>2014-07-08T14:53:35Z</time>
      </trkpt>
      <trkpt lat="59.8936414" lon="17.6976189">
        <ele>22.2476</ele>
        <time>2014-07-08T14:53:36Z</time>
      </trkpt>
      <trkpt lat="59.893612" lon="17.697738">
        <ele>22.2476</ele>
        <time>2014-07-08T14:53:37Z</time>
      </trkpt>
      <trkpt lat="59.8935809" lon="17.6978514">
        <ele>22.2476</ele>
        <time>2014-07-08T14:53:38Z</time>
      </trkpt>
      <trkpt lat="59.8935485" lon="17.6979587">
        <ele>21.767</ele>
        <time>2014-07-08T14:53:39Z</time>
      </trkpt>
      <trkpt lat="59.8935145" lon="17.6980615">
        <ele>21.767</ele>
        <time>2014-07-08T14:53:40Z</time>
      </trkpt>
      <trkpt lat="59.8934793" lon="17.6981627">
        <ele>21.2864</ele>
        <time>2014-07-08T14:53:41Z</time>
      </trkpt>
      <trkpt lat="59.8934427" lon="17.6982647">
        <ele>21.2864</ele>
        <time>2014-07-08T14:53:42Z</time>
      </trkpt>
      <trkpt lat="59.8934052" lon="17.6983651">
        <ele>21.2864</ele>
        <time>2014-07-08T14:53:43Z</time>
      </trkpt>
      <trkpt lat="59.893366" lon="17.6984636">
        <ele>21.2864</ele>
        <time>2014-07-08T14:53:44Z</time>
      </trkpt>
      <trkpt lat="59.893324" lon="17.6985577">
        <ele>20.8057</ele>
        <time>2014-07-08T14:53:45Z</time>
      </trkpt>
      <trkpt lat="59.8932796" lon="17.6986442">
        <ele>20.8057</ele>
        <time>2014-07-08T14:53:46Z</time>
      </trkpt>
      <trkpt lat="59.8932406" lon="17.6987349">
        <ele>20.8057</ele>
        <time>2014-07-08T14:53:47Z</time>
      </trkpt>
      <trkpt lat="59.8932147" lon="17.6988397">
        <ele>20.8057</ele>
        <time>2014-07-08T14:53:48Z</time>
      </trkpt>
      <trkpt lat="59.8932014" lon="17.6989547">
        <ele>20.325</ele>
        <time>2014-07-08T14:53:49Z</time>
      </trkpt>
      <trkpt lat="59.8931899" lon="17.6990716">
        <ele>20.325</ele>
        <time>2014-07-08T14:53:50Z</time>
      </trkpt>
      <trkpt lat="59.893169" lon="17.6991807">
        <ele>20.325</ele>
        <time>2014-07-08T14:53:51Z</time>
      </trkpt>
      <trkpt lat="59.8931381" lon="17.6992774">
        <ele>20.325</ele>
        <time>2014-07-08T14:53:52Z</time>
      </trkpt>
      <trkpt lat="59.8931013" lon="17.6993661">
        <ele>19.8444</ele>
        <time>2014-07-08T14:53:53Z</time>
      </trkpt>
      <trkpt lat="59.8930619" lon="17.6994526">
        <ele>19.8444</ele>
        <time>2014-07-08T14:53:54Z</time>
      </trkpt>
      <trkpt lat="59.8930231" lon="17.6995409">
        <ele>19.8444</ele>
        <time>2014-07-08T14:53:55Z</time>
      </trkpt>
      <trkpt lat="59.8929838" lon="17.6996302">
        <ele>19.8444</ele>
        <time>2014-07-08T14:53:56Z</time>
      </trkpt>
      <trkpt lat="59.8929441" lon="17.6997206">
        <ele>19.8444</ele>
        <time>2014-07-08T14:53:57Z</time>
      </trkpt>
      <trkpt lat="59.8929045" lon="17.6998136">
        <ele>19.8444</ele>
        <time>2014-07-08T14:53:58Z</time>
      </trkpt>
      <trkpt lat="59.8928651" lon="17.6999084">
        <ele>19.3638</ele>
        <time>2014-07-08T14:53:59Z</time>
      </trkpt>
      <trkpt lat="59.8928265" lon="17.7000015">
        <ele>19.3638</ele>
        <time>2014-07-08T14:54:00Z</time>
      </trkpt>
      <trkpt lat="59.892789" lon="17.7000934">
        <ele>19.3638</ele>
        <time>2014-07-08T14:54:01Z</time>
      </trkpt>
      <trkpt lat="59.8927546" lon="17.7001843">
        <ele>19.3638</ele>
        <time>2014-07-08T14:54:02Z</time>
      </trkpt>
      <trkpt lat="59.8927198" lon="17.7002745">
        <ele>19.3638</ele>
        <time>2014-07-08T14:54:03Z</time>
      </trkpt>
      <trkpt lat="59.8926834" lon="17.7003632">
        <ele>19.3638</ele>
        <time>2014-07-08T14:54:04Z</time>
      </trkpt>
      <trkpt lat="59.8926471" lon="17.70045">
        <ele>19.3638</ele>
        <time>2014-07-08T14:54:05Z</time>
      </trkpt>
      <trkpt lat="59.8926124" lon="17.7005352">
        <ele>18.8831</ele>
        <time>2014-07-08T14:54:06Z</time>
      </trkpt>
      <trkpt lat="59.8925817" lon="17.7006199">
        <ele>18.8831</ele>
        <time>2014-07-08T14:54:07Z</time>
      </trkpt>
      <trkpt lat="59.8925567" lon="17.7006988">
        <ele>18.8831</ele>
        <time>2014-07-08T14:54:08Z</time>
      </trkpt>
      <trkpt lat="59.8925331" lon="17.7007683">
        <ele>18.8831</ele>
        <time>2014-07-08T14:54:09Z</time>
      </trkpt>
      <trkpt lat="59.8925123" lon="17.7008299">
        <ele>18.8831</ele>
        <time>2014-07-08T14:54:10Z</time>
      </trkpt>
      <trkpt lat="59.8924959" lon="17.7008823">
        <ele>18.8831</ele>
        <time>2014-07-08T14:54:11Z</time>
      </trkpt>
      <trkpt lat="59.892481" lon="17.7009211">
        <ele>18.8831</ele>
        <time>2014-07-08T14:54:12Z</time>
      </trkpt>
      <trkpt lat="59.892467" lon="17.7009386">
        <ele>18.8831</ele>
        <time>2014-07-08T14:54:13Z</time>
      </trkpt>
      <trkpt lat="59.8924536" lon="17.7009414">
        <ele>18.8831</ele>
        <time>2014-07-08T14:54:14Z</time>
      </trkpt>
      <trkpt lat="59.8924425" lon="17.7009525">
        <ele>18.8831</ele>
        <time>2014-07-08T14:54:15Z</time>
      </trkpt>
      <trkpt lat="59.8924337" lon="17.7009754">
        <ele>19.3638</ele>
        <time>2014-07-08T14:54:16Z</time>
      </trkpt>
      <trkpt lat="59.8924251" lon="17.7010017">
        <ele>19.3638</ele>
        <time>2014-07-08T14:54:17Z</time>
      </trkpt>
      <trkpt lat="59.8924155" lon="17.7010287">
        <ele>19.8444</ele>
        <time>2014-07-08T14:54:18Z</time>
      </trkpt>
      <trkpt lat="59.892403" lon="17.7010608">
        <ele>19.8444</ele>
        <time>2014-07-08T14:54:19Z</time>
      </trkpt>
      <trkpt lat="59.892387" lon="17.7011039">
        <ele>20.325</ele>
        <time>2014-07-08T14:54:20Z</time>
      </trkpt>
      <trkpt lat="59.8923672" lon="17.7011568">
        <ele>20.325</ele>
        <time>2014-07-08T14:54:21Z</time>
      </trkpt>
      <trkpt lat="59.8923481" lon="17.7012179">
        <ele>20.325</ele>
        <time>2014-07-08T14:54:22Z</time>
      </trkpt>
      <trkpt lat="59.8923383" lon="17.701289">
        <ele>20.325</ele>
        <time>2014-07-08T14:54:23Z</time>
      </trkpt>
      <trkpt lat="59.8923479" lon="17.7013593">
        <ele>20.8057</ele>
        <time>2014-07-08T14:54:24Z</time>
      </trkpt>
      <trkpt lat="59.8923745" lon="17.7014177">
        <ele>20.8057</ele>
        <time>2014-07-08T14:54:25Z</time>
      </trkpt>
      <trkpt lat="59.8924091" lon="17.7014724">
        <ele>20.8057</ele>
        <time>2014-07-08T14:54:26Z</time>
      </trkpt>
      <trkpt lat="59.8924468" lon="17.7015287">
        <ele>21.2864</ele>
        <time>2014-07-08T14:54:27Z</time>
      </trkpt>
      <trkpt lat="59.8924864" lon="17.7015871">
        <ele>21.2864</ele>
        <time>2014-07-08T14:54:28Z</time>
      </trkpt>
      <trkpt lat="59.8925272" lon="17.7016493">
        <ele>21.2864</ele>
        <time>2014-07-08T14:54:29Z</time>
      </trkpt>
      <trkpt lat="59.8925689" lon="17.7017131">
        <ele>21.2864</ele>
        <time>2014-07-08T14:54:30Z</time>
      </trkpt>
      <trkpt lat="59.8926126" lon="17.7017764">
        <ele>21.2864</ele>
        <time>2014-07-08T14:54:31Z</time>
      </trkpt>
      <trkpt lat="59.892658" lon="17.7018374">
        <ele>21.767</ele>
        <time>2014-07-08T14:54:32Z</time>
      </trkpt>
      <trkpt lat="59.8927066" lon="17.7018932">
        <ele>21.767</ele>
        <time>2014-07-08T14:54:33Z</time>
      </trkpt>
      <trkpt lat="59.8927568" lon="17.7019451">
        <ele>21.767</ele>
        <time>2014-07-08T14:54:34Z</time>
      </trkpt>
      <trkpt lat="59.8928081" lon="17.7019973">
        <ele>21.767</ele>
        <time>2014-07-08T14:54:35Z</time>
      </trkpt>
      <trkpt lat="59.8928595" lon="17.7020553">
        <ele>21.767</ele>
        <time>2014-07-08T14:54:36Z</time>
      </trkpt>
      <trkpt lat="59.8929102" lon="17.7021211">
        <ele>22.2476</ele>
        <time>2014-07-08T14:54:37Z</time>
      </trkpt>
      <trkpt lat="59.8929604" lon="17.7021901">
        <ele>22.2476</ele>
        <time>2014-07-08T14:54:38Z</time>
      </trkpt>
      <trkpt lat="59.8930126" lon="17.7022576">
        <ele>22.2476</ele>
        <time>2014-07-08T14:54:39Z</time>
      </trkpt>
      <trkpt lat="59.8930662" lon="17.7023239">
        <ele>22.2476</ele>
        <time>2014-07-08T14:54:40Z</time>
      </trkpt>
      <trkpt lat="59.8931201" lon="17.7023929">
        <ele>22.2476</ele>
        <time>2014-07-08T14:54:41Z</time>
      </trkpt>
      <trkpt lat="59.8931746" lon="17.7024646">
        <ele>22.2476</ele>
        <time>2014-07-08T14:54:42Z</time>
      </trkpt>
      <trkpt lat="59.8932298" lon="17.7025374">
        <ele>22.2476</ele>
        <time>2014-07-08T14:54:43Z</time>
      </trkpt>
      <trkpt lat="59.8932858" lon="17.702612">
        <ele>22.2476</ele>
        <time>2014-07-08T14:54:44Z</time>
      </trkpt>
      <trkpt lat="59.8933427" lon="17.7026873">
        <ele>22.2476</ele>
        <time>2014-07-08T14:54:45Z</time>
      </trkpt>
      <trkpt lat="59.8934007" lon="17.7027617">
        <ele>22.2476</ele>
        <time>2014-07-08T14:54:46Z</time>
      </trkpt>
      <trkpt lat="59.8934597" lon="17.7028339">
        <ele>22.2476</ele>
        <time>2014-07-08T14:54:47Z</time>
      </trkpt>
      <trkpt lat="59.8935191" lon="17.7029048">
        <ele>22.2476</ele>
        <time>2014-07-08T14:54:48Z</time>
      </trkpt>
      <trkpt lat="59.8935779" lon="17.7029781">
        <ele>22.2476</ele>
        <time>2014-07-08T14:54:49Z</time>
      </trkpt>
      <trkpt lat="59.8936359" lon="17.7030549">
        <ele>22.2476</ele>
        <time>2014-07-08T14:54:50Z</time>
      </trkpt>
      <trkpt lat="59.893694" lon="17.7031325">
        <ele>22.2476</ele>
        <time>2014-07-08T14:54:51Z</time>
      </trkpt>
      <trkpt lat="59.8937524" lon="17.7032102">
        <ele>22.2476</ele>
        <time>2014-07-08T14:54:52Z</time>
      </trkpt>
      <trkpt lat="59.893811" lon="17.7032893">
        <ele>22.2476</ele>
        <time>2014-07-08T14:54:53Z</time>
      </trkpt>
      <trkpt lat="59.893869" lon="17.7033693">
        <ele>22.2476</ele>
        <time>2014-07-08T14:54:54Z</time>
      </trkpt>
      <trkpt lat="59.8939265" lon="17.7034495">
        <ele>22.2476</ele>
        <time>2014-07-08T14:54:55Z</time>
      </trkpt>
      <trkpt lat="59.893985" lon="17.7035287">
        <ele>22.2476</ele>
        <time>2014-07-08T14:54:56Z</time>
      </trkpt>
      <trkpt lat="59.8940444" lon="17.703607">
        <ele>22.2476</ele>
        <time>2014-07-08T14:54:57Z</time>
      </trkpt>
      <trkpt lat="59.8941038" lon="17.7036876">
        <ele>22.2476</ele>
        <time>2014-07-08T14:54:58Z</time>
      </trkpt>
      <trkpt lat="59.8941627" lon="17.7037696">
        <ele>22.2476</ele>
        <time>2014-07-08T14:54:59Z</time>
      </trkpt>
      <trkpt lat="59.8942207" lon="17.7038503">
        <ele>22.2476</ele>
        <time>2014-07-08T14:55:00Z</time>
      </trkpt>
      <trkpt lat="59.8942778" lon="17.7039293">
        <ele>22.2476</ele>
        <time>2014-07-08T14:55:01Z</time>
      </trkpt>
      <trkpt lat="59.8943342" lon="17.7040064">
        <ele>22.2476</ele>
        <time>2014-07-08T14:55:02Z</time>
      </trkpt>
      <trkpt lat="59.8943904" lon="17.7040815">
        <ele>21.767</ele>
        <time>2014-07-08T14:55:03Z</time>
      </trkpt>
      <trkpt lat="59.8944458" lon="17.7041558">
        <ele>21.767</ele>
        <time>2014-07-08T14:55:04Z</time>
      </trkpt>
      <trkpt lat="59.8944999" lon="17.7042291">
        <ele>21.767</ele>
        <time>2014-07-08T14:55:05Z</time>
      </trkpt>
      <trkpt lat="59.8945538" lon="17.704302">
        <ele>21.767</ele>
        <time>2014-07-08T14:55:06Z</time>
      </trkpt>
      <trkpt lat="59.8946073" lon="17.7043755">
        <ele>21.767</ele>
        <time>2014-07-08T14:55:07Z</time>
      </trkpt>
      <trkpt lat="59.89466" lon="17.7044507">
        <ele>21.767</ele>
        <time>2014-07-08T14:55:08Z</time>
      </trkpt>
      <trkpt lat="59.8947133" lon="17.704528">
        <ele>21.767</ele>
        <time>2014-07-08T14:55:09Z</time>
      </trkpt>
      <trkpt lat="59.8947677" lon="17.7046078">
        <ele>21.767</ele>
        <time>2014-07-08T14:55:10Z</time>
      </trkpt>
      <trkpt lat="59.8948216" lon="17.7046921">
        <ele>21.767</ele>
        <time>2014-07-08T14:55:11Z</time>
      </trkpt>
      <trkpt lat="59.8948765" lon="17.7047775">
        <ele>21.767</ele>
        <time>2014-07-08T14:55:12Z</time>
      </trkpt>
      <trkpt lat="59.8949348" lon="17.7048598">
        <ele>21.767</ele>
        <time>2014-07-08T14:55:13Z</time>
      </trkpt>
      <trkpt lat="59.8949944" lon="17.7049408">
        <ele>21.767</ele>
        <time>2014-07-08T14:55:14Z</time>
      </trkpt>
      <trkpt lat="59.8950542" lon="17.7050274">
        <ele>21.767</ele>
        <time>2014-07-08T14:55:15Z</time>
      </trkpt>
      <trkpt lat="59.8951133" lon="17.7051194">
        <ele>21.767</ele>
        <time>2014-07-08T14:55:16Z</time>
      </trkpt>
      <trkpt lat="59.8951733" lon="17.7052107">
        <ele>21.767</ele>
        <time>2014-07-08T14:55:17Z</time>
      </trkpt>
      <trkpt lat="59.8952353" lon="17.7052962">
        <ele>21.767</ele>
        <time>2014-07-08T14:55:18Z</time>
      </trkpt>
      <trkpt lat="59.8952997" lon="17.7053729">
        <ele>21.767</ele>
        <time>2014-07-08T14:55:19Z</time>
      </trkpt>
      <trkpt lat="59.8953663" lon="17.7054417">
        <ele>21.767</ele>
        <time>2014-07-08T14:55:20Z</time>
      </trkpt>
      <trkpt lat="59.8954334" lon="17.7055111">
        <ele>21.767</ele>
        <time>2014-07-08T14:55:21Z</time>
      </trkpt>
      <trkpt lat="59.8954987" lon="17.7055868">
        <ele>21.767</ele>
        <time>2014-07-08T14:55:22Z</time>
      </trkpt>
      <trkpt lat="59.8955623" lon="17.7056661">
        <ele>21.767</ele>
        <time>2014-07-08T14:55:23Z</time>
      </trkpt>
      <trkpt lat="59.8956245" lon="17.7057441">
        <ele>21.767</ele>
        <time>2014-07-08T14:55:24Z</time>
      </trkpt>
      <trkpt lat="59.8956847" lon="17.705821">
        <ele>22.2476</ele>
        <time>2014-07-08T14:55:25Z</time>
      </trkpt>
      <trkpt lat="59.895743" lon="17.7059007">
        <ele>22.2476</ele>
        <time>2014-07-08T14:55:26Z</time>
      </trkpt>
      <trkpt lat="59.8957997" lon="17.705983">
        <ele>22.2476</ele>
        <time>2014-07-08T14:55:27Z</time>
      </trkpt>
      <trkpt lat="59.8958561" lon="17.7060633">
        <ele>22.2476</ele>
        <time>2014-07-08T14:55:28Z</time>
      </trkpt>
      <trkpt lat="59.8959123" lon="17.7061405">
        <ele>22.2476</ele>
        <time>2014-07-08T14:55:29Z</time>
      </trkpt>
      <trkpt lat="59.8959683" lon="17.7062175">
        <ele>22.2476</ele>
        <time>2014-07-08T14:55:30Z</time>
      </trkpt>
      <trkpt lat="59.8960245" lon="17.7062958">
        <ele>22.2476</ele>
        <time>2014-07-08T14:55:31Z</time>
      </trkpt>
      <trkpt lat="59.8960814" lon="17.7063748">
        <ele>22.2476</ele>
        <time>2014-07-08T14:55:32Z</time>
      </trkpt>
      <trkpt lat="59.8961393" lon="17.7064527">
        <ele>22.2476</ele>
        <time>2014-07-08T14:55:33Z</time>
      </trkpt>
      <trkpt lat="59.896198" lon="17.7065288">
        <ele>22.7283</ele>
        <time>2014-07-08T14:55:34Z</time>
      </trkpt>
      <trkpt lat="59.8962573" lon="17.7066047">
        <ele>22.7283</ele>
        <time>2014-07-08T14:55:35Z</time>
      </trkpt>
      <trkpt lat="59.8963161" lon="17.7066829">
        <ele>22.7283</ele>
        <time>2014-07-08T14:55:36Z</time>
      </trkpt>
      <trkpt lat="59.8963751" lon="17.7067615">
        <ele>22.7283</ele>
        <time>2014-07-08T14:55:37Z</time>
      </trkpt>
      <trkpt lat="59.8964345" lon="17.7068393">
        <ele>22.7283</ele>
        <time>2014-07-08T14:55:38Z</time>
      </trkpt>
      <trkpt lat="59.8964938" lon="17.7069176">
        <ele>22.7283</ele>
        <time>2014-07-08T14:55:39Z</time>
      </trkpt>
      <trkpt lat="59.8965529" lon="17.7069967">
        <ele>22.7283</ele>
        <time>2014-07-08T14:55:40Z</time>
      </trkpt>
      <trkpt lat="59.8966112" lon="17.707073">
        <ele>22.7283</ele>
        <time>2014-07-08T14:55:41Z</time>
      </trkpt>
      <trkpt lat="59.8966691" lon="17.7071477">
        <ele>22.7283</ele>
        <time>2014-07-08T14:55:42Z</time>
      </trkpt>
      <trkpt lat="59.8967251" lon="17.7072241">
        <ele>22.7283</ele>
        <time>2014-07-08T14:55:43Z</time>
      </trkpt>
      <trkpt lat="59.8967797" lon="17.7073025">
        <ele>22.7283</ele>
        <time>2014-07-08T14:55:44Z</time>
      </trkpt>
      <trkpt lat="59.8968352" lon="17.7073821">
        <ele>22.7283</ele>
        <time>2014-07-08T14:55:45Z</time>
      </trkpt>
      <trkpt lat="59.8968924" lon="17.7074615">
        <ele>22.7283</ele>
        <time>2014-07-08T14:55:46Z</time>
      </trkpt>
      <trkpt lat="59.8970098" lon="17.7076198">
        <ele>22.7283</ele>
        <time>2014-07-08T14:55:48Z</time>
      </trkpt>
      <trkpt lat="59.8970698" lon="17.7076987">
        <ele>22.7283</ele>
        <time>2014-07-08T14:55:49Z</time>
      </trkpt>
      <trkpt lat="59.8971305" lon="17.7077794">
        <ele>22.7283</ele>
        <time>2014-07-08T14:55:50Z</time>
      </trkpt>
      <trkpt lat="59.8971918" lon="17.7078604">
        <ele>22.7283</ele>
        <time>2014-07-08T14:55:51Z</time>
      </trkpt>
      <trkpt lat="59.8972527" lon="17.7079409">
        <ele>22.7283</ele>
        <time>2014-07-08T14:55:52Z</time>
      </trkpt>
      <trkpt lat="59.8973122" lon="17.7080214">
        <ele>22.7283</ele>
        <time>2014-07-08T14:55:53Z</time>
      </trkpt>
      <trkpt lat="59.8973693" lon="17.7081052">
        <ele>22.7283</ele>
        <time>2014-07-08T14:55:54Z</time>
      </trkpt>
      <trkpt lat="59.8974235" lon="17.7081927">
        <ele>22.7283</ele>
        <time>2014-07-08T14:55:55Z</time>
      </trkpt>
      <trkpt lat="59.8974752" lon="17.7082825">
        <ele>22.2476</ele>
        <time>2014-07-08T14:55:56Z</time>
      </trkpt>
      <trkpt lat="59.8975271" lon="17.7083678">
        <ele>22.2476</ele>
        <time>2014-07-08T14:55:57Z</time>
      </trkpt>
      <trkpt lat="59.8975811" lon="17.7084426">
        <ele>22.2476</ele>
        <time>2014-07-08T14:55:58Z</time>
      </trkpt>
      <trkpt lat="59.8976368" lon="17.7085068">
        <ele>22.2476</ele>
        <time>2014-07-08T14:55:59Z</time>
      </trkpt>
      <trkpt lat="59.8976933" lon="17.7085638">
        <ele>22.2476</ele>
        <time>2014-07-08T14:56:00Z</time>
      </trkpt>
      <trkpt lat="59.8977494" lon="17.7086226">
        <ele>22.2476</ele>
        <time>2014-07-08T14:56:01Z</time>
      </trkpt>
      <trkpt lat="59.8978033" lon="17.7086879">
        <ele>22.2476</ele>
        <time>2014-07-08T14:56:02Z</time>
      </trkpt>
      <trkpt lat="59.8978569" lon="17.7087586">
        <ele>22.2476</ele>
        <time>2014-07-08T14:56:03Z</time>
      </trkpt>
      <trkpt lat="59.897911" lon="17.7088312">
        <ele>22.7283</ele>
        <time>2014-07-08T14:56:04Z</time>
      </trkpt>
      <trkpt lat="59.8979654" lon="17.7089041">
        <ele>22.7283</ele>
        <time>2014-07-08T14:56:05Z</time>
      </trkpt>
      <trkpt lat="59.8980202" lon="17.708977">
        <ele>22.7283</ele>
        <time>2014-07-08T14:56:06Z</time>
      </trkpt>
      <trkpt lat="59.8980751" lon="17.7090492">
        <ele>22.7283</ele>
        <time>2014-07-08T14:56:07Z</time>
      </trkpt>
      <trkpt lat="59.8981305" lon="17.7091212">
        <ele>22.7283</ele>
        <time>2014-07-08T14:56:08Z</time>
      </trkpt>
      <trkpt lat="59.8981864" lon="17.7091938">
        <ele>22.7283</ele>
        <time>2014-07-08T14:56:09Z</time>
      </trkpt>
      <trkpt lat="59.8982425" lon="17.7092683">
        <ele>22.7283</ele>
        <time>2014-07-08T14:56:10Z</time>
      </trkpt>
      <trkpt lat="59.8982988" lon="17.7093442">
        <ele>22.7283</ele>
        <time>2014-07-08T14:56:11Z</time>
      </trkpt>
      <trkpt lat="59.8983556" lon="17.7094211">
        <ele>23.209</ele>
        <time>2014-07-08T14:56:12Z</time>
      </trkpt>
      <trkpt lat="59.8984126" lon="17.7094988">
        <ele>23.209</ele>
        <time>2014-07-08T14:56:13Z</time>
      </trkpt>
      <trkpt lat="59.8984694" lon="17.7095755">
        <ele>23.209</ele>
        <time>2014-07-08T14:56:14Z</time>
      </trkpt>
      <trkpt lat="59.8985269" lon="17.7096509">
        <ele>23.209</ele>
        <time>2014-07-08T14:56:15Z</time>
      </trkpt>
      <trkpt lat="59.8985847" lon="17.7097255">
        <ele>23.209</ele>
        <time>2014-07-08T14:56:16Z</time>
      </trkpt>
      <trkpt lat="59.898643" lon="17.7097993">
        <ele>23.209</ele>
        <time>2014-07-08T14:56:17Z</time>
      </trkpt>
      <trkpt lat="59.8987025" lon="17.7098728">
        <ele>23.209</ele>
        <time>2014-07-08T14:56:18Z</time>
      </trkpt>
      <trkpt lat="59.8987627" lon="17.7099464">
        <ele>23.209</ele>
        <time>2014-07-08T14:56:19Z</time>
      </trkpt>
      <trkpt lat="59.8988278" lon="17.7100283">
        <ele>23.209</ele>
        <time>2014-07-08T14:56:20Z</time>
      </trkpt>
      <trkpt lat="59.8988875" lon="17.7101044">
        <ele>23.209</ele>
        <time>2014-07-08T14:56:21Z</time>
      </trkpt>
      <trkpt lat="59.8989469" lon="17.7101817">
        <ele>23.209</ele>
        <time>2014-07-08T14:56:22Z</time>
      </trkpt>
      <trkpt lat="59.8990047" lon="17.7102603">
        <ele>23.6896</ele>
        <time>2014-07-08T14:56:23Z</time>
      </trkpt>
      <trkpt lat="59.8990639" lon="17.7103435">
        <ele>23.6896</ele>
        <time>2014-07-08T14:56:24Z</time>
      </trkpt>
      <trkpt lat="59.8991235" lon="17.7104277">
        <ele>23.6896</ele>
        <time>2014-07-08T14:56:25Z</time>
      </trkpt>
      <trkpt lat="59.8991816" lon="17.7105047">
        <ele>23.6896</ele>
        <time>2014-07-08T14:56:26Z</time>
      </trkpt>
      <trkpt lat="59.8992386" lon="17.7105779">
        <ele>23.6896</ele>
        <time>2014-07-08T14:56:27Z</time>
      </trkpt>
      <trkpt lat="59.8992946" lon="17.7106462">
        <ele>23.6896</ele>
        <time>2014-07-08T14:56:28Z</time>
      </trkpt>
      <trkpt lat="59.8993498" lon="17.71071">
        <ele>23.6896</ele>
        <time>2014-07-08T14:56:29Z</time>
      </trkpt>
      <trkpt lat="59.8994032" lon="17.7107722">
        <ele>23.6896</ele>
        <time>2014-07-08T14:56:30Z</time>
      </trkpt>
      <trkpt lat="59.8994543" lon="17.7108356">
        <ele>23.6896</ele>
        <time>2014-07-08T14:56:31Z</time>
      </trkpt>
      <trkpt lat="59.8995044" lon="17.7108994">
        <ele>23.6896</ele>
        <time>2014-07-08T14:56:32Z</time>
      </trkpt>
      <trkpt lat="59.8995543" lon="17.7109615">
        <ele>24.1703</ele>
        <time>2014-07-08T14:56:33Z</time>
      </trkpt>
      <trkpt lat="59.8996044" lon="17.7110208">
        <ele>24.1703</ele>
        <time>2014-07-08T14:56:34Z</time>
      </trkpt>
      <trkpt lat="59.8996546" lon="17.7110798">
        <ele>24.1703</ele>
        <time>2014-07-08T14:56:35Z</time>
      </trkpt>
      <trkpt lat="59.8997044" lon="17.7111399">
        <ele>24.1703</ele>
        <time>2014-07-08T14:56:36Z</time>
      </trkpt>
      <trkpt lat="59.8997545" lon="17.7111993">
        <ele>24.1703</ele>
        <time>2014-07-08T14:56:37Z</time>
      </trkpt>
      <trkpt lat="59.8998048" lon="17.7112579">
        <ele>24.1703</ele>
        <time>2014-07-08T14:56:38Z</time>
      </trkpt>
      <trkpt lat="59.8998557" lon="17.711316">
        <ele>24.1703</ele>
        <time>2014-07-08T14:56:39Z</time>
      </trkpt>
      <trkpt lat="59.899907" lon="17.7113745">
        <ele>24.1703</ele>
        <time>2014-07-08T14:56:40Z</time>
      </trkpt>
      <trkpt lat="59.899959" lon="17.7114331">
        <ele>24.1703</ele>
        <time>2014-07-08T14:56:41Z</time>
      </trkpt>
      <trkpt lat="59.900012" lon="17.7114906">
        <ele>24.1703</ele>
        <time>2014-07-08T14:56:42Z</time>
      </trkpt>
      <trkpt lat="59.9000657" lon="17.711548">
        <ele>24.1703</ele>
        <time>2014-07-08T14:56:43Z</time>
      </trkpt>
      <trkpt lat="59.9001192" lon="17.7116065">
        <ele>24.1703</ele>
        <time>2014-07-08T14:56:44Z</time>
      </trkpt>
      <trkpt lat="59.9001725" lon="17.7116662">
        <ele>24.1703</ele>
        <time>2014-07-08T14:56:45Z</time>
      </trkpt>
      <trkpt lat="59.9002254" lon="17.7117242">
        <ele>24.651</ele>
        <time>2014-07-08T14:56:46Z</time>
      </trkpt>
      <trkpt lat="59.9002769" lon="17.7117795">
        <ele>24.651</ele>
        <time>2014-07-08T14:56:47Z</time>
      </trkpt>
      <trkpt lat="59.9003271" lon="17.7118341">
        <ele>24.651</ele>
        <time>2014-07-08T14:56:48Z</time>
      </trkpt>
      <trkpt lat="59.9003752" lon="17.7118913">
        <ele>24.651</ele>
        <time>2014-07-08T14:56:49Z</time>
      </trkpt>
      <trkpt lat="59.9004226" lon="17.71195">
        <ele>24.651</ele>
        <time>2014-07-08T14:56:50Z</time>
      </trkpt>
      <trkpt lat="59.9004711" lon="17.7120074">
        <ele>24.651</ele>
        <time>2014-07-08T14:56:51Z</time>
      </trkpt>
      <trkpt lat="59.9005205" lon="17.712065">
        <ele>24.651</ele>
        <time>2014-07-08T14:56:52Z</time>
      </trkpt>
      <trkpt lat="59.9005706" lon="17.7121236">
        <ele>24.651</ele>
        <time>2014-07-08T14:56:53Z</time>
      </trkpt>
      <trkpt lat="59.9006223" lon="17.7121809">
        <ele>24.651</ele>
        <time>2014-07-08T14:56:54Z</time>
      </trkpt>
      <trkpt lat="59.9006741" lon="17.7122376">
        <ele>24.651</ele>
        <time>2014-07-08T14:56:55Z</time>
      </trkpt>
      <trkpt lat="59.9007254" lon="17.712294">
        <ele>24.651</ele>
        <time>2014-07-08T14:56:56Z</time>
      </trkpt>
      <trkpt lat="59.900776" lon="17.7123493">
        <ele>24.651</ele>
        <time>2014-07-08T14:56:57Z</time>
      </trkpt>
      <trkpt lat="59.9008257" lon="17.7124033">
        <ele>24.651</ele>
        <time>2014-07-08T14:56:58Z</time>
      </trkpt>
      <trkpt lat="59.9008756" lon="17.7124541">
        <ele>24.651</ele>
        <time>2014-07-08T14:56:59Z</time>
      </trkpt>
      <trkpt lat="59.9009249" lon="17.7125038">
        <ele>24.651</ele>
        <time>2014-07-08T14:57:00Z</time>
      </trkpt>
      <trkpt lat="59.9009741" lon="17.712552">
        <ele>24.651</ele>
        <time>2014-07-08T14:57:01Z</time>
      </trkpt>
      <trkpt lat="59.9010192" lon="17.7126092">
        <ele>24.651</ele>
        <time>2014-07-08T14:57:02Z</time>
      </trkpt>
      <trkpt lat="59.9010496" lon="17.7126903">
        <ele>24.651</ele>
        <time>2014-07-08T14:57:03Z</time>
      </trkpt>
      <trkpt lat="59.9010567" lon="17.7127856">
        <ele>24.651</ele>
        <time>2014-07-08T14:57:04Z</time>
      </trkpt>
      <trkpt lat="59.9010418" lon="17.7128748">
        <ele>24.651</ele>
        <time>2014-07-08T14:57:05Z</time>
      </trkpt>
      <trkpt lat="59.9010142" lon="17.7129545">
        <ele>24.1703</ele>
        <time>2014-07-08T14:57:06Z</time>
      </trkpt>
      <trkpt lat="59.9009814" lon="17.7130312">
        <ele>24.1703</ele>
        <time>2014-07-08T14:57:07Z</time>
      </trkpt>
      <trkpt lat="59.9009485" lon="17.7131122">
        <ele>24.1703</ele>
        <time>2014-07-08T14:57:08Z</time>
      </trkpt>
      <trkpt lat="59.9009165" lon="17.7131991">
        <ele>24.1703</ele>
        <time>2014-07-08T14:57:09Z</time>
      </trkpt>
      <trkpt lat="59.900884" lon="17.7132889">
        <ele>24.1703</ele>
        <time>2014-07-08T14:57:10Z</time>
      </trkpt>
      <trkpt lat="59.9008512" lon="17.7133816">
        <ele>24.1703</ele>
        <time>2014-07-08T14:57:11Z</time>
      </trkpt>
      <trkpt lat="59.9008181" lon="17.7134782">
        <ele>23.6896</ele>
        <time>2014-07-08T14:57:12Z</time>
      </trkpt>
      <trkpt lat="59.9007842" lon="17.7135775">
        <ele>23.6896</ele>
        <time>2014-07-08T14:57:13Z</time>
      </trkpt>
      <trkpt lat="59.9007492" lon="17.7136785">
        <ele>23.6896</ele>
        <time>2014-07-08T14:57:14Z</time>
      </trkpt>
      <trkpt lat="59.9007144" lon="17.7137808">
        <ele>23.6896</ele>
        <time>2014-07-08T14:57:15Z</time>
      </trkpt>
      <trkpt lat="59.9006811" lon="17.7138847">
        <ele>23.6896</ele>
        <time>2014-07-08T14:57:16Z</time>
      </trkpt>
      <trkpt lat="59.9006478" lon="17.7139888">
        <ele>23.6896</ele>
        <time>2014-07-08T14:57:17Z</time>
      </trkpt>
      <trkpt lat="59.9006139" lon="17.714092">
        <ele>24.1703</ele>
        <time>2014-07-08T14:57:18Z</time>
      </trkpt>
      <trkpt lat="59.9005801" lon="17.7141944">
        <ele>24.1703</ele>
        <time>2014-07-08T14:57:19Z</time>
      </trkpt>
      <trkpt lat="59.9005467" lon="17.7142957">
        <ele>24.1703</ele>
        <time>2014-07-08T14:57:20Z</time>
      </trkpt>
      <trkpt lat="59.9005145" lon="17.7143959">
        <ele>24.1703</ele>
        <time>2014-07-08T14:57:21Z</time>
      </trkpt>
      <trkpt lat="59.9004843" lon="17.7144955">
        <ele>24.1703</ele>
        <time>2014-07-08T14:57:22Z</time>
      </trkpt>
      <trkpt lat="59.9004555" lon="17.714596">
        <ele>24.651</ele>
        <time>2014-07-08T14:57:23Z</time>
      </trkpt>
      <trkpt lat="59.9004268" lon="17.7146965">
        <ele>24.651</ele>
        <time>2014-07-08T14:57:24Z</time>
      </trkpt>
      <trkpt lat="59.9003984" lon="17.714797">
        <ele>24.651</ele>
        <time>2014-07-08T14:57:25Z</time>
      </trkpt>
      <trkpt lat="59.9003712" lon="17.7148979">
        <ele>24.651</ele>
        <time>2014-07-08T14:57:26Z</time>
      </trkpt>
      <trkpt lat="59.9003456" lon="17.7149994">
        <ele>24.651</ele>
        <time>2014-07-08T14:57:27Z</time>
      </trkpt>
      <trkpt lat="59.9003207" lon="17.715101">
        <ele>25.1317</ele>
        <time>2014-07-08T14:57:28Z</time>
      </trkpt>
      <trkpt lat="59.9002955" lon="17.7152026">
        <ele>25.1317</ele>
        <time>2014-07-08T14:57:29Z</time>
      </trkpt>
      <trkpt lat="59.9002709" lon="17.7153055">
        <ele>25.1317</ele>
        <time>2014-07-08T14:57:30Z</time>
      </trkpt>
      <trkpt lat="59.9002476" lon="17.7154106">
        <ele>25.1317</ele>
        <time>2014-07-08T14:57:31Z</time>
      </trkpt>
      <trkpt lat="59.9002243" lon="17.715516">
        <ele>25.1317</ele>
        <time>2014-07-08T14:57:32Z</time>
      </trkpt>
      <trkpt lat="59.9002022" lon="17.7156218">
        <ele>25.1317</ele>
        <time>2014-07-08T14:57:33Z</time>
      </trkpt>
      <trkpt lat="59.9001833" lon="17.7157289">
        <ele>25.1317</ele>
        <time>2014-07-08T14:57:34Z</time>
      </trkpt>
      <trkpt lat="59.9001663" lon="17.7158376">
        <ele>25.1317</ele>
        <time>2014-07-08T14:57:35Z</time>
      </trkpt>
      <trkpt lat="59.9001504" lon="17.715948">
        <ele>25.1317</ele>
        <time>2014-07-08T14:57:36Z</time>
      </trkpt>
      <trkpt lat="59.900136" lon="17.7160615">
        <ele>25.1317</ele>
        <time>2014-07-08T14:57:37Z</time>
      </trkpt>
      <trkpt lat="59.9001227" lon="17.7161789">
        <ele>25.1317</ele>
        <time>2014-07-08T14:57:38Z</time>
      </trkpt>
      <trkpt lat="59.9001118" lon="17.7163003">
        <ele>25.1317</ele>
        <time>2014-07-08T14:57:39Z</time>
      </trkpt>
      <trkpt lat="59.9001048" lon="17.7164254">
        <ele>25.1317</ele>
        <time>2014-07-08T14:57:40Z</time>
      </trkpt>
      <trkpt lat="59.9000996" lon="17.7165523">
        <ele>25.1317</ele>
        <time>2014-07-08T14:57:41Z</time>
      </trkpt>
      <trkpt lat="59.9000945" lon="17.7166811">
        <ele>25.1317</ele>
        <time>2014-07-08T14:57:42Z</time>
      </trkpt>
      <trkpt lat="59.9000902" lon="17.7168129">
        <ele>25.1317</ele>
        <time>2014-07-08T14:57:43Z</time>
      </trkpt>
      <trkpt lat="59.9000863" lon="17.7169467">
        <ele>25.1317</ele>
        <time>2014-07-08T14:57:44Z</time>
      </trkpt>
      <trkpt lat="59.9000819" lon="17.7170809">
        <ele>25.1317</ele>
        <time>2014-07-08T14:57:45Z</time>
      </trkpt>
      <trkpt lat="59.9000753" lon="17.7172146">
        <ele>25.1317</ele>
        <time>2014-07-08T14:57:46Z</time>
      </trkpt>
      <trkpt lat="59.9000655" lon="17.717346">
        <ele>25.1317</ele>
        <time>2014-07-08T14:57:47Z</time>
      </trkpt>
      <trkpt lat="59.9000525" lon="17.7174735">
        <ele>25.1317</ele>
        <time>2014-07-08T14:57:48Z</time>
      </trkpt>
      <trkpt lat="59.9000375" lon="17.7175977">
        <ele>25.1317</ele>
        <time>2014-07-08T14:57:49Z</time>
      </trkpt>
      <trkpt lat="59.9000204" lon="17.7177185">
        <ele>25.1317</ele>
        <time>2014-07-08T14:57:50Z</time>
      </trkpt>
      <trkpt lat="59.9000007" lon="17.717835">
        <ele>25.1317</ele>
        <time>2014-07-08T14:57:51Z</time>
      </trkpt>
      <trkpt lat="59.8999773" lon="17.7179466">
        <ele>25.1317</ele>
        <time>2014-07-08T14:57:52Z</time>
      </trkpt>
      <trkpt lat="59.8999513" lon="17.7180538">
        <ele>25.1317</ele>
        <time>2014-07-08T14:57:53Z</time>
      </trkpt>
      <trkpt lat="59.8999241" lon="17.7181584">
        <ele>25.1317</ele>
        <time>2014-07-08T14:57:54Z</time>
      </trkpt>
      <trkpt lat="59.8998946" lon="17.718259">
        <ele>24.651</ele>
        <time>2014-07-08T14:57:55Z</time>
      </trkpt>
      <trkpt lat="59.8998637" lon="17.7183579">
        <ele>24.651</ele>
        <time>2014-07-08T14:57:56Z</time>
      </trkpt>
      <trkpt lat="59.8998334" lon="17.7184569">
        <ele>24.651</ele>
        <time>2014-07-08T14:57:57Z</time>
      </trkpt>
      <trkpt lat="59.8998027" lon="17.7185568">
        <ele>24.651</ele>
        <time>2014-07-08T14:57:58Z</time>
      </trkpt>
      <trkpt lat="59.8997694" lon="17.718656">
        <ele>24.651</ele>
        <time>2014-07-08T14:57:59Z</time>
      </trkpt>
      <trkpt lat="59.8997375" lon="17.718756">
        <ele>24.651</ele>
        <time>2014-07-08T14:58:00Z</time>
      </trkpt>
      <trkpt lat="59.8997058" lon="17.7188573">
        <ele>24.651</ele>
        <time>2014-07-08T14:58:01Z</time>
      </trkpt>
      <trkpt lat="59.8996739" lon="17.7189581">
        <ele>24.651</ele>
        <time>2014-07-08T14:58:02Z</time>
      </trkpt>
      <trkpt lat="59.8996433" lon="17.719059">
        <ele>24.651</ele>
        <time>2014-07-08T14:58:03Z</time>
      </trkpt>
      <trkpt lat="59.8996148" lon="17.7191611">
        <ele>24.651</ele>
        <time>2014-07-08T14:58:04Z</time>
      </trkpt>
      <trkpt lat="59.8995899" lon="17.7192646">
        <ele>24.651</ele>
        <time>2014-07-08T14:58:05Z</time>
      </trkpt>
      <trkpt lat="59.8995646" lon="17.7193698">
        <ele>24.651</ele>
        <time>2014-07-08T14:58:06Z</time>
      </trkpt>
      <trkpt lat="59.899541" lon="17.7194752">
        <ele>24.651</ele>
        <time>2014-07-08T14:58:07Z</time>
      </trkpt>
      <trkpt lat="59.8995178" lon="17.7195813">
        <ele>24.651</ele>
        <time>2014-07-08T14:58:08Z</time>
      </trkpt>
      <trkpt lat="59.8994937" lon="17.719689">
        <ele>24.651</ele>
        <time>2014-07-08T14:58:09Z</time>
      </trkpt>
      <trkpt lat="59.8994698" lon="17.7197989">
        <ele>24.1703</ele>
        <time>2014-07-08T14:58:10Z</time>
      </trkpt>
      <trkpt lat="59.8994464" lon="17.7199096">
        <ele>24.1703</ele>
        <time>2014-07-08T14:58:11Z</time>
      </trkpt>
      <trkpt lat="59.8994236" lon="17.7200195">
        <ele>24.1703</ele>
        <time>2014-07-08T14:58:12Z</time>
      </trkpt>
      <trkpt lat="59.8994014" lon="17.7201289">
        <ele>24.1703</ele>
        <time>2014-07-08T14:58:13Z</time>
      </trkpt>
      <trkpt lat="59.89938" lon="17.7202382">
        <ele>24.1703</ele>
        <time>2014-07-08T14:58:14Z</time>
      </trkpt>
      <trkpt lat="59.8993594" lon="17.7203452">
        <ele>24.1703</ele>
        <time>2014-07-08T14:58:15Z</time>
      </trkpt>
      <trkpt lat="59.8993397" lon="17.720447">
        <ele>24.1703</ele>
        <time>2014-07-08T14:58:16Z</time>
      </trkpt>
      <trkpt lat="59.8993214" lon="17.7205442">
        <ele>24.1703</ele>
        <time>2014-07-08T14:58:17Z</time>
      </trkpt>
      <trkpt lat="59.8993054" lon="17.7206382">
        <ele>24.1703</ele>
        <time>2014-07-08T14:58:18Z</time>
      </trkpt>
      <trkpt lat="59.8992904" lon="17.7207316">
        <ele>24.1703</ele>
        <time>2014-07-08T14:58:19Z</time>
      </trkpt>
      <trkpt lat="59.8992742" lon="17.7208246">
        <ele>24.1703</ele>
        <time>2014-07-08T14:58:20Z</time>
      </trkpt>
      <trkpt lat="59.8992566" lon="17.7209182">
        <ele>24.1703</ele>
        <time>2014-07-08T14:58:21Z</time>
      </trkpt>
      <trkpt lat="59.8992392" lon="17.7210137">
        <ele>24.1703</ele>
        <time>2014-07-08T14:58:22Z</time>
      </trkpt>
      <trkpt lat="59.8992222" lon="17.7211111">
        <ele>24.1703</ele>
        <time>2014-07-08T14:58:23Z</time>
      </trkpt>
      <trkpt lat="59.8992055" lon="17.7212116">
        <ele>24.1703</ele>
        <time>2014-07-08T14:58:24Z</time>
      </trkpt>
      <trkpt lat="59.8991889" lon="17.721315">
        <ele>24.1703</ele>
        <time>2014-07-08T14:58:25Z</time>
      </trkpt>
      <trkpt lat="59.8991698" lon="17.721418">
        <ele>24.1703</ele>
        <time>2014-07-08T14:58:26Z</time>
      </trkpt>
      <trkpt lat="59.8991501" lon="17.7215204">
        <ele>24.651</ele>
        <time>2014-07-08T14:58:27Z</time>
      </trkpt>
      <trkpt lat="59.8991329" lon="17.7216242">
        <ele>24.651</ele>
        <time>2014-07-08T14:58:28Z</time>
      </trkpt>
      <trkpt lat="59.8991174" lon="17.7217288">
        <ele>24.651</ele>
        <time>2014-07-08T14:58:29Z</time>
      </trkpt>
      <trkpt lat="59.8991024" lon="17.7218337">
        <ele>24.651</ele>
        <time>2014-07-08T14:58:30Z</time>
      </trkpt>
      <trkpt lat="59.8990874" lon="17.7219392">
        <ele>24.651</ele>
        <time>2014-07-08T14:58:31Z</time>
      </trkpt>
      <trkpt lat="59.8990714" lon="17.722045">
        <ele>24.651</ele>
        <time>2014-07-08T14:58:32Z</time>
      </trkpt>
      <trkpt lat="59.8990549" lon="17.7221515">
        <ele>25.1317</ele>
        <time>2014-07-08T14:58:33Z</time>
      </trkpt>
      <trkpt lat="59.8990383" lon="17.7222584">
        <ele>25.1317</ele>
        <time>2014-07-08T14:58:34Z</time>
      </trkpt>
      <trkpt lat="59.8990226" lon="17.7223661">
        <ele>25.1317</ele>
        <time>2014-07-08T14:58:35Z</time>
      </trkpt>
      <trkpt lat="59.8990077" lon="17.7224751">
        <ele>25.1317</ele>
        <time>2014-07-08T14:58:36Z</time>
      </trkpt>
      <trkpt lat="59.8989925" lon="17.7225858">
        <ele>25.1317</ele>
        <time>2014-07-08T14:58:37Z</time>
      </trkpt>
      <trkpt lat="59.8989761" lon="17.7226975">
        <ele>25.1317</ele>
        <time>2014-07-08T14:58:38Z</time>
      </trkpt>
      <trkpt lat="59.8989585" lon="17.7228101">
        <ele>25.1317</ele>
        <time>2014-07-08T14:58:39Z</time>
      </trkpt>
      <trkpt lat="59.8989403" lon="17.7229236">
        <ele>25.1317</ele>
        <time>2014-07-08T14:58:40Z</time>
      </trkpt>
      <trkpt lat="59.898922" lon="17.7230378">
        <ele>25.1317</ele>
        <time>2014-07-08T14:58:41Z</time>
      </trkpt>
      <trkpt lat="59.8989038" lon="17.7231523">
        <ele>25.1317</ele>
        <time>2014-07-08T14:58:42Z</time>
      </trkpt>
      <trkpt lat="59.8988854" lon="17.7232674">
        <ele>24.651</ele>
        <time>2014-07-08T14:58:43Z</time>
      </trkpt>
      <trkpt lat="59.8988662" lon="17.7233841">
        <ele>24.651</ele>
        <time>2014-07-08T14:58:44Z</time>
      </trkpt>
      <trkpt lat="59.8988466" lon="17.7235042">
        <ele>24.651</ele>
        <time>2014-07-08T14:58:45Z</time>
      </trkpt>
      <trkpt lat="59.8988273" lon="17.7236284">
        <ele>24.1703</ele>
        <time>2014-07-08T14:58:46Z</time>
      </trkpt>
      <trkpt lat="59.8988072" lon="17.7237539">
        <ele>24.1703</ele>
        <time>2014-07-08T14:58:47Z</time>
      </trkpt>
      <trkpt lat="59.8987865" lon="17.7238794">
        <ele>24.1703</ele>
        <time>2014-07-08T14:58:48Z</time>
      </trkpt>
      <trkpt lat="59.8987662" lon="17.7240073">
        <ele>24.1703</ele>
        <time>2014-07-08T14:58:49Z</time>
      </trkpt>
      <trkpt lat="59.8987466" lon="17.7241366">
        <ele>24.1703</ele>
        <time>2014-07-08T14:58:50Z</time>
      </trkpt>
      <trkpt lat="59.8987263" lon="17.7242641">
        <ele>23.6896</ele>
        <time>2014-07-08T14:58:51Z</time>
      </trkpt>
      <trkpt lat="59.898706" lon="17.7243899">
        <ele>23.6896</ele>
        <time>2014-07-08T14:58:52Z</time>
      </trkpt>
      <trkpt lat="59.8986861" lon="17.7245147">
        <ele>23.6896</ele>
        <time>2014-07-08T14:58:53Z</time>
      </trkpt>
      <trkpt lat="59.8986658" lon="17.7246375">
        <ele>23.6896</ele>
        <time>2014-07-08T14:58:54Z</time>
      </trkpt>
      <trkpt lat="59.898645" lon="17.7247583">
        <ele>23.6896</ele>
        <time>2014-07-08T14:58:55Z</time>
      </trkpt>
      <trkpt lat="59.8986252" lon="17.7248779">
        <ele>23.209</ele>
        <time>2014-07-08T14:58:56Z</time>
      </trkpt>
      <trkpt lat="59.8986057" lon="17.7249966">
        <ele>23.209</ele>
        <time>2014-07-08T14:58:57Z</time>
      </trkpt>
      <trkpt lat="59.898586" lon="17.7251138">
        <ele>23.209</ele>
        <time>2014-07-08T14:58:58Z</time>
      </trkpt>
      <trkpt lat="59.8985673" lon="17.7252301">
        <ele>23.209</ele>
        <time>2014-07-08T14:58:59Z</time>
      </trkpt>
      <trkpt lat="59.8985492" lon="17.7253446">
        <ele>23.209</ele>
        <time>2014-07-08T14:59:00Z</time>
      </trkpt>
      <trkpt lat="59.8985302" lon="17.7254565">
        <ele>23.209</ele>
        <time>2014-07-08T14:59:01Z</time>
      </trkpt>
      <trkpt lat="59.898511" lon="17.7255659">
        <ele>23.209</ele>
        <time>2014-07-08T14:59:02Z</time>
      </trkpt>
      <trkpt lat="59.8984915" lon="17.7256738">
        <ele>23.209</ele>
        <time>2014-07-08T14:59:03Z</time>
      </trkpt>
      <trkpt lat="59.8984706" lon="17.7257803">
        <ele>23.209</ele>
        <time>2014-07-08T14:59:04Z</time>
      </trkpt>
      <trkpt lat="59.8984499" lon="17.725886">
        <ele>23.209</ele>
        <time>2014-07-08T14:59:05Z</time>
      </trkpt>
      <trkpt lat="59.8984284" lon="17.7259907">
        <ele>22.7283</ele>
        <time>2014-07-08T14:59:06Z</time>
      </trkpt>
      <trkpt lat="59.8984047" lon="17.7260951">
        <ele>22.7283</ele>
        <time>2014-07-08T14:59:07Z</time>
      </trkpt>
      <trkpt lat="59.8983793" lon="17.7262005">
        <ele>22.7283</ele>
        <time>2014-07-08T14:59:08Z</time>
      </trkpt>
      <trkpt lat="59.8983534" lon="17.7263081">
        <ele>22.7283</ele>
        <time>2014-07-08T14:59:09Z</time>
      </trkpt>
      <trkpt lat="59.8983266" lon="17.726417">
        <ele>22.7283</ele>
        <time>2014-07-08T14:59:10Z</time>
      </trkpt>
      <trkpt lat="59.898299" lon="17.7265275">
        <ele>22.7283</ele>
        <time>2014-07-08T14:59:11Z</time>
      </trkpt>
      <trkpt lat="59.8982701" lon="17.7266387">
        <ele>22.7283</ele>
        <time>2014-07-08T14:59:12Z</time>
      </trkpt>
      <trkpt lat="59.8982395" lon="17.7267494">
        <ele>22.7283</ele>
        <time>2014-07-08T14:59:13Z</time>
      </trkpt>
      <trkpt lat="59.8982071" lon="17.7268594">
        <ele>22.7283</ele>
        <time>2014-07-08T14:59:14Z</time>
      </trkpt>
      <trkpt lat="59.8981737" lon="17.7269683">
        <ele>22.7283</ele>
        <time>2014-07-08T14:59:15Z</time>
      </trkpt>
      <trkpt lat="59.8981393" lon="17.727076">
        <ele>22.7283</ele>
        <time>2014-07-08T14:59:16Z</time>
      </trkpt>
      <trkpt lat="59.8981037" lon="17.7271811">
        <ele>22.7283</ele>
        <time>2014-07-08T14:59:17Z</time>
      </trkpt>
      <trkpt lat="59.898068" lon="17.7272817">
        <ele>22.7283</ele>
        <time>2014-07-08T14:59:18Z</time>
      </trkpt>
      <trkpt lat="59.8980317" lon="17.7273768">
        <ele>22.7283</ele>
        <time>2014-07-08T14:59:19Z</time>
      </trkpt>
      <trkpt lat="59.897996" lon="17.7274681">
        <ele>22.7283</ele>
        <time>2014-07-08T14:59:20Z</time>
      </trkpt>
      <trkpt lat="59.8979607" lon="17.7275592">
        <ele>22.7283</ele>
        <time>2014-07-08T14:59:21Z</time>
      </trkpt>
      <trkpt lat="59.8979245" lon="17.7276514">
        <ele>22.7283</ele>
        <time>2014-07-08T14:59:22Z</time>
      </trkpt>
      <trkpt lat="59.8978885" lon="17.7277462">
        <ele>22.7283</ele>
        <time>2014-07-08T14:59:23Z</time>
      </trkpt>
      <trkpt lat="59.8978528" lon="17.7278442">
        <ele>22.7283</ele>
        <time>2014-07-08T14:59:24Z</time>
      </trkpt>
      <trkpt lat="59.8978179" lon="17.7279463">
        <ele>22.2476</ele>
        <time>2014-07-08T14:59:25Z</time>
      </trkpt>
      <trkpt lat="59.8977844" lon="17.7280524">
        <ele>22.2476</ele>
        <time>2014-07-08T14:59:26Z</time>
      </trkpt>
      <trkpt lat="59.8977531" lon="17.7281622">
        <ele>22.2476</ele>
        <time>2014-07-08T14:59:27Z</time>
      </trkpt>
      <trkpt lat="59.8977246" lon="17.7282765">
        <ele>22.2476</ele>
        <time>2014-07-08T14:59:28Z</time>
      </trkpt>
      <trkpt lat="59.8976981" lon="17.728393">
        <ele>22.2476</ele>
        <time>2014-07-08T14:59:29Z</time>
      </trkpt>
      <trkpt lat="59.8976726" lon="17.7285111">
        <ele>22.2476</ele>
        <time>2014-07-08T14:59:30Z</time>
      </trkpt>
      <trkpt lat="59.8976477" lon="17.7286306">
        <ele>22.2476</ele>
        <time>2014-07-08T14:59:31Z</time>
      </trkpt>
      <trkpt lat="59.8976229" lon="17.7287512">
        <ele>22.2476</ele>
        <time>2014-07-08T14:59:32Z</time>
      </trkpt>
      <trkpt lat="59.8975976" lon="17.728872">
        <ele>22.2476</ele>
        <time>2014-07-08T14:59:33Z</time>
      </trkpt>
      <trkpt lat="59.8975728" lon="17.7289936">
        <ele>22.2476</ele>
        <time>2014-07-08T14:59:34Z</time>
      </trkpt>
      <trkpt lat="59.897549" lon="17.7291159">
        <ele>22.2476</ele>
        <time>2014-07-08T14:59:35Z</time>
      </trkpt>
      <trkpt lat="59.8975267" lon="17.7292382">
        <ele>22.2476</ele>
        <time>2014-07-08T14:59:36Z</time>
      </trkpt>
      <trkpt lat="59.8975055" lon="17.7293609">
        <ele>22.2476</ele>
        <time>2014-07-08T14:59:37Z</time>
      </trkpt>
      <trkpt lat="59.8974873" lon="17.7294851">
        <ele>22.7283</ele>
        <time>2014-07-08T14:59:38Z</time>
      </trkpt>
      <trkpt lat="59.8974716" lon="17.7296101">
        <ele>22.7283</ele>
        <time>2014-07-08T14:59:39Z</time>
      </trkpt>
      <trkpt lat="59.8974583" lon="17.7297333">
        <ele>23.209</ele>
        <time>2014-07-08T14:59:40Z</time>
      </trkpt>
      <trkpt lat="59.8974474" lon="17.7298498">
        <ele>23.209</ele>
        <time>2014-07-08T14:59:41Z</time>
      </trkpt>
      <trkpt lat="59.8974389" lon="17.7299619">
        <ele>23.6896</ele>
        <time>2014-07-08T14:59:42Z</time>
      </trkpt>
      <trkpt lat="59.8974348" lon="17.7300742">
        <ele>23.6896</ele>
        <time>2014-07-08T14:59:43Z</time>
      </trkpt>
      <trkpt lat="59.8974359" lon="17.7301835">
        <ele>24.1703</ele>
        <time>2014-07-08T14:59:44Z</time>
      </trkpt>
      <trkpt lat="59.8974412" lon="17.7302865">
        <ele>24.651</ele>
        <time>2014-07-08T14:59:45Z</time>
      </trkpt>
      <trkpt lat="59.8974508" lon="17.7303855">
        <ele>25.1317</ele>
        <time>2014-07-08T14:59:46Z</time>
      </trkpt>
      <trkpt lat="59.897462" lon="17.7304798">
        <ele>25.1317</ele>
        <time>2014-07-08T14:59:47Z</time>
      </trkpt>
      <trkpt lat="59.8974742" lon="17.7305735">
        <ele>25.6123</ele>
        <time>2014-07-08T14:59:48Z</time>
      </trkpt>
      <trkpt lat="59.8974852" lon="17.730661">
        <ele>26.0929</ele>
        <time>2014-07-08T14:59:49Z</time>
      </trkpt>
      <trkpt lat="59.8974971" lon="17.7307492">
        <ele>26.0929</ele>
        <time>2014-07-08T14:59:50Z</time>
      </trkpt>
      <trkpt lat="59.8975109" lon="17.7308356">
        <ele>26.5736</ele>
        <time>2014-07-08T14:59:51Z</time>
      </trkpt>
      <trkpt lat="59.8975219" lon="17.7309221">
        <ele>27.0543</ele>
        <time>2014-07-08T14:59:52Z</time>
      </trkpt>
      <trkpt lat="59.8975308" lon="17.7310107">
        <ele>27.0543</ele>
        <time>2014-07-08T14:59:53Z</time>
      </trkpt>
      <trkpt lat="59.8975375" lon="17.7311039">
        <ele>27.0543</ele>
        <time>2014-07-08T14:59:54Z</time>
      </trkpt>
      <trkpt lat="59.8975427" lon="17.7312024">
        <ele>27.5349</ele>
        <time>2014-07-08T14:59:55Z</time>
      </trkpt>
      <trkpt lat="59.8975469" lon="17.7313047">
        <ele>27.5349</ele>
        <time>2014-07-08T14:59:56Z</time>
      </trkpt>
      <trkpt lat="59.8975479" lon="17.7314117">
        <ele>27.5349</ele>
        <time>2014-07-08T14:59:57Z</time>
      </trkpt>
      <trkpt lat="59.8975469" lon="17.7315247">
        <ele>27.0543</ele>
        <time>2014-07-08T14:59:58Z</time>
      </trkpt>
      <trkpt lat="59.8975459" lon="17.7316397">
        <ele>27.0543</ele>
        <time>2014-07-08T14:59:59Z</time>
      </trkpt>
      <trkpt lat="59.8975432" lon="17.7317525">
        <ele>26.5736</ele>
        <time>2014-07-08T15:00:00Z</time>
      </trkpt>
      <trkpt lat="59.8975386" lon="17.7318654">
        <ele>26.5736</ele>
        <time>2014-07-08T15:00:01Z</time>
      </trkpt>
      <trkpt lat="59.8975342" lon="17.7319792">
        <ele>26.5736</ele>
        <time>2014-07-08T15:00:02Z</time>
      </trkpt>
      <trkpt lat="59.8975314" lon="17.7320942">
        <ele>26.5736</ele>
        <time>2014-07-08T15:00:03Z</time>
      </trkpt>
      <trkpt lat="59.8975281" lon="17.7322085">
        <ele>26.5736</ele>
        <time>2014-07-08T15:00:04Z</time>
      </trkpt>
      <trkpt lat="59.8975226" lon="17.7323219">
        <ele>26.5736</ele>
        <time>2014-07-08T15:00:05Z</time>
      </trkpt>
      <trkpt lat="59.8975163" lon="17.7324345">
        <ele>26.5736</ele>
        <time>2014-07-08T15:00:06Z</time>
      </trkpt>
      <trkpt lat="59.8975111" lon="17.7325472">
        <ele>26.5736</ele>
        <time>2014-07-08T15:00:07Z</time>
      </trkpt>
      <trkpt lat="59.897507" lon="17.7326617">
        <ele>26.5736</ele>
        <time>2014-07-08T15:00:08Z</time>
      </trkpt>
      <trkpt lat="59.8975019" lon="17.7327766">
        <ele>26.5736</ele>
        <time>2014-07-08T15:00:09Z</time>
      </trkpt>
      <trkpt lat="59.8974965" lon="17.7328912">
        <ele>26.5736</ele>
        <time>2014-07-08T15:00:10Z</time>
      </trkpt>
      <trkpt lat="59.8974908" lon="17.7330061">
        <ele>26.5736</ele>
        <time>2014-07-08T15:00:11Z</time>
      </trkpt>
      <trkpt lat="59.8974835" lon="17.7331206">
        <ele>27.0543</ele>
        <time>2014-07-08T15:00:12Z</time>
      </trkpt>
      <trkpt lat="59.8974736" lon="17.733234">
        <ele>27.0543</ele>
        <time>2014-07-08T15:00:13Z</time>
      </trkpt>
      <trkpt lat="59.8974624" lon="17.7333457">
        <ele>27.0543</ele>
        <time>2014-07-08T15:00:14Z</time>
      </trkpt>
      <trkpt lat="59.8974519" lon="17.7334563">
        <ele>27.0543</ele>
        <time>2014-07-08T15:00:15Z</time>
      </trkpt>
      <trkpt lat="59.8974402" lon="17.7335653">
        <ele>27.0543</ele>
        <time>2014-07-08T15:00:16Z</time>
      </trkpt>
      <trkpt lat="59.8974257" lon="17.7336726">
        <ele>27.0543</ele>
        <time>2014-07-08T15:00:17Z</time>
      </trkpt>
      <trkpt lat="59.8974083" lon="17.7337796">
        <ele>27.0543</ele>
        <time>2014-07-08T15:00:18Z</time>
      </trkpt>
      <trkpt lat="59.8973878" lon="17.7338878">
        <ele>27.0543</ele>
        <time>2014-07-08T15:00:19Z</time>
      </trkpt>
      <trkpt lat="59.8973681" lon="17.7339913">
        <ele>27.5349</ele>
        <time>2014-07-08T15:00:20Z</time>
      </trkpt>
      <trkpt lat="59.8973428" lon="17.7340928">
        <ele>27.0543</ele>
        <time>2014-07-08T15:00:21Z</time>
      </trkpt>
      <trkpt lat="59.8973148" lon="17.7341945">
        <ele>26.5736</ele>
        <time>2014-07-08T15:00:22Z</time>
      </trkpt>
      <trkpt lat="59.8972894" lon="17.7342914">
        <ele>26.5736</ele>
        <time>2014-07-08T15:00:23Z</time>
      </trkpt>
      <trkpt lat="59.8972651" lon="17.7343897">
        <ele>26.5736</ele>
        <time>2014-07-08T15:00:24Z</time>
      </trkpt>
      <trkpt lat="59.8972418" lon="17.7344886">
        <ele>26.5736</ele>
        <time>2014-07-08T15:00:25Z</time>
      </trkpt>
      <trkpt lat="59.8972208" lon="17.7345922">
        <ele>26.0929</ele>
        <time>2014-07-08T15:00:26Z</time>
      </trkpt>
      <trkpt lat="59.8972013" lon="17.7347032">
        <ele>26.0929</ele>
        <time>2014-07-08T15:00:27Z</time>
      </trkpt>
      <trkpt lat="59.8971848" lon="17.7348222">
        <ele>25.6123</ele>
        <time>2014-07-08T15:00:28Z</time>
      </trkpt>
      <trkpt lat="59.8971724" lon="17.7349502">
        <ele>25.6123</ele>
        <time>2014-07-08T15:00:29Z</time>
      </trkpt>
      <trkpt lat="59.8971623" lon="17.7350824">
        <ele>25.1317</ele>
        <time>2014-07-08T15:00:30Z</time>
      </trkpt>
      <trkpt lat="59.8971573" lon="17.735222">
        <ele>25.1317</ele>
        <time>2014-07-08T15:00:31Z</time>
      </trkpt>
      <trkpt lat="59.8971552" lon="17.7353636">
        <ele>24.1703</ele>
        <time>2014-07-08T15:00:32Z</time>
      </trkpt>
      <trkpt lat="59.8971542" lon="17.7355089">
        <ele>24.1703</ele>
        <time>2014-07-08T15:00:33Z</time>
      </trkpt>
      <trkpt lat="59.897153" lon="17.7356574">
        <ele>23.6896</ele>
        <time>2014-07-08T15:00:34Z</time>
      </trkpt>
      <trkpt lat="59.8971507" lon="17.7358065">
        <ele>23.6896</ele>
        <time>2014-07-08T15:00:35Z</time>
      </trkpt>
      <trkpt lat="59.8971464" lon="17.7359551">
        <ele>23.6896</ele>
        <time>2014-07-08T15:00:36Z</time>
      </trkpt>
      <trkpt lat="59.8971382" lon="17.736102">
        <ele>23.6896</ele>
        <time>2014-07-08T15:00:37Z</time>
      </trkpt>
      <trkpt lat="59.8971262" lon="17.7362462">
        <ele>23.6896</ele>
        <time>2014-07-08T15:00:38Z</time>
      </trkpt>
      <trkpt lat="59.8971097" lon="17.7363862">
        <ele>23.6896</ele>
        <time>2014-07-08T15:00:39Z</time>
      </trkpt>
      <trkpt lat="59.897089" lon="17.7365218">
        <ele>23.6896</ele>
        <time>2014-07-08T15:00:40Z</time>
      </trkpt>
      <trkpt lat="59.8970628" lon="17.7366516">
        <ele>23.6896</ele>
        <time>2014-07-08T15:00:41Z</time>
      </trkpt>
      <trkpt lat="59.8970312" lon="17.7367726">
        <ele>24.1703</ele>
        <time>2014-07-08T15:00:42Z</time>
      </trkpt>
      <trkpt lat="59.8969963" lon="17.7368863">
        <ele>24.1703</ele>
        <time>2014-07-08T15:00:43Z</time>
      </trkpt>
      <trkpt lat="59.8969605" lon="17.7369956">
        <ele>24.651</ele>
        <time>2014-07-08T15:00:44Z</time>
      </trkpt>
      <trkpt lat="59.8969243" lon="17.737101">
        <ele>24.651</ele>
        <time>2014-07-08T15:00:45Z</time>
      </trkpt>
      <trkpt lat="59.896887" lon="17.7372015">
        <ele>25.1317</ele>
        <time>2014-07-08T15:00:46Z</time>
      </trkpt>
      <trkpt lat="59.8968487" lon="17.7372979">
        <ele>25.1317</ele>
        <time>2014-07-08T15:00:47Z</time>
      </trkpt>
      <trkpt lat="59.8968108" lon="17.7373931">
        <ele>25.1317</ele>
        <time>2014-07-08T15:00:48Z</time>
      </trkpt>
      <trkpt lat="59.8967729" lon="17.7374885">
        <ele>25.1317</ele>
        <time>2014-07-08T15:00:49Z</time>
      </trkpt>
      <trkpt lat="59.896736" lon="17.7375868">
        <ele>25.6123</ele>
        <time>2014-07-08T15:00:50Z</time>
      </trkpt>
      <trkpt lat="59.8966995" lon="17.7376884">
        <ele>25.6123</ele>
        <time>2014-07-08T15:00:51Z</time>
      </trkpt>
      <trkpt lat="59.8966651" lon="17.7377949">
        <ele>25.6123</ele>
        <time>2014-07-08T15:00:52Z</time>
      </trkpt>
      <trkpt lat="59.8966337" lon="17.7379081">
        <ele>25.1317</ele>
        <time>2014-07-08T15:00:53Z</time>
      </trkpt>
      <trkpt lat="59.8966047" lon="17.7380276">
        <ele>25.1317</ele>
        <time>2014-07-08T15:00:54Z</time>
      </trkpt>
      <trkpt lat="59.8965751" lon="17.7381525">
        <ele>25.1317</ele>
        <time>2014-07-08T15:00:55Z</time>
      </trkpt>
      <trkpt lat="59.8965465" lon="17.7382834">
        <ele>25.1317</ele>
        <time>2014-07-08T15:00:56Z</time>
      </trkpt>
      <trkpt lat="59.8965182" lon="17.7384167">
        <ele>25.1317</ele>
        <time>2014-07-08T15:00:57Z</time>
      </trkpt>
      <trkpt lat="59.8964829" lon="17.7385435">
        <ele>25.1317</ele>
        <time>2014-07-08T15:00:58Z</time>
      </trkpt>
      <trkpt lat="59.8964352" lon="17.7386522">
        <ele>25.1317</ele>
        <time>2014-07-08T15:00:59Z</time>
      </trkpt>
      <trkpt lat="59.8963781" lon="17.7387347">
        <ele>25.1317</ele>
        <time>2014-07-08T15:01:00Z</time>
      </trkpt>
      <trkpt lat="59.8963148" lon="17.7387912">
        <ele>24.651</ele>
        <time>2014-07-08T15:01:01Z</time>
      </trkpt>
      <trkpt lat="59.8962466" lon="17.7388301">
        <ele>24.1703</ele>
        <time>2014-07-08T15:01:02Z</time>
      </trkpt>
      <trkpt lat="59.8961758" lon="17.7388589">
        <ele>24.1703</ele>
        <time>2014-07-08T15:01:03Z</time>
      </trkpt>
      <trkpt lat="59.8961025" lon="17.7388809">
        <ele>23.6896</ele>
        <time>2014-07-08T15:01:04Z</time>
      </trkpt>
      <trkpt lat="59.8960284" lon="17.7389009">
        <ele>23.209</ele>
        <time>2014-07-08T15:01:05Z</time>
      </trkpt>
      <trkpt lat="59.8959544" lon="17.7389224">
        <ele>22.7283</ele>
        <time>2014-07-08T15:01:06Z</time>
      </trkpt>
      <trkpt lat="59.8958813" lon="17.7389451">
        <ele>22.7283</ele>
        <time>2014-07-08T15:01:07Z</time>
      </trkpt>
      <trkpt lat="59.8958093" lon="17.7389654">
        <ele>22.7283</ele>
        <time>2014-07-08T15:01:08Z</time>
      </trkpt>
      <trkpt lat="59.8957388" lon="17.7389824">
        <ele>22.7283</ele>
        <time>2014-07-08T15:01:09Z</time>
      </trkpt>
      <trkpt lat="59.8956701" lon="17.7389988">
        <ele>22.2476</ele>
        <time>2014-07-08T15:01:10Z</time>
      </trkpt>
      <trkpt lat="59.8956023" lon="17.7390155">
        <ele>22.2476</ele>
        <time>2014-07-08T15:01:11Z</time>
      </trkpt>
      <trkpt lat="59.8955348" lon="17.7390319">
        <ele>22.2476</ele>
        <time>2014-07-08T15:01:12Z</time>
      </trkpt>
      <trkpt lat="59.8953979" lon="17.7390633">
        <ele>22.2476</ele>
        <time>2014-07-08T15:01:14Z</time>
      </trkpt>
      <trkpt lat="59.8953288" lon="17.7390797">
        <ele>22.2476</ele>
        <time>2014-07-08T15:01:15Z</time>
      </trkpt>
      <trkpt lat="59.89526" lon="17.739097">
        <ele>22.2476</ele>
        <time>2014-07-08T15:01:16Z</time>
      </trkpt>
      <trkpt lat="59.8951925" lon="17.7391203">
        <ele>22.2476</ele>
        <time>2014-07-08T15:01:17Z</time>
      </trkpt>
      <trkpt lat="59.8951276" lon="17.7391466">
        <ele>22.7283</ele>
        <time>2014-07-08T15:01:18Z</time>
      </trkpt>
      <trkpt lat="59.8950655" lon="17.7391713">
        <ele>22.7283</ele>
        <time>2014-07-08T15:01:19Z</time>
      </trkpt>
      <trkpt lat="59.8950056" lon="17.7391927">
        <ele>22.7283</ele>
        <time>2014-07-08T15:01:20Z</time>
      </trkpt>
      <trkpt lat="59.8949486" lon="17.739212">
        <ele>23.209</ele>
        <time>2014-07-08T15:01:21Z</time>
      </trkpt>
      <trkpt lat="59.8948953" lon="17.7392342">
        <ele>23.209</ele>
        <time>2014-07-08T15:01:22Z</time>
      </trkpt>
      <trkpt lat="59.8948466" lon="17.739262">
        <ele>23.209</ele>
        <time>2014-07-08T15:01:23Z</time>
      </trkpt>
      <trkpt lat="59.8948026" lon="17.7392943">
        <ele>23.6896</ele>
        <time>2014-07-08T15:01:24Z</time>
      </trkpt>
      <trkpt lat="59.8947627" lon="17.7393221">
        <ele>23.6896</ele>
        <time>2014-07-08T15:01:25Z</time>
      </trkpt>
      <trkpt lat="59.8947269" lon="17.7393472">
        <ele>24.1703</ele>
        <time>2014-07-08T15:01:26Z</time>
      </trkpt>
      <trkpt lat="59.8946999" lon="17.7393826">
        <ele>24.1703</ele>
        <time>2014-07-08T15:01:27Z</time>
      </trkpt>
      <trkpt lat="59.8946841" lon="17.7394315">
        <ele>24.1703</ele>
        <time>2014-07-08T15:01:28Z</time>
      </trkpt>
      <trkpt lat="59.8946784" lon="17.7394901">
        <ele>24.651</ele>
        <time>2014-07-08T15:01:29Z</time>
      </trkpt>
      <trkpt lat="59.8946781" lon="17.7395506">
        <ele>24.651</ele>
        <time>2014-07-08T15:01:30Z</time>
      </trkpt>
      <trkpt lat="59.8946796" lon="17.7396087">
        <ele>24.651</ele>
        <time>2014-07-08T15:01:31Z</time>
      </trkpt>
      <trkpt lat="59.8946811" lon="17.7396628">
        <ele>24.651</ele>
        <time>2014-07-08T15:01:32Z</time>
      </trkpt>
      <trkpt lat="59.8946815" lon="17.7397133">
        <ele>24.651</ele>
        <time>2014-07-08T15:01:33Z</time>
      </trkpt>
      <trkpt lat="59.8946807" lon="17.7397582">
        <ele>25.1317</ele>
        <time>2014-07-08T15:01:34Z</time>
      </trkpt>
      <trkpt lat="59.8946781" lon="17.7397962">
        <ele>25.1317</ele>
        <time>2014-07-08T15:01:35Z</time>
      </trkpt>
      <trkpt lat="59.8946729" lon="17.7398278">
        <ele>25.1317</ele>
        <time>2014-07-08T15:01:36Z</time>
      </trkpt>
      <trkpt lat="59.8946652" lon="17.739848">
        <ele>25.1317</ele>
        <time>2014-07-08T15:01:37Z</time>
      </trkpt>
      <trkpt lat="59.8946625" lon="17.739855">
        <ele>25.1317</ele>
        <time>2014-07-08T15:01:38Z</time>
      </trkpt>
      <trkpt lat="59.8946635" lon="17.7398556">
        <ele>25.1317</ele>
        <time>2014-07-08T15:01:39Z</time>
      </trkpt>
      <trkpt lat="59.8946641" lon="17.7398558">
        <ele>25.1317</ele>
        <time>2014-07-08T15:01:40Z</time>
      </trkpt>
    </trkseg>
  </trk>
</gpx>